﻿<?xml version="1.0" encoding="utf-8"?><gpx creator="Garmin Desktop App" version="1.1" xsi:schemaLocation="http://www.topografix.com/GPX/1/1 http://www.topografix.com/GPX/1/1/gpx.xsd http://www.garmin.com/xmlschemas/WaypointExtension/v1 http://www8.garmin.com/xmlschemas/WaypointExtensionv1.xsd http://www.garmin.com/xmlschemas/TrackPointExtension/v1 http://www.garmin.com/xmlschemas/TrackPointExtensionv1.xsd http://www.garmin.com/xmlschemas/GpxExtensions/v3 http://www8.garmin.com/xmlschemas/GpxExtensionsv3.xsd http://www.garmin.com/xmlschemas/ActivityExtension/v1 http://www8.garmin.com/xmlschemas/ActivityExtensionv1.xsd http://www.garmin.com/xmlschemas/AdventuresExtensions/v1 http://www8.garmin.com/xmlschemas/AdventuresExtensionv1.xsd http://www.garmin.com/xmlschemas/PressureExtension/v1 http://www.garmin.com/xmlschemas/PressureExtensionv1.xsd http://www.garmin.com/xmlschemas/TripExtensions/v1 http://www.garmin.com/xmlschemas/TripExtensionsv1.xsd http://www.garmin.com/xmlschemas/TripMetaDataExtensions/v1 http://www.garmin.com/xmlschemas/TripMetaDataExtensionsv1.xsd http://www.garmin.com/xmlschemas/ViaPointTransportationModeExtensions/v1 http://www.garmin.com/xmlschemas/ViaPointTransportationModeExtensionsv1.xsd http://www.garmin.com/xmlschemas/CreationTimeExtension/v1 http://www.garmin.com/xmlschemas/CreationTimeExtensionsv1.xsd http://www.garmin.com/xmlschemas/AccelerationExtension/v1 http://www.garmin.com/xmlschemas/AccelerationExtensionv1.xsd http://www.garmin.com/xmlschemas/PowerExtension/v1 http://www.garmin.com/xmlschemas/PowerExtensionv1.xsd http://www.garmin.com/xmlschemas/VideoExtension/v1 http://www.garmin.com/xmlschemas/VideoExtensionv1.xsd" xmlns="http://www.topografix.com/GPX/1/1" xmlns:xsi="http://www.w3.org/2001/XMLSchema-instance" xmlns:wptx1="http://www.garmin.com/xmlschemas/WaypointExtension/v1" xmlns:gpxtrx="http://www.garmin.com/xmlschemas/GpxExtensions/v3" xmlns:gpxtpx="http://www.garmin.com/xmlschemas/TrackPointExtension/v1" xmlns:gpxx="http://www.garmin.com/xmlschemas/GpxExtensions/v3" xmlns:trp="http://www.garmin.com/xmlschemas/TripExtensions/v1" xmlns:adv="http://www.garmin.com/xmlschemas/AdventuresExtensions/v1" xmlns:prs="http://www.garmin.com/xmlschemas/PressureExtension/v1" xmlns:tmd="http://www.garmin.com/xmlschemas/TripMetaDataExtensions/v1" xmlns:vptm="http://www.garmin.com/xmlschemas/ViaPointTransportationModeExtensions/v1" xmlns:ctx="http://www.garmin.com/xmlschemas/CreationTimeExtension/v1" xmlns:gpxacc="http://www.garmin.com/xmlschemas/AccelerationExtension/v1" xmlns:gpxpx="http://www.garmin.com/xmlschemas/PowerExtension/v1" xmlns:vidx1="http://www.garmin.com/xmlschemas/VideoExtension/v1">

  <metadata>
    <link href="http://www.garmin.com">
      <text>Garmin International</text>
    </link>
    <time>2018-07-04T19:30:38Z</time>
    <bounds maxlat="49.726327965036035" maxlon="-0.351933985948563" minlat="48.775214971974492" minlon="-1.940332967787981" />
  </metadata>

  <trk>
    <name>Track vom: 2018-07-04 08:31</name>
    <extensions>
      <gpxx:TrackExtension>
        <gpxx:DisplayColor>DarkGray</gpxx:DisplayColor>
      </gpxx:TrackExtension>
    </extensions>
    <trkseg>
      <trkpt lat="49.194767028093338" lon="-0.351933985948563">
        <ele>41.950000000000003</ele>
        <time>2018-07-04T06:31:02Z</time>
      </trkpt>
      <trkpt lat="49.194768033921719" lon="-0.351939015090466">
        <ele>41.950000000000003</ele>
        <time>2018-07-04T06:31:31Z</time>
      </trkpt>
      <trkpt lat="49.194768033921719" lon="-0.351939015090466">
        <ele>41.950000000000003</ele>
        <time>2018-07-04T06:31:42Z</time>
      </trkpt>
      <trkpt lat="49.194405013695359" lon="-0.352066000923514">
        <ele>38.109999999999999</ele>
        <time>2018-07-04T06:31:51Z</time>
      </trkpt>
      <trkpt lat="49.194354973733425" lon="-0.35207798704505">
        <ele>37.630000000000003</ele>
        <time>2018-07-04T06:31:52Z</time>
      </trkpt>
      <trkpt lat="49.194312980398536" lon="-0.352087961509824">
        <ele>37.149999999999999</ele>
        <time>2018-07-04T06:31:53Z</time>
      </trkpt>
      <trkpt lat="49.194250032305717" lon="-0.35214495845139">
        <ele>36.670000000000002</ele>
        <time>2018-07-04T06:31:54Z</time>
      </trkpt>
      <trkpt lat="49.194233017042279" lon="-0.352191980928183">
        <ele>36.189999999999998</ele>
        <time>2018-07-04T06:31:55Z</time>
      </trkpt>
      <trkpt lat="49.194217007607222" lon="-0.352233974263072">
        <ele>35.710000000000001</ele>
        <time>2018-07-04T06:31:56Z</time>
      </trkpt>
      <trkpt lat="49.194200998172164" lon="-0.352274961769581">
        <ele>34.740000000000002</ele>
        <time>2018-07-04T06:31:57Z</time>
      </trkpt>
      <trkpt lat="49.194184988737106" lon="-0.352318966761231">
        <ele>34.740000000000002</ele>
        <time>2018-07-04T06:31:58Z</time>
      </trkpt>
      <trkpt lat="49.194184988737106" lon="-0.352318966761231">
        <ele>34.259999999999998</ele>
        <time>2018-07-04T06:31:59Z</time>
      </trkpt>
      <trkpt lat="49.19406303204596" lon="-0.35261400975287">
        <ele>34.740000000000002</ele>
        <time>2018-07-04T06:32:04Z</time>
      </trkpt>
      <trkpt lat="49.193923976272345" lon="-0.353003013879061">
        <ele>34.259999999999998</ele>
        <time>2018-07-04T06:32:14Z</time>
      </trkpt>
      <trkpt lat="49.193940991535783" lon="-0.35302204079926">
        <ele>34.740000000000002</ele>
        <time>2018-07-04T06:32:15Z</time>
      </trkpt>
      <trkpt lat="49.193966975435615" lon="-0.353050958365202">
        <ele>34.740000000000002</ele>
        <time>2018-07-04T06:32:16Z</time>
      </trkpt>
      <trkpt lat="49.19400000013411" lon="-0.353089012205601">
        <ele>34.740000000000002</ele>
        <time>2018-07-04T06:32:17Z</time>
      </trkpt>
      <trkpt lat="49.194040987640619" lon="-0.353134023025632">
        <ele>34.740000000000002</ele>
        <time>2018-07-04T06:32:18Z</time>
      </trkpt>
      <trkpt lat="49.194081975147128" lon="-0.353183979168534">
        <ele>34.740000000000002</ele>
        <time>2018-07-04T06:32:19Z</time>
      </trkpt>
      <trkpt lat="49.194126985967159" lon="-0.353253968060017">
        <ele>34.740000000000002</ele>
        <time>2018-07-04T06:32:20Z</time>
      </trkpt>
      <trkpt lat="49.194430997595191" lon="-0.353866014629602">
        <ele>34.740000000000002</ele>
        <time>2018-07-04T06:32:27Z</time>
      </trkpt>
      <trkpt lat="49.194655967876315" lon="-0.355115002021194">
        <ele>36.189999999999998</ele>
        <time>2018-07-04T06:32:38Z</time>
      </trkpt>
      <trkpt lat="49.194672983139753" lon="-0.35588001832366">
        <ele>34.740000000000002</ele>
        <time>2018-07-04T06:32:47Z</time>
      </trkpt>
      <trkpt lat="49.194656973704696" lon="-0.356152011081576">
        <ele>35.229999999999997</ele>
        <time>2018-07-04T06:32:54Z</time>
      </trkpt>
      <trkpt lat="49.194646999239922" lon="-0.356257036328316">
        <ele>35.229999999999997</ele>
        <time>2018-07-04T06:32:55Z</time>
      </trkpt>
      <trkpt lat="49.194637024775147" lon="-0.356362983584404">
        <ele>35.710000000000001</ele>
        <time>2018-07-04T06:32:56Z</time>
      </trkpt>
      <trkpt lat="49.194599976763129" lon="-0.356481000781059">
        <ele>35.710000000000001</ele>
        <time>2018-07-04T06:32:57Z</time>
      </trkpt>
      <trkpt lat="49.194357991218567" lon="-0.357008976861835">
        <ele>35.229999999999997</ele>
        <time>2018-07-04T06:33:03Z</time>
      </trkpt>
      <trkpt lat="49.194328989833593" lon="-0.357073014602065">
        <ele>34.740000000000002</ele>
        <time>2018-07-04T06:33:04Z</time>
      </trkpt>
      <trkpt lat="49.1943200211972" lon="-0.357301002368331">
        <ele>34.740000000000002</ele>
        <time>2018-07-04T06:33:05Z</time>
      </trkpt>
      <trkpt lat="49.194372994825244" lon="-0.35742798820138">
        <ele>34.259999999999998</ele>
        <time>2018-07-04T06:33:07Z</time>
      </trkpt>
      <trkpt lat="49.19436695985496" lon="-0.357546005398035">
        <ele>34.740000000000002</ele>
        <time>2018-07-04T06:33:08Z</time>
      </trkpt>
      <trkpt lat="49.194361008703709" lon="-0.357666034251451">
        <ele>35.229999999999997</ele>
        <time>2018-07-04T06:33:09Z</time>
      </trkpt>
      <trkpt lat="49.194352962076664" lon="-0.357827972620726">
        <ele>35.710000000000001</ele>
        <time>2018-07-04T06:33:10Z</time>
      </trkpt>
      <trkpt lat="49.194336030632257" lon="-0.357911959290504">
        <ele>36.189999999999998</ele>
        <time>2018-07-04T06:33:11Z</time>
      </trkpt>
      <trkpt lat="49.194240979850292" lon="-0.358369024470448">
        <ele>38.590000000000003</ele>
        <time>2018-07-04T06:33:15Z</time>
      </trkpt>
      <trkpt lat="49.194222036749125" lon="-0.358461979776621">
        <ele>39.07</ele>
        <time>2018-07-04T06:33:16Z</time>
      </trkpt>
      <trkpt lat="49.194204015657306" lon="-0.358549989759922">
        <ele>39.549999999999997</ele>
        <time>2018-07-04T06:33:17Z</time>
      </trkpt>
      <trkpt lat="49.194188006222248" lon="-0.35862903110683">
        <ele>40.030000000000001</ele>
        <time>2018-07-04T06:33:18Z</time>
      </trkpt>
      <trkpt lat="49.194173002615571" lon="-0.358702959492803">
        <ele>40.509999999999998</ele>
        <time>2018-07-04T06:33:19Z</time>
      </trkpt>
      <trkpt lat="49.194155987352133" lon="-0.358783006668091">
        <ele>40.990000000000002</ele>
        <time>2018-07-04T06:33:20Z</time>
      </trkpt>
      <trkpt lat="49.194138972088695" lon="-0.35886699333787">
        <ele>41.469999999999999</ele>
        <time>2018-07-04T06:33:21Z</time>
      </trkpt>
      <trkpt lat="49.194078035652637" lon="-0.359159018844366">
        <ele>42.439999999999998</ele>
        <time>2018-07-04T06:33:25Z</time>
      </trkpt>
      <trkpt lat="49.194056997075677" lon="-0.359263038262725">
        <ele>42.920000000000002</ele>
        <time>2018-07-04T06:33:26Z</time>
      </trkpt>
      <trkpt lat="49.194017015397549" lon="-0.359458001330495">
        <ele>43.399999999999999</ele>
        <time>2018-07-04T06:33:27Z</time>
      </trkpt>
      <trkpt lat="49.193970998749137" lon="-0.359680037945509">
        <ele>44.359999999999999</ele>
        <time>2018-07-04T06:33:34Z</time>
      </trkpt>
      <trkpt lat="49.193958006799221" lon="-0.359739968553185">
        <ele>44.359999999999999</ele>
        <time>2018-07-04T06:33:46Z</time>
      </trkpt>
      <trkpt lat="49.193946020677686" lon="-0.359801994636655">
        <ele>44.359999999999999</ele>
        <time>2018-07-04T06:33:47Z</time>
      </trkpt>
      <trkpt lat="49.193897992372513" lon="-0.359797971323133">
        <ele>44.359999999999999</ele>
        <time>2018-07-04T06:33:48Z</time>
      </trkpt>
      <trkpt lat="49.193829009309411" lon="-0.359793026000261">
        <ele>44.359999999999999</ele>
        <time>2018-07-04T06:33:49Z</time>
      </trkpt>
      <trkpt lat="49.193753991276026" lon="-0.359785985201597">
        <ele>43.880000000000003</ele>
        <time>2018-07-04T06:33:50Z</time>
      </trkpt>
      <trkpt lat="49.192858971655369" lon="-0.359695041552186">
        <ele>39.549999999999997</ele>
        <time>2018-07-04T06:34:01Z</time>
      </trkpt>
      <trkpt lat="49.191979039460421" lon="-0.359602002426982">
        <ele>36.189999999999998</ele>
        <time>2018-07-04T06:34:11Z</time>
      </trkpt>
      <trkpt lat="49.190958961844444" lon="-0.359493959695101">
        <ele>31.859999999999999</ele>
        <time>2018-07-04T06:34:23Z</time>
      </trkpt>
      <trkpt lat="49.190006023272872" lon="-0.359391029924154">
        <ele>28.5</ele>
        <time>2018-07-04T06:34:34Z</time>
      </trkpt>
      <trkpt lat="49.189418032765388" lon="-0.359364962205291">
        <ele>25.609999999999999</ele>
        <time>2018-07-04T06:34:41Z</time>
      </trkpt>
      <trkpt lat="49.189267996698618" lon="-0.359390024095774">
        <ele>25.129999999999999</ele>
        <time>2018-07-04T06:34:43Z</time>
      </trkpt>
      <trkpt lat="49.188976977020502" lon="-0.359503012150526">
        <ele>22.73</ele>
        <time>2018-07-04T06:34:49Z</time>
      </trkpt>
      <trkpt lat="49.18893096037209" lon="-0.359565960243344">
        <ele>22.25</ele>
        <time>2018-07-04T06:34:50Z</time>
      </trkpt>
      <trkpt lat="49.188936995342374" lon="-0.359602002426982">
        <ele>21.77</ele>
        <time>2018-07-04T06:34:51Z</time>
      </trkpt>
      <trkpt lat="49.188944958150387" lon="-0.359651036560535">
        <ele>21.77</ele>
        <time>2018-07-04T06:34:52Z</time>
      </trkpt>
      <trkpt lat="49.188954010605812" lon="-0.359711972996593">
        <ele>21.77</ele>
        <time>2018-07-04T06:34:53Z</time>
      </trkpt>
      <trkpt lat="49.188965996727347" lon="-0.359784979373217">
        <ele>21.289999999999999</ele>
        <time>2018-07-04T06:34:54Z</time>
      </trkpt>
      <trkpt lat="49.188977982848883" lon="-0.359862009063363">
        <ele>21.289999999999999</ele>
        <time>2018-07-04T06:34:55Z</time>
      </trkpt>
      <trkpt lat="49.188988041132689" lon="-0.359925040975213">
        <ele>20.809999999999999</ele>
        <time>2018-07-04T06:34:56Z</time>
      </trkpt>
      <trkpt lat="49.188994998112321" lon="-0.359972985461354">
        <ele>20.809999999999999</ele>
        <time>2018-07-04T06:34:57Z</time>
      </trkpt>
      <trkpt lat="49.189002960920334" lon="-0.360019002109766">
        <ele>20.32</ele>
        <time>2018-07-04T06:34:58Z</time>
      </trkpt>
      <trkpt lat="49.189011007547379" lon="-0.360069964081049">
        <ele>20.32</ele>
        <time>2018-07-04T06:34:59Z</time>
      </trkpt>
      <trkpt lat="49.189019976183772" lon="-0.360127966850996">
        <ele>19.84</ele>
        <time>2018-07-04T06:35:00Z</time>
      </trkpt>
      <trkpt lat="49.189030034467578" lon="-0.360193010419607">
        <ele>19.84</ele>
        <time>2018-07-04T06:35:01Z</time>
      </trkpt>
      <trkpt lat="49.189042020589113" lon="-0.360270040109754">
        <ele>20.32</ele>
        <time>2018-07-04T06:35:02Z</time>
      </trkpt>
      <trkpt lat="49.189054006710649" lon="-0.36034899763763">
        <ele>20.809999999999999</ele>
        <time>2018-07-04T06:35:03Z</time>
      </trkpt>
      <trkpt lat="49.189089965075254" lon="-0.360896000638604">
        <ele>21.289999999999999</ele>
        <time>2018-07-04T06:35:08Z</time>
      </trkpt>
      <trkpt lat="49.189170012250543" lon="-0.362096959725022">
        <ele>23.210000000000001</ele>
        <time>2018-07-04T06:35:17Z</time>
      </trkpt>
      <trkpt lat="49.189179986715317" lon="-0.362235009670258">
        <ele>23.210000000000001</ele>
        <time>2018-07-04T06:35:18Z</time>
      </trkpt>
      <trkpt lat="49.189214017242193" lon="-0.362752005457878">
        <ele>23.690000000000001</ele>
        <time>2018-07-04T06:35:23Z</time>
      </trkpt>
      <trkpt lat="49.189217034727335" lon="-0.362791987136006">
        <ele>23.690000000000001</ele>
        <time>2018-07-04T06:35:24Z</time>
      </trkpt>
      <trkpt lat="49.189218962565064" lon="-0.362818976864219">
        <ele>23.690000000000001</ele>
        <time>2018-07-04T06:35:25Z</time>
      </trkpt>
      <trkpt lat="49.189220974221826" lon="-0.362858036532998">
        <ele>24.170000000000002</ele>
        <time>2018-07-04T06:35:28Z</time>
      </trkpt>
      <trkpt lat="49.189224997535348" lon="-0.362914027646184">
        <ele>24.649999999999999</ele>
        <time>2018-07-04T06:35:29Z</time>
      </trkpt>
      <trkpt lat="49.189192978665233" lon="-0.362937999889255">
        <ele>24.170000000000002</ele>
        <time>2018-07-04T06:35:30Z</time>
      </trkpt>
      <trkpt lat="49.18914201669395" lon="-0.362976975739002">
        <ele>24.170000000000002</ele>
        <time>2018-07-04T06:35:31Z</time>
      </trkpt>
      <trkpt lat="49.189090970903635" lon="-0.363016035407782">
        <ele>24.170000000000002</ele>
        <time>2018-07-04T06:35:32Z</time>
      </trkpt>
      <trkpt lat="49.189031962305307" lon="-0.363060962408781">
        <ele>24.649999999999999</ele>
        <time>2018-07-04T06:35:38Z</time>
      </trkpt>
      <trkpt lat="49.189018970355392" lon="-0.363071020692587">
        <ele>24.170000000000002</ele>
        <time>2018-07-04T06:35:48Z</time>
      </trkpt>
      <trkpt lat="49.188990974798799" lon="-0.363091975450516">
        <ele>23.690000000000001</ele>
        <time>2018-07-04T06:35:49Z</time>
      </trkpt>
      <trkpt lat="49.18895099312067" lon="-0.36312298849225">
        <ele>23.690000000000001</ele>
        <time>2018-07-04T06:35:50Z</time>
      </trkpt>
      <trkpt lat="49.188904976472259" lon="-0.363158024847507">
        <ele>23.210000000000001</ele>
        <time>2018-07-04T06:35:51Z</time>
      </trkpt>
      <trkpt lat="49.188843034207821" lon="-0.363287022337317">
        <ele>23.210000000000001</ele>
        <time>2018-07-04T06:35:52Z</time>
      </trkpt>
      <trkpt lat="49.188826018944383" lon="-0.363384000957012">
        <ele>23.210000000000001</ele>
        <time>2018-07-04T06:35:53Z</time>
      </trkpt>
      <trkpt lat="49.188806992024183" lon="-0.36348701454699">
        <ele>22.73</ele>
        <time>2018-07-04T06:35:54Z</time>
      </trkpt>
      <trkpt lat="49.18871202506125" lon="-0.364055978134274">
        <ele>22.73</ele>
        <time>2018-07-04T06:36:02Z</time>
      </trkpt>
      <trkpt lat="49.18871202506125" lon="-0.364055978134274">
        <ele>22.73</ele>
        <time>2018-07-04T06:36:30Z</time>
      </trkpt>
      <trkpt lat="49.188656033948064" lon="-0.364486975595355">
        <ele>22.25</ele>
        <time>2018-07-04T06:36:54Z</time>
      </trkpt>
      <trkpt lat="49.188643964007497" lon="-0.364589989185333">
        <ele>22.25</ele>
        <time>2018-07-04T06:36:55Z</time>
      </trkpt>
      <trkpt lat="49.188611023128033" lon="-0.364684034138918">
        <ele>21.77</ele>
        <time>2018-07-04T06:36:56Z</time>
      </trkpt>
      <trkpt lat="49.188536005094647" lon="-0.364891989156604">
        <ele>21.289999999999999</ele>
        <time>2018-07-04T06:36:58Z</time>
      </trkpt>
      <trkpt lat="49.188495017588139" lon="-0.365004977211356">
        <ele>20.809999999999999</ele>
        <time>2018-07-04T06:36:59Z</time>
      </trkpt>
      <trkpt lat="49.188163010403514" lon="-0.365772005170584">
        <ele>15.52</ele>
        <time>2018-07-04T06:37:09Z</time>
      </trkpt>
      <trkpt lat="49.188151024281979" lon="-0.365797989070416">
        <ele>15.039999999999999</ele>
        <time>2018-07-04T06:37:19Z</time>
      </trkpt>
      <trkpt lat="49.188072988763452" lon="-0.365965962409973">
        <ele>12.630000000000001</ele>
        <time>2018-07-04T06:37:47Z</time>
      </trkpt>
      <trkpt lat="49.187927981838584" lon="-0.366351027041674">
        <ele>9.75</ele>
        <time>2018-07-04T06:37:51Z</time>
      </trkpt>
      <trkpt lat="49.187857992947102" lon="-0.366668030619621">
        <ele>8.310000000000001</ele>
        <time>2018-07-04T06:37:54Z</time>
      </trkpt>
      <trkpt lat="49.187829997390509" lon="-0.366762997582555">
        <ele>7.83</ele>
        <time>2018-07-04T06:37:55Z</time>
      </trkpt>
      <trkpt lat="49.187800996005535" lon="-0.366953015327454">
        <ele>7.35</ele>
        <time>2018-07-04T06:37:56Z</time>
      </trkpt>
      <trkpt lat="49.187829997390509" lon="-0.367057034745812">
        <ele>6.87</ele>
        <time>2018-07-04T06:37:57Z</time>
      </trkpt>
      <trkpt lat="49.187858998775482" lon="-0.367159964516759">
        <ele>6.39</ele>
        <time>2018-07-04T06:37:58Z</time>
      </trkpt>
      <trkpt lat="49.187883976846933" lon="-0.367253003641963">
        <ele>5.91</ele>
        <time>2018-07-04T06:37:59Z</time>
      </trkpt>
      <trkpt lat="49.187917001545429" lon="-0.367345036938787">
        <ele>5.91</ele>
        <time>2018-07-04T06:38:00Z</time>
      </trkpt>
      <trkpt lat="49.187949020415545" lon="-0.367417959496379">
        <ele>5.42</ele>
        <time>2018-07-04T06:38:01Z</time>
      </trkpt>
      <trkpt lat="49.187980033457279" lon="-0.367490965873003">
        <ele>4.46</ele>
        <time>2018-07-04T06:38:02Z</time>
      </trkpt>
      <trkpt lat="49.188045999035239" lon="-0.367645025253296">
        <ele>3.98</ele>
        <time>2018-07-04T06:38:04Z</time>
      </trkpt>
      <trkpt lat="49.188081035390496" lon="-0.367727000266314">
        <ele>3.5</ele>
        <time>2018-07-04T06:38:05Z</time>
      </trkpt>
      <trkpt lat="49.188275998458266" lon="-0.368282971903682">
        <ele>1.1</ele>
        <time>2018-07-04T06:38:14Z</time>
      </trkpt>
      <trkpt lat="49.18832796625793" lon="-0.368418004363775">
        <ele>1.1</ele>
        <time>2018-07-04T06:38:16Z</time>
      </trkpt>
      <trkpt lat="49.188537010923028" lon="-0.368969030678272">
        <ele>0.62</ele>
        <time>2018-07-04T06:38:22Z</time>
      </trkpt>
      <trkpt lat="49.188581015914679" lon="-0.36907103843987">
        <ele>0.62</ele>
        <time>2018-07-04T06:38:23Z</time>
      </trkpt>
      <trkpt lat="49.189146040007472" lon="-0.370161021128297">
        <ele>4.46</ele>
        <time>2018-07-04T06:38:35Z</time>
      </trkpt>
      <trkpt lat="49.189620958641171" lon="-0.371046988293529">
        <ele>11.19</ele>
        <time>2018-07-04T06:38:45Z</time>
      </trkpt>
      <trkpt lat="49.190285978838801" lon="-0.372309973463416">
        <ele>16.48</ele>
        <time>2018-07-04T06:38:56Z</time>
      </trkpt>
      <trkpt lat="49.190524024888873" lon="-0.37278899922967">
        <ele>19.84</ele>
        <time>2018-07-04T06:39:02Z</time>
      </trkpt>
      <trkpt lat="49.190550008788705" lon="-0.372843984514475">
        <ele>20.32</ele>
        <time>2018-07-04T06:39:03Z</time>
      </trkpt>
      <trkpt lat="49.190574986860156" lon="-0.37289603613317">
        <ele>20.809999999999999</ele>
        <time>2018-07-04T06:39:04Z</time>
      </trkpt>
      <trkpt lat="49.190595019608736" lon="-0.37293903529644">
        <ele>21.289999999999999</ele>
        <time>2018-07-04T06:39:05Z</time>
      </trkpt>
      <trkpt lat="49.190612034872174" lon="-0.372973987832665">
        <ele>21.77</ele>
        <time>2018-07-04T06:39:06Z</time>
      </trkpt>
      <trkpt lat="49.190631983801723" lon="-0.373015981167555">
        <ele>22.73</ele>
        <time>2018-07-04T06:39:17Z</time>
      </trkpt>
      <trkpt lat="49.190757963806391" lon="-0.373268024995923">
        <ele>27.050000000000001</ele>
        <time>2018-07-04T06:39:30Z</time>
      </trkpt>
      <trkpt lat="49.191271020099521" lon="-0.374244013801217">
        <ele>34.740000000000002</ele>
        <time>2018-07-04T06:39:43Z</time>
      </trkpt>
      <trkpt lat="49.191397000104189" lon="-0.374489016830921">
        <ele>36.670000000000002</ele>
        <time>2018-07-04T06:39:47Z</time>
      </trkpt>
      <trkpt lat="49.191424995660782" lon="-0.374545007944107">
        <ele>37.149999999999999</ele>
        <time>2018-07-04T06:39:48Z</time>
      </trkpt>
      <trkpt lat="49.191449973732233" lon="-0.374594964087009">
        <ele>37.149999999999999</ele>
        <time>2018-07-04T06:39:49Z</time>
      </trkpt>
      <trkpt lat="49.191473023965955" lon="-0.374639974907041">
        <ele>37.630000000000003</ele>
        <time>2018-07-04T06:39:50Z</time>
      </trkpt>
      <trkpt lat="49.191495990380645" lon="-0.374688003212214">
        <ele>37.630000000000003</ele>
        <time>2018-07-04T06:39:51Z</time>
      </trkpt>
      <trkpt lat="49.191520968452096" lon="-0.374737037345767">
        <ele>37.630000000000003</ele>
        <time>2018-07-04T06:39:52Z</time>
      </trkpt>
      <trkpt lat="49.191547036170959" lon="-0.374789005145431">
        <ele>38.109999999999999</ele>
        <time>2018-07-04T06:39:53Z</time>
      </trkpt>
      <trkpt lat="49.191574025899172" lon="-0.374849019572139">
        <ele>38.109999999999999</ele>
        <time>2018-07-04T06:39:54Z</time>
      </trkpt>
      <trkpt lat="49.191858004778624" lon="-0.375200975686312">
        <ele>39.549999999999997</ele>
        <time>2018-07-04T06:40:03Z</time>
      </trkpt>
      <trkpt lat="49.191879965364933" lon="-0.375191001221538">
        <ele>40.030000000000001</ele>
        <time>2018-07-04T06:40:12Z</time>
      </trkpt>
      <trkpt lat="49.19198096729815" lon="-0.375140039250255">
        <ele>39.549999999999997</ele>
        <time>2018-07-04T06:40:15Z</time>
      </trkpt>
      <trkpt lat="49.192557977512479" lon="-0.374867040663958">
        <ele>38.590000000000003</ele>
        <time>2018-07-04T06:40:21Z</time>
      </trkpt>
      <trkpt lat="49.193737981840968" lon="-0.374705018475652">
        <ele>39.549999999999997</ele>
        <time>2018-07-04T06:40:30Z</time>
      </trkpt>
      <trkpt lat="49.195044972002506" lon="-0.374912973493338">
        <ele>40.990000000000002</ele>
        <time>2018-07-04T06:40:40Z</time>
      </trkpt>
      <trkpt lat="49.196106037124991" lon="-0.375127969309688">
        <ele>39.07</ele>
        <time>2018-07-04T06:40:48Z</time>
      </trkpt>
      <trkpt lat="49.19765199534595" lon="-0.375173985958099">
        <ele>34.259999999999998</ele>
        <time>2018-07-04T06:41:00Z</time>
      </trkpt>
      <trkpt lat="49.199008019641042" lon="-0.374525981023908">
        <ele>40.030000000000001</ele>
        <time>2018-07-04T06:41:11Z</time>
      </trkpt>
      <trkpt lat="49.200256001204252" lon="-0.373530965298414">
        <ele>45.32</ele>
        <time>2018-07-04T06:41:20Z</time>
      </trkpt>
      <trkpt lat="49.201971022412181" lon="-0.372119033709168">
        <ele>48.200000000000003</ele>
        <time>2018-07-04T06:41:30Z</time>
      </trkpt>
      <trkpt lat="49.20373197644949" lon="-0.37068597972393">
        <ele>52.049999999999997</ele>
        <time>2018-07-04T06:41:41Z</time>
      </trkpt>
      <trkpt lat="49.205094035714865" lon="-0.36980596370995">
        <ele>53.969999999999999</ele>
        <time>2018-07-04T06:41:49Z</time>
      </trkpt>
      <trkpt lat="49.205479016527534" lon="-0.369774028658867">
        <ele>55.409999999999997</ele>
        <time>2018-07-04T06:41:52Z</time>
      </trkpt>
      <trkpt lat="49.206001963466406" lon="-0.369831025600433">
        <ele>57.340000000000003</ele>
        <time>2018-07-04T06:41:59Z</time>
      </trkpt>
      <trkpt lat="49.206019984558225" lon="-0.369834965094924">
        <ele>57.340000000000003</ele>
        <time>2018-07-04T06:42:01Z</time>
      </trkpt>
      <trkpt lat="49.206082010641694" lon="-0.36984896287322">
        <ele>57.340000000000003</ele>
        <time>2018-07-04T06:42:10Z</time>
      </trkpt>
      <trkpt lat="49.206608980894089" lon="-0.369992963969707">
        <ele>57.340000000000003</ele>
        <time>2018-07-04T06:42:16Z</time>
      </trkpt>
      <trkpt lat="49.207716984674335" lon="-0.370278032496572">
        <ele>58.780000000000001</ele>
        <time>2018-07-04T06:42:25Z</time>
      </trkpt>
      <trkpt lat="49.209054987877607" lon="-0.370632000267506">
        <ele>60.219999999999999</ele>
        <time>2018-07-04T06:42:34Z</time>
      </trkpt>
      <trkpt lat="49.209564020857215" lon="-0.370797961950302">
        <ele>60.700000000000003</ele>
        <time>2018-07-04T06:42:41Z</time>
      </trkpt>
      <trkpt lat="49.209668040275574" lon="-0.370831992477179">
        <ele>61.18</ele>
        <time>2018-07-04T06:42:49Z</time>
      </trkpt>
      <trkpt lat="49.209668040275574" lon="-0.370831992477179">
        <ele>61.659999999999997</ele>
        <time>2018-07-04T06:43:32Z</time>
      </trkpt>
      <trkpt lat="49.209714978933334" lon="-0.370845990255475">
        <ele>61.18</ele>
        <time>2018-07-04T06:43:45Z</time>
      </trkpt>
      <trkpt lat="49.209762001410127" lon="-0.370861999690533">
        <ele>61.18</ele>
        <time>2018-07-04T06:43:46Z</time>
      </trkpt>
      <trkpt lat="49.209781028330326" lon="-0.370956966653466">
        <ele>60.219999999999999</ele>
        <time>2018-07-04T06:43:47Z</time>
      </trkpt>
      <trkpt lat="49.209766024723649" lon="-0.371054029092193">
        <ele>59.740000000000002</ele>
        <time>2018-07-04T06:43:48Z</time>
      </trkpt>
      <trkpt lat="49.209745991975069" lon="-0.371172968298197">
        <ele>59.259999999999998</ele>
        <time>2018-07-04T06:43:49Z</time>
      </trkpt>
      <trkpt lat="49.20972403138876" lon="-0.37130699492991">
        <ele>59.259999999999998</ele>
        <time>2018-07-04T06:43:50Z</time>
      </trkpt>
      <trkpt lat="49.209699975326657" lon="-0.371449990198016">
        <ele>59.259999999999998</ele>
        <time>2018-07-04T06:43:51Z</time>
      </trkpt>
      <trkpt lat="49.209390012547374" lon="-0.373298032209277">
        <ele>59.740000000000002</ele>
        <time>2018-07-04T06:44:02Z</time>
      </trkpt>
      <trkpt lat="49.209036966785789" lon="-0.375290997326374">
        <ele>60.219999999999999</ele>
        <time>2018-07-04T06:44:14Z</time>
      </trkpt>
      <trkpt lat="49.208955997601151" lon="-0.375635996460915">
        <ele>59.740000000000002</ele>
        <time>2018-07-04T06:44:17Z</time>
      </trkpt>
      <trkpt lat="49.208932025358081" lon="-0.375736998394132">
        <ele>59.740000000000002</ele>
        <time>2018-07-04T06:44:18Z</time>
      </trkpt>
      <trkpt lat="49.208860024809837" lon="-0.376042015850544">
        <ele>59.740000000000002</ele>
        <time>2018-07-04T06:44:23Z</time>
      </trkpt>
      <trkpt lat="49.208856001496315" lon="-0.376060958951712">
        <ele>59.740000000000002</ele>
        <time>2018-07-04T06:44:24Z</time>
      </trkpt>
      <trkpt lat="49.208850972354412" lon="-0.376084009185433">
        <ele>59.740000000000002</ele>
        <time>2018-07-04T06:44:25Z</time>
      </trkpt>
      <trkpt lat="49.208793975412846" lon="-0.376324988901615">
        <ele>59.259999999999998</ele>
        <time>2018-07-04T06:44:31Z</time>
      </trkpt>
      <trkpt lat="49.208838986232877" lon="-0.376481981948018">
        <ele>58.780000000000001</ele>
        <time>2018-07-04T06:44:32Z</time>
      </trkpt>
      <trkpt lat="49.208838986232877" lon="-0.376482987776399">
        <ele>58.780000000000001</ele>
        <time>2018-07-04T06:44:33Z</time>
      </trkpt>
      <trkpt lat="49.208865975961089" lon="-0.376576026901603">
        <ele>58.780000000000001</ele>
        <time>2018-07-04T06:44:34Z</time>
      </trkpt>
      <trkpt lat="49.208894977346063" lon="-0.3766780346632">
        <ele>58.299999999999997</ele>
        <time>2018-07-04T06:44:35Z</time>
      </trkpt>
      <trkpt lat="49.208968989551067" lon="-0.376874003559351">
        <ele>58.299999999999997</ele>
        <time>2018-07-04T06:44:36Z</time>
      </trkpt>
      <trkpt lat="49.209015006199479" lon="-0.376971988007426">
        <ele>57.82</ele>
        <time>2018-07-04T06:44:37Z</time>
      </trkpt>
      <trkpt lat="49.209073008969426" lon="-0.377096962183714">
        <ele>57.340000000000003</ele>
        <time>2018-07-04T06:44:38Z</time>
      </trkpt>
      <trkpt lat="49.209073008969426" lon="-0.377096962183714">
        <ele>57.340000000000003</ele>
        <time>2018-07-04T06:44:39Z</time>
      </trkpt>
      <trkpt lat="49.209151966497302" lon="-0.377152031287551">
        <ele>56.859999999999999</ele>
        <time>2018-07-04T06:44:40Z</time>
      </trkpt>
      <trkpt lat="49.210085961967707" lon="-0.377706997096539">
        <ele>56.859999999999999</ele>
        <time>2018-07-04T06:44:49Z</time>
      </trkpt>
      <trkpt lat="49.211634015664458" lon="-0.378709975630045">
        <ele>56.859999999999999</ele>
        <time>2018-07-04T06:45:02Z</time>
      </trkpt>
      <trkpt lat="49.212760040536523" lon="-0.379704991355538">
        <ele>57.82</ele>
        <time>2018-07-04T06:45:13Z</time>
      </trkpt>
      <trkpt lat="49.213855974376202" lon="-0.380774019286036">
        <ele>56.859999999999999</ele>
        <time>2018-07-04T06:45:24Z</time>
      </trkpt>
      <trkpt lat="49.214013973250985" lon="-0.381011981517076">
        <ele>55.890000000000001</ele>
        <time>2018-07-04T06:45:27Z</time>
      </trkpt>
      <trkpt lat="49.214091002941132" lon="-0.381131004542112">
        <ele>55.890000000000001</ele>
        <time>2018-07-04T06:45:28Z</time>
      </trkpt>
      <trkpt lat="49.214397026225924" lon="-0.381601983681321">
        <ele>56.369999999999997</ele>
        <time>2018-07-04T06:45:31Z</time>
      </trkpt>
      <trkpt lat="49.214476989582181" lon="-0.381724024191499">
        <ele>56.369999999999997</ele>
        <time>2018-07-04T06:45:32Z</time>
      </trkpt>
      <trkpt lat="49.215336972847581" lon="-0.383225977420807">
        <ele>56.369999999999997</ele>
        <time>2018-07-04T06:45:44Z</time>
      </trkpt>
      <trkpt lat="49.215422971174121" lon="-0.383334020152688">
        <ele>56.369999999999997</ele>
        <time>2018-07-04T06:45:45Z</time>
      </trkpt>
      <trkpt lat="49.215511986985803" lon="-0.383444996550679">
        <ele>55.890000000000001</ele>
        <time>2018-07-04T06:45:46Z</time>
      </trkpt>
      <trkpt lat="49.215615000575781" lon="-0.38353300653398">
        <ele>55.890000000000001</ele>
        <time>2018-07-04T06:45:47Z</time>
      </trkpt>
      <trkpt lat="49.215721031650901" lon="-0.383611964061856">
        <ele>55.890000000000001</ele>
        <time>2018-07-04T06:45:48Z</time>
      </trkpt>
      <trkpt lat="49.215836031362414" lon="-0.383674995973706">
        <ele>55.409999999999997</ele>
        <time>2018-07-04T06:45:49Z</time>
      </trkpt>
      <trkpt lat="49.215950025245547" lon="-0.38370500318706">
        <ele>55.409999999999997</ele>
        <time>2018-07-04T06:45:50Z</time>
      </trkpt>
      <trkpt lat="49.216969013214111" lon="-0.38396299816668">
        <ele>57.340000000000003</ele>
        <time>2018-07-04T06:45:59Z</time>
      </trkpt>
      <trkpt lat="49.218207020312548" lon="-0.384260974824429">
        <ele>60.700000000000003</ele>
        <time>2018-07-04T06:46:09Z</time>
      </trkpt>
      <trkpt lat="49.219661029055715" lon="-0.384884001687169">
        <ele>62.140000000000001</ele>
        <time>2018-07-04T06:46:20Z</time>
      </trkpt>
      <trkpt lat="49.22107296064496" lon="-0.385777009651065">
        <ele>62.140000000000001</ele>
        <time>2018-07-04T06:46:31Z</time>
      </trkpt>
      <trkpt lat="49.222410963848233" lon="-0.386578990146518">
        <ele>63.100000000000001</ele>
        <time>2018-07-04T06:46:42Z</time>
      </trkpt>
      <trkpt lat="49.22448699362576" lon="-0.387087017297745">
        <ele>64.549999999999997</ele>
        <time>2018-07-04T06:46:59Z</time>
      </trkpt>
      <trkpt lat="49.226116016507149" lon="-0.387565959244967">
        <ele>63.579999999999998</ele>
        <time>2018-07-04T06:47:12Z</time>
      </trkpt>
      <trkpt lat="49.227169035002589" lon="-0.388213964179158">
        <ele>63.100000000000001</ele>
        <time>2018-07-04T06:47:21Z</time>
      </trkpt>
      <trkpt lat="49.228137983009219" lon="-0.389109989628196">
        <ele>64.069999999999993</ele>
        <time>2018-07-04T06:47:30Z</time>
      </trkpt>
      <trkpt lat="49.229327961802483" lon="-0.390824005007744">
        <ele>62.619999999999997</ele>
        <time>2018-07-04T06:47:43Z</time>
      </trkpt>
      <trkpt lat="49.230554988607764" lon="-0.392450010403991">
        <ele>60.219999999999999</ele>
        <time>2018-07-04T06:47:55Z</time>
      </trkpt>
      <trkpt lat="49.231507005169988" lon="-0.392978992313147">
        <ele>60.219999999999999</ele>
        <time>2018-07-04T06:48:04Z</time>
      </trkpt>
      <trkpt lat="49.232828998938203" lon="-0.393507974222302">
        <ele>61.659999999999997</ele>
        <time>2018-07-04T06:48:12Z</time>
      </trkpt>
      <trkpt lat="49.234890025109053" lon="-0.394813036546111">
        <ele>61.18</ele>
        <time>2018-07-04T06:48:23Z</time>
      </trkpt>
      <trkpt lat="49.236427014693618" lon="-0.395932020619512">
        <ele>61.18</ele>
        <time>2018-07-04T06:48:32Z</time>
      </trkpt>
      <trkpt lat="49.238281007856131" lon="-0.397558026015759">
        <ele>60.700000000000003</ele>
        <time>2018-07-04T06:48:44Z</time>
      </trkpt>
      <trkpt lat="49.241286003962159" lon="-0.39885001257062">
        <ele>59.259999999999998</ele>
        <time>2018-07-04T06:49:00Z</time>
      </trkpt>
      <trkpt lat="49.244834985584021" lon="-0.400356994941831">
        <ele>59.259999999999998</ele>
        <time>2018-07-04T06:49:19Z</time>
      </trkpt>
      <trkpt lat="49.247726993635297" lon="-0.40157999843359">
        <ele>59.259999999999998</ele>
        <time>2018-07-04T06:49:34Z</time>
      </trkpt>
      <trkpt lat="49.249360961839557" lon="-0.402118032798171">
        <ele>57.82</ele>
        <time>2018-07-04T06:49:43Z</time>
      </trkpt>
      <trkpt lat="49.251377983018756" lon="-0.402881959453225">
        <ele>59.740000000000002</ele>
        <time>2018-07-04T06:49:53Z</time>
      </trkpt>
      <trkpt lat="49.253118988126516" lon="-0.404060035943985">
        <ele>62.619999999999997</ele>
        <time>2018-07-04T06:50:03Z</time>
      </trkpt>
      <trkpt lat="49.255452007055283" lon="-0.405331989750266">
        <ele>65.030000000000001</ele>
        <time>2018-07-04T06:50:15Z</time>
      </trkpt>
      <trkpt lat="49.257327960804105" lon="-0.406341003254056">
        <ele>69.829999999999998</ele>
        <time>2018-07-04T06:50:25Z</time>
      </trkpt>
      <trkpt lat="49.25924900919199" lon="-0.406750962138176">
        <ele>71.269999999999996</ele>
        <time>2018-07-04T06:50:35Z</time>
      </trkpt>
      <trkpt lat="49.261427968740463" lon="-0.407636007294059">
        <ele>67.909999999999997</ele>
        <time>2018-07-04T06:50:48Z</time>
      </trkpt>
      <trkpt lat="49.262620965018868" lon="-0.408186027780175">
        <ele>65.510000000000005</ele>
        <time>2018-07-04T06:50:58Z</time>
      </trkpt>
      <trkpt lat="49.264058964326978" lon="-0.408731019124389">
        <ele>63.100000000000001</ele>
        <time>2018-07-04T06:51:09Z</time>
      </trkpt>
      <trkpt lat="49.265159005299211" lon="-0.408917013555765">
        <ele>59.740000000000002</ele>
        <time>2018-07-04T06:51:19Z</time>
      </trkpt>
      <trkpt lat="49.265421023592353" lon="-0.408962024375796">
        <ele>58.299999999999997</ele>
        <time>2018-07-04T06:51:22Z</time>
      </trkpt>
      <trkpt lat="49.265581034123898" lon="-0.408959006890655">
        <ele>57.340000000000003</ele>
        <time>2018-07-04T06:51:25Z</time>
      </trkpt>
      <trkpt lat="49.265645993873477" lon="-0.408955989405513">
        <ele>57.340000000000003</ele>
        <time>2018-07-04T06:51:26Z</time>
      </trkpt>
      <trkpt lat="49.265804998576641" lon="-0.40894903242588">
        <ele>56.859999999999999</ele>
        <time>2018-07-04T06:51:28Z</time>
      </trkpt>
      <trkpt lat="49.265898959711194" lon="-0.408944003283978">
        <ele>56.859999999999999</ele>
        <time>2018-07-04T06:51:29Z</time>
      </trkpt>
      <trkpt lat="49.26694200374186" lon="-0.40888600051403">
        <ele>55.409999999999997</ele>
        <time>2018-07-04T06:51:38Z</time>
      </trkpt>
      <trkpt lat="49.268373968079686" lon="-0.408806959167123">
        <ele>51.57</ele>
        <time>2018-07-04T06:51:48Z</time>
      </trkpt>
      <trkpt lat="49.269393961876631" lon="-0.408830009400845">
        <ele>50.130000000000003</ele>
        <time>2018-07-04T06:51:57Z</time>
      </trkpt>
      <trkpt lat="49.269701996818185" lon="-0.409026984125376">
        <ele>50.130000000000003</ele>
        <time>2018-07-04T06:52:00Z</time>
      </trkpt>
      <trkpt lat="49.270195020362735" lon="-0.409553032368422">
        <ele>49.649999999999999</ele>
        <time>2018-07-04T06:52:04Z</time>
      </trkpt>
      <trkpt lat="49.270278001204133" lon="-0.409698039293289">
        <ele>49.649999999999999</ele>
        <time>2018-07-04T06:52:06Z</time>
      </trkpt>
      <trkpt lat="49.270361987873912" lon="-0.409845979884267">
        <ele>49.159999999999997</ele>
        <time>2018-07-04T06:52:07Z</time>
      </trkpt>
      <trkpt lat="49.271334037184715" lon="-0.412382008507848">
        <ele>49.649999999999999</ele>
        <time>2018-07-04T06:52:21Z</time>
      </trkpt>
      <trkpt lat="49.271411988884211" lon="-0.412577977403998">
        <ele>49.649999999999999</ele>
        <time>2018-07-04T06:52:22Z</time>
      </trkpt>
      <trkpt lat="49.271510979160666" lon="-0.412764977663755">
        <ele>50.130000000000003</ele>
        <time>2018-07-04T06:52:23Z</time>
      </trkpt>
      <trkpt lat="49.271741984412074" lon="-0.413110982626677">
        <ele>50.609999999999999</ele>
        <time>2018-07-04T06:52:25Z</time>
      </trkpt>
      <trkpt lat="49.273074036464095" lon="-0.414447980001569">
        <ele>53.490000000000002</ele>
        <time>2018-07-04T06:52:34Z</time>
      </trkpt>
      <trkpt lat="49.274669028818607" lon="-0.4164719581604">
        <ele>54.450000000000003</ele>
        <time>2018-07-04T06:52:45Z</time>
      </trkpt>
      <trkpt lat="49.275709977373481" lon="-0.417633019387722">
        <ele>55.890000000000001</ele>
        <time>2018-07-04T06:52:53Z</time>
      </trkpt>
      <trkpt lat="49.276681020855904" lon="-0.41857598349452">
        <ele>56.859999999999999</ele>
        <time>2018-07-04T06:53:04Z</time>
      </trkpt>
      <trkpt lat="49.276909008622169" lon="-0.418815035372972">
        <ele>57.340000000000003</ele>
        <time>2018-07-04T06:53:07Z</time>
      </trkpt>
      <trkpt lat="49.276970028877258" lon="-0.418887035921216">
        <ele>57.340000000000003</ele>
        <time>2018-07-04T06:53:08Z</time>
      </trkpt>
      <trkpt lat="49.277064995840192" lon="-0.418976973742247">
        <ele>57.82</ele>
        <time>2018-07-04T06:53:09Z</time>
      </trkpt>
      <trkpt lat="49.277465986087918" lon="-0.418827021494508">
        <ele>58.299999999999997</ele>
        <time>2018-07-04T06:53:15Z</time>
      </trkpt>
      <trkpt lat="49.277530023828149" lon="-0.418802965432405">
        <ele>58.780000000000001</ele>
        <time>2018-07-04T06:53:16Z</time>
      </trkpt>
      <trkpt lat="49.277662960812449" lon="-0.418721996247768">
        <ele>58.780000000000001</ele>
        <time>2018-07-04T06:53:17Z</time>
      </trkpt>
      <trkpt lat="49.277662960812449" lon="-0.418721996247768">
        <ele>59.259999999999998</ele>
        <time>2018-07-04T06:53:18Z</time>
      </trkpt>
      <trkpt lat="49.277736973017454" lon="-0.418670028448105">
        <ele>59.259999999999998</ele>
        <time>2018-07-04T06:53:19Z</time>
      </trkpt>
      <trkpt lat="49.27882301621139" lon="-0.418220004066825">
        <ele>59.259999999999998</ele>
        <time>2018-07-04T06:53:29Z</time>
      </trkpt>
      <trkpt lat="49.279515026137233" lon="-0.418160995468497">
        <ele>57.340000000000003</ele>
        <time>2018-07-04T06:53:35Z</time>
      </trkpt>
      <trkpt lat="49.279630025848746" lon="-0.418205000460148">
        <ele>57.340000000000003</ele>
        <time>2018-07-04T06:53:36Z</time>
      </trkpt>
      <trkpt lat="49.279630025848746" lon="-0.418205000460148">
        <ele>57.82</ele>
        <time>2018-07-04T06:53:37Z</time>
      </trkpt>
      <trkpt lat="49.279980976134539" lon="-0.418340032920241">
        <ele>57.82</ele>
        <time>2018-07-04T06:53:39Z</time>
      </trkpt>
      <trkpt lat="49.279980976134539" lon="-0.418340032920241">
        <ele>57.82</ele>
        <time>2018-07-04T06:53:40Z</time>
      </trkpt>
      <trkpt lat="49.280221033841372" lon="-0.418392000719905">
        <ele>57.82</ele>
        <time>2018-07-04T06:53:41Z</time>
      </trkpt>
      <trkpt lat="49.28034701384604" lon="-0.418390994891524">
        <ele>58.299999999999997</ele>
        <time>2018-07-04T06:53:42Z</time>
      </trkpt>
      <trkpt lat="49.280466958880424" lon="-0.418366016820073">
        <ele>58.299999999999997</ele>
        <time>2018-07-04T06:53:43Z</time>
      </trkpt>
      <trkpt lat="49.280577013269067" lon="-0.418341960757971">
        <ele>58.299999999999997</ele>
        <time>2018-07-04T06:53:44Z</time>
      </trkpt>
      <trkpt lat="49.280678015202284" lon="-0.418307008221745">
        <ele>58.299999999999997</ele>
        <time>2018-07-04T06:53:45Z</time>
      </trkpt>
      <trkpt lat="49.280769964680076" lon="-0.41827398352325">
        <ele>58.299999999999997</ele>
        <time>2018-07-04T06:53:46Z</time>
      </trkpt>
      <trkpt lat="49.281317973509431" lon="-0.418074997141957">
        <ele>58.780000000000001</ele>
        <time>2018-07-04T06:53:55Z</time>
      </trkpt>
      <trkpt lat="49.281504973769188" lon="-0.418007019907236">
        <ele>59.259999999999998</ele>
        <time>2018-07-04T06:54:04Z</time>
      </trkpt>
      <trkpt lat="49.281608993187547" lon="-0.417970977723598">
        <ele>58.780000000000001</ele>
        <time>2018-07-04T06:54:08Z</time>
      </trkpt>
      <trkpt lat="49.281672025099397" lon="-0.41795002296567">
        <ele>58.780000000000001</ele>
        <time>2018-07-04T06:54:09Z</time>
      </trkpt>
      <trkpt lat="49.282350959256291" lon="-0.417605023831129">
        <ele>56.859999999999999</ele>
        <time>2018-07-04T06:54:16Z</time>
      </trkpt>
      <trkpt lat="49.28361302241683" lon="-0.416538007557392">
        <ele>54.93</ele>
        <time>2018-07-04T06:54:24Z</time>
      </trkpt>
      <trkpt lat="49.284408967941999" lon="-0.416006008163095">
        <ele>54.450000000000003</ele>
        <time>2018-07-04T06:54:29Z</time>
      </trkpt>
      <trkpt lat="49.284550035372376" lon="-0.415936019271612">
        <ele>53.969999999999999</ele>
        <time>2018-07-04T06:54:30Z</time>
      </trkpt>
      <trkpt lat="49.284694958478212" lon="-0.415943982079625">
        <ele>53.969999999999999</ele>
        <time>2018-07-04T06:54:31Z</time>
      </trkpt>
      <trkpt lat="49.284835020080209" lon="-0.41595303453505">
        <ele>53.490000000000002</ele>
        <time>2018-07-04T06:54:32Z</time>
      </trkpt>
      <trkpt lat="49.284967035055161" lon="-0.415994022041559">
        <ele>53.009999999999998</ele>
        <time>2018-07-04T06:54:33Z</time>
      </trkpt>
      <trkpt lat="49.285096032544971" lon="-0.416071973741055">
        <ele>53.009999999999998</ele>
        <time>2018-07-04T06:54:34Z</time>
      </trkpt>
      <trkpt lat="49.285225030034781" lon="-0.416149003431201">
        <ele>53.009999999999998</ele>
        <time>2018-07-04T06:54:35Z</time>
      </trkpt>
      <trkpt lat="49.285356039181352" lon="-0.416227960959077">
        <ele>52.530000000000001</ele>
        <time>2018-07-04T06:54:36Z</time>
      </trkpt>
      <trkpt lat="49.285486964508891" lon="-0.416282024234533">
        <ele>52.530000000000001</ele>
        <time>2018-07-04T06:54:37Z</time>
      </trkpt>
      <trkpt lat="49.285627026110888" lon="-0.416293004527688">
        <ele>52.530000000000001</ele>
        <time>2018-07-04T06:54:38Z</time>
      </trkpt>
      <trkpt lat="49.28576298058033" lon="-0.416283030062914">
        <ele>52.530000000000001</ele>
        <time>2018-07-04T06:54:39Z</time>
      </trkpt>
      <trkpt lat="49.285900024697185" lon="-0.416227960959077">
        <ele>52.530000000000001</ele>
        <time>2018-07-04T06:54:40Z</time>
      </trkpt>
      <trkpt lat="49.286032039672136" lon="-0.416143974289298">
        <ele>52.530000000000001</ele>
        <time>2018-07-04T06:54:41Z</time>
      </trkpt>
      <trkpt lat="49.286164976656437" lon="-0.416049007326365">
        <ele>53.009999999999998</ele>
        <time>2018-07-04T06:54:42Z</time>
      </trkpt>
      <trkpt lat="49.28743701428175" lon="-0.415005963295698">
        <ele>55.890000000000001</ele>
        <time>2018-07-04T06:54:52Z</time>
      </trkpt>
      <trkpt lat="49.287873040884733" lon="-0.414704969152808">
        <ele>56.369999999999997</ele>
        <time>2018-07-04T06:54:58Z</time>
      </trkpt>
      <trkpt lat="49.287918973714113" lon="-0.414673034101725">
        <ele>56.369999999999997</ele>
        <time>2018-07-04T06:55:06Z</time>
      </trkpt>
      <trkpt lat="49.288002960383892" lon="-0.414616037160158">
        <ele>56.859999999999999</ele>
        <time>2018-07-04T06:55:36Z</time>
      </trkpt>
      <trkpt lat="49.288027016445994" lon="-0.41459902189672">
        <ele>56.859999999999999</ele>
        <time>2018-07-04T06:55:41Z</time>
      </trkpt>
      <trkpt lat="49.288028022274375" lon="-0.41459902189672">
        <ele>56.859999999999999</ele>
        <time>2018-07-04T06:55:42Z</time>
      </trkpt>
      <trkpt lat="49.288079990074039" lon="-0.414561973884702">
        <ele>56.369999999999997</ele>
        <time>2018-07-04T06:55:43Z</time>
      </trkpt>
      <trkpt lat="49.288103962317109" lon="-0.414598016068339">
        <ele>56.369999999999997</ele>
        <time>2018-07-04T06:55:44Z</time>
      </trkpt>
      <trkpt lat="49.288159031420946" lon="-0.414684014394879">
        <ele>56.369999999999997</ele>
        <time>2018-07-04T06:55:45Z</time>
      </trkpt>
      <trkpt lat="49.288218962028623" lon="-0.414776969701052">
        <ele>56.369999999999997</ele>
        <time>2018-07-04T06:55:46Z</time>
      </trkpt>
      <trkpt lat="49.288288028910756" lon="-0.414884006604552">
        <ele>56.369999999999997</ele>
        <time>2018-07-04T06:55:47Z</time>
      </trkpt>
      <trkpt lat="49.289058996364474" lon="-0.41608395986259">
        <ele>56.859999999999999</ele>
        <time>2018-07-04T06:55:55Z</time>
      </trkpt>
      <trkpt lat="49.29074602201581" lon="-0.418731970712543">
        <ele>60.700000000000003</ele>
        <time>2018-07-04T06:56:07Z</time>
      </trkpt>
      <trkpt lat="49.292546035721898" lon="-0.421519037336111">
        <ele>61.659999999999997</ele>
        <time>2018-07-04T06:56:21Z</time>
      </trkpt>
      <trkpt lat="49.294456019997597" lon="-0.424470975995064">
        <ele>57.82</ele>
        <time>2018-07-04T06:56:34Z</time>
      </trkpt>
      <trkpt lat="49.296500030905008" lon="-0.427630031481385">
        <ele>53.969999999999999</ele>
        <time>2018-07-04T06:56:50Z</time>
      </trkpt>
      <trkpt lat="49.298691982403398" lon="-0.431001987308264">
        <ele>51.57</ele>
        <time>2018-07-04T06:57:06Z</time>
      </trkpt>
      <trkpt lat="49.300980996340513" lon="-0.434208987280726">
        <ele>47.240000000000002</ele>
        <time>2018-07-04T06:57:22Z</time>
      </trkpt>
      <trkpt lat="49.303031964227557" lon="-0.436608977615833">
        <ele>43.880000000000003</ele>
        <time>2018-07-04T06:57:35Z</time>
      </trkpt>
      <trkpt lat="49.303147969767451" lon="-0.436691036447883">
        <ele>43.880000000000003</ele>
        <time>2018-07-04T06:57:36Z</time>
      </trkpt>
      <trkpt lat="49.303258024156094" lon="-0.436735041439533">
        <ele>43.880000000000003</ele>
        <time>2018-07-04T06:57:37Z</time>
      </trkpt>
      <trkpt lat="49.303356008604169" lon="-0.436774017289281">
        <ele>43.880000000000003</ele>
        <time>2018-07-04T06:57:38Z</time>
      </trkpt>
      <trkpt lat="49.303464973345399" lon="-0.436770999804139">
        <ele>44.359999999999999</ele>
        <time>2018-07-04T06:57:39Z</time>
      </trkpt>
      <trkpt lat="49.303576033562422" lon="-0.4367920383811">
        <ele>44.359999999999999</ele>
        <time>2018-07-04T06:57:40Z</time>
      </trkpt>
      <trkpt lat="49.303668988868594" lon="-0.436872001737356">
        <ele>44.359999999999999</ele>
        <time>2018-07-04T06:57:41Z</time>
      </trkpt>
      <trkpt lat="49.303744006901979" lon="-0.437113987281919">
        <ele>44.359999999999999</ele>
        <time>2018-07-04T06:57:42Z</time>
      </trkpt>
      <trkpt lat="49.303798992186785" lon="-0.437199985608459">
        <ele>44.359999999999999</ele>
        <time>2018-07-04T06:57:43Z</time>
      </trkpt>
      <trkpt lat="49.303887002170086" lon="-0.437339041382074">
        <ele>44.359999999999999</ele>
        <time>2018-07-04T06:57:44Z</time>
      </trkpt>
      <trkpt lat="49.304002001881599" lon="-0.437522018328309">
        <ele>43.880000000000003</ele>
        <time>2018-07-04T06:57:45Z</time>
      </trkpt>
      <trkpt lat="49.30411197245121" lon="-0.437613967806101">
        <ele>43.880000000000003</ele>
        <time>2018-07-04T06:57:46Z</time>
      </trkpt>
      <trkpt lat="49.305542008951306" lon="-0.438504964113235">
        <ele>40.509999999999998</ele>
        <time>2018-07-04T06:57:54Z</time>
      </trkpt>
      <trkpt lat="49.306799964979291" lon="-0.439332006499171">
        <ele>37.630000000000003</ele>
        <time>2018-07-04T06:58:01Z</time>
      </trkpt>
      <trkpt lat="49.308264032006264" lon="-0.440766988322139">
        <ele>37.149999999999999</ele>
        <time>2018-07-04T06:58:10Z</time>
      </trkpt>
      <trkpt lat="49.309992967173457" lon="-0.44261896982789">
        <ele>40.030000000000001</ele>
        <time>2018-07-04T06:58:22Z</time>
      </trkpt>
      <trkpt lat="49.312854968011379" lon="-0.445736031979322">
        <ele>37.630000000000003</ele>
        <time>2018-07-04T06:58:39Z</time>
      </trkpt>
      <trkpt lat="49.314914988353848" lon="-0.447963019832969">
        <ele>34.259999999999998</ele>
        <time>2018-07-04T06:58:52Z</time>
      </trkpt>
      <trkpt lat="49.316170010715723" lon="-0.449376041069627">
        <ele>32.82</ele>
        <time>2018-07-04T06:59:00Z</time>
      </trkpt>
      <trkpt lat="49.317870028316975" lon="-0.451311003416777">
        <ele>30.899999999999999</ele>
        <time>2018-07-04T06:59:11Z</time>
      </trkpt>
      <trkpt lat="49.318642001599073" lon="-0.452186996117234">
        <ele>29.940000000000001</ele>
        <time>2018-07-04T06:59:17Z</time>
      </trkpt>
      <trkpt lat="49.319675993174314" lon="-0.453174971044064">
        <ele>28.02</ele>
        <time>2018-07-04T06:59:27Z</time>
      </trkpt>
      <trkpt lat="49.320609988644719" lon="-0.454038977622986">
        <ele>28.5</ele>
        <time>2018-07-04T06:59:36Z</time>
      </trkpt>
      <trkpt lat="49.321553958579898" lon="-0.454855961725116">
        <ele>28.02</ele>
        <time>2018-07-04T06:59:45Z</time>
      </trkpt>
      <trkpt lat="49.321957966312766" lon="-0.455200038850307">
        <ele>27.530000000000001</ele>
        <time>2018-07-04T06:59:50Z</time>
      </trkpt>
      <trkpt lat="49.322025021538138" lon="-0.455257035791874">
        <ele>28.02</ele>
        <time>2018-07-04T06:59:51Z</time>
      </trkpt>
      <trkpt lat="49.322087969630957" lon="-0.455311015248299">
        <ele>28.02</ele>
        <time>2018-07-04T06:59:52Z</time>
      </trkpt>
      <trkpt lat="49.32226499542594" lon="-0.455202972516418">
        <ele>28.02</ele>
        <time>2018-07-04T06:59:54Z</time>
      </trkpt>
      <trkpt lat="49.322334984317422" lon="-0.455202972516418">
        <ele>27.530000000000001</ele>
        <time>2018-07-04T06:59:55Z</time>
      </trkpt>
      <trkpt lat="49.322335990145802" lon="-0.455202972516418">
        <ele>27.530000000000001</ele>
        <time>2018-07-04T06:59:56Z</time>
      </trkpt>
      <trkpt lat="49.322421988472342" lon="-0.455297017470002">
        <ele>28.02</ele>
        <time>2018-07-04T06:59:57Z</time>
      </trkpt>
      <trkpt lat="49.322454007342458" lon="-0.455548977479339">
        <ele>27.530000000000001</ele>
        <time>2018-07-04T06:59:58Z</time>
      </trkpt>
      <trkpt lat="49.322482002899051" lon="-0.45572298578918">
        <ele>27.530000000000001</ele>
        <time>2018-07-04T06:59:59Z</time>
      </trkpt>
      <trkpt lat="49.322552997618914" lon="-0.455793980509043">
        <ele>27.530000000000001</ele>
        <time>2018-07-04T07:00:00Z</time>
      </trkpt>
      <trkpt lat="49.322552997618914" lon="-0.455793980509043">
        <ele>27.050000000000001</ele>
        <time>2018-07-04T07:00:01Z</time>
      </trkpt>
      <trkpt lat="49.322632038965821" lon="-0.45587302185595">
        <ele>27.050000000000001</ele>
        <time>2018-07-04T07:00:02Z</time>
      </trkpt>
      <trkpt lat="49.322805041447282" lon="-0.456046024337411">
        <ele>26.57</ele>
        <time>2018-07-04T07:00:03Z</time>
      </trkpt>
      <trkpt lat="49.322896990925074" lon="-0.456140991300344">
        <ele>26.09</ele>
        <time>2018-07-04T07:00:04Z</time>
      </trkpt>
      <trkpt lat="49.324204986914992" lon="-0.457498021423817">
        <ele>25.609999999999999</ele>
        <time>2018-07-04T07:00:16Z</time>
      </trkpt>
      <trkpt lat="49.325751028954983" lon="-0.459184041246772">
        <ele>22.25</ele>
        <time>2018-07-04T07:00:29Z</time>
      </trkpt>
      <trkpt lat="49.326761970296502" lon="-0.460300007835031">
        <ele>18.879999999999999</ele>
        <time>2018-07-04T07:00:39Z</time>
      </trkpt>
      <trkpt lat="49.327502008527517" lon="-0.46111598610878">
        <ele>17.440000000000001</ele>
        <time>2018-07-04T07:00:49Z</time>
      </trkpt>
      <trkpt lat="49.327590018510818" lon="-0.461212964728475">
        <ele>16.960000000000001</ele>
        <time>2018-07-04T07:00:51Z</time>
      </trkpt>
      <trkpt lat="49.327712981030345" lon="-0.461146999150515">
        <ele>16.48</ele>
        <time>2018-07-04T07:00:52Z</time>
      </trkpt>
      <trkpt lat="49.327719016000628" lon="-0.461145993322134">
        <ele>16.48</ele>
        <time>2018-07-04T07:00:53Z</time>
      </trkpt>
      <trkpt lat="49.327776012942195" lon="-0.46113601885736">
        <ele>16</ele>
        <time>2018-07-04T07:00:54Z</time>
      </trkpt>
      <trkpt lat="49.327876009047031" lon="-0.461194021627307">
        <ele>16</ele>
        <time>2018-07-04T07:00:55Z</time>
      </trkpt>
      <trkpt lat="49.327913979068398" lon="-0.461271973326802">
        <ele>15.52</ele>
        <time>2018-07-04T07:00:56Z</time>
      </trkpt>
      <trkpt lat="49.327926971018314" lon="-0.461426032707095">
        <ele>15.52</ele>
        <time>2018-07-04T07:00:57Z</time>
      </trkpt>
      <trkpt lat="49.327904004603624" lon="-0.461516976356506">
        <ele>15.52</ele>
        <time>2018-07-04T07:00:58Z</time>
      </trkpt>
      <trkpt lat="49.327856982126832" lon="-0.461611021310091">
        <ele>15.52</ele>
        <time>2018-07-04T07:00:59Z</time>
      </trkpt>
      <trkpt lat="49.327795961871743" lon="-0.461642034351826">
        <ele>16</ele>
        <time>2018-07-04T07:01:00Z</time>
      </trkpt>
      <trkpt lat="49.327796967700124" lon="-0.461641028523445">
        <ele>16</ele>
        <time>2018-07-04T07:01:01Z</time>
      </trkpt>
      <trkpt lat="49.327734019607306" lon="-0.461688973009586">
        <ele>16.48</ele>
        <time>2018-07-04T07:01:02Z</time>
      </trkpt>
      <trkpt lat="49.327589012682438" lon="-0.461798021569848">
        <ele>16.48</ele>
        <time>2018-07-04T07:01:03Z</time>
      </trkpt>
      <trkpt lat="49.327419027686119" lon="-0.461965994909406">
        <ele>17.440000000000001</ele>
        <time>2018-07-04T07:01:05Z</time>
      </trkpt>
      <trkpt lat="49.326636996120214" lon="-0.46289898455143">
        <ele>15.039999999999999</ele>
        <time>2018-07-04T07:01:14Z</time>
      </trkpt>
      <trkpt lat="49.326013969257474" lon="-0.463770031929016">
        <ele>12.630000000000001</ele>
        <time>2018-07-04T07:01:19Z</time>
      </trkpt>
      <trkpt lat="49.325942974537611" lon="-0.46393197029829">
        <ele>12.630000000000001</ele>
        <time>2018-07-04T07:01:20Z</time>
      </trkpt>
      <trkpt lat="49.325942974537611" lon="-0.46393197029829">
        <ele>12.15</ele>
        <time>2018-07-04T07:01:21Z</time>
      </trkpt>
      <trkpt lat="49.325924031436443" lon="-0.464113019406796">
        <ele>11.67</ele>
        <time>2018-07-04T07:01:22Z</time>
      </trkpt>
      <trkpt lat="49.32600500062108" lon="-0.466806041076779">
        <ele>5.42</ele>
        <time>2018-07-04T07:01:33Z</time>
      </trkpt>
      <trkpt lat="49.326053028926253" lon="-0.46786299906671">
        <ele>5.91</ele>
        <time>2018-07-04T07:01:39Z</time>
      </trkpt>
      <trkpt lat="49.326088987290859" lon="-0.468005994334817">
        <ele>5.91</ele>
        <time>2018-07-04T07:01:40Z</time>
      </trkpt>
      <trkpt lat="49.326137015596032" lon="-0.46814002096653">
        <ele>5.42</ele>
        <time>2018-07-04T07:01:41Z</time>
      </trkpt>
      <trkpt lat="49.326187977567315" lon="-0.468281004577875">
        <ele>5.42</ele>
        <time>2018-07-04T07:01:42Z</time>
      </trkpt>
      <trkpt lat="49.32624002918601" lon="-0.468422994017601">
        <ele>5.42</ele>
        <time>2018-07-04T07:01:43Z</time>
      </trkpt>
      <trkpt lat="49.326405990868807" lon="-0.468883998692036">
        <ele>5.42</ele>
        <time>2018-07-04T07:01:47Z</time>
      </trkpt>
      <trkpt lat="49.326425017789006" lon="-0.468935966491699">
        <ele>5.42</ele>
        <time>2018-07-04T07:01:48Z</time>
      </trkpt>
      <trkpt lat="49.326492995023727" lon="-0.468950970098376">
        <ele>4.94</ele>
        <time>2018-07-04T07:01:49Z</time>
      </trkpt>
      <trkpt lat="49.326548986136913" lon="-0.468963040038943">
        <ele>4.94</ele>
        <time>2018-07-04T07:01:50Z</time>
      </trkpt>
      <trkpt lat="49.326607994735241" lon="-0.468976031988859">
        <ele>4.46</ele>
        <time>2018-07-04T07:01:51Z</time>
      </trkpt>
      <trkpt lat="49.32667002081871" lon="-0.468990029767156">
        <ele>3.98</ele>
        <time>2018-07-04T07:01:52Z</time>
      </trkpt>
      <trkpt lat="49.327041003853083" lon="-0.469073010608554">
        <ele>2.06</ele>
        <time>2018-07-04T07:01:58Z</time>
      </trkpt>
      <trkpt lat="49.327075034379959" lon="-0.469079967588186">
        <ele>1.58</ele>
        <time>2018-07-04T07:01:59Z</time>
      </trkpt>
      <trkpt lat="49.327102024108171" lon="-0.46908600255847">
        <ele>1.58</ele>
        <time>2018-07-04T07:02:00Z</time>
      </trkpt>
      <trkpt lat="49.327103029936552" lon="-0.46908600255847">
        <ele>1.1</ele>
        <time>2018-07-04T07:02:01Z</time>
      </trkpt>
      <trkpt lat="49.327139994129539" lon="-0.469094971194863">
        <ele>0.62</ele>
        <time>2018-07-04T07:02:02Z</time>
      </trkpt>
      <trkpt lat="49.327220963314176" lon="-0.469164038076997">
        <ele>0.62</ele>
        <time>2018-07-04T07:02:03Z</time>
      </trkpt>
      <trkpt lat="49.327246025204659" lon="-0.469226986169815">
        <ele>0.62</ele>
        <time>2018-07-04T07:02:04Z</time>
      </trkpt>
      <trkpt lat="49.327275026589632" lon="-0.469294963404536">
        <ele>0.62</ele>
        <time>2018-07-04T07:02:05Z</time>
      </trkpt>
      <trkpt lat="49.327361024916172" lon="-0.469506019726396">
        <ele>0.62</ele>
        <time>2018-07-04T07:02:08Z</time>
      </trkpt>
      <trkpt lat="49.327390026301146" lon="-0.469577014446259">
        <ele>0.14</ele>
        <time>2018-07-04T07:02:09Z</time>
      </trkpt>
      <trkpt lat="49.327417016029358" lon="-0.469653038308024">
        <ele>0.14</ele>
        <time>2018-07-04T07:02:10Z</time>
      </trkpt>
      <trkpt lat="49.32744299992919" lon="-0.469727972522378">
        <ele>0.14</ele>
        <time>2018-07-04T07:02:11Z</time>
      </trkpt>
      <trkpt lat="49.327467978000641" lon="-0.469799973070621">
        <ele>0.14</ele>
        <time>2018-07-04T07:02:12Z</time>
      </trkpt>
      <trkpt lat="49.327492034062743" lon="-0.469869961962104">
        <ele>0.14</ele>
        <time>2018-07-04T07:02:13Z</time>
      </trkpt>
      <trkpt lat="49.327518017962575" lon="-0.469942968338728">
        <ele>-0.34</ele>
        <time>2018-07-04T07:02:14Z</time>
      </trkpt>
      <trkpt lat="49.327545007690787" lon="-0.470019998028874">
        <ele>0.14</ele>
        <time>2018-07-04T07:02:15Z</time>
      </trkpt>
      <trkpt lat="49.32780995965004" lon="-0.470707984641194">
        <ele>2.06</ele>
        <time>2018-07-04T07:02:24Z</time>
      </trkpt>
      <trkpt lat="49.327879026532173" lon="-0.470857014879584">
        <ele>3.02</ele>
        <time>2018-07-04T07:02:27Z</time>
      </trkpt>
      <trkpt lat="49.327924037352204" lon="-0.470904037356377">
        <ele>3.5</ele>
        <time>2018-07-04T07:02:28Z</time>
      </trkpt>
      <trkpt lat="49.328026967123151" lon="-0.471001015976071">
        <ele>3.5</ele>
        <time>2018-07-04T07:02:29Z</time>
      </trkpt>
      <trkpt lat="49.328170968219638" lon="-0.471134036779404">
        <ele>3.98</ele>
        <time>2018-07-04T07:02:32Z</time>
      </trkpt>
      <trkpt lat="49.328252021223307" lon="-0.471198996528983">
        <ele>3.5</ele>
        <time>2018-07-04T07:02:34Z</time>
      </trkpt>
      <trkpt lat="49.328294014558196" lon="-0.471227997913957">
        <ele>3.5</ele>
        <time>2018-07-04T07:02:35Z</time>
      </trkpt>
      <trkpt lat="49.328341959044337" lon="-0.471261022612453">
        <ele>3.98</ele>
        <time>2018-07-04T07:02:36Z</time>
      </trkpt>
      <trkpt lat="49.328391999006271" lon="-0.471295975148678">
        <ele>3.98</ele>
        <time>2018-07-04T07:02:37Z</time>
      </trkpt>
      <trkpt lat="49.328445978462696" lon="-0.471333023160696">
        <ele>3.98</ele>
        <time>2018-07-04T07:02:38Z</time>
      </trkpt>
      <trkpt lat="49.328503981232643" lon="-0.471375016495585">
        <ele>3.98</ele>
        <time>2018-07-04T07:02:39Z</time>
      </trkpt>
      <trkpt lat="49.328562989830971" lon="-0.471419021487236">
        <ele>3.5</ele>
        <time>2018-07-04T07:02:40Z</time>
      </trkpt>
      <trkpt lat="49.328620992600918" lon="-0.471463026478887">
        <ele>3.02</ele>
        <time>2018-07-04T07:02:41Z</time>
      </trkpt>
      <trkpt lat="49.328675977885723" lon="-0.471505019813776">
        <ele>2.54</ele>
        <time>2018-07-04T07:02:42Z</time>
      </trkpt>
      <trkpt lat="49.328884016722441" lon="-0.471681961789727">
        <ele>1.1</ele>
        <time>2018-07-04T07:02:46Z</time>
      </trkpt>
      <trkpt lat="49.328937996178865" lon="-0.4717299900949">
        <ele>0.62</ele>
        <time>2018-07-04T07:02:47Z</time>
      </trkpt>
      <trkpt lat="49.329046960920095" lon="-0.471925958991051">
        <ele>0.14</ele>
        <time>2018-07-04T07:02:50Z</time>
      </trkpt>
      <trkpt lat="49.329233039170504" lon="-0.472341030836105">
        <ele>-0.34</ele>
        <time>2018-07-04T07:02:56Z</time>
      </trkpt>
      <trkpt lat="49.32926899753511" lon="-0.472413031384349">
        <ele>-0.34</ele>
        <time>2018-07-04T07:02:57Z</time>
      </trkpt>
      <trkpt lat="49.329340998083353" lon="-0.472557032480836">
        <ele>-0.34</ele>
        <time>2018-07-04T07:02:59Z</time>
      </trkpt>
      <trkpt lat="49.32937896810472" lon="-0.472628027200699">
        <ele>-0.82</ele>
        <time>2018-07-04T07:03:00Z</time>
      </trkpt>
      <trkpt lat="49.32937896810472" lon="-0.472628027200699">
        <ele>-0.82</ele>
        <time>2018-07-04T07:03:01Z</time>
      </trkpt>
      <trkpt lat="49.329500002786517" lon="-0.472831958904862">
        <ele>-0.82</ele>
        <time>2018-07-04T07:03:03Z</time>
      </trkpt>
      <trkpt lat="49.329848019406199" lon="-0.473431013524532">
        <ele>-0.34</ele>
        <time>2018-07-04T07:03:12Z</time>
      </trkpt>
      <trkpt lat="49.329874003306031" lon="-0.473475018516183">
        <ele>-0.34</ele>
        <time>2018-07-04T07:03:13Z</time>
      </trkpt>
      <trkpt lat="49.329899987205863" lon="-0.473519023507833">
        <ele>0.14</ele>
        <time>2018-07-04T07:03:14Z</time>
      </trkpt>
      <trkpt lat="49.329927982762456" lon="-0.473565040156245">
        <ele>0.14</ele>
        <time>2018-07-04T07:03:15Z</time>
      </trkpt>
      <trkpt lat="49.329951032996178" lon="-0.473606027662754">
        <ele>0.62</ele>
        <time>2018-07-04T07:03:16Z</time>
      </trkpt>
      <trkpt lat="49.329975005239248" lon="-0.473656989634037">
        <ele>1.1</ele>
        <time>2018-07-04T07:03:17Z</time>
      </trkpt>
      <trkpt lat="49.330004006624222" lon="-0.473717004060745">
        <ele>1.58</ele>
        <time>2018-07-04T07:03:18Z</time>
      </trkpt>
      <trkpt lat="49.330004006624222" lon="-0.473717004060745">
        <ele>2.06</ele>
        <time>2018-07-04T07:03:19Z</time>
      </trkpt>
      <trkpt lat="49.330145996063948" lon="-0.474014980718493">
        <ele>3.5</ele>
        <time>2018-07-04T07:03:22Z</time>
      </trkpt>
      <trkpt lat="49.330166028812528" lon="-0.474123023450375">
        <ele>3.5</ele>
        <time>2018-07-04T07:03:23Z</time>
      </trkpt>
      <trkpt lat="49.330166028812528" lon="-0.474124029278755">
        <ele>3.98</ele>
        <time>2018-07-04T07:03:24Z</time>
      </trkpt>
      <trkpt lat="49.330176003277302" lon="-0.474227964878082">
        <ele>4.46</ele>
        <time>2018-07-04T07:03:25Z</time>
      </trkpt>
      <trkpt lat="49.330163011327386" lon="-0.474430974572897">
        <ele>4.46</ele>
        <time>2018-07-04T07:03:26Z</time>
      </trkpt>
      <trkpt lat="49.330135015770793" lon="-0.47452300786972">
        <ele>4.94</ele>
        <time>2018-07-04T07:03:27Z</time>
      </trkpt>
      <trkpt lat="49.330096961930394" lon="-0.474606994539499">
        <ele>4.94</ele>
        <time>2018-07-04T07:03:28Z</time>
      </trkpt>
      <trkpt lat="49.330055974423885" lon="-0.47469399869442">
        <ele>4.94</ele>
        <time>2018-07-04T07:03:29Z</time>
      </trkpt>
      <trkpt lat="49.330036025494337" lon="-0.474814027547836">
        <ele>4.94</ele>
        <time>2018-07-04T07:03:30Z</time>
      </trkpt>
      <trkpt lat="49.330048011615872" lon="-0.474927015602589">
        <ele>5.42</ele>
        <time>2018-07-04T07:03:31Z</time>
      </trkpt>
      <trkpt lat="49.330082964152098" lon="-0.47503799200058">
        <ele>5.91</ele>
        <time>2018-07-04T07:03:32Z</time>
      </trkpt>
      <trkpt lat="49.330131998285651" lon="-0.475150980055332">
        <ele>5.91</ele>
        <time>2018-07-04T07:03:33Z</time>
      </trkpt>
      <trkpt lat="49.330131998285651" lon="-0.475150980055332">
        <ele>6.39</ele>
        <time>2018-07-04T07:03:34Z</time>
      </trkpt>
      <trkpt lat="49.330185977742076" lon="-0.47527696006">
        <ele>6.87</ele>
        <time>2018-07-04T07:03:35Z</time>
      </trkpt>
      <trkpt lat="49.331055013462901" lon="-0.477313008159399">
        <ele>10.23</ele>
        <time>2018-07-04T07:03:47Z</time>
      </trkpt>
      <trkpt lat="49.331851964816451" lon="-0.479255011305213">
        <ele>13.6</ele>
        <time>2018-07-04T07:04:00Z</time>
      </trkpt>
      <trkpt lat="49.331969982013106" lon="-0.479556005448103">
        <ele>14.08</ele>
        <time>2018-07-04T07:04:01Z</time>
      </trkpt>
      <trkpt lat="49.332187995314598" lon="-0.480183977633715">
        <ele>14.08</ele>
        <time>2018-07-04T07:04:05Z</time>
      </trkpt>
      <trkpt lat="49.332225965335965" lon="-0.480359997600317">
        <ele>14.08</ele>
        <time>2018-07-04T07:04:06Z</time>
      </trkpt>
      <trkpt lat="49.332263013347983" lon="-0.480534005910158">
        <ele>14.08</ele>
        <time>2018-07-04T07:04:07Z</time>
      </trkpt>
      <trkpt lat="49.332281034439802" lon="-0.480721006169915">
        <ele>14.56</ele>
        <time>2018-07-04T07:04:08Z</time>
      </trkpt>
      <trkpt lat="49.33230098336935" lon="-0.480918986722827">
        <ele>14.56</ele>
        <time>2018-07-04T07:04:09Z</time>
      </trkpt>
      <trkpt lat="49.332308024168015" lon="-0.481351995840669">
        <ele>15.039999999999999</ele>
        <time>2018-07-04T07:04:11Z</time>
      </trkpt>
      <trkpt lat="49.332283968105912" lon="-0.481586018577218">
        <ele>15.52</ele>
        <time>2018-07-04T07:04:12Z</time>
      </trkpt>
      <trkpt lat="49.3322569783777" lon="-0.481831021606922">
        <ele>16</ele>
        <time>2018-07-04T07:04:13Z</time>
      </trkpt>
      <trkpt lat="49.332198975607753" lon="-0.482074012979865">
        <ele>16.48</ele>
        <time>2018-07-04T07:04:14Z</time>
      </trkpt>
      <trkpt lat="49.332136027514935" lon="-0.48232102766633">
        <ele>17.440000000000001</ele>
        <time>2018-07-04T07:04:15Z</time>
      </trkpt>
      <trkpt lat="49.332136027514935" lon="-0.48232102766633">
        <ele>18.399999999999999</ele>
        <time>2018-07-04T07:04:16Z</time>
      </trkpt>
      <trkpt lat="49.332058997824788" lon="-0.482566030696034">
        <ele>19.359999999999999</ele>
        <time>2018-07-04T07:04:17Z</time>
      </trkpt>
      <trkpt lat="49.331830004230142" lon="-0.482984036207199">
        <ele>20.32</ele>
        <time>2018-07-04T07:04:18Z</time>
      </trkpt>
      <trkpt lat="49.331702012568712" lon="-0.483174975961447">
        <ele>21.77</ele>
        <time>2018-07-04T07:04:19Z</time>
      </trkpt>
      <trkpt lat="49.331567985936999" lon="-0.483359964564443">
        <ele>23.210000000000001</ele>
        <time>2018-07-04T07:04:20Z</time>
      </trkpt>
      <trkpt lat="49.330963985994458" lon="-0.484191030263901">
        <ele>27.530000000000001</ele>
        <time>2018-07-04T07:04:25Z</time>
      </trkpt>
      <trkpt lat="49.330876981839538" lon="-0.484360009431839">
        <ele>28.02</ele>
        <time>2018-07-04T07:04:26Z</time>
      </trkpt>
      <trkpt lat="49.330798024311662" lon="-0.484539968892932">
        <ele>28.5</ele>
        <time>2018-07-04T07:04:27Z</time>
      </trkpt>
      <trkpt lat="49.330734992399812" lon="-0.484733004122972">
        <ele>28.98</ele>
        <time>2018-07-04T07:04:28Z</time>
      </trkpt>
      <trkpt lat="49.330675983801484" lon="-0.484928973019123">
        <ele>29.460000000000001</ele>
        <time>2018-07-04T07:04:29Z</time>
      </trkpt>
      <trkpt lat="49.330652011558414" lon="-0.485155032947659">
        <ele>29.460000000000001</ele>
        <time>2018-07-04T07:04:30Z</time>
      </trkpt>
      <trkpt lat="49.330652011558414" lon="-0.485376985743642">
        <ele>29.940000000000001</ele>
        <time>2018-07-04T07:04:31Z</time>
      </trkpt>
      <trkpt lat="49.330652011558414" lon="-0.485599022358656">
        <ele>29.940000000000001</ele>
        <time>2018-07-04T07:04:32Z</time>
      </trkpt>
      <trkpt lat="49.330671960487962" lon="-0.485819969326258">
        <ele>29.940000000000001</ele>
        <time>2018-07-04T07:04:33Z</time>
      </trkpt>
      <trkpt lat="49.330713031813502" lon="-0.486035970970988">
        <ele>29.940000000000001</ele>
        <time>2018-07-04T07:04:34Z</time>
      </trkpt>
      <trkpt lat="49.330754019320011" lon="-0.48625398427248">
        <ele>29.940000000000001</ele>
        <time>2018-07-04T07:04:35Z</time>
      </trkpt>
      <trkpt lat="49.331248970702291" lon="-0.488606030121446">
        <ele>30.420000000000002</ele>
        <time>2018-07-04T07:04:45Z</time>
      </trkpt>
      <trkpt lat="49.331339998170733" lon="-0.489968005567789">
        <ele>28.5</ele>
        <time>2018-07-04T07:04:52Z</time>
      </trkpt>
      <trkpt lat="49.331295993179083" lon="-0.490693962201476">
        <ele>27.530000000000001</ele>
        <time>2018-07-04T07:04:55Z</time>
      </trkpt>
      <trkpt lat="49.331323988735676" lon="-0.490832012146711">
        <ele>27.050000000000001</ele>
        <time>2018-07-04T07:04:56Z</time>
      </trkpt>
      <trkpt lat="49.331338992342353" lon="-0.490909041836858">
        <ele>26.09</ele>
        <time>2018-07-04T07:04:57Z</time>
      </trkpt>
      <trkpt lat="49.331406969577074" lon="-0.491027981042862">
        <ele>25.609999999999999</ele>
        <time>2018-07-04T07:04:58Z</time>
      </trkpt>
      <trkpt lat="49.331424990668893" lon="-0.491058994084597">
        <ele>24.649999999999999</ele>
        <time>2018-07-04T07:04:59Z</time>
      </trkpt>
      <trkpt lat="49.331538984552026" lon="-0.491109034046531">
        <ele>24.170000000000002</ele>
        <time>2018-07-04T07:05:00Z</time>
      </trkpt>
      <trkpt lat="49.331538984552026" lon="-0.491109034046531">
        <ele>23.210000000000001</ele>
        <time>2018-07-04T07:05:01Z</time>
      </trkpt>
      <trkpt lat="49.331625988706946" lon="-0.491148009896278">
        <ele>22.25</ele>
        <time>2018-07-04T07:05:02Z</time>
      </trkpt>
      <trkpt lat="49.331850036978722" lon="-0.491245994344354">
        <ele>21.289999999999999</ele>
        <time>2018-07-04T07:05:03Z</time>
      </trkpt>
      <trkpt lat="49.332820996642113" lon="-0.491773970425129">
        <ele>12.630000000000001</ele>
        <time>2018-07-04T07:05:11Z</time>
      </trkpt>
      <trkpt lat="49.333000034093857" lon="-0.491874972358346">
        <ele>11.67</ele>
        <time>2018-07-04T07:05:13Z</time>
      </trkpt>
      <trkpt lat="49.33309500105679" lon="-0.491884024813771">
        <ele>11.19</ele>
        <time>2018-07-04T07:05:14Z</time>
      </trkpt>
      <trkpt lat="49.333187034353614" lon="-0.491893999278545">
        <ele>10.710000000000001</ele>
        <time>2018-07-04T07:05:15Z</time>
      </trkpt>
      <trkpt lat="49.333269009366632" lon="-0.491873966529965">
        <ele>10.23</ele>
        <time>2018-07-04T07:05:16Z</time>
      </trkpt>
      <trkpt lat="49.333269009366632" lon="-0.491873966529965">
        <ele>10.23</ele>
        <time>2018-07-04T07:05:17Z</time>
      </trkpt>
      <trkpt lat="49.333357019349933" lon="-0.491843037307262">
        <ele>9.75</ele>
        <time>2018-07-04T07:05:18Z</time>
      </trkpt>
      <trkpt lat="49.334372989833355" lon="-0.491438023746014">
        <ele>6.39</ele>
        <time>2018-07-04T07:05:27Z</time>
      </trkpt>
      <trkpt lat="49.334543980658054" lon="-0.491381026804447">
        <ele>5.42</ele>
        <time>2018-07-04T07:05:29Z</time>
      </trkpt>
      <trkpt lat="49.334623022004962" lon="-0.491381026804447">
        <ele>5.91</ele>
        <time>2018-07-04T07:05:30Z</time>
      </trkpt>
      <trkpt lat="49.334623022004962" lon="-0.491381026804447">
        <ele>5.91</ele>
        <time>2018-07-04T07:05:31Z</time>
      </trkpt>
      <trkpt lat="49.334708014503121" lon="-0.491381026804447">
        <ele>6.39</ele>
        <time>2018-07-04T07:05:32Z</time>
      </trkpt>
      <trkpt lat="49.334830977022648" lon="-0.491483034566045">
        <ele>6.87</ele>
        <time>2018-07-04T07:05:33Z</time>
      </trkpt>
      <trkpt lat="49.334873976185918" lon="-0.491555035114288">
        <ele>7.35</ele>
        <time>2018-07-04T07:05:34Z</time>
      </trkpt>
      <trkpt lat="49.33492099866271" lon="-0.491639021784067">
        <ele>7.83</ele>
        <time>2018-07-04T07:05:35Z</time>
      </trkpt>
      <trkpt lat="49.334952011704445" lon="-0.491724014282227">
        <ele>8.310000000000001</ele>
        <time>2018-07-04T07:05:36Z</time>
      </trkpt>
      <trkpt lat="49.334969026967883" lon="-0.49181898124516">
        <ele>8.789999999999999</ele>
        <time>2018-07-04T07:05:37Z</time>
      </trkpt>
      <trkpt lat="49.33498696424067" lon="-0.491916965693235">
        <ele>8.789999999999999</ele>
        <time>2018-07-04T07:05:38Z</time>
      </trkpt>
      <trkpt lat="49.334995010867715" lon="-0.492010004818439">
        <ele>9.27</ele>
        <time>2018-07-04T07:05:39Z</time>
      </trkpt>
      <trkpt lat="49.335004985332489" lon="-0.492113018408418">
        <ele>9.27</ele>
        <time>2018-07-04T07:05:40Z</time>
      </trkpt>
      <trkpt lat="49.335032980889082" lon="-0.492425998672843">
        <ele>10.23</ele>
        <time>2018-07-04T07:05:43Z</time>
      </trkpt>
      <trkpt lat="49.335043039172888" lon="-0.492534963414073">
        <ele>10.710000000000001</ele>
        <time>2018-07-04T07:05:44Z</time>
      </trkpt>
      <trkpt lat="49.335057958960533" lon="-0.492644011974335">
        <ele>10.710000000000001</ele>
        <time>2018-07-04T07:05:45Z</time>
      </trkpt>
      <trkpt lat="49.335096012800932" lon="-0.49274199642241">
        <ele>11.19</ele>
        <time>2018-07-04T07:05:46Z</time>
      </trkpt>
      <trkpt lat="49.335133982822299" lon="-0.492844004184008">
        <ele>11.19</ele>
        <time>2018-07-04T07:05:47Z</time>
      </trkpt>
      <trkpt lat="49.335294999182224" lon="-0.493267038837075">
        <ele>11.67</ele>
        <time>2018-07-04T07:05:51Z</time>
      </trkpt>
      <trkpt lat="49.335486022755504" lon="-0.4939029738307">
        <ele>10.710000000000001</ele>
        <time>2018-07-04T07:05:56Z</time>
      </trkpt>
      <trkpt lat="49.335592975839972" lon="-0.494344029575586">
        <ele>8.789999999999999</ele>
        <time>2018-07-04T07:05:59Z</time>
      </trkpt>
      <trkpt lat="49.33562901802361" lon="-0.494490964338183">
        <ele>8.310000000000001</ele>
        <time>2018-07-04T07:06:00Z</time>
      </trkpt>
      <trkpt lat="49.335833033546805" lon="-0.495221028104424">
        <ele>5.42</ele>
        <time>2018-07-04T07:06:05Z</time>
      </trkpt>
      <trkpt lat="49.335963036864996" lon="-0.495467036962509">
        <ele>4.46</ele>
        <time>2018-07-04T07:06:07Z</time>
      </trkpt>
      <trkpt lat="49.336132016032934" lon="-0.495744980871677">
        <ele>3.02</ele>
        <time>2018-07-04T07:06:10Z</time>
      </trkpt>
      <trkpt lat="49.336178032681346" lon="-0.495819998905063">
        <ele>3.02</ele>
        <time>2018-07-04T07:06:11Z</time>
      </trkpt>
      <trkpt lat="49.336582962423563" lon="-0.497023975476623">
        <ele>0.14</ele>
        <time>2018-07-04T07:06:21Z</time>
      </trkpt>
      <trkpt lat="49.336943970993161" lon="-0.497757978737354">
        <ele>-0.34</ele>
        <time>2018-07-04T07:06:27Z</time>
      </trkpt>
      <trkpt lat="49.337011026218534" lon="-0.497894017025828">
        <ele>-0.34</ele>
        <time>2018-07-04T07:06:28Z</time>
      </trkpt>
      <trkpt lat="49.337647967040539" lon="-0.499307038262486">
        <ele>0.14</ele>
        <time>2018-07-04T07:06:36Z</time>
      </trkpt>
      <trkpt lat="49.338908018544316" lon="-0.501655982807279">
        <ele>4.46</ele>
        <time>2018-07-04T07:06:48Z</time>
      </trkpt>
      <trkpt lat="49.339302973821759" lon="-0.502444971352816">
        <ele>4.46</ele>
        <time>2018-07-04T07:06:54Z</time>
      </trkpt>
      <trkpt lat="49.33966901153326" lon="-0.50324896350503">
        <ele>7.35</ele>
        <time>2018-07-04T07:07:02Z</time>
      </trkpt>
      <trkpt lat="49.339951984584332" lon="-0.504155969247222">
        <ele>6.87</ele>
        <time>2018-07-04T07:07:09Z</time>
      </trkpt>
      <trkpt lat="49.339971011504531" lon="-0.504253031685948">
        <ele>6.39</ele>
        <time>2018-07-04T07:07:10Z</time>
      </trkpt>
      <trkpt lat="49.339988026767969" lon="-0.50434397533536">
        <ele>6.39</ele>
        <time>2018-07-04T07:07:11Z</time>
      </trkpt>
      <trkpt lat="49.339988026767969" lon="-0.50434397533536">
        <ele>5.91</ele>
        <time>2018-07-04T07:07:12Z</time>
      </trkpt>
      <trkpt lat="49.340018033981323" lon="-0.504498034715652">
        <ele>5.42</ele>
        <time>2018-07-04T07:07:13Z</time>
      </trkpt>
      <trkpt lat="49.340033959597349" lon="-0.504582021385431">
        <ele>5.42</ele>
        <time>2018-07-04T07:07:14Z</time>
      </trkpt>
      <trkpt lat="49.340048041194677" lon="-0.504675982519984">
        <ele>4.94</ele>
        <time>2018-07-04T07:07:15Z</time>
      </trkpt>
      <trkpt lat="49.340063966810703" lon="-0.50477497279644">
        <ele>4.94</ele>
        <time>2018-07-04T07:07:16Z</time>
      </trkpt>
      <trkpt lat="49.340080982074142" lon="-0.504878992214799">
        <ele>4.94</ele>
        <time>2018-07-04T07:07:17Z</time>
      </trkpt>
      <trkpt lat="49.340203022584319" lon="-0.505600003525615">
        <ele>4.46</ele>
        <time>2018-07-04T07:07:25Z</time>
      </trkpt>
      <trkpt lat="49.34024702757597" lon="-0.505792032927275">
        <ele>3.98</ele>
        <time>2018-07-04T07:07:27Z</time>
      </trkpt>
      <trkpt lat="49.340350041165948" lon="-0.506231999024749">
        <ele>3.5</ele>
        <time>2018-07-04T07:07:31Z</time>
      </trkpt>
      <trkpt lat="49.340393040329218" lon="-0.506418999284506">
        <ele>3.5</ele>
        <time>2018-07-04T07:07:34Z</time>
      </trkpt>
      <trkpt lat="49.340438973158598" lon="-0.506615974009037">
        <ele>3.02</ele>
        <time>2018-07-04T07:07:35Z</time>
      </trkpt>
      <trkpt lat="49.340602001175284" lon="-0.507319970056415">
        <ele>3.02</ele>
        <time>2018-07-04T07:07:42Z</time>
      </trkpt>
      <trkpt lat="49.340629996731877" lon="-0.50743798725307">
        <ele>3.02</ele>
        <time>2018-07-04T07:07:43Z</time>
      </trkpt>
      <trkpt lat="49.340681964531541" lon="-0.507667986676097">
        <ele>3.5</ele>
        <time>2018-07-04T07:07:45Z</time>
      </trkpt>
      <trkpt lat="49.340707026422024" lon="-0.507780974730849">
        <ele>3.5</ele>
        <time>2018-07-04T07:07:46Z</time>
      </trkpt>
      <trkpt lat="49.340796964243054" lon="-0.508236028254032">
        <ele>3.5</ele>
        <time>2018-07-04T07:07:50Z</time>
      </trkpt>
      <trkpt lat="49.340816996991634" lon="-0.508339963853359">
        <ele>3.98</ele>
        <time>2018-07-04T07:07:51Z</time>
      </trkpt>
      <trkpt lat="49.340867958962917" lon="-0.508611034601927">
        <ele>3.5</ele>
        <time>2018-07-04T07:07:54Z</time>
      </trkpt>
      <trkpt lat="49.340882962569594" lon="-0.508687980473042">
        <ele>3.5</ele>
        <time>2018-07-04T07:07:55Z</time>
      </trkpt>
      <trkpt lat="49.340896038338542" lon="-0.508755035698414">
        <ele>3.5</ele>
        <time>2018-07-04T07:07:56Z</time>
      </trkpt>
      <trkpt lat="49.340968960896134" lon="-0.508819995447993">
        <ele>3.5</ele>
        <time>2018-07-04T07:07:57Z</time>
      </trkpt>
      <trkpt lat="49.341014977544546" lon="-0.508815972134471">
        <ele>3.5</ele>
        <time>2018-07-04T07:07:58Z</time>
      </trkpt>
      <trkpt lat="49.341059988364577" lon="-0.50881203263998">
        <ele>3.02</ele>
        <time>2018-07-04T07:07:59Z</time>
      </trkpt>
      <trkpt lat="49.34110701084137" lon="-0.508808009326458">
        <ele>2.54</ele>
        <time>2018-07-04T07:08:00Z</time>
      </trkpt>
      <trkpt lat="49.34110701084137" lon="-0.508808009326458">
        <ele>2.54</ele>
        <time>2018-07-04T07:08:01Z</time>
      </trkpt>
      <trkpt lat="49.341158978641033" lon="-0.508798034861684">
        <ele>2.06</ele>
        <time>2018-07-04T07:08:02Z</time>
      </trkpt>
      <trkpt lat="49.341288981959224" lon="-0.508721005171537">
        <ele>1.58</ele>
        <time>2018-07-04T07:08:03Z</time>
      </trkpt>
      <trkpt lat="49.341343967244029" lon="-0.508651016280055">
        <ele>1.1</ele>
        <time>2018-07-04T07:08:04Z</time>
      </trkpt>
      <trkpt lat="49.341403981670737" lon="-0.508574992418289">
        <ele>1.1</ele>
        <time>2018-07-04T07:08:05Z</time>
      </trkpt>
      <trkpt lat="49.341462990269065" lon="-0.508498968556523">
        <ele>0.62</ele>
        <time>2018-07-04T07:08:06Z</time>
      </trkpt>
      <trkpt lat="49.341523004695773" lon="-0.508423028513789">
        <ele>0.62</ele>
        <time>2018-07-04T07:08:07Z</time>
      </trkpt>
      <trkpt lat="49.341641021892428" lon="-0.508271986618638">
        <ele>-0.82</ele>
        <time>2018-07-04T07:08:09Z</time>
      </trkpt>
      <trkpt lat="49.341696007177234" lon="-0.508200991898775">
        <ele>-1.3</ele>
        <time>2018-07-04T07:08:10Z</time>
      </trkpt>
      <trkpt lat="49.342155000194907" lon="-0.507624987512827">
        <ele>-4.19</ele>
        <time>2018-07-04T07:08:18Z</time>
      </trkpt>
      <trkpt lat="49.342215014621615" lon="-0.507570002228022">
        <ele>-4.19</ele>
        <time>2018-07-04T07:08:19Z</time>
      </trkpt>
      <trkpt lat="49.342265976592898" lon="-0.50752499140799">
        <ele>-3.71</ele>
        <time>2018-07-04T07:08:21Z</time>
      </trkpt>
      <trkpt lat="49.342343006283045" lon="-0.507455002516508">
        <ele>-3.71</ele>
        <time>2018-07-04T07:08:22Z</time>
      </trkpt>
      <trkpt lat="49.34237795881927" lon="-0.507422983646393">
        <ele>-3.23</ele>
        <time>2018-07-04T07:08:23Z</time>
      </trkpt>
      <trkpt lat="49.342409977689385" lon="-0.5073949880898">
        <ele>-3.23</ele>
        <time>2018-07-04T07:08:24Z</time>
      </trkpt>
      <trkpt lat="49.342511985450983" lon="-0.507302032783628">
        <ele>-2.75</ele>
        <time>2018-07-04T07:08:32Z</time>
      </trkpt>
      <trkpt lat="49.342519026249647" lon="-0.507295997813344">
        <ele>-2.75</ele>
        <time>2018-07-04T07:08:33Z</time>
      </trkpt>
      <trkpt lat="49.342587003484368" lon="-0.507274037227035">
        <ele>-2.27</ele>
        <time>2018-07-04T07:08:34Z</time>
      </trkpt>
      <trkpt lat="49.342593960464001" lon="-0.507341008633375">
        <ele>-1.79</ele>
        <time>2018-07-04T07:08:35Z</time>
      </trkpt>
      <trkpt lat="49.342605024576187" lon="-0.50743899308145">
        <ele>-1.3</ele>
        <time>2018-07-04T07:08:36Z</time>
      </trkpt>
      <trkpt lat="49.342613993212581" lon="-0.507550975307822">
        <ele>-1.3</ele>
        <time>2018-07-04T07:08:37Z</time>
      </trkpt>
      <trkpt lat="49.342709966003895" lon="-0.508723016828299">
        <ele>1.1</ele>
        <time>2018-07-04T07:08:46Z</time>
      </trkpt>
      <trkpt lat="49.342906018719077" lon="-0.510881021618843">
        <ele>1.58</ele>
        <time>2018-07-04T07:08:58Z</time>
      </trkpt>
      <trkpt lat="49.342925967648625" lon="-0.511100040748715">
        <ele>1.58</ele>
        <time>2018-07-04T07:09:02Z</time>
      </trkpt>
      <trkpt lat="49.342930996790528" lon="-0.51115301437676">
        <ele>1.58</ele>
        <time>2018-07-04T07:09:03Z</time>
      </trkpt>
      <trkpt lat="49.342986987903714" lon="-0.511088976636529">
        <ele>1.58</ele>
        <time>2018-07-04T07:09:04Z</time>
      </trkpt>
      <trkpt lat="49.343023030087352" lon="-0.511083025485277">
        <ele>1.58</ele>
        <time>2018-07-04T07:09:05Z</time>
      </trkpt>
      <trkpt lat="49.343065023422241" lon="-0.511074978858233">
        <ele>1.58</ele>
        <time>2018-07-04T07:09:06Z</time>
      </trkpt>
      <trkpt lat="49.343630969524384" lon="-0.510970959439874">
        <ele>2.54</ele>
        <time>2018-07-04T07:09:13Z</time>
      </trkpt>
      <trkpt lat="49.344334965571761" lon="-0.510813966393471">
        <ele>4.94</ele>
        <time>2018-07-04T07:09:22Z</time>
      </trkpt>
      <trkpt lat="49.344437979161739" lon="-0.510786976665258">
        <ele>5.91</ele>
        <time>2018-07-04T07:09:29Z</time>
      </trkpt>
      <trkpt lat="49.3444590177387" lon="-0.510782031342387">
        <ele>5.91</ele>
        <time>2018-07-04T07:09:32Z</time>
      </trkpt>
      <trkpt lat="49.344464968889952" lon="-0.510718999430537">
        <ele>6.39</ele>
        <time>2018-07-04T07:09:33Z</time>
      </trkpt>
      <trkpt lat="49.344458011910319" lon="-0.510650016367435">
        <ele>6.87</ele>
        <time>2018-07-04T07:09:34Z</time>
      </trkpt>
      <trkpt lat="49.344448037445545" lon="-0.510559994727373">
        <ele>6.87</ele>
        <time>2018-07-04T07:09:35Z</time>
      </trkpt>
      <trkpt lat="49.344436973333359" lon="-0.510456981137395">
        <ele>7.35</ele>
        <time>2018-07-04T07:09:36Z</time>
      </trkpt>
      <trkpt lat="49.344370001927018" lon="-0.509817022830248">
        <ele>8.789999999999999</ele>
        <time>2018-07-04T07:09:44Z</time>
      </trkpt>
      <trkpt lat="49.344329014420509" lon="-0.509422989562154">
        <ele>9.27</ele>
        <time>2018-07-04T07:09:56Z</time>
      </trkpt>
      <trkpt lat="49.344329014420509" lon="-0.509422989562154">
        <ele>9.27</ele>
        <time>2018-07-04T07:10:34Z</time>
      </trkpt>
      <trkpt lat="49.344377964735031" lon="-0.509409997612238">
        <ele>6.39</ele>
        <time>2018-07-04T07:34:24Z</time>
      </trkpt>
      <trkpt lat="49.344361033290625" lon="-0.50939398817718">
        <ele>9.27</ele>
        <time>2018-07-04T07:35:02Z</time>
      </trkpt>
      <trkpt lat="49.344314010813832" lon="-0.509286029264331">
        <ele>8.789999999999999</ele>
        <time>2018-07-04T07:35:23Z</time>
      </trkpt>
      <trkpt lat="49.344295989722013" lon="-0.509115038439631">
        <ele>9.27</ele>
        <time>2018-07-04T07:35:31Z</time>
      </trkpt>
      <trkpt lat="49.344260031357408" lon="-0.50877196714282">
        <ele>7.83</ele>
        <time>2018-07-04T07:35:55Z</time>
      </trkpt>
      <trkpt lat="49.344098009169102" lon="-0.507230032235384">
        <ele>7.35</ele>
        <time>2018-07-04T07:36:07Z</time>
      </trkpt>
      <trkpt lat="49.34396599419415" lon="-0.506266029551625">
        <ele>6.87</ele>
        <time>2018-07-04T07:36:16Z</time>
      </trkpt>
      <trkpt lat="49.343924000859261" lon="-0.506230993196368">
        <ele>6.87</ele>
        <time>2018-07-04T07:36:17Z</time>
      </trkpt>
      <trkpt lat="49.343870021402836" lon="-0.506185982376337">
        <ele>6.87</ele>
        <time>2018-07-04T07:36:18Z</time>
      </trkpt>
      <trkpt lat="49.343829033896327" lon="-0.506193023175001">
        <ele>6.87</ele>
        <time>2018-07-04T07:36:19Z</time>
      </trkpt>
      <trkpt lat="49.343767007812858" lon="-0.506204003468156">
        <ele>6.39</ele>
        <time>2018-07-04T07:36:20Z</time>
      </trkpt>
      <trkpt lat="49.343700958415866" lon="-0.506240967661142">
        <ele>6.39</ele>
        <time>2018-07-04T07:36:21Z</time>
      </trkpt>
      <trkpt lat="49.343638010323048" lon="-0.506293019279838">
        <ele>5.91</ele>
        <time>2018-07-04T07:36:22Z</time>
      </trkpt>
      <trkpt lat="49.343572966754436" lon="-0.506345992907882">
        <ele>5.42</ele>
        <time>2018-07-04T07:36:23Z</time>
      </trkpt>
      <trkpt lat="49.343504989519715" lon="-0.506401984021068">
        <ele>5.42</ele>
        <time>2018-07-04T07:36:24Z</time>
      </trkpt>
      <trkpt lat="49.342795964330435" lon="-0.50698502920568">
        <ele>3.5</ele>
        <time>2018-07-04T07:36:35Z</time>
      </trkpt>
      <trkpt lat="49.342749025672674" lon="-0.507034985348582">
        <ele>3.5</ele>
        <time>2018-07-04T07:36:36Z</time>
      </trkpt>
      <trkpt lat="49.342710971832275" lon="-0.507081001996994">
        <ele>3.02</ele>
        <time>2018-07-04T07:36:37Z</time>
      </trkpt>
      <trkpt lat="49.342681970447302" lon="-0.5071169603616">
        <ele>3.02</ele>
        <time>2018-07-04T07:36:38Z</time>
      </trkpt>
      <trkpt lat="49.342657998204231" lon="-0.507145961746573">
        <ele>3.02</ele>
        <time>2018-07-04T07:36:39Z</time>
      </trkpt>
      <trkpt lat="49.342638971284032" lon="-0.507170017808676">
        <ele>3.5</ele>
        <time>2018-07-04T07:36:40Z</time>
      </trkpt>
      <trkpt lat="49.342617010697722" lon="-0.507196001708508">
        <ele>3.5</ele>
        <time>2018-07-04T07:36:41Z</time>
      </trkpt>
      <trkpt lat="49.342588009312749" lon="-0.507282000035048">
        <ele>3.5</ele>
        <time>2018-07-04T07:36:42Z</time>
      </trkpt>
      <trkpt lat="49.342597983777523" lon="-0.507374033331871">
        <ele>3.98</ele>
        <time>2018-07-04T07:36:43Z</time>
      </trkpt>
      <trkpt lat="49.342607958242297" lon="-0.507473023608327">
        <ele>3.5</ele>
        <time>2018-07-04T07:36:44Z</time>
      </trkpt>
      <trkpt lat="49.342617010697722" lon="-0.50758802331984">
        <ele>3.98</ele>
        <time>2018-07-04T07:36:45Z</time>
      </trkpt>
      <trkpt lat="49.342726981267333" lon="-0.508926026523113">
        <ele>3.5</ele>
        <time>2018-07-04T07:36:54Z</time>
      </trkpt>
      <trkpt lat="49.342967960983515" lon="-0.511546041816473">
        <ele>2.54</ele>
        <time>2018-07-04T07:37:08Z</time>
      </trkpt>
      <trkpt lat="49.343156972900033" lon="-0.513803958892822">
        <ele>1.58</ele>
        <time>2018-07-04T07:37:20Z</time>
      </trkpt>
      <trkpt lat="49.343354031443596" lon="-0.515288980677724">
        <ele>2.06</ele>
        <time>2018-07-04T07:37:29Z</time>
      </trkpt>
      <trkpt lat="49.343388983979821" lon="-0.515462988987565">
        <ele>2.06</ele>
        <time>2018-07-04T07:37:31Z</time>
      </trkpt>
      <trkpt lat="49.343405999243259" lon="-0.515545969828963">
        <ele>2.06</ele>
        <time>2018-07-04T07:37:32Z</time>
      </trkpt>
      <trkpt lat="49.343421002849936" lon="-0.515618976205587">
        <ele>1.58</ele>
        <time>2018-07-04T07:37:33Z</time>
      </trkpt>
      <trkpt lat="49.343431983143091" lon="-0.515676978975534">
        <ele>2.06</ele>
        <time>2018-07-04T07:37:34Z</time>
      </trkpt>
      <trkpt lat="49.343442041426897" lon="-0.515721989795566">
        <ele>2.06</ele>
        <time>2018-07-04T07:37:35Z</time>
      </trkpt>
      <trkpt lat="49.343447992578149" lon="-0.515756020322442">
        <ele>1.58</ele>
        <time>2018-07-04T07:37:44Z</time>
      </trkpt>
      <trkpt lat="49.343504989519715" lon="-0.5160310305655">
        <ele>2.06</ele>
        <time>2018-07-04T07:38:13Z</time>
      </trkpt>
      <trkpt lat="49.343513958156109" lon="-0.516135971993208">
        <ele>2.54</ele>
        <time>2018-07-04T07:38:14Z</time>
      </trkpt>
      <trkpt lat="49.34340700507164" lon="-0.517498031258583">
        <ele>3.5</ele>
        <time>2018-07-04T07:38:23Z</time>
      </trkpt>
      <trkpt lat="49.34299997985363" lon="-0.519907996058464">
        <ele>5.91</ele>
        <time>2018-07-04T07:38:36Z</time>
      </trkpt>
      <trkpt lat="49.342545010149479" lon="-0.522512001916766">
        <ele>9.27</ele>
        <time>2018-07-04T07:38:50Z</time>
      </trkpt>
      <trkpt lat="49.342005969956517" lon="-0.525602996349335">
        <ele>15.039999999999999</ele>
        <time>2018-07-04T07:39:05Z</time>
      </trkpt>
      <trkpt lat="49.341456033289433" lon="-0.528674963861704">
        <ele>20.809999999999999</ele>
        <time>2018-07-04T07:39:20Z</time>
      </trkpt>
      <trkpt lat="49.340993016958237" lon="-0.531650958582759">
        <ele>23.210000000000001</ele>
        <time>2018-07-04T07:39:31Z</time>
      </trkpt>
      <trkpt lat="49.340488007292151" lon="-0.536204008385539">
        <ele>24.649999999999999</ele>
        <time>2018-07-04T07:39:47Z</time>
      </trkpt>
      <trkpt lat="49.33986003510654" lon="-0.541915018111467">
        <ele>22.73</ele>
        <time>2018-07-04T07:40:07Z</time>
      </trkpt>
      <trkpt lat="49.339231979101896" lon="-0.54761303588748">
        <ele>18.399999999999999</ele>
        <time>2018-07-04T07:40:27Z</time>
      </trkpt>
      <trkpt lat="49.338667038828135" lon="-0.552759021520615">
        <ele>15.52</ele>
        <time>2018-07-04T07:40:45Z</time>
      </trkpt>
      <trkpt lat="49.33814400807023" lon="-0.557545004412532">
        <ele>11.67</ele>
        <time>2018-07-04T07:41:02Z</time>
      </trkpt>
      <trkpt lat="49.337936975061893" lon="-0.5600989703089">
        <ele>9.27</ele>
        <time>2018-07-04T07:41:11Z</time>
      </trkpt>
      <trkpt lat="49.337830021977425" lon="-0.562673974782228">
        <ele>7.35</ele>
        <time>2018-07-04T07:41:22Z</time>
      </trkpt>
      <trkpt lat="49.337845025584102" lon="-0.564735000953078">
        <ele>8.310000000000001</ele>
        <time>2018-07-04T07:41:31Z</time>
      </trkpt>
      <trkpt lat="49.337951978668571" lon="-0.567130967974663">
        <ele>6.87</ele>
        <time>2018-07-04T07:41:42Z</time>
      </trkpt>
      <trkpt lat="49.338155994191766" lon="-0.569343036040664">
        <ele>5.91</ele>
        <time>2018-07-04T07:41:53Z</time>
      </trkpt>
      <trkpt lat="49.33829496614635" lon="-0.570762008428574">
        <ele>6.87</ele>
        <time>2018-07-04T07:41:59Z</time>
      </trkpt>
      <trkpt lat="49.338463023304939" lon="-0.572482980787754">
        <ele>7.83</ele>
        <time>2018-07-04T07:42:05Z</time>
      </trkpt>
      <trkpt lat="49.338693022727966" lon="-0.57496402412653">
        <ele>7.83</ele>
        <time>2018-07-04T07:42:16Z</time>
      </trkpt>
      <trkpt lat="49.338942971080542" lon="-0.577699039131403">
        <ele>6.39</ele>
        <time>2018-07-04T07:42:29Z</time>
      </trkpt>
      <trkpt lat="49.339159978553653" lon="-0.57984497398138">
        <ele>5.42</ele>
        <time>2018-07-04T07:42:41Z</time>
      </trkpt>
      <trkpt lat="49.339371034875512" lon="-0.582051007077098">
        <ele>3.98</ele>
        <time>2018-07-04T07:42:53Z</time>
      </trkpt>
      <trkpt lat="49.339610002934933" lon="-0.584582006558776">
        <ele>3.02</ele>
        <time>2018-07-04T07:43:08Z</time>
      </trkpt>
      <trkpt lat="49.339788034558296" lon="-0.586451003327966">
        <ele>3.5</ele>
        <time>2018-07-04T07:43:21Z</time>
      </trkpt>
      <trkpt lat="49.339792979881167" lon="-0.58671603910625">
        <ele>3.98</ele>
        <time>2018-07-04T07:43:23Z</time>
      </trkpt>
      <trkpt lat="49.339805971831083" lon="-0.588530972599983">
        <ele>4.46</ele>
        <time>2018-07-04T07:43:35Z</time>
      </trkpt>
      <trkpt lat="49.339813012629747" lon="-0.58931996114552">
        <ele>3.98</ele>
        <time>2018-07-04T07:43:40Z</time>
      </trkpt>
      <trkpt lat="49.339814018458128" lon="-0.589478965848684">
        <ele>3.98</ele>
        <time>2018-07-04T07:43:41Z</time>
      </trkpt>
      <trkpt lat="49.339846959337592" lon="-0.590757038444281">
        <ele>3.02</ele>
        <time>2018-07-04T07:43:49Z</time>
      </trkpt>
      <trkpt lat="49.339898005127907" lon="-0.592440040782094">
        <ele>2.54</ele>
        <time>2018-07-04T07:44:01Z</time>
      </trkpt>
      <trkpt lat="49.339892975986004" lon="-0.593003975227475">
        <ele>3.02</ele>
        <time>2018-07-04T07:44:05Z</time>
      </trkpt>
      <trkpt lat="49.339742017909884" lon="-0.595044968649745">
        <ele>3.98</ele>
        <time>2018-07-04T07:44:19Z</time>
      </trkpt>
      <trkpt lat="49.339332981035113" lon="-0.596379032358527">
        <ele>3.98</ele>
        <time>2018-07-04T07:44:30Z</time>
      </trkpt>
      <trkpt lat="49.338608030229807" lon="-0.597864976152778">
        <ele>5.42</ele>
        <time>2018-07-04T07:44:42Z</time>
      </trkpt>
      <trkpt lat="49.338025990873575" lon="-0.59950103983283">
        <ele>6.39</ele>
        <time>2018-07-04T07:44:51Z</time>
      </trkpt>
      <trkpt lat="49.337726002559066" lon="-0.601777983829379">
        <ele>7.35</ele>
        <time>2018-07-04T07:45:02Z</time>
      </trkpt>
      <trkpt lat="49.337906967848539" lon="-0.603972030803561">
        <ele>13.6</ele>
        <time>2018-07-04T07:45:14Z</time>
      </trkpt>
      <trkpt lat="49.338080976158381" lon="-0.604710979387164">
        <ele>18.399999999999999</ele>
        <time>2018-07-04T07:45:21Z</time>
      </trkpt>
      <trkpt lat="49.338537035509944" lon="-0.606230031698942">
        <ele>27.530000000000001</ele>
        <time>2018-07-04T07:45:33Z</time>
      </trkpt>
      <trkpt lat="49.338878011330962" lon="-0.607588989660144">
        <ele>36.189999999999998</ele>
        <time>2018-07-04T07:45:43Z</time>
      </trkpt>
      <trkpt lat="49.338892009109259" lon="-0.608561038970947">
        <ele>42.439999999999998</ele>
        <time>2018-07-04T07:45:52Z</time>
      </trkpt>
      <trkpt lat="49.338868958875537" lon="-0.609081974253058">
        <ele>45.799999999999997</ele>
        <time>2018-07-04T07:45:58Z</time>
      </trkpt>
      <trkpt lat="49.338863007724285" lon="-0.609194040298462">
        <ele>46.280000000000001</ele>
        <time>2018-07-04T07:45:59Z</time>
      </trkpt>
      <trkpt lat="49.338782038539648" lon="-0.610260972753167">
        <ele>51.57</ele>
        <time>2018-07-04T07:46:08Z</time>
      </trkpt>
      <trkpt lat="49.338779021054506" lon="-0.610327022150159">
        <ele>52.049999999999997</ele>
        <time>2018-07-04T07:46:16Z</time>
      </trkpt>
      <trkpt lat="49.338779021054506" lon="-0.610327022150159">
        <ele>51.090000000000003</ele>
        <time>2018-07-04T07:46:32Z</time>
      </trkpt>
      <trkpt lat="49.338779021054506" lon="-0.610327022150159">
        <ele>51.090000000000003</ele>
        <time>2018-07-04T07:46:59Z</time>
      </trkpt>
      <trkpt lat="49.338779021054506" lon="-0.610327022150159">
        <ele>50.130000000000003</ele>
        <time>2018-07-04T07:47:23Z</time>
      </trkpt>
      <trkpt lat="49.338780026882887" lon="-0.610319981351495">
        <ele>48.68</ele>
        <time>2018-07-04T07:47:26Z</time>
      </trkpt>
      <trkpt lat="49.338776003569365" lon="-0.610428024083376">
        <ele>47.719999999999999</ele>
        <time>2018-07-04T07:47:27Z</time>
      </trkpt>
      <trkpt lat="49.338770974427462" lon="-0.610558027401567">
        <ele>46.759999999999998</ele>
        <time>2018-07-04T07:47:28Z</time>
      </trkpt>
      <trkpt lat="49.338774997740984" lon="-0.6119429692626">
        <ele>47.240000000000002</ele>
        <time>2018-07-04T07:47:36Z</time>
      </trkpt>
      <trkpt lat="49.338859990239143" lon="-0.613397983834147">
        <ele>49.159999999999997</ele>
        <time>2018-07-04T07:47:46Z</time>
      </trkpt>
      <trkpt lat="49.338948000222445" lon="-0.614590980112553">
        <ele>50.609999999999999</ele>
        <time>2018-07-04T07:47:55Z</time>
      </trkpt>
      <trkpt lat="49.338989993557334" lon="-0.615134965628386">
        <ele>52.049999999999997</ele>
        <time>2018-07-04T07:48:03Z</time>
      </trkpt>
      <trkpt lat="49.338992005214095" lon="-0.61516597867012">
        <ele>52.049999999999997</ele>
        <time>2018-07-04T07:48:04Z</time>
      </trkpt>
      <trkpt lat="49.339201971888542" lon="-0.615183999761939">
        <ele>52.049999999999997</ele>
        <time>2018-07-04T07:48:11Z</time>
      </trkpt>
      <trkpt lat="49.339287970215082" lon="-0.615153992548585">
        <ele>52.530000000000001</ele>
        <time>2018-07-04T07:48:24Z</time>
      </trkpt>
      <trkpt lat="49.339287970215082" lon="-0.615153992548585">
        <ele>52.530000000000001</ele>
        <time>2018-07-04T07:48:33Z</time>
      </trkpt>
      <trkpt lat="49.339341027662158" lon="-0.615134965628386">
        <ele>53.009999999999998</ele>
        <time>2018-07-04T07:48:35Z</time>
      </trkpt>
      <trkpt lat="49.339320994913578" lon="-0.61514200642705">
        <ele>53.009999999999998</ele>
        <time>2018-07-04T07:48:36Z</time>
      </trkpt>
      <trkpt lat="49.339289981871843" lon="-0.615152986720204">
        <ele>53.009999999999998</ele>
        <time>2018-07-04T07:48:37Z</time>
      </trkpt>
      <trkpt lat="49.339257963001728" lon="-0.615163967013359">
        <ele>53.009999999999998</ele>
        <time>2018-07-04T07:48:38Z</time>
      </trkpt>
      <trkpt lat="49.339010026305914" lon="-0.615546014159918">
        <ele>52.530000000000001</ele>
        <time>2018-07-04T07:48:48Z</time>
      </trkpt>
      <trkpt lat="49.339011032134295" lon="-0.61557300388813">
        <ele>52.530000000000001</ele>
        <time>2018-07-04T07:48:49Z</time>
      </trkpt>
      <trkpt lat="49.339012037962675" lon="-0.61559496447444">
        <ele>52.049999999999997</ele>
        <time>2018-07-04T07:48:50Z</time>
      </trkpt>
      <trkpt lat="49.339061994105577" lon="-0.615234039723873">
        <ele>52.049999999999997</ele>
        <time>2018-07-04T07:48:51Z</time>
      </trkpt>
      <trkpt lat="49.339049002155662" lon="-0.615237979218364">
        <ele>52.049999999999997</ele>
        <time>2018-07-04T07:48:52Z</time>
      </trkpt>
      <trkpt lat="49.339011032134295" lon="-0.615562023594975">
        <ele>52.049999999999997</ele>
        <time>2018-07-04T07:48:53Z</time>
      </trkpt>
      <trkpt lat="49.339010026305914" lon="-0.615540985018015">
        <ele>52.049999999999997</ele>
        <time>2018-07-04T07:48:54Z</time>
      </trkpt>
      <trkpt lat="49.339010026305914" lon="-0.615540985018015">
        <ele>52.049999999999997</ele>
        <time>2018-07-04T07:49:07Z</time>
      </trkpt>
      <trkpt lat="49.339127037674189" lon="-0.61554903164506">
        <ele>52.530000000000001</ele>
        <time>2018-07-04T08:10:12Z</time>
      </trkpt>
      <trkpt lat="49.339136006310582" lon="-0.615578033030033">
        <ele>49.159999999999997</ele>
        <time>2018-07-04T08:10:31Z</time>
      </trkpt>
      <trkpt lat="49.339113039895892" lon="-0.615216018632054">
        <ele>49.649999999999999</ele>
        <time>2018-07-04T08:10:34Z</time>
      </trkpt>
      <trkpt lat="49.339008014649153" lon="-0.615478958934546">
        <ele>49.649999999999999</ele>
        <time>2018-07-04T08:10:35Z</time>
      </trkpt>
      <trkpt lat="49.339006002992392" lon="-0.615446018055081">
        <ele>49.649999999999999</ele>
        <time>2018-07-04T08:10:36Z</time>
      </trkpt>
      <trkpt lat="49.339004997164011" lon="-0.615413999184966">
        <ele>49.159999999999997</ele>
        <time>2018-07-04T08:10:37Z</time>
      </trkpt>
      <trkpt lat="49.33900399133563" lon="-0.61538097448647">
        <ele>49.159999999999997</ele>
        <time>2018-07-04T08:10:38Z</time>
      </trkpt>
      <trkpt lat="49.33900298550725" lon="-0.615352978929877">
        <ele>49.159999999999997</ele>
        <time>2018-07-04T08:10:39Z</time>
      </trkpt>
      <trkpt lat="49.339094012975693" lon="-0.615221969783306">
        <ele>48.68</ele>
        <time>2018-07-04T08:10:40Z</time>
      </trkpt>
      <trkpt lat="49.339072974398732" lon="-0.615230016410351">
        <ele>48.68</ele>
        <time>2018-07-04T08:10:41Z</time>
      </trkpt>
      <trkpt lat="49.339001979678869" lon="-0.615333030000329">
        <ele>48.68</ele>
        <time>2018-07-04T08:10:42Z</time>
      </trkpt>
      <trkpt lat="49.339001979678869" lon="-0.615333030000329">
        <ele>48.200000000000003</ele>
        <time>2018-07-04T08:10:43Z</time>
      </trkpt>
      <trkpt lat="49.33900399133563" lon="-0.615375023335218">
        <ele>48.200000000000003</ele>
        <time>2018-07-04T08:10:46Z</time>
      </trkpt>
      <trkpt lat="49.339004997164011" lon="-0.615421961992979">
        <ele>48.68</ele>
        <time>2018-07-04T08:10:47Z</time>
      </trkpt>
      <trkpt lat="49.339009020477533" lon="-0.61550997197628">
        <ele>48.68</ele>
        <time>2018-07-04T08:10:48Z</time>
      </trkpt>
      <trkpt lat="49.338931990787387" lon="-0.616544969379902">
        <ele>48.68</ele>
        <time>2018-07-04T08:10:55Z</time>
      </trkpt>
      <trkpt lat="49.338892009109259" lon="-0.616693999618292">
        <ele>49.159999999999997</ele>
        <time>2018-07-04T08:10:56Z</time>
      </trkpt>
      <trkpt lat="49.338817996904254" lon="-0.616867002099752">
        <ele>49.159999999999997</ele>
        <time>2018-07-04T08:10:57Z</time>
      </trkpt>
      <trkpt lat="49.338749013841152" lon="-0.617027012631297">
        <ele>49.649999999999999</ele>
        <time>2018-07-04T08:10:58Z</time>
      </trkpt>
      <trkpt lat="49.338676007464528" lon="-0.617176964879036">
        <ele>49.649999999999999</ele>
        <time>2018-07-04T08:10:59Z</time>
      </trkpt>
      <trkpt lat="49.338582968339324" lon="-0.617309985682368">
        <ele>49.649999999999999</ele>
        <time>2018-07-04T08:11:00Z</time>
      </trkpt>
      <trkpt lat="49.338480038568377" lon="-0.617426997050643">
        <ele>49.649999999999999</ele>
        <time>2018-07-04T08:11:01Z</time>
      </trkpt>
      <trkpt lat="49.338367972522974" lon="-0.617538979277015">
        <ele>50.130000000000003</ele>
        <time>2018-07-04T08:11:02Z</time>
      </trkpt>
      <trkpt lat="49.338253978639841" lon="-0.617652973160148">
        <ele>50.130000000000003</ele>
        <time>2018-07-04T08:11:03Z</time>
      </trkpt>
      <trkpt lat="49.338126992806792" lon="-0.617718016728759">
        <ele>50.130000000000003</ele>
        <time>2018-07-04T08:11:04Z</time>
      </trkpt>
      <trkpt lat="49.337985003367066" lon="-0.617769984528422">
        <ele>50.609999999999999</ele>
        <time>2018-07-04T08:11:05Z</time>
      </trkpt>
      <trkpt lat="49.337844019755721" lon="-0.617822036147118">
        <ele>50.609999999999999</ele>
        <time>2018-07-04T08:11:06Z</time>
      </trkpt>
      <trkpt lat="49.337700018659234" lon="-0.617876015603542">
        <ele>50.609999999999999</ele>
        <time>2018-07-04T08:11:07Z</time>
      </trkpt>
      <trkpt lat="49.336150037124753" lon="-0.618308018893003">
        <ele>45.799999999999997</ele>
        <time>2018-07-04T08:11:17Z</time>
      </trkpt>
      <trkpt lat="49.335885001346469" lon="-0.618455959483981">
        <ele>43.399999999999999</ele>
        <time>2018-07-04T08:11:19Z</time>
      </trkpt>
      <trkpt lat="49.335774024948478" lon="-0.618567019701004">
        <ele>41.950000000000003</ele>
        <time>2018-07-04T08:11:20Z</time>
      </trkpt>
      <trkpt lat="49.335677968338132" lon="-0.618685036897659">
        <ele>40.030000000000001</ele>
        <time>2018-07-04T08:11:21Z</time>
      </trkpt>
      <trkpt lat="49.335606973618269" lon="-0.618844963610172">
        <ele>38.590000000000003</ele>
        <time>2018-07-04T08:11:22Z</time>
      </trkpt>
      <trkpt lat="49.335538996383548" lon="-0.619013020768762">
        <ele>37.149999999999999</ele>
        <time>2018-07-04T08:11:23Z</time>
      </trkpt>
      <trkpt lat="49.335518041625619" lon="-0.619194991886616">
        <ele>35.710000000000001</ele>
        <time>2018-07-04T08:11:24Z</time>
      </trkpt>
      <trkpt lat="49.335512006655335" lon="-0.619393978267908">
        <ele>34.259999999999998</ele>
        <time>2018-07-04T08:11:25Z</time>
      </trkpt>
      <trkpt lat="49.335504965856671" lon="-0.619594976305962">
        <ele>32.82</ele>
        <time>2018-07-04T08:11:26Z</time>
      </trkpt>
      <trkpt lat="49.335531033575535" lon="-0.619785999879241">
        <ele>31.379999999999999</ele>
        <time>2018-07-04T08:11:27Z</time>
      </trkpt>
      <trkpt lat="49.335575960576534" lon="-0.61995598487556">
        <ele>29.940000000000001</ele>
        <time>2018-07-04T08:11:28Z</time>
      </trkpt>
      <trkpt lat="49.335642009973526" lon="-0.620095962658525">
        <ele>28.98</ele>
        <time>2018-07-04T08:11:29Z</time>
      </trkpt>
      <trkpt lat="49.335716022178531" lon="-0.620219008997083">
        <ele>28.02</ele>
        <time>2018-07-04T08:11:30Z</time>
      </trkpt>
      <trkpt lat="49.335795985534787" lon="-0.620325962081552">
        <ele>27.050000000000001</ele>
        <time>2018-07-04T08:11:31Z</time>
      </trkpt>
      <trkpt lat="49.335877038538456" lon="-0.620434004813433">
        <ele>26.09</ele>
        <time>2018-07-04T08:11:32Z</time>
      </trkpt>
      <trkpt lat="49.335959013551474" lon="-0.620542969554663">
        <ele>25.609999999999999</ele>
        <time>2018-07-04T08:11:33Z</time>
      </trkpt>
      <trkpt lat="49.336433010175824" lon="-0.620972039178014">
        <ele>21.289999999999999</ele>
        <time>2018-07-04T08:11:38Z</time>
      </trkpt>
      <trkpt lat="49.336651023477316" lon="-0.621029958128929">
        <ele>19.359999999999999</ele>
        <time>2018-07-04T08:11:40Z</time>
      </trkpt>
      <trkpt lat="49.336753031238914" lon="-0.621044961735606">
        <ele>17.920000000000002</ele>
        <time>2018-07-04T08:11:41Z</time>
      </trkpt>
      <trkpt lat="49.336849004030228" lon="-0.62102903611958">
        <ele>16.960000000000001</ele>
        <time>2018-07-04T08:11:42Z</time>
      </trkpt>
      <trkpt lat="49.337114039808512" lon="-0.620975978672504">
        <ele>14.56</ele>
        <time>2018-07-04T08:11:45Z</time>
      </trkpt>
      <trkpt lat="49.337445041164756" lon="-0.62090003862977">
        <ele>12.630000000000001</ele>
        <time>2018-07-04T08:11:49Z</time>
      </trkpt>
      <trkpt lat="49.337540008127689" lon="-0.620877994224429">
        <ele>12.15</ele>
        <time>2018-07-04T08:11:50Z</time>
      </trkpt>
      <trkpt lat="49.337595999240875" lon="-0.62090003862977">
        <ele>11.67</ele>
        <time>2018-07-04T08:11:51Z</time>
      </trkpt>
      <trkpt lat="49.337661964818835" lon="-0.620926022529602">
        <ele>10.710000000000001</ele>
        <time>2018-07-04T08:11:52Z</time>
      </trkpt>
      <trkpt lat="49.337724996730685" lon="-0.620952006429434">
        <ele>10.23</ele>
        <time>2018-07-04T08:11:53Z</time>
      </trkpt>
      <trkpt lat="49.337776964530349" lon="-0.620993999764323">
        <ele>9.75</ele>
        <time>2018-07-04T08:11:54Z</time>
      </trkpt>
      <trkpt lat="49.337822981178761" lon="-0.621055020019412">
        <ele>9.27</ele>
        <time>2018-07-04T08:11:55Z</time>
      </trkpt>
      <trkpt lat="49.337870003655553" lon="-0.62111696228385">
        <ele>8.789999999999999</ele>
        <time>2018-07-04T08:11:56Z</time>
      </trkpt>
      <trkpt lat="49.337901016697288" lon="-0.621190974488854">
        <ele>7.83</ele>
        <time>2018-07-04T08:11:57Z</time>
      </trkpt>
      <trkpt lat="49.3379280064255" lon="-0.621278984472156">
        <ele>7.35</ele>
        <time>2018-07-04T08:11:58Z</time>
      </trkpt>
      <trkpt lat="49.337957007810473" lon="-0.621375041082501">
        <ele>6.87</ele>
        <time>2018-07-04T08:11:59Z</time>
      </trkpt>
      <trkpt lat="49.338081981986761" lon="-0.621779970824718">
        <ele>7.35</ele>
        <time>2018-07-04T08:12:03Z</time>
      </trkpt>
      <trkpt lat="49.338112995028496" lon="-0.621879966929555">
        <ele>7.35</ele>
        <time>2018-07-04T08:12:04Z</time>
      </trkpt>
      <trkpt lat="49.338238975033164" lon="-0.622337032109499">
        <ele>7.35</ele>
        <time>2018-07-04T08:12:09Z</time>
      </trkpt>
      <trkpt lat="49.338408960029483" lon="-0.623612003400922">
        <ele>7.83</ele>
        <time>2018-07-04T08:12:21Z</time>
      </trkpt>
      <trkpt lat="49.338420024141669" lon="-0.623919032514095">
        <ele>8.310000000000001</ele>
        <time>2018-07-04T08:12:27Z</time>
      </trkpt>
      <trkpt lat="49.338399991393089" lon="-0.62397301197052">
        <ele>8.310000000000001</ele>
        <time>2018-07-04T08:12:28Z</time>
      </trkpt>
      <trkpt lat="49.338346011936665" lon="-0.623987009748816">
        <ele>8.789999999999999</ele>
        <time>2018-07-04T08:12:29Z</time>
      </trkpt>
      <trkpt lat="49.338283985853195" lon="-0.624004025012255">
        <ele>8.789999999999999</ele>
        <time>2018-07-04T08:12:30Z</time>
      </trkpt>
      <trkpt lat="49.338225983083248" lon="-0.624019028618932">
        <ele>9.27</ele>
        <time>2018-07-04T08:12:31Z</time>
      </trkpt>
      <trkpt lat="49.338174015283585" lon="-0.624033026397228">
        <ele>9.75</ele>
        <time>2018-07-04T08:12:32Z</time>
      </trkpt>
      <trkpt lat="49.33812296949327" lon="-0.624047024175525">
        <ele>10.23</ele>
        <time>2018-07-04T08:12:33Z</time>
      </trkpt>
      <trkpt lat="49.338073013350368" lon="-0.624060016125441">
        <ele>10.710000000000001</ele>
        <time>2018-07-04T08:12:34Z</time>
      </trkpt>
      <trkpt lat="49.338029008358717" lon="-0.624072002246976">
        <ele>11.19</ele>
        <time>2018-07-04T08:12:35Z</time>
      </trkpt>
      <trkpt lat="49.337982991710305" lon="-0.624083988368511">
        <ele>11.67</ele>
        <time>2018-07-04T08:12:36Z</time>
      </trkpt>
      <trkpt lat="49.337943010032177" lon="-0.624094968661666">
        <ele>11.67</ele>
        <time>2018-07-04T08:12:37Z</time>
      </trkpt>
      <trkpt lat="49.33790797367692" lon="-0.624104021117091">
        <ele>11.67</ele>
        <time>2018-07-04T08:12:38Z</time>
      </trkpt>
      <trkpt lat="49.337827004492283" lon="-0.624125981703401">
        <ele>12.15</ele>
        <time>2018-07-04T08:12:41Z</time>
      </trkpt>
      <trkpt lat="49.337785011157393" lon="-0.624227989464998">
        <ele>12.15</ele>
        <time>2018-07-04T08:12:42Z</time>
      </trkpt>
      <trkpt lat="49.337791968137026" lon="-0.624293033033609">
        <ele>12.15</ele>
        <time>2018-07-04T08:12:43Z</time>
      </trkpt>
      <trkpt lat="49.337899005040526" lon="-0.625331969931722">
        <ele>13.119999999999999</ele>
        <time>2018-07-04T08:12:52Z</time>
      </trkpt>
      <trkpt lat="49.337962958961725" lon="-0.62595197930932">
        <ele>13.6</ele>
        <time>2018-07-04T08:12:56Z</time>
      </trkpt>
      <trkpt lat="49.338119029998779" lon="-0.627458961680532">
        <ele>12.630000000000001</ele>
        <time>2018-07-04T08:13:05Z</time>
      </trkpt>
      <trkpt lat="49.338155994191766" lon="-0.627817958593369">
        <ele>13.119999999999999</ele>
        <time>2018-07-04T08:13:07Z</time>
      </trkpt>
      <trkpt lat="49.33833796530962" lon="-0.62949500977993">
        <ele>15.039999999999999</ele>
        <time>2018-07-04T08:13:17Z</time>
      </trkpt>
      <trkpt lat="49.338399991393089" lon="-0.6301199644804">
        <ele>17.920000000000002</ele>
        <time>2018-07-04T08:13:25Z</time>
      </trkpt>
      <trkpt lat="49.338407032191753" lon="-0.630186013877392">
        <ele>19.359999999999999</ele>
        <time>2018-07-04T08:13:30Z</time>
      </trkpt>
      <trkpt lat="49.338414994999766" lon="-0.630264971405268">
        <ele>19.359999999999999</ele>
        <time>2018-07-04T08:13:31Z</time>
      </trkpt>
      <trkpt lat="49.338428992778063" lon="-0.630430011078715">
        <ele>20.32</ele>
        <time>2018-07-04T08:13:33Z</time>
      </trkpt>
      <trkpt lat="49.338433016091585" lon="-0.630487008020282">
        <ele>20.809999999999999</ele>
        <time>2018-07-04T08:13:34Z</time>
      </trkpt>
      <trkpt lat="49.338437039405107" lon="-0.630531013011932">
        <ele>21.289999999999999</ele>
        <time>2018-07-04T08:13:35Z</time>
      </trkpt>
      <trkpt lat="49.338439973071218" lon="-0.630564037710428">
        <ele>22.25</ele>
        <time>2018-07-04T08:13:44Z</time>
      </trkpt>
    </trkseg>
  </trk>

  <trk>
    <name>Track vom: 2018-07-04 10:14</name>
    <extensions>
      <gpxx:TrackExtension>
        <gpxx:DisplayColor>DarkGray</gpxx:DisplayColor>
      </gpxx:TrackExtension>
    </extensions>
    <trkseg>
      <trkpt lat="49.338439973071218" lon="-0.630564037710428">
        <ele>22.25</ele>
        <time>2018-07-04T08:14:14Z</time>
      </trkpt>
      <trkpt lat="49.338440978899598" lon="-0.630579041317105">
        <ele>22.73</ele>
        <time>2018-07-04T08:14:22Z</time>
      </trkpt>
      <trkpt lat="49.33844399638474" lon="-0.630616005510092">
        <ele>23.690000000000001</ele>
        <time>2018-07-04T08:14:23Z</time>
      </trkpt>
      <trkpt lat="49.338347017765045" lon="-0.630579041317105">
        <ele>24.170000000000002</ele>
        <time>2018-07-04T08:14:24Z</time>
      </trkpt>
      <trkpt lat="49.338341988623142" lon="-0.630597984418273">
        <ele>24.649999999999999</ele>
        <time>2018-07-04T08:14:25Z</time>
      </trkpt>
      <trkpt lat="49.33833603747189" lon="-0.630620028823614">
        <ele>24.649999999999999</ele>
        <time>2018-07-04T08:14:26Z</time>
      </trkpt>
      <trkpt lat="49.338324973359704" lon="-0.630657998844981">
        <ele>24.649999999999999</ele>
        <time>2018-07-04T08:14:27Z</time>
      </trkpt>
      <trkpt lat="49.338307036086917" lon="-0.630722958594561">
        <ele>24.649999999999999</ele>
        <time>2018-07-04T08:14:28Z</time>
      </trkpt>
      <trkpt lat="49.338269988074899" lon="-0.630855979397893">
        <ele>24.649999999999999</ele>
        <time>2018-07-04T08:14:29Z</time>
      </trkpt>
      <trkpt lat="49.337747041136026" lon="-0.631527034565806">
        <ele>28.02</ele>
        <time>2018-07-04T08:14:36Z</time>
      </trkpt>
      <trkpt lat="49.336705002933741" lon="-0.632707038894296">
        <ele>36.670000000000002</ele>
        <time>2018-07-04T08:14:45Z</time>
      </trkpt>
      <trkpt lat="49.335455009713769" lon="-0.634520966559649">
        <ele>51.57</ele>
        <time>2018-07-04T08:14:57Z</time>
      </trkpt>
      <trkpt lat="49.334429986774921" lon="-0.635671969503164">
        <ele>56.369999999999997</ele>
        <time>2018-07-04T08:15:07Z</time>
      </trkpt>
      <trkpt lat="49.33436100371182" lon="-0.635728966444731">
        <ele>56.859999999999999</ele>
        <time>2018-07-04T08:15:08Z</time>
      </trkpt>
      <trkpt lat="49.334301995113492" lon="-0.635778000578284">
        <ele>56.859999999999999</ele>
        <time>2018-07-04T08:15:09Z</time>
      </trkpt>
      <trkpt lat="49.334250027313828" lon="-0.635822005569935">
        <ele>57.340000000000003</ele>
        <time>2018-07-04T08:15:10Z</time>
      </trkpt>
      <trkpt lat="49.334236029535532" lon="-0.63600498251617">
        <ele>57.340000000000003</ele>
        <time>2018-07-04T08:15:11Z</time>
      </trkpt>
      <trkpt lat="49.334209961816669" lon="-0.636044964194298">
        <ele>57.82</ele>
        <time>2018-07-04T08:15:12Z</time>
      </trkpt>
      <trkpt lat="49.334165034815669" lon="-0.63611201941967">
        <ele>57.82</ele>
        <time>2018-07-04T08:15:13Z</time>
      </trkpt>
      <trkpt lat="49.334065038710833" lon="-0.63613398000598">
        <ele>57.82</ele>
        <time>2018-07-04T08:15:14Z</time>
      </trkpt>
      <trkpt lat="49.334042994305491" lon="-0.63613398000598">
        <ele>58.299999999999997</ele>
        <time>2018-07-04T08:15:15Z</time>
      </trkpt>
      <trkpt lat="49.333884995430708" lon="-0.636072037741542">
        <ele>58.299999999999997</ele>
        <time>2018-07-04T08:15:16Z</time>
      </trkpt>
      <trkpt lat="49.333787010982633" lon="-0.636132974177599">
        <ele>58.299999999999997</ele>
        <time>2018-07-04T08:15:17Z</time>
      </trkpt>
      <trkpt lat="49.332954017445445" lon="-0.636876029893756">
        <ele>58.780000000000001</ele>
        <time>2018-07-04T08:15:24Z</time>
      </trkpt>
      <trkpt lat="49.332613041624427" lon="-0.637428984045982">
        <ele>58.780000000000001</ele>
        <time>2018-07-04T08:15:27Z</time>
      </trkpt>
      <trkpt lat="49.332526037469506" lon="-0.63765998929739">
        <ele>59.259999999999998</ele>
        <time>2018-07-04T08:15:28Z</time>
      </trkpt>
      <trkpt lat="49.332438027486205" lon="-0.637896023690701">
        <ele>59.259999999999998</ele>
        <time>2018-07-04T08:15:29Z</time>
      </trkpt>
      <trkpt lat="49.33217098005116" lon="-0.638581998646259">
        <ele>59.740000000000002</ele>
        <time>2018-07-04T08:15:32Z</time>
      </trkpt>
      <trkpt lat="49.332068972289562" lon="-0.638750977814198">
        <ele>59.740000000000002</ele>
        <time>2018-07-04T08:15:33Z</time>
      </trkpt>
      <trkpt lat="49.331939974799752" lon="-0.638850973919034">
        <ele>59.740000000000002</ele>
        <time>2018-07-04T08:15:34Z</time>
      </trkpt>
      <trkpt lat="49.331803014501929" lon="-0.638954993337393">
        <ele>60.219999999999999</ele>
        <time>2018-07-04T08:15:35Z</time>
      </trkpt>
      <trkpt lat="49.331663036718965" lon="-0.639062030240893">
        <ele>60.219999999999999</ele>
        <time>2018-07-04T08:15:36Z</time>
      </trkpt>
      <trkpt lat="49.330599959939718" lon="-0.640054028481245">
        <ele>60.219999999999999</ele>
        <time>2018-07-04T08:15:44Z</time>
      </trkpt>
      <trkpt lat="49.330518990755081" lon="-0.640186965465546">
        <ele>60.700000000000003</ele>
        <time>2018-07-04T08:15:45Z</time>
      </trkpt>
      <trkpt lat="49.330065026879311" lon="-0.641244007274508">
        <ele>60.700000000000003</ele>
        <time>2018-07-04T08:15:52Z</time>
      </trkpt>
      <trkpt lat="49.329792028293014" lon="-0.641926964744926">
        <ele>58.780000000000001</ele>
        <time>2018-07-04T08:15:56Z</time>
      </trkpt>
      <trkpt lat="49.329705024138093" lon="-0.642093010246754">
        <ele>58.299999999999997</ele>
        <time>2018-07-04T08:15:57Z</time>
      </trkpt>
      <trkpt lat="49.329612990841269" lon="-0.642267018556595">
        <ele>57.82</ele>
        <time>2018-07-04T08:15:58Z</time>
      </trkpt>
      <trkpt lat="49.329520035535097" lon="-0.642443960532546">
        <ele>57.82</ele>
        <time>2018-07-04T08:15:59Z</time>
      </trkpt>
      <trkpt lat="49.329426996409893" lon="-0.642620986327529">
        <ele>57.340000000000003</ele>
        <time>2018-07-04T08:16:00Z</time>
      </trkpt>
      <trkpt lat="49.328282028436661" lon="-0.644498029723763">
        <ele>56.369999999999997</ele>
        <time>2018-07-04T08:16:11Z</time>
      </trkpt>
      <trkpt lat="49.326796000823379" lon="-0.646858038380742">
        <ele>56.859999999999999</ele>
        <time>2018-07-04T08:16:24Z</time>
      </trkpt>
      <trkpt lat="49.325913973152637" lon="-0.648179026320577">
        <ele>58.780000000000001</ele>
        <time>2018-07-04T08:16:33Z</time>
      </trkpt>
      <trkpt lat="49.325678022578359" lon="-0.648374995216727">
        <ele>59.740000000000002</ele>
        <time>2018-07-04T08:16:35Z</time>
      </trkpt>
      <trkpt lat="49.324548980221152" lon="-0.649504037573934">
        <ele>61.18</ele>
        <time>2018-07-04T08:16:44Z</time>
      </trkpt>
      <trkpt lat="49.323883038014174" lon="-0.650638025254011">
        <ele>61.18</ele>
        <time>2018-07-04T08:16:51Z</time>
      </trkpt>
      <trkpt lat="49.323807014152408" lon="-0.650789989158511">
        <ele>61.18</ele>
        <time>2018-07-04T08:16:52Z</time>
      </trkpt>
      <trkpt lat="49.323738031089306" lon="-0.650946982204914">
        <ele>60.700000000000003</ele>
        <time>2018-07-04T08:16:53Z</time>
      </trkpt>
      <trkpt lat="49.323671981692314" lon="-0.651098024100065">
        <ele>60.700000000000003</ele>
        <time>2018-07-04T08:16:54Z</time>
      </trkpt>
      <trkpt lat="49.323570979759097" lon="-0.651326011866331">
        <ele>60.219999999999999</ele>
        <time>2018-07-04T08:16:55Z</time>
      </trkpt>
      <trkpt lat="49.323478024452925" lon="-0.651440005749464">
        <ele>60.219999999999999</ele>
        <time>2018-07-04T08:16:56Z</time>
      </trkpt>
      <trkpt lat="49.323384985327721" lon="-0.651553999632597">
        <ele>60.219999999999999</ele>
        <time>2018-07-04T08:16:57Z</time>
      </trkpt>
      <trkpt lat="49.323234027251601" lon="-0.651658019050956">
        <ele>60.219999999999999</ele>
        <time>2018-07-04T08:16:58Z</time>
      </trkpt>
      <trkpt lat="49.323121039196849" lon="-0.65173395909369">
        <ele>60.219999999999999</ele>
        <time>2018-07-04T08:16:59Z</time>
      </trkpt>
      <trkpt lat="49.323062030598521" lon="-0.65179699100554">
        <ele>60.219999999999999</ele>
        <time>2018-07-04T08:17:00Z</time>
      </trkpt>
      <trkpt lat="49.322776962071657" lon="-0.65209899097681">
        <ele>60.700000000000003</ele>
        <time>2018-07-04T08:17:03Z</time>
      </trkpt>
      <trkpt lat="49.322647964581847" lon="-0.652407025918365">
        <ele>60.700000000000003</ele>
        <time>2018-07-04T08:17:05Z</time>
      </trkpt>
      <trkpt lat="49.32258602231741" lon="-0.65259100869298">
        <ele>60.700000000000003</ele>
        <time>2018-07-04T08:17:06Z</time>
      </trkpt>
      <trkpt lat="49.322542017325759" lon="-0.652778008952737">
        <ele>60.700000000000003</ele>
        <time>2018-07-04T08:17:07Z</time>
      </trkpt>
      <trkpt lat="49.322498012334108" lon="-0.652967020869255">
        <ele>60.700000000000003</ele>
        <time>2018-07-04T08:17:08Z</time>
      </trkpt>
      <trkpt lat="49.322456018999219" lon="-0.65314999781549">
        <ele>60.700000000000003</ele>
        <time>2018-07-04T08:17:09Z</time>
      </trkpt>
      <trkpt lat="49.321913039311767" lon="-0.655387965962291">
        <ele>62.619999999999997</ele>
        <time>2018-07-04T08:17:20Z</time>
      </trkpt>
      <trkpt lat="49.321804996579885" lon="-0.65602800808847">
        <ele>63.100000000000001</ele>
        <time>2018-07-04T08:17:23Z</time>
      </trkpt>
      <trkpt lat="49.32176903821528" lon="-0.656239986419678">
        <ele>63.579999999999998</ele>
        <time>2018-07-04T08:17:24Z</time>
      </trkpt>
      <trkpt lat="49.32170600630343" lon="-0.65643603913486">
        <ele>64.069999999999993</ele>
        <time>2018-07-04T08:17:25Z</time>
      </trkpt>
      <trkpt lat="49.321344997733831" lon="-0.657863980159163">
        <ele>65.510000000000005</ele>
        <time>2018-07-04T08:17:33Z</time>
      </trkpt>
      <trkpt lat="49.321270985528827" lon="-0.658185007050633">
        <ele>65.989999999999995</ele>
        <time>2018-07-04T08:17:35Z</time>
      </trkpt>
      <trkpt lat="49.321223041042686" lon="-0.65832800231874">
        <ele>66.469999999999999</ele>
        <time>2018-07-04T08:17:36Z</time>
      </trkpt>
      <trkpt lat="49.321178030222654" lon="-0.658463034778833">
        <ele>65.989999999999995</ele>
        <time>2018-07-04T08:17:37Z</time>
      </trkpt>
      <trkpt lat="49.321111980825663" lon="-0.65856596454978">
        <ele>65.989999999999995</ele>
        <time>2018-07-04T08:17:38Z</time>
      </trkpt>
      <trkpt lat="49.3210409861058" lon="-0.658657997846603">
        <ele>66.469999999999999</ele>
        <time>2018-07-04T08:17:39Z</time>
      </trkpt>
      <trkpt lat="49.320970997214317" lon="-0.658749025315046">
        <ele>66.469999999999999</ele>
        <time>2018-07-04T08:17:40Z</time>
      </trkpt>
      <trkpt lat="49.320894973352551" lon="-0.658819014206529">
        <ele>66.469999999999999</ele>
        <time>2018-07-04T08:17:41Z</time>
      </trkpt>
      <trkpt lat="49.320806041359901" lon="-0.658891014754772">
        <ele>66.469999999999999</ele>
        <time>2018-07-04T08:17:42Z</time>
      </trkpt>
      <trkpt lat="49.320711996406317" lon="-0.658967038616538">
        <ele>66.950000000000003</ele>
        <time>2018-07-04T08:17:43Z</time>
      </trkpt>
      <trkpt lat="49.319781018421054" lon="-0.659739011898637">
        <ele>65.989999999999995</ele>
        <time>2018-07-04T08:17:51Z</time>
      </trkpt>
      <trkpt lat="49.318845011293888" lon="-0.660983975976706">
        <ele>63.579999999999998</ele>
        <time>2018-07-04T08:17:59Z</time>
      </trkpt>
      <trkpt lat="49.317554030567408" lon="-0.662865964695811">
        <ele>60.219999999999999</ele>
        <time>2018-07-04T08:18:09Z</time>
      </trkpt>
      <trkpt lat="49.315460985526443" lon="-0.665968023240566">
        <ele>59.740000000000002</ele>
        <time>2018-07-04T08:18:24Z</time>
      </trkpt>
      <trkpt lat="49.313681004568934" lon="-0.66874897107482">
        <ele>57.340000000000003</ele>
        <time>2018-07-04T08:18:37Z</time>
      </trkpt>
      <trkpt lat="49.313419992104173" lon="-0.669063962996006">
        <ele>57.340000000000003</ele>
        <time>2018-07-04T08:18:39Z</time>
      </trkpt>
      <trkpt lat="49.313280014321208" lon="-0.669212993234396">
        <ele>57.340000000000003</ele>
        <time>2018-07-04T08:18:40Z</time>
      </trkpt>
      <trkpt lat="49.311915021389723" lon="-0.670457035303116">
        <ele>54.450000000000003</ele>
        <time>2018-07-04T08:18:49Z</time>
      </trkpt>
      <trkpt lat="49.310197988525033" lon="-0.672903964295983">
        <ele>50.609999999999999</ele>
        <time>2018-07-04T08:19:01Z</time>
      </trkpt>
      <trkpt lat="49.308254979550838" lon="-0.675246035680175">
        <ele>50.130000000000003</ele>
        <time>2018-07-04T08:19:15Z</time>
      </trkpt>
      <trkpt lat="49.306726958602667" lon="-0.676865000277758">
        <ele>51.57</ele>
        <time>2018-07-04T08:19:25Z</time>
      </trkpt>
      <trkpt lat="49.305705958977342" lon="-0.678686974570155">
        <ele>50.609999999999999</ele>
        <time>2018-07-04T08:19:33Z</time>
      </trkpt>
      <trkpt lat="49.30473399348557" lon="-0.680289007723331">
        <ele>51.090000000000003</ele>
        <time>2018-07-04T08:19:40Z</time>
      </trkpt>
      <trkpt lat="49.303503027185798" lon="-0.681526008993387">
        <ele>53.490000000000002</ele>
        <time>2018-07-04T08:19:49Z</time>
      </trkpt>
      <trkpt lat="49.302381025627255" lon="-0.682825036346912">
        <ele>52.049999999999997</ele>
        <time>2018-07-04T08:19:58Z</time>
      </trkpt>
      <trkpt lat="49.300958029925823" lon="-0.684663020074368">
        <ele>53.490000000000002</ele>
        <time>2018-07-04T08:20:08Z</time>
      </trkpt>
      <trkpt lat="49.299473008140922" lon="-0.685736993327737">
        <ele>50.130000000000003</ele>
        <time>2018-07-04T08:20:16Z</time>
      </trkpt>
      <trkpt lat="49.297954039648175" lon="-0.687051024287939">
        <ele>40.509999999999998</ele>
        <time>2018-07-04T08:20:25Z</time>
      </trkpt>
      <trkpt lat="49.296549987047911" lon="-0.688597988337278">
        <ele>38.109999999999999</ele>
        <time>2018-07-04T08:20:33Z</time>
      </trkpt>
      <trkpt lat="49.294690964743495" lon="-0.68982501514256">
        <ele>37.149999999999999</ele>
        <time>2018-07-04T08:20:43Z</time>
      </trkpt>
      <trkpt lat="49.293222036212683" lon="-0.690008997917175">
        <ele>38.109999999999999</ele>
        <time>2018-07-04T08:20:50Z</time>
      </trkpt>
      <trkpt lat="49.291183976456523" lon="-0.690094996243715">
        <ele>40.990000000000002</ele>
        <time>2018-07-04T08:21:00Z</time>
      </trkpt>
      <trkpt lat="49.290055017918348" lon="-0.690453993156552">
        <ele>40.030000000000001</ele>
        <time>2018-07-04T08:21:08Z</time>
      </trkpt>
      <trkpt lat="49.288831008598208" lon="-0.691077020019293">
        <ele>37.630000000000003</ele>
        <time>2018-07-04T08:21:19Z</time>
      </trkpt>
      <trkpt lat="49.287337018176913" lon="-0.691682025790215">
        <ele>37.149999999999999</ele>
        <time>2018-07-04T08:21:32Z</time>
      </trkpt>
      <trkpt lat="49.285618979483843" lon="-0.692306980490685">
        <ele>34.259999999999998</ele>
        <time>2018-07-04T08:21:47Z</time>
      </trkpt>
      <trkpt lat="49.284678027033806" lon="-0.692634964361787">
        <ele>37.630000000000003</ele>
        <time>2018-07-04T08:21:56Z</time>
      </trkpt>
      <trkpt lat="49.284579958766699" lon="-0.692672012373805">
        <ele>39.549999999999997</ele>
        <time>2018-07-04T08:22:02Z</time>
      </trkpt>
      <trkpt lat="49.284537965431809" lon="-0.692687015980482">
        <ele>40.509999999999998</ele>
        <time>2018-07-04T08:22:28Z</time>
      </trkpt>
      <trkpt lat="49.284440986812115" lon="-0.6927689909935">
        <ele>40.990000000000002</ele>
        <time>2018-07-04T08:22:32Z</time>
      </trkpt>
      <trkpt lat="49.28440704010427" lon="-0.692906035110354">
        <ele>40.509999999999998</ele>
        <time>2018-07-04T08:22:34Z</time>
      </trkpt>
      <trkpt lat="49.284335039556026" lon="-0.69298499263823">
        <ele>40.509999999999998</ele>
        <time>2018-07-04T08:22:35Z</time>
      </trkpt>
      <trkpt lat="49.284276030957699" lon="-0.692993961274624">
        <ele>40.509999999999998</ele>
        <time>2018-07-04T08:22:36Z</time>
      </trkpt>
      <trkpt lat="49.284261027351022" lon="-0.692996978759766">
        <ele>40.990000000000002</ele>
        <time>2018-07-04T08:22:37Z</time>
      </trkpt>
      <trkpt lat="49.284176034852862" lon="-0.692894970998168">
        <ele>40.990000000000002</ele>
        <time>2018-07-04T08:22:38Z</time>
      </trkpt>
      <trkpt lat="49.284153990447521" lon="-0.692867981269956">
        <ele>40.990000000000002</ele>
        <time>2018-07-04T08:22:39Z</time>
      </trkpt>
      <trkpt lat="49.284153990447521" lon="-0.692867981269956">
        <ele>40.990000000000002</ele>
        <time>2018-07-04T08:22:40Z</time>
      </trkpt>
      <trkpt lat="49.283956009894609" lon="-0.693141985684633">
        <ele>41.950000000000003</ele>
        <time>2018-07-04T08:22:46Z</time>
      </trkpt>
      <trkpt lat="49.283964978531003" lon="-0.693003013730049">
        <ele>42.439999999999998</ele>
        <time>2018-07-04T08:22:51Z</time>
      </trkpt>
      <trkpt lat="49.284110991284251" lon="-0.692738983780146">
        <ele>42.439999999999998</ele>
        <time>2018-07-04T08:22:55Z</time>
      </trkpt>
      <trkpt lat="49.28410897962749" lon="-0.692717023193836">
        <ele>42.439999999999998</ele>
        <time>2018-07-04T08:22:56Z</time>
      </trkpt>
      <trkpt lat="49.284102022647858" lon="-0.692635970190167">
        <ele>42.439999999999998</ele>
        <time>2018-07-04T08:22:57Z</time>
      </trkpt>
      <trkpt lat="49.284094981849194" lon="-0.692550977692008">
        <ele>41.950000000000003</ele>
        <time>2018-07-04T08:22:58Z</time>
      </trkpt>
      <trkpt lat="49.284064974635839" lon="-0.692432960495353">
        <ele>41.950000000000003</ele>
        <time>2018-07-04T08:22:59Z</time>
      </trkpt>
      <trkpt lat="49.284019041806459" lon="-0.692341011017561">
        <ele>41.950000000000003</ele>
        <time>2018-07-04T08:23:00Z</time>
      </trkpt>
      <trkpt lat="49.283913010731339" lon="-0.692264987155795">
        <ele>41.950000000000003</ele>
        <time>2018-07-04T08:23:01Z</time>
      </trkpt>
      <trkpt lat="49.283827012404799" lon="-0.692221987992525">
        <ele>41.950000000000003</ele>
        <time>2018-07-04T08:23:02Z</time>
      </trkpt>
      <trkpt lat="49.283736990764737" lon="-0.692176977172494">
        <ele>42.439999999999998</ele>
        <time>2018-07-04T08:23:03Z</time>
      </trkpt>
      <trkpt lat="49.283642023801804" lon="-0.692130038514733">
        <ele>42.439999999999998</ele>
        <time>2018-07-04T08:23:04Z</time>
      </trkpt>
      <trkpt lat="49.28322896361351" lon="-0.69199601188302">
        <ele>43.399999999999999</ele>
        <time>2018-07-04T08:23:08Z</time>
      </trkpt>
      <trkpt lat="49.283122010529041" lon="-0.691986959427595">
        <ele>43.880000000000003</ele>
        <time>2018-07-04T08:23:09Z</time>
      </trkpt>
      <trkpt lat="49.283017991110682" lon="-0.691977990791202">
        <ele>44.359999999999999</ele>
        <time>2018-07-04T08:23:10Z</time>
      </trkpt>
      <trkpt lat="49.282887987792492" lon="-0.691967010498047">
        <ele>44.359999999999999</ele>
        <time>2018-07-04T08:23:11Z</time>
      </trkpt>
      <trkpt lat="49.282830990850925" lon="-0.692014032974839">
        <ele>44.840000000000003</ele>
        <time>2018-07-04T08:23:12Z</time>
      </trkpt>
      <trkpt lat="49.282757984474301" lon="-0.692075975239277">
        <ele>44.840000000000003</ele>
        <time>2018-07-04T08:23:13Z</time>
      </trkpt>
      <trkpt lat="49.282684978097677" lon="-0.692136995494366">
        <ele>45.32</ele>
        <time>2018-07-04T08:23:14Z</time>
      </trkpt>
      <trkpt lat="49.282613983377814" lon="-0.692197009921074">
        <ele>45.799999999999997</ele>
        <time>2018-07-04T08:23:15Z</time>
      </trkpt>
      <trkpt lat="49.282280970364809" lon="-0.692451987415552">
        <ele>45.799999999999997</ele>
        <time>2018-07-04T08:23:20Z</time>
      </trkpt>
      <trkpt lat="49.282219028100371" lon="-0.692484006285667">
        <ele>45.799999999999997</ele>
        <time>2018-07-04T08:23:21Z</time>
      </trkpt>
      <trkpt lat="49.281367007642984" lon="-0.692717023193836">
        <ele>46.759999999999998</ele>
        <time>2018-07-04T08:23:32Z</time>
      </trkpt>
      <trkpt lat="49.281200040131807" lon="-0.692695984616876">
        <ele>47.240000000000002</ele>
        <time>2018-07-04T08:23:35Z</time>
      </trkpt>
      <trkpt lat="49.281161986291409" lon="-0.692691039294004">
        <ele>47.240000000000002</ele>
        <time>2018-07-04T08:23:36Z</time>
      </trkpt>
      <trkpt lat="49.281048998236656" lon="-0.692847026512027">
        <ele>47.719999999999999</ele>
        <time>2018-07-04T08:23:37Z</time>
      </trkpt>
      <trkpt lat="49.281052015721798" lon="-0.692902011796832">
        <ele>47.719999999999999</ele>
        <time>2018-07-04T08:23:38Z</time>
      </trkpt>
      <trkpt lat="49.28105503320694" lon="-0.692972000688314">
        <ele>47.719999999999999</ele>
        <time>2018-07-04T08:23:39Z</time>
      </trkpt>
      <trkpt lat="49.28105796687305" lon="-0.693059004843235">
        <ele>47.719999999999999</ele>
        <time>2018-07-04T08:23:40Z</time>
      </trkpt>
      <trkpt lat="49.281061990186572" lon="-0.69315598346293">
        <ele>47.240000000000002</ele>
        <time>2018-07-04T08:23:41Z</time>
      </trkpt>
      <trkpt lat="49.281072970479727" lon="-0.693253967911005">
        <ele>47.240000000000002</ele>
        <time>2018-07-04T08:23:42Z</time>
      </trkpt>
      <trkpt lat="49.281086968258023" lon="-0.69334801286459">
        <ele>47.240000000000002</ele>
        <time>2018-07-04T08:23:43Z</time>
      </trkpt>
      <trkpt lat="49.2811019718647" lon="-0.693449014797807">
        <ele>47.240000000000002</ele>
        <time>2018-07-04T08:23:44Z</time>
      </trkpt>
      <trkpt lat="49.281117981299758" lon="-0.693557979539037">
        <ele>46.759999999999998</ele>
        <time>2018-07-04T08:23:45Z</time>
      </trkpt>
      <trkpt lat="49.281133990734816" lon="-0.69367197342217">
        <ele>46.280000000000001</ele>
        <time>2018-07-04T08:23:46Z</time>
      </trkpt>
      <trkpt lat="49.281151005998254" lon="-0.693787978962064">
        <ele>45.799999999999997</ele>
        <time>2018-07-04T08:23:47Z</time>
      </trkpt>
      <trkpt lat="49.281241027638316" lon="-0.694392984732986">
        <ele>42.439999999999998</ele>
        <time>2018-07-04T08:23:52Z</time>
      </trkpt>
      <trkpt lat="49.281258964911103" lon="-0.694521982222795">
        <ele>41.469999999999999</ele>
        <time>2018-07-04T08:23:53Z</time>
      </trkpt>
      <trkpt lat="49.281315039843321" lon="-0.694901011884212">
        <ele>39.549999999999997</ele>
        <time>2018-07-04T08:23:56Z</time>
      </trkpt>
      <trkpt lat="49.281390979886055" lon="-0.69543301127851">
        <ele>37.630000000000003</ele>
        <time>2018-07-04T08:24:00Z</time>
      </trkpt>
      <trkpt lat="49.281433979049325" lon="-0.695864008739591">
        <ele>35.710000000000001</ele>
        <time>2018-07-04T08:24:03Z</time>
      </trkpt>
      <trkpt lat="49.28146599791944" lon="-0.696268016472459">
        <ele>34.740000000000002</ele>
        <time>2018-07-04T08:24:06Z</time>
      </trkpt>
      <trkpt lat="49.281475972384214" lon="-0.696391984820366">
        <ele>34.259999999999998</ele>
        <time>2018-07-04T08:24:07Z</time>
      </trkpt>
      <trkpt lat="49.281481001526117" lon="-0.696877967566252">
        <ele>32.82</ele>
        <time>2018-07-04T08:24:11Z</time>
      </trkpt>
      <trkpt lat="49.281476978212595" lon="-0.697003025561571">
        <ele>32.82</ele>
        <time>2018-07-04T08:24:12Z</time>
      </trkpt>
      <trkpt lat="49.281472032889724" lon="-0.697127999737859">
        <ele>32.82</ele>
        <time>2018-07-04T08:24:13Z</time>
      </trkpt>
      <trkpt lat="49.281452000141144" lon="-0.697246016934514">
        <ele>32.82</ele>
        <time>2018-07-04T08:24:14Z</time>
      </trkpt>
      <trkpt lat="49.281430961564183" lon="-0.697365961968899">
        <ele>33.299999999999997</ele>
        <time>2018-07-04T08:24:15Z</time>
      </trkpt>
      <trkpt lat="49.281410006806254" lon="-0.697483979165554">
        <ele>32.82</ele>
        <time>2018-07-04T08:24:16Z</time>
      </trkpt>
      <trkpt lat="49.281373964622617" lon="-0.697592021897435">
        <ele>32.82</ele>
        <time>2018-07-04T08:24:17Z</time>
      </trkpt>
      <trkpt lat="49.280961994081736" lon="-0.698756016790867">
        <ele>33.299999999999997</ele>
        <time>2018-07-04T08:24:28Z</time>
      </trkpt>
      <trkpt lat="49.280936010181904" lon="-0.698904963210225">
        <ele>34.259999999999998</ele>
        <time>2018-07-04T08:24:34Z</time>
      </trkpt>
      <trkpt lat="49.280936010181904" lon="-0.698904963210225">
        <ele>34.740000000000002</ele>
        <time>2018-07-04T08:24:36Z</time>
      </trkpt>
      <trkpt lat="49.280936010181904" lon="-0.698904963210225">
        <ele>34.740000000000002</ele>
        <time>2018-07-04T08:24:37Z</time>
      </trkpt>
      <trkpt lat="49.280936010181904" lon="-0.698904963210225">
        <ele>34.740000000000002</ele>
        <time>2018-07-04T08:24:38Z</time>
      </trkpt>
      <trkpt lat="49.280931986868382" lon="-0.698930025100708">
        <ele>34.740000000000002</ele>
        <time>2018-07-04T08:24:39Z</time>
      </trkpt>
      <trkpt lat="49.280936010181904" lon="-0.698906974866986">
        <ele>34.740000000000002</ele>
        <time>2018-07-04T08:24:40Z</time>
      </trkpt>
      <trkpt lat="49.280941961333156" lon="-0.698875039815903">
        <ele>34.740000000000002</ele>
        <time>2018-07-04T08:24:41Z</time>
      </trkpt>
      <trkpt lat="49.280954031273723" lon="-0.698799015954137">
        <ele>34.740000000000002</ele>
        <time>2018-07-04T08:24:43Z</time>
      </trkpt>
      <trkpt lat="49.280888987705112" lon="-0.698705976828933">
        <ele>34.259999999999998</ele>
        <time>2018-07-04T08:24:44Z</time>
      </trkpt>
      <trkpt lat="49.280867027118802" lon="-0.698717040941119">
        <ele>34.259999999999998</ele>
        <time>2018-07-04T08:24:45Z</time>
      </trkpt>
      <trkpt lat="49.280835008248687" lon="-0.698732966557145">
        <ele>34.259999999999998</ele>
        <time>2018-07-04T08:24:46Z</time>
      </trkpt>
      <trkpt lat="49.280797960236669" lon="-0.698750987648964">
        <ele>34.259999999999998</ele>
        <time>2018-07-04T08:24:47Z</time>
      </trkpt>
      <trkpt lat="49.280758984386921" lon="-0.698765991255641">
        <ele>34.259999999999998</ele>
        <time>2018-07-04T08:24:48Z</time>
      </trkpt>
      <trkpt lat="49.280716991052032" lon="-0.698783006519079">
        <ele>33.780000000000001</ele>
        <time>2018-07-04T08:24:49Z</time>
      </trkpt>
      <trkpt lat="49.280501995235682" lon="-0.698869004845619">
        <ele>33.780000000000001</ele>
        <time>2018-07-04T08:24:53Z</time>
      </trkpt>
      <trkpt lat="49.28017501719296" lon="-0.699030021205544">
        <ele>32.82</ele>
        <time>2018-07-04T08:24:59Z</time>
      </trkpt>
      <trkpt lat="49.28013302385807" lon="-0.699048964306712">
        <ele>32.340000000000003</ele>
        <time>2018-07-04T08:25:00Z</time>
      </trkpt>
      <trkpt lat="49.280094970017672" lon="-0.69906497374177">
        <ele>32.340000000000003</ele>
        <time>2018-07-04T08:25:01Z</time>
      </trkpt>
      <trkpt lat="49.279805961996317" lon="-0.699220038950443">
        <ele>29.940000000000001</ele>
        <time>2018-07-04T08:25:08Z</time>
      </trkpt>
      <trkpt lat="49.279756005853415" lon="-0.699243005365133">
        <ele>29.940000000000001</ele>
        <time>2018-07-04T08:25:09Z</time>
      </trkpt>
      <trkpt lat="49.279706971719861" lon="-0.699265971779823">
        <ele>29.460000000000001</ele>
        <time>2018-07-04T08:25:10Z</time>
      </trkpt>
      <trkpt lat="49.279560036957264" lon="-0.699337972328067">
        <ele>28.5</ele>
        <time>2018-07-04T08:25:13Z</time>
      </trkpt>
      <trkpt lat="49.279370019212365" lon="-0.699433023110032">
        <ele>27.050000000000001</ele>
        <time>2018-07-04T08:25:17Z</time>
      </trkpt>
      <trkpt lat="49.279331965371966" lon="-0.699450960382819">
        <ele>27.050000000000001</ele>
        <time>2018-07-04T08:25:18Z</time>
      </trkpt>
      <trkpt lat="49.279214031994343" lon="-0.699506029486656">
        <ele>26.57</ele>
        <time>2018-07-04T08:25:27Z</time>
      </trkpt>
      <trkpt lat="49.279193999245763" lon="-0.69951499812305">
        <ele>26.57</ele>
        <time>2018-07-04T08:26:00Z</time>
      </trkpt>
      <trkpt lat="49.279177989810705" lon="-0.699522038921714">
        <ele>26.57</ele>
        <time>2018-07-04T08:26:01Z</time>
      </trkpt>
      <trkpt lat="49.279116969555616" lon="-0.699650030583143">
        <ele>27.050000000000001</ele>
        <time>2018-07-04T08:26:02Z</time>
      </trkpt>
      <trkpt lat="49.279133984819055" lon="-0.699717001989484">
        <ele>27.530000000000001</ele>
        <time>2018-07-04T08:26:03Z</time>
      </trkpt>
      <trkpt lat="49.279158040881157" lon="-0.699808029457927">
        <ele>28.02</ele>
        <time>2018-07-04T08:26:04Z</time>
      </trkpt>
      <trkpt lat="49.279183018952608" lon="-0.699906013906002">
        <ele>28.98</ele>
        <time>2018-07-04T08:26:05Z</time>
      </trkpt>
      <trkpt lat="49.279207997024059" lon="-0.700002992525697">
        <ele>29.940000000000001</ele>
        <time>2018-07-04T08:26:06Z</time>
      </trkpt>
      <trkpt lat="49.279373958706856" lon="-0.701096998527646">
        <ele>37.149999999999999</ele>
        <time>2018-07-04T08:26:15Z</time>
      </trkpt>
      <trkpt lat="49.279390973970294" lon="-0.701228007674217">
        <ele>37.630000000000003</ele>
        <time>2018-07-04T08:26:16Z</time>
      </trkpt>
      <trkpt lat="49.279475966468453" lon="-0.701982965692878">
        <ele>42.439999999999998</ele>
        <time>2018-07-04T08:26:24Z</time>
      </trkpt>
      <trkpt lat="49.279500022530556" lon="-0.702206008136272">
        <ele>44.359999999999999</ele>
        <time>2018-07-04T08:26:33Z</time>
      </trkpt>
      <trkpt lat="49.279504967853427" lon="-0.702253030613065">
        <ele>44.359999999999999</ele>
        <time>2018-07-04T08:27:24Z</time>
      </trkpt>
      <trkpt lat="49.27951100282371" lon="-0.702304998412728">
        <ele>44.840000000000003</ele>
        <time>2018-07-04T08:27:25Z</time>
      </trkpt>
      <trkpt lat="49.279518965631723" lon="-0.70237398147583">
        <ele>45.32</ele>
        <time>2018-07-04T08:27:26Z</time>
      </trkpt>
      <trkpt lat="49.27948803640902" lon="-0.702470038086176">
        <ele>45.32</ele>
        <time>2018-07-04T08:27:27Z</time>
      </trkpt>
      <trkpt lat="49.27942399866879" lon="-0.702508008107543">
        <ele>45.32</ele>
        <time>2018-07-04T08:27:28Z</time>
      </trkpt>
      <trkpt lat="49.279359960928559" lon="-0.70254597812891">
        <ele>45.32</ele>
        <time>2018-07-04T08:27:29Z</time>
      </trkpt>
      <trkpt lat="49.279094003140926" lon="-0.702710011973977">
        <ele>45.32</ele>
        <time>2018-07-04T08:27:34Z</time>
      </trkpt>
      <trkpt lat="49.279047986492515" lon="-0.702739013358951">
        <ele>45.32</ele>
        <time>2018-07-04T08:27:35Z</time>
      </trkpt>
      <trkpt lat="49.278998030349612" lon="-0.702770026400685">
        <ele>45.32</ele>
        <time>2018-07-04T08:27:36Z</time>
      </trkpt>
      <trkpt lat="49.278943967074156" lon="-0.702802967280149">
        <ele>45.32</ele>
        <time>2018-07-04T08:27:37Z</time>
      </trkpt>
      <trkpt lat="49.278896022588015" lon="-0.702832974493504">
        <ele>45.32</ele>
        <time>2018-07-04T08:27:38Z</time>
      </trkpt>
      <trkpt lat="49.278853023424745" lon="-0.702859964221716">
        <ele>45.32</ele>
        <time>2018-07-04T08:27:39Z</time>
      </trkpt>
      <trkpt lat="49.278813963755965" lon="-0.702884020283818">
        <ele>45.32</ele>
        <time>2018-07-04T08:27:40Z</time>
      </trkpt>
      <trkpt lat="49.278686977922916" lon="-0.702961971983314">
        <ele>45.32</ele>
        <time>2018-07-04T08:27:43Z</time>
      </trkpt>
      <trkpt lat="49.278644984588027" lon="-0.702988039702177">
        <ele>45.32</ele>
        <time>2018-07-04T08:27:44Z</time>
      </trkpt>
      <trkpt lat="49.278399981558323" lon="-0.703146038576961">
        <ele>43.880000000000003</ele>
        <time>2018-07-04T08:27:53Z</time>
      </trkpt>
      <trkpt lat="49.278342984616756" lon="-0.703195994719863">
        <ele>42.920000000000002</ele>
        <time>2018-07-04T08:27:55Z</time>
      </trkpt>
      <trkpt lat="49.278313983231783" lon="-0.703219966962934">
        <ele>42.439999999999998</ele>
        <time>2018-07-04T08:27:56Z</time>
      </trkpt>
      <trkpt lat="49.278279030695558" lon="-0.703250980004668">
        <ele>41.950000000000003</ele>
        <time>2018-07-04T08:27:57Z</time>
      </trkpt>
      <trkpt lat="49.278191020712256" lon="-0.703327003866434">
        <ele>40.509999999999998</ele>
        <time>2018-07-04T08:28:00Z</time>
      </trkpt>
      <trkpt lat="49.278163025155663" lon="-0.703350976109505">
        <ele>39.07</ele>
        <time>2018-07-04T08:28:02Z</time>
      </trkpt>
      <trkpt lat="49.278055988252163" lon="-0.703443009406328">
        <ele>35.710000000000001</ele>
        <time>2018-07-04T08:28:13Z</time>
      </trkpt>
      <trkpt lat="49.27802799269557" lon="-0.703466981649399">
        <ele>35.229999999999997</ele>
        <time>2018-07-04T08:28:14Z</time>
      </trkpt>
      <trkpt lat="49.277767986059189" lon="-0.703751966357231">
        <ele>31.379999999999999</ele>
        <time>2018-07-04T08:28:24Z</time>
      </trkpt>
      <trkpt lat="49.277732027694583" lon="-0.703793959692121">
        <ele>29.940000000000001</ele>
        <time>2018-07-04T08:28:35Z</time>
      </trkpt>
      <trkpt lat="49.277674024924636" lon="-0.703864032402635">
        <ele>28.98</ele>
        <time>2018-07-04T08:28:45Z</time>
      </trkpt>
      <trkpt lat="49.277580985799432" lon="-0.703825978562236">
        <ele>28.5</ele>
        <time>2018-07-04T08:28:46Z</time>
      </trkpt>
      <trkpt lat="49.277571011334658" lon="-0.703780967742205">
        <ele>28.02</ele>
        <time>2018-07-04T08:28:47Z</time>
      </trkpt>
      <trkpt lat="49.277560031041503" lon="-0.703737968578935">
        <ele>27.530000000000001</ele>
        <time>2018-07-04T08:28:48Z</time>
      </trkpt>
      <trkpt lat="49.277550978586078" lon="-0.703696981072426">
        <ele>27.050000000000001</ele>
        <time>2018-07-04T08:28:49Z</time>
      </trkpt>
      <trkpt lat="49.277542009949684" lon="-0.703660016879439">
        <ele>26.57</ele>
        <time>2018-07-04T08:28:50Z</time>
      </trkpt>
      <trkpt lat="49.277381999418139" lon="-0.702992985025048">
        <ele>25.609999999999999</ele>
        <time>2018-07-04T08:29:06Z</time>
      </trkpt>
      <trkpt lat="49.277222994714975" lon="-0.702478000894189">
        <ele>31.859999999999999</ele>
        <time>2018-07-04T08:29:18Z</time>
      </trkpt>
      <trkpt lat="49.277115035802126" lon="-0.702121015638113">
        <ele>32.82</ele>
        <time>2018-07-04T08:29:31Z</time>
      </trkpt>
      <trkpt lat="49.277050998061895" lon="-0.702083967626095">
        <ele>33.299999999999997</ele>
        <time>2018-07-04T08:29:36Z</time>
      </trkpt>
      <trkpt lat="49.277032976970077" lon="-0.702096037566662">
        <ele>33.780000000000001</ele>
        <time>2018-07-04T08:29:37Z</time>
      </trkpt>
      <trkpt lat="49.277000958099961" lon="-0.702120009809732">
        <ele>33.780000000000001</ele>
        <time>2018-07-04T08:29:38Z</time>
      </trkpt>
      <trkpt lat="49.276959970593452" lon="-0.702150017023087">
        <ele>33.780000000000001</ele>
        <time>2018-07-04T08:29:39Z</time>
      </trkpt>
      <trkpt lat="49.276914959773421" lon="-0.702182035893202">
        <ele>34.259999999999998</ele>
        <time>2018-07-04T08:29:40Z</time>
      </trkpt>
      <trkpt lat="49.276791997253895" lon="-0.702271973714232">
        <ele>34.259999999999998</ele>
        <time>2018-07-04T08:29:43Z</time>
      </trkpt>
      <trkpt lat="49.276752015575767" lon="-0.702301980927587">
        <ele>34.259999999999998</ele>
        <time>2018-07-04T08:29:44Z</time>
      </trkpt>
      <trkpt lat="49.276590999215841" lon="-0.702418992295861">
        <ele>34.259999999999998</ele>
        <time>2018-07-04T08:29:48Z</time>
      </trkpt>
      <trkpt lat="49.276556968688965" lon="-0.702443970367312">
        <ele>33.780000000000001</ele>
        <time>2018-07-04T08:29:49Z</time>
      </trkpt>
      <trkpt lat="49.276525033637881" lon="-0.702467020601034">
        <ele>33.780000000000001</ele>
        <time>2018-07-04T08:29:50Z</time>
      </trkpt>
      <trkpt lat="49.276492008939385" lon="-0.702491998672485">
        <ele>33.780000000000001</ele>
        <time>2018-07-04T08:29:51Z</time>
      </trkpt>
      <trkpt lat="49.27645898424089" lon="-0.702514965087175">
        <ele>33.780000000000001</ele>
        <time>2018-07-04T08:29:52Z</time>
      </trkpt>
      <trkpt lat="49.276430988684297" lon="-0.702536003664136">
        <ele>33.780000000000001</ele>
        <time>2018-07-04T08:29:53Z</time>
      </trkpt>
      <trkpt lat="49.276403998956084" lon="-0.702556036412716">
        <ele>33.780000000000001</ele>
        <time>2018-07-04T08:29:54Z</time>
      </trkpt>
      <trkpt lat="49.276377009227872" lon="-0.702574979513884">
        <ele>33.780000000000001</ele>
        <time>2018-07-04T08:29:55Z</time>
      </trkpt>
      <trkpt lat="49.276112979277968" lon="-0.702761979773641">
        <ele>33.299999999999997</ele>
        <time>2018-07-04T08:30:05Z</time>
      </trkpt>
      <trkpt lat="49.276104010641575" lon="-0.702847978100181">
        <ele>34.259999999999998</ele>
        <time>2018-07-04T08:30:06Z</time>
      </trkpt>
      <trkpt lat="49.276119014248252" lon="-0.702903969213367">
        <ele>35.229999999999997</ele>
        <time>2018-07-04T08:30:07Z</time>
      </trkpt>
      <trkpt lat="49.2761389631778" lon="-0.702977981418371">
        <ele>36.189999999999998</ele>
        <time>2018-07-04T08:30:08Z</time>
      </trkpt>
      <trkpt lat="49.276157990098" lon="-0.703044030815363">
        <ele>36.189999999999998</ele>
        <time>2018-07-04T08:30:09Z</time>
      </trkpt>
      <trkpt lat="49.276177017018199" lon="-0.703116031363606">
        <ele>36.189999999999998</ele>
        <time>2018-07-04T08:30:10Z</time>
      </trkpt>
      <trkpt lat="49.276198977604508" lon="-0.703192977234721">
        <ele>36.670000000000002</ele>
        <time>2018-07-04T08:30:11Z</time>
      </trkpt>
      <trkpt lat="49.276218004524708" lon="-0.703264977782965">
        <ele>37.149999999999999</ele>
        <time>2018-07-04T08:30:12Z</time>
      </trkpt>
      <trkpt lat="49.276237031444907" lon="-0.703332033008337">
        <ele>38.109999999999999</ele>
        <time>2018-07-04T08:30:13Z</time>
      </trkpt>
      <trkpt lat="49.276253040879965" lon="-0.703391041606665">
        <ele>38.109999999999999</ele>
        <time>2018-07-04T08:30:14Z</time>
      </trkpt>
      <trkpt lat="49.276322023943067" lon="-0.703639984130859">
        <ele>40.509999999999998</ele>
        <time>2018-07-04T08:30:20Z</time>
      </trkpt>
      <trkpt lat="49.276302997022867" lon="-0.703660016879439">
        <ele>40.990000000000002</ele>
        <time>2018-07-04T08:30:21Z</time>
      </trkpt>
      <trkpt lat="49.276285981759429" lon="-0.703678037971258">
        <ele>41.469999999999999</ele>
        <time>2018-07-04T08:30:22Z</time>
      </trkpt>
      <trkpt lat="49.276285981759429" lon="-0.703678037971258">
        <ele>41.950000000000003</ele>
        <time>2018-07-04T08:30:23Z</time>
      </trkpt>
      <trkpt lat="49.276256980374455" lon="-0.703709973022342">
        <ele>42.439999999999998</ele>
        <time>2018-07-04T08:30:24Z</time>
      </trkpt>
      <trkpt lat="49.276238037273288" lon="-0.703731011599302">
        <ele>42.920000000000002</ele>
        <time>2018-07-04T08:30:25Z</time>
      </trkpt>
      <trkpt lat="49.276216998696327" lon="-0.703752972185612">
        <ele>42.920000000000002</ele>
        <time>2018-07-04T08:30:26Z</time>
      </trkpt>
      <trkpt lat="49.276196965947747" lon="-0.703775016590953">
        <ele>43.399999999999999</ele>
        <time>2018-07-04T08:30:27Z</time>
      </trkpt>
      <trkpt lat="49.276177017018199" lon="-0.703795971348882">
        <ele>43.880000000000003</ele>
        <time>2018-07-04T08:30:28Z</time>
      </trkpt>
      <trkpt lat="49.27615899592638" lon="-0.703816004097462">
        <ele>43.880000000000003</ele>
        <time>2018-07-04T08:30:29Z</time>
      </trkpt>
      <trkpt lat="49.276125971227884" lon="-0.703851962462068">
        <ele>43.399999999999999</ele>
        <time>2018-07-04T08:30:42Z</time>
      </trkpt>
      <trkpt lat="49.276064028963447" lon="-0.70391901768744">
        <ele>43.399999999999999</ele>
        <time>2018-07-04T08:30:44Z</time>
      </trkpt>
      <trkpt lat="49.27607299759984" lon="-0.703775016590953">
        <ele>42.439999999999998</ele>
        <time>2018-07-04T08:30:59Z</time>
      </trkpt>
      <trkpt lat="49.276062017306685" lon="-0.703754983842373">
        <ele>41.950000000000003</ele>
        <time>2018-07-04T08:31:57Z</time>
      </trkpt>
      <trkpt lat="49.276062017306685" lon="-0.703752972185612">
        <ele>41.950000000000003</ele>
        <time>2018-07-04T08:32:27Z</time>
      </trkpt>
      <trkpt lat="49.275992028415203" lon="-0.703873001039028">
        <ele>47.240000000000002</ele>
        <time>2018-07-04T08:32:40Z</time>
      </trkpt>
      <trkpt lat="49.275960009545088" lon="-0.703916000202298">
        <ele>47.719999999999999</ele>
        <time>2018-07-04T08:32:47Z</time>
      </trkpt>
      <trkpt lat="49.275926984846592" lon="-0.703971991315484">
        <ele>48.200000000000003</ele>
        <time>2018-07-04T08:32:49Z</time>
      </trkpt>
      <trkpt lat="49.27579496987164" lon="-0.704116998240352">
        <ele>47.719999999999999</ele>
        <time>2018-07-04T08:33:00Z</time>
      </trkpt>
      <trkpt lat="49.275721041485667" lon="-0.704197967424989">
        <ele>47.719999999999999</ele>
        <time>2018-07-04T08:33:01Z</time>
      </trkpt>
      <trkpt lat="49.275722969323397" lon="-0.704447999596596">
        <ele>47.240000000000002</ele>
        <time>2018-07-04T08:33:06Z</time>
      </trkpt>
      <trkpt lat="49.275710983201861" lon="-0.70422101765871">
        <ele>47.240000000000002</ele>
        <time>2018-07-04T08:33:07Z</time>
      </trkpt>
      <trkpt lat="49.275703020393848" lon="-0.704239960759878">
        <ele>47.240000000000002</ele>
        <time>2018-07-04T08:33:08Z</time>
      </trkpt>
      <trkpt lat="49.275703020393848" lon="-0.704239960759878">
        <ele>47.719999999999999</ele>
        <time>2018-07-04T08:33:22Z</time>
      </trkpt>
      <trkpt lat="49.275703020393848" lon="-0.704239960759878">
        <ele>47.719999999999999</ele>
        <time>2018-07-04T08:34:13Z</time>
      </trkpt>
      <trkpt lat="49.275703020393848" lon="-0.704239960759878">
        <ele>47.719999999999999</ele>
        <time>2018-07-04T08:34:18Z</time>
      </trkpt>
      <trkpt lat="49.27572900429368" lon="-0.704302992671728">
        <ele>50.609999999999999</ele>
        <time>2018-07-04T08:34:22Z</time>
      </trkpt>
      <trkpt lat="49.275694973766804" lon="-0.704327970743179">
        <ele>53.969999999999999</ele>
        <time>2018-07-04T08:34:27Z</time>
      </trkpt>
      <trkpt lat="49.275660021230578" lon="-0.704340040683746">
        <ele>54.450000000000003</ele>
        <time>2018-07-04T08:34:29Z</time>
      </trkpt>
      <trkpt lat="49.275606041774154" lon="-0.70447800680995">
        <ele>54.93</ele>
        <time>2018-07-04T08:34:32Z</time>
      </trkpt>
      <trkpt lat="49.27549296990037" lon="-0.704768020659685">
        <ele>55.890000000000001</ele>
        <time>2018-07-04T08:34:36Z</time>
      </trkpt>
      <trkpt lat="49.275462962687016" lon="-0.70484303869307">
        <ele>55.890000000000001</ele>
        <time>2018-07-04T08:34:37Z</time>
      </trkpt>
      <trkpt lat="49.275433961302042" lon="-0.704918978735805">
        <ele>55.890000000000001</ele>
        <time>2018-07-04T08:34:38Z</time>
      </trkpt>
      <trkpt lat="49.275376964360476" lon="-0.705062979832292">
        <ele>56.369999999999997</ele>
        <time>2018-07-04T08:34:40Z</time>
      </trkpt>
      <trkpt lat="49.275292977690697" lon="-0.705263977870345">
        <ele>56.369999999999997</ele>
        <time>2018-07-04T08:34:43Z</time>
      </trkpt>
      <trkpt lat="49.275263976305723" lon="-0.705318041145802">
        <ele>56.369999999999997</ele>
        <time>2018-07-04T08:34:44Z</time>
      </trkpt>
      <trkpt lat="49.275231035426259" lon="-0.705376965925097">
        <ele>56.369999999999997</ele>
        <time>2018-07-04T08:34:45Z</time>
      </trkpt>
      <trkpt lat="49.275195999071002" lon="-0.705442009493709">
        <ele>56.369999999999997</ele>
        <time>2018-07-04T08:34:46Z</time>
      </trkpt>
      <trkpt lat="49.275162974372506" lon="-0.705504035577178">
        <ele>55.890000000000001</ele>
        <time>2018-07-04T08:34:47Z</time>
      </trkpt>
      <trkpt lat="49.275129027664661" lon="-0.705564972013235">
        <ele>55.890000000000001</ele>
        <time>2018-07-04T08:34:48Z</time>
      </trkpt>
      <trkpt lat="49.275056021288037" lon="-0.705700004473329">
        <ele>55.409999999999997</ele>
        <time>2018-07-04T08:34:50Z</time>
      </trkpt>
      <trkpt lat="49.275011010468006" lon="-0.705737974494696">
        <ele>55.409999999999997</ele>
        <time>2018-07-04T08:34:51Z</time>
      </trkpt>
      <trkpt lat="49.274957031011581" lon="-0.705782985314727">
        <ele>55.890000000000001</ele>
        <time>2018-07-04T08:34:52Z</time>
      </trkpt>
      <trkpt lat="49.274901039898396" lon="-0.7058310136199">
        <ele>55.890000000000001</ele>
        <time>2018-07-04T08:34:53Z</time>
      </trkpt>
      <trkpt lat="49.274844964966178" lon="-0.705878958106041">
        <ele>56.369999999999997</ele>
        <time>2018-07-04T08:34:54Z</time>
      </trkpt>
      <trkpt lat="49.274785034358501" lon="-0.705930003896356">
        <ele>56.859999999999999</ele>
        <time>2018-07-04T08:34:55Z</time>
      </trkpt>
      <trkpt lat="49.274726025760174" lon="-0.705979960039258">
        <ele>56.859999999999999</ele>
        <time>2018-07-04T08:34:56Z</time>
      </trkpt>
      <trkpt lat="49.274449003860354" lon="-0.706255976110697">
        <ele>56.859999999999999</ele>
        <time>2018-07-04T08:35:01Z</time>
      </trkpt>
      <trkpt lat="49.274410028010607" lon="-0.706297969445586">
        <ele>56.859999999999999</ele>
        <time>2018-07-04T08:35:02Z</time>
      </trkpt>
      <trkpt lat="49.274379014968872" lon="-0.706330994144082">
        <ele>56.859999999999999</ele>
        <time>2018-07-04T08:35:03Z</time>
      </trkpt>
      <trkpt lat="49.274346996098757" lon="-0.706365024670959">
        <ele>56.859999999999999</ele>
        <time>2018-07-04T08:35:04Z</time>
      </trkpt>
      <trkpt lat="49.274346996098757" lon="-0.706365024670959">
        <ele>56.369999999999997</ele>
        <time>2018-07-04T08:35:05Z</time>
      </trkpt>
      <trkpt lat="49.274381026625633" lon="-0.706460997462273">
        <ele>56.369999999999997</ele>
        <time>2018-07-04T08:35:06Z</time>
      </trkpt>
      <trkpt lat="49.274398041889071" lon="-0.706508019939065">
        <ele>55.890000000000001</ele>
        <time>2018-07-04T08:35:07Z</time>
      </trkpt>
      <trkpt lat="49.27441799081862" lon="-0.706566022709012">
        <ele>55.409999999999997</ele>
        <time>2018-07-04T08:35:08Z</time>
      </trkpt>
      <trkpt lat="49.274442968890071" lon="-0.706635005772114">
        <ele>54.93</ele>
        <time>2018-07-04T08:35:09Z</time>
      </trkpt>
      <trkpt lat="49.274468030780554" lon="-0.706708012148738">
        <ele>54.450000000000003</ele>
        <time>2018-07-04T08:35:10Z</time>
      </trkpt>
      <trkpt lat="49.274493008852005" lon="-0.706779006868601">
        <ele>54.450000000000003</ele>
        <time>2018-07-04T08:35:11Z</time>
      </trkpt>
      <trkpt lat="49.274519998580217" lon="-0.706854024901986">
        <ele>53.969999999999999</ele>
        <time>2018-07-04T08:35:12Z</time>
      </trkpt>
      <trkpt lat="49.274571966379881" lon="-0.707000959664583">
        <ele>53.490000000000002</ele>
        <time>2018-07-04T08:35:14Z</time>
      </trkpt>
      <trkpt lat="49.274599961936474" lon="-0.707082012668252">
        <ele>53.009999999999998</ele>
        <time>2018-07-04T08:35:15Z</time>
      </trkpt>
      <trkpt lat="49.274684032425284" lon="-0.707318969070911">
        <ele>52.049999999999997</ele>
        <time>2018-07-04T08:35:18Z</time>
      </trkpt>
      <trkpt lat="49.274714039638638" lon="-0.707403961569071">
        <ele>52.049999999999997</ele>
        <time>2018-07-04T08:35:19Z</time>
      </trkpt>
      <trkpt lat="49.275026014074683" lon="-0.708352960646153">
        <ele>51.57</ele>
        <time>2018-07-04T08:35:31Z</time>
      </trkpt>
      <trkpt lat="49.275026014074683" lon="-0.708352960646153">
        <ele>52.049999999999997</ele>
        <time>2018-07-04T08:35:41Z</time>
      </trkpt>
      <trkpt lat="49.275026014074683" lon="-0.708352960646153">
        <ele>52.049999999999997</ele>
        <time>2018-07-04T08:36:34Z</time>
      </trkpt>
      <trkpt lat="49.275154005736113" lon="-0.708648003637791">
        <ele>51.090000000000003</ele>
        <time>2018-07-04T08:36:50Z</time>
      </trkpt>
      <trkpt lat="49.275248972699046" lon="-0.708660995587707">
        <ele>50.609999999999999</ele>
        <time>2018-07-04T08:36:51Z</time>
      </trkpt>
      <trkpt lat="49.275264982134104" lon="-0.708693014457822">
        <ele>50.130000000000003</ele>
        <time>2018-07-04T08:36:52Z</time>
      </trkpt>
      <trkpt lat="49.275313010439277" lon="-0.708789993077517">
        <ele>49.649999999999999</ele>
        <time>2018-07-04T08:36:53Z</time>
      </trkpt>
      <trkpt lat="49.275351986289024" lon="-0.708797033876181">
        <ele>50.609999999999999</ele>
        <time>2018-07-04T08:36:54Z</time>
      </trkpt>
      <trkpt lat="49.275417029857635" lon="-0.708810025826097">
        <ele>50.130000000000003</ele>
        <time>2018-07-04T08:36:55Z</time>
      </trkpt>
      <trkpt lat="49.275480983778834" lon="-0.708822011947632">
        <ele>49.649999999999999</ele>
        <time>2018-07-04T08:36:56Z</time>
      </trkpt>
      <trkpt lat="49.275546027347445" lon="-0.708835003897548">
        <ele>49.649999999999999</ele>
        <time>2018-07-04T08:36:57Z</time>
      </trkpt>
      <trkpt lat="49.275885997340083" lon="-0.708900969475508">
        <ele>49.649999999999999</ele>
        <time>2018-07-04T08:37:04Z</time>
      </trkpt>
      <trkpt lat="49.275903012603521" lon="-0.708903986960649">
        <ele>49.649999999999999</ele>
        <time>2018-07-04T08:37:05Z</time>
      </trkpt>
      <trkpt lat="49.275928996503353" lon="-0.708909016102552">
        <ele>49.649999999999999</ele>
        <time>2018-07-04T08:37:06Z</time>
      </trkpt>
      <trkpt lat="49.276327975094318" lon="-0.708959978073835">
        <ele>52.049999999999997</ele>
        <time>2018-07-04T08:37:13Z</time>
      </trkpt>
      <trkpt lat="49.276433000341058" lon="-0.708971964195371">
        <ele>53.009999999999998</ele>
        <time>2018-07-04T08:37:15Z</time>
      </trkpt>
      <trkpt lat="49.276539031416178" lon="-0.708984034135938">
        <ele>53.490000000000002</ele>
        <time>2018-07-04T08:37:17Z</time>
      </trkpt>
      <trkpt lat="49.276598040014505" lon="-0.708991996943951">
        <ele>53.969999999999999</ele>
        <time>2018-07-04T08:37:18Z</time>
      </trkpt>
      <trkpt lat="49.276787973940372" lon="-0.708958972245455">
        <ele>54.450000000000003</ele>
        <time>2018-07-04T08:37:21Z</time>
      </trkpt>
      <trkpt lat="49.276850000023842" lon="-0.708923013880849">
        <ele>54.450000000000003</ele>
        <time>2018-07-04T08:37:22Z</time>
      </trkpt>
      <trkpt lat="49.277013028040528" lon="-0.708829974755645">
        <ele>53.969999999999999</ele>
        <time>2018-07-04T08:37:25Z</time>
      </trkpt>
      <trkpt lat="49.277063990011811" lon="-0.708804996684194">
        <ele>53.969999999999999</ele>
        <time>2018-07-04T08:37:26Z</time>
      </trkpt>
      <trkpt lat="49.277143031358719" lon="-0.708765015006065">
        <ele>53.969999999999999</ele>
        <time>2018-07-04T08:37:32Z</time>
      </trkpt>
      <trkpt lat="49.277394991368055" lon="-0.708649009466171">
        <ele>54.450000000000003</ele>
        <time>2018-07-04T08:37:40Z</time>
      </trkpt>
      <trkpt lat="49.277959009632468" lon="-0.708252964541316">
        <ele>53.009999999999998</ele>
        <time>2018-07-04T08:37:50Z</time>
      </trkpt>
      <trkpt lat="49.278196971863508" lon="-0.708083985373378">
        <ele>52.530000000000001</ele>
        <time>2018-07-04T08:37:55Z</time>
      </trkpt>
      <trkpt lat="49.278251035138965" lon="-0.70804500952363">
        <ele>52.530000000000001</ele>
        <time>2018-07-04T08:37:56Z</time>
      </trkpt>
      <trkpt lat="49.278303002938628" lon="-0.708007961511612">
        <ele>52.530000000000001</ele>
        <time>2018-07-04T08:37:57Z</time>
      </trkpt>
      <trkpt lat="49.278498971834779" lon="-0.707867983728647">
        <ele>52.530000000000001</ele>
        <time>2018-07-04T08:38:01Z</time>
      </trkpt>
      <trkpt lat="49.278582036495209" lon="-0.70780897513032">
        <ele>52.530000000000001</ele>
        <time>2018-07-04T08:38:03Z</time>
      </trkpt>
      <trkpt lat="49.278622018173337" lon="-0.707780979573727">
        <ele>52.049999999999997</ele>
        <time>2018-07-04T08:38:04Z</time>
      </trkpt>
      <trkpt lat="49.278659988194704" lon="-0.707752984017134">
        <ele>52.049999999999997</ele>
        <time>2018-07-04T08:38:05Z</time>
      </trkpt>
      <trkpt lat="49.278695024549961" lon="-0.707729011774063">
        <ele>52.049999999999997</ele>
        <time>2018-07-04T08:38:06Z</time>
      </trkpt>
      <trkpt lat="49.278727965429425" lon="-0.707705039530993">
        <ele>52.049999999999997</ele>
        <time>2018-07-04T08:38:07Z</time>
      </trkpt>
      <trkpt lat="49.278759984299541" lon="-0.707681989297271">
        <ele>51.57</ele>
        <time>2018-07-04T08:38:08Z</time>
      </trkpt>
      <trkpt lat="49.278787979856133" lon="-0.707662962377071">
        <ele>51.57</ele>
        <time>2018-07-04T08:38:09Z</time>
      </trkpt>
      <trkpt lat="49.278809018433094" lon="-0.707647958770394">
        <ele>51.57</ele>
        <time>2018-07-04T08:38:10Z</time>
      </trkpt>
      <trkpt lat="49.278831984847784" lon="-0.707631027325988">
        <ele>51.090000000000003</ele>
        <time>2018-07-04T08:38:11Z</time>
      </trkpt>
      <trkpt lat="49.278861992061138" lon="-0.707608982920647">
        <ele>51.090000000000003</ele>
        <time>2018-07-04T08:38:12Z</time>
      </trkpt>
      <trkpt lat="49.278899040073156" lon="-0.707580987364054">
        <ele>51.090000000000003</ele>
        <time>2018-07-04T08:38:13Z</time>
      </trkpt>
      <trkpt lat="49.278938015922904" lon="-0.70755198597908">
        <ele>50.609999999999999</ele>
        <time>2018-07-04T08:38:14Z</time>
      </trkpt>
      <trkpt lat="49.279121998697519" lon="-0.707414019852877">
        <ele>49.649999999999999</ele>
        <time>2018-07-04T08:38:19Z</time>
      </trkpt>
      <trkpt lat="49.279161980375648" lon="-0.707384012639523">
        <ele>49.649999999999999</ele>
        <time>2018-07-04T08:38:20Z</time>
      </trkpt>
      <trkpt lat="49.279203973710537" lon="-0.707361968234181">
        <ele>49.649999999999999</ele>
        <time>2018-07-04T08:38:21Z</time>
      </trkpt>
      <trkpt lat="49.279476972296834" lon="-0.70724998600781">
        <ele>51.090000000000003</ele>
        <time>2018-07-04T08:38:28Z</time>
      </trkpt>
      <trkpt lat="49.279540004208684" lon="-0.707222996279597">
        <ele>51.090000000000003</ele>
        <time>2018-07-04T08:38:29Z</time>
      </trkpt>
      <trkpt lat="49.279548972845078" lon="-0.707287034019828">
        <ele>51.57</ele>
        <time>2018-07-04T08:38:30Z</time>
      </trkpt>
      <trkpt lat="49.279592977836728" lon="-0.707606971263886">
        <ele>51.090000000000003</ele>
        <time>2018-07-04T08:38:35Z</time>
      </trkpt>
      <trkpt lat="49.279603036120534" lon="-0.70768098346889">
        <ele>51.090000000000003</ele>
        <time>2018-07-04T08:38:36Z</time>
      </trkpt>
      <trkpt lat="49.279610998928547" lon="-0.707740997895598">
        <ele>51.090000000000003</ele>
        <time>2018-07-04T08:38:37Z</time>
      </trkpt>
      <trkpt lat="49.279687022790313" lon="-0.707863038405776">
        <ele>51.57</ele>
        <time>2018-07-04T08:38:38Z</time>
      </trkpt>
      <trkpt lat="49.279708983376622" lon="-0.707868989557028">
        <ele>52.049999999999997</ele>
        <time>2018-07-04T08:38:39Z</time>
      </trkpt>
      <trkpt lat="49.279731027781963" lon="-0.707876030355692">
        <ele>52.049999999999997</ele>
        <time>2018-07-04T08:38:40Z</time>
      </trkpt>
      <trkpt lat="49.279758017510176" lon="-0.707882987335324">
        <ele>52.049999999999997</ele>
        <time>2018-07-04T08:38:41Z</time>
      </trkpt>
      <trkpt lat="49.280208963900805" lon="-0.707992035895586">
        <ele>54.93</ele>
        <time>2018-07-04T08:38:49Z</time>
      </trkpt>
      <trkpt lat="49.28062797524035" lon="-0.708091026172042">
        <ele>57.340000000000003</ele>
        <time>2018-07-04T08:38:56Z</time>
      </trkpt>
      <trkpt lat="49.280688995495439" lon="-0.708102006465197">
        <ele>57.82</ele>
        <time>2018-07-04T08:38:57Z</time>
      </trkpt>
      <trkpt lat="49.28092997521162" lon="-0.708075016736984">
        <ele>59.259999999999998</ele>
        <time>2018-07-04T08:39:02Z</time>
      </trkpt>
      <trkpt lat="49.281060984358191" lon="-0.70798197761178">
        <ele>59.259999999999998</ele>
        <time>2018-07-04T08:39:04Z</time>
      </trkpt>
      <trkpt lat="49.28105796687305" lon="-0.707918023690581">
        <ele>59.740000000000002</ele>
        <time>2018-07-04T08:39:05Z</time>
      </trkpt>
      <trkpt lat="49.28105603903532" lon="-0.707843005657196">
        <ele>59.740000000000002</ele>
        <time>2018-07-04T08:39:06Z</time>
      </trkpt>
      <trkpt lat="49.281053021550179" lon="-0.707767987623811">
        <ele>59.740000000000002</ele>
        <time>2018-07-04T08:39:07Z</time>
      </trkpt>
      <trkpt lat="49.281050004065037" lon="-0.707686012610793">
        <ele>60.219999999999999</ele>
        <time>2018-07-04T08:39:08Z</time>
      </trkpt>
      <trkpt lat="49.281045980751514" lon="-0.707602025941014">
        <ele>60.219999999999999</ele>
        <time>2018-07-04T08:39:09Z</time>
      </trkpt>
      <trkpt lat="49.281031982973218" lon="-0.707216961309314">
        <ele>59.259999999999998</ele>
        <time>2018-07-04T08:39:14Z</time>
      </trkpt>
      <trkpt lat="49.281028965488076" lon="-0.707153007388115">
        <ele>59.259999999999998</ele>
        <time>2018-07-04T08:39:15Z</time>
      </trkpt>
      <trkpt lat="49.281005999073386" lon="-0.706870034337044">
        <ele>59.740000000000002</ele>
        <time>2018-07-04T08:39:19Z</time>
      </trkpt>
      <trkpt lat="49.280988983809948" lon="-0.706809014081955">
        <ele>59.740000000000002</ele>
        <time>2018-07-04T08:39:20Z</time>
      </trkpt>
      <trkpt lat="49.28097196854651" lon="-0.706747993826866">
        <ele>59.259999999999998</ele>
        <time>2018-07-04T08:39:21Z</time>
      </trkpt>
      <trkpt lat="49.280746998265386" lon="-0.706275003030896">
        <ele>57.340000000000003</ele>
        <time>2018-07-04T08:39:28Z</time>
      </trkpt>
      <trkpt lat="49.280700981616974" lon="-0.706203002482653">
        <ele>56.859999999999999</ele>
        <time>2018-07-04T08:39:29Z</time>
      </trkpt>
      <trkpt lat="49.280537031590939" lon="-0.705946013331413">
        <ele>54.93</ele>
        <time>2018-07-04T08:39:33Z</time>
      </trkpt>
      <trkpt lat="49.280505012720823" lon="-0.705894967541099">
        <ele>54.450000000000003</ele>
        <time>2018-07-04T08:39:34Z</time>
      </trkpt>
      <trkpt lat="49.280463019385934" lon="-0.705829001963139">
        <ele>54.450000000000003</ele>
        <time>2018-07-04T08:39:35Z</time>
      </trkpt>
      <trkpt lat="49.280450027436018" lon="-0.705797988921404">
        <ele>53.969999999999999</ele>
        <time>2018-07-04T08:39:36Z</time>
      </trkpt>
      <trkpt lat="49.280428988859057" lon="-0.705750966444612">
        <ele>53.969999999999999</ele>
        <time>2018-07-04T08:39:37Z</time>
      </trkpt>
      <trkpt lat="49.280452039092779" lon="-0.705630015581846">
        <ele>53.969999999999999</ele>
        <time>2018-07-04T08:39:38Z</time>
      </trkpt>
      <trkpt lat="49.280501995235682" lon="-0.705582993105054">
        <ele>53.969999999999999</ele>
        <time>2018-07-04T08:39:39Z</time>
      </trkpt>
      <trkpt lat="49.280567038804293" lon="-0.705523984506726">
        <ele>53.490000000000002</ele>
        <time>2018-07-04T08:39:40Z</time>
      </trkpt>
      <trkpt lat="49.280772982165217" lon="-0.705334972590208">
        <ele>52.530000000000001</ele>
        <time>2018-07-04T08:39:43Z</time>
      </trkpt>
      <trkpt lat="49.280839031562209" lon="-0.7052749581635">
        <ele>52.049999999999997</ele>
        <time>2018-07-04T08:39:44Z</time>
      </trkpt>
      <trkpt lat="49.280904997140169" lon="-0.705214021727443">
        <ele>51.57</ele>
        <time>2018-07-04T08:39:45Z</time>
      </trkpt>
      <trkpt lat="49.2809690348804" lon="-0.705176973715425">
        <ele>51.090000000000003</ele>
        <time>2018-07-04T08:39:46Z</time>
      </trkpt>
      <trkpt lat="49.281032988801599" lon="-0.70514302700758">
        <ele>50.609999999999999</ele>
        <time>2018-07-04T08:39:47Z</time>
      </trkpt>
      <trkpt lat="49.281095014885068" lon="-0.705110002309084">
        <ele>50.609999999999999</ele>
        <time>2018-07-04T08:39:48Z</time>
      </trkpt>
      <trkpt lat="49.281151005998254" lon="-0.70507999509573">
        <ele>50.130000000000003</ele>
        <time>2018-07-04T08:39:49Z</time>
      </trkpt>
      <trkpt lat="49.281204985454679" lon="-0.705050993710756">
        <ele>49.649999999999999</ele>
        <time>2018-07-04T08:39:50Z</time>
      </trkpt>
      <trkpt lat="49.281549984589219" lon="-0.70479903370142">
        <ele>47.240000000000002</ele>
        <time>2018-07-04T08:39:58Z</time>
      </trkpt>
      <trkpt lat="49.281543027609587" lon="-0.704744970425963">
        <ele>46.759999999999998</ele>
        <time>2018-07-04T08:39:59Z</time>
      </trkpt>
      <trkpt lat="49.281533975154161" lon="-0.704671964049339">
        <ele>46.280000000000001</ele>
        <time>2018-07-04T08:40:00Z</time>
      </trkpt>
      <trkpt lat="49.281525006517768" lon="-0.704592000693083">
        <ele>46.280000000000001</ele>
        <time>2018-07-04T08:40:01Z</time>
      </trkpt>
      <trkpt lat="49.281516037881374" lon="-0.704514971002936">
        <ele>46.280000000000001</ele>
        <time>2018-07-04T08:40:02Z</time>
      </trkpt>
      <trkpt lat="49.281506985425949" lon="-0.704442970454693">
        <ele>46.280000000000001</ele>
        <time>2018-07-04T08:40:03Z</time>
      </trkpt>
      <trkpt lat="49.281498016789556" lon="-0.704368958249688">
        <ele>46.280000000000001</ele>
        <time>2018-07-04T08:40:04Z</time>
      </trkpt>
      <trkpt lat="49.28148896433413" lon="-0.704290000721812">
        <ele>45.799999999999997</ele>
        <time>2018-07-04T08:40:05Z</time>
      </trkpt>
      <trkpt lat="49.281478989869356" lon="-0.704205008223653">
        <ele>45.799999999999997</ele>
        <time>2018-07-04T08:40:06Z</time>
      </trkpt>
      <trkpt lat="49.281331971287727" lon="-0.703290039673448">
        <ele>44.840000000000003</ele>
        <time>2018-07-04T08:40:14Z</time>
      </trkpt>
      <trkpt lat="49.28112200461328" lon="-0.702433995902538">
        <ele>45.32</ele>
        <time>2018-07-04T08:40:23Z</time>
      </trkpt>
      <trkpt lat="49.28112200461328" lon="-0.702433995902538">
        <ele>45.32</ele>
        <time>2018-07-04T08:40:34Z</time>
      </trkpt>
      <trkpt lat="49.28105796687305" lon="-0.702154962345958">
        <ele>45.32</ele>
        <time>2018-07-04T08:40:51Z</time>
      </trkpt>
      <trkpt lat="49.281128961592913" lon="-0.701991012319922">
        <ele>45.32</ele>
        <time>2018-07-04T08:40:52Z</time>
      </trkpt>
      <trkpt lat="49.281188976019621" lon="-0.701978020370007">
        <ele>45.799999999999997</ele>
        <time>2018-07-04T08:40:53Z</time>
      </trkpt>
      <trkpt lat="49.281257959082723" lon="-0.70196301676333">
        <ele>45.799999999999997</ele>
        <time>2018-07-04T08:40:54Z</time>
      </trkpt>
      <trkpt lat="49.281333982944489" lon="-0.701946001499891">
        <ele>46.280000000000001</ele>
        <time>2018-07-04T08:40:55Z</time>
      </trkpt>
      <trkpt lat="49.281411012634635" lon="-0.701929992064834">
        <ele>46.280000000000001</ele>
        <time>2018-07-04T08:40:56Z</time>
      </trkpt>
      <trkpt lat="49.281661966815591" lon="-0.701875006780028">
        <ele>46.280000000000001</ele>
        <time>2018-07-04T08:40:59Z</time>
      </trkpt>
      <trkpt lat="49.281749976798892" lon="-0.701855979859829">
        <ele>46.280000000000001</ele>
        <time>2018-07-04T08:41:00Z</time>
      </trkpt>
      <trkpt lat="49.281836980953813" lon="-0.701837036758661">
        <ele>46.759999999999998</ele>
        <time>2018-07-04T08:41:01Z</time>
      </trkpt>
      <trkpt lat="49.282753961160779" lon="-0.701677026227117">
        <ele>47.240000000000002</ele>
        <time>2018-07-04T08:41:11Z</time>
      </trkpt>
      <trkpt lat="49.28340096026659" lon="-0.70166596211493">
        <ele>46.759999999999998</ele>
        <time>2018-07-04T08:41:19Z</time>
      </trkpt>
      <trkpt lat="49.283774960786104" lon="-0.701671997085214">
        <ele>46.759999999999998</ele>
        <time>2018-07-04T08:41:28Z</time>
      </trkpt>
      <trkpt lat="49.283774960786104" lon="-0.701671997085214">
        <ele>47.240000000000002</ele>
        <time>2018-07-04T08:41:29Z</time>
      </trkpt>
      <trkpt lat="49.283804967999458" lon="-0.701711978763342">
        <ele>47.240000000000002</ele>
        <time>2018-07-04T08:41:30Z</time>
      </trkpt>
      <trkpt lat="49.283811002969742" lon="-0.701630003750324">
        <ele>47.719999999999999</ele>
        <time>2018-07-04T08:41:43Z</time>
      </trkpt>
      <trkpt lat="49.284208975732327" lon="-0.701634027063847">
        <ele>47.240000000000002</ele>
        <time>2018-07-04T08:41:50Z</time>
      </trkpt>
      <trkpt lat="49.28453603759408" lon="-0.701569989323616">
        <ele>45.32</ele>
        <time>2018-07-04T08:41:54Z</time>
      </trkpt>
      <trkpt lat="49.284697975963354" lon="-0.701530007645488">
        <ele>44.840000000000003</ele>
        <time>2018-07-04T08:41:56Z</time>
      </trkpt>
      <trkpt lat="49.284785985946655" lon="-0.701510980725288">
        <ele>44.359999999999999</ele>
        <time>2018-07-04T08:41:57Z</time>
      </trkpt>
      <trkpt lat="49.284872990101576" lon="-0.701495977118611">
        <ele>44.359999999999999</ele>
        <time>2018-07-04T08:41:58Z</time>
      </trkpt>
      <trkpt lat="49.285831041634083" lon="-0.701336972415447">
        <ele>43.880000000000003</ele>
        <time>2018-07-04T08:42:08Z</time>
      </trkpt>
      <trkpt lat="49.287037029862404" lon="-0.701115019619465">
        <ele>43.399999999999999</ele>
        <time>2018-07-04T08:42:20Z</time>
      </trkpt>
      <trkpt lat="49.288042020052671" lon="-0.700785024091601">
        <ele>42.920000000000002</ele>
        <time>2018-07-04T08:42:30Z</time>
      </trkpt>
      <trkpt lat="49.288115026429296" lon="-0.700755016878247">
        <ele>42.439999999999998</ele>
        <time>2018-07-04T08:42:31Z</time>
      </trkpt>
      <trkpt lat="49.288180992007256" lon="-0.700729032978415">
        <ele>42.439999999999998</ele>
        <time>2018-07-04T08:42:32Z</time>
      </trkpt>
      <trkpt lat="49.288241006433964" lon="-0.700704976916313">
        <ele>41.469999999999999</ele>
        <time>2018-07-04T08:42:33Z</time>
      </trkpt>
      <trkpt lat="49.288322981446981" lon="-0.70052501745522">
        <ele>40.990000000000002</ele>
        <time>2018-07-04T08:42:35Z</time>
      </trkpt>
      <trkpt lat="49.288405040279031" lon="-0.700538009405136">
        <ele>40.509999999999998</ele>
        <time>2018-07-04T08:42:36Z</time>
      </trkpt>
      <trkpt lat="49.288453990593553" lon="-0.700570028275251">
        <ele>40.509999999999998</ele>
        <time>2018-07-04T08:42:37Z</time>
      </trkpt>
      <trkpt lat="49.288474023342133" lon="-0.700707994401455">
        <ele>40.030000000000001</ele>
        <time>2018-07-04T08:42:38Z</time>
      </trkpt>
      <trkpt lat="49.288466982543468" lon="-0.700764991343021">
        <ele>39.549999999999997</ele>
        <time>2018-07-04T08:42:39Z</time>
      </trkpt>
      <trkpt lat="49.288421971723437" lon="-0.700930031016469">
        <ele>39.549999999999997</ele>
        <time>2018-07-04T08:42:40Z</time>
      </trkpt>
      <trkpt lat="49.288445021957159" lon="-0.701045030727983">
        <ele>39.549999999999997</ele>
        <time>2018-07-04T08:42:41Z</time>
      </trkpt>
      <trkpt lat="49.28846899420023" lon="-0.701164975762367">
        <ele>39.549999999999997</ele>
        <time>2018-07-04T08:42:42Z</time>
      </trkpt>
      <trkpt lat="49.288493972271681" lon="-0.701289027929306">
        <ele>39.549999999999997</ele>
        <time>2018-07-04T08:42:43Z</time>
      </trkpt>
      <trkpt lat="49.288591034710407" lon="-0.702009033411741">
        <ele>40.030000000000001</ele>
        <time>2018-07-04T08:42:49Z</time>
      </trkpt>
      <trkpt lat="49.288602015003562" lon="-0.702124033123255">
        <ele>40.509999999999998</ele>
        <time>2018-07-04T08:42:50Z</time>
      </trkpt>
      <trkpt lat="49.288611989468336" lon="-0.702239032834768">
        <ele>40.509999999999998</ele>
        <time>2018-07-04T08:42:51Z</time>
      </trkpt>
      <trkpt lat="49.28862196393311" lon="-0.70235101506114">
        <ele>40.990000000000002</ele>
        <time>2018-07-04T08:42:52Z</time>
      </trkpt>
      <trkpt lat="49.288633028045297" lon="-0.702466014772654">
        <ele>41.469999999999999</ele>
        <time>2018-07-04T08:42:53Z</time>
      </trkpt>
      <trkpt lat="49.288644008338451" lon="-0.702587971463799">
        <ele>41.469999999999999</ele>
        <time>2018-07-04T08:42:54Z</time>
      </trkpt>
      <trkpt lat="49.288703016936779" lon="-0.703389029949903">
        <ele>42.920000000000002</ele>
        <time>2018-07-04T08:43:01Z</time>
      </trkpt>
      <trkpt lat="49.288788009434938" lon="-0.703596984967589">
        <ele>43.399999999999999</ele>
        <time>2018-07-04T08:43:03Z</time>
      </trkpt>
      <trkpt lat="49.288788009434938" lon="-0.703596984967589">
        <ele>43.399999999999999</ele>
        <time>2018-07-04T08:43:04Z</time>
      </trkpt>
      <trkpt lat="49.288818016648293" lon="-0.703656999394298">
        <ele>43.880000000000003</ele>
        <time>2018-07-04T08:43:05Z</time>
      </trkpt>
      <trkpt lat="49.288881970569491" lon="-0.703670997172594">
        <ele>43.880000000000003</ele>
        <time>2018-07-04T08:43:06Z</time>
      </trkpt>
      <trkpt lat="49.288945002481341" lon="-0.703656999394298">
        <ele>44.359999999999999</ele>
        <time>2018-07-04T08:43:07Z</time>
      </trkpt>
      <trkpt lat="49.289017003029585" lon="-0.703639984130859">
        <ele>44.359999999999999</ele>
        <time>2018-07-04T08:43:08Z</time>
      </trkpt>
      <trkpt lat="49.289805991575122" lon="-0.703459018841386">
        <ele>44.840000000000003</ele>
        <time>2018-07-04T08:43:16Z</time>
      </trkpt>
      <trkpt lat="49.290728000923991" lon="-0.703323986381292">
        <ele>47.719999999999999</ele>
        <time>2018-07-04T08:43:24Z</time>
      </trkpt>
      <trkpt lat="49.2917550355196" lon="-0.703133968636394">
        <ele>47.719999999999999</ele>
        <time>2018-07-04T08:43:35Z</time>
      </trkpt>
      <trkpt lat="49.292676961049438" lon="-0.702823000028729">
        <ele>47.240000000000002</ele>
        <time>2018-07-04T08:43:45Z</time>
      </trkpt>
      <trkpt lat="49.29399199783802" lon="-0.70275804027915">
        <ele>47.240000000000002</ele>
        <time>2018-07-04T08:43:56Z</time>
      </trkpt>
      <trkpt lat="49.295228999108076" lon="-0.702896006405354">
        <ele>44.840000000000003</ele>
        <time>2018-07-04T08:44:04Z</time>
      </trkpt>
      <trkpt lat="49.297077041119337" lon="-0.703010000288486">
        <ele>41.950000000000003</ele>
        <time>2018-07-04T08:44:14Z</time>
      </trkpt>
      <trkpt lat="49.298501964658499" lon="-0.703086024150252">
        <ele>37.630000000000003</ele>
        <time>2018-07-04T08:44:23Z</time>
      </trkpt>
      <trkpt lat="49.299290031194687" lon="-0.703098010271788">
        <ele>35.229999999999997</ele>
        <time>2018-07-04T08:44:30Z</time>
      </trkpt>
      <trkpt lat="49.299400001764297" lon="-0.703100021928549">
        <ele>34.740000000000002</ele>
        <time>2018-07-04T08:44:31Z</time>
      </trkpt>
      <trkpt lat="49.300727024674416" lon="-0.703103961423039">
        <ele>33.299999999999997</ele>
        <time>2018-07-04T08:44:42Z</time>
      </trkpt>
      <trkpt lat="49.301808960735798" lon="-0.703270006924868">
        <ele>32.340000000000003</ele>
        <time>2018-07-04T08:44:51Z</time>
      </trkpt>
      <trkpt lat="49.302168041467667" lon="-0.703392969444394">
        <ele>32.340000000000003</ele>
        <time>2018-07-04T08:44:55Z</time>
      </trkpt>
      <trkpt lat="49.30224297568202" lon="-0.703390035778284">
        <ele>32.340000000000003</ele>
        <time>2018-07-04T08:44:56Z</time>
      </trkpt>
      <trkpt lat="49.302311036735773" lon="-0.703351981937885">
        <ele>32.340000000000003</ele>
        <time>2018-07-04T08:44:57Z</time>
      </trkpt>
      <trkpt lat="49.302925011143088" lon="-0.702864993363619">
        <ele>32.340000000000003</ele>
        <time>2018-07-04T08:45:06Z</time>
      </trkpt>
      <trkpt lat="49.302972033619881" lon="-0.702825011685491">
        <ele>32.340000000000003</ele>
        <time>2018-07-04T08:45:07Z</time>
      </trkpt>
      <trkpt lat="49.303040010854602" lon="-0.702840015292168">
        <ele>32.340000000000003</ele>
        <time>2018-07-04T08:45:08Z</time>
      </trkpt>
      <trkpt lat="49.303107988089323" lon="-0.702856024727225">
        <ele>32.340000000000003</ele>
        <time>2018-07-04T08:45:09Z</time>
      </trkpt>
      <trkpt lat="49.303183006122708" lon="-0.702873039990664">
        <ele>31.859999999999999</ele>
        <time>2018-07-04T08:45:10Z</time>
      </trkpt>
      <trkpt lat="49.303266992792487" lon="-0.702897012233734">
        <ele>31.379999999999999</ele>
        <time>2018-07-04T08:45:11Z</time>
      </trkpt>
      <trkpt lat="49.304198976606131" lon="-0.703372014686465">
        <ele>31.379999999999999</ele>
        <time>2018-07-04T08:45:21Z</time>
      </trkpt>
      <trkpt lat="49.304462000727654" lon="-0.703493971377611">
        <ele>31.379999999999999</ele>
        <time>2018-07-04T08:45:24Z</time>
      </trkpt>
      <trkpt lat="49.305234979838133" lon="-0.703606959432364">
        <ele>33.780000000000001</ele>
        <time>2018-07-04T08:45:32Z</time>
      </trkpt>
      <trkpt lat="49.305338999256492" lon="-0.703621963039041">
        <ele>33.780000000000001</ele>
        <time>2018-07-04T08:45:33Z</time>
      </trkpt>
      <trkpt lat="49.305674023926258" lon="-0.703672003000975">
        <ele>35.229999999999997</ele>
        <time>2018-07-04T08:45:36Z</time>
      </trkpt>
      <trkpt lat="49.305896982550621" lon="-0.703703016042709">
        <ele>36.189999999999998</ele>
        <time>2018-07-04T08:45:38Z</time>
      </trkpt>
      <trkpt lat="49.306007958948612" lon="-0.703678037971258">
        <ele>37.149999999999999</ele>
        <time>2018-07-04T08:45:39Z</time>
      </trkpt>
      <trkpt lat="49.306326974183321" lon="-0.703605031594634">
        <ele>39.549999999999997</ele>
        <time>2018-07-04T08:45:42Z</time>
      </trkpt>
      <trkpt lat="49.306424958631396" lon="-0.703561026602983">
        <ele>40.509999999999998</ele>
        <time>2018-07-04T08:45:43Z</time>
      </trkpt>
      <trkpt lat="49.306529983878136" lon="-0.703500006347895">
        <ele>41.469999999999999</ele>
        <time>2018-07-04T08:45:44Z</time>
      </trkpt>
      <trkpt lat="49.306736011058092" lon="-0.703380983322859">
        <ele>42.920000000000002</ele>
        <time>2018-07-04T08:45:46Z</time>
      </trkpt>
      <trkpt lat="49.306825026869774" lon="-0.703303031623363">
        <ele>43.399999999999999</ele>
        <time>2018-07-04T08:45:47Z</time>
      </trkpt>
      <trkpt lat="49.307004986330867" lon="-0.703115025535226">
        <ele>44.840000000000003</ele>
        <time>2018-07-04T08:45:49Z</time>
      </trkpt>
      <trkpt lat="49.307650979608297" lon="-0.70224397815764">
        <ele>48.200000000000003</ele>
        <time>2018-07-04T08:45:56Z</time>
      </trkpt>
      <trkpt lat="49.308521021157503" lon="-0.70110403932631">
        <ele>48.200000000000003</ele>
        <time>2018-07-04T08:46:04Z</time>
      </trkpt>
      <trkpt lat="49.309866987168789" lon="-0.70005202665925">
        <ele>47.240000000000002</ele>
        <time>2018-07-04T08:46:13Z</time>
      </trkpt>
      <trkpt lat="49.311363995075226" lon="-0.699346018955112">
        <ele>44.840000000000003</ele>
        <time>2018-07-04T08:46:22Z</time>
      </trkpt>
      <trkpt lat="49.312540981918573" lon="-0.699142003431916">
        <ele>42.439999999999998</ele>
        <time>2018-07-04T08:46:29Z</time>
      </trkpt>
      <trkpt lat="49.313836991786957" lon="-0.699186008423567">
        <ele>40.990000000000002</ele>
        <time>2018-07-04T08:46:38Z</time>
      </trkpt>
      <trkpt lat="49.315359983593225" lon="-0.69955799728632">
        <ele>37.149999999999999</ele>
        <time>2018-07-04T08:46:47Z</time>
      </trkpt>
      <trkpt lat="49.316802006214857" lon="-0.700050015002489">
        <ele>32.340000000000003</ele>
        <time>2018-07-04T08:46:57Z</time>
      </trkpt>
      <trkpt lat="49.318073038011789" lon="-0.700813019648194">
        <ele>30.899999999999999</ele>
        <time>2018-07-04T08:47:06Z</time>
      </trkpt>
      <trkpt lat="49.319626037031412" lon="-0.701840976253152">
        <ele>34.740000000000002</ele>
        <time>2018-07-04T08:47:16Z</time>
      </trkpt>
      <trkpt lat="49.321313984692097" lon="-0.702833980321884">
        <ele>34.259999999999998</ele>
        <time>2018-07-04T08:47:26Z</time>
      </trkpt>
      <trkpt lat="49.321484975516796" lon="-0.702854013070464">
        <ele>34.259999999999998</ele>
        <time>2018-07-04T08:47:27Z</time>
      </trkpt>
      <trkpt lat="49.321660995483398" lon="-0.702859964221716">
        <ele>33.780000000000001</ele>
        <time>2018-07-04T08:47:28Z</time>
      </trkpt>
      <trkpt lat="49.323706012219191" lon="-0.702600041404366">
        <ele>37.149999999999999</ele>
        <time>2018-07-04T08:47:39Z</time>
      </trkpt>
      <trkpt lat="49.325238978490233" lon="-0.702280020341277">
        <ele>37.630000000000003</ele>
        <time>2018-07-04T08:47:48Z</time>
      </trkpt>
      <trkpt lat="49.327002028003335" lon="-0.701568983495235">
        <ele>35.229999999999997</ele>
        <time>2018-07-04T08:47:58Z</time>
      </trkpt>
      <trkpt lat="49.327285001054406" lon="-0.701394975185394">
        <ele>34.259999999999998</ele>
        <time>2018-07-04T08:48:00Z</time>
      </trkpt>
      <trkpt lat="49.327411986887455" lon="-0.701292967423797">
        <ele>34.259999999999998</ele>
        <time>2018-07-04T08:48:01Z</time>
      </trkpt>
      <trkpt lat="49.327537966892123" lon="-0.70119196549058">
        <ele>33.780000000000001</ele>
        <time>2018-07-04T08:48:02Z</time>
      </trkpt>
      <trkpt lat="49.327651038765907" lon="-0.701046958565712">
        <ele>33.299999999999997</ele>
        <time>2018-07-04T08:48:03Z</time>
      </trkpt>
      <trkpt lat="49.32776402682066" lon="-0.70088803768158">
        <ele>33.299999999999997</ele>
        <time>2018-07-04T08:48:04Z</time>
      </trkpt>
      <trkpt lat="49.3284319806844" lon="-0.700044985860586">
        <ele>32.340000000000003</ele>
        <time>2018-07-04T08:48:10Z</time>
      </trkpt>
      <trkpt lat="49.328945958986878" lon="-0.699691018089652">
        <ele>32.82</ele>
        <time>2018-07-04T08:48:15Z</time>
      </trkpt>
      <trkpt lat="49.330034013837576" lon="-0.699433023110032">
        <ele>33.299999999999997</ele>
        <time>2018-07-04T08:48:23Z</time>
      </trkpt>
      <trkpt lat="49.330853009596467" lon="-0.699441991746426">
        <ele>32.82</ele>
        <time>2018-07-04T08:48:29Z</time>
      </trkpt>
      <trkpt lat="49.330985024571419" lon="-0.69944903254509">
        <ele>32.82</ele>
        <time>2018-07-04T08:48:30Z</time>
      </trkpt>
      <trkpt lat="49.331884989514947" lon="-0.699291033670306">
        <ele>33.299999999999997</ele>
        <time>2018-07-04T08:48:37Z</time>
      </trkpt>
      <trkpt lat="49.332005018368363" lon="-0.699218027293682">
        <ele>32.82</ele>
        <time>2018-07-04T08:48:38Z</time>
      </trkpt>
      <trkpt lat="49.333165995776653" lon="-0.698715029284358">
        <ele>35.229999999999997</ele>
        <time>2018-07-04T08:48:48Z</time>
      </trkpt>
      <trkpt lat="49.333393983542919" lon="-0.698684016242623">
        <ele>36.189999999999998</ele>
        <time>2018-07-04T08:48:50Z</time>
      </trkpt>
      <trkpt lat="49.333619037643075" lon="-0.698653003200889">
        <ele>37.149999999999999</ele>
        <time>2018-07-04T08:48:52Z</time>
      </trkpt>
      <trkpt lat="49.33384601958096" lon="-0.698622995987535">
        <ele>38.109999999999999</ele>
        <time>2018-07-04T08:48:54Z</time>
      </trkpt>
      <trkpt lat="49.333959007635713" lon="-0.698602963238955">
        <ele>38.590000000000003</ele>
        <time>2018-07-04T08:48:55Z</time>
      </trkpt>
      <trkpt lat="49.334480026736856" lon="-0.698501961305738">
        <ele>42.439999999999998</ele>
        <time>2018-07-04T08:49:01Z</time>
      </trkpt>
      <trkpt lat="49.334539035335183" lon="-0.698482012376189">
        <ele>43.399999999999999</ele>
        <time>2018-07-04T08:49:02Z</time>
      </trkpt>
      <trkpt lat="49.334589997306466" lon="-0.698464997112751">
        <ele>44.359999999999999</ele>
        <time>2018-07-04T08:49:03Z</time>
      </trkpt>
      <trkpt lat="49.334640959277749" lon="-0.698447981849313">
        <ele>45.32</ele>
        <time>2018-07-04T08:49:04Z</time>
      </trkpt>
      <trkpt lat="49.334694016724825" lon="-0.698429960757494">
        <ele>46.280000000000001</ele>
        <time>2018-07-04T08:49:05Z</time>
      </trkpt>
      <trkpt lat="49.33474900200963" lon="-0.698412023484707">
        <ele>46.759999999999998</ele>
        <time>2018-07-04T08:49:06Z</time>
      </trkpt>
      <trkpt lat="49.334865007549524" lon="-0.69831202737987">
        <ele>48.200000000000003</ele>
        <time>2018-07-04T08:49:08Z</time>
      </trkpt>
      <trkpt lat="49.334929967299104" lon="-0.698246983811259">
        <ele>48.200000000000003</ele>
        <time>2018-07-04T08:49:09Z</time>
      </trkpt>
      <trkpt lat="49.334997022524476" lon="-0.698180012404919">
        <ele>48.68</ele>
        <time>2018-07-04T08:49:10Z</time>
      </trkpt>
      <trkpt lat="49.335330035537481" lon="-0.697782039642334">
        <ele>48.68</ele>
        <time>2018-07-04T08:49:15Z</time>
      </trkpt>
      <trkpt lat="49.335382003337145" lon="-0.697679026052356">
        <ele>49.159999999999997</ele>
        <time>2018-07-04T08:49:16Z</time>
      </trkpt>
      <trkpt lat="49.335429025813937" lon="-0.697583975270391">
        <ele>49.159999999999997</ele>
        <time>2018-07-04T08:49:17Z</time>
      </trkpt>
      <trkpt lat="49.335603034123778" lon="-0.697186002507806">
        <ele>51.090000000000003</ele>
        <time>2018-07-04T08:49:24Z</time>
      </trkpt>
      <trkpt lat="49.335603034123778" lon="-0.697186002507806">
        <ele>51.57</ele>
        <time>2018-07-04T08:49:35Z</time>
      </trkpt>
      <trkpt lat="49.335738988593221" lon="-0.696845026686788">
        <ele>52.049999999999997</ele>
        <time>2018-07-04T08:49:41Z</time>
      </trkpt>
      <trkpt lat="49.335765978321433" lon="-0.696778977289796">
        <ele>52.049999999999997</ele>
        <time>2018-07-04T08:49:42Z</time>
      </trkpt>
      <trkpt lat="49.335786011070013" lon="-0.696728015318513">
        <ele>52.530000000000001</ele>
        <time>2018-07-04T08:49:43Z</time>
      </trkpt>
      <trkpt lat="49.335802020505071" lon="-0.696688033640385">
        <ele>53.009999999999998</ele>
        <time>2018-07-04T08:49:44Z</time>
      </trkpt>
      <trkpt lat="49.335811994969845" lon="-0.696661965921521">
        <ele>53.009999999999998</ele>
        <time>2018-07-04T08:49:45Z</time>
      </trkpt>
      <trkpt lat="49.335820963606238" lon="-0.696642016991973">
        <ele>53.009999999999998</ele>
        <time>2018-07-04T08:49:46Z</time>
      </trkpt>
      <trkpt lat="49.335845019668341" lon="-0.696579990908504">
        <ele>53.490000000000002</ele>
        <time>2018-07-04T08:49:47Z</time>
      </trkpt>
      <trkpt lat="49.335867986083031" lon="-0.696626007556915">
        <ele>53.490000000000002</ele>
        <time>2018-07-04T08:49:48Z</time>
      </trkpt>
      <trkpt lat="49.335904028266668" lon="-0.696699013933539">
        <ele>53.490000000000002</ele>
        <time>2018-07-04T08:49:49Z</time>
      </trkpt>
      <trkpt lat="49.335945015773177" lon="-0.696779983118176">
        <ele>53.009999999999998</ele>
        <time>2018-07-04T08:49:50Z</time>
      </trkpt>
      <trkpt lat="49.335962031036615" lon="-0.696871010586619">
        <ele>53.490000000000002</ele>
        <time>2018-07-04T08:49:51Z</time>
      </trkpt>
      <trkpt lat="49.335976028814912" lon="-0.696981986984611">
        <ele>53.490000000000002</ele>
        <time>2018-07-04T08:49:52Z</time>
      </trkpt>
      <trkpt lat="49.33603797107935" lon="-0.697481967508793">
        <ele>53.490000000000002</ele>
        <time>2018-07-04T08:49:58Z</time>
      </trkpt>
      <trkpt lat="49.33603797107935" lon="-0.697613982483745">
        <ele>54.450000000000003</ele>
        <time>2018-07-04T08:50:05Z</time>
      </trkpt>
      <trkpt lat="49.33603797107935" lon="-0.697613982483745">
        <ele>54.450000000000003</ele>
        <time>2018-07-04T08:50:54Z</time>
      </trkpt>
    </trkseg>
  </trk>

  <trk>
    <name>Track vom: 2018-07-04 10:50</name>
    <extensions>
      <gpxx:TrackExtension>
        <gpxx:DisplayColor>DarkGray</gpxx:DisplayColor>
      </gpxx:TrackExtension>
    </extensions>
    <trkseg>
      <trkpt lat="49.33603797107935" lon="-0.697613982483745">
        <ele>54.450000000000003</ele>
        <time>2018-07-04T08:50:56Z</time>
      </trkpt>
      <trkpt lat="49.33603797107935" lon="-0.697663016617298">
        <ele>54.450000000000003</ele>
        <time>2018-07-04T08:51:02Z</time>
      </trkpt>
      <trkpt lat="49.33603797107935" lon="-0.697706015780568">
        <ele>54.450000000000003</ele>
        <time>2018-07-04T08:51:03Z</time>
      </trkpt>
      <trkpt lat="49.33603797107935" lon="-0.697780027985573">
        <ele>53.969999999999999</ele>
        <time>2018-07-04T08:51:04Z</time>
      </trkpt>
      <trkpt lat="49.33603797107935" lon="-0.697878012433648">
        <ele>53.969999999999999</ele>
        <time>2018-07-04T08:51:05Z</time>
      </trkpt>
      <trkpt lat="49.336026990786195" lon="-0.697998041287065">
        <ele>53.490000000000002</ele>
        <time>2018-07-04T08:51:06Z</time>
      </trkpt>
      <trkpt lat="49.335811994969845" lon="-0.699138985946774">
        <ele>55.409999999999997</ele>
        <time>2018-07-04T08:51:13Z</time>
      </trkpt>
      <trkpt lat="49.33537001721561" lon="-0.7012979965657">
        <ele>58.299999999999997</ele>
        <time>2018-07-04T08:51:23Z</time>
      </trkpt>
      <trkpt lat="49.335110010579228" lon="-0.702943028882146">
        <ele>59.740000000000002</ele>
        <time>2018-07-04T08:51:31Z</time>
      </trkpt>
      <trkpt lat="49.335106993094087" lon="-0.703146960586309">
        <ele>60.219999999999999</ele>
        <time>2018-07-04T08:51:32Z</time>
      </trkpt>
      <trkpt lat="49.335206989198923" lon="-0.705003971233964">
        <ele>59.259999999999998</ele>
        <time>2018-07-04T08:51:42Z</time>
      </trkpt>
      <trkpt lat="49.335364988073707" lon="-0.706505002453923">
        <ele>57.340000000000003</ele>
        <time>2018-07-04T08:51:50Z</time>
      </trkpt>
      <trkpt lat="49.335416033864021" lon="-0.706708012148738">
        <ele>56.859999999999999</ele>
        <time>2018-07-04T08:51:51Z</time>
      </trkpt>
      <trkpt lat="49.335476970300078" lon="-0.706828963011503">
        <ele>56.369999999999997</ele>
        <time>2018-07-04T08:51:52Z</time>
      </trkpt>
      <trkpt lat="49.336146013811231" lon="-0.708353966474533">
        <ele>53.969999999999999</ele>
        <time>2018-07-04T08:52:02Z</time>
      </trkpt>
      <trkpt lat="49.336480032652617" lon="-0.709540005773306">
        <ele>56.369999999999997</ele>
        <time>2018-07-04T08:52:08Z</time>
      </trkpt>
      <trkpt lat="49.337155027315021" lon="-0.711664985865355">
        <ele>60.700000000000003</ele>
        <time>2018-07-04T08:52:19Z</time>
      </trkpt>
      <trkpt lat="49.337482005357742" lon="-0.713143972679973">
        <ele>66.950000000000003</ele>
        <time>2018-07-04T08:52:27Z</time>
      </trkpt>
      <trkpt lat="49.337543025612831" lon="-0.713276993483305">
        <ele>67.430000000000007</ele>
        <time>2018-07-04T08:52:28Z</time>
      </trkpt>
      <trkpt lat="49.337611002847552" lon="-0.713397022336721">
        <ele>67.909999999999997</ele>
        <time>2018-07-04T08:52:29Z</time>
      </trkpt>
      <trkpt lat="49.337688032537699" lon="-0.713520990684628">
        <ele>68.390000000000001</ele>
        <time>2018-07-04T08:52:30Z</time>
      </trkpt>
      <trkpt lat="49.337770007550716" lon="-0.713654011487961">
        <ele>68.870000000000005</ele>
        <time>2018-07-04T08:52:31Z</time>
      </trkpt>
      <trkpt lat="49.338001012802124" lon="-0.714079979807138">
        <ele>70.310000000000002</ele>
        <time>2018-07-04T08:52:34Z</time>
      </trkpt>
      <trkpt lat="49.338062033057213" lon="-0.714240996167064">
        <ele>71.269999999999996</ele>
        <time>2018-07-04T08:52:35Z</time>
      </trkpt>
      <trkpt lat="49.338124981150031" lon="-0.714406035840511">
        <ele>71.760000000000005</ele>
        <time>2018-07-04T08:52:36Z</time>
      </trkpt>
      <trkpt lat="49.338801987469196" lon="-0.716199008747935">
        <ele>77.040000000000006</ele>
        <time>2018-07-04T08:52:47Z</time>
      </trkpt>
      <trkpt lat="49.339062999933958" lon="-0.717036025598645">
        <ele>76.079999999999998</ele>
        <time>2018-07-04T08:52:52Z</time>
      </trkpt>
      <trkpt lat="49.339086972177029" lon="-0.717212967574596">
        <ele>76.079999999999998</ele>
        <time>2018-07-04T08:52:53Z</time>
      </trkpt>
      <trkpt lat="49.339111028239131" lon="-0.717389993369579">
        <ele>76.079999999999998</ele>
        <time>2018-07-04T08:52:54Z</time>
      </trkpt>
      <trkpt lat="49.339135000482202" lon="-0.717565007507801">
        <ele>75.599999999999994</ele>
        <time>2018-07-04T08:52:55Z</time>
      </trkpt>
      <trkpt lat="49.339157966896892" lon="-0.717741027474403">
        <ele>75.599999999999994</ele>
        <time>2018-07-04T08:52:56Z</time>
      </trkpt>
      <trkpt lat="49.339114967733622" lon="-0.719714965671301">
        <ele>75.599999999999994</ele>
        <time>2018-07-04T08:53:06Z</time>
      </trkpt>
      <trkpt lat="49.339064005762339" lon="-0.720303039997816">
        <ele>76.079999999999998</ele>
        <time>2018-07-04T08:53:09Z</time>
      </trkpt>
      <trkpt lat="49.339042967185378" lon="-0.720457015559077">
        <ele>75.599999999999994</ele>
        <time>2018-07-04T08:53:10Z</time>
      </trkpt>
      <trkpt lat="49.338975995779037" lon="-0.720551982522011">
        <ele>75.599999999999994</ele>
        <time>2018-07-04T08:53:11Z</time>
      </trkpt>
      <trkpt lat="49.338913969695568" lon="-0.72063404135406">
        <ele>75.120000000000005</ele>
        <time>2018-07-04T08:53:12Z</time>
      </trkpt>
      <trkpt lat="49.338843980804086" lon="-0.720632029697299">
        <ele>75.120000000000005</ele>
        <time>2018-07-04T08:53:13Z</time>
      </trkpt>
      <trkpt lat="49.338749013841152" lon="-0.720629012212157">
        <ele>74.640000000000001</ele>
        <time>2018-07-04T08:53:14Z</time>
      </trkpt>
      <trkpt lat="49.338641976937652" lon="-0.720625994727016">
        <ele>74.640000000000001</ele>
        <time>2018-07-04T08:53:15Z</time>
      </trkpt>
      <trkpt lat="49.338391022756696" lon="-0.720618031919003">
        <ele>73.200000000000003</ele>
        <time>2018-07-04T08:53:17Z</time>
      </trkpt>
      <trkpt lat="49.33827199973166" lon="-0.72061400860548">
        <ele>72.719999999999999</ele>
        <time>2018-07-04T08:53:18Z</time>
      </trkpt>
      <trkpt lat="49.338188013061881" lon="-0.720696989446878">
        <ele>71.760000000000005</ele>
        <time>2018-07-04T08:53:19Z</time>
      </trkpt>
      <trkpt lat="49.338140990585089" lon="-0.72076303884387">
        <ele>70.790000000000006</ele>
        <time>2018-07-04T08:53:20Z</time>
      </trkpt>
      <trkpt lat="49.338098997250199" lon="-0.720888013020158">
        <ele>70.310000000000002</ele>
        <time>2018-07-04T08:53:21Z</time>
      </trkpt>
      <trkpt lat="49.338054992258549" lon="-0.72102103382349">
        <ele>69.829999999999998</ele>
        <time>2018-07-04T08:53:22Z</time>
      </trkpt>
      <trkpt lat="49.33803697116673" lon="-0.72119202464819">
        <ele>69.349999999999994</ele>
        <time>2018-07-04T08:53:23Z</time>
      </trkpt>
      <trkpt lat="49.337785011157393" lon="-0.722938980907202">
        <ele>67.430000000000007</ele>
        <time>2018-07-04T08:53:31Z</time>
      </trkpt>
      <trkpt lat="49.337216969579458" lon="-0.725292032584548">
        <ele>67.430000000000007</ele>
        <time>2018-07-04T08:53:40Z</time>
      </trkpt>
      <trkpt lat="49.336835006251931" lon="-0.727362027391791">
        <ele>67.909999999999997</ele>
        <time>2018-07-04T08:53:48Z</time>
      </trkpt>
      <trkpt lat="49.336709026247263" lon="-0.729688005521894">
        <ele>69.829999999999998</ele>
        <time>2018-07-04T08:53:58Z</time>
      </trkpt>
      <trkpt lat="49.336884040385485" lon="-0.731928991153836">
        <ele>68.390000000000001</ele>
        <time>2018-07-04T08:54:07Z</time>
      </trkpt>
      <trkpt lat="49.336984036490321" lon="-0.732920989394188">
        <ele>66.469999999999999</ele>
        <time>2018-07-04T08:54:13Z</time>
      </trkpt>
      <trkpt lat="49.337166007608175" lon="-0.734239965677261">
        <ele>57.82</ele>
        <time>2018-07-04T08:54:22Z</time>
      </trkpt>
      <trkpt lat="49.337260974571109" lon="-0.734915966168046">
        <ele>53.009999999999998</ele>
        <time>2018-07-04T08:54:27Z</time>
      </trkpt>
      <trkpt lat="49.337260974571109" lon="-0.735034989193082">
        <ele>52.049999999999997</ele>
        <time>2018-07-04T08:54:28Z</time>
      </trkpt>
      <trkpt lat="49.33724001981318" lon="-0.735140014439821">
        <ele>50.609999999999999</ele>
        <time>2018-07-04T08:54:29Z</time>
      </trkpt>
      <trkpt lat="49.337211018428206" lon="-0.735255014151335">
        <ele>49.649999999999999</ele>
        <time>2018-07-04T08:54:30Z</time>
      </trkpt>
      <trkpt lat="49.337182017043233" lon="-0.735372025519609">
        <ele>49.159999999999997</ele>
        <time>2018-07-04T08:54:31Z</time>
      </trkpt>
      <trkpt lat="49.337131977081299" lon="-0.735466992482543">
        <ele>48.200000000000003</ele>
        <time>2018-07-04T08:54:32Z</time>
      </trkpt>
      <trkpt lat="49.337073974311352" lon="-0.735561037436128">
        <ele>47.719999999999999</ele>
        <time>2018-07-04T08:54:33Z</time>
      </trkpt>
      <trkpt lat="49.337013037875295" lon="-0.735658016055822">
        <ele>46.759999999999998</ele>
        <time>2018-07-04T08:54:34Z</time>
      </trkpt>
      <trkpt lat="49.336952017620206" lon="-0.735757006332278">
        <ele>45.799999999999997</ele>
        <time>2018-07-04T08:54:35Z</time>
      </trkpt>
      <trkpt lat="49.336465029045939" lon="-0.736612966284156">
        <ele>40.030000000000001</ele>
        <time>2018-07-04T08:54:42Z</time>
      </trkpt>
      <trkpt lat="49.336419012397528" lon="-0.736765014007688">
        <ele>39.07</ele>
        <time>2018-07-04T08:54:43Z</time>
      </trkpt>
      <trkpt lat="49.33640300296247" lon="-0.736925024539232">
        <ele>38.590000000000003</ele>
        <time>2018-07-04T08:54:44Z</time>
      </trkpt>
      <trkpt lat="49.336386993527412" lon="-0.737079000100493">
        <ele>37.630000000000003</ele>
        <time>2018-07-04T08:54:45Z</time>
      </trkpt>
      <trkpt lat="49.336389005184174" lon="-0.7372219953686">
        <ele>37.149999999999999</ele>
        <time>2018-07-04T08:54:46Z</time>
      </trkpt>
      <trkpt lat="49.336398979648948" lon="-0.737347975373268">
        <ele>36.670000000000002</ele>
        <time>2018-07-04T08:54:47Z</time>
      </trkpt>
      <trkpt lat="49.336458994075656" lon="-0.737440008670092">
        <ele>35.710000000000001</ele>
        <time>2018-07-04T08:54:48Z</time>
      </trkpt>
      <trkpt lat="49.3365119677037" lon="-0.737484013661742">
        <ele>35.229999999999997</ele>
        <time>2018-07-04T08:54:49Z</time>
      </trkpt>
      <trkpt lat="49.336578017100692" lon="-0.7375000230968">
        <ele>34.740000000000002</ele>
        <time>2018-07-04T08:54:50Z</time>
      </trkpt>
      <trkpt lat="49.336651023477316" lon="-0.7375000230968">
        <ele>34.259999999999998</ele>
        <time>2018-07-04T08:54:51Z</time>
      </trkpt>
      <trkpt lat="49.336736015975475" lon="-0.737487031146884">
        <ele>34.259999999999998</ele>
        <time>2018-07-04T08:54:52Z</time>
      </trkpt>
      <trkpt lat="49.336826959624887" lon="-0.737450988963246">
        <ele>34.259999999999998</ele>
        <time>2018-07-04T08:54:53Z</time>
      </trkpt>
      <trkpt lat="49.337097024545074" lon="-0.737343030050397">
        <ele>32.82</ele>
        <time>2018-07-04T08:54:56Z</time>
      </trkpt>
      <trkpt lat="49.337178999558091" lon="-0.737310005351901">
        <ele>32.82</ele>
        <time>2018-07-04T08:54:57Z</time>
      </trkpt>
      <trkpt lat="49.337258962914348" lon="-0.737277986481786">
        <ele>32.340000000000003</ele>
        <time>2018-07-04T08:54:58Z</time>
      </trkpt>
      <trkpt lat="49.337433977052569" lon="-0.737207997590303">
        <ele>31.859999999999999</ele>
        <time>2018-07-04T08:55:00Z</time>
      </trkpt>
      <trkpt lat="49.337522992864251" lon="-0.737172039225698">
        <ele>31.379999999999999</ele>
        <time>2018-07-04T08:55:01Z</time>
      </trkpt>
      <trkpt lat="49.338117018342018" lon="-0.736932987347245">
        <ele>28.02</ele>
        <time>2018-07-04T08:55:08Z</time>
      </trkpt>
      <trkpt lat="49.338179966434836" lon="-0.73690096847713">
        <ele>28.02</ele>
        <time>2018-07-04T08:55:09Z</time>
      </trkpt>
      <trkpt lat="49.338279040530324" lon="-0.736851012334228">
        <ele>28.5</ele>
        <time>2018-07-04T08:55:15Z</time>
      </trkpt>
      <trkpt lat="49.338482972234488" lon="-0.73672603815794">
        <ele>28.5</ele>
        <time>2018-07-04T08:55:24Z</time>
      </trkpt>
      <trkpt lat="49.338538041338325" lon="-0.736691001802683">
        <ele>28.5</ele>
        <time>2018-07-04T08:55:25Z</time>
      </trkpt>
      <trkpt lat="49.338598977774382" lon="-0.736693013459444">
        <ele>28.98</ele>
        <time>2018-07-04T08:55:26Z</time>
      </trkpt>
      <trkpt lat="49.338678019121289" lon="-0.73670600540936">
        <ele>28.98</ele>
        <time>2018-07-04T08:55:27Z</time>
      </trkpt>
      <trkpt lat="49.338734010234475" lon="-0.736766019836068">
        <ele>28.5</ele>
        <time>2018-07-04T08:55:28Z</time>
      </trkpt>
      <trkpt lat="49.338798969984055" lon="-0.73683500289917">
        <ele>28.5</ele>
        <time>2018-07-04T08:55:29Z</time>
      </trkpt>
      <trkpt lat="49.33893701992929" lon="-0.736980009824038">
        <ele>28.02</ele>
        <time>2018-07-04T08:55:31Z</time>
      </trkpt>
      <trkpt lat="49.339076997712255" lon="-0.737140020355582">
        <ele>27.530000000000001</ele>
        <time>2018-07-04T08:55:33Z</time>
      </trkpt>
      <trkpt lat="49.33913298882544" lon="-0.737252002581954">
        <ele>27.530000000000001</ele>
        <time>2018-07-04T08:55:34Z</time>
      </trkpt>
      <trkpt lat="49.339191997423768" lon="-0.73737102560699">
        <ele>27.530000000000001</ele>
        <time>2018-07-04T08:55:35Z</time>
      </trkpt>
      <trkpt lat="49.339252011850476" lon="-0.737497005611658">
        <ele>27.530000000000001</ele>
        <time>2018-07-04T08:55:36Z</time>
      </trkpt>
      <trkpt lat="49.339311020448804" lon="-0.737636983394623">
        <ele>27.530000000000001</ele>
        <time>2018-07-04T08:55:37Z</time>
      </trkpt>
      <trkpt lat="49.339988026767969" lon="-0.739261982962489">
        <ele>22.25</ele>
        <time>2018-07-04T08:55:47Z</time>
      </trkpt>
      <trkpt lat="49.340733010321856" lon="-0.741059985011816">
        <ele>16.48</ele>
        <time>2018-07-04T08:55:56Z</time>
      </trkpt>
      <trkpt lat="49.341210024431348" lon="-0.741899013519287">
        <ele>15.039999999999999</ele>
        <time>2018-07-04T08:56:01Z</time>
      </trkpt>
      <trkpt lat="49.34127900749445" lon="-0.742079978808761">
        <ele>14.56</ele>
        <time>2018-07-04T08:56:02Z</time>
      </trkpt>
      <trkpt lat="49.341336004436016" lon="-0.742260022088885">
        <ele>14.08</ele>
        <time>2018-07-04T08:56:03Z</time>
      </trkpt>
      <trkpt lat="49.341381015256047" lon="-0.742450961843133">
        <ele>14.08</ele>
        <time>2018-07-04T08:56:04Z</time>
      </trkpt>
      <trkpt lat="49.341426026076078" lon="-0.742641985416412">
        <ele>13.6</ele>
        <time>2018-07-04T08:56:05Z</time>
      </trkpt>
      <trkpt lat="49.341961964964867" lon="-0.744921024888754">
        <ele>12.630000000000001</ele>
        <time>2018-07-04T08:56:18Z</time>
      </trkpt>
      <trkpt lat="49.342384999617934" lon="-0.746702011674643">
        <ele>12.15</ele>
        <time>2018-07-04T08:56:30Z</time>
      </trkpt>
      <trkpt lat="49.342776015400887" lon="-0.748703023418784">
        <ele>12.630000000000001</ele>
        <time>2018-07-04T08:56:43Z</time>
      </trkpt>
      <trkpt lat="49.343044990673661" lon="-0.75058501213789">
        <ele>11.67</ele>
        <time>2018-07-04T08:56:55Z</time>
      </trkpt>
      <trkpt lat="49.34308597818017" lon="-0.750859016552567">
        <ele>11.67</ele>
        <time>2018-07-04T08:56:57Z</time>
      </trkpt>
      <trkpt lat="49.343108022585511" lon="-0.750990025699139">
        <ele>11.67</ele>
        <time>2018-07-04T08:56:58Z</time>
      </trkpt>
      <trkpt lat="49.343238025903702" lon="-0.751732997596264">
        <ele>12.630000000000001</ele>
        <time>2018-07-04T08:57:07Z</time>
      </trkpt>
      <trkpt lat="49.343249006196856" lon="-0.751795023679733">
        <ele>13.119999999999999</ele>
        <time>2018-07-04T08:57:19Z</time>
      </trkpt>
      <trkpt lat="49.343277001753449" lon="-0.751954028382897">
        <ele>13.119999999999999</ele>
        <time>2018-07-04T08:57:29Z</time>
      </trkpt>
      <trkpt lat="49.343441035598516" lon="-0.75252098031342">
        <ele>13.6</ele>
        <time>2018-07-04T08:57:41Z</time>
      </trkpt>
      <trkpt lat="49.343455033376813" lon="-0.752575965598226">
        <ele>13.6</ele>
        <time>2018-07-04T08:57:43Z</time>
      </trkpt>
      <trkpt lat="49.343462996184826" lon="-0.75260597281158">
        <ele>13.6</ele>
        <time>2018-07-04T08:57:44Z</time>
      </trkpt>
      <trkpt lat="49.343424020335078" lon="-0.752684008330107">
        <ele>14.08</ele>
        <time>2018-07-04T08:57:45Z</time>
      </trkpt>
      <trkpt lat="49.343419997021556" lon="-0.75269197113812">
        <ele>13.6</ele>
        <time>2018-07-04T08:57:46Z</time>
      </trkpt>
      <trkpt lat="49.343398958444595" lon="-0.752671016380191">
        <ele>13.6</ele>
        <time>2018-07-04T08:57:47Z</time>
      </trkpt>
      <trkpt lat="49.343315977603197" lon="-0.752632962539792">
        <ele>13.119999999999999</ele>
        <time>2018-07-04T08:57:48Z</time>
      </trkpt>
      <trkpt lat="49.343264009803534" lon="-0.752638997510076">
        <ele>13.119999999999999</ele>
        <time>2018-07-04T08:57:49Z</time>
      </trkpt>
      <trkpt lat="49.343206007033587" lon="-0.75264603830874">
        <ele>13.119999999999999</ele>
        <time>2018-07-04T08:57:50Z</time>
      </trkpt>
      <trkpt lat="49.343152027577162" lon="-0.752652995288372">
        <ele>13.119999999999999</ele>
        <time>2018-07-04T08:57:51Z</time>
      </trkpt>
      <trkpt lat="49.343109028413892" lon="-0.752659030258656">
        <ele>13.119999999999999</ele>
        <time>2018-07-04T08:57:52Z</time>
      </trkpt>
      <trkpt lat="49.343076003715396" lon="-0.752662969753146">
        <ele>13.119999999999999</ele>
        <time>2018-07-04T08:57:53Z</time>
      </trkpt>
      <trkpt lat="49.342792024835944" lon="-0.752715021371841">
        <ele>13.119999999999999</ele>
        <time>2018-07-04T08:58:00Z</time>
      </trkpt>
      <trkpt lat="49.34274198487401" lon="-0.752724995836616">
        <ele>13.119999999999999</ele>
        <time>2018-07-04T08:58:01Z</time>
      </trkpt>
      <trkpt lat="49.342708038166165" lon="-0.75273203663528">
        <ele>12.630000000000001</ele>
        <time>2018-07-04T08:58:02Z</time>
      </trkpt>
      <trkpt lat="49.342699991539121" lon="-0.752695994451642">
        <ele>12.630000000000001</ele>
        <time>2018-07-04T08:58:03Z</time>
      </trkpt>
      <trkpt lat="49.342708038166165" lon="-0.752663975581527">
        <ele>12.630000000000001</ele>
        <time>2018-07-04T08:58:04Z</time>
      </trkpt>
      <trkpt lat="49.342716000974178" lon="-0.752631034702063">
        <ele>12.630000000000001</ele>
        <time>2018-07-04T08:58:05Z</time>
      </trkpt>
      <trkpt lat="49.342723041772842" lon="-0.752604966983199">
        <ele>12.15</ele>
        <time>2018-07-04T08:58:06Z</time>
      </trkpt>
      <trkpt lat="49.342733016237617" lon="-0.75256297364831">
        <ele>12.15</ele>
        <time>2018-07-04T08:58:07Z</time>
      </trkpt>
      <trkpt lat="49.342733016237617" lon="-0.75256297364831">
        <ele>12.630000000000001</ele>
        <time>2018-07-04T08:58:08Z</time>
      </trkpt>
      <trkpt lat="49.34274198487401" lon="-0.752561967819929">
        <ele>12.15</ele>
        <time>2018-07-04T08:58:09Z</time>
      </trkpt>
      <trkpt lat="49.342756988480687" lon="-0.752559034153819">
        <ele>12.15</ele>
        <time>2018-07-04T08:58:10Z</time>
      </trkpt>
      <trkpt lat="49.342756988480687" lon="-0.752559034153819">
        <ele>11.67</ele>
        <time>2018-07-04T08:58:11Z</time>
      </trkpt>
      <trkpt lat="49.342756988480687" lon="-0.752559034153819">
        <ele>11.67</ele>
        <time>2018-07-04T08:58:12Z</time>
      </trkpt>
      <trkpt lat="49.342833012342453" lon="-0.752545036375523">
        <ele>10.23</ele>
        <time>2018-07-04T08:58:25Z</time>
      </trkpt>
      <trkpt lat="49.342833012342453" lon="-0.752545036375523">
        <ele>10.710000000000001</ele>
        <time>2018-07-04T08:59:00Z</time>
      </trkpt>
      <trkpt lat="49.342683982104063" lon="-0.751959979534149">
        <ele>14.56</ele>
        <time>2018-07-04T09:14:03Z</time>
      </trkpt>
      <trkpt lat="49.342692028731108" lon="-0.752228032797575">
        <ele>15.039999999999999</ele>
        <time>2018-07-04T09:14:45Z</time>
      </trkpt>
      <trkpt lat="49.342712983489037" lon="-0.752169024199247">
        <ele>18.399999999999999</ele>
        <time>2018-07-04T09:15:18Z</time>
      </trkpt>
      <trkpt lat="49.342753970995545" lon="-0.75230598449707">
        <ele>18.879999999999999</ele>
        <time>2018-07-04T09:15:20Z</time>
      </trkpt>
      <trkpt lat="49.342753970995545" lon="-0.75230598449707">
        <ele>18.879999999999999</ele>
        <time>2018-07-04T09:15:21Z</time>
      </trkpt>
      <trkpt lat="49.342812979593873" lon="-0.752364993095398">
        <ele>19.359999999999999</ele>
        <time>2018-07-04T09:15:22Z</time>
      </trkpt>
      <trkpt lat="49.342798981815577" lon="-0.752398017793894">
        <ele>19.359999999999999</ele>
        <time>2018-07-04T09:15:23Z</time>
      </trkpt>
      <trkpt lat="49.342789007350802" lon="-0.752425007522106">
        <ele>19.359999999999999</ele>
        <time>2018-07-04T09:15:24Z</time>
      </trkpt>
      <trkpt lat="49.342803005129099" lon="-0.752339009195566">
        <ele>18.879999999999999</ele>
        <time>2018-07-04T09:15:25Z</time>
      </trkpt>
      <trkpt lat="49.342794036492705" lon="-0.752552999183536">
        <ele>18.879999999999999</ele>
        <time>2018-07-04T09:15:26Z</time>
      </trkpt>
      <trkpt lat="49.34280501678586" lon="-0.752549981698394">
        <ele>18.879999999999999</ele>
        <time>2018-07-04T09:15:27Z</time>
      </trkpt>
      <trkpt lat="49.342821026220918" lon="-0.752547970041633">
        <ele>18.399999999999999</ele>
        <time>2018-07-04T09:15:28Z</time>
      </trkpt>
      <trkpt lat="49.34284801594913" lon="-0.752543024718761">
        <ele>18.399999999999999</ele>
        <time>2018-07-04T09:15:29Z</time>
      </trkpt>
      <trkpt lat="49.342882968485355" lon="-0.752535983920097">
        <ele>17.920000000000002</ele>
        <time>2018-07-04T09:15:30Z</time>
      </trkpt>
      <trkpt lat="49.342921022325754" lon="-0.752529026940465">
        <ele>17.920000000000002</ele>
        <time>2018-07-04T09:15:31Z</time>
      </trkpt>
      <trkpt lat="49.34295698069036" lon="-0.752522991970181">
        <ele>17.440000000000001</ele>
        <time>2018-07-04T09:15:32Z</time>
      </trkpt>
      <trkpt lat="49.343117997050285" lon="-0.752658024430275">
        <ele>16</ele>
        <time>2018-07-04T09:15:40Z</time>
      </trkpt>
      <trkpt lat="49.343179017305374" lon="-0.75264997780323">
        <ele>16</ele>
        <time>2018-07-04T09:15:41Z</time>
      </trkpt>
      <trkpt lat="49.343240037560463" lon="-0.752642014995217">
        <ele>16</ele>
        <time>2018-07-04T09:15:42Z</time>
      </trkpt>
      <trkpt lat="49.343283958733082" lon="-0.752636985853314">
        <ele>16</ele>
        <time>2018-07-04T09:15:43Z</time>
      </trkpt>
      <trkpt lat="49.343304997310042" lon="-0.752633968368173">
        <ele>16</ele>
        <time>2018-07-04T09:15:44Z</time>
      </trkpt>
      <trkpt lat="49.343318995088339" lon="-0.752632962539792">
        <ele>16</ele>
        <time>2018-07-04T09:15:45Z</time>
      </trkpt>
      <trkpt lat="49.343332992866635" lon="-0.752631034702063">
        <ele>15.52</ele>
        <time>2018-07-04T09:15:46Z</time>
      </trkpt>
      <trkpt lat="49.343355037271976" lon="-0.752628017216921">
        <ele>15.52</ele>
        <time>2018-07-04T09:15:47Z</time>
      </trkpt>
      <trkpt lat="49.343384960666299" lon="-0.75252098031342">
        <ele>15.52</ele>
        <time>2018-07-04T09:15:48Z</time>
      </trkpt>
      <trkpt lat="49.343423014506698" lon="-0.75252098031342">
        <ele>15.52</ele>
        <time>2018-07-04T09:15:49Z</time>
      </trkpt>
      <trkpt lat="49.343452015891671" lon="-0.75256397947669">
        <ele>15.52</ele>
        <time>2018-07-04T09:15:50Z</time>
      </trkpt>
      <trkpt lat="49.343462996184826" lon="-0.75260597281158">
        <ele>15.52</ele>
        <time>2018-07-04T09:15:51Z</time>
      </trkpt>
      <trkpt lat="49.343427959829569" lon="-0.752739999443293">
        <ele>15.039999999999999</ele>
        <time>2018-07-04T09:15:52Z</time>
      </trkpt>
      <trkpt lat="49.343442963436246" lon="-0.752833038568497">
        <ele>14.56</ele>
        <time>2018-07-04T09:15:53Z</time>
      </trkpt>
      <trkpt lat="49.343458972871304" lon="-0.752930017188191">
        <ele>14.56</ele>
        <time>2018-07-04T09:15:54Z</time>
      </trkpt>
      <trkpt lat="49.343477999791503" lon="-0.753040993586183">
        <ele>14.08</ele>
        <time>2018-07-04T09:15:55Z</time>
      </trkpt>
      <trkpt lat="49.343497026711702" lon="-0.753159010782838">
        <ele>14.08</ele>
        <time>2018-07-04T09:15:56Z</time>
      </trkpt>
      <trkpt lat="49.343657959252596" lon="-0.754122007638216">
        <ele>16.48</ele>
        <time>2018-07-04T09:16:04Z</time>
      </trkpt>
      <trkpt lat="49.343676986172795" lon="-0.75434697791934">
        <ele>16.960000000000001</ele>
        <time>2018-07-04T09:16:06Z</time>
      </trkpt>
      <trkpt lat="49.343676986172795" lon="-0.754457032307982">
        <ele>17.440000000000001</ele>
        <time>2018-07-04T09:16:07Z</time>
      </trkpt>
      <trkpt lat="49.343673968687654" lon="-0.754569014534354">
        <ele>17.440000000000001</ele>
        <time>2018-07-04T09:16:08Z</time>
      </trkpt>
      <trkpt lat="49.343670029193163" lon="-0.754763977602124">
        <ele>18.399999999999999</ele>
        <time>2018-07-04T09:16:10Z</time>
      </trkpt>
      <trkpt lat="49.343668017536402" lon="-0.754849975928664">
        <ele>18.399999999999999</ele>
        <time>2018-07-04T09:16:11Z</time>
      </trkpt>
      <trkpt lat="49.343667011708021" lon="-0.754933962598443">
        <ele>18.879999999999999</ele>
        <time>2018-07-04T09:16:12Z</time>
      </trkpt>
      <trkpt lat="49.34366500005126" lon="-0.755007974803448">
        <ele>19.359999999999999</ele>
        <time>2018-07-04T09:16:13Z</time>
      </trkpt>
      <trkpt lat="49.343663994222879" lon="-0.755082992836833">
        <ele>19.359999999999999</ele>
        <time>2018-07-04T09:16:14Z</time>
      </trkpt>
      <trkpt lat="49.343661982566118" lon="-0.755149964243174">
        <ele>19.84</ele>
        <time>2018-07-04T09:16:15Z</time>
      </trkpt>
      <trkpt lat="49.343660976737738" lon="-0.755212996155024">
        <ele>19.84</ele>
        <time>2018-07-04T09:16:16Z</time>
      </trkpt>
      <trkpt lat="49.343658965080976" lon="-0.755286002531648">
        <ele>20.32</ele>
        <time>2018-07-04T09:16:17Z</time>
      </trkpt>
      <trkpt lat="49.343657959252596" lon="-0.755366971716285">
        <ele>20.32</ele>
        <time>2018-07-04T09:16:18Z</time>
      </trkpt>
      <trkpt lat="49.343656031414866" lon="-0.755460010841489">
        <ele>20.809999999999999</ele>
        <time>2018-07-04T09:16:19Z</time>
      </trkpt>
      <trkpt lat="49.343666005879641" lon="-0.756084965541959">
        <ele>22.25</ele>
        <time>2018-07-04T09:16:25Z</time>
      </trkpt>
      <trkpt lat="49.343673968687654" lon="-0.75621304102242">
        <ele>22.25</ele>
        <time>2018-07-04T09:16:26Z</time>
      </trkpt>
      <trkpt lat="49.343729037791491" lon="-0.756848976016045">
        <ele>24.649999999999999</ele>
        <time>2018-07-04T09:16:31Z</time>
      </trkpt>
      <trkpt lat="49.343748986721039" lon="-0.756976967677474">
        <ele>24.649999999999999</ele>
        <time>2018-07-04T09:16:32Z</time>
      </trkpt>
      <trkpt lat="49.343994995579123" lon="-0.758160995319486">
        <ele>25.609999999999999</ele>
        <time>2018-07-04T09:16:41Z</time>
      </trkpt>
      <trkpt lat="49.344003964215517" lon="-0.758284963667393">
        <ele>26.09</ele>
        <time>2018-07-04T09:16:42Z</time>
      </trkpt>
      <trkpt lat="49.344009999185801" lon="-0.758413961157203">
        <ele>26.09</ele>
        <time>2018-07-04T09:16:43Z</time>
      </trkpt>
      <trkpt lat="49.344016034156084" lon="-0.758545976132154">
        <ele>26.09</ele>
        <time>2018-07-04T09:16:44Z</time>
      </trkpt>
      <trkpt lat="49.343984015285969" lon="-0.759065989404917">
        <ele>26.57</ele>
        <time>2018-07-04T09:16:48Z</time>
      </trkpt>
      <trkpt lat="49.343972029164433" lon="-0.759198004379869">
        <ele>27.050000000000001</ele>
        <time>2018-07-04T09:16:49Z</time>
      </trkpt>
      <trkpt lat="49.343792991712689" lon="-0.760584035888314">
        <ele>28.98</ele>
        <time>2018-07-04T09:16:59Z</time>
      </trkpt>
      <trkpt lat="49.343686960637569" lon="-0.761575028300285">
        <ele>29.460000000000001</ele>
        <time>2018-07-04T09:17:07Z</time>
      </trkpt>
      <trkpt lat="49.343557963147759" lon="-0.762966005131602">
        <ele>31.379999999999999</ele>
        <time>2018-07-04T09:17:16Z</time>
      </trkpt>
      <trkpt lat="49.343542959541082" lon="-0.763144958764315">
        <ele>31.379999999999999</ele>
        <time>2018-07-04T09:17:17Z</time>
      </trkpt>
      <trkpt lat="49.343402981758118" lon="-0.76506701298058">
        <ele>34.259999999999998</ele>
        <time>2018-07-04T09:17:27Z</time>
      </trkpt>
      <trkpt lat="49.343340033665299" lon="-0.765458028763533">
        <ele>34.740000000000002</ele>
        <time>2018-07-04T09:17:29Z</time>
      </trkpt>
      <trkpt lat="49.343266021460295" lon="-0.76586295850575">
        <ele>35.229999999999997</ele>
        <time>2018-07-04T09:17:31Z</time>
      </trkpt>
      <trkpt lat="49.343195026740432" lon="-0.766253974288702">
        <ele>35.710000000000001</ele>
        <time>2018-07-04T09:17:33Z</time>
      </trkpt>
      <trkpt lat="49.343174993991852" lon="-0.766433011740446">
        <ele>35.710000000000001</ele>
        <time>2018-07-04T09:17:34Z</time>
      </trkpt>
      <trkpt lat="49.343160996213555" lon="-0.766612971201539">
        <ele>36.189999999999998</ele>
        <time>2018-07-04T09:17:35Z</time>
      </trkpt>
      <trkpt lat="49.343252023681998" lon="-0.768730994313955">
        <ele>42.439999999999998</ele>
        <time>2018-07-04T09:17:45Z</time>
      </trkpt>
      <trkpt lat="49.343289993703365" lon="-0.768942972645164">
        <ele>43.880000000000003</ele>
        <time>2018-07-04T09:17:46Z</time>
      </trkpt>
      <trkpt lat="49.343835990875959" lon="-0.770592028275132">
        <ele>54.450000000000003</ele>
        <time>2018-07-04T09:17:55Z</time>
      </trkpt>
      <trkpt lat="49.344273023307323" lon="-0.772203030064702">
        <ele>64.069999999999993</ele>
        <time>2018-07-04T09:18:04Z</time>
      </trkpt>
      <trkpt lat="49.344284003600478" lon="-0.77278196811676">
        <ele>68.390000000000001</ele>
        <time>2018-07-04T09:18:10Z</time>
      </trkpt>
      <trkpt lat="49.344271011650562" lon="-0.773067958652973">
        <ele>70.790000000000006</ele>
        <time>2018-07-04T09:18:19Z</time>
      </trkpt>
      <trkpt lat="49.34426698833704" lon="-0.773155968636274">
        <ele>71.760000000000005</ele>
        <time>2018-07-04T09:18:42Z</time>
      </trkpt>
      <trkpt lat="49.344270005822182" lon="-0.774035984650254">
        <ele>72.719999999999999</ele>
        <time>2018-07-04T09:18:50Z</time>
      </trkpt>
      <trkpt lat="49.344272017478943" lon="-0.774172022938728">
        <ele>72.719999999999999</ele>
        <time>2018-07-04T09:18:51Z</time>
      </trkpt>
      <trkpt lat="49.344381988048553" lon="-0.775888971984386">
        <ele>71.269999999999996</ele>
        <time>2018-07-04T09:19:01Z</time>
      </trkpt>
      <trkpt lat="49.344411995261908" lon="-0.776262972503901">
        <ele>71.269999999999996</ele>
        <time>2018-07-04T09:19:03Z</time>
      </trkpt>
      <trkpt lat="49.344463041052222" lon="-0.77664895914495">
        <ele>71.269999999999996</ele>
        <time>2018-07-04T09:19:05Z</time>
      </trkpt>
      <trkpt lat="49.344558008015156" lon="-0.777038969099522">
        <ele>72.239999999999995</ele>
        <time>2018-07-04T09:19:07Z</time>
      </trkpt>
      <trkpt lat="49.345075003802776" lon="-0.778705039992929">
        <ele>75.599999999999994</ele>
        <time>2018-07-04T09:19:16Z</time>
      </trkpt>
      <trkpt lat="49.345540031790733" lon="-0.781054990366101">
        <ele>75.120000000000005</ele>
        <time>2018-07-04T09:19:28Z</time>
      </trkpt>
      <trkpt lat="49.345837002620101" lon="-0.781791005283594">
        <ele>74.640000000000001</ele>
        <time>2018-07-04T09:19:32Z</time>
      </trkpt>
      <trkpt lat="49.346948023885489" lon="-0.783709958195686">
        <ele>75.120000000000005</ele>
        <time>2018-07-04T09:19:43Z</time>
      </trkpt>
      <trkpt lat="49.347453033551574" lon="-0.785234961658716">
        <ele>73.680000000000007</ele>
        <time>2018-07-04T09:19:51Z</time>
      </trkpt>
      <trkpt lat="49.347548000514507" lon="-0.78539396636188">
        <ele>73.680000000000007</ele>
        <time>2018-07-04T09:19:52Z</time>
      </trkpt>
      <trkpt lat="49.347654031589627" lon="-0.785527992993593">
        <ele>73.200000000000003</ele>
        <time>2018-07-04T09:19:53Z</time>
      </trkpt>
      <trkpt lat="49.348217966035008" lon="-0.786241963505745">
        <ele>73.200000000000003</ele>
        <time>2018-07-04T09:19:58Z</time>
      </trkpt>
      <trkpt lat="49.348302958533168" lon="-0.786431981250644">
        <ele>72.719999999999999</ele>
        <time>2018-07-04T09:19:59Z</time>
      </trkpt>
      <trkpt lat="49.348366996273398" lon="-0.78661797568202">
        <ele>72.239999999999995</ele>
        <time>2018-07-04T09:20:00Z</time>
      </trkpt>
      <trkpt lat="49.348403960466385" lon="-0.786825008690357">
        <ele>72.239999999999995</ele>
        <time>2018-07-04T09:20:01Z</time>
      </trkpt>
      <trkpt lat="49.348441008478403" lon="-0.787035981193185">
        <ele>71.760000000000005</ele>
        <time>2018-07-04T09:20:02Z</time>
      </trkpt>
      <trkpt lat="49.348444025963545" lon="-0.787264974787831">
        <ele>71.760000000000005</ele>
        <time>2018-07-04T09:20:03Z</time>
      </trkpt>
      <trkpt lat="49.348446959629655" lon="-0.787506038323045">
        <ele>71.269999999999996</ele>
        <time>2018-07-04T09:20:04Z</time>
      </trkpt>
      <trkpt lat="49.348467998206615" lon="-0.790261002257466">
        <ele>69.829999999999998</ele>
        <time>2018-07-04T09:20:14Z</time>
      </trkpt>
      <trkpt lat="49.348537987098098" lon="-0.791288036853075">
        <ele>69.349999999999994</ele>
        <time>2018-07-04T09:20:18Z</time>
      </trkpt>
      <trkpt lat="49.348603030666709" lon="-0.791473025456071">
        <ele>69.349999999999994</ele>
        <time>2018-07-04T09:20:19Z</time>
      </trkpt>
      <trkpt lat="49.348686011508107" lon="-0.79164401628077">
        <ele>69.349999999999994</ele>
        <time>2018-07-04T09:20:20Z</time>
      </trkpt>
      <trkpt lat="49.348772009834647" lon="-0.791820036247373">
        <ele>69.349999999999994</ele>
        <time>2018-07-04T09:20:21Z</time>
      </trkpt>
      <trkpt lat="49.348861025646329" lon="-0.792004019021988">
        <ele>68.870000000000005</ele>
        <time>2018-07-04T09:20:22Z</time>
      </trkpt>
      <trkpt lat="49.349208036437631" lon="-0.79271798953414">
        <ele>68.390000000000001</ele>
        <time>2018-07-04T09:20:26Z</time>
      </trkpt>
      <trkpt lat="49.349266039207578" lon="-0.792897026985884">
        <ele>68.390000000000001</ele>
        <time>2018-07-04T09:20:27Z</time>
      </trkpt>
      <trkpt lat="49.349291017279029" lon="-0.793106993660331">
        <ele>68.390000000000001</ele>
        <time>2018-07-04T09:20:28Z</time>
      </trkpt>
      <trkpt lat="49.349321024492383" lon="-0.793355014175177">
        <ele>68.870000000000005</ele>
        <time>2018-07-04T09:20:29Z</time>
      </trkpt>
      <trkpt lat="49.349309960380197" lon="-0.793558023869991">
        <ele>68.390000000000001</ele>
        <time>2018-07-04T09:20:30Z</time>
      </trkpt>
      <trkpt lat="49.349297974258661" lon="-0.793794980272651">
        <ele>68.870000000000005</ele>
        <time>2018-07-04T09:20:31Z</time>
      </trkpt>
      <trkpt lat="49.349171994253993" lon="-0.7960269972682">
        <ele>69.349999999999994</ele>
        <time>2018-07-04T09:20:40Z</time>
      </trkpt>
      <trkpt lat="49.348955992609262" lon="-0.798343000933528">
        <ele>67.909999999999997</ele>
        <time>2018-07-04T09:20:51Z</time>
      </trkpt>
      <trkpt lat="49.34892900288105" lon="-0.798522038385272">
        <ele>67.430000000000007</ele>
        <time>2018-07-04T09:20:52Z</time>
      </trkpt>
      <trkpt lat="49.348889021202922" lon="-0.798683976754546">
        <ele>67.430000000000007</ele>
        <time>2018-07-04T09:20:53Z</time>
      </trkpt>
      <trkpt lat="49.348817020654678" lon="-0.798839963972569">
        <ele>67.430000000000007</ele>
        <time>2018-07-04T09:20:54Z</time>
      </trkpt>
      <trkpt lat="49.34854201041162" lon="-0.799429966136813">
        <ele>66.950000000000003</ele>
        <time>2018-07-04T09:20:58Z</time>
      </trkpt>
      <trkpt lat="49.34847797267139" lon="-0.799567010253668">
        <ele>66.469999999999999</ele>
        <time>2018-07-04T09:20:59Z</time>
      </trkpt>
      <trkpt lat="49.348215032368898" lon="-0.80008601769805">
        <ele>65.510000000000005</ele>
        <time>2018-07-04T09:21:03Z</time>
      </trkpt>
      <trkpt lat="49.348142025992274" lon="-0.800204034894705">
        <ele>65.510000000000005</ele>
        <time>2018-07-04T09:21:04Z</time>
      </trkpt>
      <trkpt lat="49.348061978816986" lon="-0.800291961058974">
        <ele>65.030000000000001</ele>
        <time>2018-07-04T09:21:05Z</time>
      </trkpt>
      <trkpt lat="49.347978997975588" lon="-0.800364967435598">
        <ele>65.030000000000001</ele>
        <time>2018-07-04T09:21:06Z</time>
      </trkpt>
      <trkpt lat="49.347902974113822" lon="-0.800433028489351">
        <ele>64.549999999999997</ele>
        <time>2018-07-04T09:21:07Z</time>
      </trkpt>
      <trkpt lat="49.347831979393959" lon="-0.800494970753789">
        <ele>64.069999999999993</ele>
        <time>2018-07-04T09:21:08Z</time>
      </trkpt>
      <trkpt lat="49.347761990502477" lon="-0.800556996837258">
        <ele>63.579999999999998</ele>
        <time>2018-07-04T09:21:09Z</time>
      </trkpt>
      <trkpt lat="49.347732989117503" lon="-0.800691023468971">
        <ele>62.619999999999997</ele>
        <time>2018-07-04T09:21:10Z</time>
      </trkpt>
      <trkpt lat="49.347713040187955" lon="-0.800812980160117">
        <ele>61.659999999999997</ele>
        <time>2018-07-04T09:21:11Z</time>
      </trkpt>
      <trkpt lat="49.347711028531194" lon="-0.800936026498675">
        <ele>61.18</ele>
        <time>2018-07-04T09:21:12Z</time>
      </trkpt>
      <trkpt lat="49.347711028531194" lon="-0.801079021766782">
        <ele>60.700000000000003</ele>
        <time>2018-07-04T09:21:13Z</time>
      </trkpt>
      <trkpt lat="49.347711028531194" lon="-0.801398959010839">
        <ele>60.219999999999999</ele>
        <time>2018-07-04T09:21:15Z</time>
      </trkpt>
      <trkpt lat="49.347711028531194" lon="-0.801568021997809">
        <ele>60.219999999999999</ele>
        <time>2018-07-04T09:21:16Z</time>
      </trkpt>
      <trkpt lat="49.347633998841047" lon="-0.802708966657519">
        <ele>59.740000000000002</ele>
        <time>2018-07-04T09:21:22Z</time>
      </trkpt>
      <trkpt lat="49.347616983577609" lon="-0.802894961088896">
        <ele>59.259999999999998</ele>
        <time>2018-07-04T09:21:23Z</time>
      </trkpt>
      <trkpt lat="49.347224039956927" lon="-0.804474027827382">
        <ele>56.369999999999997</ele>
        <time>2018-07-04T09:21:32Z</time>
      </trkpt>
      <trkpt lat="49.346948023885489" lon="-0.80539301969111">
        <ele>53.490000000000002</ele>
        <time>2018-07-04T09:21:38Z</time>
      </trkpt>
      <trkpt lat="49.346918016672134" lon="-0.805557975545526">
        <ele>53.009999999999998</ele>
        <time>2018-07-04T09:21:39Z</time>
      </trkpt>
      <trkpt lat="49.346881974488497" lon="-0.805877996608615">
        <ele>52.530000000000001</ele>
        <time>2018-07-04T09:21:41Z</time>
      </trkpt>
      <trkpt lat="49.346896978095174" lon="-0.806037001311779">
        <ele>52.049999999999997</ele>
        <time>2018-07-04T09:21:42Z</time>
      </trkpt>
      <trkpt lat="49.347057994455099" lon="-0.807165037840605">
        <ele>52.049999999999997</ele>
        <time>2018-07-04T09:21:51Z</time>
      </trkpt>
      <trkpt lat="49.347304003313184" lon="-0.807950003072619">
        <ele>55.409999999999997</ele>
        <time>2018-07-04T09:21:58Z</time>
      </trkpt>
      <trkpt lat="49.34735999442637" lon="-0.808063996955752">
        <ele>55.890000000000001</ele>
        <time>2018-07-04T09:21:59Z</time>
      </trkpt>
      <trkpt lat="49.347415985539556" lon="-0.808180002495646">
        <ele>56.369999999999997</ele>
        <time>2018-07-04T09:22:00Z</time>
      </trkpt>
      <trkpt lat="49.348118975758553" lon="-0.809667035937309">
        <ele>64.549999999999997</ele>
        <time>2018-07-04T09:22:11Z</time>
      </trkpt>
      <trkpt lat="49.348654998466372" lon="-0.811120960861444">
        <ele>67.909999999999997</ele>
        <time>2018-07-04T09:22:19Z</time>
      </trkpt>
      <trkpt lat="49.348663967102766" lon="-0.81132598221302">
        <ele>68.390000000000001</ele>
        <time>2018-07-04T09:22:20Z</time>
      </trkpt>
      <trkpt lat="49.348679976537824" lon="-0.811726972460747">
        <ele>68.870000000000005</ele>
        <time>2018-07-04T09:22:22Z</time>
      </trkpt>
      <trkpt lat="49.348751977086067" lon="-0.813290029764175">
        <ele>69.829999999999998</ele>
        <time>2018-07-04T09:22:30Z</time>
      </trkpt>
      <trkpt lat="49.348771004006267" lon="-0.813440987840295">
        <ele>69.829999999999998</ele>
        <time>2018-07-04T09:22:31Z</time>
      </trkpt>
      <trkpt lat="49.348789025098085" lon="-0.813583983108401">
        <ele>69.829999999999998</ele>
        <time>2018-07-04T09:22:32Z</time>
      </trkpt>
      <trkpt lat="49.348877035081387" lon="-0.814286973327398">
        <ele>69.829999999999998</ele>
        <time>2018-07-04T09:22:37Z</time>
      </trkpt>
      <trkpt lat="49.348912993445992" lon="-0.815035980194807">
        <ele>69.829999999999998</ele>
        <time>2018-07-04T09:22:42Z</time>
      </trkpt>
      <trkpt lat="49.348910981789231" lon="-0.815204959362745">
        <ele>69.829999999999998</ele>
        <time>2018-07-04T09:22:43Z</time>
      </trkpt>
      <trkpt lat="49.348823977634311" lon="-0.816684029996395">
        <ele>71.760000000000005</ele>
        <time>2018-07-04T09:22:52Z</time>
      </trkpt>
      <trkpt lat="49.348807968199253" lon="-0.816956022754312">
        <ele>72.239999999999995</ele>
        <time>2018-07-04T09:22:54Z</time>
      </trkpt>
      <trkpt lat="49.34882003813982" lon="-0.817739982157946">
        <ele>73.200000000000003</ele>
        <time>2018-07-04T09:22:59Z</time>
      </trkpt>
      <trkpt lat="49.348845016211271" lon="-0.817896975204349">
        <ele>73.200000000000003</ele>
        <time>2018-07-04T09:23:00Z</time>
      </trkpt>
      <trkpt lat="49.349048025906086" lon="-0.819205977022648">
        <ele>74.640000000000001</ele>
        <time>2018-07-04T09:23:10Z</time>
      </trkpt>
      <trkpt lat="49.349059006199241" lon="-0.819277977570891">
        <ele>74.640000000000001</ele>
        <time>2018-07-04T09:23:11Z</time>
      </trkpt>
      <trkpt lat="49.349069986492395" lon="-0.819347966462374">
        <ele>74.159999999999997</ele>
        <time>2018-07-04T09:23:12Z</time>
      </trkpt>
      <trkpt lat="49.34908096678555" lon="-0.819422984495759">
        <ele>74.159999999999997</ele>
        <time>2018-07-04T09:23:13Z</time>
      </trkpt>
      <trkpt lat="49.349094964563847" lon="-0.819513006135821">
        <ele>74.640000000000001</ele>
        <time>2018-07-04T09:23:14Z</time>
      </trkpt>
      <trkpt lat="49.34927299618721" lon="-0.82066903822124">
        <ele>74.159999999999997</ele>
        <time>2018-07-04T09:23:23Z</time>
      </trkpt>
      <trkpt lat="49.349662000313401" lon="-0.822629984468222">
        <ele>74.159999999999997</ele>
        <time>2018-07-04T09:23:35Z</time>
      </trkpt>
      <trkpt lat="49.350025020539761" lon="-0.824337964877486">
        <ele>75.599999999999994</ele>
        <time>2018-07-04T09:23:46Z</time>
      </trkpt>
      <trkpt lat="49.350049998611212" lon="-0.824454976245761">
        <ele>75.120000000000005</ele>
        <time>2018-07-04T09:23:47Z</time>
      </trkpt>
      <trkpt lat="49.350328026339412" lon="-0.826008981093764">
        <ele>75.599999999999994</ele>
        <time>2018-07-04T09:23:58Z</time>
      </trkpt>
      <trkpt lat="49.350417964160442" lon="-0.827744035050273">
        <ele>75.599999999999994</ele>
        <time>2018-07-04T09:24:07Z</time>
      </trkpt>
      <trkpt lat="49.350201962515712" lon="-0.82967103458941">
        <ele>76.560000000000002</ele>
        <time>2018-07-04T09:24:17Z</time>
      </trkpt>
      <trkpt lat="49.350087968632579" lon="-0.832388028502464">
        <ele>76.560000000000002</ele>
        <time>2018-07-04T09:24:29Z</time>
      </trkpt>
      <trkpt lat="49.350047986954451" lon="-0.833746986463666">
        <ele>75.599999999999994</ele>
        <time>2018-07-04T09:24:36Z</time>
      </trkpt>
      <trkpt lat="49.350043041631579" lon="-0.833917977288365">
        <ele>75.120000000000005</ele>
        <time>2018-07-04T09:24:37Z</time>
      </trkpt>
      <trkpt lat="49.349980009719729" lon="-0.835931980982423">
        <ele>74.159999999999997</ele>
        <time>2018-07-04T09:24:49Z</time>
      </trkpt>
      <trkpt lat="49.349907003343105" lon="-0.837353970855474">
        <ele>73.200000000000003</ele>
        <time>2018-07-04T09:24:58Z</time>
      </trkpt>
      <trkpt lat="49.349663006141782" lon="-0.838669007644057">
        <ele>71.269999999999996</ele>
        <time>2018-07-04T09:25:06Z</time>
      </trkpt>
      <trkpt lat="49.349094964563847" lon="-0.840107006952167">
        <ele>69.829999999999998</ele>
        <time>2018-07-04T09:25:16Z</time>
      </trkpt>
      <trkpt lat="49.348940989002585" lon="-0.840670019388199">
        <ele>69.829999999999998</ele>
        <time>2018-07-04T09:25:21Z</time>
      </trkpt>
      <trkpt lat="49.348943000659347" lon="-0.840792981907725">
        <ele>69.829999999999998</ele>
        <time>2018-07-04T09:25:25Z</time>
      </trkpt>
      <trkpt lat="49.348956998437643" lon="-0.84080102853477">
        <ele>69.349999999999994</ele>
        <time>2018-07-04T09:25:26Z</time>
      </trkpt>
      <trkpt lat="49.348975019529462" lon="-0.840811002999544">
        <ele>69.829999999999998</ele>
        <time>2018-07-04T09:25:27Z</time>
      </trkpt>
      <trkpt lat="49.348997985944152" lon="-0.840825000777841">
        <ele>69.829999999999998</ele>
        <time>2018-07-04T09:25:28Z</time>
      </trkpt>
      <trkpt lat="49.349027993157506" lon="-0.840842016041279">
        <ele>69.829999999999998</ele>
        <time>2018-07-04T09:25:29Z</time>
      </trkpt>
      <trkpt lat="49.349066969007254" lon="-0.840861964970827">
        <ele>69.349999999999994</ele>
        <time>2018-07-04T09:25:30Z</time>
      </trkpt>
      <trkpt lat="49.34912396594882" lon="-0.840873029083014">
        <ele>69.349999999999994</ele>
        <time>2018-07-04T09:25:31Z</time>
      </trkpt>
      <trkpt lat="49.349237037822604" lon="-0.840893983840942">
        <ele>68.870000000000005</ele>
        <time>2018-07-04T09:25:33Z</time>
      </trkpt>
      <trkpt lat="49.349517999216914" lon="-0.840946035459638">
        <ele>67.430000000000007</ele>
        <time>2018-07-04T09:25:38Z</time>
      </trkpt>
      <trkpt lat="49.349584970623255" lon="-0.840958021581173">
        <ele>66.950000000000003</ele>
        <time>2018-07-04T09:25:39Z</time>
      </trkpt>
      <trkpt lat="49.349646996706724" lon="-0.840970007702708">
        <ele>66.950000000000003</ele>
        <time>2018-07-04T09:25:40Z</time>
      </trkpt>
      <trkpt lat="49.349827039986849" lon="-0.841015018522739">
        <ele>66.469999999999999</ele>
        <time>2018-07-04T09:25:43Z</time>
      </trkpt>
      <trkpt lat="49.349899962544441" lon="-0.841033039614558">
        <ele>65.989999999999995</ele>
        <time>2018-07-04T09:25:45Z</time>
      </trkpt>
      <trkpt lat="49.349931981414557" lon="-0.841097999364138">
        <ele>65.510000000000005</ele>
        <time>2018-07-04T09:25:46Z</time>
      </trkpt>
      <trkpt lat="49.349965006113052" lon="-0.841164970770478">
        <ele>65.510000000000005</ele>
        <time>2018-07-04T09:25:47Z</time>
      </trkpt>
      <trkpt lat="49.350002976134419" lon="-0.841238982975483">
        <ele>65.510000000000005</ele>
        <time>2018-07-04T09:25:48Z</time>
      </trkpt>
      <trkpt lat="49.350043963640928" lon="-0.841321041807532">
        <ele>65.030000000000001</ele>
        <time>2018-07-04T09:25:49Z</time>
      </trkpt>
      <trkpt lat="49.350127028301358" lon="-0.841516004875302">
        <ele>64.549999999999997</ele>
        <time>2018-07-04T09:25:51Z</time>
      </trkpt>
      <trkpt lat="49.350163992494345" lon="-0.8416180126369">
        <ele>64.549999999999997</ele>
        <time>2018-07-04T09:25:52Z</time>
      </trkpt>
      <trkpt lat="49.350215038284659" lon="-0.841846000403166">
        <ele>64.549999999999997</ele>
        <time>2018-07-04T09:25:54Z</time>
      </trkpt>
      <trkpt lat="49.350228030234575" lon="-0.841961000114679">
        <ele>64.069999999999993</ele>
        <time>2018-07-04T09:25:55Z</time>
      </trkpt>
      <trkpt lat="49.350241022184491" lon="-0.842072982341051">
        <ele>64.069999999999993</ele>
        <time>2018-07-04T09:25:56Z</time>
      </trkpt>
      <trkpt lat="49.350264994427562" lon="-0.842787036672235">
        <ele>61.659999999999997</ele>
        <time>2018-07-04T09:26:02Z</time>
      </trkpt>
      <trkpt lat="49.350264994427562" lon="-0.842917039990425">
        <ele>61.18</ele>
        <time>2018-07-04T09:26:03Z</time>
      </trkpt>
      <trkpt lat="49.350264994427562" lon="-0.843049976974726">
        <ele>60.700000000000003</ele>
        <time>2018-07-04T09:26:04Z</time>
      </trkpt>
      <trkpt lat="49.350269017741084" lon="-0.843176040798426">
        <ele>59.740000000000002</ele>
        <time>2018-07-04T09:26:05Z</time>
      </trkpt>
      <trkpt lat="49.350279998034239" lon="-0.843290034681559">
        <ele>58.299999999999997</ele>
        <time>2018-07-04T09:26:06Z</time>
      </trkpt>
      <trkpt lat="49.350290978327394" lon="-0.84340201690793">
        <ele>57.340000000000003</ele>
        <time>2018-07-04T09:26:07Z</time>
      </trkpt>
      <trkpt lat="49.350300030782819" lon="-0.843501007184386">
        <ele>55.890000000000001</ele>
        <time>2018-07-04T09:26:08Z</time>
      </trkpt>
      <trkpt lat="49.350310005247593" lon="-0.843597985804081">
        <ele>54.93</ele>
        <time>2018-07-04T09:26:09Z</time>
      </trkpt>
      <trkpt lat="49.350318973883986" lon="-0.843693958595395">
        <ele>53.969999999999999</ele>
        <time>2018-07-04T09:26:10Z</time>
      </trkpt>
      <trkpt lat="49.350328026339412" lon="-0.843782974407077">
        <ele>53.009999999999998</ele>
        <time>2018-07-04T09:26:11Z</time>
      </trkpt>
      <trkpt lat="49.350336994975805" lon="-0.843878025189042">
        <ele>52.049999999999997</ele>
        <time>2018-07-04T09:26:12Z</time>
      </trkpt>
      <trkpt lat="49.350346969440579" lon="-0.84398003295064">
        <ele>51.090000000000003</ele>
        <time>2018-07-04T09:26:13Z</time>
      </trkpt>
      <trkpt lat="49.350372031331062" lon="-0.844230987131596">
        <ele>49.159999999999997</ele>
        <time>2018-07-04T09:26:15Z</time>
      </trkpt>
      <trkpt lat="49.350358033552766" lon="-0.844307010993361">
        <ele>48.68</ele>
        <time>2018-07-04T09:26:16Z</time>
      </trkpt>
      <trkpt lat="49.350296007469296" lon="-0.844653015956283">
        <ele>45.32</ele>
        <time>2018-07-04T09:26:19Z</time>
      </trkpt>
      <trkpt lat="49.350247979164124" lon="-0.845119971781969">
        <ele>35.710000000000001</ele>
        <time>2018-07-04T09:26:26Z</time>
      </trkpt>
      <trkpt lat="49.350264994427562" lon="-0.845152996480465">
        <ele>34.259999999999998</ele>
        <time>2018-07-04T09:26:27Z</time>
      </trkpt>
      <trkpt lat="49.350282009691" lon="-0.845162970945239">
        <ele>33.299999999999997</ele>
        <time>2018-07-04T09:26:28Z</time>
      </trkpt>
      <trkpt lat="49.350317968055606" lon="-0.8451840095222">
        <ele>32.340000000000003</ele>
        <time>2018-07-04T09:26:29Z</time>
      </trkpt>
      <trkpt lat="49.350355016067624" lon="-0.845204964280128">
        <ele>31.379999999999999</ele>
        <time>2018-07-04T09:26:30Z</time>
      </trkpt>
      <trkpt lat="49.350415030494332" lon="-0.845238994807005">
        <ele>28.98</ele>
        <time>2018-07-04T09:26:32Z</time>
      </trkpt>
      <trkpt lat="49.350528018549085" lon="-0.845179986208677">
        <ele>28.02</ele>
        <time>2018-07-04T09:26:34Z</time>
      </trkpt>
      <trkpt lat="49.350787019357085" lon="-0.845045037567616">
        <ele>24.170000000000002</ele>
        <time>2018-07-04T09:26:39Z</time>
      </trkpt>
      <trkpt lat="49.350837981328368" lon="-0.845017964020371">
        <ele>23.690000000000001</ele>
        <time>2018-07-04T09:26:40Z</time>
      </trkpt>
      <trkpt lat="49.350901013240218" lon="-0.844986028969288">
        <ele>23.210000000000001</ele>
        <time>2018-07-04T09:26:41Z</time>
      </trkpt>
      <trkpt lat="49.350977037101984" lon="-0.844975970685482">
        <ele>22.25</ele>
        <time>2018-07-04T09:26:42Z</time>
      </trkpt>
      <trkpt lat="49.351044008508325" lon="-0.84497001953423">
        <ele>21.77</ele>
        <time>2018-07-04T09:26:43Z</time>
      </trkpt>
      <trkpt lat="49.35118499211967" lon="-0.844957027584314">
        <ele>21.289999999999999</ele>
        <time>2018-07-04T09:26:45Z</time>
      </trkpt>
      <trkpt lat="49.351324969902635" lon="-0.844944035634398">
        <ele>21.289999999999999</ele>
        <time>2018-07-04T09:26:47Z</time>
      </trkpt>
      <trkpt lat="49.351394958794117" lon="-0.844944035634398">
        <ele>21.77</ele>
        <time>2018-07-04T09:26:48Z</time>
      </trkpt>
      <trkpt lat="49.351521022617817" lon="-0.844987034797668">
        <ele>22.73</ele>
        <time>2018-07-04T09:26:50Z</time>
      </trkpt>
      <trkpt lat="49.351581959053874" lon="-0.845007989555597">
        <ele>23.210000000000001</ele>
        <time>2018-07-04T09:26:51Z</time>
      </trkpt>
      <trkpt lat="49.351629987359047" lon="-0.845025004819036">
        <ele>23.690000000000001</ele>
        <time>2018-07-04T09:26:52Z</time>
      </trkpt>
      <trkpt lat="49.351673992350698" lon="-0.845040008425713">
        <ele>24.170000000000002</ele>
        <time>2018-07-04T09:26:53Z</time>
      </trkpt>
      <trkpt lat="49.351727971807122" lon="-0.845058029517531">
        <ele>24.649999999999999</ele>
        <time>2018-07-04T09:26:54Z</time>
      </trkpt>
      <trkpt lat="49.351781029254198" lon="-0.845076972618699">
        <ele>25.129999999999999</ele>
        <time>2018-07-04T09:26:55Z</time>
      </trkpt>
      <trkpt lat="49.351890999823809" lon="-0.845115026459098">
        <ele>26.09</ele>
        <time>2018-07-04T09:26:57Z</time>
      </trkpt>
      <trkpt lat="49.352005999535322" lon="-0.845155008137226">
        <ele>27.050000000000001</ele>
        <time>2018-07-04T09:26:59Z</time>
      </trkpt>
      <trkpt lat="49.352061990648508" lon="-0.845197001472116">
        <ele>27.530000000000001</ele>
        <time>2018-07-04T09:27:00Z</time>
      </trkpt>
      <trkpt lat="49.352117981761694" lon="-0.845237988978624">
        <ele>28.02</ele>
        <time>2018-07-04T09:27:01Z</time>
      </trkpt>
      <trkpt lat="49.352172967046499" lon="-0.845277970656753">
        <ele>28.02</ele>
        <time>2018-07-04T09:27:02Z</time>
      </trkpt>
      <trkpt lat="49.352228958159685" lon="-0.845318958163261">
        <ele>28.5</ele>
        <time>2018-07-04T09:27:03Z</time>
      </trkpt>
      <trkpt lat="49.352283021435142" lon="-0.845358017832041">
        <ele>28.98</ele>
        <time>2018-07-04T09:27:04Z</time>
      </trkpt>
      <trkpt lat="49.352338006719947" lon="-0.84539900533855">
        <ele>29.460000000000001</ele>
        <time>2018-07-04T09:27:05Z</time>
      </trkpt>
      <trkpt lat="49.352391986176372" lon="-0.845437981188297">
        <ele>29.940000000000001</ele>
        <time>2018-07-04T09:27:06Z</time>
      </trkpt>
      <trkpt lat="49.352445965632796" lon="-0.845477040857077">
        <ele>30.420000000000002</ele>
        <time>2018-07-04T09:27:07Z</time>
      </trkpt>
      <trkpt lat="49.352507991716266" lon="-0.845522973686457">
        <ele>30.899999999999999</ele>
        <time>2018-07-04T09:27:08Z</time>
      </trkpt>
      <trkpt lat="49.353080978617072" lon="-0.845824973657727">
        <ele>28.98</ele>
        <time>2018-07-04T09:27:16Z</time>
      </trkpt>
      <trkpt lat="49.353147028014064" lon="-0.845834026113153">
        <ele>28.98</ele>
        <time>2018-07-04T09:27:17Z</time>
      </trkpt>
      <trkpt lat="49.353213999420404" lon="-0.845842994749546">
        <ele>28.5</ele>
        <time>2018-07-04T09:27:18Z</time>
      </trkpt>
      <trkpt lat="49.353287005797029" lon="-0.84585296921432">
        <ele>28.02</ele>
        <time>2018-07-04T09:27:19Z</time>
      </trkpt>
      <trkpt lat="49.353360012173653" lon="-0.845863027498126">
        <ele>28.02</ele>
        <time>2018-07-04T09:27:20Z</time>
      </trkpt>
      <trkpt lat="49.35365698300302" lon="-0.845905020833015">
        <ele>27.050000000000001</ele>
        <time>2018-07-04T09:27:24Z</time>
      </trkpt>
      <trkpt lat="49.354200968518853" lon="-0.846147006377578">
        <ele>24.170000000000002</ele>
        <time>2018-07-04T09:27:31Z</time>
      </trkpt>
      <trkpt lat="49.354284033179283" lon="-0.846183970570564">
        <ele>23.690000000000001</ele>
        <time>2018-07-04T09:27:32Z</time>
      </trkpt>
      <trkpt lat="49.35453599318862" lon="-0.846296036615968">
        <ele>22.25</ele>
        <time>2018-07-04T09:27:35Z</time>
      </trkpt>
      <trkpt lat="49.354679994285107" lon="-0.846359990537167">
        <ele>21.77</ele>
        <time>2018-07-04T09:27:37Z</time>
      </trkpt>
      <trkpt lat="49.354748977348208" lon="-0.846391003578901">
        <ele>21.289999999999999</ele>
        <time>2018-07-04T09:27:38Z</time>
      </trkpt>
      <trkpt lat="49.3548150267452" lon="-0.846420004963875">
        <ele>20.32</ele>
        <time>2018-07-04T09:27:39Z</time>
      </trkpt>
      <trkpt lat="49.354915022850037" lon="-0.846483036875725">
        <ele>19.359999999999999</ele>
        <time>2018-07-04T09:27:41Z</time>
      </trkpt>
      <trkpt lat="49.354961039498448" lon="-0.846512038260698">
        <ele>18.399999999999999</ele>
        <time>2018-07-04T09:27:42Z</time>
      </trkpt>
      <trkpt lat="49.355082996189594" lon="-0.846589989960194">
        <ele>17.440000000000001</ele>
        <time>2018-07-04T09:27:45Z</time>
      </trkpt>
      <trkpt lat="49.355108980089426" lon="-0.846605999395251">
        <ele>16.960000000000001</ele>
        <time>2018-07-04T09:27:46Z</time>
      </trkpt>
      <trkpt lat="49.355177041143179" lon="-0.846648998558521">
        <ele>16</ele>
        <time>2018-07-04T09:27:56Z</time>
      </trkpt>
      <trkpt lat="49.355177041143179" lon="-0.846648998558521">
        <ele>16</ele>
        <time>2018-07-04T09:28:23Z</time>
      </trkpt>
      <trkpt lat="49.355177041143179" lon="-0.846648998558521">
        <ele>15.52</ele>
        <time>2018-07-04T09:29:06Z</time>
      </trkpt>
      <trkpt lat="49.355437969788909" lon="-0.846813032403588">
        <ele>16</ele>
        <time>2018-07-04T09:29:17Z</time>
      </trkpt>
      <trkpt lat="49.355534026399255" lon="-0.846873968839645">
        <ele>16</ele>
        <time>2018-07-04T09:29:19Z</time>
      </trkpt>
      <trkpt lat="49.355579959228635" lon="-0.846902970224619">
        <ele>16</ele>
        <time>2018-07-04T09:29:20Z</time>
      </trkpt>
      <trkpt lat="49.355625975877047" lon="-0.846931971609592">
        <ele>16</ele>
        <time>2018-07-04T09:29:21Z</time>
      </trkpt>
      <trkpt lat="49.355669980868697" lon="-0.846935994923115">
        <ele>16.48</ele>
        <time>2018-07-04T09:29:22Z</time>
      </trkpt>
      <trkpt lat="49.355724966153502" lon="-0.846939012408257">
        <ele>16.48</ele>
        <time>2018-07-04T09:29:23Z</time>
      </trkpt>
      <trkpt lat="49.35578104108572" lon="-0.846941024065018">
        <ele>16</ele>
        <time>2018-07-04T09:29:24Z</time>
      </trkpt>
      <trkpt lat="49.35582596808672" lon="-0.846943035721779">
        <ele>16</ele>
        <time>2018-07-04T09:29:25Z</time>
      </trkpt>
      <trkpt lat="49.355878019705415" lon="-0.846945969387889">
        <ele>16</ele>
        <time>2018-07-04T09:29:26Z</time>
      </trkpt>
      <trkpt lat="49.35614800080657" lon="-0.846958039328456">
        <ele>15.52</ele>
        <time>2018-07-04T09:29:30Z</time>
      </trkpt>
      <trkpt lat="49.356207009404898" lon="-0.846960972994566">
        <ele>15.52</ele>
        <time>2018-07-04T09:29:31Z</time>
      </trkpt>
      <trkpt lat="49.356249002739787" lon="-0.846962984651327">
        <ele>15.52</ele>
        <time>2018-07-04T09:29:32Z</time>
      </trkpt>
      <trkpt lat="49.356282027438283" lon="-0.846964996308088">
        <ele>15.52</ele>
        <time>2018-07-04T09:29:33Z</time>
      </trkpt>
      <trkpt lat="49.356307005509734" lon="-0.846966002136469">
        <ele>15.52</ele>
        <time>2018-07-04T09:29:34Z</time>
      </trkpt>
      <trkpt lat="49.356327038258314" lon="-0.846967007964849">
        <ele>15.039999999999999</ele>
        <time>2018-07-04T09:29:35Z</time>
      </trkpt>
      <trkpt lat="49.356345981359482" lon="-0.84696801379323">
        <ele>15.039999999999999</ele>
        <time>2018-07-04T09:29:36Z</time>
      </trkpt>
      <trkpt lat="49.356345981359482" lon="-0.84696801379323">
        <ele>14.56</ele>
        <time>2018-07-04T09:29:51Z</time>
      </trkpt>
      <trkpt lat="49.356387974694371" lon="-0.846970025449991">
        <ele>15.039999999999999</ele>
        <time>2018-07-04T09:29:58Z</time>
      </trkpt>
      <trkpt lat="49.356583021581173" lon="-0.846957033500075">
        <ele>16</ele>
        <time>2018-07-04T09:30:02Z</time>
      </trkpt>
      <trkpt lat="49.356637001037598" lon="-0.846921997144818">
        <ele>16</ele>
        <time>2018-07-04T09:30:03Z</time>
      </trkpt>
      <trkpt lat="49.356688968837261" lon="-0.846888972446322">
        <ele>16.48</ele>
        <time>2018-07-04T09:30:04Z</time>
      </trkpt>
      <trkpt lat="49.356858031824231" lon="-0.846780007705092">
        <ele>15.52</ele>
        <time>2018-07-04T09:30:08Z</time>
      </trkpt>
      <trkpt lat="49.356917040422559" lon="-0.846741031855345">
        <ele>15.039999999999999</ele>
        <time>2018-07-04T09:30:09Z</time>
      </trkpt>
      <trkpt lat="49.35692198574543" lon="-0.846743965521455">
        <ele>14.08</ele>
        <time>2018-07-04T09:30:10Z</time>
      </trkpt>
      <trkpt lat="49.356955010443926" lon="-0.846767015755177">
        <ele>13.6</ele>
        <time>2018-07-04T09:30:11Z</time>
      </trkpt>
      <trkpt lat="49.356986023485661" lon="-0.846786964684725">
        <ele>13.119999999999999</ele>
        <time>2018-07-04T09:30:12Z</time>
      </trkpt>
      <trkpt lat="49.357075039297342" lon="-0.846899030730128">
        <ele>11.67</ele>
        <time>2018-07-04T09:30:15Z</time>
      </trkpt>
      <trkpt lat="49.357096999883652" lon="-0.846955021843314">
        <ele>11.19</ele>
        <time>2018-07-04T09:30:16Z</time>
      </trkpt>
      <trkpt lat="49.357119966298342" lon="-0.847010007128119">
        <ele>10.710000000000001</ele>
        <time>2018-07-04T09:30:17Z</time>
      </trkpt>
      <trkpt lat="49.357142010703683" lon="-0.847064992412925">
        <ele>10.23</ele>
        <time>2018-07-04T09:30:18Z</time>
      </trkpt>
      <trkpt lat="49.357162965461612" lon="-0.847116960212588">
        <ele>9.75</ele>
        <time>2018-07-04T09:30:19Z</time>
      </trkpt>
      <trkpt lat="49.357248963788152" lon="-0.847327010706067">
        <ele>6.87</ele>
        <time>2018-07-04T09:30:24Z</time>
      </trkpt>
      <trkpt lat="49.357305960729718" lon="-0.847378978505731">
        <ele>5.91</ele>
        <time>2018-07-04T09:30:27Z</time>
      </trkpt>
      <trkpt lat="49.357348037883639" lon="-0.84733203984797">
        <ele>5.42</ele>
        <time>2018-07-04T09:30:28Z</time>
      </trkpt>
      <trkpt lat="49.357462031766772" lon="-0.847204970195889">
        <ele>4.94</ele>
        <time>2018-07-04T09:30:30Z</time>
      </trkpt>
      <trkpt lat="49.357534032315016" lon="-0.847125006839633">
        <ele>4.94</ele>
        <time>2018-07-04T09:30:31Z</time>
      </trkpt>
      <trkpt lat="49.358179019764066" lon="-0.846336018294096">
        <ele>8.310000000000001</ele>
        <time>2018-07-04T09:30:38Z</time>
      </trkpt>
      <trkpt lat="49.358699033036828" lon="-0.845606960356236">
        <ele>11.19</ele>
        <time>2018-07-04T09:30:45Z</time>
      </trkpt>
      <trkpt lat="49.358818978071213" lon="-0.845451978966594">
        <ele>11.19</ele>
        <time>2018-07-04T09:30:47Z</time>
      </trkpt>
      <trkpt lat="49.358959961682558" lon="-0.84527101367712">
        <ele>12.630000000000001</ele>
        <time>2018-07-04T09:30:50Z</time>
      </trkpt>
      <trkpt lat="49.359001033008099" lon="-0.845220973715186">
        <ele>12.630000000000001</ele>
        <time>2018-07-04T09:30:51Z</time>
      </trkpt>
      <trkpt lat="49.35909298248589" lon="-0.845107985660434">
        <ele>12.630000000000001</ele>
        <time>2018-07-04T09:30:53Z</time>
      </trkpt>
      <trkpt lat="49.35919800773263" lon="-0.845010001212358">
        <ele>12.15</ele>
        <time>2018-07-04T09:30:55Z</time>
      </trkpt>
      <trkpt lat="49.359427001327276" lon="-0.844824006780982">
        <ele>11.19</ele>
        <time>2018-07-04T09:31:03Z</time>
      </trkpt>
      <trkpt lat="49.359452985227108" lon="-0.844559976831079">
        <ele>10.23</ele>
        <time>2018-07-04T09:31:09Z</time>
      </trkpt>
      <trkpt lat="49.359447034075856" lon="-0.844486970454454">
        <ele>10.23</ele>
        <time>2018-07-04T09:31:10Z</time>
      </trkpt>
      <trkpt lat="49.359415015205741" lon="-0.844058990478516">
        <ele>9.27</ele>
        <time>2018-07-04T09:31:14Z</time>
      </trkpt>
      <trkpt lat="49.359407974407077" lon="-0.84391700103879">
        <ele>9.27</ele>
        <time>2018-07-04T09:31:15Z</time>
      </trkpt>
      <trkpt lat="49.35943303629756" lon="-0.843782974407077">
        <ele>9.27</ele>
        <time>2018-07-04T09:31:16Z</time>
      </trkpt>
      <trkpt lat="49.35967200435698" lon="-0.842496016994119">
        <ele>8.310000000000001</ele>
        <time>2018-07-04T09:31:27Z</time>
      </trkpt>
      <trkpt lat="49.359683990478516" lon="-0.841751033440232">
        <ele>7.35</ele>
        <time>2018-07-04T09:31:34Z</time>
      </trkpt>
      <trkpt lat="49.359663035720587" lon="-0.841463031247258">
        <ele>6.87</ele>
        <time>2018-07-04T09:31:37Z</time>
      </trkpt>
      <trkpt lat="49.359622970223427" lon="-0.841288017109036">
        <ele>6.87</ele>
        <time>2018-07-04T09:31:39Z</time>
      </trkpt>
      <trkpt lat="49.35960503295064" lon="-0.841209981590509">
        <ele>6.87</ele>
        <time>2018-07-04T09:31:40Z</time>
      </trkpt>
      <trkpt lat="49.359589023515582" lon="-0.841139992699027">
        <ele>6.87</ele>
        <time>2018-07-04T09:31:41Z</time>
      </trkpt>
      <trkpt lat="49.359497996047139" lon="-0.840748976916075">
        <ele>7.83</ele>
        <time>2018-07-04T09:31:49Z</time>
      </trkpt>
      <trkpt lat="49.359491039067507" lon="-0.840718969702721">
        <ele>7.83</ele>
        <time>2018-07-04T09:31:50Z</time>
      </trkpt>
      <trkpt lat="49.359516017138958" lon="-0.840702038258314">
        <ele>8.310000000000001</ele>
        <time>2018-07-04T09:31:58Z</time>
      </trkpt>
      <trkpt lat="49.359516017138958" lon="-0.840702038258314">
        <ele>8.310000000000001</ele>
        <time>2018-07-04T09:32:04Z</time>
      </trkpt>
      <trkpt lat="49.359487015753984" lon="-0.840697009116411">
        <ele>9.27</ele>
        <time>2018-07-04T09:32:12Z</time>
      </trkpt>
      <trkpt lat="49.359494978561997" lon="-0.840732967481017">
        <ele>9.27</ele>
        <time>2018-07-04T09:32:13Z</time>
      </trkpt>
      <trkpt lat="49.359505036845803" lon="-0.840776972472668">
        <ele>9.75</ele>
        <time>2018-07-04T09:32:14Z</time>
      </trkpt>
      <trkpt lat="49.359512999653816" lon="-0.840814020484686">
        <ele>9.75</ele>
        <time>2018-07-04T09:32:15Z</time>
      </trkpt>
      <trkpt lat="49.3595190346241" lon="-0.840838998556137">
        <ele>9.75</ele>
        <time>2018-07-04T09:32:28Z</time>
      </trkpt>
      <trkpt lat="49.359575025737286" lon="-0.841078972443938">
        <ele>9.75</ele>
        <time>2018-07-04T09:33:11Z</time>
      </trkpt>
      <trkpt lat="49.359676027670503" lon="-0.841632010415196">
        <ele>9.27</ele>
        <time>2018-07-04T09:33:15Z</time>
      </trkpt>
      <trkpt lat="49.359688013792038" lon="-0.841795960441232">
        <ele>9.27</ele>
        <time>2018-07-04T09:33:16Z</time>
      </trkpt>
      <trkpt lat="49.359689019620419" lon="-0.842346986755729">
        <ele>9.75</ele>
        <time>2018-07-04T09:33:19Z</time>
      </trkpt>
      <trkpt lat="49.359665969386697" lon="-0.842528035864234">
        <ele>9.75</ele>
        <time>2018-07-04T09:33:20Z</time>
      </trkpt>
      <trkpt lat="49.359635040163994" lon="-0.842697015032172">
        <ele>9.75</ele>
        <time>2018-07-04T09:33:21Z</time>
      </trkpt>
      <trkpt lat="49.359443010762334" lon="-0.843730000779033">
        <ele>11.67</ele>
        <time>2018-07-04T09:33:27Z</time>
      </trkpt>
      <trkpt lat="49.359410991892219" lon="-0.843899985775352">
        <ele>12.15</ele>
        <time>2018-07-04T09:33:28Z</time>
      </trkpt>
      <trkpt lat="49.359417026862502" lon="-0.844076005741954">
        <ele>12.15</ele>
        <time>2018-07-04T09:33:29Z</time>
      </trkpt>
      <trkpt lat="49.359428007155657" lon="-0.844228975474834">
        <ele>13.119999999999999</ele>
        <time>2018-07-04T09:33:30Z</time>
      </trkpt>
      <trkpt lat="49.359437981620431" lon="-0.844365013763309">
        <ele>13.6</ele>
        <time>2018-07-04T09:33:31Z</time>
      </trkpt>
      <trkpt lat="49.359463965520263" lon="-0.844706995412707">
        <ele>16.960000000000001</ele>
        <time>2018-07-04T09:33:37Z</time>
      </trkpt>
      <trkpt lat="49.359504031017423" lon="-0.844785030931234">
        <ele>18.879999999999999</ele>
        <time>2018-07-04T09:33:47Z</time>
      </trkpt>
      <trkpt lat="49.359538983553648" lon="-0.844781007617712">
        <ele>18.879999999999999</ele>
        <time>2018-07-04T09:33:48Z</time>
      </trkpt>
      <trkpt lat="49.359575025737286" lon="-0.84477698430419">
        <ele>18.879999999999999</ele>
        <time>2018-07-04T09:33:49Z</time>
      </trkpt>
      <trkpt lat="49.359879037365317" lon="-0.844759969040751">
        <ele>18.399999999999999</ele>
        <time>2018-07-04T09:34:01Z</time>
      </trkpt>
      <trkpt lat="49.360363008454442" lon="-0.845208987593651">
        <ele>16</ele>
        <time>2018-07-04T09:34:19Z</time>
      </trkpt>
      <trkpt lat="49.360664002597332" lon="-0.845886999741197">
        <ele>15.039999999999999</ele>
        <time>2018-07-04T09:34:35Z</time>
      </trkpt>
      <trkpt lat="49.360925015062094" lon="-0.84662301465869">
        <ele>13.119999999999999</ele>
        <time>2018-07-04T09:34:51Z</time>
      </trkpt>
      <trkpt lat="49.361018976196647" lon="-0.846916968002915">
        <ele>13.119999999999999</ele>
        <time>2018-07-04T09:35:03Z</time>
      </trkpt>
      <trkpt lat="49.361018976196647" lon="-0.846916968002915">
        <ele>12.630000000000001</ele>
        <time>2018-07-04T09:35:16Z</time>
      </trkpt>
      <trkpt lat="49.361033979803324" lon="-0.846963990479708">
        <ele>11.19</ele>
        <time>2018-07-04T09:35:20Z</time>
      </trkpt>
      <trkpt lat="49.36100497841835" lon="-0.846872963011265">
        <ele>10.710000000000001</ele>
        <time>2018-07-04T09:35:22Z</time>
      </trkpt>
      <trkpt lat="49.36098100617528" lon="-0.846799034625292">
        <ele>10.710000000000001</ele>
        <time>2018-07-04T09:35:23Z</time>
      </trkpt>
      <trkpt lat="49.360957033932209" lon="-0.846723010763526">
        <ele>10.23</ele>
        <time>2018-07-04T09:35:24Z</time>
      </trkpt>
      <trkpt lat="49.36085200868547" lon="-0.846393015235662">
        <ele>9.75</ele>
        <time>2018-07-04T09:35:28Z</time>
      </trkpt>
      <trkpt lat="49.360642964020371" lon="-0.845839977264404">
        <ele>9.27</ele>
        <time>2018-07-04T09:35:35Z</time>
      </trkpt>
      <trkpt lat="49.360583033412695" lon="-0.845704022794962">
        <ele>9.27</ele>
        <time>2018-07-04T09:35:37Z</time>
      </trkpt>
      <trkpt lat="49.360549002885818" lon="-0.845629004761577">
        <ele>9.27</ele>
        <time>2018-07-04T09:35:38Z</time>
      </trkpt>
      <trkpt lat="49.360408019274473" lon="-0.845310995355248">
        <ele>8.789999999999999</ele>
        <time>2018-07-04T09:35:42Z</time>
      </trkpt>
      <trkpt lat="49.360278015956283" lon="-0.845061969012022">
        <ele>8.789999999999999</ele>
        <time>2018-07-04T09:35:46Z</time>
      </trkpt>
      <trkpt lat="49.36018799431622" lon="-0.844959961250424">
        <ele>8.310000000000001</ele>
        <time>2018-07-04T09:35:48Z</time>
      </trkpt>
      <trkpt lat="49.360077017918229" lon="-0.844888966530561">
        <ele>8.789999999999999</ele>
        <time>2018-07-04T09:35:50Z</time>
      </trkpt>
      <trkpt lat="49.360022032633424" lon="-0.844853008165956">
        <ele>9.27</ele>
        <time>2018-07-04T09:35:51Z</time>
      </trkpt>
      <trkpt lat="49.359876019880176" lon="-0.844758963212371">
        <ele>9.75</ele>
        <time>2018-07-04T09:35:54Z</time>
      </trkpt>
      <trkpt lat="49.3598229624331" lon="-0.844748988747597">
        <ele>9.75</ele>
        <time>2018-07-04T09:35:55Z</time>
      </trkpt>
      <trkpt lat="49.359773006290197" lon="-0.84475502371788">
        <ele>10.23</ele>
        <time>2018-07-04T09:35:56Z</time>
      </trkpt>
      <trkpt lat="49.359470000490546" lon="-0.844788970425725">
        <ele>11.67</ele>
        <time>2018-07-04T09:36:01Z</time>
      </trkpt>
      <trkpt lat="49.359421972185373" lon="-0.844827024266124">
        <ele>12.15</ele>
        <time>2018-07-04T09:36:02Z</time>
      </trkpt>
      <trkpt lat="49.359218962490559" lon="-0.84499198012054">
        <ele>13.119999999999999</ele>
        <time>2018-07-04T09:36:05Z</time>
      </trkpt>
      <trkpt lat="49.359150985255837" lon="-0.845047971233726">
        <ele>14.08</ele>
        <time>2018-07-04T09:36:06Z</time>
      </trkpt>
      <trkpt lat="49.359089965000749" lon="-0.845113014802337">
        <ele>14.56</ele>
        <time>2018-07-04T09:36:07Z</time>
      </trkpt>
      <trkpt lat="49.359041014686227" lon="-0.845172023400664">
        <ele>15.039999999999999</ele>
        <time>2018-07-04T09:36:08Z</time>
      </trkpt>
      <trkpt lat="49.359002038836479" lon="-0.845219967886806">
        <ele>15.52</ele>
        <time>2018-07-04T09:36:09Z</time>
      </trkpt>
      <trkpt lat="49.358967002481222" lon="-0.845262967050076">
        <ele>16</ele>
        <time>2018-07-04T09:36:10Z</time>
      </trkpt>
      <trkpt lat="49.358998015522957" lon="-0.845453990623355">
        <ele>16.48</ele>
        <time>2018-07-04T09:36:11Z</time>
      </trkpt>
      <trkpt lat="49.358997009694576" lon="-0.845463965088129">
        <ele>16.960000000000001</ele>
        <time>2018-07-04T09:36:12Z</time>
      </trkpt>
      <trkpt lat="49.358987035229802" lon="-0.845543006435037">
        <ele>17.440000000000001</ele>
        <time>2018-07-04T09:36:13Z</time>
      </trkpt>
      <trkpt lat="49.358975971117616" lon="-0.845624981448054">
        <ele>17.920000000000002</ele>
        <time>2018-07-04T09:36:14Z</time>
      </trkpt>
      <trkpt lat="49.358931966125965" lon="-0.845654988661408">
        <ele>18.399999999999999</ele>
        <time>2018-07-04T09:36:15Z</time>
      </trkpt>
      <trkpt lat="49.358867006376386" lon="-0.845698993653059">
        <ele>18.879999999999999</ele>
        <time>2018-07-04T09:36:16Z</time>
      </trkpt>
      <trkpt lat="49.358792994171381" lon="-0.845748027786613">
        <ele>19.359999999999999</ele>
        <time>2018-07-04T09:36:17Z</time>
      </trkpt>
      <trkpt lat="49.358714958652854" lon="-0.845798989757895">
        <ele>19.84</ele>
        <time>2018-07-04T09:36:18Z</time>
      </trkpt>
      <trkpt lat="49.35863901861012" lon="-0.845857998356223">
        <ele>19.84</ele>
        <time>2018-07-04T09:36:19Z</time>
      </trkpt>
      <trkpt lat="49.358574980869889" lon="-0.84593502804637">
        <ele>20.32</ele>
        <time>2018-07-04T09:36:20Z</time>
      </trkpt>
      <trkpt lat="49.35851102694869" lon="-0.846049021929502">
        <ele>20.32</ele>
        <time>2018-07-04T09:36:21Z</time>
      </trkpt>
      <trkpt lat="49.358456963673234" lon="-0.846169972792268">
        <ele>20.809999999999999</ele>
        <time>2018-07-04T09:36:22Z</time>
      </trkpt>
      <trkpt lat="49.358401978388429" lon="-0.846292013302445">
        <ele>20.809999999999999</ele>
        <time>2018-07-04T09:36:23Z</time>
      </trkpt>
      <trkpt lat="49.358245991170406" lon="-0.846679005771875">
        <ele>22.25</ele>
        <time>2018-07-04T09:36:26Z</time>
      </trkpt>
      <trkpt lat="49.3582100328058" lon="-0.846824012696743">
        <ele>22.73</ele>
        <time>2018-07-04T09:36:27Z</time>
      </trkpt>
      <trkpt lat="49.358173990622163" lon="-0.846969019621611">
        <ele>23.210000000000001</ele>
        <time>2018-07-04T09:36:28Z</time>
      </trkpt>
      <trkpt lat="49.358160998672247" lon="-0.847135987132788">
        <ele>23.690000000000001</ele>
        <time>2018-07-04T09:36:29Z</time>
      </trkpt>
      <trkpt lat="49.358160998672247" lon="-0.847301026806235">
        <ele>24.649999999999999</ele>
        <time>2018-07-04T09:36:30Z</time>
      </trkpt>
      <trkpt lat="49.358181031420827" lon="-0.847594980150461">
        <ele>26.57</ele>
        <time>2018-07-04T09:36:32Z</time>
      </trkpt>
      <trkpt lat="49.358369037508965" lon="-0.848894007503986">
        <ele>42.439999999999998</ele>
        <time>2018-07-04T09:36:40Z</time>
      </trkpt>
      <trkpt lat="49.35842402279377" lon="-0.849793972447515">
        <ele>53.009999999999998</ele>
        <time>2018-07-04T09:36:49Z</time>
      </trkpt>
      <trkpt lat="49.358460986986756" lon="-0.850409958511591">
        <ele>57.340000000000003</ele>
        <time>2018-07-04T09:36:55Z</time>
      </trkpt>
      <trkpt lat="49.358426034450531" lon="-0.850463015958667">
        <ele>57.82</ele>
        <time>2018-07-04T09:36:56Z</time>
      </trkpt>
      <trkpt lat="49.358388986438513" lon="-0.850519007071853">
        <ele>57.82</ele>
        <time>2018-07-04T09:36:57Z</time>
      </trkpt>
      <trkpt lat="49.358355961740017" lon="-0.850544990971684">
        <ele>57.82</ele>
        <time>2018-07-04T09:36:58Z</time>
      </trkpt>
      <trkpt lat="49.35829603113234" lon="-0.850562006235123">
        <ele>58.299999999999997</ele>
        <time>2018-07-04T09:36:59Z</time>
      </trkpt>
      <trkpt lat="49.358221013098955" lon="-0.850583966821432">
        <ele>58.299999999999997</ele>
        <time>2018-07-04T09:37:00Z</time>
      </trkpt>
      <trkpt lat="49.358134008944035" lon="-0.850610034540296">
        <ele>58.299999999999997</ele>
        <time>2018-07-04T09:37:01Z</time>
      </trkpt>
      <trkpt lat="49.357817005366087" lon="-0.850700978189707">
        <ele>57.82</ele>
        <time>2018-07-04T09:37:06Z</time>
      </trkpt>
      <trkpt lat="49.3577800411731" lon="-0.850711036473513">
        <ele>57.82</ele>
        <time>2018-07-04T09:37:07Z</time>
      </trkpt>
      <trkpt lat="49.35773896984756" lon="-0.850722016766667">
        <ele>57.340000000000003</ele>
        <time>2018-07-04T09:37:08Z</time>
      </trkpt>
      <trkpt lat="49.357550041750073" lon="-0.850773984566331">
        <ele>55.409999999999997</ele>
        <time>2018-07-04T09:37:12Z</time>
      </trkpt>
      <trkpt lat="49.357512993738055" lon="-0.850783959031105">
        <ele>54.93</ele>
        <time>2018-07-04T09:37:13Z</time>
      </trkpt>
      <trkpt lat="49.357511987909675" lon="-0.850784964859486">
        <ele>53.969999999999999</ele>
        <time>2018-07-04T09:37:15Z</time>
      </trkpt>
      <trkpt lat="49.357532020658255" lon="-0.850779013708234">
        <ele>53.490000000000002</ele>
        <time>2018-07-04T09:37:16Z</time>
      </trkpt>
      <trkpt lat="49.357567979022861" lon="-0.85076903924346">
        <ele>53.009999999999998</ele>
        <time>2018-07-04T09:37:17Z</time>
      </trkpt>
      <trkpt lat="49.357621036469936" lon="-0.850755041465163">
        <ele>53.009999999999998</ele>
        <time>2018-07-04T09:37:18Z</time>
      </trkpt>
      <trkpt lat="49.357683984562755" lon="-0.850738026201725">
        <ele>52.530000000000001</ele>
        <time>2018-07-04T09:37:19Z</time>
      </trkpt>
      <trkpt lat="49.357745004817843" lon="-0.850721010938287">
        <ele>52.049999999999997</ele>
        <time>2018-07-04T09:37:20Z</time>
      </trkpt>
      <trkpt lat="49.357791021466255" lon="-0.850709024816751">
        <ele>52.049999999999997</ele>
        <time>2018-07-04T09:37:21Z</time>
      </trkpt>
      <trkpt lat="49.357833014801145" lon="-0.850697038695216">
        <ele>51.57</ele>
        <time>2018-07-04T09:37:22Z</time>
      </trkpt>
      <trkpt lat="49.357967963442206" lon="-0.850052973255515">
        <ele>51.090000000000003</ele>
        <time>2018-07-04T09:37:27Z</time>
      </trkpt>
      <trkpt lat="49.358216989785433" lon="-0.849756002426147">
        <ele>50.130000000000003</ele>
        <time>2018-07-04T09:37:35Z</time>
      </trkpt>
      <trkpt lat="49.358421005308628" lon="-0.849749967455864">
        <ele>49.649999999999999</ele>
        <time>2018-07-04T09:37:37Z</time>
      </trkpt>
      <trkpt lat="49.358422011137009" lon="-0.849768994376063">
        <ele>49.649999999999999</ele>
        <time>2018-07-04T09:37:38Z</time>
      </trkpt>
      <trkpt lat="49.35842402279377" lon="-0.849794978275895">
        <ele>49.649999999999999</ele>
        <time>2018-07-04T09:37:39Z</time>
      </trkpt>
      <trkpt lat="49.358426034450531" lon="-0.849821968004107">
        <ele>49.649999999999999</ele>
        <time>2018-07-04T09:37:40Z</time>
      </trkpt>
      <trkpt lat="49.358427040278912" lon="-0.849842000752687">
        <ele>49.649999999999999</ele>
        <time>2018-07-04T09:37:41Z</time>
      </trkpt>
      <trkpt lat="49.35842796228826" lon="-0.849855998530984">
        <ele>49.649999999999999</ele>
        <time>2018-07-04T09:37:42Z</time>
      </trkpt>
      <trkpt lat="49.35842796228826" lon="-0.84986999630928">
        <ele>49.649999999999999</ele>
        <time>2018-07-04T09:37:43Z</time>
      </trkpt>
      <trkpt lat="49.35842796228826" lon="-0.84986999630928">
        <ele>50.130000000000003</ele>
        <time>2018-07-04T09:37:44Z</time>
      </trkpt>
      <trkpt lat="49.358244985342026" lon="-0.849894974380732">
        <ele>50.609999999999999</ele>
        <time>2018-07-04T09:37:59Z</time>
      </trkpt>
      <trkpt lat="49.358219001442194" lon="-0.850134026259184">
        <ele>60.219999999999999</ele>
        <time>2018-07-04T09:55:24Z</time>
      </trkpt>
      <trkpt lat="49.358222018927336" lon="-0.849900003522635">
        <ele>57.82</ele>
        <time>2018-07-04T09:55:51Z</time>
      </trkpt>
      <trkpt lat="49.358240962028503" lon="-0.849927999079227">
        <ele>54.450000000000003</ele>
        <time>2018-07-04T09:56:45Z</time>
      </trkpt>
      <trkpt lat="49.358246996998787" lon="-0.849924981594086">
        <ele>56.369999999999997</ele>
        <time>2018-07-04T09:57:44Z</time>
      </trkpt>
      <trkpt lat="49.358245991170406" lon="-0.849923975765705">
        <ele>56.369999999999997</ele>
        <time>2018-07-04T09:58:36Z</time>
      </trkpt>
      <trkpt lat="49.358244985342026" lon="-0.849922969937325">
        <ele>55.890000000000001</ele>
        <time>2018-07-04T09:59:16Z</time>
      </trkpt>
      <trkpt lat="49.358429973945022" lon="-0.849896986037493">
        <ele>55.890000000000001</ele>
        <time>2018-07-04T09:59:20Z</time>
      </trkpt>
      <trkpt lat="49.358178013935685" lon="-0.850596958771348">
        <ele>54.93</ele>
        <time>2018-07-04T09:59:30Z</time>
      </trkpt>
      <trkpt lat="49.357936028391123" lon="-0.850667031481862">
        <ele>54.93</ele>
        <time>2018-07-04T09:59:37Z</time>
      </trkpt>
      <trkpt lat="49.357788003981113" lon="-0.850709024816751">
        <ele>54.93</ele>
        <time>2018-07-04T09:59:40Z</time>
      </trkpt>
      <trkpt lat="49.35773603618145" lon="-0.850723022595048">
        <ele>54.93</ele>
        <time>2018-07-04T09:59:41Z</time>
      </trkpt>
      <trkpt lat="49.357691025361419" lon="-0.850736014544964">
        <ele>54.450000000000003</ele>
        <time>2018-07-04T09:59:42Z</time>
      </trkpt>
      <trkpt lat="49.35765003785491" lon="-0.850746994838119">
        <ele>54.450000000000003</ele>
        <time>2018-07-04T09:59:43Z</time>
      </trkpt>
      <trkpt lat="49.357616007328033" lon="-0.850755963474512">
        <ele>54.450000000000003</ele>
        <time>2018-07-04T09:59:44Z</time>
      </trkpt>
      <trkpt lat="49.357512993738055" lon="-0.850783959031105">
        <ele>54.93</ele>
        <time>2018-07-04T09:59:48Z</time>
      </trkpt>
      <trkpt lat="49.357453985139728" lon="-0.850799968466163">
        <ele>54.93</ele>
        <time>2018-07-04T09:59:49Z</time>
      </trkpt>
      <trkpt lat="49.357377961277962" lon="-0.850821007043123">
        <ele>54.93</ele>
        <time>2018-07-04T09:59:50Z</time>
      </trkpt>
      <trkpt lat="49.35651202686131" lon="-0.851057041436434">
        <ele>56.369999999999997</ele>
        <time>2018-07-04T09:59:58Z</time>
      </trkpt>
      <trkpt lat="49.355477029457688" lon="-0.851339008659124">
        <ele>55.409999999999997</ele>
        <time>2018-07-04T10:00:06Z</time>
      </trkpt>
      <trkpt lat="49.355392958968878" lon="-0.851361975073814">
        <ele>55.409999999999997</ele>
        <time>2018-07-04T10:00:07Z</time>
      </trkpt>
      <trkpt lat="49.355233032256365" lon="-0.851490972563624">
        <ele>55.409999999999997</ele>
        <time>2018-07-04T10:00:08Z</time>
      </trkpt>
      <trkpt lat="49.355229008942842" lon="-0.851704040542245">
        <ele>55.409999999999997</ele>
        <time>2018-07-04T10:00:09Z</time>
      </trkpt>
      <trkpt lat="49.355234038084745" lon="-0.851814011111856">
        <ele>55.890000000000001</ele>
        <time>2018-07-04T10:00:10Z</time>
      </trkpt>
      <trkpt lat="49.355243006721139" lon="-0.852023977786303">
        <ele>56.369999999999997</ele>
        <time>2018-07-04T10:00:12Z</time>
      </trkpt>
      <trkpt lat="49.355243006721139" lon="-0.852579027414322">
        <ele>57.82</ele>
        <time>2018-07-04T10:00:18Z</time>
      </trkpt>
      <trkpt lat="49.355222973972559" lon="-0.852658990770578">
        <ele>58.299999999999997</ele>
        <time>2018-07-04T10:00:19Z</time>
      </trkpt>
      <trkpt lat="49.355200007557869" lon="-0.85289997048676">
        <ele>59.259999999999998</ele>
        <time>2018-07-04T10:00:21Z</time>
      </trkpt>
      <trkpt lat="49.355200007557869" lon="-0.85289997048676">
        <ele>59.259999999999998</ele>
        <time>2018-07-04T10:00:22Z</time>
      </trkpt>
      <trkpt lat="49.355176035314798" lon="-0.852965014055371">
        <ele>59.740000000000002</ele>
        <time>2018-07-04T10:00:23Z</time>
      </trkpt>
      <trkpt lat="49.35511602088809" lon="-0.853001978248358">
        <ele>59.740000000000002</ele>
        <time>2018-07-04T10:00:24Z</time>
      </trkpt>
      <trkpt lat="49.355027005076408" lon="-0.85289997048676">
        <ele>59.740000000000002</ele>
        <time>2018-07-04T10:00:25Z</time>
      </trkpt>
      <trkpt lat="49.354950981214643" lon="-0.852922014892101">
        <ele>59.740000000000002</ele>
        <time>2018-07-04T10:00:26Z</time>
      </trkpt>
      <trkpt lat="49.353980021551251" lon="-0.85285403765738">
        <ele>61.18</ele>
        <time>2018-07-04T10:00:35Z</time>
      </trkpt>
      <trkpt lat="49.35314099304378" lon="-0.852866023778915">
        <ele>62.140000000000001</ele>
        <time>2018-07-04T10:00:43Z</time>
      </trkpt>
      <trkpt lat="49.353077039122581" lon="-0.852872980758548">
        <ele>63.100000000000001</ele>
        <time>2018-07-04T10:00:45Z</time>
      </trkpt>
      <trkpt lat="49.353065975010395" lon="-0.852874992415309">
        <ele>63.100000000000001</ele>
        <time>2018-07-04T10:00:46Z</time>
      </trkpt>
      <trkpt lat="49.353088019415736" lon="-0.852871974930167">
        <ele>63.100000000000001</ele>
        <time>2018-07-04T10:00:49Z</time>
      </trkpt>
      <trkpt lat="49.353128001093864" lon="-0.852867029607296">
        <ele>62.619999999999997</ele>
        <time>2018-07-04T10:00:50Z</time>
      </trkpt>
      <trkpt lat="49.353552963584661" lon="-0.852815983816981">
        <ele>62.619999999999997</ele>
        <time>2018-07-04T10:00:55Z</time>
      </trkpt>
      <trkpt lat="49.354589972645044" lon="-0.852913968265057">
        <ele>60.700000000000003</ele>
        <time>2018-07-04T10:01:04Z</time>
      </trkpt>
      <trkpt lat="49.354905970394611" lon="-0.852934001013637">
        <ele>58.780000000000001</ele>
        <time>2018-07-04T10:01:08Z</time>
      </trkpt>
      <trkpt lat="49.354971013963223" lon="-0.852915979921818">
        <ele>58.299999999999997</ele>
        <time>2018-07-04T10:01:09Z</time>
      </trkpt>
      <trkpt lat="49.355028010904789" lon="-0.85289997048676">
        <ele>57.82</ele>
        <time>2018-07-04T10:01:10Z</time>
      </trkpt>
      <trkpt lat="49.355142004787922" lon="-0.852798968553543">
        <ele>57.82</ele>
        <time>2018-07-04T10:01:11Z</time>
      </trkpt>
      <trkpt lat="49.355177963152528" lon="-0.852835010737181">
        <ele>57.82</ele>
        <time>2018-07-04T10:01:12Z</time>
      </trkpt>
      <trkpt lat="49.355177963152528" lon="-0.852835010737181">
        <ele>57.82</ele>
        <time>2018-07-04T10:01:13Z</time>
      </trkpt>
      <trkpt lat="49.355255998671055" lon="-0.852981023490429">
        <ele>57.340000000000003</ele>
        <time>2018-07-04T10:01:14Z</time>
      </trkpt>
      <trkpt lat="49.355319030582905" lon="-0.852995021268725">
        <ele>57.340000000000003</ele>
        <time>2018-07-04T10:01:15Z</time>
      </trkpt>
      <trkpt lat="49.355380972847342" lon="-0.853009019047022">
        <ele>56.859999999999999</ele>
        <time>2018-07-04T10:01:16Z</time>
      </trkpt>
      <trkpt lat="49.355444004759192" lon="-0.85302603431046">
        <ele>56.859999999999999</ele>
        <time>2018-07-04T10:01:17Z</time>
      </trkpt>
      <trkpt lat="49.355808030813932" lon="-0.853121001273394">
        <ele>54.93</ele>
        <time>2018-07-04T10:01:26Z</time>
      </trkpt>
      <trkpt lat="49.355828985571861" lon="-0.853126030415297">
        <ele>54.450000000000003</ele>
        <time>2018-07-04T10:01:27Z</time>
      </trkpt>
      <trkpt lat="49.355864021927118" lon="-0.85313499905169">
        <ele>53.969999999999999</ele>
        <time>2018-07-04T10:01:29Z</time>
      </trkpt>
      <trkpt lat="49.356029983609915" lon="-0.85279100574553">
        <ele>52.530000000000001</ele>
        <time>2018-07-04T10:01:37Z</time>
      </trkpt>
      <trkpt lat="49.356088992208242" lon="-0.852620014920831">
        <ele>52.530000000000001</ele>
        <time>2018-07-04T10:01:38Z</time>
      </trkpt>
      <trkpt lat="49.356063008308411" lon="-0.852573998272419">
        <ele>52.530000000000001</ele>
        <time>2018-07-04T10:01:39Z</time>
      </trkpt>
      <trkpt lat="49.356031995266676" lon="-0.852519012987614">
        <ele>52.530000000000001</ele>
        <time>2018-07-04T10:01:40Z</time>
      </trkpt>
      <trkpt lat="49.355993019416928" lon="-0.852450029924512">
        <ele>52.530000000000001</ele>
        <time>2018-07-04T10:01:41Z</time>
      </trkpt>
      <trkpt lat="49.355950020253658" lon="-0.852374006062746">
        <ele>52.049999999999997</ele>
        <time>2018-07-04T10:01:42Z</time>
      </trkpt>
      <trkpt lat="49.355908026918769" lon="-0.852298988029361">
        <ele>52.049999999999997</ele>
        <time>2018-07-04T10:01:43Z</time>
      </trkpt>
      <trkpt lat="49.355900986120105" lon="-0.852236039936543">
        <ele>52.049999999999997</ele>
        <time>2018-07-04T10:01:44Z</time>
      </trkpt>
      <trkpt lat="49.355883970856667" lon="-0.852069994434714">
        <ele>51.090000000000003</ele>
        <time>2018-07-04T10:01:46Z</time>
      </trkpt>
      <trkpt lat="49.355876008048654" lon="-0.851992964744568">
        <ele>51.090000000000003</ele>
        <time>2018-07-04T10:01:47Z</time>
      </trkpt>
      <trkpt lat="49.355872990563512" lon="-0.851836977526546">
        <ele>51.090000000000003</ele>
        <time>2018-07-04T10:01:49Z</time>
      </trkpt>
      <trkpt lat="49.355884976685047" lon="-0.851749973371625">
        <ele>51.090000000000003</ele>
        <time>2018-07-04T10:01:50Z</time>
      </trkpt>
      <trkpt lat="49.355897968634963" lon="-0.851661963388324">
        <ele>51.090000000000003</ele>
        <time>2018-07-04T10:01:51Z</time>
      </trkpt>
      <trkpt lat="49.355918001383543" lon="-0.851578982546926">
        <ele>51.090000000000003</ele>
        <time>2018-07-04T10:01:52Z</time>
      </trkpt>
      <trkpt lat="49.355959994718432" lon="-0.851528020575643">
        <ele>51.57</ele>
        <time>2018-07-04T10:01:53Z</time>
      </trkpt>
      <trkpt lat="49.356011040508747" lon="-0.851468006148934">
        <ele>52.049999999999997</ele>
        <time>2018-07-04T10:01:54Z</time>
      </trkpt>
      <trkpt lat="49.356077006086707" lon="-0.851451996713877">
        <ele>52.530000000000001</ele>
        <time>2018-07-04T10:01:55Z</time>
      </trkpt>
      <trkpt lat="49.356143977493048" lon="-0.851441016420722">
        <ele>53.009999999999998</ele>
        <time>2018-07-04T10:01:56Z</time>
      </trkpt>
      <trkpt lat="49.35621396638453" lon="-0.851429030299187">
        <ele>53.490000000000002</ele>
        <time>2018-07-04T10:01:57Z</time>
      </trkpt>
      <trkpt lat="49.356284961104393" lon="-0.85141696035862">
        <ele>53.490000000000002</ele>
        <time>2018-07-04T10:01:58Z</time>
      </trkpt>
      <trkpt lat="49.356352016329765" lon="-0.851405980065465">
        <ele>53.490000000000002</ele>
        <time>2018-07-04T10:01:59Z</time>
      </trkpt>
      <trkpt lat="49.356418987736106" lon="-0.85139499977231">
        <ele>53.969999999999999</ele>
        <time>2018-07-04T10:02:00Z</time>
      </trkpt>
      <trkpt lat="49.356483025476336" lon="-0.851384019479156">
        <ele>53.969999999999999</ele>
        <time>2018-07-04T10:02:01Z</time>
      </trkpt>
      <trkpt lat="49.356529964134097" lon="-0.851375972852111">
        <ele>54.450000000000003</ele>
        <time>2018-07-04T10:02:02Z</time>
      </trkpt>
      <trkpt lat="49.356610011309385" lon="-0.851381001994014">
        <ele>54.93</ele>
        <time>2018-07-04T10:02:03Z</time>
      </trkpt>
      <trkpt lat="49.356674971058965" lon="-0.851386031135917">
        <ele>54.93</ele>
        <time>2018-07-04T10:02:04Z</time>
      </trkpt>
      <trkpt lat="49.356734985485673" lon="-0.851389970630407">
        <ele>55.409999999999997</ele>
        <time>2018-07-04T10:02:05Z</time>
      </trkpt>
      <trkpt lat="49.356789970770478" lon="-0.851392988115549">
        <ele>55.890000000000001</ele>
        <time>2018-07-04T10:02:06Z</time>
      </trkpt>
      <trkpt lat="49.356854008510709" lon="-0.851397011429071">
        <ele>55.890000000000001</ele>
        <time>2018-07-04T10:02:07Z</time>
      </trkpt>
      <trkpt lat="49.356969008222222" lon="-0.851348983123899">
        <ele>56.369999999999997</ele>
        <time>2018-07-04T10:02:09Z</time>
      </trkpt>
      <trkpt lat="49.357099011540413" lon="-0.851295003667474">
        <ele>56.859999999999999</ele>
        <time>2018-07-04T10:02:11Z</time>
      </trkpt>
      <trkpt lat="49.357166988775134" lon="-0.8512660022825">
        <ele>56.859999999999999</ele>
        <time>2018-07-04T10:02:12Z</time>
      </trkpt>
      <trkpt lat="49.357445016503334" lon="-0.851151002570987">
        <ele>54.93</ele>
        <time>2018-07-04T10:02:16Z</time>
      </trkpt>
      <trkpt lat="49.357567979022861" lon="-0.851099034771323">
        <ele>53.969999999999999</ele>
        <time>2018-07-04T10:02:18Z</time>
      </trkpt>
      <trkpt lat="49.3576730042696" lon="-0.851056035608053">
        <ele>52.530000000000001</ele>
        <time>2018-07-04T10:02:20Z</time>
      </trkpt>
      <trkpt lat="49.357714997604489" lon="-0.851038014516234">
        <ele>52.049999999999997</ele>
        <time>2018-07-04T10:02:21Z</time>
      </trkpt>
      <trkpt lat="49.357747016474605" lon="-0.851025022566319">
        <ele>51.57</ele>
        <time>2018-07-04T10:02:22Z</time>
      </trkpt>
      <trkpt lat="49.357767971232533" lon="-0.851015970110893">
        <ele>51.090000000000003</ele>
        <time>2018-07-04T10:02:23Z</time>
      </trkpt>
      <trkpt lat="49.357786998152733" lon="-0.85100800730288">
        <ele>50.609999999999999</ele>
        <time>2018-07-04T10:02:24Z</time>
      </trkpt>
      <trkpt lat="49.357804013416171" lon="-0.851000966504216">
        <ele>50.609999999999999</ele>
        <time>2018-07-04T10:02:25Z</time>
      </trkpt>
      <trkpt lat="49.357819017022848" lon="-0.850995015352964">
        <ele>50.130000000000003</ele>
        <time>2018-07-04T10:02:26Z</time>
      </trkpt>
      <trkpt lat="49.357819017022848" lon="-0.850995015352964">
        <ele>50.130000000000003</ele>
        <time>2018-07-04T10:02:30Z</time>
      </trkpt>
      <trkpt lat="49.357842989265919" lon="-0.85098504088819">
        <ele>50.130000000000003</ele>
        <time>2018-07-04T10:02:31Z</time>
      </trkpt>
      <trkpt lat="49.357881965115666" lon="-0.850968025624752">
        <ele>50.130000000000003</ele>
        <time>2018-07-04T10:02:32Z</time>
      </trkpt>
      <trkpt lat="49.357881965115666" lon="-0.850968025624752">
        <ele>50.130000000000003</ele>
        <time>2018-07-04T10:02:33Z</time>
      </trkpt>
      <trkpt lat="49.357880037277937" lon="-0.85094204172492">
        <ele>49.649999999999999</ele>
        <time>2018-07-04T10:02:34Z</time>
      </trkpt>
      <trkpt lat="49.357877019792795" lon="-0.85090197622776">
        <ele>49.649999999999999</ele>
        <time>2018-07-04T10:02:35Z</time>
      </trkpt>
      <trkpt lat="49.357874002307653" lon="-0.850864006206393">
        <ele>49.649999999999999</ele>
        <time>2018-07-04T10:02:36Z</time>
      </trkpt>
      <trkpt lat="49.357870984822512" lon="-0.850823018699884">
        <ele>49.649999999999999</ele>
        <time>2018-07-04T10:02:37Z</time>
      </trkpt>
      <trkpt lat="49.357789009809494" lon="-0.850709024816751">
        <ele>49.159999999999997</ele>
        <time>2018-07-04T10:02:38Z</time>
      </trkpt>
      <trkpt lat="49.357745004817843" lon="-0.850721010938287">
        <ele>48.68</ele>
        <time>2018-07-04T10:02:39Z</time>
      </trkpt>
      <trkpt lat="49.357685996219516" lon="-0.850737020373344">
        <ele>48.68</ele>
        <time>2018-07-04T10:02:40Z</time>
      </trkpt>
      <trkpt lat="49.357619024813175" lon="-0.850755041465163">
        <ele>48.200000000000003</ele>
        <time>2018-07-04T10:02:41Z</time>
      </trkpt>
      <trkpt lat="49.357543000951409" lon="-0.850775996223092">
        <ele>47.719999999999999</ele>
        <time>2018-07-04T10:02:42Z</time>
      </trkpt>
      <trkpt lat="49.357252987101674" lon="-0.85085503757">
        <ele>47.240000000000002</ele>
        <time>2018-07-04T10:02:45Z</time>
      </trkpt>
      <trkpt lat="49.356129979714751" lon="-0.851160977035761">
        <ele>47.719999999999999</ele>
        <time>2018-07-04T10:02:54Z</time>
      </trkpt>
      <trkpt lat="49.355455990880728" lon="-0.851344959810376">
        <ele>47.240000000000002</ele>
        <time>2018-07-04T10:02:59Z</time>
      </trkpt>
      <trkpt lat="49.355368986725807" lon="-0.851369015872478">
        <ele>46.759999999999998</ele>
        <time>2018-07-04T10:03:00Z</time>
      </trkpt>
      <trkpt lat="49.355231020599604" lon="-0.851497007533908">
        <ele>46.759999999999998</ele>
        <time>2018-07-04T10:03:01Z</time>
      </trkpt>
      <trkpt lat="49.355228003114462" lon="-0.851679984480143">
        <ele>46.280000000000001</ele>
        <time>2018-07-04T10:03:02Z</time>
      </trkpt>
      <trkpt lat="49.355233032256365" lon="-0.851795990020037">
        <ele>46.280000000000001</ele>
        <time>2018-07-04T10:03:03Z</time>
      </trkpt>
      <trkpt lat="49.355238983407617" lon="-0.851913001388311">
        <ele>45.799999999999997</ele>
        <time>2018-07-04T10:03:04Z</time>
      </trkpt>
      <trkpt lat="49.35524401254952" lon="-0.852036969736218">
        <ele>45.799999999999997</ele>
        <time>2018-07-04T10:03:05Z</time>
      </trkpt>
      <trkpt lat="49.355262033641338" lon="-0.852500991895795">
        <ele>45.32</ele>
        <time>2018-07-04T10:03:09Z</time>
      </trkpt>
      <trkpt lat="49.355236971750855" lon="-0.852599982172251">
        <ele>44.840000000000003</ele>
        <time>2018-07-04T10:03:10Z</time>
      </trkpt>
      <trkpt lat="49.355191038921475" lon="-0.852783964946866">
        <ele>44.840000000000003</ele>
        <time>2018-07-04T10:03:12Z</time>
      </trkpt>
      <trkpt lat="49.355200007557869" lon="-0.85289997048676">
        <ele>44.840000000000003</ele>
        <time>2018-07-04T10:03:13Z</time>
      </trkpt>
      <trkpt lat="49.3551379814744" lon="-0.852987980470061">
        <ele>44.840000000000003</ele>
        <time>2018-07-04T10:03:14Z</time>
      </trkpt>
      <trkpt lat="49.355028010904789" lon="-0.85289997048676">
        <ele>44.840000000000003</ele>
        <time>2018-07-04T10:03:15Z</time>
      </trkpt>
      <trkpt lat="49.354974031448364" lon="-0.852914974093437">
        <ele>44.840000000000003</ele>
        <time>2018-07-04T10:03:16Z</time>
      </trkpt>
      <trkpt lat="49.354877974838018" lon="-0.85294196382165">
        <ele>44.359999999999999</ele>
        <time>2018-07-04T10:03:17Z</time>
      </trkpt>
      <trkpt lat="49.354014974087477" lon="-0.852857977151871">
        <ele>43.880000000000003</ele>
        <time>2018-07-04T10:03:24Z</time>
      </trkpt>
      <trkpt lat="49.35273103415966" lon="-0.852947998791933">
        <ele>44.840000000000003</ele>
        <time>2018-07-04T10:03:32Z</time>
      </trkpt>
      <trkpt lat="49.351303009316325" lon="-0.853648977354169">
        <ele>49.159999999999997</ele>
        <time>2018-07-04T10:03:42Z</time>
      </trkpt>
      <trkpt lat="49.350445037707686" lon="-0.854119034484029">
        <ele>53.969999999999999</ele>
        <time>2018-07-04T10:03:49Z</time>
      </trkpt>
      <trkpt lat="49.349496960639954" lon="-0.854582972824574">
        <ele>58.299999999999997</ele>
        <time>2018-07-04T10:03:57Z</time>
      </trkpt>
      <trkpt lat="49.348817020654678" lon="-0.854751029983163">
        <ele>59.740000000000002</ele>
        <time>2018-07-04T10:04:05Z</time>
      </trkpt>
      <trkpt lat="49.348458023741841" lon="-0.854867035523057">
        <ele>57.340000000000003</ele>
        <time>2018-07-04T10:04:10Z</time>
      </trkpt>
      <trkpt lat="49.348416030406952" lon="-0.854925038293004">
        <ele>57.340000000000003</ele>
        <time>2018-07-04T10:04:11Z</time>
      </trkpt>
      <trkpt lat="49.348386023193598" lon="-0.854967031627893">
        <ele>57.340000000000003</ele>
        <time>2018-07-04T10:04:12Z</time>
      </trkpt>
      <trkpt lat="49.348366996273398" lon="-0.854994021356106">
        <ele>57.340000000000003</ele>
        <time>2018-07-04T10:04:13Z</time>
      </trkpt>
      <trkpt lat="49.348345035687089" lon="-0.855026040226221">
        <ele>56.859999999999999</ele>
        <time>2018-07-04T10:04:14Z</time>
      </trkpt>
      <trkpt lat="49.348277980461717" lon="-0.855331979691982">
        <ele>57.82</ele>
        <time>2018-07-04T10:04:22Z</time>
      </trkpt>
      <trkpt lat="49.348265994340181" lon="-0.855358969420195">
        <ele>58.780000000000001</ele>
        <time>2018-07-04T10:04:23Z</time>
      </trkpt>
      <trkpt lat="49.348251996561885" lon="-0.85539199411869">
        <ele>59.259999999999998</ele>
        <time>2018-07-04T10:04:24Z</time>
      </trkpt>
      <trkpt lat="49.348236992955208" lon="-0.855427030473948">
        <ele>59.740000000000002</ele>
        <time>2018-07-04T10:04:25Z</time>
      </trkpt>
      <trkpt lat="49.348226012662053" lon="-0.855453014373779">
        <ele>60.219999999999999</ele>
        <time>2018-07-04T10:04:26Z</time>
      </trkpt>
      <trkpt lat="49.348204974085093" lon="-0.855460977181792">
        <ele>60.700000000000003</ele>
        <time>2018-07-04T10:04:27Z</time>
      </trkpt>
      <trkpt lat="49.348179996013641" lon="-0.855470029637218">
        <ele>61.659999999999997</ele>
        <time>2018-07-04T10:04:28Z</time>
      </trkpt>
      <trkpt lat="49.348156023770571" lon="-0.855478998273611">
        <ele>62.140000000000001</ele>
        <time>2018-07-04T10:04:29Z</time>
      </trkpt>
      <trkpt lat="49.347824016585946" lon="-0.855548987165093">
        <ele>64.069999999999993</ele>
        <time>2018-07-04T10:04:40Z</time>
      </trkpt>
      <trkpt lat="49.347670963034034" lon="-0.855768006294966">
        <ele>65.989999999999995</ele>
        <time>2018-07-04T10:04:46Z</time>
      </trkpt>
      <trkpt lat="49.347640033811331" lon="-0.855817040428519">
        <ele>65.989999999999995</ele>
        <time>2018-07-04T10:04:47Z</time>
      </trkpt>
      <trkpt lat="49.347612960264087" lon="-0.855858027935028">
        <ele>65.989999999999995</ele>
        <time>2018-07-04T10:04:48Z</time>
      </trkpt>
      <trkpt lat="49.347593011334538" lon="-0.855890968814492">
        <ele>65.989999999999995</ele>
        <time>2018-07-04T10:04:49Z</time>
      </trkpt>
      <trkpt lat="49.347569961100817" lon="-0.85592701099813">
        <ele>66.469999999999999</ele>
        <time>2018-07-04T10:04:50Z</time>
      </trkpt>
      <trkpt lat="49.347544983029366" lon="-0.855964981019497">
        <ele>66.950000000000003</ele>
        <time>2018-07-04T10:04:51Z</time>
      </trkpt>
      <trkpt lat="49.347518999129534" lon="-0.856006974354386">
        <ele>67.430000000000007</ele>
        <time>2018-07-04T10:04:52Z</time>
      </trkpt>
      <trkpt lat="49.347440963611007" lon="-0.856129014864564">
        <ele>68.870000000000005</ele>
        <time>2018-07-04T10:05:00Z</time>
      </trkpt>
      <trkpt lat="49.347440963611007" lon="-0.856129014864564">
        <ele>68.390000000000001</ele>
        <time>2018-07-04T10:05:03Z</time>
      </trkpt>
      <trkpt lat="49.347667023539543" lon="-0.855774041265249">
        <ele>67.909999999999997</ele>
        <time>2018-07-04T10:05:13Z</time>
      </trkpt>
      <trkpt lat="49.347840026021004" lon="-0.855530966073275">
        <ele>67.430000000000007</ele>
        <time>2018-07-04T10:05:21Z</time>
      </trkpt>
      <trkpt lat="49.347852012142539" lon="-0.855516968294978">
        <ele>67.430000000000007</ele>
        <time>2018-07-04T10:05:22Z</time>
      </trkpt>
      <trkpt lat="49.347852012142539" lon="-0.855516968294978">
        <ele>67.909999999999997</ele>
        <time>2018-07-04T10:05:23Z</time>
      </trkpt>
      <trkpt lat="49.347852012142539" lon="-0.855516968294978">
        <ele>68.390000000000001</ele>
        <time>2018-07-04T10:05:38Z</time>
      </trkpt>
      <trkpt lat="49.347852012142539" lon="-0.855516968294978">
        <ele>68.870000000000005</ele>
        <time>2018-07-04T10:06:16Z</time>
      </trkpt>
      <trkpt lat="49.347852012142539" lon="-0.855516968294978">
        <ele>68.870000000000005</ele>
        <time>2018-07-04T10:06:17Z</time>
      </trkpt>
      <trkpt lat="49.347852012142539" lon="-0.855516968294978">
        <ele>68.870000000000005</ele>
        <time>2018-07-04T10:06:18Z</time>
      </trkpt>
      <trkpt lat="49.347937004640698" lon="-0.855308007448912">
        <ele>68.390000000000001</ele>
        <time>2018-07-04T10:06:24Z</time>
      </trkpt>
      <trkpt lat="49.347929041832685" lon="-0.855226032435894">
        <ele>68.390000000000001</ele>
        <time>2018-07-04T10:06:25Z</time>
      </trkpt>
      <trkpt lat="49.347899034619331" lon="-0.855113966390491">
        <ele>68.390000000000001</ele>
        <time>2018-07-04T10:06:26Z</time>
      </trkpt>
      <trkpt lat="49.347871039062738" lon="-0.855031991377473">
        <ele>68.870000000000005</ele>
        <time>2018-07-04T10:06:27Z</time>
      </trkpt>
      <trkpt lat="49.347809012979269" lon="-0.854942975565791">
        <ele>68.390000000000001</ele>
        <time>2018-07-04T10:06:28Z</time>
      </trkpt>
      <trkpt lat="49.3477469868958" lon="-0.854873992502689">
        <ele>68.390000000000001</ele>
        <time>2018-07-04T10:06:29Z</time>
      </trkpt>
      <trkpt lat="49.347664006054401" lon="-0.854797968640924">
        <ele>67.909999999999997</ele>
        <time>2018-07-04T10:06:30Z</time>
      </trkpt>
      <trkpt lat="49.347570966929197" lon="-0.854755975306034">
        <ele>67.909999999999997</ele>
        <time>2018-07-04T10:06:31Z</time>
      </trkpt>
      <trkpt lat="49.347473988309503" lon="-0.854712976142764">
        <ele>67.430000000000007</ele>
        <time>2018-07-04T10:06:32Z</time>
      </trkpt>
      <trkpt lat="49.347066963091493" lon="-0.854529999196529">
        <ele>66.469999999999999</ele>
        <time>2018-07-04T10:06:38Z</time>
      </trkpt>
      <trkpt lat="49.346989011391997" lon="-0.854451963678002">
        <ele>66.469999999999999</ele>
        <time>2018-07-04T10:06:39Z</time>
      </trkpt>
      <trkpt lat="49.346842998638749" lon="-0.854417011141777">
        <ele>65.989999999999995</ele>
        <time>2018-07-04T10:06:40Z</time>
      </trkpt>
      <trkpt lat="49.346793964505196" lon="-0.854469984769821">
        <ele>65.989999999999995</ele>
        <time>2018-07-04T10:06:41Z</time>
      </trkpt>
      <trkpt lat="49.346734033897519" lon="-0.854536034166813">
        <ele>65.989999999999995</ele>
        <time>2018-07-04T10:06:42Z</time>
      </trkpt>
      <trkpt lat="49.346671001985669" lon="-0.854605017229915">
        <ele>65.510000000000005</ele>
        <time>2018-07-04T10:06:43Z</time>
      </trkpt>
      <trkpt lat="49.346612999215722" lon="-0.854667965322733">
        <ele>65.510000000000005</ele>
        <time>2018-07-04T10:06:44Z</time>
      </trkpt>
      <trkpt lat="49.346552984789014" lon="-0.854734014719725">
        <ele>65.510000000000005</ele>
        <time>2018-07-04T10:06:45Z</time>
      </trkpt>
      <trkpt lat="49.346404038369656" lon="-0.854896958917379">
        <ele>65.030000000000001</ele>
        <time>2018-07-04T10:06:47Z</time>
      </trkpt>
      <trkpt lat="49.346318040043116" lon="-0.854991003870964">
        <ele>64.549999999999997</ele>
        <time>2018-07-04T10:06:48Z</time>
      </trkpt>
      <trkpt lat="49.345546988770366" lon="-0.855833971872926">
        <ele>65.030000000000001</ele>
        <time>2018-07-04T10:06:56Z</time>
      </trkpt>
      <trkpt lat="49.345475994050503" lon="-0.855936985462904">
        <ele>65.030000000000001</ele>
        <time>2018-07-04T10:06:57Z</time>
      </trkpt>
      <trkpt lat="49.345352025702596" lon="-0.856141000986099">
        <ele>65.030000000000001</ele>
        <time>2018-07-04T10:06:59Z</time>
      </trkpt>
      <trkpt lat="49.3452999740839" lon="-0.856225993484259">
        <ele>64.549999999999997</ele>
        <time>2018-07-04T10:07:00Z</time>
      </trkpt>
      <trkpt lat="49.345222022384405" lon="-0.856353985145688">
        <ele>65.030000000000001</ele>
        <time>2018-07-04T10:07:02Z</time>
      </trkpt>
      <trkpt lat="49.345214981585741" lon="-0.856468984857202">
        <ele>65.030000000000001</ele>
        <time>2018-07-04T10:07:03Z</time>
      </trkpt>
      <trkpt lat="49.345209030434489" lon="-0.856577027589083">
        <ele>64.549999999999997</ele>
        <time>2018-07-04T10:07:04Z</time>
      </trkpt>
      <trkpt lat="49.345201989635825" lon="-0.85667903535068">
        <ele>64.549999999999997</ele>
        <time>2018-07-04T10:07:05Z</time>
      </trkpt>
      <trkpt lat="49.345196038484573" lon="-0.856789005920291">
        <ele>64.549999999999997</ele>
        <time>2018-07-04T10:07:06Z</time>
      </trkpt>
      <trkpt lat="49.345179023221135" lon="-0.857062004506588">
        <ele>64.069999999999993</ele>
        <time>2018-07-04T10:07:08Z</time>
      </trkpt>
      <trkpt lat="49.345141975209117" lon="-0.857158983126283">
        <ele>63.579999999999998</ele>
        <time>2018-07-04T10:07:09Z</time>
      </trkpt>
      <trkpt lat="49.345043990761042" lon="-0.857413038611412">
        <ele>63.100000000000001</ele>
        <time>2018-07-04T10:07:11Z</time>
      </trkpt>
      <trkpt lat="49.344937959685922" lon="-0.857686037197709">
        <ele>62.619999999999997</ele>
        <time>2018-07-04T10:07:13Z</time>
      </trkpt>
      <trkpt lat="49.34467501938343" lon="-0.858523976057768">
        <ele>64.549999999999997</ele>
        <time>2018-07-04T10:07:19Z</time>
      </trkpt>
      <trkpt lat="49.344639983028173" lon="-0.858670994639397">
        <ele>64.549999999999997</ele>
        <time>2018-07-04T10:07:20Z</time>
      </trkpt>
      <trkpt lat="49.344562031328678" lon="-0.859005013480783">
        <ele>64.549999999999997</ele>
        <time>2018-07-04T10:07:22Z</time>
      </trkpt>
      <trkpt lat="49.344298001378775" lon="-0.861021028831601">
        <ele>70.790000000000006</ele>
        <time>2018-07-04T10:07:33Z</time>
      </trkpt>
      <trkpt lat="49.344035983085632" lon="-0.863463012501597">
        <ele>78.480000000000004</ele>
        <time>2018-07-04T10:07:46Z</time>
      </trkpt>
      <trkpt lat="49.343904973939061" lon="-0.865323040634394">
        <ele>79.450000000000003</ele>
        <time>2018-07-04T10:07:56Z</time>
      </trkpt>
      <trkpt lat="49.3439029622823" lon="-0.8655109629035">
        <ele>79.450000000000003</ele>
        <time>2018-07-04T10:07:57Z</time>
      </trkpt>
      <trkpt lat="49.34390002861619" lon="-0.865699974820018">
        <ele>79.930000000000007</ele>
        <time>2018-07-04T10:07:58Z</time>
      </trkpt>
      <trkpt lat="49.343897011131048" lon="-0.865890998393297">
        <ele>79.930000000000007</ele>
        <time>2018-07-04T10:07:59Z</time>
      </trkpt>
      <trkpt lat="49.343863986432552" lon="-0.866943011060357">
        <ele>80.409999999999997</ele>
        <time>2018-07-04T10:08:06Z</time>
      </trkpt>
      <trkpt lat="49.343844037503004" lon="-0.867020962759852">
        <ele>79.930000000000007</ele>
        <time>2018-07-04T10:08:07Z</time>
      </trkpt>
      <trkpt lat="49.343776982277632" lon="-0.867060022428632">
        <ele>79.930000000000007</ele>
        <time>2018-07-04T10:08:08Z</time>
      </trkpt>
      <trkpt lat="49.343696013092995" lon="-0.867107966914773">
        <ele>79.930000000000007</ele>
        <time>2018-07-04T10:08:09Z</time>
      </trkpt>
      <trkpt lat="49.343590987846255" lon="-0.867168987169862">
        <ele>79.930000000000007</ele>
        <time>2018-07-04T10:08:10Z</time>
      </trkpt>
      <trkpt lat="49.342780038714409" lon="-0.867453971877694">
        <ele>81.370000000000005</ele>
        <time>2018-07-04T10:08:16Z</time>
      </trkpt>
      <trkpt lat="49.341326029971242" lon="-0.867944983765483">
        <ele>83.769999999999996</ele>
        <time>2018-07-04T10:08:24Z</time>
      </trkpt>
      <trkpt lat="49.3396479729563" lon="-0.868384027853608">
        <ele>86.659999999999997</ele>
        <time>2018-07-04T10:08:33Z</time>
      </trkpt>
      <trkpt lat="49.33824903331697" lon="-0.8686020411551">
        <ele>88.099999999999994</ele>
        <time>2018-07-04T10:08:41Z</time>
      </trkpt>
      <trkpt lat="49.337772019207478" lon="-0.868631964549422">
        <ele>87.140000000000001</ele>
        <time>2018-07-04T10:08:45Z</time>
      </trkpt>
      <trkpt lat="49.337707981467247" lon="-0.868591982871294">
        <ele>87.140000000000001</ele>
        <time>2018-07-04T10:08:46Z</time>
      </trkpt>
      <trkpt lat="49.337643021717668" lon="-0.868499027565122">
        <ele>86.659999999999997</ele>
        <time>2018-07-04T10:08:47Z</time>
      </trkpt>
      <trkpt lat="49.337574960663915" lon="-0.868387967348099">
        <ele>86.180000000000007</ele>
        <time>2018-07-04T10:08:48Z</time>
      </trkpt>
      <trkpt lat="49.337522992864251" lon="-0.868230974301696">
        <ele>85.689999999999998</ele>
        <time>2018-07-04T10:08:49Z</time>
      </trkpt>
      <trkpt lat="49.337468007579446" lon="-0.868061995133758">
        <ele>85.689999999999998</ele>
        <time>2018-07-04T10:08:50Z</time>
      </trkpt>
      <trkpt lat="49.336956040933728" lon="-0.866574039682746">
        <ele>83.769999999999996</ele>
        <time>2018-07-04T10:08:57Z</time>
      </trkpt>
      <trkpt lat="49.336495958268642" lon="-0.865194965153933">
        <ele>82.810000000000002</ele>
        <time>2018-07-04T10:09:04Z</time>
      </trkpt>
      <trkpt lat="49.336418006569147" lon="-0.865118019282818">
        <ele>82.810000000000002</ele>
        <time>2018-07-04T10:09:05Z</time>
      </trkpt>
      <trkpt lat="49.336338965222239" lon="-0.865056999027729">
        <ele>82.810000000000002</ele>
        <time>2018-07-04T10:09:06Z</time>
      </trkpt>
      <trkpt lat="49.336259001865983" lon="-0.865022968500853">
        <ele>82.329999999999998</ele>
        <time>2018-07-04T10:09:07Z</time>
      </trkpt>
      <trkpt lat="49.336157999932766" lon="-0.865022968500853">
        <ele>82.810000000000002</ele>
        <time>2018-07-04T10:09:08Z</time>
      </trkpt>
      <trkpt lat="49.336039982736111" lon="-0.865020034834743">
        <ele>82.810000000000002</ele>
        <time>2018-07-04T10:09:09Z</time>
      </trkpt>
      <trkpt lat="49.33490096591413" lon="-0.864979969337583">
        <ele>80.409999999999997</ele>
        <time>2018-07-04T10:09:16Z</time>
      </trkpt>
      <trkpt lat="49.333338998258114" lon="-0.864791963249445">
        <ele>71.269999999999996</ele>
        <time>2018-07-04T10:09:25Z</time>
      </trkpt>
      <trkpt lat="49.331927988678217" lon="-0.864699007943273">
        <ele>59.259999999999998</ele>
        <time>2018-07-04T10:09:32Z</time>
      </trkpt>
      <trkpt lat="49.330703979358077" lon="-0.864632958546281">
        <ele>44.840000000000003</ele>
        <time>2018-07-04T10:09:39Z</time>
      </trkpt>
      <trkpt lat="49.330557966604829" lon="-0.864627007395029">
        <ele>43.399999999999999</ele>
        <time>2018-07-04T10:09:40Z</time>
      </trkpt>
      <trkpt lat="49.330429974943399" lon="-0.864622984081507">
        <ele>42.439999999999998</ele>
        <time>2018-07-04T10:09:41Z</time>
      </trkpt>
      <trkpt lat="49.330323021858931" lon="-0.864618960767984">
        <ele>40.990000000000002</ele>
        <time>2018-07-04T10:09:42Z</time>
      </trkpt>
      <trkpt lat="49.330235011875629" lon="-0.864615021273494">
        <ele>40.030000000000001</ele>
        <time>2018-07-04T10:09:43Z</time>
      </trkpt>
      <trkpt lat="49.329862017184496" lon="-0.864615021273494">
        <ele>39.07</ele>
        <time>2018-07-04T10:09:48Z</time>
      </trkpt>
      <trkpt lat="49.328738003969193" lon="-0.864615021273494">
        <ele>36.189999999999998</ele>
        <time>2018-07-04T10:10:01Z</time>
      </trkpt>
      <trkpt lat="49.327711975201964" lon="-0.864544026553631">
        <ele>32.82</ele>
        <time>2018-07-04T10:10:12Z</time>
      </trkpt>
      <trkpt lat="49.327613990753889" lon="-0.864532962441444">
        <ele>31.859999999999999</ele>
        <time>2018-07-04T10:10:14Z</time>
      </trkpt>
      <trkpt lat="49.32757300324738" lon="-0.864530028775334">
        <ele>31.379999999999999</ele>
        <time>2018-07-04T10:10:15Z</time>
      </trkpt>
      <trkpt lat="49.327533021569252" lon="-0.864530028775334">
        <ele>30.899999999999999</ele>
        <time>2018-07-04T10:10:16Z</time>
      </trkpt>
      <trkpt lat="49.327495973557234" lon="-0.864530028775334">
        <ele>30.899999999999999</ele>
        <time>2018-07-04T10:10:17Z</time>
      </trkpt>
      <trkpt lat="49.327462026849389" lon="-0.864530028775334">
        <ele>30.420000000000002</ele>
        <time>2018-07-04T10:10:18Z</time>
      </trkpt>
      <trkpt lat="49.327363958582282" lon="-0.86462801322341">
        <ele>30.420000000000002</ele>
        <time>2018-07-04T10:10:19Z</time>
      </trkpt>
      <trkpt lat="49.327360019087791" lon="-0.864696996286511">
        <ele>30.420000000000002</ele>
        <time>2018-07-04T10:10:20Z</time>
      </trkpt>
      <trkpt lat="49.327354989945889" lon="-0.864786012098193">
        <ele>30.420000000000002</ele>
        <time>2018-07-04T10:10:21Z</time>
      </trkpt>
      <trkpt lat="49.327349038794637" lon="-0.864896988496184">
        <ele>30.420000000000002</ele>
        <time>2018-07-04T10:10:22Z</time>
      </trkpt>
      <trkpt lat="49.327318025752902" lon="-0.865432005375624">
        <ele>30.420000000000002</ele>
        <time>2018-07-04T10:10:26Z</time>
      </trkpt>
      <trkpt lat="49.327281983569264" lon="-0.86572595871985">
        <ele>31.379999999999999</ele>
        <time>2018-07-04T10:10:28Z</time>
      </trkpt>
      <trkpt lat="49.327234961092472" lon="-0.865844981744885">
        <ele>31.859999999999999</ele>
        <time>2018-07-04T10:10:29Z</time>
      </trkpt>
      <trkpt lat="49.327182993292809" lon="-0.865978002548218">
        <ele>31.859999999999999</ele>
        <time>2018-07-04T10:10:30Z</time>
      </trkpt>
      <trkpt lat="49.326571030542254" lon="-0.867226989939809">
        <ele>34.740000000000002</ele>
        <time>2018-07-04T10:10:39Z</time>
      </trkpt>
      <trkpt lat="49.326430968940258" lon="-0.867517003789544">
        <ele>35.229999999999997</ele>
        <time>2018-07-04T10:10:41Z</time>
      </trkpt>
      <trkpt lat="49.326259978115559" lon="-0.867958981543779">
        <ele>36.189999999999998</ele>
        <time>2018-07-04T10:10:44Z</time>
      </trkpt>
      <trkpt lat="49.325877008959651" lon="-0.869009988382459">
        <ele>38.590000000000003</ele>
        <time>2018-07-04T10:10:52Z</time>
      </trkpt>
      <trkpt lat="49.325804002583027" lon="-0.869119958952069">
        <ele>39.07</ele>
        <time>2018-07-04T10:10:53Z</time>
      </trkpt>
      <trkpt lat="49.325729990378022" lon="-0.869232024997473">
        <ele>39.549999999999997</ele>
        <time>2018-07-04T10:10:54Z</time>
      </trkpt>
      <trkpt lat="49.325657989829779" lon="-0.869338978081942">
        <ele>40.030000000000001</ele>
        <time>2018-07-04T10:10:55Z</time>
      </trkpt>
      <trkpt lat="49.325585989281535" lon="-0.869445009157062">
        <ele>40.509999999999998</ele>
        <time>2018-07-04T10:10:56Z</time>
      </trkpt>
      <trkpt lat="49.32548901066184" lon="-0.869508041068912">
        <ele>41.469999999999999</ele>
        <time>2018-07-04T10:10:57Z</time>
      </trkpt>
      <trkpt lat="49.325388008728623" lon="-0.869574006646872">
        <ele>42.439999999999998</ele>
        <time>2018-07-04T10:10:58Z</time>
      </trkpt>
      <trkpt lat="49.324233988299966" lon="-0.870327036827803">
        <ele>50.609999999999999</ele>
        <time>2018-07-04T10:11:07Z</time>
      </trkpt>
      <trkpt lat="49.323181975632906" lon="-0.871003037318587">
        <ele>50.130000000000003</ele>
        <time>2018-07-04T10:11:16Z</time>
      </trkpt>
      <trkpt lat="49.322678977623582" lon="-0.871325992047787">
        <ele>46.280000000000001</ele>
        <time>2018-07-04T10:11:24Z</time>
      </trkpt>
      <trkpt lat="49.322691969573498" lon="-0.871409978717566">
        <ele>45.799999999999997</ele>
        <time>2018-07-04T10:11:25Z</time>
      </trkpt>
      <trkpt lat="49.322708984836936" lon="-0.871474016457796">
        <ele>45.799999999999997</ele>
        <time>2018-07-04T10:11:26Z</time>
      </trkpt>
      <trkpt lat="49.322734968736768" lon="-0.87156998924911">
        <ele>45.32</ele>
        <time>2018-07-04T10:11:27Z</time>
      </trkpt>
      <trkpt lat="49.322765981778502" lon="-0.871680965647101">
        <ele>45.32</ele>
        <time>2018-07-04T10:11:28Z</time>
      </trkpt>
      <trkpt lat="49.322801018133759" lon="-0.871809963136911">
        <ele>45.799999999999997</ele>
        <time>2018-07-04T10:11:29Z</time>
      </trkpt>
      <trkpt lat="49.323170995339751" lon="-0.873163975775242">
        <ele>47.240000000000002</ele>
        <time>2018-07-04T10:11:36Z</time>
      </trkpt>
      <trkpt lat="49.323774995282292" lon="-0.875290967524052">
        <ele>51.090000000000003</ele>
        <time>2018-07-04T10:11:45Z</time>
      </trkpt>
      <trkpt lat="49.323828974738717" lon="-0.875451983883977">
        <ele>51.57</ele>
        <time>2018-07-04T10:11:46Z</time>
      </trkpt>
      <trkpt lat="49.323885971680284" lon="-0.875527001917362">
        <ele>51.57</ele>
        <time>2018-07-04T10:11:47Z</time>
      </trkpt>
      <trkpt lat="49.324104990810156" lon="-0.87586797773838">
        <ele>52.049999999999997</ele>
        <time>2018-07-04T10:11:51Z</time>
      </trkpt>
      <trkpt lat="49.324099039658904" lon="-0.875967973843217">
        <ele>51.57</ele>
        <time>2018-07-04T10:11:52Z</time>
      </trkpt>
      <trkpt lat="49.324093004688621" lon="-0.876078028231859">
        <ele>51.57</ele>
        <time>2018-07-04T10:11:53Z</time>
      </trkpt>
      <trkpt lat="49.324086969718337" lon="-0.876193027943373">
        <ele>51.57</ele>
        <time>2018-07-04T10:11:54Z</time>
      </trkpt>
      <trkpt lat="49.324080012738705" lon="-0.876319007948041">
        <ele>51.090000000000003</ele>
        <time>2018-07-04T10:11:55Z</time>
      </trkpt>
      <trkpt lat="49.32407196611166" lon="-0.876458985731006">
        <ele>51.090000000000003</ele>
        <time>2018-07-04T10:11:56Z</time>
      </trkpt>
      <trkpt lat="49.324064003303647" lon="-0.876609021797776">
        <ele>50.609999999999999</ele>
        <time>2018-07-04T10:11:57Z</time>
      </trkpt>
      <trkpt lat="49.323987979441881" lon="-0.878016008064151">
        <ele>51.090000000000003</ele>
        <time>2018-07-04T10:12:04Z</time>
      </trkpt>
      <trkpt lat="49.323857976123691" lon="-0.880550025030971">
        <ele>53.490000000000002</ele>
        <time>2018-07-04T10:12:14Z</time>
      </trkpt>
      <trkpt lat="49.323778012767434" lon="-0.882798973470926">
        <ele>56.859999999999999</ele>
        <time>2018-07-04T10:12:23Z</time>
      </trkpt>
      <trkpt lat="49.323768960312009" lon="-0.883724000304937">
        <ele>57.82</ele>
        <time>2018-07-04T10:12:27Z</time>
      </trkpt>
      <trkpt lat="49.323767032474279" lon="-0.883918041363359">
        <ele>58.299999999999997</ele>
        <time>2018-07-04T10:12:28Z</time>
      </trkpt>
      <trkpt lat="49.323812965303659" lon="-0.884494967758656">
        <ele>58.780000000000001</ele>
        <time>2018-07-04T10:12:31Z</time>
      </trkpt>
      <trkpt lat="49.324085963889956" lon="-0.886474018916488">
        <ele>57.82</ele>
        <time>2018-07-04T10:12:40Z</time>
      </trkpt>
      <trkpt lat="49.324113959446549" lon="-0.886857993900776">
        <ele>57.82</ele>
        <time>2018-07-04T10:12:42Z</time>
      </trkpt>
      <trkpt lat="49.324119994416833" lon="-0.887050023302436">
        <ele>57.340000000000003</ele>
        <time>2018-07-04T10:12:43Z</time>
      </trkpt>
      <trkpt lat="49.324125023558736" lon="-0.887248003855348">
        <ele>56.859999999999999</ele>
        <time>2018-07-04T10:12:44Z</time>
      </trkpt>
      <trkpt lat="49.324051011353731" lon="-0.889119012281299">
        <ele>56.369999999999997</ele>
        <time>2018-07-04T10:12:53Z</time>
      </trkpt>
      <trkpt lat="49.323864011093974" lon="-0.890495991334319">
        <ele>58.780000000000001</ele>
        <time>2018-07-04T10:13:01Z</time>
      </trkpt>
      <trkpt lat="49.323773989453912" lon="-0.890750968828797">
        <ele>59.259999999999998</ele>
        <time>2018-07-04T10:13:03Z</time>
      </trkpt>
      <trkpt lat="49.323722021654248" lon="-0.890867980197072">
        <ele>59.259999999999998</ele>
        <time>2018-07-04T10:13:04Z</time>
      </trkpt>
      <trkpt lat="49.323663013055921" lon="-0.890982979908586">
        <ele>59.259999999999998</ele>
        <time>2018-07-04T10:13:05Z</time>
      </trkpt>
      <trkpt lat="49.323578020557761" lon="-0.891078030690551">
        <ele>59.259999999999998</ele>
        <time>2018-07-04T10:13:06Z</time>
      </trkpt>
      <trkpt lat="49.323493028059602" lon="-0.891175009310246">
        <ele>59.259999999999998</ele>
        <time>2018-07-04T10:13:07Z</time>
      </trkpt>
      <trkpt lat="49.32334098033607" lon="-0.891344994306564">
        <ele>59.740000000000002</ele>
        <time>2018-07-04T10:13:09Z</time>
      </trkpt>
      <trkpt lat="49.323291024193168" lon="-0.891426969319582">
        <ele>60.219999999999999</ele>
        <time>2018-07-04T10:13:10Z</time>
      </trkpt>
      <trkpt lat="49.323244001716375" lon="-0.891508022323251">
        <ele>60.219999999999999</ele>
        <time>2018-07-04T10:13:11Z</time>
      </trkpt>
      <trkpt lat="49.323184993118048" lon="-0.891609024256468">
        <ele>60.700000000000003</ele>
        <time>2018-07-04T10:13:12Z</time>
      </trkpt>
      <trkpt lat="49.323169989511371" lon="-0.891717988997698">
        <ele>60.700000000000003</ele>
        <time>2018-07-04T10:13:13Z</time>
      </trkpt>
      <trkpt lat="49.323150040581822" lon="-0.891856960952282">
        <ele>60.700000000000003</ele>
        <time>2018-07-04T10:13:14Z</time>
      </trkpt>
      <trkpt lat="49.323126990348101" lon="-0.892014037817717">
        <ele>60.700000000000003</ele>
        <time>2018-07-04T10:13:15Z</time>
      </trkpt>
      <trkpt lat="49.323115004226565" lon="-0.892189973965287">
        <ele>60.219999999999999</ele>
        <time>2018-07-04T10:13:16Z</time>
      </trkpt>
      <trkpt lat="49.323111986741424" lon="-0.892729014158249">
        <ele>59.259999999999998</ele>
        <time>2018-07-04T10:13:19Z</time>
      </trkpt>
      <trkpt lat="49.323126990348101" lon="-0.892901010811329">
        <ele>59.259999999999998</ele>
        <time>2018-07-04T10:13:20Z</time>
      </trkpt>
      <trkpt lat="49.323141993954778" lon="-0.893079964444041">
        <ele>58.780000000000001</ele>
        <time>2018-07-04T10:13:21Z</time>
      </trkpt>
      <trkpt lat="49.323158003389835" lon="-0.893263025209308">
        <ele>58.780000000000001</ele>
        <time>2018-07-04T10:13:22Z</time>
      </trkpt>
      <trkpt lat="49.323176024481654" lon="-0.893438039347529">
        <ele>58.780000000000001</ele>
        <time>2018-07-04T10:13:23Z</time>
      </trkpt>
      <trkpt lat="49.323280965909362" lon="-0.894907973706722">
        <ele>57.340000000000003</ele>
        <time>2018-07-04T10:13:31Z</time>
      </trkpt>
      <trkpt lat="49.323376016691327" lon="-0.89668401516974">
        <ele>57.82</ele>
        <time>2018-07-04T10:13:41Z</time>
      </trkpt>
      <trkpt lat="49.323365958407521" lon="-0.897005964070559">
        <ele>57.340000000000003</ele>
        <time>2018-07-04T10:13:43Z</time>
      </trkpt>
      <trkpt lat="49.323359001427889" lon="-0.897164968773723">
        <ele>57.340000000000003</ele>
        <time>2018-07-04T10:13:44Z</time>
      </trkpt>
      <trkpt lat="49.323336035013199" lon="-0.897320033982396">
        <ele>57.340000000000003</ele>
        <time>2018-07-04T10:13:45Z</time>
      </trkpt>
      <trkpt lat="49.323033029213548" lon="-0.89894000440836">
        <ele>56.369999999999997</ele>
        <time>2018-07-04T10:13:55Z</time>
      </trkpt>
      <trkpt lat="49.323006039485335" lon="-0.899100014939904">
        <ele>56.369999999999997</ele>
        <time>2018-07-04T10:13:56Z</time>
      </trkpt>
      <trkpt lat="49.322978965938091" lon="-0.899259019643068">
        <ele>55.890000000000001</ele>
        <time>2018-07-04T10:13:57Z</time>
      </trkpt>
      <trkpt lat="49.32295298203826" lon="-0.899417018517852">
        <ele>55.890000000000001</ele>
        <time>2018-07-04T10:13:58Z</time>
      </trkpt>
      <trkpt lat="49.322833037003875" lon="-0.900139035657048">
        <ele>54.450000000000003</ele>
        <time>2018-07-04T10:14:04Z</time>
      </trkpt>
      <trkpt lat="49.322822978720069" lon="-0.900195026770234">
        <ele>54.450000000000003</ele>
        <time>2018-07-04T10:14:05Z</time>
      </trkpt>
      <trkpt lat="49.322810992598534" lon="-0.900268033146858">
        <ele>54.450000000000003</ele>
        <time>2018-07-04T10:14:13Z</time>
      </trkpt>
      <trkpt lat="49.322822978720069" lon="-0.90033701620996">
        <ele>54.450000000000003</ele>
        <time>2018-07-04T10:14:14Z</time>
      </trkpt>
      <trkpt lat="49.322854997590184" lon="-0.900329975411296">
        <ele>53.969999999999999</ele>
        <time>2018-07-04T10:14:15Z</time>
      </trkpt>
      <trkpt lat="49.322911994531751" lon="-0.90031698346138">
        <ele>53.969999999999999</ele>
        <time>2018-07-04T10:14:16Z</time>
      </trkpt>
      <trkpt lat="49.322988018393517" lon="-0.900299968197942">
        <ele>53.969999999999999</ele>
        <time>2018-07-04T10:14:17Z</time>
      </trkpt>
      <trkpt lat="49.323075022548437" lon="-0.900280019268394">
        <ele>53.969999999999999</ele>
        <time>2018-07-04T10:14:18Z</time>
      </trkpt>
      <trkpt lat="49.323984961956739" lon="-0.900074997916818">
        <ele>52.049999999999997</ele>
        <time>2018-07-04T10:14:25Z</time>
      </trkpt>
      <trkpt lat="49.325177036225796" lon="-0.900035016238689">
        <ele>48.200000000000003</ele>
        <time>2018-07-04T10:14:32Z</time>
      </trkpt>
      <trkpt lat="49.326710002496839" lon="-0.900129983201623">
        <ele>44.840000000000003</ele>
        <time>2018-07-04T10:14:40Z</time>
      </trkpt>
      <trkpt lat="49.329165983945131" lon="-0.900815036147833">
        <ele>44.359999999999999</ele>
        <time>2018-07-04T10:14:52Z</time>
      </trkpt>
      <trkpt lat="49.329536966979504" lon="-0.900917965918779">
        <ele>43.880000000000003</ele>
        <time>2018-07-04T10:14:54Z</time>
      </trkpt>
      <trkpt lat="49.329723967239261" lon="-0.900931041687727">
        <ele>43.399999999999999</ele>
        <time>2018-07-04T10:14:55Z</time>
      </trkpt>
      <trkpt lat="49.32991499081254" lon="-0.900902962312102">
        <ele>43.399999999999999</ele>
        <time>2018-07-04T10:14:56Z</time>
      </trkpt>
      <trkpt lat="49.330108026042581" lon="-0.900874966755509">
        <ele>42.920000000000002</ele>
        <time>2018-07-04T10:14:57Z</time>
      </trkpt>
      <trkpt lat="49.330299971625209" lon="-0.900827022269368">
        <ele>42.920000000000002</ele>
        <time>2018-07-04T10:14:58Z</time>
      </trkpt>
      <trkpt lat="49.331149980425835" lon="-0.900483028963208">
        <ele>42.439999999999998</ele>
        <time>2018-07-04T10:15:03Z</time>
      </trkpt>
      <trkpt lat="49.332393016666174" lon="-0.900164013728499">
        <ele>44.359999999999999</ele>
        <time>2018-07-04T10:15:12Z</time>
      </trkpt>
      <trkpt lat="49.333385014906526" lon="-0.90020801872015">
        <ele>40.990000000000002</ele>
        <time>2018-07-04T10:15:20Z</time>
      </trkpt>
      <trkpt lat="49.333680979907513" lon="-0.900283958762884">
        <ele>40.030000000000001</ele>
        <time>2018-07-04T10:15:26Z</time>
      </trkpt>
      <trkpt lat="49.333873009309173" lon="-0.900333998724818">
        <ele>38.109999999999999</ele>
        <time>2018-07-04T10:15:36Z</time>
      </trkpt>
      <trkpt lat="49.333886001259089" lon="-0.900338022038341">
        <ele>38.109999999999999</ele>
        <time>2018-07-04T10:15:37Z</time>
      </trkpt>
      <trkpt lat="49.333860017359257" lon="-0.900330981239676">
        <ele>38.109999999999999</ele>
        <time>2018-07-04T10:15:39Z</time>
      </trkpt>
      <trkpt lat="49.333834033459425" lon="-0.900324024260044">
        <ele>38.590000000000003</ele>
        <time>2018-07-04T10:15:40Z</time>
      </trkpt>
      <trkpt lat="49.333792040124536" lon="-0.900312960147858">
        <ele>38.590000000000003</ele>
        <time>2018-07-04T10:15:41Z</time>
      </trkpt>
      <trkpt lat="49.333184016868472" lon="-0.900155967101455">
        <ele>39.07</ele>
        <time>2018-07-04T10:15:48Z</time>
      </trkpt>
      <trkpt lat="49.332011975347996" lon="-0.900239031761885">
        <ele>43.399999999999999</ele>
        <time>2018-07-04T10:15:58Z</time>
      </trkpt>
      <trkpt lat="49.331492967903614" lon="-0.900384038686752">
        <ele>45.799999999999997</ele>
        <time>2018-07-04T10:16:02Z</time>
      </trkpt>
      <trkpt lat="49.331362964585423" lon="-0.900416979566216">
        <ele>45.799999999999997</ele>
        <time>2018-07-04T10:16:03Z</time>
      </trkpt>
      <trkpt lat="49.331232039257884" lon="-0.900450004264712">
        <ele>46.280000000000001</ele>
        <time>2018-07-04T10:16:04Z</time>
      </trkpt>
      <trkpt lat="49.331094995141029" lon="-0.900504989549518">
        <ele>46.759999999999998</ele>
        <time>2018-07-04T10:16:05Z</time>
      </trkpt>
      <trkpt lat="49.330962980166078" lon="-0.900557963177562">
        <ele>46.759999999999998</ele>
        <time>2018-07-04T10:16:06Z</time>
      </trkpt>
      <trkpt lat="49.329734025523067" lon="-0.900930035859346">
        <ele>48.200000000000003</ele>
        <time>2018-07-04T10:16:14Z</time>
      </trkpt>
      <trkpt lat="49.329549036920071" lon="-0.900920983403921">
        <ele>48.200000000000003</ele>
        <time>2018-07-04T10:16:15Z</time>
      </trkpt>
      <trkpt lat="49.329352984204888" lon="-0.900874966755509">
        <ele>48.68</ele>
        <time>2018-07-04T10:16:16Z</time>
      </trkpt>
      <trkpt lat="49.329151986166835" lon="-0.90081000700593">
        <ele>48.68</ele>
        <time>2018-07-04T10:16:17Z</time>
      </trkpt>
      <trkpt lat="49.327406035736203" lon="-0.900270966812968">
        <ele>49.649999999999999</ele>
        <time>2018-07-04T10:16:25Z</time>
      </trkpt>
      <trkpt lat="49.325741976499557" lon="-0.8999930229038">
        <ele>50.609999999999999</ele>
        <time>2018-07-04T10:16:34Z</time>
      </trkpt>
      <trkpt lat="49.324350999668241" lon="-0.900000985711813">
        <ele>54.450000000000003</ele>
        <time>2018-07-04T10:16:42Z</time>
      </trkpt>
      <trkpt lat="49.324182020500302" lon="-0.900030992925167">
        <ele>54.93</ele>
        <time>2018-07-04T10:16:43Z</time>
      </trkpt>
      <trkpt lat="49.322908977046609" lon="-0.900317989289761">
        <ele>58.299999999999997</ele>
        <time>2018-07-04T10:16:50Z</time>
      </trkpt>
      <trkpt lat="49.322835970669985" lon="-0.900333998724818">
        <ele>58.780000000000001</ele>
        <time>2018-07-04T10:16:51Z</time>
      </trkpt>
      <trkpt lat="49.322799006476998" lon="-0.900341961532831">
        <ele>58.780000000000001</ele>
        <time>2018-07-04T10:16:52Z</time>
      </trkpt>
      <trkpt lat="49.322787020355463" lon="-0.900419997051358">
        <ele>58.780000000000001</ele>
        <time>2018-07-04T10:16:53Z</time>
      </trkpt>
      <trkpt lat="49.322777967900038" lon="-0.900479005649686">
        <ele>59.259999999999998</ele>
        <time>2018-07-04T10:16:54Z</time>
      </trkpt>
      <trkpt lat="49.322765981778502" lon="-0.900557963177562">
        <ele>59.740000000000002</ele>
        <time>2018-07-04T10:16:55Z</time>
      </trkpt>
      <trkpt lat="49.322750978171825" lon="-0.900657959282398">
        <ele>59.740000000000002</ele>
        <time>2018-07-04T10:16:56Z</time>
      </trkpt>
      <trkpt lat="49.322581999003887" lon="-0.901778033003211">
        <ele>61.18</ele>
        <time>2018-07-04T10:17:02Z</time>
      </trkpt>
      <trkpt lat="49.322511004284024" lon="-0.902247000485659">
        <ele>62.619999999999997</ele>
        <time>2018-07-04T10:17:04Z</time>
      </trkpt>
      <trkpt lat="49.322387035936117" lon="-0.903162974864244">
        <ele>64.069999999999993</ele>
        <time>2018-07-04T10:17:08Z</time>
      </trkpt>
      <trkpt lat="49.322341019287705" lon="-0.903773009777069">
        <ele>64.549999999999997</ele>
        <time>2018-07-04T10:17:11Z</time>
      </trkpt>
      <trkpt lat="49.322578981518745" lon="-0.905715012922883">
        <ele>64.069999999999993</ele>
        <time>2018-07-04T10:17:20Z</time>
      </trkpt>
      <trkpt lat="49.323015008121729" lon="-0.907977037131786">
        <ele>61.659999999999997</ele>
        <time>2018-07-04T10:17:30Z</time>
      </trkpt>
      <trkpt lat="49.323556981980801" lon="-0.90992197394371">
        <ele>59.740000000000002</ele>
        <time>2018-07-04T10:17:39Z</time>
      </trkpt>
      <trkpt lat="49.323785975575447" lon="-0.910679027438164">
        <ele>58.780000000000001</ele>
        <time>2018-07-04T10:17:44Z</time>
      </trkpt>
      <trkpt lat="49.323831992223859" lon="-0.910759996622801">
        <ele>58.780000000000001</ele>
        <time>2018-07-04T10:17:45Z</time>
      </trkpt>
      <trkpt lat="49.323887983337045" lon="-0.910783968865871">
        <ele>58.780000000000001</ele>
        <time>2018-07-04T10:17:46Z</time>
      </trkpt>
      <trkpt lat="49.32394296862185" lon="-0.910807019099593">
        <ele>58.780000000000001</ele>
        <time>2018-07-04T10:17:47Z</time>
      </trkpt>
      <trkpt lat="49.323995020240545" lon="-0.910786986351013">
        <ele>58.780000000000001</ele>
        <time>2018-07-04T10:17:48Z</time>
      </trkpt>
      <trkpt lat="49.324040031060576" lon="-0.910754967480898">
        <ele>58.780000000000001</ele>
        <time>2018-07-04T10:17:50Z</time>
      </trkpt>
      <trkpt lat="49.324094010517001" lon="-0.91071599163115">
        <ele>58.780000000000001</ele>
        <time>2018-07-04T10:17:51Z</time>
      </trkpt>
      <trkpt lat="49.324174979701638" lon="-0.910658994689584">
        <ele>59.259999999999998</ele>
        <time>2018-07-04T10:17:52Z</time>
      </trkpt>
      <trkpt lat="49.324257960543036" lon="-0.910599986091256">
        <ele>58.780000000000001</ele>
        <time>2018-07-04T10:17:53Z</time>
      </trkpt>
      <trkpt lat="49.324325015768409" lon="-0.910551035776734">
        <ele>58.780000000000001</ele>
        <time>2018-07-04T10:17:54Z</time>
      </trkpt>
      <trkpt lat="49.324416965246201" lon="-0.910492027178407">
        <ele>58.780000000000001</ele>
        <time>2018-07-04T10:17:55Z</time>
      </trkpt>
      <trkpt lat="49.324545040726662" lon="-0.910522034391761">
        <ele>59.259999999999998</ele>
        <time>2018-07-04T10:17:56Z</time>
      </trkpt>
      <trkpt lat="49.325177036225796" lon="-0.911183031275868">
        <ele>56.859999999999999</ele>
        <time>2018-07-04T10:18:03Z</time>
      </trkpt>
      <trkpt lat="49.325412986800075" lon="-0.911498023197055">
        <ele>55.890000000000001</ele>
        <time>2018-07-04T10:18:06Z</time>
      </trkpt>
      <trkpt lat="49.325475012883544" lon="-0.91159500181675">
        <ele>55.409999999999997</ele>
        <time>2018-07-04T10:18:07Z</time>
      </trkpt>
      <trkpt lat="49.325527986511588" lon="-0.911677982658148">
        <ele>55.409999999999997</ele>
        <time>2018-07-04T10:18:08Z</time>
      </trkpt>
      <trkpt lat="49.325646003708243" lon="-0.911964979022741">
        <ele>53.009999999999998</ele>
        <time>2018-07-04T10:18:13Z</time>
      </trkpt>
      <trkpt lat="49.32561700232327" lon="-0.91202499344945">
        <ele>52.530000000000001</ele>
        <time>2018-07-04T10:18:14Z</time>
      </trkpt>
      <trkpt lat="49.325571991503239" lon="-0.912115015089512">
        <ele>52.049999999999997</ele>
        <time>2018-07-04T10:18:15Z</time>
      </trkpt>
      <trkpt lat="49.325518012046814" lon="-0.912224985659122">
        <ele>52.049999999999997</ele>
        <time>2018-07-04T10:18:16Z</time>
      </trkpt>
      <trkpt lat="49.325456991791725" lon="-0.91234995983541">
        <ele>52.530000000000001</ele>
        <time>2018-07-04T10:18:17Z</time>
      </trkpt>
      <trkpt lat="49.324903031811118" lon="-0.913565000519156">
        <ele>53.009999999999998</ele>
        <time>2018-07-04T10:18:24Z</time>
      </trkpt>
      <trkpt lat="49.324651993811131" lon="-0.914288023486733">
        <ele>53.009999999999998</ele>
        <time>2018-07-04T10:18:28Z</time>
      </trkpt>
      <trkpt lat="49.324579993262887" lon="-0.914438981562853">
        <ele>53.009999999999998</ele>
        <time>2018-07-04T10:18:29Z</time>
      </trkpt>
      <trkpt lat="49.323634011670947" lon="-0.916015030816197">
        <ele>50.609999999999999</ele>
        <time>2018-07-04T10:18:39Z</time>
      </trkpt>
      <trkpt lat="49.322789032012224" lon="-0.917483037337661">
        <ele>45.799999999999997</ele>
        <time>2018-07-04T10:18:48Z</time>
      </trkpt>
      <trkpt lat="49.322252003476024" lon="-0.918504958972335">
        <ele>40.030000000000001</ele>
        <time>2018-07-04T10:18:56Z</time>
      </trkpt>
      <trkpt lat="49.322106996551156" lon="-0.918781980872154">
        <ele>38.590000000000003</ele>
        <time>2018-07-04T10:18:59Z</time>
      </trkpt>
      <trkpt lat="49.32194396853447" lon="-0.919092027470469">
        <ele>37.149999999999999</ele>
        <time>2018-07-04T10:19:03Z</time>
      </trkpt>
      <trkpt lat="49.32168597355485" lon="-0.919552026316524">
        <ele>35.229999999999997</ele>
        <time>2018-07-04T10:19:09Z</time>
      </trkpt>
      <trkpt lat="49.321528980508447" lon="-0.919743971899152">
        <ele>33.780000000000001</ele>
        <time>2018-07-04T10:19:12Z</time>
      </trkpt>
      <trkpt lat="49.321465026587248" lon="-0.919770039618015">
        <ele>33.299999999999997</ele>
        <time>2018-07-04T10:19:13Z</time>
      </trkpt>
      <trkpt lat="49.321391014382243" lon="-0.919784037396312">
        <ele>32.82</ele>
        <time>2018-07-04T10:19:14Z</time>
      </trkpt>
      <trkpt lat="49.321309961378574" lon="-0.919799041002989">
        <ele>31.859999999999999</ele>
        <time>2018-07-04T10:19:15Z</time>
      </trkpt>
      <trkpt lat="49.321221029385924" lon="-0.919815972447395">
        <ele>31.859999999999999</ele>
        <time>2018-07-04T10:19:16Z</time>
      </trkpt>
      <trkpt lat="49.321128996089101" lon="-0.919832987710834">
        <ele>32.82</ele>
        <time>2018-07-04T10:19:17Z</time>
      </trkpt>
      <trkpt lat="49.321037968620658" lon="-0.919851008802652">
        <ele>33.299999999999997</ele>
        <time>2018-07-04T10:19:18Z</time>
      </trkpt>
      <trkpt lat="49.320790031924844" lon="-0.919905994087458">
        <ele>34.259999999999998</ele>
        <time>2018-07-04T10:19:21Z</time>
      </trkpt>
      <trkpt lat="49.320570006966591" lon="-0.920015964657068">
        <ele>32.82</ele>
        <time>2018-07-04T10:19:25Z</time>
      </trkpt>
      <trkpt lat="49.320518039166927" lon="-0.920069022104144">
        <ele>32.340000000000003</ele>
        <time>2018-07-04T10:19:26Z</time>
      </trkpt>
      <trkpt lat="49.32046003639698" lon="-0.920127024874091">
        <ele>31.379999999999999</ele>
        <time>2018-07-04T10:19:27Z</time>
      </trkpt>
      <trkpt lat="49.320399016141891" lon="-0.920187039300799">
        <ele>30.899999999999999</ele>
        <time>2018-07-04T10:19:28Z</time>
      </trkpt>
      <trkpt lat="49.320358028635383" lon="-0.920245964080095">
        <ele>29.940000000000001</ele>
        <time>2018-07-04T10:19:29Z</time>
      </trkpt>
      <trkpt lat="49.32033103890717" lon="-0.920304972678423">
        <ele>28.5</ele>
        <time>2018-07-04T10:19:30Z</time>
      </trkpt>
      <trkpt lat="49.32031000033021" lon="-0.920351995155215">
        <ele>27.530000000000001</ele>
        <time>2018-07-04T10:19:31Z</time>
      </trkpt>
      <trkpt lat="49.32029097341001" lon="-0.920390971004963">
        <ele>26.57</ele>
        <time>2018-07-04T10:19:32Z</time>
      </trkpt>
      <trkpt lat="49.320270018652081" lon="-0.920436987653375">
        <ele>25.129999999999999</ele>
        <time>2018-07-04T10:19:33Z</time>
      </trkpt>
      <trkpt lat="49.320236993953586" lon="-0.920503037050366">
        <ele>24.170000000000002</ele>
        <time>2018-07-04T10:19:34Z</time>
      </trkpt>
      <trkpt lat="49.31983801536262" lon="-0.921079963445663">
        <ele>19.359999999999999</ele>
        <time>2018-07-04T10:19:41Z</time>
      </trkpt>
      <trkpt lat="49.319772971794009" lon="-0.921150036156178">
        <ele>18.879999999999999</ele>
        <time>2018-07-04T10:19:42Z</time>
      </trkpt>
      <trkpt lat="49.319213982671499" lon="-0.921662002801895">
        <ele>15.039999999999999</ele>
        <time>2018-07-04T10:19:49Z</time>
      </trkpt>
      <trkpt lat="49.31917198933661" lon="-0.921761998906732">
        <ele>14.56</ele>
        <time>2018-07-04T10:19:50Z</time>
      </trkpt>
      <trkpt lat="49.31912999600172" lon="-0.92186501249671">
        <ele>14.08</ele>
        <time>2018-07-04T10:19:51Z</time>
      </trkpt>
      <trkpt lat="49.31912999600172" lon="-0.921964002773166">
        <ele>13.6</ele>
        <time>2018-07-04T10:19:52Z</time>
      </trkpt>
      <trkpt lat="49.319137036800385" lon="-0.922082019969821">
        <ele>13.6</ele>
        <time>2018-07-04T10:19:53Z</time>
      </trkpt>
      <trkpt lat="49.319157991558313" lon="-0.922214034944773">
        <ele>13.119999999999999</ele>
        <time>2018-07-04T10:19:54Z</time>
      </trkpt>
      <trkpt lat="49.319181963801384" lon="-0.92236096970737">
        <ele>13.6</ele>
        <time>2018-07-04T10:19:55Z</time>
      </trkpt>
      <trkpt lat="49.319207025691867" lon="-0.922517962753773">
        <ele>13.6</ele>
        <time>2018-07-04T10:19:56Z</time>
      </trkpt>
      <trkpt lat="49.319233009591699" lon="-0.922680990770459">
        <ele>13.6</ele>
        <time>2018-07-04T10:19:57Z</time>
      </trkpt>
      <trkpt lat="49.31925899349153" lon="-0.922845024615526">
        <ele>14.08</ele>
        <time>2018-07-04T10:19:58Z</time>
      </trkpt>
      <trkpt lat="49.319296963512897" lon="-0.923174014315009">
        <ele>14.56</ele>
        <time>2018-07-04T10:20:00Z</time>
      </trkpt>
      <trkpt lat="49.319289000704885" lon="-0.923320027068257">
        <ele>15.039999999999999</ele>
        <time>2018-07-04T10:20:01Z</time>
      </trkpt>
      <trkpt lat="49.319280032068491" lon="-0.923465033993125">
        <ele>14.56</ele>
        <time>2018-07-04T10:20:02Z</time>
      </trkpt>
      <trkpt lat="49.319225968793035" lon="-0.923599982634187">
        <ele>14.56</ele>
        <time>2018-07-04T10:20:03Z</time>
      </trkpt>
      <trkpt lat="49.319169977679849" lon="-0.923729985952377">
        <ele>14.56</ele>
        <time>2018-07-04T10:20:04Z</time>
      </trkpt>
      <trkpt lat="49.319098982959986" lon="-0.923848003149033">
        <ele>14.08</ele>
        <time>2018-07-04T10:20:05Z</time>
      </trkpt>
      <trkpt lat="49.319018013775349" lon="-0.923964008688927">
        <ele>14.08</ele>
        <time>2018-07-04T10:20:06Z</time>
      </trkpt>
      <trkpt lat="49.318927992135286" lon="-0.924061993137002">
        <ele>13.6</ele>
        <time>2018-07-04T10:20:07Z</time>
      </trkpt>
      <trkpt lat="49.318834031000733" lon="-0.924155032262206">
        <ele>13.119999999999999</ele>
        <time>2018-07-04T10:20:08Z</time>
      </trkpt>
      <trkpt lat="49.318516021594405" lon="-0.924473041668534">
        <ele>13.119999999999999</ele>
        <time>2018-07-04T10:20:12Z</time>
      </trkpt>
      <trkpt lat="49.318439997732639" lon="-0.924549987539649">
        <ele>13.119999999999999</ele>
        <time>2018-07-04T10:20:13Z</time>
      </trkpt>
      <trkpt lat="49.318383000791073" lon="-0.924670016393065">
        <ele>13.6</ele>
        <time>2018-07-04T10:20:14Z</time>
      </trkpt>
      <trkpt lat="49.318331032991409" lon="-0.924804965034127">
        <ele>13.119999999999999</ele>
        <time>2018-07-04T10:20:15Z</time>
      </trkpt>
      <trkpt lat="49.318280993029475" lon="-0.92493899166584">
        <ele>13.6</ele>
        <time>2018-07-04T10:20:16Z</time>
      </trkpt>
      <trkpt lat="49.318189965561032" lon="-0.925178965553641">
        <ele>14.08</ele>
        <time>2018-07-04T10:20:18Z</time>
      </trkpt>
      <trkpt lat="49.318122994154692" lon="-0.92526001855731">
        <ele>14.08</ele>
        <time>2018-07-04T10:20:19Z</time>
      </trkpt>
      <trkpt lat="49.318046970292926" lon="-0.925347022712231">
        <ele>14.56</ele>
        <time>2018-07-04T10:20:20Z</time>
      </trkpt>
      <trkpt lat="49.317852007225156" lon="-0.925480965524912">
        <ele>14.56</ele>
        <time>2018-07-04T10:20:22Z</time>
      </trkpt>
      <trkpt lat="49.316667979583144" lon="-0.926159983500838">
        <ele>13.6</ele>
        <time>2018-07-04T10:20:32Z</time>
      </trkpt>
      <trkpt lat="49.316548034548759" lon="-0.926189990714192">
        <ele>13.6</ele>
        <time>2018-07-04T10:20:33Z</time>
      </trkpt>
      <trkpt lat="49.316438985988498" lon="-0.926198959350586">
        <ele>13.6</ele>
        <time>2018-07-04T10:20:34Z</time>
      </trkpt>
      <trkpt lat="49.316148972138762" lon="-0.926198959350586">
        <ele>13.119999999999999</ele>
        <time>2018-07-04T10:20:37Z</time>
      </trkpt>
      <trkpt lat="49.316070014610887" lon="-0.926235001534224">
        <ele>13.119999999999999</ele>
        <time>2018-07-04T10:20:38Z</time>
      </trkpt>
      <trkpt lat="49.315994996577501" lon="-0.9262690320611">
        <ele>13.119999999999999</ele>
        <time>2018-07-04T10:20:39Z</time>
      </trkpt>
      <trkpt lat="49.315929030999541" lon="-0.926299961283803">
        <ele>13.119999999999999</ele>
        <time>2018-07-04T10:20:40Z</time>
      </trkpt>
      <trkpt lat="49.315868010744452" lon="-0.926328040659428">
        <ele>13.119999999999999</ele>
        <time>2018-07-04T10:20:41Z</time>
      </trkpt>
      <trkpt lat="49.315806990489364" lon="-0.926380008459091">
        <ele>12.630000000000001</ele>
        <time>2018-07-04T10:20:42Z</time>
      </trkpt>
      <trkpt lat="49.31517499499023" lon="-0.926931034773588">
        <ele>12.15</ele>
        <time>2018-07-04T10:20:50Z</time>
      </trkpt>
      <trkpt lat="49.314028015360236" lon="-0.927735026925802">
        <ele>12.15</ele>
        <time>2018-07-04T10:21:02Z</time>
      </trkpt>
      <trkpt lat="49.313672035932541" lon="-0.927871987223625">
        <ele>11.67</ele>
        <time>2018-07-04T10:21:05Z</time>
      </trkpt>
      <trkpt lat="49.31354496628046" lon="-0.927910041064024">
        <ele>11.19</ele>
        <time>2018-07-04T10:21:06Z</time>
      </trkpt>
      <trkpt lat="49.313416974619031" lon="-0.927938958629966">
        <ele>10.710000000000001</ele>
        <time>2018-07-04T10:21:07Z</time>
      </trkpt>
      <trkpt lat="49.312894027680159" lon="-0.928058987483382">
        <ele>9.27</ele>
        <time>2018-07-04T10:21:12Z</time>
      </trkpt>
      <trkpt lat="49.312829989939928" lon="-0.928108021616936">
        <ele>8.789999999999999</ele>
        <time>2018-07-04T10:21:13Z</time>
      </trkpt>
      <trkpt lat="49.312781039625406" lon="-0.928167030215263">
        <ele>8.789999999999999</ele>
        <time>2018-07-04T10:21:14Z</time>
      </trkpt>
      <trkpt lat="49.312742985785007" lon="-0.928213968873024">
        <ele>8.789999999999999</ele>
        <time>2018-07-04T10:21:15Z</time>
      </trkpt>
      <trkpt lat="49.312712978571653" lon="-0.928250011056662">
        <ele>8.310000000000001</ele>
        <time>2018-07-04T10:21:16Z</time>
      </trkpt>
      <trkpt lat="49.312688000500202" lon="-0.928281024098396">
        <ele>8.310000000000001</ele>
        <time>2018-07-04T10:21:17Z</time>
      </trkpt>
      <trkpt lat="49.312670985236764" lon="-0.928301978856325">
        <ele>8.310000000000001</ele>
        <time>2018-07-04T10:21:18Z</time>
      </trkpt>
      <trkpt lat="49.312599990516901" lon="-0.928260991349816">
        <ele>7.83</ele>
        <time>2018-07-04T10:21:19Z</time>
      </trkpt>
      <trkpt lat="49.312538970261812" lon="-0.928226038813591">
        <ele>7.83</ele>
        <time>2018-07-04T10:21:20Z</time>
      </trkpt>
      <trkpt lat="49.312465041875839" lon="-0.928183039650321">
        <ele>7.83</ele>
        <time>2018-07-04T10:21:21Z</time>
      </trkpt>
      <trkpt lat="49.312378959730268" lon="-0.928134005516768">
        <ele>8.310000000000001</ele>
        <time>2018-07-04T10:21:22Z</time>
      </trkpt>
      <trkpt lat="49.311598017811775" lon="-0.927683981135488">
        <ele>10.23</ele>
        <time>2018-07-04T10:21:28Z</time>
      </trkpt>
      <trkpt lat="49.310093969106674" lon="-0.926818968728185">
        <ele>10.710000000000001</ele>
        <time>2018-07-04T10:21:36Z</time>
      </trkpt>
      <trkpt lat="49.308939026668668" lon="-0.926155038177967">
        <ele>11.19</ele>
        <time>2018-07-04T10:21:43Z</time>
      </trkpt>
      <trkpt lat="49.308375008404255" lon="-0.925851026549935">
        <ele>11.19</ele>
        <time>2018-07-04T10:21:49Z</time>
      </trkpt>
      <trkpt lat="49.308325974270701" lon="-0.925824036821723">
        <ele>11.19</ele>
        <time>2018-07-04T10:21:50Z</time>
      </trkpt>
      <trkpt lat="49.308288004249334" lon="-0.925802998244762">
        <ele>10.710000000000001</ele>
        <time>2018-07-04T10:21:51Z</time>
      </trkpt>
      <trkpt lat="49.308262020349503" lon="-0.925789000466466">
        <ele>10.710000000000001</ele>
        <time>2018-07-04T10:21:52Z</time>
      </trkpt>
      <trkpt lat="49.308179961517453" lon="-0.92586200684309">
        <ele>10.710000000000001</ele>
        <time>2018-07-04T10:21:53Z</time>
      </trkpt>
      <trkpt lat="49.308176022022963" lon="-0.925915986299515">
        <ele>10.710000000000001</ele>
        <time>2018-07-04T10:21:54Z</time>
      </trkpt>
      <trkpt lat="49.30817099288106" lon="-0.926002990454435">
        <ele>10.710000000000001</ele>
        <time>2018-07-04T10:21:55Z</time>
      </trkpt>
      <trkpt lat="49.308165041729808" lon="-0.926115978509188">
        <ele>10.710000000000001</ele>
        <time>2018-07-04T10:21:56Z</time>
      </trkpt>
      <trkpt lat="49.308156995102763" lon="-0.926253022626042">
        <ele>10.710000000000001</ele>
        <time>2018-07-04T10:21:57Z</time>
      </trkpt>
      <trkpt lat="49.308147020637989" lon="-0.926419990137219">
        <ele>11.19</ele>
        <time>2018-07-04T10:21:58Z</time>
      </trkpt>
      <trkpt lat="49.308136040344834" lon="-0.926612019538879">
        <ele>11.19</ele>
        <time>2018-07-04T10:21:59Z</time>
      </trkpt>
      <trkpt lat="49.308009976521134" lon="-0.928386971354485">
        <ele>11.67</ele>
        <time>2018-07-04T10:22:06Z</time>
      </trkpt>
      <trkpt lat="49.307969994843006" lon="-0.92865795828402">
        <ele>11.67</ele>
        <time>2018-07-04T10:22:07Z</time>
      </trkpt>
      <trkpt lat="49.307916015386581" lon="-0.928936991840601">
        <ele>11.19</ele>
        <time>2018-07-04T10:22:08Z</time>
      </trkpt>
      <trkpt lat="49.307853989303112" lon="-0.929204961284995">
        <ele>11.19</ele>
        <time>2018-07-04T10:22:09Z</time>
      </trkpt>
      <trkpt lat="49.307457022368908" lon="-0.930338026955724">
        <ele>10.23</ele>
        <time>2018-07-04T10:22:14Z</time>
      </trkpt>
      <trkpt lat="49.307358032092452" lon="-0.930493008345366">
        <ele>10.23</ele>
        <time>2018-07-04T10:22:15Z</time>
      </trkpt>
      <trkpt lat="49.30724898353219" lon="-0.930626029148698">
        <ele>9.75</ele>
        <time>2018-07-04T10:22:16Z</time>
      </trkpt>
      <trkpt lat="49.307115962728858" lon="-0.930728036910295">
        <ele>9.27</ele>
        <time>2018-07-04T10:22:17Z</time>
      </trkpt>
      <trkpt lat="49.306985037401319" lon="-0.930828033015132">
        <ele>8.789999999999999</ele>
        <time>2018-07-04T10:22:18Z</time>
      </trkpt>
      <trkpt lat="49.306747997179627" lon="-0.931011009961367">
        <ele>7.83</ele>
        <time>2018-07-04T10:22:20Z</time>
      </trkpt>
      <trkpt lat="49.30666602216661" lon="-0.93114897608757">
        <ele>7.35</ele>
        <time>2018-07-04T10:22:21Z</time>
      </trkpt>
      <trkpt lat="49.30662402883172" lon="-0.931302029639483">
        <ele>6.87</ele>
        <time>2018-07-04T10:22:22Z</time>
      </trkpt>
      <trkpt lat="49.306635009124875" lon="-0.931450976058841">
        <ele>6.87</ele>
        <time>2018-07-04T10:22:23Z</time>
      </trkpt>
      <trkpt lat="49.306653030216694" lon="-0.931610986590385">
        <ele>6.39</ele>
        <time>2018-07-04T10:22:24Z</time>
      </trkpt>
      <trkpt lat="49.306684965267777" lon="-0.93179002404213">
        <ele>5.91</ele>
        <time>2018-07-04T10:22:25Z</time>
      </trkpt>
      <trkpt lat="49.306727964431047" lon="-0.9319849871099">
        <ele>5.91</ele>
        <time>2018-07-04T10:22:26Z</time>
      </trkpt>
      <trkpt lat="49.306785967200994" lon="-0.932190008461475">
        <ele>5.91</ele>
        <time>2018-07-04T10:22:27Z</time>
      </trkpt>
      <trkpt lat="49.307222999632359" lon="-0.933794975280762">
        <ele>5.91</ele>
        <time>2018-07-04T10:22:34Z</time>
      </trkpt>
      <trkpt lat="49.307254012674093" lon="-0.933992033824325">
        <ele>5.91</ele>
        <time>2018-07-04T10:22:35Z</time>
      </trkpt>
      <trkpt lat="49.307244960218668" lon="-0.934193031862378">
        <ele>5.91</ele>
        <time>2018-07-04T10:22:36Z</time>
      </trkpt>
      <trkpt lat="49.307215036824346" lon="-0.934396963566542">
        <ele>5.42</ele>
        <time>2018-07-04T10:22:37Z</time>
      </trkpt>
      <trkpt lat="49.30716298520565" lon="-0.934601984918118">
        <ele>4.94</ele>
        <time>2018-07-04T10:22:38Z</time>
      </trkpt>
      <trkpt lat="49.307110011577606" lon="-0.934813963249326">
        <ele>4.46</ele>
        <time>2018-07-04T10:22:39Z</time>
      </trkpt>
      <trkpt lat="49.306480027735233" lon="-0.937309004366398">
        <ele>2.54</ele>
        <time>2018-07-04T10:22:49Z</time>
      </trkpt>
      <trkpt lat="49.305476965382695" lon="-0.941086979582906">
        <ele>5.91</ele>
        <time>2018-07-04T10:23:02Z</time>
      </trkpt>
      <trkpt lat="49.304917976260185" lon="-0.943123027682304">
        <ele>8.789999999999999</ele>
        <time>2018-07-04T10:23:10Z</time>
      </trkpt>
      <trkpt lat="49.304841030389071" lon="-0.943297035992146">
        <ele>8.789999999999999</ele>
        <time>2018-07-04T10:23:11Z</time>
      </trkpt>
      <trkpt lat="49.304726030677557" lon="-0.943406000733376">
        <ele>8.789999999999999</ele>
        <time>2018-07-04T10:23:12Z</time>
      </trkpt>
      <trkpt lat="49.304609019309282" lon="-0.943514965474606">
        <ele>8.789999999999999</ele>
        <time>2018-07-04T10:23:13Z</time>
      </trkpt>
      <trkpt lat="49.304485972970724" lon="-0.94360800459981">
        <ele>9.27</ele>
        <time>2018-07-04T10:23:14Z</time>
      </trkpt>
      <trkpt lat="49.304341971874237" lon="-0.943643040955067">
        <ele>9.27</ele>
        <time>2018-07-04T10:23:15Z</time>
      </trkpt>
      <trkpt lat="49.304194031283259" lon="-0.943677993491292">
        <ele>9.27</ele>
        <time>2018-07-04T10:23:16Z</time>
      </trkpt>
      <trkpt lat="49.304049024358392" lon="-0.943705989047885">
        <ele>9.75</ele>
        <time>2018-07-04T10:23:17Z</time>
      </trkpt>
      <trkpt lat="49.303894964978099" lon="-0.943683022633195">
        <ele>9.75</ele>
        <time>2018-07-04T10:23:18Z</time>
      </trkpt>
      <trkpt lat="49.303741995245218" lon="-0.943659972399473">
        <ele>10.23</ele>
        <time>2018-07-04T10:23:19Z</time>
      </trkpt>
      <trkpt lat="49.303593970835209" lon="-0.943639017641544">
        <ele>10.710000000000001</ele>
        <time>2018-07-04T10:23:20Z</time>
      </trkpt>
      <trkpt lat="49.303445024415851" lon="-0.943637005984783">
        <ele>10.710000000000001</ele>
        <time>2018-07-04T10:23:21Z</time>
      </trkpt>
      <trkpt lat="49.303295994177461" lon="-0.943686040118337">
        <ele>11.19</ele>
        <time>2018-07-04T10:23:22Z</time>
      </trkpt>
      <trkpt lat="49.30314302444458" lon="-0.94373700208962">
        <ele>11.19</ele>
        <time>2018-07-04T10:23:23Z</time>
      </trkpt>
      <trkpt lat="49.30299298837781" lon="-0.943816965445876">
        <ele>11.67</ele>
        <time>2018-07-04T10:23:24Z</time>
      </trkpt>
      <trkpt lat="49.302839012816548" lon="-0.94391000457108">
        <ele>12.15</ele>
        <time>2018-07-04T10:23:25Z</time>
      </trkpt>
      <trkpt lat="49.301646016538143" lon="-0.944804018363357">
        <ele>15.039999999999999</ele>
        <time>2018-07-04T10:23:33Z</time>
      </trkpt>
      <trkpt lat="49.301520958542824" lon="-0.944955982267857">
        <ele>15.52</ele>
        <time>2018-07-04T10:23:34Z</time>
      </trkpt>
      <trkpt lat="49.30088996887207" lon="-0.945782018825412">
        <ele>17.920000000000002</ele>
        <time>2018-07-04T10:23:39Z</time>
      </trkpt>
      <trkpt lat="49.300744961947203" lon="-0.94590799883008">
        <ele>18.399999999999999</ele>
        <time>2018-07-04T10:23:40Z</time>
      </trkpt>
      <trkpt lat="49.300590986385942" lon="-0.946009000763297">
        <ele>19.359999999999999</ele>
        <time>2018-07-04T10:23:41Z</time>
      </trkpt>
      <trkpt lat="49.29867597296834" lon="-0.947333006188273">
        <ele>23.690000000000001</ele>
        <time>2018-07-04T10:23:53Z</time>
      </trkpt>
      <trkpt lat="49.297792017459869" lon="-0.948038008064032">
        <ele>24.170000000000002</ele>
        <time>2018-07-04T10:24:01Z</time>
      </trkpt>
      <trkpt lat="49.297648016363382" lon="-0.948152001947165">
        <ele>24.170000000000002</ele>
        <time>2018-07-04T10:24:03Z</time>
      </trkpt>
      <trkpt lat="49.297591019421816" lon="-0.948198018595576">
        <ele>23.690000000000001</ele>
        <time>2018-07-04T10:24:04Z</time>
      </trkpt>
      <trkpt lat="49.297567969188094" lon="-0.94833699055016">
        <ele>23.690000000000001</ele>
        <time>2018-07-04T10:24:05Z</time>
      </trkpt>
      <trkpt lat="49.297593031078577" lon="-0.948434974998236">
        <ele>23.690000000000001</ele>
        <time>2018-07-04T10:24:06Z</time>
      </trkpt>
      <trkpt lat="49.297622032463551" lon="-0.948552992194891">
        <ele>23.690000000000001</ele>
        <time>2018-07-04T10:24:07Z</time>
      </trkpt>
      <trkpt lat="49.297656984999776" lon="-0.948691964149475">
        <ele>23.690000000000001</ele>
        <time>2018-07-04T10:24:08Z</time>
      </trkpt>
      <trkpt lat="49.297695960849524" lon="-0.94884904101491">
        <ele>24.170000000000002</ele>
        <time>2018-07-04T10:24:09Z</time>
      </trkpt>
      <trkpt lat="49.298117989674211" lon="-0.950373960658908">
        <ele>23.690000000000001</ele>
        <time>2018-07-04T10:24:17Z</time>
      </trkpt>
      <trkpt lat="49.298297027125955" lon="-0.950963962823153">
        <ele>23.690000000000001</ele>
        <time>2018-07-04T10:24:21Z</time>
      </trkpt>
      <trkpt lat="49.298315970227122" lon="-0.951024983078241">
        <ele>23.210000000000001</ele>
        <time>2018-07-04T10:24:22Z</time>
      </trkpt>
      <trkpt lat="49.29828898049891" lon="-0.951160015538335">
        <ele>22.73</ele>
        <time>2018-07-04T10:24:23Z</time>
      </trkpt>
      <trkpt lat="49.298272971063852" lon="-0.951239978894591">
        <ele>22.25</ele>
        <time>2018-07-04T10:24:24Z</time>
      </trkpt>
      <trkpt lat="49.298216979950666" lon="-0.95132103189826">
        <ele>21.77</ele>
        <time>2018-07-04T10:24:25Z</time>
      </trkpt>
      <trkpt lat="49.298155037686229" lon="-0.951410969719291">
        <ele>21.289999999999999</ele>
        <time>2018-07-04T10:24:26Z</time>
      </trkpt>
      <trkpt lat="49.298088988289237" lon="-0.951508032158017">
        <ele>20.809999999999999</ele>
        <time>2018-07-04T10:24:27Z</time>
      </trkpt>
      <trkpt lat="49.298015981912613" lon="-0.951614985242486">
        <ele>20.32</ele>
        <time>2018-07-04T10:24:28Z</time>
      </trkpt>
      <trkpt lat="49.297946998849511" lon="-0.951754963025451">
        <ele>19.84</ele>
        <time>2018-07-04T10:24:29Z</time>
      </trkpt>
      <trkpt lat="49.297881033271551" lon="-0.951906004920602">
        <ele>19.359999999999999</ele>
        <time>2018-07-04T10:24:30Z</time>
      </trkpt>
      <trkpt lat="49.297824036329985" lon="-0.952059980481863">
        <ele>18.879999999999999</ele>
        <time>2018-07-04T10:24:31Z</time>
      </trkpt>
      <trkpt lat="49.297741977497935" lon="-0.952347982674837">
        <ele>17.440000000000001</ele>
        <time>2018-07-04T10:24:33Z</time>
      </trkpt>
      <trkpt lat="49.297716999426484" lon="-0.952484020963311">
        <ele>16.48</ele>
        <time>2018-07-04T10:24:34Z</time>
      </trkpt>
      <trkpt lat="49.297723034396768" lon="-0.952629027888179">
        <ele>16</ele>
        <time>2018-07-04T10:24:35Z</time>
      </trkpt>
      <trkpt lat="49.297728985548019" lon="-0.952793983742595">
        <ele>15.039999999999999</ele>
        <time>2018-07-04T10:24:36Z</time>
      </trkpt>
      <trkpt lat="49.297736026346684" lon="-0.952957011759281">
        <ele>14.56</ele>
        <time>2018-07-04T10:24:37Z</time>
      </trkpt>
      <trkpt lat="49.297766033560038" lon="-0.953179970383644">
        <ele>14.56</ele>
        <time>2018-07-04T10:24:38Z</time>
      </trkpt>
      <trkpt lat="49.297794029116631" lon="-0.953393960371614">
        <ele>14.08</ele>
        <time>2018-07-04T10:24:39Z</time>
      </trkpt>
      <trkpt lat="49.297939036041498" lon="-0.954667003825307">
        <ele>13.119999999999999</ele>
        <time>2018-07-04T10:24:45Z</time>
      </trkpt>
      <trkpt lat="49.297943981364369" lon="-0.95486699603498">
        <ele>13.119999999999999</ele>
        <time>2018-07-04T10:24:46Z</time>
      </trkpt>
      <trkpt lat="49.29766695946455" lon="-0.956238023936749">
        <ele>14.08</ele>
        <time>2018-07-04T10:24:55Z</time>
      </trkpt>
      <trkpt lat="49.297627983614802" lon="-0.956378001719713">
        <ele>14.56</ele>
        <time>2018-07-04T10:24:56Z</time>
      </trkpt>
      <trkpt lat="49.297589007765055" lon="-0.956515967845917">
        <ele>14.56</ele>
        <time>2018-07-04T10:24:57Z</time>
      </trkpt>
      <trkpt lat="49.297405024990439" lon="-0.956877982243896">
        <ele>15.52</ele>
        <time>2018-07-04T10:25:00Z</time>
      </trkpt>
      <trkpt lat="49.297335036098957" lon="-0.956998011097312">
        <ele>15.52</ele>
        <time>2018-07-04T10:25:01Z</time>
      </trkpt>
      <trkpt lat="49.296992970630527" lon="-0.957581978291273">
        <ele>16</ele>
        <time>2018-07-04T10:25:06Z</time>
      </trkpt>
      <trkpt lat="49.296937985345721" lon="-0.957676023244858">
        <ele>16</ele>
        <time>2018-07-04T10:25:07Z</time>
      </trkpt>
      <trkpt lat="49.296899009495974" lon="-0.957795968279243">
        <ele>16</ele>
        <time>2018-07-04T10:25:08Z</time>
      </trkpt>
      <trkpt lat="49.296899009495974" lon="-0.957928989082575">
        <ele>16</ele>
        <time>2018-07-04T10:25:09Z</time>
      </trkpt>
      <trkpt lat="49.296904960647225" lon="-0.958073996007442">
        <ele>16</ele>
        <time>2018-07-04T10:25:10Z</time>
      </trkpt>
      <trkpt lat="49.296931028366089" lon="-0.958228977397084">
        <ele>16.48</ele>
        <time>2018-07-04T10:25:11Z</time>
      </trkpt>
      <trkpt lat="49.296960029751062" lon="-0.958393011242151">
        <ele>16.960000000000001</ele>
        <time>2018-07-04T10:25:12Z</time>
      </trkpt>
      <trkpt lat="49.297151975333691" lon="-0.959608973935246">
        <ele>16.48</ele>
        <time>2018-07-04T10:25:18Z</time>
      </trkpt>
      <trkpt lat="49.297212995588779" lon="-0.960181038826704">
        <ele>16.960000000000001</ele>
        <time>2018-07-04T10:25:21Z</time>
      </trkpt>
      <trkpt lat="49.297301005572081" lon="-0.960762994363904">
        <ele>16</ele>
        <time>2018-07-04T10:25:25Z</time>
      </trkpt>
      <trkpt lat="49.297345010563731" lon="-0.960888974368572">
        <ele>16</ele>
        <time>2018-07-04T10:25:26Z</time>
      </trkpt>
      <trkpt lat="49.297740971669555" lon="-0.962095968425274">
        <ele>18.399999999999999</ele>
        <time>2018-07-04T10:25:33Z</time>
      </trkpt>
      <trkpt lat="49.298414960503578" lon="-0.964306024834514">
        <ele>22.73</ele>
        <time>2018-07-04T10:25:44Z</time>
      </trkpt>
      <trkpt lat="49.298894992098212" lon="-0.966052981093526">
        <ele>23.210000000000001</ele>
        <time>2018-07-04T10:25:53Z</time>
      </trkpt>
      <trkpt lat="49.298905972391367" lon="-0.966250961646438">
        <ele>23.210000000000001</ele>
        <time>2018-07-04T10:25:54Z</time>
      </trkpt>
      <trkpt lat="49.298916030675173" lon="-0.966452965512872">
        <ele>23.210000000000001</ele>
        <time>2018-07-04T10:25:55Z</time>
      </trkpt>
      <trkpt lat="49.298904966562986" lon="-0.96666201017797">
        <ele>23.690000000000001</ele>
        <time>2018-07-04T10:25:56Z</time>
      </trkpt>
      <trkpt lat="49.298887029290199" lon="-0.966870971024036">
        <ele>23.690000000000001</ele>
        <time>2018-07-04T10:25:57Z</time>
      </trkpt>
      <trkpt lat="49.298832966014743" lon="-0.967079009860754">
        <ele>24.170000000000002</ele>
        <time>2018-07-04T10:25:58Z</time>
      </trkpt>
      <trkpt lat="49.298776974901557" lon="-0.967290988191962">
        <ele>24.170000000000002</ele>
        <time>2018-07-04T10:25:59Z</time>
      </trkpt>
      <trkpt lat="49.298383025452495" lon="-0.969126038253307">
        <ele>24.170000000000002</ele>
        <time>2018-07-04T10:26:08Z</time>
      </trkpt>
      <trkpt lat="49.298163000494242" lon="-0.970479967072606">
        <ele>24.649999999999999</ele>
        <time>2018-07-04T10:26:14Z</time>
      </trkpt>
      <trkpt lat="49.297934006899595" lon="-0.972160035744309">
        <ele>25.129999999999999</ele>
        <time>2018-07-04T10:26:21Z</time>
      </trkpt>
      <trkpt lat="49.297767039388418" lon="-0.973171982914209">
        <ele>26.09</ele>
        <time>2018-07-04T10:26:27Z</time>
      </trkpt>
      <trkpt lat="49.297751029953361" lon="-0.973341967910528">
        <ele>26.57</ele>
        <time>2018-07-04T10:26:28Z</time>
      </trkpt>
      <trkpt lat="49.297734014689922" lon="-0.973517987877131">
        <ele>26.57</ele>
        <time>2018-07-04T10:26:29Z</time>
      </trkpt>
      <trkpt lat="49.297480965033174" lon="-0.975489998236299">
        <ele>26.09</ele>
        <time>2018-07-04T10:26:40Z</time>
      </trkpt>
      <trkpt lat="49.297204026952386" lon="-0.976521978154778">
        <ele>25.129999999999999</ele>
        <time>2018-07-04T10:26:48Z</time>
      </trkpt>
      <trkpt lat="49.297080980613828" lon="-0.977672981098294">
        <ele>25.609999999999999</ele>
        <time>2018-07-04T10:26:56Z</time>
      </trkpt>
      <trkpt lat="49.297104030847549" lon="-0.978776039555669">
        <ele>25.129999999999999</ele>
        <time>2018-07-04T10:27:05Z</time>
      </trkpt>
      <trkpt lat="49.297110987827182" lon="-0.979672987014055">
        <ele>24.649999999999999</ele>
        <time>2018-07-04T10:27:13Z</time>
      </trkpt>
      <trkpt lat="49.297101013362408" lon="-0.979751022532582">
        <ele>24.170000000000002</ele>
        <time>2018-07-04T10:27:14Z</time>
      </trkpt>
      <trkpt lat="49.297089027240872" lon="-0.979831991717219">
        <ele>24.170000000000002</ele>
        <time>2018-07-04T10:27:15Z</time>
      </trkpt>
      <trkpt lat="49.297060025855899" lon="-0.979926036670804">
        <ele>24.170000000000002</ele>
        <time>2018-07-04T10:27:16Z</time>
      </trkpt>
      <trkpt lat="49.297028006985784" lon="-0.98002502694726">
        <ele>23.690000000000001</ele>
        <time>2018-07-04T10:27:17Z</time>
      </trkpt>
      <trkpt lat="49.296994982287288" lon="-0.980130974203348">
        <ele>23.690000000000001</ele>
        <time>2018-07-04T10:27:18Z</time>
      </trkpt>
      <trkpt lat="49.296962963417172" lon="-0.98024002276361">
        <ele>23.690000000000001</ele>
        <time>2018-07-04T10:27:19Z</time>
      </trkpt>
      <trkpt lat="49.296958018094301" lon="-0.980368014425039">
        <ele>23.690000000000001</ele>
        <time>2018-07-04T10:27:20Z</time>
      </trkpt>
      <trkpt lat="49.296951983124018" lon="-0.980490976944566">
        <ele>23.690000000000001</ele>
        <time>2018-07-04T10:27:21Z</time>
      </trkpt>
      <trkpt lat="49.296947037801147" lon="-0.980605976656079">
        <ele>23.690000000000001</ele>
        <time>2018-07-04T10:27:22Z</time>
      </trkpt>
      <trkpt lat="49.296942008659244" lon="-0.980701027438045">
        <ele>23.690000000000001</ele>
        <time>2018-07-04T10:27:23Z</time>
      </trkpt>
      <trkpt lat="49.296910995617509" lon="-0.980734974145889">
        <ele>23.690000000000001</ele>
        <time>2018-07-04T10:27:24Z</time>
      </trkpt>
      <trkpt lat="49.296873025596142" lon="-0.980775961652398">
        <ele>23.690000000000001</ele>
        <time>2018-07-04T10:27:25Z</time>
      </trkpt>
      <trkpt lat="49.296832960098982" lon="-0.980819966644049">
        <ele>23.210000000000001</ele>
        <time>2018-07-04T10:27:26Z</time>
      </trkpt>
      <trkpt lat="49.296792978420854" lon="-0.980862965807319">
        <ele>23.210000000000001</ele>
        <time>2018-07-04T10:27:27Z</time>
      </trkpt>
      <trkpt lat="49.296532971784472" lon="-0.981173012405634">
        <ele>21.77</ele>
        <time>2018-07-04T10:27:34Z</time>
      </trkpt>
      <trkpt lat="49.296495001763105" lon="-0.981392031535506">
        <ele>20.809999999999999</ele>
        <time>2018-07-04T10:27:37Z</time>
      </trkpt>
      <trkpt lat="49.296517968177795" lon="-0.981446010991931">
        <ele>20.809999999999999</ele>
        <time>2018-07-04T10:27:38Z</time>
      </trkpt>
      <trkpt lat="49.296690970659256" lon="-0.982307000085711">
        <ele>17.920000000000002</ele>
        <time>2018-07-04T10:27:46Z</time>
      </trkpt>
      <trkpt lat="49.296819968149066" lon="-0.983996959403157">
        <ele>16.48</ele>
        <time>2018-07-04T10:27:55Z</time>
      </trkpt>
      <trkpt lat="49.296939997002482" lon="-0.98653600551188">
        <ele>19.84</ele>
        <time>2018-07-04T10:28:05Z</time>
      </trkpt>
      <trkpt lat="49.296726007014513" lon="-0.988989975303411">
        <ele>23.210000000000001</ele>
        <time>2018-07-04T10:28:14Z</time>
      </trkpt>
      <trkpt lat="49.296276988461614" lon="-0.991871003061533">
        <ele>22.73</ele>
        <time>2018-07-04T10:28:25Z</time>
      </trkpt>
      <trkpt lat="49.295636024326086" lon="-0.994767034426332">
        <ele>24.649999999999999</ele>
        <time>2018-07-04T10:28:37Z</time>
      </trkpt>
      <trkpt lat="49.29532497189939" lon="-0.996004035696387">
        <ele>25.609999999999999</ele>
        <time>2018-07-04T10:28:42Z</time>
      </trkpt>
      <trkpt lat="49.295298987999558" lon="-0.996270999312401">
        <ele>25.609999999999999</ele>
        <time>2018-07-04T10:28:43Z</time>
      </trkpt>
      <trkpt lat="49.295292031019926" lon="-0.996541986241937">
        <ele>25.609999999999999</ele>
        <time>2018-07-04T10:28:44Z</time>
      </trkpt>
      <trkpt lat="49.295294964686036" lon="-0.996820013970137">
        <ele>26.09</ele>
        <time>2018-07-04T10:28:45Z</time>
      </trkpt>
      <trkpt lat="49.295297982171178" lon="-0.997100975364447">
        <ele>26.09</ele>
        <time>2018-07-04T10:28:46Z</time>
      </trkpt>
      <trkpt lat="49.295175019651651" lon="-0.999979991465807">
        <ele>26.09</ele>
        <time>2018-07-04T10:28:56Z</time>
      </trkpt>
      <trkpt lat="49.29472298361361" lon="-1.002532029524446">
        <ele>23.690000000000001</ele>
        <time>2018-07-04T10:29:05Z</time>
      </trkpt>
      <trkpt lat="49.294411009177566" lon="-1.004553996026516">
        <ele>22.25</ele>
        <time>2018-07-04T10:29:12Z</time>
      </trkpt>
      <trkpt lat="49.293960984796286" lon="-1.008037012070417">
        <ele>20.32</ele>
        <time>2018-07-04T10:29:24Z</time>
      </trkpt>
      <trkpt lat="49.293331000953913" lon="-1.010527024045587">
        <ele>19.359999999999999</ele>
        <time>2018-07-04T10:29:33Z</time>
      </trkpt>
      <trkpt lat="49.292797995731235" lon="-1.012455029413104">
        <ele>14.08</ele>
        <time>2018-07-04T10:29:41Z</time>
      </trkpt>
      <trkpt lat="49.292392982169986" lon="-1.014138031750917">
        <ele>15.039999999999999</ele>
        <time>2018-07-04T10:29:51Z</time>
      </trkpt>
      <trkpt lat="49.292296003550291" lon="-1.014984017238021">
        <ele>16.960000000000001</ele>
        <time>2018-07-04T10:29:56Z</time>
      </trkpt>
      <trkpt lat="49.292305978015065" lon="-1.017177980393171">
        <ele>21.289999999999999</ele>
        <time>2018-07-04T10:30:07Z</time>
      </trkpt>
      <trkpt lat="49.292198019102216" lon="-1.01887296885252">
        <ele>24.649999999999999</ele>
        <time>2018-07-04T10:30:15Z</time>
      </trkpt>
      <trkpt lat="49.292173041030765" lon="-1.019368004053831">
        <ele>26.57</ele>
        <time>2018-07-04T10:30:18Z</time>
      </trkpt>
      <trkpt lat="49.292081007733941" lon="-1.020960984751582">
        <ele>34.259999999999998</ele>
        <time>2018-07-04T10:30:26Z</time>
      </trkpt>
      <trkpt lat="49.29203700274229" lon="-1.021145973354578">
        <ele>35.229999999999997</ele>
        <time>2018-07-04T10:30:27Z</time>
      </trkpt>
      <trkpt lat="49.291770961135626" lon="-1.022241991013289">
        <ele>37.630000000000003</ele>
        <time>2018-07-04T10:30:35Z</time>
      </trkpt>
      <trkpt lat="49.291698038578033" lon="-1.022581038996577">
        <ele>37.149999999999999</ele>
        <time>2018-07-04T10:30:39Z</time>
      </trkpt>
      <trkpt lat="49.291680017486215" lon="-1.022639963775873">
        <ele>37.149999999999999</ele>
        <time>2018-07-04T10:30:40Z</time>
      </trkpt>
      <trkpt lat="49.291664008051157" lon="-1.02269402705133">
        <ele>37.149999999999999</ele>
        <time>2018-07-04T10:30:41Z</time>
      </trkpt>
      <trkpt lat="49.291724022477865" lon="-1.02278002537787">
        <ele>37.149999999999999</ele>
        <time>2018-07-04T10:30:42Z</time>
      </trkpt>
      <trkpt lat="49.291761992499232" lon="-1.022835010662675">
        <ele>37.149999999999999</ele>
        <time>2018-07-04T10:30:43Z</time>
      </trkpt>
      <trkpt lat="49.291803985834122" lon="-1.022894019261003">
        <ele>37.149999999999999</ele>
        <time>2018-07-04T10:30:44Z</time>
      </trkpt>
      <trkpt lat="49.291850002482533" lon="-1.022941041737795">
        <ele>36.670000000000002</ele>
        <time>2018-07-04T10:30:45Z</time>
      </trkpt>
      <trkpt lat="49.291913034394383" lon="-1.022997032850981">
        <ele>36.189999999999998</ele>
        <time>2018-07-04T10:30:46Z</time>
      </trkpt>
      <trkpt lat="49.291986040771008" lon="-1.02306199260056">
        <ele>36.189999999999998</ele>
        <time>2018-07-04T10:30:47Z</time>
      </trkpt>
      <trkpt lat="49.292066004127264" lon="-1.023132987320423">
        <ele>35.710000000000001</ele>
        <time>2018-07-04T10:30:48Z</time>
      </trkpt>
      <trkpt lat="49.292676961049438" lon="-1.023677978664637">
        <ele>31.859999999999999</ele>
        <time>2018-07-04T10:30:54Z</time>
      </trkpt>
      <trkpt lat="49.292949037626386" lon="-1.023919964209199">
        <ele>29.460000000000001</ele>
        <time>2018-07-04T10:30:57Z</time>
      </trkpt>
      <trkpt lat="49.293023971840739" lon="-1.02396396920085">
        <ele>28.98</ele>
        <time>2018-07-04T10:30:58Z</time>
      </trkpt>
      <trkpt lat="49.293098989874125" lon="-1.023975033313036">
        <ele>28.5</ele>
        <time>2018-07-04T10:30:59Z</time>
      </trkpt>
      <trkpt lat="49.293173002079129" lon="-1.023972015827894">
        <ele>28.5</ele>
        <time>2018-07-04T10:31:00Z</time>
      </trkpt>
      <trkpt lat="49.293253971263766" lon="-1.023943014442921">
        <ele>28.5</ele>
        <time>2018-07-04T10:31:01Z</time>
      </trkpt>
      <trkpt lat="49.293444994837046" lon="-1.023874031379819">
        <ele>28.98</ele>
        <time>2018-07-04T10:31:03Z</time>
      </trkpt>
      <trkpt lat="49.293525964021683" lon="-1.023883000016213">
        <ele>28.98</ele>
        <time>2018-07-04T10:31:04Z</time>
      </trkpt>
      <trkpt lat="49.293743977323174" lon="-1.02396103553474">
        <ele>28.98</ele>
        <time>2018-07-04T10:31:06Z</time>
      </trkpt>
      <trkpt lat="49.293853025883436" lon="-1.02402800694108">
        <ele>28.98</ele>
        <time>2018-07-04T10:31:07Z</time>
      </trkpt>
      <trkpt lat="49.293959978967905" lon="-1.024118028581142">
        <ele>28.98</ele>
        <time>2018-07-04T10:31:08Z</time>
      </trkpt>
      <trkpt lat="49.294053018093109" lon="-1.024224981665611">
        <ele>28.98</ele>
        <time>2018-07-04T10:31:09Z</time>
      </trkpt>
      <trkpt lat="49.29414102807641" lon="-1.024326989427209">
        <ele>28.5</ele>
        <time>2018-07-04T10:31:10Z</time>
      </trkpt>
      <trkpt lat="49.294219985604286" lon="-1.024419022724032">
        <ele>28.5</ele>
        <time>2018-07-04T10:31:11Z</time>
      </trkpt>
      <trkpt lat="49.294286035001278" lon="-1.024494962766767">
        <ele>28.5</ele>
        <time>2018-07-04T10:31:12Z</time>
      </trkpt>
      <trkpt lat="49.294352000579238" lon="-1.024529999122024">
        <ele>28.5</ele>
        <time>2018-07-04T10:31:13Z</time>
      </trkpt>
      <trkpt lat="49.29442198947072" lon="-1.024504015222192">
        <ele>28.5</ele>
        <time>2018-07-04T10:31:14Z</time>
      </trkpt>
      <trkpt lat="49.294493990018964" lon="-1.02447803132236">
        <ele>28.5</ele>
        <time>2018-07-04T10:31:15Z</time>
      </trkpt>
      <trkpt lat="49.294578982517123" lon="-1.024425979703665">
        <ele>28.02</ele>
        <time>2018-07-04T10:31:16Z</time>
      </trkpt>
      <trkpt lat="49.294642014428973" lon="-1.024336041882634">
        <ele>28.02</ele>
        <time>2018-07-04T10:31:17Z</time>
      </trkpt>
      <trkpt lat="49.294709991663694" lon="-1.024237973615527">
        <ele>28.02</ele>
        <time>2018-07-04T10:31:18Z</time>
      </trkpt>
      <trkpt lat="49.29478500969708" lon="-1.024130014702678">
        <ele>28.02</ele>
        <time>2018-07-04T10:31:19Z</time>
      </trkpt>
      <trkpt lat="49.295059014111757" lon="-1.023733969777823">
        <ele>27.530000000000001</ele>
        <time>2018-07-04T10:31:23Z</time>
      </trkpt>
      <trkpt lat="49.295117016881704" lon="-1.023650988936424">
        <ele>27.530000000000001</ele>
        <time>2018-07-04T10:31:24Z</time>
      </trkpt>
      <trkpt lat="49.295175019651651" lon="-1.023610001429915">
        <ele>27.530000000000001</ele>
        <time>2018-07-04T10:31:25Z</time>
      </trkpt>
      <trkpt lat="49.295250037685037" lon="-1.023594997823238">
        <ele>28.02</ele>
        <time>2018-07-04T10:31:26Z</time>
      </trkpt>
      <trkpt lat="49.295353973284364" lon="-1.023573959246278">
        <ele>28.5</ele>
        <time>2018-07-04T10:31:27Z</time>
      </trkpt>
      <trkpt lat="49.295412981882691" lon="-1.02359801530838">
        <ele>28.5</ele>
        <time>2018-07-04T10:31:28Z</time>
      </trkpt>
      <trkpt lat="49.295507026836276" lon="-1.023634979501367">
        <ele>28.98</ele>
        <time>2018-07-04T10:31:29Z</time>
      </trkpt>
      <trkpt lat="49.296223009005189" lon="-1.023924993351102">
        <ele>28.02</ele>
        <time>2018-07-04T10:31:36Z</time>
      </trkpt>
      <trkpt lat="49.296330967918038" lon="-1.023928010836244">
        <ele>27.050000000000001</ele>
        <time>2018-07-04T10:31:37Z</time>
      </trkpt>
      <trkpt lat="49.296430964022875" lon="-1.023914013057947">
        <ele>26.57</ele>
        <time>2018-07-04T10:31:38Z</time>
      </trkpt>
      <trkpt lat="49.296712009236217" lon="-1.0238750372082">
        <ele>25.129999999999999</ele>
        <time>2018-07-04T10:31:41Z</time>
      </trkpt>
      <trkpt lat="49.296799013391137" lon="-1.023894986137748">
        <ele>24.649999999999999</ele>
        <time>2018-07-04T10:31:42Z</time>
      </trkpt>
      <trkpt lat="49.296883000060916" lon="-1.023913007229567">
        <ele>24.649999999999999</ele>
        <time>2018-07-04T10:31:43Z</time>
      </trkpt>
      <trkpt lat="49.296952988952398" lon="-1.023975033313036">
        <ele>24.649999999999999</ele>
        <time>2018-07-04T10:31:44Z</time>
      </trkpt>
      <trkpt lat="49.297024989500642" lon="-1.024052985012531">
        <ele>24.649999999999999</ele>
        <time>2018-07-04T10:31:45Z</time>
      </trkpt>
      <trkpt lat="49.297099001705647" lon="-1.02413303218782">
        <ele>24.649999999999999</ele>
        <time>2018-07-04T10:31:46Z</time>
      </trkpt>
      <trkpt lat="49.297172008082271" lon="-1.024210983887315">
        <ele>24.170000000000002</ele>
        <time>2018-07-04T10:31:47Z</time>
      </trkpt>
      <trkpt lat="49.297309974208474" lon="-1.024361019954085">
        <ele>23.690000000000001</ele>
        <time>2018-07-04T10:31:49Z</time>
      </trkpt>
      <trkpt lat="49.297377029433846" lon="-1.024433020502329">
        <ele>23.210000000000001</ele>
        <time>2018-07-04T10:31:50Z</time>
      </trkpt>
      <trkpt lat="49.297453975304961" lon="-1.02450099773705">
        <ele>22.73</ele>
        <time>2018-07-04T10:31:51Z</time>
      </trkpt>
      <trkpt lat="49.297542991116643" lon="-1.02452103048563">
        <ele>22.73</ele>
        <time>2018-07-04T10:31:52Z</time>
      </trkpt>
      <trkpt lat="49.297636030241847" lon="-1.024541985243559">
        <ele>23.210000000000001</ele>
        <time>2018-07-04T10:31:53Z</time>
      </trkpt>
      <trkpt lat="49.297737032175064" lon="-1.0245640296489">
        <ele>23.690000000000001</ele>
        <time>2018-07-04T10:31:54Z</time>
      </trkpt>
      <trkpt lat="49.298161994665861" lon="-1.024623038247228">
        <ele>24.649999999999999</ele>
        <time>2018-07-04T10:31:59Z</time>
      </trkpt>
      <trkpt lat="49.298241036012769" lon="-1.024591019377112">
        <ele>24.649999999999999</ele>
        <time>2018-07-04T10:32:00Z</time>
      </trkpt>
      <trkpt lat="49.298325022682548" lon="-1.024548020213842">
        <ele>24.170000000000002</ele>
        <time>2018-07-04T10:32:01Z</time>
      </trkpt>
      <trkpt lat="49.298389982432127" lon="-1.02445799857378">
        <ele>24.170000000000002</ele>
        <time>2018-07-04T10:32:02Z</time>
      </trkpt>
      <trkpt lat="49.298454020172358" lon="-1.024368982762098">
        <ele>24.170000000000002</ele>
        <time>2018-07-04T10:32:03Z</time>
      </trkpt>
      <trkpt lat="49.298516968265176" lon="-1.024282984435558">
        <ele>23.690000000000001</ele>
        <time>2018-07-04T10:32:04Z</time>
      </trkpt>
      <trkpt lat="49.298577988520265" lon="-1.024196986109018">
        <ele>23.210000000000001</ele>
        <time>2018-07-04T10:32:05Z</time>
      </trkpt>
      <trkpt lat="49.29865401238203" lon="-1.024150969460607">
        <ele>23.210000000000001</ele>
        <time>2018-07-04T10:32:06Z</time>
      </trkpt>
      <trkpt lat="49.29874001070857" lon="-1.024117022752762">
        <ele>22.73</ele>
        <time>2018-07-04T10:32:07Z</time>
      </trkpt>
      <trkpt lat="49.29882600903511" lon="-1.024094978347421">
        <ele>22.73</ele>
        <time>2018-07-04T10:32:08Z</time>
      </trkpt>
      <trkpt lat="49.298918964341283" lon="-1.024128003045917">
        <ele>22.73</ele>
        <time>2018-07-04T10:32:09Z</time>
      </trkpt>
      <trkpt lat="49.299018960446119" lon="-1.024163961410523">
        <ele>22.25</ele>
        <time>2018-07-04T10:32:10Z</time>
      </trkpt>
      <trkpt lat="49.299119962379336" lon="-1.02420000359416">
        <ele>22.25</ele>
        <time>2018-07-04T10:32:11Z</time>
      </trkpt>
      <trkpt lat="49.299326995387673" lon="-1.024274015799165">
        <ele>21.77</ele>
        <time>2018-07-04T10:32:13Z</time>
      </trkpt>
      <trkpt lat="49.29942799732089" lon="-1.024299999698997">
        <ele>21.77</ele>
        <time>2018-07-04T10:32:14Z</time>
      </trkpt>
      <trkpt lat="49.299530005082488" lon="-1.024283990263939">
        <ele>21.289999999999999</ele>
        <time>2018-07-04T10:32:15Z</time>
      </trkpt>
      <trkpt lat="49.299632012844086" lon="-1.024266975000501">
        <ele>20.809999999999999</ele>
        <time>2018-07-04T10:32:16Z</time>
      </trkpt>
      <trkpt lat="49.299738965928555" lon="-1.024249037727714">
        <ele>20.32</ele>
        <time>2018-07-04T10:32:17Z</time>
      </trkpt>
      <trkpt lat="49.300913019105792" lon="-1.024206960573793">
        <ele>19.359999999999999</ele>
        <time>2018-07-04T10:32:27Z</time>
      </trkpt>
      <trkpt lat="49.30181298404932" lon="-1.024410976096988">
        <ele>21.77</ele>
        <time>2018-07-04T10:32:34Z</time>
      </trkpt>
      <trkpt lat="49.303000029176474" lon="-1.024814983829856">
        <ele>20.32</ele>
        <time>2018-07-04T10:32:44Z</time>
      </trkpt>
      <trkpt lat="49.303897982463241" lon="-1.024886984378099">
        <ele>19.359999999999999</ele>
        <time>2018-07-04T10:32:52Z</time>
      </trkpt>
      <trkpt lat="49.303967971354723" lon="-1.024893019348383">
        <ele>19.359999999999999</ele>
        <time>2018-07-04T10:32:53Z</time>
      </trkpt>
      <trkpt lat="49.304037960246205" lon="-1.024897964671254">
        <ele>18.879999999999999</ele>
        <time>2018-07-04T10:32:54Z</time>
      </trkpt>
      <trkpt lat="49.304123036563396" lon="-1.024917997419834">
        <ele>18.879999999999999</ele>
        <time>2018-07-04T10:32:55Z</time>
      </trkpt>
      <trkpt lat="49.304199982434511" lon="-1.024995027109981">
        <ele>18.879999999999999</ele>
        <time>2018-07-04T10:32:56Z</time>
      </trkpt>
      <trkpt lat="49.304282963275909" lon="-1.02510298602283">
        <ele>18.879999999999999</ele>
        <time>2018-07-04T10:32:57Z</time>
      </trkpt>
      <trkpt lat="49.304366027936339" lon="-1.02523198351264">
        <ele>18.879999999999999</ele>
        <time>2018-07-04T10:32:58Z</time>
      </trkpt>
      <trkpt lat="49.30445596575737" lon="-1.025371039286256">
        <ele>18.399999999999999</ele>
        <time>2018-07-04T10:32:59Z</time>
      </trkpt>
      <trkpt lat="49.304550010710955" lon="-1.025515962392092">
        <ele>18.399999999999999</ele>
        <time>2018-07-04T10:33:00Z</time>
      </trkpt>
      <trkpt lat="49.304667022079229" lon="-1.025698017328978">
        <ele>18.399999999999999</ele>
        <time>2018-07-04T10:33:01Z</time>
      </trkpt>
      <trkpt lat="49.305610992014408" lon="-1.026856983080506">
        <ele>16.960000000000001</ele>
        <time>2018-07-04T10:33:11Z</time>
      </trkpt>
      <trkpt lat="49.306618999689817" lon="-1.028280984610319">
        <ele>17.920000000000002</ele>
        <time>2018-07-04T10:33:22Z</time>
      </trkpt>
      <trkpt lat="49.307404970750213" lon="-1.02935797534883">
        <ele>14.08</ele>
        <time>2018-07-04T10:33:31Z</time>
      </trkpt>
      <trkpt lat="49.307469008490443" lon="-1.029423018917441">
        <ele>13.6</ele>
        <time>2018-07-04T10:33:32Z</time>
      </trkpt>
      <trkpt lat="49.307537991553545" lon="-1.02944104000926">
        <ele>13.119999999999999</ele>
        <time>2018-07-04T10:33:33Z</time>
      </trkpt>
      <trkpt lat="49.307607980445027" lon="-1.029452020302415">
        <ele>12.630000000000001</ele>
        <time>2018-07-04T10:33:34Z</time>
      </trkpt>
      <trkpt lat="49.307672018185258" lon="-1.029461994767189">
        <ele>12.15</ele>
        <time>2018-07-04T10:33:35Z</time>
      </trkpt>
      <trkpt lat="49.307732032611966" lon="-1.029471969231963">
        <ele>11.67</ele>
        <time>2018-07-04T10:33:36Z</time>
      </trkpt>
      <trkpt lat="49.307789029553533" lon="-1.029481021687388">
        <ele>11.19</ele>
        <time>2018-07-04T10:33:37Z</time>
      </trkpt>
      <trkpt lat="49.307845020666718" lon="-1.029489990323782">
        <ele>11.19</ele>
        <time>2018-07-04T10:33:38Z</time>
      </trkpt>
      <trkpt lat="49.307896988466382" lon="-1.029503988102078">
        <ele>11.19</ele>
        <time>2018-07-04T10:33:39Z</time>
      </trkpt>
      <trkpt lat="49.308011988177896" lon="-1.029586968943477">
        <ele>9.75</ele>
        <time>2018-07-04T10:33:42Z</time>
      </trkpt>
      <trkpt lat="49.308068985119462" lon="-1.029574982821941">
        <ele>9.27</ele>
        <time>2018-07-04T10:33:43Z</time>
      </trkpt>
      <trkpt lat="49.308119025081396" lon="-1.02952997200191">
        <ele>8.789999999999999</ele>
        <time>2018-07-04T10:33:44Z</time>
      </trkpt>
      <trkpt lat="49.308179961517453" lon="-1.029475992545486">
        <ele>8.310000000000001</ele>
        <time>2018-07-04T10:33:45Z</time>
      </trkpt>
      <trkpt lat="49.308245005086064" lon="-1.029416983947158">
        <ele>7.83</ele>
        <time>2018-07-04T10:33:46Z</time>
      </trkpt>
      <trkpt lat="49.308914970606565" lon="-1.028738971799612">
        <ele>6.87</ele>
        <time>2018-07-04T10:33:53Z</time>
      </trkpt>
      <trkpt lat="49.30971896275878" lon="-1.027309019118547">
        <ele>5.91</ele>
        <time>2018-07-04T10:34:01Z</time>
      </trkpt>
      <trkpt lat="49.310671985149384" lon="-1.025749985128641">
        <ele>4.46</ele>
        <time>2018-07-04T10:34:10Z</time>
      </trkpt>
      <trkpt lat="49.310805005952716" lon="-1.025585029274225">
        <ele>3.98</ele>
        <time>2018-07-04T10:34:12Z</time>
      </trkpt>
      <trkpt lat="49.310837024822831" lon="-1.025544963777065">
        <ele>3.98</ele>
        <time>2018-07-04T10:34:13Z</time>
      </trkpt>
      <trkpt lat="49.310884969308972" lon="-1.025535995140672">
        <ele>3.98</ele>
        <time>2018-07-04T10:34:14Z</time>
      </trkpt>
      <trkpt lat="49.310910031199455" lon="-1.025584023445845">
        <ele>3.98</ele>
        <time>2018-07-04T10:34:15Z</time>
      </trkpt>
      <trkpt lat="49.310944983735681" lon="-1.025647977367044">
        <ele>3.5</ele>
        <time>2018-07-04T10:34:16Z</time>
      </trkpt>
      <trkpt lat="49.310988988727331" lon="-1.025732969865203">
        <ele>3.5</ele>
        <time>2018-07-04T10:34:17Z</time>
      </trkpt>
      <trkpt lat="49.31154303252697" lon="-1.026772996410728">
        <ele>3.98</ele>
        <time>2018-07-04T10:34:25Z</time>
      </trkpt>
      <trkpt lat="49.311978975310922" lon="-1.027597021311522">
        <ele>5.42</ele>
        <time>2018-07-04T10:34:33Z</time>
      </trkpt>
      <trkpt lat="49.312049970030785" lon="-1.027741022408009">
        <ele>5.91</ele>
        <time>2018-07-04T10:34:35Z</time>
      </trkpt>
      <trkpt lat="49.312085006386042" lon="-1.02781000547111">
        <ele>5.91</ele>
        <time>2018-07-04T10:34:36Z</time>
      </trkpt>
      <trkpt lat="49.312130017206073" lon="-1.027839006856084">
        <ele>5.91</ele>
        <time>2018-07-04T10:34:37Z</time>
      </trkpt>
      <trkpt lat="49.312179973348975" lon="-1.027859961614013">
        <ele>5.91</ele>
        <time>2018-07-04T10:34:38Z</time>
      </trkpt>
      <trkpt lat="49.31223101913929" lon="-1.027882006019354">
        <ele>5.91</ele>
        <time>2018-07-04T10:34:39Z</time>
      </trkpt>
      <trkpt lat="49.312649024650455" lon="-1.028059031814337">
        <ele>6.39</ele>
        <time>2018-07-04T10:34:46Z</time>
      </trkpt>
      <trkpt lat="49.312713984400034" lon="-1.028114017099142">
        <ele>6.39</ele>
        <time>2018-07-04T10:34:47Z</time>
      </trkpt>
      <trkpt lat="49.312768969684839" lon="-1.028161039575934">
        <ele>6.39</ele>
        <time>2018-07-04T10:34:48Z</time>
      </trkpt>
      <trkpt lat="49.312886986881495" lon="-1.028262041509152">
        <ele>5.91</ele>
        <time>2018-07-04T10:34:50Z</time>
      </trkpt>
      <trkpt lat="49.3129419721663" lon="-1.028309985995293">
        <ele>5.42</ele>
        <time>2018-07-04T10:34:51Z</time>
      </trkpt>
      <trkpt lat="49.312965022400022" lon="-1.028402019292116">
        <ele>5.42</ele>
        <time>2018-07-04T10:34:52Z</time>
      </trkpt>
      <trkpt lat="49.31298203766346" lon="-1.028492040932179">
        <ele>4.94</ele>
        <time>2018-07-04T10:34:53Z</time>
      </trkpt>
      <trkpt lat="49.312991006299853" lon="-1.028579967096448">
        <ele>4.94</ele>
        <time>2018-07-04T10:34:54Z</time>
      </trkpt>
      <trkpt lat="49.31298597715795" lon="-1.028681974858046">
        <ele>4.94</ele>
        <time>2018-07-04T10:34:55Z</time>
      </trkpt>
      <trkpt lat="49.312981031835079" lon="-1.028790017589927">
        <ele>4.46</ele>
        <time>2018-07-04T10:34:56Z</time>
      </trkpt>
      <trkpt lat="49.312953036278486" lon="-1.02935403585434">
        <ele>1.58</ele>
        <time>2018-07-04T10:35:01Z</time>
      </trkpt>
      <trkpt lat="49.312928980216384" lon="-1.029465012252331">
        <ele>1.1</ele>
        <time>2018-07-04T10:35:02Z</time>
      </trkpt>
      <trkpt lat="49.312891010195017" lon="-1.029567020013928">
        <ele>0.62</ele>
        <time>2018-07-04T10:35:03Z</time>
      </trkpt>
      <trkpt lat="49.312852034345269" lon="-1.029670033603907">
        <ele>0.14</ele>
        <time>2018-07-04T10:35:04Z</time>
      </trkpt>
      <trkpt lat="49.31281398050487" lon="-1.029762988910079">
        <ele>-0.34</ele>
        <time>2018-07-04T10:35:05Z</time>
      </trkpt>
      <trkpt lat="49.312754971906543" lon="-1.029841024428606">
        <ele>-0.82</ele>
        <time>2018-07-04T10:35:06Z</time>
      </trkpt>
      <trkpt lat="49.312694035470486" lon="-1.029922999441624">
        <ele>-0.82</ele>
        <time>2018-07-04T10:35:07Z</time>
      </trkpt>
      <trkpt lat="49.312632009387016" lon="-1.030004974454641">
        <ele>-1.3</ele>
        <time>2018-07-04T10:35:08Z</time>
      </trkpt>
      <trkpt lat="49.312571994960308" lon="-1.03008602745831">
        <ele>-1.3</ele>
        <time>2018-07-04T10:35:09Z</time>
      </trkpt>
      <trkpt lat="49.312516003847122" lon="-1.030160039663315">
        <ele>-1.3</ele>
        <time>2018-07-04T10:35:10Z</time>
      </trkpt>
      <trkpt lat="49.312465041875839" lon="-1.030228016898036">
        <ele>-0.82</ele>
        <time>2018-07-04T10:35:11Z</time>
      </trkpt>
      <trkpt lat="49.312423970550299" lon="-1.030313009396195">
        <ele>-0.82</ele>
        <time>2018-07-04T10:35:12Z</time>
      </trkpt>
      <trkpt lat="49.312395974993706" lon="-1.030421974137425">
        <ele>-0.34</ele>
        <time>2018-07-04T10:35:13Z</time>
      </trkpt>
      <trkpt lat="49.312306037172675" lon="-1.030783988535404">
        <ele>0.14</ele>
        <time>2018-07-04T10:35:16Z</time>
      </trkpt>
      <trkpt lat="49.312276029959321" lon="-1.030905023217201">
        <ele>0.14</ele>
        <time>2018-07-04T10:35:17Z</time>
      </trkpt>
      <trkpt lat="49.312248034402728" lon="-1.031014993786812">
        <ele>0.14</ele>
        <time>2018-07-04T10:35:18Z</time>
      </trkpt>
      <trkpt lat="49.312218027189374" lon="-1.031129993498325">
        <ele>0.14</ele>
        <time>2018-07-04T10:35:19Z</time>
      </trkpt>
      <trkpt lat="49.312161030247808" lon="-1.031213980168104">
        <ele>0.62</ele>
        <time>2018-07-04T10:35:20Z</time>
      </trkpt>
      <trkpt lat="49.312100009992719" lon="-1.031305007636547">
        <ele>0.62</ele>
        <time>2018-07-04T10:35:21Z</time>
      </trkpt>
      <trkpt lat="49.312034966424108" lon="-1.031399974599481">
        <ele>1.1</ele>
        <time>2018-07-04T10:35:22Z</time>
      </trkpt>
      <trkpt lat="49.311777977272868" lon="-1.031780010089278">
        <ele>2.06</ele>
        <time>2018-07-04T10:35:26Z</time>
      </trkpt>
      <trkpt lat="49.311726009473205" lon="-1.031877994537354">
        <ele>2.06</ele>
        <time>2018-07-04T10:35:27Z</time>
      </trkpt>
      <trkpt lat="49.311725003644824" lon="-1.031996011734009">
        <ele>2.54</ele>
        <time>2018-07-04T10:35:28Z</time>
      </trkpt>
      <trkpt lat="49.311723997816443" lon="-1.03212702088058">
        <ele>3.02</ele>
        <time>2018-07-04T10:35:29Z</time>
      </trkpt>
      <trkpt lat="49.311721986159682" lon="-1.032270016148686">
        <ele>3.5</ele>
        <time>2018-07-04T10:35:30Z</time>
      </trkpt>
      <trkpt lat="49.311705976724625" lon="-1.033611036837101">
        <ele>5.91</ele>
        <time>2018-07-04T10:35:37Z</time>
      </trkpt>
      <trkpt lat="49.311626013368368" lon="-1.034565987065435">
        <ele>6.87</ele>
        <time>2018-07-04T10:35:43Z</time>
      </trkpt>
      <trkpt lat="49.311600029468536" lon="-1.034675035625696">
        <ele>6.87</ele>
        <time>2018-07-04T10:35:44Z</time>
      </trkpt>
      <trkpt lat="49.311575973406434" lon="-1.034775031730533">
        <ele>6.87</ele>
        <time>2018-07-04T10:35:45Z</time>
      </trkpt>
      <trkpt lat="49.311512019485235" lon="-1.034832028672099">
        <ele>6.87</ele>
        <time>2018-07-04T10:35:46Z</time>
      </trkpt>
      <trkpt lat="49.311449993401766" lon="-1.034886008128524">
        <ele>6.87</ele>
        <time>2018-07-04T10:35:47Z</time>
      </trkpt>
      <trkpt lat="49.311383021995425" lon="-1.034945016726852">
        <ele>6.39</ele>
        <time>2018-07-04T10:35:48Z</time>
      </trkpt>
      <trkpt lat="49.31130800396204" lon="-1.035011988133192">
        <ele>6.39</ele>
        <time>2018-07-04T10:35:49Z</time>
      </trkpt>
      <trkpt lat="49.311229968443513" lon="-1.035080971196294">
        <ele>5.91</ele>
        <time>2018-07-04T10:35:50Z</time>
      </trkpt>
      <trkpt lat="49.311146987602115" lon="-1.035153977572918">
        <ele>5.42</ele>
        <time>2018-07-04T10:35:51Z</time>
      </trkpt>
      <trkpt lat="49.310425976291299" lon="-1.035746997222304">
        <ele>7.35</ele>
        <time>2018-07-04T10:36:00Z</time>
      </trkpt>
      <trkpt lat="49.310332015156746" lon="-1.035899966955185">
        <ele>9.75</ele>
        <time>2018-07-04T10:36:04Z</time>
      </trkpt>
      <trkpt lat="49.310352969914675" lon="-1.035971967503429">
        <ele>10.710000000000001</ele>
        <time>2018-07-04T10:36:05Z</time>
      </trkpt>
      <trkpt lat="49.310382977128029" lon="-1.036071963608265">
        <ele>11.19</ele>
        <time>2018-07-04T10:36:06Z</time>
      </trkpt>
      <trkpt lat="49.310652958229184" lon="-1.037123976275325">
        <ele>15.039999999999999</ele>
        <time>2018-07-04T10:36:13Z</time>
      </trkpt>
      <trkpt lat="49.310684977099299" lon="-1.037320028990507">
        <ele>15.52</ele>
        <time>2018-07-04T10:36:14Z</time>
      </trkpt>
      <trkpt lat="49.31070601567626" lon="-1.037525972351432">
        <ele>15.52</ele>
        <time>2018-07-04T10:36:15Z</time>
      </trkpt>
      <trkpt lat="49.310727976262569" lon="-1.037741973996162">
        <ele>16</ele>
        <time>2018-07-04T10:36:16Z</time>
      </trkpt>
      <trkpt lat="49.310751026496291" lon="-1.03797197341919">
        <ele>16</ele>
        <time>2018-07-04T10:36:17Z</time>
      </trkpt>
      <trkpt lat="49.311026036739349" lon="-1.040311027318239">
        <ele>19.359999999999999</ele>
        <time>2018-07-04T10:36:26Z</time>
      </trkpt>
      <trkpt lat="49.311389978975058" lon="-1.041909037157893">
        <ele>23.210000000000001</ele>
        <time>2018-07-04T10:36:33Z</time>
      </trkpt>
      <trkpt lat="49.311889037489891" lon="-1.043719025328755">
        <ele>23.210000000000001</ele>
        <time>2018-07-04T10:36:42Z</time>
      </trkpt>
      <trkpt lat="49.311975035816431" lon="-1.043991018086672">
        <ele>23.210000000000001</ele>
        <time>2018-07-04T10:36:44Z</time>
      </trkpt>
      <trkpt lat="49.312028009444475" lon="-1.04411599226296">
        <ele>22.73</ele>
        <time>2018-07-04T10:36:45Z</time>
      </trkpt>
      <trkpt lat="49.312093975022435" lon="-1.044200984761119">
        <ele>22.73</ele>
        <time>2018-07-04T10:36:46Z</time>
      </trkpt>
      <trkpt lat="49.312160024419427" lon="-1.044283965602517">
        <ele>22.25</ele>
        <time>2018-07-04T10:36:47Z</time>
      </trkpt>
      <trkpt lat="49.312229007482529" lon="-1.044371975585818">
        <ele>21.77</ele>
        <time>2018-07-04T10:36:48Z</time>
      </trkpt>
      <trkpt lat="49.312304025515914" lon="-1.044469038024545">
        <ele>21.289999999999999</ele>
        <time>2018-07-04T10:36:49Z</time>
      </trkpt>
      <trkpt lat="49.312392035499215" lon="-1.044581020250917">
        <ele>20.32</ele>
        <time>2018-07-04T10:36:50Z</time>
      </trkpt>
      <trkpt lat="49.312466969713569" lon="-1.044703982770443">
        <ele>19.84</ele>
        <time>2018-07-04T10:36:51Z</time>
      </trkpt>
      <trkpt lat="49.312994023784995" lon="-1.045594979077578">
        <ele>13.6</ele>
        <time>2018-07-04T10:36:58Z</time>
      </trkpt>
      <trkpt lat="49.313039034605026" lon="-1.045733029022813">
        <ele>12.630000000000001</ele>
        <time>2018-07-04T10:36:59Z</time>
      </trkpt>
      <trkpt lat="49.313077004626393" lon="-1.045884992927313">
        <ele>12.15</ele>
        <time>2018-07-04T10:37:00Z</time>
      </trkpt>
      <trkpt lat="49.31311497464776" lon="-1.046037962660193">
        <ele>11.19</ele>
        <time>2018-07-04T10:37:01Z</time>
      </trkpt>
      <trkpt lat="49.313121009618044" lon="-1.046194033697248">
        <ele>10.710000000000001</ele>
        <time>2018-07-04T10:37:02Z</time>
      </trkpt>
      <trkpt lat="49.313121009618044" lon="-1.046348009258509">
        <ele>10.23</ele>
        <time>2018-07-04T10:37:03Z</time>
      </trkpt>
      <trkpt lat="49.313121009618044" lon="-1.04650299064815">
        <ele>9.75</ele>
        <time>2018-07-04T10:37:04Z</time>
      </trkpt>
      <trkpt lat="49.313121009618044" lon="-1.046663001179695">
        <ele>9.27</ele>
        <time>2018-07-04T10:37:05Z</time>
      </trkpt>
      <trkpt lat="49.313110029324889" lon="-1.046833992004395">
        <ele>8.789999999999999</ele>
        <time>2018-07-04T10:37:06Z</time>
      </trkpt>
      <trkpt lat="49.312841976061463" lon="-1.048314990475774">
        <ele>7.83</ele>
        <time>2018-07-04T10:37:14Z</time>
      </trkpt>
      <trkpt lat="49.31246898137033" lon="-1.04965902864933">
        <ele>6.39</ele>
        <time>2018-07-04T10:37:22Z</time>
      </trkpt>
      <trkpt lat="49.31242598220706" lon="-1.049813004210591">
        <ele>6.39</ele>
        <time>2018-07-04T10:37:23Z</time>
      </trkpt>
      <trkpt lat="49.311832040548325" lon="-1.051846034824848">
        <ele>6.39</ele>
        <time>2018-07-04T10:37:35Z</time>
      </trkpt>
      <trkpt lat="49.311460973694921" lon="-1.052769972011447">
        <ele>7.35</ele>
        <time>2018-07-04T10:37:41Z</time>
      </trkpt>
      <trkpt lat="49.311388973146677" lon="-1.052886983379722">
        <ele>7.35</ele>
        <time>2018-07-04T10:37:42Z</time>
      </trkpt>
      <trkpt lat="49.311317978426814" lon="-1.053002988919616">
        <ele>7.83</ele>
        <time>2018-07-04T10:37:43Z</time>
      </trkpt>
      <trkpt lat="49.311224017292261" lon="-1.053087981417775">
        <ele>7.83</ele>
        <time>2018-07-04T10:37:44Z</time>
      </trkpt>
      <trkpt lat="49.311119997873902" lon="-1.053164005279541">
        <ele>7.83</ele>
        <time>2018-07-04T10:37:45Z</time>
      </trkpt>
      <trkpt lat="49.310043007135391" lon="-1.053973026573658">
        <ele>9.75</ele>
        <time>2018-07-04T10:37:54Z</time>
      </trkpt>
      <trkpt lat="49.30907104164362" lon="-1.055004000663757">
        <ele>12.15</ele>
        <time>2018-07-04T10:38:04Z</time>
      </trkpt>
      <trkpt lat="49.308999963104725" lon="-1.055113971233368">
        <ele>11.67</ele>
        <time>2018-07-04T10:38:05Z</time>
      </trkpt>
      <trkpt lat="49.308928968384862" lon="-1.05522695928812">
        <ele>11.67</ele>
        <time>2018-07-04T10:38:06Z</time>
      </trkpt>
      <trkpt lat="49.308778010308743" lon="-1.055467016994953">
        <ele>11.19</ele>
        <time>2018-07-04T10:38:08Z</time>
      </trkpt>
      <trkpt lat="49.308698968961835" lon="-1.05558997951448">
        <ele>11.19</ele>
        <time>2018-07-04T10:38:09Z</time>
      </trkpt>
      <trkpt lat="49.308582041412592" lon="-1.055647982284427">
        <ele>11.19</ele>
        <time>2018-07-04T10:38:10Z</time>
      </trkpt>
      <trkpt lat="49.308460000902414" lon="-1.055709002539516">
        <ele>11.19</ele>
        <time>2018-07-04T10:38:11Z</time>
      </trkpt>
      <trkpt lat="49.308346007019281" lon="-1.055765999481082">
        <ele>11.19</ele>
        <time>2018-07-04T10:38:12Z</time>
      </trkpt>
      <trkpt lat="49.307836974039674" lon="-1.05591201223433">
        <ele>12.15</ele>
        <time>2018-07-04T10:38:18Z</time>
      </trkpt>
      <trkpt lat="49.307778971269727" lon="-1.055927015841007">
        <ele>12.630000000000001</ele>
        <time>2018-07-04T10:38:19Z</time>
      </trkpt>
      <trkpt lat="49.307725997641683" lon="-1.055940007790923">
        <ele>12.630000000000001</ele>
        <time>2018-07-04T10:38:20Z</time>
      </trkpt>
      <trkpt lat="49.307653997093439" lon="-1.05608400888741">
        <ele>12.630000000000001</ele>
        <time>2018-07-04T10:38:21Z</time>
      </trkpt>
      <trkpt lat="49.307637987658381" lon="-1.056200014427304">
        <ele>12.630000000000001</ele>
        <time>2018-07-04T10:38:22Z</time>
      </trkpt>
      <trkpt lat="49.307618960738182" lon="-1.056343009695411">
        <ele>12.630000000000001</ele>
        <time>2018-07-04T10:38:23Z</time>
      </trkpt>
      <trkpt lat="49.307595994323492" lon="-1.056508971378207">
        <ele>12.630000000000001</ele>
        <time>2018-07-04T10:38:24Z</time>
      </trkpt>
      <trkpt lat="49.30735501460731" lon="-1.058376040309668">
        <ele>12.630000000000001</ele>
        <time>2018-07-04T10:38:35Z</time>
      </trkpt>
      <trkpt lat="49.307306986302137" lon="-1.058479975908995">
        <ele>12.15</ele>
        <time>2018-07-04T10:38:36Z</time>
      </trkpt>
      <trkpt lat="49.307242026552558" lon="-1.058571003377438">
        <ele>12.15</ele>
        <time>2018-07-04T10:38:37Z</time>
      </trkpt>
      <trkpt lat="49.307168014347553" lon="-1.058626994490624">
        <ele>12.15</ele>
        <time>2018-07-04T10:38:38Z</time>
      </trkpt>
      <trkpt lat="49.307084027677774" lon="-1.058690026402473">
        <ele>12.15</ele>
        <time>2018-07-04T10:38:39Z</time>
      </trkpt>
      <trkpt lat="49.307005992159247" lon="-1.058748029172421">
        <ele>11.67</ele>
        <time>2018-07-04T10:38:40Z</time>
      </trkpt>
      <trkpt lat="49.306939020752907" lon="-1.058798991143704">
        <ele>11.19</ele>
        <time>2018-07-04T10:38:41Z</time>
      </trkpt>
      <trkpt lat="49.306878000497818" lon="-1.058865040540695">
        <ele>10.710000000000001</ele>
        <time>2018-07-04T10:38:42Z</time>
      </trkpt>
      <trkpt lat="49.306827960535884" lon="-1.058952966704965">
        <ele>10.23</ele>
        <time>2018-07-04T10:38:43Z</time>
      </trkpt>
      <trkpt lat="49.306802982464433" lon="-1.059063021093607">
        <ele>10.23</ele>
        <time>2018-07-04T10:38:44Z</time>
      </trkpt>
      <trkpt lat="49.306787978857756" lon="-1.059184977784753">
        <ele>10.23</ele>
        <time>2018-07-04T10:38:45Z</time>
      </trkpt>
      <trkpt lat="49.306649006903172" lon="-1.060442011803389">
        <ele>10.710000000000001</ele>
        <time>2018-07-04T10:38:53Z</time>
      </trkpt>
      <trkpt lat="49.30666602216661" lon="-1.060580983757973">
        <ele>10.710000000000001</ele>
        <time>2018-07-04T10:38:54Z</time>
      </trkpt>
      <trkpt lat="49.306683959439397" lon="-1.060738982632756">
        <ele>10.23</ele>
        <time>2018-07-04T10:38:55Z</time>
      </trkpt>
      <trkpt lat="49.306726036593318" lon="-1.060844007879496">
        <ele>10.23</ele>
        <time>2018-07-04T10:38:56Z</time>
      </trkpt>
      <trkpt lat="49.306781021878123" lon="-1.060979962348938">
        <ele>9.75</ele>
        <time>2018-07-04T10:38:57Z</time>
      </trkpt>
      <trkpt lat="49.306998029351234" lon="-1.061642970889807">
        <ele>9.27</ele>
        <time>2018-07-04T10:39:01Z</time>
      </trkpt>
      <trkpt lat="49.307048991322517" lon="-1.061836006119847">
        <ele>9.27</ele>
        <time>2018-07-04T10:39:02Z</time>
      </trkpt>
      <trkpt lat="49.307028036564589" lon="-1.06201495975256">
        <ele>9.75</ele>
        <time>2018-07-04T10:39:03Z</time>
      </trkpt>
      <trkpt lat="49.307006997987628" lon="-1.062203971669078">
        <ele>9.75</ele>
        <time>2018-07-04T10:39:04Z</time>
      </trkpt>
      <trkpt lat="49.306985037401319" lon="-1.062396001070738">
        <ele>9.75</ele>
        <time>2018-07-04T10:39:05Z</time>
      </trkpt>
      <trkpt lat="49.306919993832707" lon="-1.063214996829629">
        <ele>9.75</ele>
        <time>2018-07-04T10:39:09Z</time>
      </trkpt>
      <trkpt lat="49.306919993832707" lon="-1.063429992645979">
        <ele>9.75</ele>
        <time>2018-07-04T10:39:10Z</time>
      </trkpt>
      <trkpt lat="49.306940026581287" lon="-1.064310008659959">
        <ele>10.710000000000001</ele>
        <time>2018-07-04T10:39:14Z</time>
      </trkpt>
      <trkpt lat="49.30692502297461" lon="-1.064531961455941">
        <ele>11.19</ele>
        <time>2018-07-04T10:39:15Z</time>
      </trkpt>
      <trkpt lat="49.30666702799499" lon="-1.066744029521942">
        <ele>15.039999999999999</ele>
        <time>2018-07-04T10:39:24Z</time>
      </trkpt>
      <trkpt lat="49.306428981944919" lon="-1.069219037890434">
        <ele>18.399999999999999</ele>
        <time>2018-07-04T10:39:34Z</time>
      </trkpt>
      <trkpt lat="49.30636896751821" lon="-1.070038033649325">
        <ele>17.440000000000001</ele>
        <time>2018-07-04T10:39:38Z</time>
      </trkpt>
      <trkpt lat="49.306393023580313" lon="-1.070203995332122">
        <ele>17.440000000000001</ele>
        <time>2018-07-04T10:39:39Z</time>
      </trkpt>
      <trkpt lat="49.306415989995003" lon="-1.070365011692047">
        <ele>17.440000000000001</ele>
        <time>2018-07-04T10:39:40Z</time>
      </trkpt>
      <trkpt lat="49.306455971673131" lon="-1.07052099891007">
        <ele>16.960000000000001</ele>
        <time>2018-07-04T10:39:41Z</time>
      </trkpt>
      <trkpt lat="49.306514980271459" lon="-1.070688972249627">
        <ele>16.960000000000001</ele>
        <time>2018-07-04T10:39:42Z</time>
      </trkpt>
      <trkpt lat="49.306579018011689" lon="-1.070871027186513">
        <ele>16.48</ele>
        <time>2018-07-04T10:39:43Z</time>
      </trkpt>
      <trkpt lat="49.306648001074791" lon="-1.071065990254283">
        <ele>16.960000000000001</ele>
        <time>2018-07-04T10:39:44Z</time>
      </trkpt>
      <trkpt lat="49.306872971355915" lon="-1.071706032380462">
        <ele>17.440000000000001</ele>
        <time>2018-07-04T10:39:47Z</time>
      </trkpt>
      <trkpt lat="49.307318972423673" lon="-1.07340102083981">
        <ele>18.399999999999999</ele>
        <time>2018-07-04T10:39:54Z</time>
      </trkpt>
      <trkpt lat="49.307542014867067" lon="-1.075681988149881">
        <ele>17.440000000000001</ele>
        <time>2018-07-04T10:40:03Z</time>
      </trkpt>
      <trkpt lat="49.308069990947843" lon="-1.077629020437598">
        <ele>16</ele>
        <time>2018-07-04T10:40:13Z</time>
      </trkpt>
      <trkpt lat="49.308165963739157" lon="-1.077775033190846">
        <ele>15.52</ele>
        <time>2018-07-04T10:40:14Z</time>
      </trkpt>
      <trkpt lat="49.308262020349503" lon="-1.077915010973811">
        <ele>15.039999999999999</ele>
        <time>2018-07-04T10:40:15Z</time>
      </trkpt>
      <trkpt lat="49.308351958170533" lon="-1.078046020120382">
        <ele>14.56</ele>
        <time>2018-07-04T10:40:16Z</time>
      </trkpt>
      <trkpt lat="49.308728976175189" lon="-1.078544994816184">
        <ele>13.6</ele>
        <time>2018-07-04T10:40:21Z</time>
      </trkpt>
      <trkpt lat="49.308802988380194" lon="-1.078611966222525">
        <ele>13.6</ele>
        <time>2018-07-04T10:40:22Z</time>
      </trkpt>
      <trkpt lat="49.308882029727101" lon="-1.078651025891304">
        <ele>13.119999999999999</ele>
        <time>2018-07-04T10:40:23Z</time>
      </trkpt>
      <trkpt lat="49.308972973376513" lon="-1.078636022284627">
        <ele>13.119999999999999</ele>
        <time>2018-07-04T10:40:24Z</time>
      </trkpt>
      <trkpt lat="49.309070035815239" lon="-1.078620012849569">
        <ele>13.119999999999999</ele>
        <time>2018-07-04T10:40:25Z</time>
      </trkpt>
      <trkpt lat="49.309171959757805" lon="-1.078601991757751">
        <ele>13.119999999999999</ele>
        <time>2018-07-04T10:40:26Z</time>
      </trkpt>
      <trkpt lat="49.309280002489686" lon="-1.078584976494312">
        <ele>13.119999999999999</ele>
        <time>2018-07-04T10:40:27Z</time>
      </trkpt>
      <trkpt lat="49.309366000816226" lon="-1.078569972887635">
        <ele>13.119999999999999</ele>
        <time>2018-07-04T10:40:28Z</time>
      </trkpt>
      <trkpt lat="49.309470020234585" lon="-1.078631998971105">
        <ele>13.119999999999999</ele>
        <time>2018-07-04T10:40:29Z</time>
      </trkpt>
      <trkpt lat="49.309562975540757" lon="-1.078687990084291">
        <ele>13.119999999999999</ele>
        <time>2018-07-04T10:40:30Z</time>
      </trkpt>
      <trkpt lat="49.309638999402523" lon="-1.078785974532366">
        <ele>13.119999999999999</ele>
        <time>2018-07-04T10:40:31Z</time>
      </trkpt>
      <trkpt lat="49.309722986072302" lon="-1.078911032527685">
        <ele>13.119999999999999</ele>
        <time>2018-07-04T10:40:32Z</time>
      </trkpt>
      <trkpt lat="49.309809990227222" lon="-1.079042963683605">
        <ele>13.119999999999999</ele>
        <time>2018-07-04T10:40:33Z</time>
      </trkpt>
      <trkpt lat="49.309896994382143" lon="-1.079185036942363">
        <ele>13.119999999999999</ele>
        <time>2018-07-04T10:40:34Z</time>
      </trkpt>
      <trkpt lat="49.309971006587148" lon="-1.079356027767062">
        <ele>13.6</ele>
        <time>2018-07-04T10:40:35Z</time>
      </trkpt>
      <trkpt lat="49.310261020436883" lon="-1.080090031027794">
        <ele>13.6</ele>
        <time>2018-07-04T10:40:39Z</time>
      </trkpt>
      <trkpt lat="49.310644995421171" lon="-1.081626014783979">
        <ele>14.08</ele>
        <time>2018-07-04T10:40:47Z</time>
      </trkpt>
      <trkpt lat="49.310722025111318" lon="-1.081931032240391">
        <ele>13.6</ele>
        <time>2018-07-04T10:40:49Z</time>
      </trkpt>
      <trkpt lat="49.310755971819162" lon="-1.082070004194975">
        <ele>13.6</ele>
        <time>2018-07-04T10:40:50Z</time>
      </trkpt>
      <trkpt lat="49.310742979869246" lon="-1.082212999463081">
        <ele>13.6</ele>
        <time>2018-07-04T10:40:51Z</time>
      </trkpt>
      <trkpt lat="49.310722025111318" lon="-1.08236001804471">
        <ele>13.6</ele>
        <time>2018-07-04T10:40:52Z</time>
      </trkpt>
      <trkpt lat="49.310699980705976" lon="-1.082514999434352">
        <ele>13.6</ele>
        <time>2018-07-04T10:40:53Z</time>
      </trkpt>
      <trkpt lat="49.310677014291286" lon="-1.082677021622658">
        <ele>13.119999999999999</ele>
        <time>2018-07-04T10:40:54Z</time>
      </trkpt>
      <trkpt lat="49.310652958229184" lon="-1.082843989133835">
        <ele>13.119999999999999</ele>
        <time>2018-07-04T10:40:55Z</time>
      </trkpt>
      <trkpt lat="49.310627980157733" lon="-1.083019003272057">
        <ele>13.119999999999999</ele>
        <time>2018-07-04T10:40:56Z</time>
      </trkpt>
      <trkpt lat="49.310614988207817" lon="-1.083200974389911">
        <ele>13.119999999999999</ele>
        <time>2018-07-04T10:40:57Z</time>
      </trkpt>
      <trkpt lat="49.310626974329352" lon="-1.083385962992907">
        <ele>12.630000000000001</ele>
        <time>2018-07-04T10:40:58Z</time>
      </trkpt>
      <trkpt lat="49.310639966279268" lon="-1.083576986566186">
        <ele>12.630000000000001</ele>
        <time>2018-07-04T10:40:59Z</time>
      </trkpt>
      <trkpt lat="49.310652958229184" lon="-1.083776978775859">
        <ele>13.119999999999999</ele>
        <time>2018-07-04T10:41:00Z</time>
      </trkpt>
      <trkpt lat="49.310702998191118" lon="-1.085839010775089">
        <ele>13.119999999999999</ele>
        <time>2018-07-04T10:41:10Z</time>
      </trkpt>
      <trkpt lat="49.310829984024167" lon="-1.08753701671958">
        <ele>12.630000000000001</ele>
        <time>2018-07-04T10:41:19Z</time>
      </trkpt>
      <trkpt lat="49.310944983735681" lon="-1.088264985010028">
        <ele>12.15</ele>
        <time>2018-07-04T10:41:23Z</time>
      </trkpt>
      <trkpt lat="49.310973985120654" lon="-1.088445028290153">
        <ele>12.15</ele>
        <time>2018-07-04T10:41:24Z</time>
      </trkpt>
      <trkpt lat="49.310940960422158" lon="-1.090248981490731">
        <ele>13.6</ele>
        <time>2018-07-04T10:41:34Z</time>
      </trkpt>
      <trkpt lat="49.310753038153052" lon="-1.092253010720015">
        <ele>16.48</ele>
        <time>2018-07-04T10:41:46Z</time>
      </trkpt>
      <trkpt lat="49.310614988207817" lon="-1.092977039515972">
        <ele>16.960000000000001</ele>
        <time>2018-07-04T10:41:50Z</time>
      </trkpt>
      <trkpt lat="49.310565032064915" lon="-1.093163033947349">
        <ele>16.960000000000001</ele>
        <time>2018-07-04T10:41:51Z</time>
      </trkpt>
      <trkpt lat="49.310515997931361" lon="-1.093347016721964">
        <ele>17.440000000000001</ele>
        <time>2018-07-04T10:41:52Z</time>
      </trkpt>
      <trkpt lat="49.310469981282949" lon="-1.093521025031805">
        <ele>17.920000000000002</ele>
        <time>2018-07-04T10:41:53Z</time>
      </trkpt>
      <trkpt lat="49.310426982119679" lon="-1.093682963401079">
        <ele>17.920000000000002</ele>
        <time>2018-07-04T10:41:54Z</time>
      </trkpt>
      <trkpt lat="49.310387000441551" lon="-1.09383299946785">
        <ele>17.920000000000002</ele>
        <time>2018-07-04T10:41:55Z</time>
      </trkpt>
      <trkpt lat="49.310342995449901" lon="-1.094161989167333">
        <ele>16.960000000000001</ele>
        <time>2018-07-04T10:41:57Z</time>
      </trkpt>
      <trkpt lat="49.310357999056578" lon="-1.09432996250689">
        <ele>16.48</ele>
        <time>2018-07-04T10:41:58Z</time>
      </trkpt>
      <trkpt lat="49.310373002663255" lon="-1.094500031322241">
        <ele>16.48</ele>
        <time>2018-07-04T10:41:59Z</time>
      </trkpt>
      <trkpt lat="49.310388006269932" lon="-1.09467001631856">
        <ele>16.48</ele>
        <time>2018-07-04T10:42:00Z</time>
      </trkpt>
      <trkpt lat="49.310403009876609" lon="-1.094838995486498">
        <ele>16.48</ele>
        <time>2018-07-04T10:42:01Z</time>
      </trkpt>
      <trkpt lat="49.310418013483286" lon="-1.095005962997675">
        <ele>16.48</ele>
        <time>2018-07-04T10:42:02Z</time>
      </trkpt>
      <trkpt lat="49.310432011261582" lon="-1.095162034034729">
        <ele>16.48</ele>
        <time>2018-07-04T10:42:03Z</time>
      </trkpt>
      <trkpt lat="49.310431005433202" lon="-1.095303017646074">
        <ele>16.48</ele>
        <time>2018-07-04T10:42:04Z</time>
      </trkpt>
      <trkpt lat="49.310410972684622" lon="-1.095440983772278">
        <ele>16.48</ele>
        <time>2018-07-04T10:42:05Z</time>
      </trkpt>
      <trkpt lat="49.310395969077945" lon="-1.095542991533876">
        <ele>16.960000000000001</ele>
        <time>2018-07-04T10:42:06Z</time>
      </trkpt>
      <trkpt lat="49.310354981571436" lon="-1.095675006508827">
        <ele>16.960000000000001</ele>
        <time>2018-07-04T10:42:07Z</time>
      </trkpt>
      <trkpt lat="49.310324974358082" lon="-1.095769973471761">
        <ele>17.440000000000001</ele>
        <time>2018-07-04T10:42:08Z</time>
      </trkpt>
      <trkpt lat="49.310302007943392" lon="-1.095839962363243">
        <ele>17.440000000000001</ele>
        <time>2018-07-04T10:42:09Z</time>
      </trkpt>
      <trkpt lat="49.310287004336715" lon="-1.095890002325177">
        <ele>18.399999999999999</ele>
        <time>2018-07-04T10:42:10Z</time>
      </trkpt>
      <trkpt lat="49.310324974358082" lon="-1.096012964844704">
        <ele>18.399999999999999</ele>
        <time>2018-07-04T10:42:11Z</time>
      </trkpt>
      <trkpt lat="49.310357999056578" lon="-1.096048001199961">
        <ele>18.399999999999999</ele>
        <time>2018-07-04T10:42:12Z</time>
      </trkpt>
      <trkpt lat="49.310404015704989" lon="-1.096097035333514">
        <ele>18.399999999999999</ele>
        <time>2018-07-04T10:42:13Z</time>
      </trkpt>
      <trkpt lat="49.310459000989795" lon="-1.096156965941191">
        <ele>18.399999999999999</ele>
        <time>2018-07-04T10:42:14Z</time>
      </trkpt>
      <trkpt lat="49.311128966510296" lon="-1.09692701138556">
        <ele>15.039999999999999</ele>
        <time>2018-07-04T10:42:22Z</time>
      </trkpt>
      <trkpt lat="49.311680998653173" lon="-1.097725974395871">
        <ele>13.119999999999999</ele>
        <time>2018-07-04T10:42:29Z</time>
      </trkpt>
      <trkpt lat="49.311733972281218" lon="-1.097800992429256">
        <ele>12.630000000000001</ele>
        <time>2018-07-04T10:42:30Z</time>
      </trkpt>
      <trkpt lat="49.311919966712594" lon="-1.097775008529425">
        <ele>12.630000000000001</ele>
        <time>2018-07-04T10:42:31Z</time>
      </trkpt>
      <trkpt lat="49.311919966712594" lon="-1.097775008529425">
        <ele>12.630000000000001</ele>
        <time>2018-07-04T10:42:32Z</time>
      </trkpt>
      <trkpt lat="49.311965983361006" lon="-1.097775008529425">
        <ele>12.630000000000001</ele>
        <time>2018-07-04T10:42:33Z</time>
      </trkpt>
      <trkpt lat="49.312034966424108" lon="-1.097775008529425">
        <ele>12.15</ele>
        <time>2018-07-04T10:42:34Z</time>
      </trkpt>
      <trkpt lat="49.31210202164948" lon="-1.097840974107385">
        <ele>12.630000000000001</ele>
        <time>2018-07-04T10:42:35Z</time>
      </trkpt>
      <trkpt lat="49.312156001105905" lon="-1.097909035161138">
        <ele>12.630000000000001</ele>
        <time>2018-07-04T10:42:36Z</time>
      </trkpt>
      <trkpt lat="49.312221966683865" lon="-1.098006013780832">
        <ele>12.630000000000001</ele>
        <time>2018-07-04T10:42:37Z</time>
      </trkpt>
      <trkpt lat="49.31223101913929" lon="-1.098115984350443">
        <ele>12.630000000000001</ele>
        <time>2018-07-04T10:42:38Z</time>
      </trkpt>
      <trkpt lat="49.312239987775683" lon="-1.098224027082324">
        <ele>13.119999999999999</ele>
        <time>2018-07-04T10:42:39Z</time>
      </trkpt>
      <trkpt lat="49.312218027189374" lon="-1.098332991823554">
        <ele>13.119999999999999</ele>
        <time>2018-07-04T10:42:40Z</time>
      </trkpt>
      <trkpt lat="49.312193971127272" lon="-1.098421001806855">
        <ele>13.119999999999999</ele>
        <time>2018-07-04T10:42:41Z</time>
      </trkpt>
      <trkpt lat="49.312144014984369" lon="-1.098507000133395">
        <ele>12.630000000000001</ele>
        <time>2018-07-04T10:42:42Z</time>
      </trkpt>
      <trkpt lat="49.312088023871183" lon="-1.098546981811523">
        <ele>12.630000000000001</ele>
        <time>2018-07-04T10:42:43Z</time>
      </trkpt>
      <trkpt lat="49.312029015272856" lon="-1.098588975146413">
        <ele>12.630000000000001</ele>
        <time>2018-07-04T10:42:44Z</time>
      </trkpt>
      <trkpt lat="49.312027003616095" lon="-1.098589980974793">
        <ele>12.15</ele>
        <time>2018-07-04T10:42:45Z</time>
      </trkpt>
      <trkpt lat="49.311955003067851" lon="-1.0985810123384">
        <ele>12.630000000000001</ele>
        <time>2018-07-04T10:42:46Z</time>
      </trkpt>
      <trkpt lat="49.31193295866251" lon="-1.098577994853258">
        <ele>12.15</ele>
        <time>2018-07-04T10:42:47Z</time>
      </trkpt>
      <trkpt lat="49.31182499974966" lon="-1.098643960431218">
        <ele>12.630000000000001</ele>
        <time>2018-07-04T10:42:57Z</time>
      </trkpt>
      <trkpt lat="49.3118039611727" lon="-1.098696012049913">
        <ele>12.630000000000001</ele>
        <time>2018-07-04T10:42:58Z</time>
      </trkpt>
      <trkpt lat="49.311775965616107" lon="-1.098766000941396">
        <ele>12.630000000000001</ele>
        <time>2018-07-04T10:42:59Z</time>
      </trkpt>
      <trkpt lat="49.311747970059514" lon="-1.098838001489639">
        <ele>12.630000000000001</ele>
        <time>2018-07-04T10:43:00Z</time>
      </trkpt>
      <trkpt lat="49.311721986159682" lon="-1.09890203922987">
        <ele>12.630000000000001</ele>
        <time>2018-07-04T10:43:01Z</time>
      </trkpt>
      <trkpt lat="49.311701031401753" lon="-1.098955012857914">
        <ele>12.15</ele>
        <time>2018-07-04T10:43:02Z</time>
      </trkpt>
      <trkpt lat="49.311688039451838" lon="-1.098987031728029">
        <ele>12.15</ele>
        <time>2018-07-04T10:43:03Z</time>
      </trkpt>
      <trkpt lat="49.311688039451838" lon="-1.098987031728029">
        <ele>12.15</ele>
        <time>2018-07-04T10:43:16Z</time>
      </trkpt>
      <trkpt lat="49.311670018360019" lon="-1.09903103671968">
        <ele>12.630000000000001</ele>
        <time>2018-07-04T10:43:37Z</time>
      </trkpt>
      <trkpt lat="49.311670018360019" lon="-1.09903103671968">
        <ele>13.119999999999999</ele>
        <time>2018-07-04T10:43:40Z</time>
      </trkpt>
      <trkpt lat="49.311658032238483" lon="-1.099062971770763">
        <ele>13.119999999999999</ele>
        <time>2018-07-04T10:43:42Z</time>
      </trkpt>
      <trkpt lat="49.311675969511271" lon="-1.099017038941383">
        <ele>13.119999999999999</ele>
        <time>2018-07-04T10:43:43Z</time>
      </trkpt>
      <trkpt lat="49.311700025573373" lon="-1.098957024514675">
        <ele>12.630000000000001</ele>
        <time>2018-07-04T10:43:44Z</time>
      </trkpt>
      <trkpt lat="49.311722991988063" lon="-1.098899021744728">
        <ele>12.630000000000001</ele>
        <time>2018-07-04T10:43:45Z</time>
      </trkpt>
      <trkpt lat="49.311816031113267" lon="-1.098668016493321">
        <ele>10.710000000000001</ele>
        <time>2018-07-04T10:43:50Z</time>
      </trkpt>
      <trkpt lat="49.311832962557673" lon="-1.098534995689988">
        <ele>10.23</ele>
        <time>2018-07-04T10:43:51Z</time>
      </trkpt>
      <trkpt lat="49.311798010021448" lon="-1.098482022061944">
        <ele>10.23</ele>
        <time>2018-07-04T10:43:52Z</time>
      </trkpt>
      <trkpt lat="49.31173900142312" lon="-1.098317988216877">
        <ele>9.27</ele>
        <time>2018-07-04T10:43:54Z</time>
      </trkpt>
      <trkpt lat="49.31171603500843" lon="-1.098224027082324">
        <ele>9.27</ele>
        <time>2018-07-04T10:43:55Z</time>
      </trkpt>
      <trkpt lat="49.311730032786727" lon="-1.098095029592514">
        <ele>9.27</ele>
        <time>2018-07-04T10:43:56Z</time>
      </trkpt>
      <trkpt lat="49.3117590341717" lon="-1.097995033487678">
        <ele>9.75</ele>
        <time>2018-07-04T10:43:57Z</time>
      </trkpt>
      <trkpt lat="49.311790969222784" lon="-1.097881961613894">
        <ele>10.23</ele>
        <time>2018-07-04T10:43:58Z</time>
      </trkpt>
      <trkpt lat="49.311848971992731" lon="-1.097833011299372">
        <ele>10.710000000000001</ele>
        <time>2018-07-04T10:43:59Z</time>
      </trkpt>
      <trkpt lat="49.311924995854497" lon="-1.097775008529425">
        <ele>11.19</ele>
        <time>2018-07-04T10:44:00Z</time>
      </trkpt>
      <trkpt lat="49.311998002231121" lon="-1.097775008529425">
        <ele>11.67</ele>
        <time>2018-07-04T10:44:01Z</time>
      </trkpt>
      <trkpt lat="49.312087018042803" lon="-1.097822031006217">
        <ele>12.15</ele>
        <time>2018-07-04T10:44:02Z</time>
      </trkpt>
      <trkpt lat="49.312148038297892" lon="-1.097898976877332">
        <ele>12.15</ele>
        <time>2018-07-04T10:44:03Z</time>
      </trkpt>
      <trkpt lat="49.312221966683865" lon="-1.098013976588845">
        <ele>12.630000000000001</ele>
        <time>2018-07-04T10:44:04Z</time>
      </trkpt>
      <trkpt lat="49.312233030796051" lon="-1.098140040412545">
        <ele>12.630000000000001</ele>
        <time>2018-07-04T10:44:05Z</time>
      </trkpt>
      <trkpt lat="49.312241999432445" lon="-1.098246993497014">
        <ele>13.119999999999999</ele>
        <time>2018-07-04T10:44:06Z</time>
      </trkpt>
      <trkpt lat="49.312241999432445" lon="-1.098246993497014">
        <ele>13.119999999999999</ele>
        <time>2018-07-04T10:44:07Z</time>
      </trkpt>
      <trkpt lat="49.312228001654148" lon="-1.098562991246581">
        <ele>13.119999999999999</ele>
        <time>2018-07-04T10:44:08Z</time>
      </trkpt>
      <trkpt lat="49.312291033565998" lon="-1.098660975694656">
        <ele>13.6</ele>
        <time>2018-07-04T10:44:09Z</time>
      </trkpt>
      <trkpt lat="49.312358004972339" lon="-1.098763989284635">
        <ele>13.6</ele>
        <time>2018-07-04T10:44:10Z</time>
      </trkpt>
      <trkpt lat="49.31242598220706" lon="-1.098867002874613">
        <ele>13.119999999999999</ele>
        <time>2018-07-04T10:44:11Z</time>
      </trkpt>
      <trkpt lat="49.312495971098542" lon="-1.098972028121352">
        <ele>12.630000000000001</ele>
        <time>2018-07-04T10:44:12Z</time>
      </trkpt>
      <trkpt lat="49.312569983303547" lon="-1.099081998690963">
        <ele>12.630000000000001</ele>
        <time>2018-07-04T10:44:13Z</time>
      </trkpt>
      <trkpt lat="49.31281004101038" lon="-1.099448958411813">
        <ele>11.67</ele>
        <time>2018-07-04T10:44:19Z</time>
      </trkpt>
      <trkpt lat="49.313012966886163" lon="-1.099752970039845">
        <ele>12.15</ele>
        <time>2018-07-04T10:44:28Z</time>
      </trkpt>
      <trkpt lat="49.313131989911199" lon="-1.099927984178066">
        <ele>11.67</ele>
        <time>2018-07-04T10:44:30Z</time>
      </trkpt>
      <trkpt lat="49.313296023756266" lon="-1.100084977224469">
        <ele>11.19</ele>
        <time>2018-07-04T10:44:32Z</time>
      </trkpt>
      <trkpt lat="49.313385039567947" lon="-1.1001490149647">
        <ele>11.19</ele>
        <time>2018-07-04T10:44:33Z</time>
      </trkpt>
      <trkpt lat="49.313480006530881" lon="-1.100216992199421">
        <ele>10.710000000000001</ele>
        <time>2018-07-04T10:44:34Z</time>
      </trkpt>
      <trkpt lat="49.313586037606001" lon="-1.100249011069536">
        <ele>10.23</ele>
        <time>2018-07-04T10:44:35Z</time>
      </trkpt>
      <trkpt lat="49.313695002347231" lon="-1.10027901828289">
        <ele>10.23</ele>
        <time>2018-07-04T10:44:36Z</time>
      </trkpt>
      <trkpt lat="49.313803967088461" lon="-1.100310031324625">
        <ele>10.23</ele>
        <time>2018-07-04T10:44:37Z</time>
      </trkpt>
      <trkpt lat="49.314878024160862" lon="-1.10066601075232">
        <ele>9.27</ele>
        <time>2018-07-04T10:44:47Z</time>
      </trkpt>
      <trkpt lat="49.315345985814929" lon="-1.10111502930522">
        <ele>9.75</ele>
        <time>2018-07-04T10:44:53Z</time>
      </trkpt>
      <trkpt lat="49.31541002355516" lon="-1.101178983226419">
        <ele>9.75</ele>
        <time>2018-07-04T10:44:54Z</time>
      </trkpt>
      <trkpt lat="49.315472971647978" lon="-1.101242015138269">
        <ele>10.23</ele>
        <time>2018-07-04T10:44:55Z</time>
      </trkpt>
      <trkpt lat="49.315558969974518" lon="-1.101246038451791">
        <ele>10.23</ele>
        <time>2018-07-04T10:44:56Z</time>
      </trkpt>
      <trkpt lat="49.315628958866" lon="-1.101242015138269">
        <ele>10.23</ele>
        <time>2018-07-04T10:44:57Z</time>
      </trkpt>
      <trkpt lat="49.315692996606231" lon="-1.101237991824746">
        <ele>10.710000000000001</ele>
        <time>2018-07-04T10:44:58Z</time>
      </trkpt>
      <trkpt lat="49.315759968012571" lon="-1.101233968511224">
        <ele>10.710000000000001</ele>
        <time>2018-07-04T10:44:59Z</time>
      </trkpt>
      <trkpt lat="49.316205969080329" lon="-1.101079992949963">
        <ele>12.630000000000001</ele>
        <time>2018-07-04T10:45:06Z</time>
      </trkpt>
      <trkpt lat="49.316317029297352" lon="-1.10103297047317">
        <ele>13.119999999999999</ele>
        <time>2018-07-04T10:45:08Z</time>
      </trkpt>
      <trkpt lat="49.316370002925396" lon="-1.101011009886861">
        <ele>13.119999999999999</ele>
        <time>2018-07-04T10:45:09Z</time>
      </trkpt>
      <trkpt lat="49.316567983478308" lon="-1.100929034873843">
        <ele>12.630000000000001</ele>
        <time>2018-07-04T10:45:13Z</time>
      </trkpt>
      <trkpt lat="49.316931003704667" lon="-1.100711021572352">
        <ele>10.23</ele>
        <time>2018-07-04T10:45:22Z</time>
      </trkpt>
      <trkpt lat="49.316964028403163" lon="-1.10068897716701">
        <ele>10.23</ele>
        <time>2018-07-04T10:45:23Z</time>
      </trkpt>
      <trkpt lat="49.317026976495981" lon="-1.100650001317263">
        <ele>9.75</ele>
        <time>2018-07-04T10:45:24Z</time>
      </trkpt>
      <trkpt lat="49.317052960395813" lon="-1.100668022409082">
        <ele>9.27</ele>
        <time>2018-07-04T10:45:25Z</time>
      </trkpt>
      <trkpt lat="49.317097971215844" lon="-1.100698029622436">
        <ele>9.27</ele>
        <time>2018-07-04T10:45:26Z</time>
      </trkpt>
      <trkpt lat="49.317144993692636" lon="-1.100729964673519">
        <ele>9.27</ele>
        <time>2018-07-04T10:45:27Z</time>
      </trkpt>
      <trkpt lat="49.317350015044212" lon="-1.100868014618754">
        <ele>9.27</ele>
        <time>2018-07-04T10:45:31Z</time>
      </trkpt>
      <trkpt lat="49.317408017814159" lon="-1.100906990468502">
        <ele>9.27</ele>
        <time>2018-07-04T10:45:32Z</time>
      </trkpt>
      <trkpt lat="49.317461997270584" lon="-1.10094403848052">
        <ele>9.27</ele>
        <time>2018-07-04T10:45:33Z</time>
      </trkpt>
      <trkpt lat="49.317518994212151" lon="-1.100982008501887">
        <ele>9.27</ele>
        <time>2018-07-04T10:45:34Z</time>
      </trkpt>
      <trkpt lat="49.317576996982098" lon="-1.101021990180016">
        <ele>9.27</ele>
        <time>2018-07-04T10:45:35Z</time>
      </trkpt>
      <trkpt lat="49.317742958664894" lon="-1.101133972406387">
        <ele>9.27</ele>
        <time>2018-07-04T10:45:38Z</time>
      </trkpt>
      <trkpt lat="49.317799033597112" lon="-1.101171020418406">
        <ele>9.75</ele>
        <time>2018-07-04T10:45:39Z</time>
      </trkpt>
      <trkpt lat="49.317978993058205" lon="-1.10131099820137">
        <ele>9.75</ele>
        <time>2018-07-04T10:45:43Z</time>
      </trkpt>
      <trkpt lat="49.318018974736333" lon="-1.101342011243105">
        <ele>9.75</ele>
        <time>2018-07-04T10:45:44Z</time>
      </trkpt>
      <trkpt lat="49.318043030798435" lon="-1.101361038163304">
        <ele>9.75</ele>
        <time>2018-07-04T10:45:45Z</time>
      </trkpt>
      <trkpt lat="49.318060968071222" lon="-1.101375035941601">
        <ele>9.75</ele>
        <time>2018-07-04T10:45:46Z</time>
      </trkpt>
      <trkpt lat="49.318060968071222" lon="-1.101375035941601">
        <ele>9.27</ele>
        <time>2018-07-04T10:45:47Z</time>
      </trkpt>
      <trkpt lat="49.318024003878236" lon="-1.101505039259791">
        <ele>9.27</ele>
        <time>2018-07-04T10:45:52Z</time>
      </trkpt>
      <trkpt lat="49.317978993058205" lon="-1.101544015109539">
        <ele>9.27</ele>
        <time>2018-07-04T10:45:53Z</time>
      </trkpt>
      <trkpt lat="49.317929958924651" lon="-1.101587014272809">
        <ele>9.27</ele>
        <time>2018-07-04T10:45:54Z</time>
      </trkpt>
      <trkpt lat="49.317880002781749" lon="-1.10163101926446">
        <ele>9.27</ele>
        <time>2018-07-04T10:45:55Z</time>
      </trkpt>
      <trkpt lat="49.317829962819815" lon="-1.101676030084491">
        <ele>9.27</ele>
        <time>2018-07-04T10:45:56Z</time>
      </trkpt>
      <trkpt lat="49.317566016688943" lon="-1.101910974830389">
        <ele>9.75</ele>
        <time>2018-07-04T10:46:01Z</time>
      </trkpt>
      <trkpt lat="49.317455040290952" lon="-1.102009965106845">
        <ele>9.75</ele>
        <time>2018-07-04T10:46:03Z</time>
      </trkpt>
      <trkpt lat="49.317406006157398" lon="-1.102052964270115">
        <ele>9.75</ele>
        <time>2018-07-04T10:46:04Z</time>
      </trkpt>
      <trkpt lat="49.317367030307651" lon="-1.102088000625372">
        <ele>9.75</ele>
        <time>2018-07-04T10:46:05Z</time>
      </trkpt>
      <trkpt lat="49.317325036972761" lon="-1.102125970646739">
        <ele>10.23</ele>
        <time>2018-07-04T10:46:06Z</time>
      </trkpt>
      <trkpt lat="49.31728295981884" lon="-1.102164024487138">
        <ele>10.710000000000001</ele>
        <time>2018-07-04T10:46:07Z</time>
      </trkpt>
      <trkpt lat="49.317241972312331" lon="-1.102200988680124">
        <ele>10.710000000000001</ele>
        <time>2018-07-04T10:46:08Z</time>
      </trkpt>
      <trkpt lat="49.3171969614923" lon="-1.102240970358253">
        <ele>10.710000000000001</ele>
        <time>2018-07-04T10:46:09Z</time>
      </trkpt>
      <trkpt lat="49.317153040319681" lon="-1.102304002270103">
        <ele>11.19</ele>
        <time>2018-07-04T10:46:10Z</time>
      </trkpt>
      <trkpt lat="49.317119009792805" lon="-1.102366028353572">
        <ele>11.67</ele>
        <time>2018-07-04T10:46:11Z</time>
      </trkpt>
      <trkpt lat="49.317012978717685" lon="-1.102572977542877">
        <ele>11.67</ele>
        <time>2018-07-04T10:46:14Z</time>
      </trkpt>
      <trkpt lat="49.31697903200984" lon="-1.102646989747882">
        <ele>12.15</ele>
        <time>2018-07-04T10:46:15Z</time>
      </trkpt>
      <trkpt lat="49.316826984286308" lon="-1.102961981669068">
        <ele>13.119999999999999</ele>
        <time>2018-07-04T10:46:19Z</time>
      </trkpt>
      <trkpt lat="49.316781973466277" lon="-1.103054014965892">
        <ele>13.119999999999999</ele>
        <time>2018-07-04T10:46:20Z</time>
      </trkpt>
      <trkpt lat="49.316636966541409" lon="-1.103349979966879">
        <ele>13.119999999999999</ele>
        <time>2018-07-04T10:46:23Z</time>
      </trkpt>
      <trkpt lat="49.316224996000528" lon="-1.104183979332447">
        <ele>12.15</ele>
        <time>2018-07-04T10:46:31Z</time>
      </trkpt>
      <trkpt lat="49.316070014610887" lon="-1.104482039809227">
        <ele>11.19</ele>
        <time>2018-07-04T10:46:34Z</time>
      </trkpt>
      <trkpt lat="49.316016035154462" lon="-1.104583041742444">
        <ele>11.19</ele>
        <time>2018-07-04T10:46:35Z</time>
      </trkpt>
      <trkpt lat="49.315793998539448" lon="-1.105004986748099">
        <ele>11.19</ele>
        <time>2018-07-04T10:46:39Z</time>
      </trkpt>
      <trkpt lat="49.315737001597881" lon="-1.105120992287993">
        <ele>11.19</ele>
        <time>2018-07-04T10:46:40Z</time>
      </trkpt>
      <trkpt lat="49.315678998827934" lon="-1.105242026969791">
        <ele>11.67</ele>
        <time>2018-07-04T10:46:41Z</time>
      </trkpt>
      <trkpt lat="49.315166026353836" lon="-1.10629697330296">
        <ele>13.119999999999999</ele>
        <time>2018-07-04T10:46:49Z</time>
      </trkpt>
      <trkpt lat="49.315098971128464" lon="-1.106436029076576">
        <ele>13.119999999999999</ele>
        <time>2018-07-04T10:46:50Z</time>
      </trkpt>
      <trkpt lat="49.31444501504302" lon="-1.107722986489534">
        <ele>14.56</ele>
        <time>2018-07-04T10:47:00Z</time>
      </trkpt>
      <trkpt lat="49.313644962385297" lon="-1.109304986894131">
        <ele>15.52</ele>
        <time>2018-07-04T10:47:12Z</time>
      </trkpt>
      <trkpt lat="49.312878018245101" lon="-1.110848011448979">
        <ele>17.440000000000001</ele>
        <time>2018-07-04T10:47:23Z</time>
      </trkpt>
      <trkpt lat="49.312012000009418" lon="-1.11252699047327">
        <ele>19.84</ele>
        <time>2018-07-04T10:47:36Z</time>
      </trkpt>
      <trkpt lat="49.311334993690252" lon="-1.114335972815752">
        <ele>19.84</ele>
        <time>2018-07-04T10:47:47Z</time>
      </trkpt>
      <trkpt lat="49.310729987919331" lon="-1.116639990359545">
        <ele>20.809999999999999</ele>
        <time>2018-07-04T10:47:59Z</time>
      </trkpt>
      <trkpt lat="49.310170998796821" lon="-1.118793971836567">
        <ele>23.690000000000001</ele>
        <time>2018-07-04T10:48:12Z</time>
      </trkpt>
      <trkpt lat="49.310037977993488" lon="-1.119307028129697">
        <ele>24.649999999999999</ele>
        <time>2018-07-04T10:48:15Z</time>
      </trkpt>
      <trkpt lat="49.309535985812545" lon="-1.121265040710568">
        <ele>29.460000000000001</ele>
        <time>2018-07-04T10:48:26Z</time>
      </trkpt>
      <trkpt lat="49.308992000296712" lon="-1.123281978070736">
        <ele>31.379999999999999</ele>
        <time>2018-07-04T10:48:35Z</time>
      </trkpt>
      <trkpt lat="49.30860098451376" lon="-1.124870013445616">
        <ele>30.899999999999999</ele>
        <time>2018-07-04T10:48:41Z</time>
      </trkpt>
      <trkpt lat="49.308567037805915" lon="-1.125123985111713">
        <ele>30.420000000000002</ele>
        <time>2018-07-04T10:48:42Z</time>
      </trkpt>
      <trkpt lat="49.308553962036967" lon="-1.125378040596843">
        <ele>29.940000000000001</ele>
        <time>2018-07-04T10:48:43Z</time>
      </trkpt>
      <trkpt lat="49.308559997007251" lon="-1.12563100643456">
        <ele>29.460000000000001</ele>
        <time>2018-07-04T10:48:44Z</time>
      </trkpt>
      <trkpt lat="49.308566031977534" lon="-1.12588900141418">
        <ele>28.98</ele>
        <time>2018-07-04T10:48:45Z</time>
      </trkpt>
      <trkpt lat="49.308614982292056" lon="-1.128616975620389">
        <ele>21.77</ele>
        <time>2018-07-04T10:48:54Z</time>
      </trkpt>
      <trkpt lat="49.308490008115768" lon="-1.130992993712425">
        <ele>15.039999999999999</ele>
        <time>2018-07-04T10:49:02Z</time>
      </trkpt>
      <trkpt lat="49.308130005374551" lon="-1.134499981999397">
        <ele>16</ele>
        <time>2018-07-04T10:49:14Z</time>
      </trkpt>
      <trkpt lat="49.308352963998914" lon="-1.137171965092421">
        <ele>15.039999999999999</ele>
        <time>2018-07-04T10:49:23Z</time>
      </trkpt>
      <trkpt lat="49.308840958401561" lon="-1.142137991264463">
        <ele>16.960000000000001</ele>
        <time>2018-07-04T10:49:40Z</time>
      </trkpt>
      <trkpt lat="49.309061989188194" lon="-1.144506968557835">
        <ele>18.879999999999999</ele>
        <time>2018-07-04T10:49:49Z</time>
      </trkpt>
      <trkpt lat="49.309346973896027" lon="-1.147290011867881">
        <ele>21.77</ele>
        <time>2018-07-04T10:50:03Z</time>
      </trkpt>
      <trkpt lat="49.309496004134417" lon="-1.148827001452446">
        <ele>21.77</ele>
        <time>2018-07-04T10:50:09Z</time>
      </trkpt>
      <trkpt lat="49.309823988005519" lon="-1.15220901556313">
        <ele>21.289999999999999</ele>
        <time>2018-07-04T10:50:20Z</time>
      </trkpt>
      <trkpt lat="49.310215003788471" lon="-1.156197041273117">
        <ele>24.170000000000002</ele>
        <time>2018-07-04T10:50:32Z</time>
      </trkpt>
      <trkpt lat="49.310509040951729" lon="-1.159215029329062">
        <ele>33.299999999999997</ele>
        <time>2018-07-04T10:50:42Z</time>
      </trkpt>
      <trkpt lat="49.310504011809826" lon="-1.161031974479556">
        <ele>37.630000000000003</ele>
        <time>2018-07-04T10:50:49Z</time>
      </trkpt>
      <trkpt lat="49.310488002374768" lon="-1.161157032474876">
        <ele>37.630000000000003</ele>
        <time>2018-07-04T10:50:50Z</time>
      </trkpt>
      <trkpt lat="49.310426982119679" lon="-1.16110104136169">
        <ele>38.109999999999999</ele>
        <time>2018-07-04T10:50:51Z</time>
      </trkpt>
      <trkpt lat="49.310417007654905" lon="-1.161109004169703">
        <ele>38.109999999999999</ele>
        <time>2018-07-04T10:50:52Z</time>
      </trkpt>
      <trkpt lat="49.310409966856241" lon="-1.161115961149335">
        <ele>38.109999999999999</ele>
        <time>2018-07-04T10:50:53Z</time>
      </trkpt>
      <trkpt lat="49.310399992391467" lon="-1.16112501360476">
        <ele>37.630000000000003</ele>
        <time>2018-07-04T10:50:54Z</time>
      </trkpt>
      <trkpt lat="49.31038498878479" lon="-1.161138005554676">
        <ele>37.630000000000003</ele>
        <time>2018-07-04T10:50:55Z</time>
      </trkpt>
      <trkpt lat="49.3103620223701" lon="-1.161158960312605">
        <ele>37.149999999999999</ele>
        <time>2018-07-04T10:50:56Z</time>
      </trkpt>
      <trkpt lat="49.310330003499985" lon="-1.161187961697578">
        <ele>36.670000000000002</ele>
        <time>2018-07-04T10:50:57Z</time>
      </trkpt>
      <trkpt lat="49.310291027650237" lon="-1.161224003881216">
        <ele>36.189999999999998</ele>
        <time>2018-07-04T10:50:58Z</time>
      </trkpt>
      <trkpt lat="49.310244005173445" lon="-1.161264991387725">
        <ele>35.710000000000001</ele>
        <time>2018-07-04T10:50:59Z</time>
      </trkpt>
      <trkpt lat="49.310200000181794" lon="-1.161304973065853">
        <ele>35.710000000000001</ele>
        <time>2018-07-04T10:51:00Z</time>
      </trkpt>
      <trkpt lat="49.309671018272638" lon="-1.161818029358983">
        <ele>33.780000000000001</ele>
        <time>2018-07-04T10:51:08Z</time>
      </trkpt>
      <trkpt lat="49.309419980272651" lon="-1.162093039602041">
        <ele>33.299999999999997</ele>
        <time>2018-07-04T10:51:11Z</time>
      </trkpt>
      <trkpt lat="49.309328030794859" lon="-1.162194041535258">
        <ele>33.299999999999997</ele>
        <time>2018-07-04T10:51:12Z</time>
      </trkpt>
      <trkpt lat="49.308389006182551" lon="-1.163329035043716">
        <ele>33.299999999999997</ele>
        <time>2018-07-04T10:51:22Z</time>
      </trkpt>
      <trkpt lat="49.308187002316117" lon="-1.163636986166239">
        <ele>33.299999999999997</ele>
        <time>2018-07-04T10:51:25Z</time>
      </trkpt>
      <trkpt lat="49.308142997324467" lon="-1.163762966170907">
        <ele>33.780000000000001</ele>
        <time>2018-07-04T10:51:26Z</time>
      </trkpt>
      <trkpt lat="49.308110978454351" lon="-1.163899004459381">
        <ele>33.780000000000001</ele>
        <time>2018-07-04T10:51:27Z</time>
      </trkpt>
      <trkpt lat="49.307864969596267" lon="-1.164683969691396">
        <ele>35.229999999999997</ele>
        <time>2018-07-04T10:51:32Z</time>
      </trkpt>
      <trkpt lat="49.307287959381938" lon="-1.166419023647904">
        <ele>35.710000000000001</ele>
        <time>2018-07-04T10:51:42Z</time>
      </trkpt>
      <trkpt lat="49.307087967172265" lon="-1.167103992775083">
        <ele>36.189999999999998</ele>
        <time>2018-07-04T10:51:46Z</time>
      </trkpt>
      <trkpt lat="49.30640802718699" lon="-1.168722035363317">
        <ele>37.630000000000003</ele>
        <time>2018-07-04T10:51:56Z</time>
      </trkpt>
      <trkpt lat="49.306034026667476" lon="-1.169908996671438">
        <ele>38.590000000000003</ele>
        <time>2018-07-04T10:52:03Z</time>
      </trkpt>
      <trkpt lat="49.305962026119232" lon="-1.170052997767925">
        <ele>39.07</ele>
        <time>2018-07-04T10:52:04Z</time>
      </trkpt>
      <trkpt lat="49.305874016135931" lon="-1.170179983600974">
        <ele>39.07</ele>
        <time>2018-07-04T10:52:05Z</time>
      </trkpt>
      <trkpt lat="49.305782988667488" lon="-1.170314010232687">
        <ele>39.549999999999997</ele>
        <time>2018-07-04T10:52:06Z</time>
      </trkpt>
      <trkpt lat="49.30567997507751" lon="-1.170429009944201">
        <ele>40.030000000000001</ele>
        <time>2018-07-04T10:52:07Z</time>
      </trkpt>
      <trkpt lat="49.305566987022758" lon="-1.170544009655714">
        <ele>40.509999999999998</ele>
        <time>2018-07-04T10:52:08Z</time>
      </trkpt>
      <trkpt lat="49.304504999890924" lon="-1.171638015657663">
        <ele>40.509999999999998</ele>
        <time>2018-07-04T10:52:18Z</time>
      </trkpt>
      <trkpt lat="49.304301990196109" lon="-1.171845970675349">
        <ele>40.030000000000001</ele>
        <time>2018-07-04T10:52:20Z</time>
      </trkpt>
      <trkpt lat="49.304206017404795" lon="-1.171947978436947">
        <ele>40.030000000000001</ele>
        <time>2018-07-04T10:52:21Z</time>
      </trkpt>
      <trkpt lat="49.303508978337049" lon="-1.172638982534409">
        <ele>39.07</ele>
        <time>2018-07-04T10:52:30Z</time>
      </trkpt>
      <trkpt lat="49.303394984453917" lon="-1.172740990296006">
        <ele>38.590000000000003</ele>
        <time>2018-07-04T10:52:32Z</time>
      </trkpt>
      <trkpt lat="49.303345028311014" lon="-1.172784995287657">
        <ele>38.109999999999999</ele>
        <time>2018-07-04T10:52:33Z</time>
      </trkpt>
      <trkpt lat="49.303314015269279" lon="-1.172912986949086">
        <ele>37.630000000000003</ele>
        <time>2018-07-04T10:52:34Z</time>
      </trkpt>
      <trkpt lat="49.303310997784138" lon="-1.173022035509348">
        <ele>37.149999999999999</ele>
        <time>2018-07-04T10:52:35Z</time>
      </trkpt>
      <trkpt lat="49.303308986127377" lon="-1.173139968886972">
        <ele>36.670000000000002</ele>
        <time>2018-07-04T10:52:36Z</time>
      </trkpt>
      <trkpt lat="49.303306974470615" lon="-1.173270978033543">
        <ele>36.670000000000002</ele>
        <time>2018-07-04T10:52:37Z</time>
      </trkpt>
      <trkpt lat="49.303295994177461" lon="-1.173883024603128">
        <ele>35.229999999999997</ele>
        <time>2018-07-04T10:52:41Z</time>
      </trkpt>
      <trkpt lat="49.303300017490983" lon="-1.174032976850867">
        <ele>34.740000000000002</ele>
        <time>2018-07-04T10:52:42Z</time>
      </trkpt>
      <trkpt lat="49.303320972248912" lon="-1.174179995432496">
        <ele>34.740000000000002</ele>
        <time>2018-07-04T10:52:43Z</time>
      </trkpt>
      <trkpt lat="49.303360031917691" lon="-1.174326008185744">
        <ele>34.740000000000002</ele>
        <time>2018-07-04T10:52:44Z</time>
      </trkpt>
      <trkpt lat="49.303433960303664" lon="-1.174432039260864">
        <ele>34.740000000000002</ele>
        <time>2018-07-04T10:52:45Z</time>
      </trkpt>
      <trkpt lat="49.303516019135714" lon="-1.17453102953732">
        <ele>34.740000000000002</ele>
        <time>2018-07-04T10:52:46Z</time>
      </trkpt>
      <trkpt lat="49.303617021068931" lon="-1.174610992893577">
        <ele>35.229999999999997</ele>
        <time>2018-07-04T10:52:47Z</time>
      </trkpt>
      <trkpt lat="49.303723974153399" lon="-1.174696991220117">
        <ele>35.710000000000001</ele>
        <time>2018-07-04T10:52:48Z</time>
      </trkpt>
      <trkpt lat="49.303965959697962" lon="-1.174891032278538">
        <ele>35.710000000000001</ele>
        <time>2018-07-04T10:52:50Z</time>
      </trkpt>
      <trkpt lat="49.30408900603652" lon="-1.175022041425109">
        <ele>35.710000000000001</ele>
        <time>2018-07-04T10:52:51Z</time>
      </trkpt>
      <trkpt lat="49.304211968556046" lon="-1.175182973966003">
        <ele>35.710000000000001</ele>
        <time>2018-07-04T10:52:52Z</time>
      </trkpt>
      <trkpt lat="49.304325962439179" lon="-1.17537098005414">
        <ele>35.710000000000001</ele>
        <time>2018-07-04T10:52:53Z</time>
      </trkpt>
      <trkpt lat="49.304399974644184" lon="-1.175596034154296">
        <ele>35.710000000000001</ele>
        <time>2018-07-04T10:52:54Z</time>
      </trkpt>
      <trkpt lat="49.304474992677569" lon="-1.175818992778659">
        <ele>35.710000000000001</ele>
        <time>2018-07-04T10:52:55Z</time>
      </trkpt>
      <trkpt lat="49.304507011547685" lon="-1.176071958616376">
        <ele>35.710000000000001</ele>
        <time>2018-07-04T10:52:56Z</time>
      </trkpt>
      <trkpt lat="49.304521009325981" lon="-1.176322996616364">
        <ele>35.710000000000001</ele>
        <time>2018-07-04T10:52:57Z</time>
      </trkpt>
      <trkpt lat="49.304536012932658" lon="-1.176571017131209">
        <ele>35.710000000000001</ele>
        <time>2018-07-04T10:52:58Z</time>
      </trkpt>
      <trkpt lat="49.304486978799105" lon="-1.176821971312165">
        <ele>35.710000000000001</ele>
        <time>2018-07-04T10:52:59Z</time>
      </trkpt>
      <trkpt lat="49.304430987685919" lon="-1.177053982391954">
        <ele>35.710000000000001</ele>
        <time>2018-07-04T10:53:00Z</time>
      </trkpt>
      <trkpt lat="49.304360998794436" lon="-1.177279036492109">
        <ele>35.710000000000001</ele>
        <time>2018-07-04T10:53:01Z</time>
      </trkpt>
      <trkpt lat="49.304252034053206" lon="-1.177466036751866">
        <ele>36.189999999999998</ele>
        <time>2018-07-04T10:53:02Z</time>
      </trkpt>
      <trkpt lat="49.304142985492945" lon="-1.177652031183243">
        <ele>36.189999999999998</ele>
        <time>2018-07-04T10:53:03Z</time>
      </trkpt>
      <trkpt lat="49.304012982174754" lon="-1.177813969552517">
        <ele>36.189999999999998</ele>
        <time>2018-07-04T10:53:04Z</time>
      </trkpt>
      <trkpt lat="49.303869986906648" lon="-1.177941961213946">
        <ele>36.670000000000002</ele>
        <time>2018-07-04T10:53:05Z</time>
      </trkpt>
      <trkpt lat="49.303733026608825" lon="-1.178065007552505">
        <ele>36.670000000000002</ele>
        <time>2018-07-04T10:53:06Z</time>
      </trkpt>
      <trkpt lat="49.303520964458585" lon="-1.178332976996899">
        <ele>37.149999999999999</ele>
        <time>2018-07-04T10:53:08Z</time>
      </trkpt>
      <trkpt lat="49.303425997495651" lon="-1.17846398614347">
        <ele>37.630000000000003</ele>
        <time>2018-07-04T10:53:09Z</time>
      </trkpt>
      <trkpt lat="49.303359026089311" lon="-1.178630031645298">
        <ele>37.630000000000003</ele>
        <time>2018-07-04T10:53:10Z</time>
      </trkpt>
      <trkpt lat="49.303301023319364" lon="-1.178813008591533">
        <ele>38.109999999999999</ele>
        <time>2018-07-04T10:53:11Z</time>
      </trkpt>
      <trkpt lat="49.30325098335743" lon="-1.178997997194529">
        <ele>38.590000000000003</ele>
        <time>2018-07-04T10:53:12Z</time>
      </trkpt>
      <trkpt lat="49.30325098335743" lon="-1.17917200550437">
        <ele>39.07</ele>
        <time>2018-07-04T10:53:13Z</time>
      </trkpt>
      <trkpt lat="49.30325098335743" lon="-1.179306032136083">
        <ele>39.549999999999997</ele>
        <time>2018-07-04T10:53:14Z</time>
      </trkpt>
      <trkpt lat="49.30325098335743" lon="-1.179393958300352">
        <ele>40.030000000000001</ele>
        <time>2018-07-04T10:53:15Z</time>
      </trkpt>
      <trkpt lat="49.30325098335743" lon="-1.179451961070299">
        <ele>40.509999999999998</ele>
        <time>2018-07-04T10:53:16Z</time>
      </trkpt>
      <trkpt lat="49.30325098335743" lon="-1.179492026567459">
        <ele>40.509999999999998</ele>
        <time>2018-07-04T10:53:17Z</time>
      </trkpt>
      <trkpt lat="49.303297000005841" lon="-1.179591016843915">
        <ele>40.990000000000002</ele>
        <time>2018-07-04T10:53:18Z</time>
      </trkpt>
      <trkpt lat="49.303328013047576" lon="-1.179589005187154">
        <ele>40.990000000000002</ele>
        <time>2018-07-04T10:53:19Z</time>
      </trkpt>
      <trkpt lat="49.303377969190478" lon="-1.179586993530393">
        <ele>40.990000000000002</ele>
        <time>2018-07-04T10:53:20Z</time>
      </trkpt>
      <trkpt lat="49.30344401858747" lon="-1.179583976045251">
        <ele>40.990000000000002</ele>
        <time>2018-07-04T10:53:21Z</time>
      </trkpt>
      <trkpt lat="49.303522976115346" lon="-1.179580958560109">
        <ele>40.990000000000002</ele>
        <time>2018-07-04T10:53:22Z</time>
      </trkpt>
      <trkpt lat="49.304383965209126" lon="-1.179568972438574">
        <ele>39.07</ele>
        <time>2018-07-04T10:53:29Z</time>
      </trkpt>
      <trkpt lat="49.3056770414114" lon="-1.179895028471947">
        <ele>36.670000000000002</ele>
        <time>2018-07-04T10:53:38Z</time>
      </trkpt>
      <trkpt lat="49.306300990283489" lon="-1.180111030116677">
        <ele>36.670000000000002</ele>
        <time>2018-07-04T10:53:43Z</time>
      </trkpt>
      <trkpt lat="49.306412972509861" lon="-1.180115975439549">
        <ele>36.670000000000002</ele>
        <time>2018-07-04T10:53:44Z</time>
      </trkpt>
      <trkpt lat="49.306985037401319" lon="-1.180114969611168">
        <ele>37.630000000000003</ele>
        <time>2018-07-04T10:53:49Z</time>
      </trkpt>
      <trkpt lat="49.30709701962769" lon="-1.180110024288297">
        <ele>37.630000000000003</ele>
        <time>2018-07-04T10:53:50Z</time>
      </trkpt>
      <trkpt lat="49.30789397098124" lon="-1.180072976276279">
        <ele>38.590000000000003</ele>
        <time>2018-07-04T10:53:58Z</time>
      </trkpt>
      <trkpt lat="49.307953985407948" lon="-1.180070964619517">
        <ele>38.109999999999999</ele>
        <time>2018-07-04T10:53:59Z</time>
      </trkpt>
      <trkpt lat="49.307988015934825" lon="-1.180069036781788">
        <ele>38.109999999999999</ele>
        <time>2018-07-04T10:54:00Z</time>
      </trkpt>
      <trkpt lat="49.308070996776223" lon="-1.180124022066593">
        <ele>37.149999999999999</ele>
        <time>2018-07-04T10:54:06Z</time>
      </trkpt>
      <trkpt lat="49.308061022311449" lon="-1.180198034271598">
        <ele>37.149999999999999</ele>
        <time>2018-07-04T10:54:07Z</time>
      </trkpt>
      <trkpt lat="49.308048030361533" lon="-1.180300964042544">
        <ele>37.149999999999999</ele>
        <time>2018-07-04T10:54:08Z</time>
      </trkpt>
      <trkpt lat="49.307878967374563" lon="-1.181591022759676">
        <ele>37.149999999999999</ele>
        <time>2018-07-04T10:54:16Z</time>
      </trkpt>
      <trkpt lat="49.307586019858718" lon="-1.183828990906477">
        <ele>37.630000000000003</ele>
        <time>2018-07-04T10:54:25Z</time>
      </trkpt>
      <trkpt lat="49.307156028226018" lon="-1.187106985598803">
        <ele>36.189999999999998</ele>
        <time>2018-07-04T10:54:35Z</time>
      </trkpt>
      <trkpt lat="49.306792002171278" lon="-1.189920958131552">
        <ele>37.149999999999999</ele>
        <time>2018-07-04T10:54:44Z</time>
      </trkpt>
      <trkpt lat="49.306156989187002" lon="-1.194872986525297">
        <ele>38.590000000000003</ele>
        <time>2018-07-04T10:55:01Z</time>
      </trkpt>
      <trkpt lat="49.305952973663807" lon="-1.196493962779641">
        <ele>39.07</ele>
        <time>2018-07-04T10:55:08Z</time>
      </trkpt>
      <trkpt lat="49.305640999227762" lon="-1.198783982545137">
        <ele>38.590000000000003</ele>
        <time>2018-07-04T10:55:20Z</time>
      </trkpt>
      <trkpt lat="49.305253000929952" lon="-1.201823009178042">
        <ele>39.549999999999997</ele>
        <time>2018-07-04T10:55:33Z</time>
      </trkpt>
      <trkpt lat="49.304886963218451" lon="-1.204792968928814">
        <ele>39.07</ele>
        <time>2018-07-04T10:55:43Z</time>
      </trkpt>
      <trkpt lat="49.304816974326968" lon="-1.206001974642277">
        <ele>37.149999999999999</ele>
        <time>2018-07-04T10:55:47Z</time>
      </trkpt>
      <trkpt lat="49.304816974326968" lon="-1.206289976835251">
        <ele>37.149999999999999</ele>
        <time>2018-07-04T10:55:48Z</time>
      </trkpt>
      <trkpt lat="49.304847987368703" lon="-1.206570016220212">
        <ele>36.670000000000002</ele>
        <time>2018-07-04T10:55:49Z</time>
      </trkpt>
      <trkpt lat="49.304890986531973" lon="-1.20684402063489">
        <ele>36.189999999999998</ele>
        <time>2018-07-04T10:55:50Z</time>
      </trkpt>
      <trkpt lat="49.304943038150668" lon="-1.207109978422523">
        <ele>35.710000000000001</ele>
        <time>2018-07-04T10:55:51Z</time>
      </trkpt>
      <trkpt lat="49.305025013163686" lon="-1.207349030300975">
        <ele>35.229999999999997</ele>
        <time>2018-07-04T10:55:52Z</time>
      </trkpt>
      <trkpt lat="49.305107994005084" lon="-1.207586992532015">
        <ele>34.259999999999998</ele>
        <time>2018-07-04T10:55:53Z</time>
      </trkpt>
      <trkpt lat="49.30520698428154" lon="-1.207797965034843">
        <ele>33.780000000000001</ele>
        <time>2018-07-04T10:55:54Z</time>
      </trkpt>
      <trkpt lat="49.305305974557996" lon="-1.207998041063547">
        <ele>33.780000000000001</ele>
        <time>2018-07-04T10:55:55Z</time>
      </trkpt>
      <trkpt lat="49.305910980328918" lon="-1.209221966564655">
        <ele>32.82</ele>
        <time>2018-07-04T10:56:03Z</time>
      </trkpt>
      <trkpt lat="49.305965965613723" lon="-1.209332020953298">
        <ele>32.82</ele>
        <time>2018-07-04T10:56:04Z</time>
      </trkpt>
      <trkpt lat="49.306013993918896" lon="-1.209428999572992">
        <ele>32.82</ele>
        <time>2018-07-04T10:56:05Z</time>
      </trkpt>
      <trkpt lat="49.306211974471807" lon="-1.209419025108218">
        <ele>32.82</ele>
        <time>2018-07-04T10:56:06Z</time>
      </trkpt>
      <trkpt lat="49.306311970576644" lon="-1.209451965987682">
        <ele>32.340000000000003</ele>
        <time>2018-07-04T10:56:08Z</time>
      </trkpt>
      <trkpt lat="49.306394029408693" lon="-1.209540981799364">
        <ele>32.340000000000003</ele>
        <time>2018-07-04T10:56:09Z</time>
      </trkpt>
      <trkpt lat="49.306437028571963" lon="-1.209677020087838">
        <ele>31.859999999999999</ele>
        <time>2018-07-04T10:56:10Z</time>
      </trkpt>
      <trkpt lat="49.306453038007021" lon="-1.2098119687289">
        <ele>31.859999999999999</ele>
        <time>2018-07-04T10:56:11Z</time>
      </trkpt>
      <trkpt lat="49.306456977501512" lon="-1.20998396538198">
        <ele>31.859999999999999</ele>
        <time>2018-07-04T10:56:12Z</time>
      </trkpt>
      <trkpt lat="49.306407021358609" lon="-1.210101982578635">
        <ele>32.340000000000003</ele>
        <time>2018-07-04T10:56:13Z</time>
      </trkpt>
      <trkpt lat="49.30632596835494" lon="-1.210184041410685">
        <ele>32.340000000000003</ele>
        <time>2018-07-04T10:56:14Z</time>
      </trkpt>
      <trkpt lat="49.306267965584993" lon="-1.210313960909843">
        <ele>32.340000000000003</ele>
        <time>2018-07-04T10:56:15Z</time>
      </trkpt>
      <trkpt lat="49.306252961978316" lon="-1.210441030561924">
        <ele>31.859999999999999</ele>
        <time>2018-07-04T10:56:16Z</time>
      </trkpt>
      <trkpt lat="49.306237958371639" lon="-1.210580002516508">
        <ele>31.859999999999999</ele>
        <time>2018-07-04T10:56:17Z</time>
      </trkpt>
      <trkpt lat="49.306221026927233" lon="-1.210733978077769">
        <ele>31.379999999999999</ele>
        <time>2018-07-04T10:56:18Z</time>
      </trkpt>
      <trkpt lat="49.306202000007033" lon="-1.210902035236359">
        <ele>31.379999999999999</ele>
        <time>2018-07-04T10:56:19Z</time>
      </trkpt>
      <trkpt lat="49.306160006672144" lon="-1.211067996919155">
        <ele>30.899999999999999</ele>
        <time>2018-07-04T10:56:20Z</time>
      </trkpt>
      <trkpt lat="49.306085994467139" lon="-1.211216021329165">
        <ele>29.940000000000001</ele>
        <time>2018-07-04T10:56:21Z</time>
      </trkpt>
      <trkpt lat="49.306010976433754" lon="-1.211364967748523">
        <ele>29.460000000000001</ele>
        <time>2018-07-04T10:56:22Z</time>
      </trkpt>
      <trkpt lat="49.305941993370652" lon="-1.211503017693758">
        <ele>28.98</ele>
        <time>2018-07-04T10:56:23Z</time>
      </trkpt>
      <trkpt lat="49.305874016135931" lon="-1.211639977991581">
        <ele>28.02</ele>
        <time>2018-07-04T10:56:24Z</time>
      </trkpt>
      <trkpt lat="49.305803021416068" lon="-1.211792025715113">
        <ele>27.530000000000001</ele>
        <time>2018-07-04T10:56:25Z</time>
      </trkpt>
      <trkpt lat="49.30578701198101" lon="-1.211970979347825">
        <ele>27.050000000000001</ele>
        <time>2018-07-04T10:56:26Z</time>
      </trkpt>
      <trkpt lat="49.305771002545953" lon="-1.212157979607582">
        <ele>26.57</ele>
        <time>2018-07-04T10:56:27Z</time>
      </trkpt>
      <trkpt lat="49.305753987282515" lon="-1.21234598569572">
        <ele>26.09</ele>
        <time>2018-07-04T10:56:28Z</time>
      </trkpt>
      <trkpt lat="49.305764967575669" lon="-1.212584031745791">
        <ele>25.609999999999999</ele>
        <time>2018-07-04T10:56:29Z</time>
      </trkpt>
      <trkpt lat="49.305827999487519" lon="-1.212767008692026">
        <ele>25.129999999999999</ele>
        <time>2018-07-04T10:56:30Z</time>
      </trkpt>
      <trkpt lat="49.305893965065479" lon="-1.212963983416557">
        <ele>25.129999999999999</ele>
        <time>2018-07-04T10:56:31Z</time>
      </trkpt>
      <trkpt lat="49.306549010798335" lon="-1.214638017117977">
        <ele>22.73</ele>
        <time>2018-07-04T10:56:38Z</time>
      </trkpt>
      <trkpt lat="49.307882990688086" lon="-1.217417037114501">
        <ele>18.879999999999999</ele>
        <time>2018-07-04T10:56:48Z</time>
      </trkpt>
      <trkpt lat="49.30976196192205" lon="-1.221165005117655">
        <ele>13.119999999999999</ele>
        <time>2018-07-04T10:57:01Z</time>
      </trkpt>
      <trkpt lat="49.311514031141996" lon="-1.224659001454711">
        <ele>8.789999999999999</ele>
        <time>2018-07-04T10:57:13Z</time>
      </trkpt>
      <trkpt lat="49.312735022976995" lon="-1.227078018710017">
        <ele>7.83</ele>
        <time>2018-07-04T10:57:22Z</time>
      </trkpt>
      <trkpt lat="49.31425197981298" lon="-1.230038003996015">
        <ele>-1.79</ele>
        <time>2018-07-04T10:57:34Z</time>
      </trkpt>
      <trkpt lat="49.314753971993923" lon="-1.231040982529521">
        <ele>-6.11</ele>
        <time>2018-07-04T10:57:38Z</time>
      </trkpt>
      <trkpt lat="49.314996041357517" lon="-1.231528976932168">
        <ele>-8.029999999999999</ele>
        <time>2018-07-04T10:57:40Z</time>
      </trkpt>
      <trkpt lat="49.315114980563521" lon="-1.23177096247673">
        <ele>-8.51</ele>
        <time>2018-07-04T10:57:41Z</time>
      </trkpt>
      <trkpt lat="49.315245989710093" lon="-1.232034992426634">
        <ele>-8.51</ele>
        <time>2018-07-04T10:57:42Z</time>
      </trkpt>
      <trkpt lat="49.317023959010839" lon="-1.235558995977044">
        <ele>4.94</ele>
        <time>2018-07-04T10:57:56Z</time>
      </trkpt>
      <trkpt lat="49.319047015160322" lon="-1.239418024197221">
        <ele>7.83</ele>
        <time>2018-07-04T10:58:10Z</time>
      </trkpt>
      <trkpt lat="49.321662001311779" lon="-1.244029998779297">
        <ele>10.710000000000001</ele>
        <time>2018-07-04T10:58:27Z</time>
      </trkpt>
      <trkpt lat="49.323959983885288" lon="-1.247737985104322">
        <ele>11.67</ele>
        <time>2018-07-04T10:58:41Z</time>
      </trkpt>
      <trkpt lat="49.32634899392724" lon="-1.251303981989622">
        <ele>10.23</ele>
        <time>2018-07-04T10:58:55Z</time>
      </trkpt>
      <trkpt lat="49.328790977597237" lon="-1.254748022183776">
        <ele>9.27</ele>
        <time>2018-07-04T10:59:09Z</time>
      </trkpt>
      <trkpt lat="49.330757036805153" lon="-1.257344987243414">
        <ele>7.35</ele>
        <time>2018-07-04T10:59:20Z</time>
      </trkpt>
      <trkpt lat="49.333149986341596" lon="-1.260447967797518">
        <ele>14.08</ele>
        <time>2018-07-04T10:59:33Z</time>
      </trkpt>
      <trkpt lat="49.33466199785471" lon="-1.262258039787412">
        <ele>21.77</ele>
        <time>2018-07-04T10:59:42Z</time>
      </trkpt>
      <trkpt lat="49.334803987294436" lon="-1.262332974001765">
        <ele>28.98</ele>
        <time>2018-07-04T10:59:50Z</time>
      </trkpt>
      <trkpt lat="49.335957001894712" lon="-1.262414027005434">
        <ele>30.420000000000002</ele>
        <time>2018-07-04T10:59:52Z</time>
      </trkpt>
      <trkpt lat="49.336035037413239" lon="-1.262399023398757">
        <ele>30.899999999999999</ele>
        <time>2018-07-04T10:59:53Z</time>
      </trkpt>
      <trkpt lat="49.336097985506058" lon="-1.262484015896916">
        <ele>31.379999999999999</ele>
        <time>2018-07-04T10:59:54Z</time>
      </trkpt>
      <trkpt lat="49.33614500798285" lon="-1.262551993131638">
        <ele>31.859999999999999</ele>
        <time>2018-07-04T10:59:55Z</time>
      </trkpt>
      <trkpt lat="49.336187001317739" lon="-1.262613013386726">
        <ele>32.340000000000003</ele>
        <time>2018-07-04T10:59:56Z</time>
      </trkpt>
      <trkpt lat="49.336228994652629" lon="-1.262673027813435">
        <ele>33.299999999999997</ele>
        <time>2018-07-04T10:59:57Z</time>
      </trkpt>
      <trkpt lat="49.336238969117403" lon="-1.262781992554665">
        <ele>33.780000000000001</ele>
        <time>2018-07-04T10:59:58Z</time>
      </trkpt>
      <trkpt lat="49.336243998259306" lon="-1.262847958132625">
        <ele>34.259999999999998</ele>
        <time>2018-07-04T10:59:59Z</time>
      </trkpt>
      <trkpt lat="49.336309041827917" lon="-1.262963963672519">
        <ele>34.740000000000002</ele>
        <time>2018-07-04T11:00:00Z</time>
      </trkpt>
      <trkpt lat="49.336372995749116" lon="-1.262974021956325">
        <ele>35.229999999999997</ele>
        <time>2018-07-04T11:00:01Z</time>
      </trkpt>
      <trkpt lat="49.336450025439262" lon="-1.262985002249479">
        <ele>35.229999999999997</ele>
        <time>2018-07-04T11:00:02Z</time>
      </trkpt>
      <trkpt lat="49.336540969088674" lon="-1.262999000027776">
        <ele>35.229999999999997</ele>
        <time>2018-07-04T11:00:03Z</time>
      </trkpt>
      <trkpt lat="49.336647000163794" lon="-1.263015009462833">
        <ele>35.229999999999997</ele>
        <time>2018-07-04T11:00:04Z</time>
      </trkpt>
      <trkpt lat="49.337013037875295" lon="-1.263224976137281">
        <ele>34.740000000000002</ele>
        <time>2018-07-04T11:00:07Z</time>
      </trkpt>
      <trkpt lat="49.337153015658259" lon="-1.263320026919246">
        <ele>34.740000000000002</ele>
        <time>2018-07-04T11:00:08Z</time>
      </trkpt>
      <trkpt lat="49.338365038856864" lon="-1.264502964913845">
        <ele>34.740000000000002</ele>
        <time>2018-07-04T11:00:16Z</time>
      </trkpt>
      <trkpt lat="49.338739039376378" lon="-1.264701029285789">
        <ele>34.740000000000002</ele>
        <time>2018-07-04T11:00:18Z</time>
      </trkpt>
      <trkpt lat="49.33893701992929" lon="-1.264734975993633">
        <ele>34.740000000000002</ele>
        <time>2018-07-04T11:00:19Z</time>
      </trkpt>
      <trkpt lat="49.339133994653821" lon="-1.26476900652051">
        <ele>34.740000000000002</ele>
        <time>2018-07-04T11:00:20Z</time>
      </trkpt>
      <trkpt lat="49.339330969378352" lon="-1.264799013733864">
        <ele>35.229999999999997</ele>
        <time>2018-07-04T11:00:21Z</time>
      </trkpt>
      <trkpt lat="49.339529033750296" lon="-1.264758026227355">
        <ele>35.229999999999997</ele>
        <time>2018-07-04T11:00:22Z</time>
      </trkpt>
      <trkpt lat="49.339728020131588" lon="-1.264717038720846">
        <ele>35.710000000000001</ele>
        <time>2018-07-04T11:00:23Z</time>
      </trkpt>
      <trkpt lat="49.339944021776319" lon="-1.264672027900815">
        <ele>36.189999999999998</ele>
        <time>2018-07-04T11:00:24Z</time>
      </trkpt>
      <trkpt lat="49.340697973966599" lon="-1.264481004327536">
        <ele>37.630000000000003</ele>
        <time>2018-07-04T11:00:28Z</time>
      </trkpt>
      <trkpt lat="49.340887991711497" lon="-1.264435993507505">
        <ele>38.590000000000003</ele>
        <time>2018-07-04T11:00:29Z</time>
      </trkpt>
      <trkpt lat="49.342499999329448" lon="-1.264645038172603">
        <ele>40.509999999999998</ele>
        <time>2018-07-04T11:00:37Z</time>
      </trkpt>
      <trkpt lat="49.343994995579123" lon="-1.264258967712522">
        <ele>40.030000000000001</ele>
        <time>2018-07-04T11:00:44Z</time>
      </trkpt>
      <trkpt lat="49.345317995175719" lon="-1.263684974983335">
        <ele>40.030000000000001</ele>
        <time>2018-07-04T11:00:51Z</time>
      </trkpt>
      <trkpt lat="49.348237998783588" lon="-1.262058969587088">
        <ele>38.109999999999999</ele>
        <time>2018-07-04T11:01:07Z</time>
      </trkpt>
      <trkpt lat="49.348419969901443" lon="-1.261951010674238">
        <ele>37.630000000000003</ele>
        <time>2018-07-04T11:01:08Z</time>
      </trkpt>
      <trkpt lat="49.350197017192841" lon="-1.260684002190828">
        <ele>29.940000000000001</ele>
        <time>2018-07-04T11:01:18Z</time>
      </trkpt>
      <trkpt lat="49.351691007614136" lon="-1.258780974894762">
        <ele>23.210000000000001</ele>
        <time>2018-07-04T11:01:28Z</time>
      </trkpt>
      <trkpt lat="49.352727010846138" lon="-1.257103001698852">
        <ele>16</ele>
        <time>2018-07-04T11:01:36Z</time>
      </trkpt>
      <trkpt lat="49.352864976972342" lon="-1.256908038631082">
        <ele>14.56</ele>
        <time>2018-07-04T11:01:37Z</time>
      </trkpt>
      <trkpt lat="49.35303102247417" lon="-1.256769988685846">
        <ele>13.6</ele>
        <time>2018-07-04T11:01:38Z</time>
      </trkpt>
      <trkpt lat="49.353745998814702" lon="-1.256170012056828">
        <ele>8.789999999999999</ele>
        <time>2018-07-04T11:01:42Z</time>
      </trkpt>
      <trkpt lat="49.353922018781304" lon="-1.255993992090225">
        <ele>7.83</ele>
        <time>2018-07-04T11:01:43Z</time>
      </trkpt>
      <trkpt lat="49.355344008654356" lon="-1.253973031416535">
        <ele>6.39</ele>
        <time>2018-07-04T11:01:52Z</time>
      </trkpt>
      <trkpt lat="49.3569649849087" lon="-1.250911960378289">
        <ele>9.27</ele>
        <time>2018-07-04T11:02:04Z</time>
      </trkpt>
      <trkpt lat="49.35773896984756" lon="-1.249545039609075">
        <ele>9.75</ele>
        <time>2018-07-04T11:02:10Z</time>
      </trkpt>
      <trkpt lat="49.357880037277937" lon="-1.249359967187047">
        <ele>10.23</ele>
        <time>2018-07-04T11:02:11Z</time>
      </trkpt>
      <trkpt lat="49.358034012839198" lon="-1.249185958877206">
        <ele>10.710000000000001</ele>
        <time>2018-07-04T11:02:12Z</time>
      </trkpt>
      <trkpt lat="49.359094994142652" lon="-1.248241988942027">
        <ele>13.119999999999999</ele>
        <time>2018-07-04T11:02:19Z</time>
      </trkpt>
      <trkpt lat="49.35999303124845" lon="-1.247336994856596">
        <ele>16.48</ele>
        <time>2018-07-04T11:02:28Z</time>
      </trkpt>
      <trkpt lat="49.360291007906199" lon="-1.247052010148764">
        <ele>17.920000000000002</ele>
        <time>2018-07-04T11:02:31Z</time>
      </trkpt>
      <trkpt lat="49.360373988747597" lon="-1.246972968801856">
        <ele>17.920000000000002</ele>
        <time>2018-07-04T11:02:32Z</time>
      </trkpt>
      <trkpt lat="49.360442971810699" lon="-1.246908009052277">
        <ele>17.920000000000002</ele>
        <time>2018-07-04T11:02:33Z</time>
      </trkpt>
      <trkpt lat="49.360596025362611" lon="-1.246761996299028">
        <ele>19.359999999999999</ele>
        <time>2018-07-04T11:02:39Z</time>
      </trkpt>
      <trkpt lat="49.360596025362611" lon="-1.246761996299028">
        <ele>19.359999999999999</ele>
        <time>2018-07-04T11:02:59Z</time>
      </trkpt>
      <trkpt lat="49.360737008973956" lon="-1.246662000194192">
        <ele>20.32</ele>
        <time>2018-07-04T11:03:04Z</time>
      </trkpt>
      <trkpt lat="49.360800040885806" lon="-1.246699970215559">
        <ele>20.809999999999999</ele>
        <time>2018-07-04T11:03:05Z</time>
      </trkpt>
      <trkpt lat="49.360873969271779" lon="-1.246745986863971">
        <ele>20.809999999999999</ele>
        <time>2018-07-04T11:03:06Z</time>
      </trkpt>
      <trkpt lat="49.36096197925508" lon="-1.246799966320396">
        <ele>21.289999999999999</ele>
        <time>2018-07-04T11:03:07Z</time>
      </trkpt>
      <trkpt lat="49.361043032258749" lon="-1.246904991567135">
        <ele>21.289999999999999</ele>
        <time>2018-07-04T11:03:08Z</time>
      </trkpt>
      <trkpt lat="49.361116960644722" lon="-1.247033989056945">
        <ele>21.77</ele>
        <time>2018-07-04T11:03:09Z</time>
      </trkpt>
      <trkpt lat="49.361191978678107" lon="-1.247163992375135">
        <ele>22.25</ele>
        <time>2018-07-04T11:03:10Z</time>
      </trkpt>
      <trkpt lat="49.361965963616967" lon="-1.248378027230501">
        <ele>24.170000000000002</ele>
        <time>2018-07-04T11:03:18Z</time>
      </trkpt>
      <trkpt lat="49.362761992961168" lon="-1.249589966610074">
        <ele>23.210000000000001</ele>
        <time>2018-07-04T11:03:25Z</time>
      </trkpt>
      <trkpt lat="49.363341014832258" lon="-1.250508036464453">
        <ele>20.809999999999999</ele>
        <time>2018-07-04T11:03:31Z</time>
      </trkpt>
      <trkpt lat="49.363419972360134" lon="-1.250595962628722">
        <ele>20.809999999999999</ele>
        <time>2018-07-04T11:03:32Z</time>
      </trkpt>
      <trkpt lat="49.363500019535422" lon="-1.250630998983979">
        <ele>20.809999999999999</ele>
        <time>2018-07-04T11:03:33Z</time>
      </trkpt>
      <trkpt lat="49.363603033125401" lon="-1.250653965398669">
        <ele>20.809999999999999</ele>
        <time>2018-07-04T11:03:34Z</time>
      </trkpt>
      <trkpt lat="49.363717027008533" lon="-1.250680033117533">
        <ele>20.32</ele>
        <time>2018-07-04T11:03:35Z</time>
      </trkpt>
      <trkpt lat="49.364792006090283" lon="-1.250857980921865">
        <ele>18.399999999999999</ele>
        <time>2018-07-04T11:03:42Z</time>
      </trkpt>
      <trkpt lat="49.366173008456826" lon="-1.250862004235387">
        <ele>14.56</ele>
        <time>2018-07-04T11:03:50Z</time>
      </trkpt>
      <trkpt lat="49.366307035088539" lon="-1.250842977315188">
        <ele>14.08</ele>
        <time>2018-07-04T11:03:51Z</time>
      </trkpt>
      <trkpt lat="49.366438966244459" lon="-1.250866027548909">
        <ele>14.08</ele>
        <time>2018-07-04T11:03:52Z</time>
      </trkpt>
      <trkpt lat="49.366572992876172" lon="-1.250941967591643">
        <ele>13.6</ele>
        <time>2018-07-04T11:03:53Z</time>
      </trkpt>
      <trkpt lat="49.367674039676785" lon="-1.251605981960893">
        <ele>14.08</ele>
        <time>2018-07-04T11:04:00Z</time>
      </trkpt>
      <trkpt lat="49.368335036560893" lon="-1.251844028010964">
        <ele>15.52</ele>
        <time>2018-07-04T11:04:05Z</time>
      </trkpt>
      <trkpt lat="49.368455987423658" lon="-1.251852996647358">
        <ele>15.52</ele>
        <time>2018-07-04T11:04:06Z</time>
      </trkpt>
      <trkpt lat="49.368590014055371" lon="-1.251818966120482">
        <ele>15.52</ele>
        <time>2018-07-04T11:04:07Z</time>
      </trkpt>
      <trkpt lat="49.368676012381911" lon="-1.251743026077747">
        <ele>16</ele>
        <time>2018-07-04T11:04:08Z</time>
      </trkpt>
      <trkpt lat="49.368771985173225" lon="-1.251655016094446">
        <ele>16</ele>
        <time>2018-07-04T11:04:09Z</time>
      </trkpt>
      <trkpt lat="49.368855971843004" lon="-1.251550996676087">
        <ele>16.48</ele>
        <time>2018-07-04T11:04:10Z</time>
      </trkpt>
      <trkpt lat="49.369890969246626" lon="-1.250422960147262">
        <ele>19.359999999999999</ele>
        <time>2018-07-04T11:04:23Z</time>
      </trkpt>
      <trkpt lat="49.369978979229927" lon="-1.250368980690837">
        <ele>19.359999999999999</ele>
        <time>2018-07-04T11:04:24Z</time>
      </trkpt>
      <trkpt lat="49.37007000669837" lon="-1.250313995406032">
        <ele>19.359999999999999</ele>
        <time>2018-07-04T11:04:25Z</time>
      </trkpt>
      <trkpt lat="49.370148964226246" lon="-1.250254986807704">
        <ele>19.84</ele>
        <time>2018-07-04T11:04:26Z</time>
      </trkpt>
      <trkpt lat="49.370218031108379" lon="-1.250163959339261">
        <ele>19.359999999999999</ele>
        <time>2018-07-04T11:04:27Z</time>
      </trkpt>
      <trkpt lat="49.370286008343101" lon="-1.250076033174992">
        <ele>19.359999999999999</ele>
        <time>2018-07-04T11:04:28Z</time>
      </trkpt>
      <trkpt lat="49.370469991117716" lon="-1.249833963811398">
        <ele>19.359999999999999</ele>
        <time>2018-07-04T11:04:31Z</time>
      </trkpt>
      <trkpt lat="49.370524976402521" lon="-1.249761963263154">
        <ele>19.359999999999999</ele>
        <time>2018-07-04T11:04:32Z</time>
      </trkpt>
      <trkpt lat="49.370630001649261" lon="-1.249625002965331">
        <ele>18.399999999999999</ele>
        <time>2018-07-04T11:04:34Z</time>
      </trkpt>
      <trkpt lat="49.37125101685524" lon="-1.248755967244506">
        <ele>16.960000000000001</ele>
        <time>2018-07-04T11:04:44Z</time>
      </trkpt>
      <trkpt lat="49.371741022914648" lon="-1.248193960636854">
        <ele>17.920000000000002</ele>
        <time>2018-07-04T11:04:50Z</time>
      </trkpt>
      <trkpt lat="49.371816962957382" lon="-1.248112991452217">
        <ele>17.920000000000002</ele>
        <time>2018-07-04T11:04:51Z</time>
      </trkpt>
      <trkpt lat="49.371892986819148" lon="-1.248030010610819">
        <ele>17.920000000000002</ele>
        <time>2018-07-04T11:04:52Z</time>
      </trkpt>
      <trkpt lat="49.372050985693932" lon="-1.247876035049558">
        <ele>18.879999999999999</ele>
        <time>2018-07-04T11:04:54Z</time>
      </trkpt>
      <trkpt lat="49.372279979288578" lon="-1.247699009254575">
        <ele>19.84</ele>
        <time>2018-07-04T11:04:57Z</time>
      </trkpt>
      <trkpt lat="49.372330019250512" lon="-1.247612005099654">
        <ele>19.359999999999999</ele>
        <time>2018-07-04T11:04:58Z</time>
      </trkpt>
      <trkpt lat="49.372367989271879" lon="-1.247532041743398">
        <ele>19.359999999999999</ele>
        <time>2018-07-04T11:04:59Z</time>
      </trkpt>
      <trkpt lat="49.372376035898924" lon="-1.247457023710012">
        <ele>18.879999999999999</ele>
        <time>2018-07-04T11:05:00Z</time>
      </trkpt>
      <trkpt lat="49.372388022020459" lon="-1.247356021776795">
        <ele>18.879999999999999</ele>
        <time>2018-07-04T11:05:01Z</time>
      </trkpt>
      <trkpt lat="49.372377963736653" lon="-1.247244961559773">
        <ele>18.879999999999999</ele>
        <time>2018-07-04T11:05:02Z</time>
      </trkpt>
      <trkpt lat="49.372356003150344" lon="-1.246976992115378">
        <ele>18.879999999999999</ele>
        <time>2018-07-04T11:05:04Z</time>
      </trkpt>
      <trkpt lat="49.372345022857189" lon="-1.246841037645936">
        <ele>18.879999999999999</ele>
        <time>2018-07-04T11:05:05Z</time>
      </trkpt>
      <trkpt lat="49.372365977615118" lon="-1.246728971600533">
        <ele>18.879999999999999</ele>
        <time>2018-07-04T11:05:06Z</time>
      </trkpt>
      <trkpt lat="49.372385004535317" lon="-1.246628975495696">
        <ele>19.359999999999999</ele>
        <time>2018-07-04T11:05:07Z</time>
      </trkpt>
      <trkpt lat="49.372399002313614" lon="-1.246557980775833">
        <ele>19.359999999999999</ele>
        <time>2018-07-04T11:05:08Z</time>
      </trkpt>
      <trkpt lat="49.37241300009191" lon="-1.246488997712731">
        <ele>19.84</ele>
        <time>2018-07-04T11:05:09Z</time>
      </trkpt>
      <trkpt lat="49.372425992041826" lon="-1.246422026306391">
        <ele>19.84</ele>
        <time>2018-07-04T11:05:10Z</time>
      </trkpt>
      <trkpt lat="49.372436972334981" lon="-1.246362011879683">
        <ele>20.32</ele>
        <time>2018-07-04T11:05:11Z</time>
      </trkpt>
      <trkpt lat="49.372447030618787" lon="-1.246310966089368">
        <ele>20.32</ele>
        <time>2018-07-04T11:05:12Z</time>
      </trkpt>
      <trkpt lat="49.372459016740322" lon="-1.24624902382493">
        <ele>20.809999999999999</ele>
        <time>2018-07-04T11:05:13Z</time>
      </trkpt>
      <trkpt lat="49.372480977326632" lon="-1.246154978871346">
        <ele>20.809999999999999</ele>
        <time>2018-07-04T11:05:14Z</time>
      </trkpt>
      <trkpt lat="49.372598994523287" lon="-1.245825989171863">
        <ele>21.289999999999999</ele>
        <time>2018-07-04T11:05:17Z</time>
      </trkpt>
      <trkpt lat="49.372797980904579" lon="-1.245271023362875">
        <ele>21.77</ele>
        <time>2018-07-04T11:05:21Z</time>
      </trkpt>
      <trkpt lat="49.372853972017765" lon="-1.245117969810963">
        <ele>21.77</ele>
        <time>2018-07-04T11:05:22Z</time>
      </trkpt>
      <trkpt lat="49.37290602363646" lon="-1.244972040876746">
        <ele>21.77</ele>
        <time>2018-07-04T11:05:23Z</time>
      </trkpt>
      <trkpt lat="49.372958997264504" lon="-1.244824016466737">
        <ele>21.289999999999999</ele>
        <time>2018-07-04T11:05:24Z</time>
      </trkpt>
      <trkpt lat="49.373012976720929" lon="-1.244674986228347">
        <ele>21.289999999999999</ele>
        <time>2018-07-04T11:05:25Z</time>
      </trkpt>
      <trkpt lat="49.373065028339624" lon="-1.244527967646718">
        <ele>21.289999999999999</ele>
        <time>2018-07-04T11:05:26Z</time>
      </trkpt>
      <trkpt lat="49.373119007796049" lon="-1.24438002705574">
        <ele>21.289999999999999</ele>
        <time>2018-07-04T11:05:27Z</time>
      </trkpt>
      <trkpt lat="49.373663999140263" lon="-1.243039006367326">
        <ele>22.25</ele>
        <time>2018-07-04T11:05:36Z</time>
      </trkpt>
      <trkpt lat="49.374608974903822" lon="-1.241293977946043">
        <ele>22.25</ele>
        <time>2018-07-04T11:05:47Z</time>
      </trkpt>
      <trkpt lat="49.37492698431015" lon="-1.240789974108338">
        <ele>22.25</ele>
        <time>2018-07-04T11:05:51Z</time>
      </trkpt>
      <trkpt lat="49.374952968209982" lon="-1.240718979388475">
        <ele>22.73</ele>
        <time>2018-07-04T11:05:52Z</time>
      </trkpt>
      <trkpt lat="49.374962020665407" lon="-1.24068302102387">
        <ele>22.73</ele>
        <time>2018-07-04T11:05:53Z</time>
      </trkpt>
      <trkpt lat="49.37494701705873" lon="-1.24061998911202">
        <ele>22.73</ele>
        <time>2018-07-04T11:05:54Z</time>
      </trkpt>
      <trkpt lat="49.374935030937195" lon="-1.240571960806847">
        <ele>22.73</ele>
        <time>2018-07-04T11:05:55Z</time>
      </trkpt>
      <trkpt lat="49.374921033158898" lon="-1.24051496386528">
        <ele>23.210000000000001</ele>
        <time>2018-07-04T11:05:56Z</time>
      </trkpt>
      <trkpt lat="49.374902006238699" lon="-1.240442041307688">
        <ele>23.210000000000001</ele>
        <time>2018-07-04T11:05:57Z</time>
      </trkpt>
      <trkpt lat="49.37488398514688" lon="-1.240369034931064">
        <ele>23.690000000000001</ele>
        <time>2018-07-04T11:05:58Z</time>
      </trkpt>
      <trkpt lat="49.374887002632022" lon="-1.240302985534072">
        <ele>23.690000000000001</ele>
        <time>2018-07-04T11:05:59Z</time>
      </trkpt>
      <trkpt lat="49.374920027330518" lon="-1.240188991650939">
        <ele>24.170000000000002</ele>
        <time>2018-07-04T11:06:00Z</time>
      </trkpt>
      <trkpt lat="49.374961014837027" lon="-1.240131994709373">
        <ele>25.129999999999999</ele>
        <time>2018-07-04T11:06:01Z</time>
      </trkpt>
      <trkpt lat="49.375074002891779" lon="-1.239978019148111">
        <ele>26.09</ele>
        <time>2018-07-04T11:06:04Z</time>
      </trkpt>
      <trkpt lat="49.375074002891779" lon="-1.239978019148111">
        <ele>26.57</ele>
        <time>2018-07-04T11:06:14Z</time>
      </trkpt>
      <trkpt lat="49.375074002891779" lon="-1.239978019148111">
        <ele>26.57</ele>
        <time>2018-07-04T11:06:39Z</time>
      </trkpt>
      <trkpt lat="49.375320011749864" lon="-1.239640982821584">
        <ele>26.57</ele>
        <time>2018-07-04T11:06:44Z</time>
      </trkpt>
      <trkpt lat="49.376015039160848" lon="-1.238689972087741">
        <ele>26.09</ele>
        <time>2018-07-04T11:06:52Z</time>
      </trkpt>
      <trkpt lat="49.37610799446702" lon="-1.238562986254692">
        <ele>25.609999999999999</ele>
        <time>2018-07-04T11:06:53Z</time>
      </trkpt>
      <trkpt lat="49.376222994178534" lon="-1.2384710367769">
        <ele>25.609999999999999</ele>
        <time>2018-07-04T11:06:54Z</time>
      </trkpt>
      <trkpt lat="49.376346040517092" lon="-1.238402975723147">
        <ele>25.609999999999999</ele>
        <time>2018-07-04T11:06:55Z</time>
      </trkpt>
      <trkpt lat="49.376475038006902" lon="-1.238331981003285">
        <ele>25.609999999999999</ele>
        <time>2018-07-04T11:06:56Z</time>
      </trkpt>
      <trkpt lat="49.376605963334441" lon="-1.23825897462666">
        <ele>25.609999999999999</ele>
        <time>2018-07-04T11:06:57Z</time>
      </trkpt>
      <trkpt lat="49.377320017665625" lon="-1.237789001315832">
        <ele>25.129999999999999</ele>
        <time>2018-07-04T11:07:03Z</time>
      </trkpt>
      <trkpt lat="49.377409033477306" lon="-1.23769998550415">
        <ele>25.609999999999999</ele>
        <time>2018-07-04T11:07:04Z</time>
      </trkpt>
      <trkpt lat="49.377467958256602" lon="-1.237594038248062">
        <ele>25.609999999999999</ele>
        <time>2018-07-04T11:07:05Z</time>
      </trkpt>
      <trkpt lat="49.377583963796496" lon="-1.237388011068106">
        <ele>26.09</ele>
        <time>2018-07-04T11:07:07Z</time>
      </trkpt>
      <trkpt lat="49.377644984051585" lon="-1.23731299303472">
        <ele>26.57</ele>
        <time>2018-07-04T11:07:08Z</time>
      </trkpt>
      <trkpt lat="49.377725031226873" lon="-1.237263036891818">
        <ele>27.050000000000001</ele>
        <time>2018-07-04T11:07:09Z</time>
      </trkpt>
      <trkpt lat="49.3778289668262" lon="-1.237240992486477">
        <ele>27.050000000000001</ele>
        <time>2018-07-04T11:07:10Z</time>
      </trkpt>
      <trkpt lat="49.377946984022856" lon="-1.237216014415026">
        <ele>27.530000000000001</ele>
        <time>2018-07-04T11:07:11Z</time>
      </trkpt>
      <trkpt lat="49.379056999459863" lon="-1.236966988071799">
        <ele>30.899999999999999</ele>
        <time>2018-07-04T11:07:19Z</time>
      </trkpt>
      <trkpt lat="49.379487996920943" lon="-1.236791973933578">
        <ele>31.859999999999999</ele>
        <time>2018-07-04T11:07:22Z</time>
      </trkpt>
      <trkpt lat="49.380101971328259" lon="-1.236542025581002">
        <ele>33.780000000000001</ele>
        <time>2018-07-04T11:07:28Z</time>
      </trkpt>
      <trkpt lat="49.380282014608383" lon="-1.23640900477767">
        <ele>34.259999999999998</ele>
        <time>2018-07-04T11:07:35Z</time>
      </trkpt>
      <trkpt lat="49.380477983504534" lon="-1.236316971480846">
        <ele>34.740000000000002</ele>
        <time>2018-07-04T11:07:48Z</time>
      </trkpt>
      <trkpt lat="49.381342995911837" lon="-1.236016983166337">
        <ele>35.229999999999997</ele>
        <time>2018-07-04T11:07:56Z</time>
      </trkpt>
      <trkpt lat="49.381467970088124" lon="-1.235972978174686">
        <ele>35.229999999999997</ele>
        <time>2018-07-04T11:07:57Z</time>
      </trkpt>
      <trkpt lat="49.38257304020226" lon="-1.23570098541677">
        <ele>35.229999999999997</ele>
        <time>2018-07-04T11:08:06Z</time>
      </trkpt>
      <trkpt lat="49.383258009329438" lon="-1.235628984868527">
        <ele>35.229999999999997</ele>
        <time>2018-07-04T11:08:11Z</time>
      </trkpt>
      <trkpt lat="49.383522039279342" lon="-1.235524965450168">
        <ele>35.710000000000001</ele>
        <time>2018-07-04T11:08:13Z</time>
      </trkpt>
      <trkpt lat="49.383653970435262" lon="-1.23544299043715">
        <ele>35.710000000000001</ele>
        <time>2018-07-04T11:08:14Z</time>
      </trkpt>
      <trkpt lat="49.384299041703343" lon="-1.235036971047521">
        <ele>33.780000000000001</ele>
        <time>2018-07-04T11:08:19Z</time>
      </trkpt>
      <trkpt lat="49.384394008666277" lon="-1.234942004084587">
        <ele>33.299999999999997</ele>
        <time>2018-07-04T11:08:20Z</time>
      </trkpt>
      <trkpt lat="49.384469026699662" lon="-1.234801020473242">
        <ele>32.340000000000003</ele>
        <time>2018-07-04T11:08:21Z</time>
      </trkpt>
      <trkpt lat="49.384607998654246" lon="-1.234548976644874">
        <ele>30.899999999999999</ele>
        <time>2018-07-04T11:08:23Z</time>
      </trkpt>
      <trkpt lat="49.384704977273941" lon="-1.234477981925011">
        <ele>30.420000000000002</ele>
        <time>2018-07-04T11:08:24Z</time>
      </trkpt>
      <trkpt lat="49.384802039712667" lon="-1.234405981376767">
        <ele>29.940000000000001</ele>
        <time>2018-07-04T11:08:25Z</time>
      </trkpt>
      <trkpt lat="49.384890971705317" lon="-1.234340015798807">
        <ele>28.98</ele>
        <time>2018-07-04T11:08:26Z</time>
      </trkpt>
      <trkpt lat="49.38496196642518" lon="-1.234287964180112">
        <ele>28.02</ele>
        <time>2018-07-04T11:08:27Z</time>
      </trkpt>
      <trkpt lat="49.385041007772088" lon="-1.234272038564086">
        <ele>27.050000000000001</ele>
        <time>2018-07-04T11:08:28Z</time>
      </trkpt>
      <trkpt lat="49.385107979178429" lon="-1.234283018857241">
        <ele>26.09</ele>
        <time>2018-07-04T11:08:29Z</time>
      </trkpt>
      <trkpt lat="49.385176040232182" lon="-1.234312020242214">
        <ele>25.609999999999999</ele>
        <time>2018-07-04T11:08:30Z</time>
      </trkpt>
      <trkpt lat="49.385248962789774" lon="-1.234342027455568">
        <ele>24.649999999999999</ele>
        <time>2018-07-04T11:08:31Z</time>
      </trkpt>
      <trkpt lat="49.385404027998447" lon="-1.234407993033528">
        <ele>22.73</ele>
        <time>2018-07-04T11:08:33Z</time>
      </trkpt>
      <trkpt lat="49.385511986911297" lon="-1.234400030225515">
        <ele>21.77</ele>
        <time>2018-07-04T11:08:34Z</time>
      </trkpt>
      <trkpt lat="49.385589016601443" lon="-1.234316965565085">
        <ele>20.809999999999999</ele>
        <time>2018-07-04T11:08:35Z</time>
      </trkpt>
      <trkpt lat="49.385671997442842" lon="-1.234227027744055">
        <ele>20.809999999999999</ele>
        <time>2018-07-04T11:08:36Z</time>
      </trkpt>
      <trkpt lat="49.385763024911284" lon="-1.234133988618851">
        <ele>20.809999999999999</ele>
        <time>2018-07-04T11:08:37Z</time>
      </trkpt>
      <trkpt lat="49.385865032672882" lon="-1.234042961150408">
        <ele>20.809999999999999</ele>
        <time>2018-07-04T11:08:38Z</time>
      </trkpt>
      <trkpt lat="49.385973997414112" lon="-1.233944976702333">
        <ele>20.809999999999999</ele>
        <time>2018-07-04T11:08:39Z</time>
      </trkpt>
      <trkpt lat="49.386085979640484" lon="-1.233844980597496">
        <ele>20.809999999999999</ele>
        <time>2018-07-04T11:08:40Z</time>
      </trkpt>
      <trkpt lat="49.386209025979042" lon="-1.233760993927717">
        <ele>20.809999999999999</ele>
        <time>2018-07-04T11:08:41Z</time>
      </trkpt>
      <trkpt lat="49.386328971013427" lon="-1.233700979501009">
        <ele>20.809999999999999</ele>
        <time>2018-07-04T11:08:42Z</time>
      </trkpt>
      <trkpt lat="49.386439025402069" lon="-1.233645994216204">
        <ele>20.809999999999999</ele>
        <time>2018-07-04T11:08:43Z</time>
      </trkpt>
      <trkpt lat="49.386538015678525" lon="-1.23359696008265">
        <ele>20.809999999999999</ele>
        <time>2018-07-04T11:08:44Z</time>
      </trkpt>
      <trkpt lat="49.386627031490207" lon="-1.233552033081651">
        <ele>20.809999999999999</ele>
        <time>2018-07-04T11:08:45Z</time>
      </trkpt>
      <trkpt lat="49.386708000674844" lon="-1.233511967584491">
        <ele>20.809999999999999</ele>
        <time>2018-07-04T11:08:46Z</time>
      </trkpt>
      <trkpt lat="49.386768015101552" lon="-1.23338095843792">
        <ele>21.289999999999999</ele>
        <time>2018-07-04T11:08:47Z</time>
      </trkpt>
      <trkpt lat="49.386795004829764" lon="-1.233257995918393">
        <ele>21.77</ele>
        <time>2018-07-04T11:08:48Z</time>
      </trkpt>
      <trkpt lat="49.386823000386357" lon="-1.233134027570486">
        <ele>21.77</ele>
        <time>2018-07-04T11:08:49Z</time>
      </trkpt>
      <trkpt lat="49.386846972629428" lon="-1.233024979010224">
        <ele>21.77</ele>
        <time>2018-07-04T11:08:50Z</time>
      </trkpt>
      <trkpt lat="49.386864993721247" lon="-1.232941998168826">
        <ele>22.25</ele>
        <time>2018-07-04T11:08:51Z</time>
      </trkpt>
      <trkpt lat="49.386876979842782" lon="-1.232889024540782">
        <ele>22.73</ele>
        <time>2018-07-04T11:08:52Z</time>
      </trkpt>
      <trkpt lat="49.386885026469827" lon="-1.232854994013906">
        <ele>22.73</ele>
        <time>2018-07-04T11:08:53Z</time>
      </trkpt>
      <trkpt lat="49.386945040896535" lon="-1.232774024829269">
        <ele>23.210000000000001</ele>
        <time>2018-07-04T11:08:54Z</time>
      </trkpt>
      <trkpt lat="49.38695996068418" lon="-1.232801014557481">
        <ele>23.690000000000001</ele>
        <time>2018-07-04T11:08:55Z</time>
      </trkpt>
      <trkpt lat="49.386989967897534" lon="-1.232850970700383">
        <ele>23.690000000000001</ele>
        <time>2018-07-04T11:08:56Z</time>
      </trkpt>
      <trkpt lat="49.387029027566314" lon="-1.232920037582517">
        <ele>23.690000000000001</ele>
        <time>2018-07-04T11:08:57Z</time>
      </trkpt>
      <trkpt lat="49.387074960395694" lon="-1.232998995110393">
        <ele>24.170000000000002</ele>
        <time>2018-07-04T11:08:58Z</time>
      </trkpt>
      <trkpt lat="49.38712801784277" lon="-1.233090022578836">
        <ele>24.649999999999999</ele>
        <time>2018-07-04T11:08:59Z</time>
      </trkpt>
      <trkpt lat="49.387189038097858" lon="-1.233194964006543">
        <ele>25.129999999999999</ele>
        <time>2018-07-04T11:09:00Z</time>
      </trkpt>
      <trkpt lat="49.387404033914208" lon="-1.23351096175611">
        <ele>25.609999999999999</ele>
        <time>2018-07-04T11:09:03Z</time>
      </trkpt>
      <trkpt lat="49.387481985613704" lon="-1.233605006709695">
        <ele>26.09</ele>
        <time>2018-07-04T11:09:04Z</time>
      </trkpt>
      <trkpt lat="49.387576030567288" lon="-1.233688993379474">
        <ele>26.09</ele>
        <time>2018-07-04T11:09:05Z</time>
      </trkpt>
      <trkpt lat="49.388600969687104" lon="-1.234369017183781">
        <ele>27.530000000000001</ele>
        <time>2018-07-04T11:09:14Z</time>
      </trkpt>
      <trkpt lat="49.388816971331835" lon="-1.234468007460237">
        <ele>27.530000000000001</ele>
        <time>2018-07-04T11:09:16Z</time>
      </trkpt>
      <trkpt lat="49.388902969658375" lon="-1.234548976644874">
        <ele>28.02</ele>
        <time>2018-07-04T11:09:17Z</time>
      </trkpt>
      <trkpt lat="49.388982011005282" lon="-1.234652996063232">
        <ele>28.02</ele>
        <time>2018-07-04T11:09:18Z</time>
      </trkpt>
      <trkpt lat="49.389034984633327" lon="-1.234795991331339">
        <ele>28.5</ele>
        <time>2018-07-04T11:09:19Z</time>
      </trkpt>
      <trkpt lat="49.389090975746512" lon="-1.234945021569729">
        <ele>28.5</ele>
        <time>2018-07-04T11:09:20Z</time>
      </trkpt>
      <trkpt lat="49.389148978516459" lon="-1.235102014616132">
        <ele>28.5</ele>
        <time>2018-07-04T11:09:21Z</time>
      </trkpt>
      <trkpt lat="49.389208992943168" lon="-1.235262025147677">
        <ele>28.5</ele>
        <time>2018-07-04T11:09:22Z</time>
      </trkpt>
      <trkpt lat="49.389370009303093" lon="-1.235552038997412">
        <ele>28.98</ele>
        <time>2018-07-04T11:09:24Z</time>
      </trkpt>
      <trkpt lat="49.389446033164859" lon="-1.235662009567022">
        <ele>29.460000000000001</ele>
        <time>2018-07-04T11:09:25Z</time>
      </trkpt>
      <trkpt lat="49.389545023441315" lon="-1.235745996236801">
        <ele>29.940000000000001</ele>
        <time>2018-07-04T11:09:26Z</time>
      </trkpt>
      <trkpt lat="49.389632027596235" lon="-1.235823025926948">
        <ele>30.420000000000002</ele>
        <time>2018-07-04T11:09:27Z</time>
      </trkpt>
      <trkpt lat="49.389724982902408" lon="-1.235902989283204">
        <ele>30.420000000000002</ele>
        <time>2018-07-04T11:09:28Z</time>
      </trkpt>
      <trkpt lat="49.389823973178864" lon="-1.235988987609744">
        <ele>30.899999999999999</ele>
        <time>2018-07-04T11:09:29Z</time>
      </trkpt>
      <trkpt lat="49.389916006475687" lon="-1.236069034785032">
        <ele>31.379999999999999</ele>
        <time>2018-07-04T11:09:30Z</time>
      </trkpt>
      <trkpt lat="49.390086997300386" lon="-1.23621697537601">
        <ele>31.859999999999999</ele>
        <time>2018-07-04T11:09:32Z</time>
      </trkpt>
      <trkpt lat="49.390142988413572" lon="-1.236325018107891">
        <ele>31.859999999999999</ele>
        <time>2018-07-04T11:09:33Z</time>
      </trkpt>
      <trkpt lat="49.390197973698378" lon="-1.236435994505882">
        <ele>32.340000000000003</ele>
        <time>2018-07-04T11:09:34Z</time>
      </trkpt>
      <trkpt lat="49.390252036973834" lon="-1.236544037237763">
        <ele>32.340000000000003</ele>
        <time>2018-07-04T11:09:35Z</time>
      </trkpt>
      <trkpt lat="49.390305010601878" lon="-1.236648978665471">
        <ele>33.299999999999997</ele>
        <time>2018-07-04T11:09:36Z</time>
      </trkpt>
      <trkpt lat="49.390320014208555" lon="-1.236762972548604">
        <ele>33.780000000000001</ele>
        <time>2018-07-04T11:09:37Z</time>
      </trkpt>
      <trkpt lat="49.390337029471993" lon="-1.236889036372304">
        <ele>34.740000000000002</ele>
        <time>2018-07-04T11:09:38Z</time>
      </trkpt>
      <trkpt lat="49.390339041128755" lon="-1.237021973356605">
        <ele>35.229999999999997</ele>
        <time>2018-07-04T11:09:39Z</time>
      </trkpt>
      <trkpt lat="49.390316996723413" lon="-1.237147031351924">
        <ele>35.710000000000001</ele>
        <time>2018-07-04T11:09:40Z</time>
      </trkpt>
      <trkpt lat="49.39011599868536" lon="-1.237867958843708">
        <ele>37.630000000000003</ele>
        <time>2018-07-04T11:09:45Z</time>
      </trkpt>
      <trkpt lat="49.389765970408916" lon="-1.23883699066937">
        <ele>38.109999999999999</ele>
        <time>2018-07-04T11:09:51Z</time>
      </trkpt>
      <trkpt lat="49.389711990952492" lon="-1.23898602090776">
        <ele>38.109999999999999</ele>
        <time>2018-07-04T11:09:52Z</time>
      </trkpt>
      <trkpt lat="49.389695981517434" lon="-1.239133039489389">
        <ele>38.109999999999999</ele>
        <time>2018-07-04T11:09:53Z</time>
      </trkpt>
      <trkpt lat="49.389688018709421" lon="-1.239280980080366">
        <ele>37.630000000000003</ele>
        <time>2018-07-04T11:09:54Z</time>
      </trkpt>
      <trkpt lat="49.389677960425615" lon="-1.239444008097053">
        <ele>37.149999999999999</ele>
        <time>2018-07-04T11:09:55Z</time>
      </trkpt>
      <trkpt lat="49.389667985960841" lon="-1.239607036113739">
        <ele>37.149999999999999</ele>
        <time>2018-07-04T11:09:56Z</time>
      </trkpt>
      <trkpt lat="49.389659017324448" lon="-1.239765034988523">
        <ele>36.670000000000002</ele>
        <time>2018-07-04T11:09:57Z</time>
      </trkpt>
      <trkpt lat="49.389738980680704" lon="-1.241362038999796">
        <ele>37.630000000000003</ele>
        <time>2018-07-04T11:10:07Z</time>
      </trkpt>
      <trkpt lat="49.389965962618589" lon="-1.242869021371007">
        <ele>39.07</ele>
        <time>2018-07-04T11:10:14Z</time>
      </trkpt>
      <trkpt lat="49.390189005061984" lon="-1.244828039780259">
        <ele>40.509999999999998</ele>
        <time>2018-07-04T11:10:22Z</time>
      </trkpt>
      <trkpt lat="49.390224041417241" lon="-1.245001964271069">
        <ele>40.509999999999998</ele>
        <time>2018-07-04T11:10:23Z</time>
      </trkpt>
      <trkpt lat="49.390255976468325" lon="-1.245159963145852">
        <ele>40.990000000000002</ele>
        <time>2018-07-04T11:10:24Z</time>
      </trkpt>
      <trkpt lat="49.390314985066652" lon="-1.245289966464043">
        <ele>40.990000000000002</ele>
        <time>2018-07-04T11:10:25Z</time>
      </trkpt>
      <trkpt lat="49.390383968129754" lon="-1.245419969782233">
        <ele>40.990000000000002</ele>
        <time>2018-07-04T11:10:26Z</time>
      </trkpt>
      <trkpt lat="49.390457980334759" lon="-1.24556103721261">
        <ele>41.469999999999999</ele>
        <time>2018-07-04T11:10:27Z</time>
      </trkpt>
      <trkpt lat="49.390555964782834" lon="-1.245681988075376">
        <ele>41.469999999999999</ele>
        <time>2018-07-04T11:10:28Z</time>
      </trkpt>
      <trkpt lat="49.39166396856308" lon="-1.24687003903091">
        <ele>40.990000000000002</ele>
        <time>2018-07-04T11:10:38Z</time>
      </trkpt>
      <trkpt lat="49.392897030338645" lon="-1.247990028932691">
        <ele>39.07</ele>
        <time>2018-07-04T11:10:48Z</time>
      </trkpt>
      <trkpt lat="49.393028039485216" lon="-1.248081978410482">
        <ele>38.109999999999999</ele>
        <time>2018-07-04T11:10:49Z</time>
      </trkpt>
      <trkpt lat="49.393947031348944" lon="-1.248728977516294">
        <ele>30.899999999999999</ele>
        <time>2018-07-04T11:10:57Z</time>
      </trkpt>
      <trkpt lat="49.394083991646767" lon="-1.248825034126639">
        <ele>28.98</ele>
        <time>2018-07-04T11:10:59Z</time>
      </trkpt>
      <trkpt lat="49.394136965274811" lon="-1.248863004148006">
        <ele>28.5</ele>
        <time>2018-07-04T11:11:00Z</time>
      </trkpt>
      <trkpt lat="49.394180970266461" lon="-1.248893011361361">
        <ele>28.02</ele>
        <time>2018-07-04T11:11:01Z</time>
      </trkpt>
      <trkpt lat="49.394212989136577" lon="-1.248915977776051">
        <ele>27.050000000000001</ele>
        <time>2018-07-04T11:11:02Z</time>
      </trkpt>
      <trkpt lat="49.394238973036408" lon="-1.248933998867869">
        <ele>26.57</ele>
        <time>2018-07-04T11:11:03Z</time>
      </trkpt>
      <trkpt lat="49.394280966371298" lon="-1.248888988047838">
        <ele>25.609999999999999</ele>
        <time>2018-07-04T11:11:04Z</time>
      </trkpt>
      <trkpt lat="49.394308961927891" lon="-1.248831991106272">
        <ele>25.129999999999999</ele>
        <time>2018-07-04T11:11:05Z</time>
      </trkpt>
      <trkpt lat="49.394340980798006" lon="-1.248767031356692">
        <ele>24.170000000000002</ele>
        <time>2018-07-04T11:11:06Z</time>
      </trkpt>
      <trkpt lat="49.394374005496502" lon="-1.248700981959701">
        <ele>23.690000000000001</ele>
        <time>2018-07-04T11:11:07Z</time>
      </trkpt>
      <trkpt lat="49.394408036023378" lon="-1.24863401055336">
        <ele>23.210000000000001</ele>
        <time>2018-07-04T11:11:08Z</time>
      </trkpt>
      <trkpt lat="49.394768038764596" lon="-1.247912999242544">
        <ele>20.32</ele>
        <time>2018-07-04T11:11:20Z</time>
      </trkpt>
      <trkpt lat="49.395126029849052" lon="-1.247201962396503">
        <ele>20.32</ele>
        <time>2018-07-04T11:11:29Z</time>
      </trkpt>
      <trkpt lat="49.395808987319469" lon="-1.24586395919323">
        <ele>19.359999999999999</ele>
        <time>2018-07-04T11:11:37Z</time>
      </trkpt>
      <trkpt lat="49.396773995831609" lon="-1.244131000712514">
        <ele>16.48</ele>
        <time>2018-07-04T11:11:46Z</time>
      </trkpt>
      <trkpt lat="49.397543035447598" lon="-1.242279019206762">
        <ele>17.440000000000001</ele>
        <time>2018-07-04T11:11:55Z</time>
      </trkpt>
      <trkpt lat="49.397582011297345" lon="-1.242109034210444">
        <ele>17.440000000000001</ele>
        <time>2018-07-04T11:11:56Z</time>
      </trkpt>
      <trkpt lat="49.397591985762119" lon="-1.241945000365377">
        <ele>18.399999999999999</ele>
        <time>2018-07-04T11:11:57Z</time>
      </trkpt>
      <trkpt lat="49.397600032389164" lon="-1.241798987612128">
        <ele>19.359999999999999</ele>
        <time>2018-07-04T11:11:58Z</time>
      </trkpt>
      <trkpt lat="49.397638002410531" lon="-1.241683987900615">
        <ele>19.84</ele>
        <time>2018-07-04T11:11:59Z</time>
      </trkpt>
      <trkpt lat="49.397687036544085" lon="-1.241590026766062">
        <ele>20.809999999999999</ele>
        <time>2018-07-04T11:12:00Z</time>
      </trkpt>
      <trkpt lat="49.397768005728722" lon="-1.241534035652876">
        <ele>21.289999999999999</ele>
        <time>2018-07-04T11:12:01Z</time>
      </trkpt>
      <trkpt lat="49.397862972691655" lon="-1.241468992084265">
        <ele>21.77</ele>
        <time>2018-07-04T11:12:02Z</time>
      </trkpt>
      <trkpt lat="49.397965986281633" lon="-1.241397997364402">
        <ele>21.77</ele>
        <time>2018-07-04T11:12:03Z</time>
      </trkpt>
      <trkpt lat="49.398294975981116" lon="-1.241164980456233">
        <ele>21.289999999999999</ele>
        <time>2018-07-04T11:12:06Z</time>
      </trkpt>
      <trkpt lat="49.39870803616941" lon="-1.240626024082303">
        <ele>21.77</ele>
        <time>2018-07-04T11:12:10Z</time>
      </trkpt>
      <trkpt lat="49.398992015048862" lon="-1.240255041047931">
        <ele>21.77</ele>
        <time>2018-07-04T11:12:13Z</time>
      </trkpt>
      <trkpt lat="49.39916200004518" lon="-1.240034010261297">
        <ele>21.77</ele>
        <time>2018-07-04T11:12:15Z</time>
      </trkpt>
      <trkpt lat="49.399445978924632" lon="-1.239676019176841">
        <ele>22.73</ele>
        <time>2018-07-04T11:12:18Z</time>
      </trkpt>
      <trkpt lat="49.399557039141655" lon="-1.23954601585865">
        <ele>22.73</ele>
        <time>2018-07-04T11:12:19Z</time>
      </trkpt>
      <trkpt lat="49.400409981608391" lon="-1.238545970991254">
        <ele>21.77</ele>
        <time>2018-07-04T11:12:28Z</time>
      </trkpt>
      <trkpt lat="49.400547025725245" lon="-1.238385960459709">
        <ele>19.84</ele>
        <time>2018-07-04T11:12:35Z</time>
      </trkpt>
      <trkpt lat="49.4005770329386" lon="-1.238351007923484">
        <ele>19.359999999999999</ele>
        <time>2018-07-04T11:12:37Z</time>
      </trkpt>
      <trkpt lat="49.400609973818064" lon="-1.238393001258373">
        <ele>18.879999999999999</ele>
        <time>2018-07-04T11:12:38Z</time>
      </trkpt>
      <trkpt lat="49.400658002123237" lon="-1.238478999584913">
        <ele>18.399999999999999</ele>
        <time>2018-07-04T11:12:39Z</time>
      </trkpt>
      <trkpt lat="49.400720028206706" lon="-1.238589975982904">
        <ele>17.920000000000002</ele>
        <time>2018-07-04T11:12:40Z</time>
      </trkpt>
      <trkpt lat="49.40079303458333" lon="-1.238720985129476">
        <ele>16.960000000000001</ele>
        <time>2018-07-04T11:12:41Z</time>
      </trkpt>
      <trkpt lat="49.401384964585304" lon="-1.239786995574832">
        <ele>13.119999999999999</ele>
        <time>2018-07-04T11:12:48Z</time>
      </trkpt>
      <trkpt lat="49.401485966518521" lon="-1.239926973357797">
        <ele>12.15</ele>
        <time>2018-07-04T11:12:49Z</time>
      </trkpt>
      <trkpt lat="49.401607001200318" lon="-1.240030992776156">
        <ele>11.67</ele>
        <time>2018-07-04T11:12:50Z</time>
      </trkpt>
      <trkpt lat="49.401729963719845" lon="-1.240137023851275">
        <ele>11.67</ele>
        <time>2018-07-04T11:12:51Z</time>
      </trkpt>
      <trkpt lat="49.401873964816332" lon="-1.24018999747932">
        <ele>11.19</ele>
        <time>2018-07-04T11:12:52Z</time>
      </trkpt>
      <trkpt lat="49.402024000883102" lon="-1.240240037441254">
        <ele>10.710000000000001</ele>
        <time>2018-07-04T11:12:53Z</time>
      </trkpt>
      <trkpt lat="49.402179988101125" lon="-1.240292005240917">
        <ele>10.23</ele>
        <time>2018-07-04T11:12:54Z</time>
      </trkpt>
      <trkpt lat="49.402344021946192" lon="-1.240346990525723">
        <ele>10.23</ele>
        <time>2018-07-04T11:12:55Z</time>
      </trkpt>
      <trkpt lat="49.402504032477736" lon="-1.240450004115701">
        <ele>9.75</ele>
        <time>2018-07-04T11:12:56Z</time>
      </trkpt>
      <trkpt lat="49.403611030429602" lon="-1.241443008184433">
        <ele>8.789999999999999</ele>
        <time>2018-07-04T11:13:03Z</time>
      </trkpt>
      <trkpt lat="49.404096007347107" lon="-1.242001997306943">
        <ele>8.310000000000001</ele>
        <time>2018-07-04T11:13:07Z</time>
      </trkpt>
      <trkpt lat="49.404201032593846" lon="-1.242084978148341">
        <ele>8.310000000000001</ele>
        <time>2018-07-04T11:13:08Z</time>
      </trkpt>
      <trkpt lat="49.404317960143089" lon="-1.242142980918288">
        <ele>8.789999999999999</ele>
        <time>2018-07-04T11:13:09Z</time>
      </trkpt>
      <trkpt lat="49.404441006481647" lon="-1.242149015888572">
        <ele>8.789999999999999</ele>
        <time>2018-07-04T11:13:10Z</time>
      </trkpt>
      <trkpt lat="49.404572015628219" lon="-1.242153961211443">
        <ele>9.27</ele>
        <time>2018-07-04T11:13:11Z</time>
      </trkpt>
      <trkpt lat="49.404716016724706" lon="-1.242161002010107">
        <ele>9.27</ele>
        <time>2018-07-04T11:13:12Z</time>
      </trkpt>
      <trkpt lat="49.405539035797119" lon="-1.242184974253178">
        <ele>9.75</ele>
        <time>2018-07-04T11:13:17Z</time>
      </trkpt>
      <trkpt lat="49.405725030228496" lon="-1.242184974253178">
        <ele>9.27</ele>
        <time>2018-07-04T11:13:18Z</time>
      </trkpt>
      <trkpt lat="49.407308036461473" lon="-1.242210036143661">
        <ele>8.789999999999999</ele>
        <time>2018-07-04T11:13:26Z</time>
      </trkpt>
      <trkpt lat="49.408712005242705" lon="-1.242137029767036">
        <ele>8.789999999999999</ele>
        <time>2018-07-04T11:13:35Z</time>
      </trkpt>
      <trkpt lat="49.408822981640697" lon="-1.242120014503598">
        <ele>8.310000000000001</ele>
        <time>2018-07-04T11:13:36Z</time>
      </trkpt>
      <trkpt lat="49.408874027431011" lon="-1.242099981755018">
        <ele>7.83</ele>
        <time>2018-07-04T11:13:37Z</time>
      </trkpt>
      <trkpt lat="49.408944016322494" lon="-1.242014989256859">
        <ele>7.83</ele>
        <time>2018-07-04T11:13:38Z</time>
      </trkpt>
      <trkpt lat="49.408965976908803" lon="-1.241920022293925">
        <ele>7.83</ele>
        <time>2018-07-04T11:13:39Z</time>
      </trkpt>
      <trkpt lat="49.408993972465396" lon="-1.24180200509727">
        <ele>7.83</ele>
        <time>2018-07-04T11:13:40Z</time>
      </trkpt>
      <trkpt lat="49.40902397967875" lon="-1.241668984293938">
        <ele>7.83</ele>
        <time>2018-07-04T11:13:41Z</time>
      </trkpt>
      <trkpt lat="49.409336959943175" lon="-1.240614959970117">
        <ele>8.310000000000001</ele>
        <time>2018-07-04T11:13:47Z</time>
      </trkpt>
      <trkpt lat="49.409769969061017" lon="-1.238998007029295">
        <ele>8.310000000000001</ele>
        <time>2018-07-04T11:13:55Z</time>
      </trkpt>
      <trkpt lat="49.409896032884717" lon="-1.238598022609949">
        <ele>8.789999999999999</ele>
        <time>2018-07-04T11:13:57Z</time>
      </trkpt>
      <trkpt lat="49.409959986805916" lon="-1.238396018743515">
        <ele>8.789999999999999</ele>
        <time>2018-07-04T11:13:58Z</time>
      </trkpt>
      <trkpt lat="49.410128965973854" lon="-1.237821020185947">
        <ele>8.789999999999999</ele>
        <time>2018-07-04T11:14:01Z</time>
      </trkpt>
      <trkpt lat="49.410184035077691" lon="-1.237625973299146">
        <ele>8.789999999999999</ele>
        <time>2018-07-04T11:14:02Z</time>
      </trkpt>
      <trkpt lat="49.410472959280014" lon="-1.235605012625456">
        <ele>9.75</ele>
        <time>2018-07-04T11:14:11Z</time>
      </trkpt>
      <trkpt lat="49.410906974226236" lon="-1.233804998919368">
        <ele>8.789999999999999</ele>
        <time>2018-07-04T11:14:20Z</time>
      </trkpt>
      <trkpt lat="49.411345012485981" lon="-1.232394995167851">
        <ele>9.27</ele>
        <time>2018-07-04T11:14:28Z</time>
      </trkpt>
      <trkpt lat="49.411390023306012" lon="-1.232320982962847">
        <ele>9.27</ele>
        <time>2018-07-04T11:14:29Z</time>
      </trkpt>
      <trkpt lat="49.41143000498414" lon="-1.232256023213267">
        <ele>9.27</ele>
        <time>2018-07-04T11:14:30Z</time>
      </trkpt>
      <trkpt lat="49.411468980833888" lon="-1.232191985473037">
        <ele>9.27</ele>
        <time>2018-07-04T11:14:31Z</time>
      </trkpt>
      <trkpt lat="49.411575011909008" lon="-1.232016971334815">
        <ele>9.27</ele>
        <time>2018-07-04T11:14:33Z</time>
      </trkpt>
      <trkpt lat="49.411646006628871" lon="-1.23189995996654">
        <ele>9.27</ele>
        <time>2018-07-04T11:14:34Z</time>
      </trkpt>
      <trkpt lat="49.411705015227199" lon="-1.23174799606204">
        <ele>9.75</ele>
        <time>2018-07-04T11:14:35Z</time>
      </trkpt>
      <trkpt lat="49.411767041310668" lon="-1.231577005237341">
        <ele>9.75</ele>
        <time>2018-07-04T11:14:36Z</time>
      </trkpt>
      <trkpt lat="49.411832001060247" lon="-1.231391010805965">
        <ele>9.75</ele>
        <time>2018-07-04T11:14:37Z</time>
      </trkpt>
      <trkpt lat="49.411882041022182" lon="-1.231177020817995">
        <ele>9.75</ele>
        <time>2018-07-04T11:14:38Z</time>
      </trkpt>
      <trkpt lat="49.412048002704978" lon="-1.230351990088821">
        <ele>9.27</ele>
        <time>2018-07-04T11:14:42Z</time>
      </trkpt>
      <trkpt lat="49.412056971341372" lon="-1.230158032849431">
        <ele>9.27</ele>
        <time>2018-07-04T11:14:43Z</time>
      </trkpt>
      <trkpt lat="49.412082033231854" lon="-1.229628967121244">
        <ele>9.27</ele>
        <time>2018-07-04T11:14:46Z</time>
      </trkpt>
      <trkpt lat="49.412128971889615" lon="-1.229466022923589">
        <ele>9.27</ele>
        <time>2018-07-04T11:14:47Z</time>
      </trkpt>
      <trkpt lat="49.412184963002801" lon="-1.229308024048805">
        <ele>9.27</ele>
        <time>2018-07-04T11:14:48Z</time>
      </trkpt>
      <trkpt lat="49.41224698908627" lon="-1.229136027395725">
        <ele>9.27</ele>
        <time>2018-07-04T11:14:49Z</time>
      </trkpt>
      <trkpt lat="49.412313038483262" lon="-1.228952966630459">
        <ele>9.27</ele>
        <time>2018-07-04T11:14:50Z</time>
      </trkpt>
      <trkpt lat="49.412619983777404" lon="-1.228100024163723">
        <ele>9.27</ele>
        <time>2018-07-04T11:14:55Z</time>
      </trkpt>
      <trkpt lat="49.412659965455532" lon="-1.227989969775081">
        <ele>9.27</ele>
        <time>2018-07-04T11:14:56Z</time>
      </trkpt>
      <trkpt lat="49.412727020680904" lon="-1.227956023067236">
        <ele>9.27</ele>
        <time>2018-07-04T11:14:57Z</time>
      </trkpt>
      <trkpt lat="49.412794997915626" lon="-1.227930039167404">
        <ele>9.27</ele>
        <time>2018-07-04T11:14:58Z</time>
      </trkpt>
      <trkpt lat="49.412865992635489" lon="-1.227935990318656">
        <ele>9.27</ele>
        <time>2018-07-04T11:14:59Z</time>
      </trkpt>
      <trkpt lat="49.412951990962029" lon="-1.227992987260222">
        <ele>9.75</ele>
        <time>2018-07-04T11:15:00Z</time>
      </trkpt>
      <trkpt lat="49.413051987066865" lon="-1.228059958666563">
        <ele>9.75</ele>
        <time>2018-07-04T11:15:01Z</time>
      </trkpt>
      <trkpt lat="49.413163969293237" lon="-1.228134976699948">
        <ele>9.75</ele>
        <time>2018-07-04T11:15:02Z</time>
      </trkpt>
      <trkpt lat="49.413283998146653" lon="-1.228226004168391">
        <ele>9.75</ele>
        <time>2018-07-04T11:15:03Z</time>
      </trkpt>
      <trkpt lat="49.413912976160645" lon="-1.228663036599755">
        <ele>10.23</ele>
        <time>2018-07-04T11:15:08Z</time>
      </trkpt>
      <trkpt lat="49.414014983922243" lon="-1.228708969429135">
        <ele>10.23</ele>
        <time>2018-07-04T11:15:09Z</time>
      </trkpt>
      <trkpt lat="49.414133001118898" lon="-1.228695977479219">
        <ele>10.23</ele>
        <time>2018-07-04T11:15:10Z</time>
      </trkpt>
      <trkpt lat="49.414209024980664" lon="-1.228688014671207">
        <ele>10.23</ele>
        <time>2018-07-04T11:15:11Z</time>
      </trkpt>
      <trkpt lat="49.414336010813713" lon="-1.228618025779724">
        <ele>9.75</ele>
        <time>2018-07-04T11:15:12Z</time>
      </trkpt>
      <trkpt lat="49.414431983605027" lon="-1.228565974161029">
        <ele>9.75</ele>
        <time>2018-07-04T11:15:13Z</time>
      </trkpt>
      <trkpt lat="49.41452200524509" lon="-1.228517023846507">
        <ele>10.23</ele>
        <time>2018-07-04T11:15:14Z</time>
      </trkpt>
      <trkpt lat="49.414603980258107" lon="-1.228472013026476">
        <ele>10.23</ele>
        <time>2018-07-04T11:15:15Z</time>
      </trkpt>
      <trkpt lat="49.414681009948254" lon="-1.228430019691587">
        <ele>10.23</ele>
        <time>2018-07-04T11:15:16Z</time>
      </trkpt>
      <trkpt lat="49.41475996747613" lon="-1.228451980277896">
        <ele>10.23</ele>
        <time>2018-07-04T11:15:17Z</time>
      </trkpt>
      <trkpt lat="49.414842026308179" lon="-1.228475030511618">
        <ele>10.23</ele>
        <time>2018-07-04T11:15:18Z</time>
      </trkpt>
      <trkpt lat="49.41493003629148" lon="-1.228499002754688">
        <ele>9.75</ele>
        <time>2018-07-04T11:15:19Z</time>
      </trkpt>
      <trkpt lat="49.415022991597652" lon="-1.22852498665452">
        <ele>10.23</ele>
        <time>2018-07-04T11:15:20Z</time>
      </trkpt>
      <trkpt lat="49.415117958560586" lon="-1.228543007746339">
        <ele>10.23</ele>
        <time>2018-07-04T11:15:21Z</time>
      </trkpt>
      <trkpt lat="49.415218038484454" lon="-1.228552982211113">
        <ele>10.23</ele>
        <time>2018-07-04T11:15:22Z</time>
      </trkpt>
      <trkpt lat="49.415325997397304" lon="-1.22856798581779">
        <ele>10.23</ele>
        <time>2018-07-04T11:15:23Z</time>
      </trkpt>
      <trkpt lat="49.415558008477092" lon="-1.228614002466202">
        <ele>10.23</ele>
        <time>2018-07-04T11:15:25Z</time>
      </trkpt>
      <trkpt lat="49.415674014016986" lon="-1.228682985529304">
        <ele>10.23</ele>
        <time>2018-07-04T11:15:26Z</time>
      </trkpt>
      <trkpt lat="49.415784990414977" lon="-1.228777030482888">
        <ele>10.23</ele>
        <time>2018-07-04T11:15:27Z</time>
      </trkpt>
      <trkpt lat="49.415888004004955" lon="-1.228864034637809">
        <ele>10.23</ele>
        <time>2018-07-04T11:15:28Z</time>
      </trkpt>
      <trkpt lat="49.415981965139508" lon="-1.228943997994065">
        <ele>10.23</ele>
        <time>2018-07-04T11:15:29Z</time>
      </trkpt>
      <trkpt lat="49.416143987327814" lon="-1.229080958291888">
        <ele>9.75</ele>
        <time>2018-07-04T11:15:31Z</time>
      </trkpt>
      <trkpt lat="49.416219005361199" lon="-1.229107026010752">
        <ele>9.75</ele>
        <time>2018-07-04T11:15:32Z</time>
      </trkpt>
      <trkpt lat="49.416268039494753" lon="-1.229117000475526">
        <ele>9.27</ele>
        <time>2018-07-04T11:15:33Z</time>
      </trkpt>
      <trkpt lat="49.416320007294416" lon="-1.229052040725946">
        <ele>9.27</ele>
        <time>2018-07-04T11:15:34Z</time>
      </trkpt>
      <trkpt lat="49.416356971487403" lon="-1.228999989107251">
        <ele>9.27</ele>
        <time>2018-07-04T11:15:35Z</time>
      </trkpt>
      <trkpt lat="49.416386978700757" lon="-1.228910973295569">
        <ele>8.789999999999999</ele>
        <time>2018-07-04T11:15:36Z</time>
      </trkpt>
      <trkpt lat="49.416418997570872" lon="-1.228809971362352">
        <ele>9.27</ele>
        <time>2018-07-04T11:15:37Z</time>
      </trkpt>
      <trkpt lat="49.416426960378885" lon="-1.228667981922627">
        <ele>9.27</ele>
        <time>2018-07-04T11:15:38Z</time>
      </trkpt>
      <trkpt lat="49.416512036696076" lon="-1.227221013978124">
        <ele>11.19</ele>
        <time>2018-07-04T11:15:45Z</time>
      </trkpt>
      <trkpt lat="49.416568027809262" lon="-1.226720027625561">
        <ele>11.19</ele>
        <time>2018-07-04T11:15:47Z</time>
      </trkpt>
      <trkpt lat="49.416605997830629" lon="-1.226469995453954">
        <ele>11.19</ele>
        <time>2018-07-04T11:15:48Z</time>
      </trkpt>
      <trkpt lat="49.416688978672028" lon="-1.226247036829591">
        <ele>11.19</ele>
        <time>2018-07-04T11:15:49Z</time>
      </trkpt>
      <trkpt lat="49.416773971170187" lon="-1.226038997992873">
        <ele>11.19</ele>
        <time>2018-07-04T11:15:50Z</time>
      </trkpt>
      <trkpt lat="49.416856030002236" lon="-1.225840011611581">
        <ele>11.19</ele>
        <time>2018-07-04T11:15:51Z</time>
      </trkpt>
      <trkpt lat="49.416940016672015" lon="-1.225635996088386">
        <ele>11.19</ele>
        <time>2018-07-04T11:15:52Z</time>
      </trkpt>
      <trkpt lat="49.417024003341794" lon="-1.22543097473681">
        <ele>11.19</ele>
        <time>2018-07-04T11:15:53Z</time>
      </trkpt>
      <trkpt lat="49.417106984183192" lon="-1.225218996405602">
        <ele>10.710000000000001</ele>
        <time>2018-07-04T11:15:54Z</time>
      </trkpt>
      <trkpt lat="49.417134979739785" lon="-1.224983967840672">
        <ele>10.710000000000001</ele>
        <time>2018-07-04T11:15:55Z</time>
      </trkpt>
      <trkpt lat="49.417163981124759" lon="-1.224740976467729">
        <ele>10.710000000000001</ele>
        <time>2018-07-04T11:15:56Z</time>
      </trkpt>
      <trkpt lat="49.417255008593202" lon="-1.222995026037097">
        <ele>10.710000000000001</ele>
        <time>2018-07-04T11:16:03Z</time>
      </trkpt>
      <trkpt lat="49.417297001928091" lon="-1.222824035212398">
        <ele>10.710000000000001</ele>
        <time>2018-07-04T11:16:04Z</time>
      </trkpt>
      <trkpt lat="49.4173379894346" lon="-1.222670981660485">
        <ele>11.19</ele>
        <time>2018-07-04T11:16:05Z</time>
      </trkpt>
      <trkpt lat="49.417427005246282" lon="-1.222580038011074">
        <ele>11.19</ele>
        <time>2018-07-04T11:16:06Z</time>
      </trkpt>
      <trkpt lat="49.417527001351118" lon="-1.222490016371012">
        <ele>11.19</ele>
        <time>2018-07-04T11:16:07Z</time>
      </trkpt>
      <trkpt lat="49.417643006891012" lon="-1.222422039136291">
        <ele>11.19</ele>
        <time>2018-07-04T11:16:08Z</time>
      </trkpt>
      <trkpt lat="49.417772004380822" lon="-1.222379039973021">
        <ele>11.19</ele>
        <time>2018-07-04T11:16:09Z</time>
      </trkpt>
      <trkpt lat="49.418050032109022" lon="-1.222276026383042">
        <ele>10.710000000000001</ele>
        <time>2018-07-04T11:16:11Z</time>
      </trkpt>
      <trkpt lat="49.418182969093323" lon="-1.222167983651161">
        <ele>10.710000000000001</ele>
        <time>2018-07-04T11:16:12Z</time>
      </trkpt>
      <trkpt lat="49.418609021231532" lon="-1.221824996173382">
        <ele>10.23</ele>
        <time>2018-07-04T11:16:15Z</time>
      </trkpt>
      <trkpt lat="49.418858969584107" lon="-1.221625003963709">
        <ele>9.75</ele>
        <time>2018-07-04T11:16:17Z</time>
      </trkpt>
      <trkpt lat="49.418945973739028" lon="-1.221499023959041">
        <ele>9.27</ele>
        <time>2018-07-04T11:16:18Z</time>
      </trkpt>
      <trkpt lat="49.419007999822497" lon="-1.221359968185425">
        <ele>8.789999999999999</ele>
        <time>2018-07-04T11:16:19Z</time>
      </trkpt>
      <trkpt lat="49.41907899454236" lon="-1.221199035644531">
        <ele>8.310000000000001</ele>
        <time>2018-07-04T11:16:20Z</time>
      </trkpt>
      <trkpt lat="49.419087041169405" lon="-1.221064003184438">
        <ele>8.310000000000001</ele>
        <time>2018-07-04T11:16:21Z</time>
      </trkpt>
      <trkpt lat="49.41909902729094" lon="-1.220878008753061">
        <ele>8.789999999999999</ele>
        <time>2018-07-04T11:16:22Z</time>
      </trkpt>
      <trkpt lat="49.419111013412476" lon="-1.220677010715008">
        <ele>8.789999999999999</ele>
        <time>2018-07-04T11:16:23Z</time>
      </trkpt>
      <trkpt lat="49.419124005362391" lon="-1.220463020727038">
        <ele>8.789999999999999</ele>
        <time>2018-07-04T11:16:24Z</time>
      </trkpt>
      <trkpt lat="49.419291978701949" lon="-1.219016974791884">
        <ele>9.27</ele>
        <time>2018-07-04T11:16:30Z</time>
      </trkpt>
      <trkpt lat="49.419368002563715" lon="-1.216844972223043">
        <ele>9.27</ele>
        <time>2018-07-04T11:16:38Z</time>
      </trkpt>
      <trkpt lat="49.419458024203777" lon="-1.215122994035482">
        <ele>10.23</ele>
        <time>2018-07-04T11:16:45Z</time>
      </trkpt>
      <trkpt lat="49.419518960639834" lon="-1.214962983503938">
        <ele>10.23</ele>
        <time>2018-07-04T11:16:46Z</time>
      </trkpt>
      <trkpt lat="49.419598001986742" lon="-1.21481697075069">
        <ele>10.23</ele>
        <time>2018-07-04T11:16:47Z</time>
      </trkpt>
      <trkpt lat="49.419696992263198" lon="-1.214701971039176">
        <ele>10.23</ele>
        <time>2018-07-04T11:16:48Z</time>
      </trkpt>
      <trkpt lat="49.419814003631473" lon="-1.214595017954707">
        <ele>10.23</ele>
        <time>2018-07-04T11:16:49Z</time>
      </trkpt>
      <trkpt lat="49.419941995292902" lon="-1.21449301019311">
        <ele>9.75</ele>
        <time>2018-07-04T11:16:50Z</time>
      </trkpt>
      <trkpt lat="49.420930976048112" lon="-1.213651970028877">
        <ele>8.310000000000001</ele>
        <time>2018-07-04T11:16:57Z</time>
      </trkpt>
      <trkpt lat="49.42103398963809" lon="-1.213521966710687">
        <ele>7.83</ele>
        <time>2018-07-04T11:16:58Z</time>
      </trkpt>
      <trkpt lat="49.421129040420055" lon="-1.213401015847921">
        <ele>8.310000000000001</ele>
        <time>2018-07-04T11:16:59Z</time>
      </trkpt>
      <trkpt lat="49.421180002391338" lon="-1.213238993659616">
        <ele>8.310000000000001</ele>
        <time>2018-07-04T11:17:00Z</time>
      </trkpt>
      <trkpt lat="49.421230964362621" lon="-1.213050987571478">
        <ele>8.310000000000001</ele>
        <time>2018-07-04T11:17:01Z</time>
      </trkpt>
      <trkpt lat="49.421286033466458" lon="-1.212847977876663">
        <ele>8.310000000000001</ele>
        <time>2018-07-04T11:17:02Z</time>
      </trkpt>
      <trkpt lat="49.42176204174757" lon="-1.211091969162226">
        <ele>8.310000000000001</ele>
        <time>2018-07-04T11:17:09Z</time>
      </trkpt>
      <trkpt lat="49.422024982050061" lon="-1.209773998707533">
        <ele>7.83</ele>
        <time>2018-07-04T11:17:14Z</time>
      </trkpt>
      <trkpt lat="49.422083990648389" lon="-1.209539975970984">
        <ele>7.83</ele>
        <time>2018-07-04T11:17:15Z</time>
      </trkpt>
      <trkpt lat="49.422174012288451" lon="-1.209331015124917">
        <ele>7.83</ele>
        <time>2018-07-04T11:17:16Z</time>
      </trkpt>
      <trkpt lat="49.422446005046368" lon="-1.208701031282544">
        <ele>7.83</ele>
        <time>2018-07-04T11:17:19Z</time>
      </trkpt>
      <trkpt lat="49.422518005594611" lon="-1.208468014374375">
        <ele>7.83</ele>
        <time>2018-07-04T11:17:20Z</time>
      </trkpt>
      <trkpt lat="49.422786980867386" lon="-1.207224978134036">
        <ele>7.83</ele>
        <time>2018-07-04T11:17:25Z</time>
      </trkpt>
      <trkpt lat="49.423003988340497" lon="-1.205193037167192">
        <ele>8.789999999999999</ele>
        <time>2018-07-04T11:17:33Z</time>
      </trkpt>
      <trkpt lat="49.423042964190245" lon="-1.204983992502093">
        <ele>8.789999999999999</ele>
        <time>2018-07-04T11:17:34Z</time>
      </trkpt>
      <trkpt lat="49.423098033294082" lon="-1.204785006120801">
        <ele>8.789999999999999</ele>
        <time>2018-07-04T11:17:35Z</time>
      </trkpt>
      <trkpt lat="49.42318101413548" lon="-1.204597000032663">
        <ele>8.310000000000001</ele>
        <time>2018-07-04T11:17:36Z</time>
      </trkpt>
      <trkpt lat="49.423276986926794" lon="-1.204413017258048">
        <ele>8.310000000000001</ele>
        <time>2018-07-04T11:17:37Z</time>
      </trkpt>
      <trkpt lat="49.423386035487056" lon="-1.204231968149543">
        <ele>8.310000000000001</ele>
        <time>2018-07-04T11:17:38Z</time>
      </trkpt>
      <trkpt lat="49.42415096797049" lon="-1.202968982979655">
        <ele>8.310000000000001</ele>
        <time>2018-07-04T11:17:46Z</time>
      </trkpt>
      <trkpt lat="49.42438599653542" lon="-1.202320978045464">
        <ele>8.789999999999999</ele>
        <time>2018-07-04T11:17:52Z</time>
      </trkpt>
      <trkpt lat="49.424595963209867" lon="-1.201873971149325">
        <ele>9.27</ele>
        <time>2018-07-04T11:17:56Z</time>
      </trkpt>
      <trkpt lat="49.424655977636576" lon="-1.201751008629799">
        <ele>9.27</ele>
        <time>2018-07-04T11:17:57Z</time>
      </trkpt>
      <trkpt lat="49.424720015376806" lon="-1.201618993654847">
        <ele>9.75</ele>
        <time>2018-07-04T11:17:58Z</time>
      </trkpt>
      <trkpt lat="49.424786986783147" lon="-1.201483039185405">
        <ele>9.75</ele>
        <time>2018-07-04T11:17:59Z</time>
      </trkpt>
      <trkpt lat="49.424855969846249" lon="-1.201335014775395">
        <ele>9.75</ele>
        <time>2018-07-04T11:18:00Z</time>
      </trkpt>
      <trkpt lat="49.424907015636563" lon="-1.201162012293935">
        <ele>9.75</ele>
        <time>2018-07-04T11:18:01Z</time>
      </trkpt>
      <trkpt lat="49.425385035574436" lon="-1.199500970542431">
        <ele>9.75</ele>
        <time>2018-07-04T11:18:09Z</time>
      </trkpt>
      <trkpt lat="49.426068998873234" lon="-1.197100980207324">
        <ele>10.23</ele>
        <time>2018-07-04T11:18:19Z</time>
      </trkpt>
      <trkpt lat="49.426702000200748" lon="-1.195443961769342">
        <ele>12.15</ele>
        <time>2018-07-04T11:18:27Z</time>
      </trkpt>
      <trkpt lat="49.427892984822392" lon="-1.193022010847926">
        <ele>10.710000000000001</ele>
        <time>2018-07-04T11:18:38Z</time>
      </trkpt>
      <trkpt lat="49.42859698086977" lon="-1.191755002364516">
        <ele>11.67</ele>
        <time>2018-07-04T11:18:45Z</time>
      </trkpt>
      <trkpt lat="49.428809965029359" lon="-1.191190984100103">
        <ele>11.19</ele>
        <time>2018-07-04T11:18:50Z</time>
      </trkpt>
      <trkpt lat="49.428853970021009" lon="-1.190836010500789">
        <ele>11.19</ele>
        <time>2018-07-04T11:18:55Z</time>
      </trkpt>
      <trkpt lat="49.428659006953239" lon="-1.189892962574959">
        <ele>10.23</ele>
        <time>2018-07-04T11:19:02Z</time>
      </trkpt>
      <trkpt lat="49.428132958710194" lon="-1.188727961853147">
        <ele>11.19</ele>
        <time>2018-07-04T11:19:08Z</time>
      </trkpt>
      <trkpt lat="49.427997004240751" lon="-1.188548002392054">
        <ele>11.19</ele>
        <time>2018-07-04T11:19:09Z</time>
      </trkpt>
      <trkpt lat="49.427853003144264" lon="-1.1883660312742">
        <ele>11.19</ele>
        <time>2018-07-04T11:19:10Z</time>
      </trkpt>
      <trkpt lat="49.426377033814788" lon="-1.186872040852904">
        <ele>10.710000000000001</ele>
        <time>2018-07-04T11:19:19Z</time>
      </trkpt>
      <trkpt lat="49.424476018175483" lon="-1.184812020510435">
        <ele>10.23</ele>
        <time>2018-07-04T11:19:31Z</time>
      </trkpt>
      <trkpt lat="49.422707017511129" lon="-1.182957021519542">
        <ele>11.19</ele>
        <time>2018-07-04T11:19:42Z</time>
      </trkpt>
      <trkpt lat="49.421158963814378" lon="-1.181369991973043">
        <ele>9.75</ele>
        <time>2018-07-04T11:19:52Z</time>
      </trkpt>
      <trkpt lat="49.420482963323593" lon="-1.180478995665908">
        <ele>10.710000000000001</ele>
        <time>2018-07-04T11:19:59Z</time>
      </trkpt>
      <trkpt lat="49.420141987502575" lon="-1.180061995983124">
        <ele>11.19</ele>
        <time>2018-07-04T11:20:07Z</time>
      </trkpt>
      <trkpt lat="49.420125978067517" lon="-1.180041963234544">
        <ele>11.19</ele>
        <time>2018-07-04T11:20:08Z</time>
      </trkpt>
      <trkpt lat="49.420108962804079" lon="-1.180022014304996">
        <ele>11.19</ele>
        <time>2018-07-04T11:20:10Z</time>
      </trkpt>
      <trkpt lat="49.420362012460828" lon="-1.179319024085999">
        <ele>12.630000000000001</ele>
        <time>2018-07-04T11:20:18Z</time>
      </trkpt>
      <trkpt lat="49.42038900218904" lon="-1.179221039637923">
        <ele>13.119999999999999</ele>
        <time>2018-07-04T11:20:21Z</time>
      </trkpt>
      <trkpt lat="49.420406017452478" lon="-1.179168988019228">
        <ele>13.6</ele>
        <time>2018-07-04T11:20:36Z</time>
      </trkpt>
      <trkpt lat="49.420406017452478" lon="-1.179166976362467">
        <ele>13.119999999999999</ele>
        <time>2018-07-04T11:21:27Z</time>
      </trkpt>
      <trkpt lat="49.420433007180691" lon="-1.179197989404202">
        <ele>12.15</ele>
        <time>2018-07-04T11:21:34Z</time>
      </trkpt>
      <trkpt lat="49.420410040766001" lon="-1.17932497523725">
        <ele>11.19</ele>
        <time>2018-07-04T11:21:38Z</time>
      </trkpt>
      <trkpt lat="49.420298980548978" lon="-1.179522033780813">
        <ele>9.27</ele>
        <time>2018-07-04T11:21:42Z</time>
      </trkpt>
      <trkpt lat="49.420108962804079" lon="-1.180022014304996">
        <ele>4.94</ele>
        <time>2018-07-04T11:21:52Z</time>
      </trkpt>
      <trkpt lat="49.420143999159336" lon="-1.180064007639885">
        <ele>4.94</ele>
        <time>2018-07-04T11:22:04Z</time>
      </trkpt>
      <trkpt lat="49.420189009979367" lon="-1.18011899292469">
        <ele>4.94</ele>
        <time>2018-07-04T11:22:05Z</time>
      </trkpt>
      <trkpt lat="49.42068999633193" lon="-1.180749982595444">
        <ele>5.42</ele>
        <time>2018-07-04T11:22:11Z</time>
      </trkpt>
      <trkpt lat="49.421808980405331" lon="-1.182153029367328">
        <ele>5.91</ele>
        <time>2018-07-04T11:22:20Z</time>
      </trkpt>
      <trkpt lat="49.423481002449989" lon="-1.183730000630021">
        <ele>6.39</ele>
        <time>2018-07-04T11:22:30Z</time>
      </trkpt>
      <trkpt lat="49.425070965662599" lon="-1.185460025444627">
        <ele>6.39</ele>
        <time>2018-07-04T11:22:40Z</time>
      </trkpt>
      <trkpt lat="49.427791982889175" lon="-1.188305011019111">
        <ele>8.789999999999999</ele>
        <time>2018-07-04T11:22:57Z</time>
      </trkpt>
      <trkpt lat="49.428219962865114" lon="-1.188842039555311">
        <ele>8.789999999999999</ele>
        <time>2018-07-04T11:23:00Z</time>
      </trkpt>
      <trkpt lat="49.428329011425376" lon="-1.189031973481178">
        <ele>8.310000000000001</ele>
        <time>2018-07-04T11:23:01Z</time>
      </trkpt>
      <trkpt lat="49.428504025563598" lon="-1.189446961507201">
        <ele>7.83</ele>
        <time>2018-07-04T11:23:03Z</time>
      </trkpt>
      <trkpt lat="49.428588012233377" lon="-1.189647959545255">
        <ele>7.35</ele>
        <time>2018-07-04T11:23:04Z</time>
      </trkpt>
      <trkpt lat="49.428650038316846" lon="-1.18984904140234">
        <ele>6.87</ele>
        <time>2018-07-04T11:23:05Z</time>
      </trkpt>
      <trkpt lat="49.428693037480116" lon="-1.190054984763265">
        <ele>6.87</ele>
        <time>2018-07-04T11:23:06Z</time>
      </trkpt>
      <trkpt lat="49.428734024986625" lon="-1.190252965316176">
        <ele>6.39</ele>
        <time>2018-07-04T11:23:07Z</time>
      </trkpt>
      <trkpt lat="49.429193018004298" lon="-1.192510966211557">
        <ele>6.87</ele>
        <time>2018-07-04T11:23:17Z</time>
      </trkpt>
      <trkpt lat="49.429495017975569" lon="-1.193780992180109">
        <ele>7.35</ele>
        <time>2018-07-04T11:23:22Z</time>
      </trkpt>
      <trkpt lat="49.429584033787251" lon="-1.194004034623504">
        <ele>7.35</ele>
        <time>2018-07-04T11:23:23Z</time>
      </trkpt>
      <trkpt lat="49.429700039327145" lon="-1.194202015176415">
        <ele>7.35</ele>
        <time>2018-07-04T11:23:24Z</time>
      </trkpt>
      <trkpt lat="49.429825013503432" lon="-1.194387003779411">
        <ele>7.83</ele>
        <time>2018-07-04T11:23:25Z</time>
      </trkpt>
      <trkpt lat="49.429960967972875" lon="-1.19455598294735">
        <ele>7.83</ele>
        <time>2018-07-04T11:23:26Z</time>
      </trkpt>
      <trkpt lat="49.431743966415524" lon="-1.196777019649744">
        <ele>7.83</ele>
        <time>2018-07-04T11:23:38Z</time>
      </trkpt>
      <trkpt lat="49.432371016591787" lon="-1.197485039010644">
        <ele>7.35</ele>
        <time>2018-07-04T11:23:42Z</time>
      </trkpt>
      <trkpt lat="49.43254703655839" lon="-1.197615964338183">
        <ele>7.35</ele>
        <time>2018-07-04T11:23:43Z</time>
      </trkpt>
      <trkpt lat="49.433445995673537" lon="-1.198145030066371">
        <ele>7.35</ele>
        <time>2018-07-04T11:23:48Z</time>
      </trkpt>
      <trkpt lat="49.433605000376701" lon="-1.198311997577548">
        <ele>7.35</ele>
        <time>2018-07-04T11:23:49Z</time>
      </trkpt>
      <trkpt lat="49.433764005079865" lon="-1.198478965088725">
        <ele>7.35</ele>
        <time>2018-07-04T11:23:50Z</time>
      </trkpt>
      <trkpt lat="49.434952978044748" lon="-1.200414011254907">
        <ele>6.39</ele>
        <time>2018-07-04T11:23:59Z</time>
      </trkpt>
      <trkpt lat="49.435280961915851" lon="-1.201132005080581">
        <ele>6.87</ele>
        <time>2018-07-04T11:24:02Z</time>
      </trkpt>
      <trkpt lat="49.43540601991117" lon="-1.201354963704944">
        <ele>6.87</ele>
        <time>2018-07-04T11:24:03Z</time>
      </trkpt>
      <trkpt lat="49.435548009350896" lon="-1.201544981449843">
        <ele>6.87</ele>
        <time>2018-07-04T11:24:04Z</time>
      </trkpt>
      <trkpt lat="49.435702990740538" lon="-1.201718989759684">
        <ele>6.39</ele>
        <time>2018-07-04T11:24:05Z</time>
      </trkpt>
      <trkpt lat="49.435857972130179" lon="-1.201894003897905">
        <ele>6.39</ele>
        <time>2018-07-04T11:24:06Z</time>
      </trkpt>
      <trkpt lat="49.436299027875066" lon="-1.202389961108565">
        <ele>6.87</ele>
        <time>2018-07-04T11:24:09Z</time>
      </trkpt>
      <trkpt lat="49.436391983181238" lon="-1.202611997723579">
        <ele>6.87</ele>
        <time>2018-07-04T11:24:10Z</time>
      </trkpt>
      <trkpt lat="49.43648099899292" lon="-1.202838979661465">
        <ele>6.87</ele>
        <time>2018-07-04T11:24:11Z</time>
      </trkpt>
      <trkpt lat="49.436555011197925" lon="-1.203084988519549">
        <ele>6.87</ele>
        <time>2018-07-04T11:24:12Z</time>
      </trkpt>
      <trkpt lat="49.436625000089407" lon="-1.203339966014028">
        <ele>6.39</ele>
        <time>2018-07-04T11:24:13Z</time>
      </trkpt>
      <trkpt lat="49.436694988980889" lon="-1.203596033155918">
        <ele>6.87</ele>
        <time>2018-07-04T11:24:14Z</time>
      </trkpt>
      <trkpt lat="49.437008975073695" lon="-1.204606974497438">
        <ele>6.39</ele>
        <time>2018-07-04T11:24:18Z</time>
      </trkpt>
      <trkpt lat="49.437124980613589" lon="-1.204828005284071">
        <ele>6.39</ele>
        <time>2018-07-04T11:24:19Z</time>
      </trkpt>
      <trkpt lat="49.437851021066308" lon="-1.206140024587512">
        <ele>5.91</ele>
        <time>2018-07-04T11:24:25Z</time>
      </trkpt>
      <trkpt lat="49.437995022162795" lon="-1.206297017633915">
        <ele>5.91</ele>
        <time>2018-07-04T11:24:26Z</time>
      </trkpt>
      <trkpt lat="49.438139023259282" lon="-1.206453004851937">
        <ele>5.91</ele>
        <time>2018-07-04T11:24:27Z</time>
      </trkpt>
      <trkpt lat="49.43828796967864" lon="-1.206588037312031">
        <ele>5.91</ele>
        <time>2018-07-04T11:24:28Z</time>
      </trkpt>
      <trkpt lat="49.43845703266561" lon="-1.206671018153429">
        <ele>5.91</ele>
        <time>2018-07-04T11:24:29Z</time>
      </trkpt>
      <trkpt lat="49.4386319629848" lon="-1.206757016479969">
        <ele>5.91</ele>
        <time>2018-07-04T11:24:30Z</time>
      </trkpt>
      <trkpt lat="49.440554017201066" lon="-1.207689000293613">
        <ele>6.87</ele>
        <time>2018-07-04T11:24:41Z</time>
      </trkpt>
      <trkpt lat="49.441657997667789" lon="-1.208440018817782">
        <ele>7.83</ele>
        <time>2018-07-04T11:24:48Z</time>
      </trkpt>
      <trkpt lat="49.442704981192946" lon="-1.2092300131917">
        <ele>8.789999999999999</ele>
        <time>2018-07-04T11:24:56Z</time>
      </trkpt>
      <trkpt lat="49.443365978077054" lon="-1.20976896956563">
        <ele>8.789999999999999</ele>
        <time>2018-07-04T11:25:04Z</time>
      </trkpt>
      <trkpt lat="49.443405037745833" lon="-1.209804005920887">
        <ele>8.789999999999999</ele>
        <time>2018-07-04T11:25:05Z</time>
      </trkpt>
      <trkpt lat="49.443434039130807" lon="-1.209830995649099">
        <ele>8.789999999999999</ele>
        <time>2018-07-04T11:25:06Z</time>
      </trkpt>
      <trkpt lat="49.443455999717116" lon="-1.209850022569299">
        <ele>8.310000000000001</ele>
        <time>2018-07-04T11:25:07Z</time>
      </trkpt>
      <trkpt lat="49.443471003323793" lon="-1.209865026175976">
        <ele>8.310000000000001</ele>
        <time>2018-07-04T11:25:08Z</time>
      </trkpt>
      <trkpt lat="49.443609975278378" lon="-1.209516003727913">
        <ele>8.310000000000001</ele>
        <time>2018-07-04T11:25:16Z</time>
      </trkpt>
      <trkpt lat="49.443664038553834" lon="-1.209497982636094">
        <ele>7.83</ele>
        <time>2018-07-04T11:25:23Z</time>
      </trkpt>
      <trkpt lat="49.443675018846989" lon="-1.209526984021068">
        <ele>7.83</ele>
        <time>2018-07-04T11:25:40Z</time>
      </trkpt>
      <trkpt lat="49.443713994696736" lon="-1.209577023983002">
        <ele>10.23</ele>
        <time>2018-07-04T11:30:38Z</time>
      </trkpt>
      <trkpt lat="49.44368096999824" lon="-1.20955104008317">
        <ele>7.83</ele>
        <time>2018-07-04T11:31:23Z</time>
      </trkpt>
      <trkpt lat="49.443582985550165" lon="-1.210007015615702">
        <ele>6.87</ele>
        <time>2018-07-04T11:31:49Z</time>
      </trkpt>
      <trkpt lat="49.443691028282046" lon="-1.210147999227047">
        <ele>6.39</ele>
        <time>2018-07-04T11:31:50Z</time>
      </trkpt>
      <trkpt lat="49.443691028282046" lon="-1.210147999227047">
        <ele>3.98</ele>
        <time>2018-07-04T11:31:53Z</time>
      </trkpt>
      <trkpt lat="49.443697985261679" lon="-1.210168031975627">
        <ele>3.02</ele>
        <time>2018-07-04T11:31:54Z</time>
      </trkpt>
      <trkpt lat="49.443722041323781" lon="-1.210245983675122">
        <ele>2.06</ele>
        <time>2018-07-04T11:31:55Z</time>
      </trkpt>
      <trkpt lat="49.443847015500069" lon="-1.210769014433026">
        <ele>-0.34</ele>
        <time>2018-07-04T11:31:59Z</time>
      </trkpt>
      <trkpt lat="49.44385296665132" lon="-1.210941011086106">
        <ele>-0.82</ele>
        <time>2018-07-04T11:32:00Z</time>
      </trkpt>
      <trkpt lat="49.443859001621604" lon="-1.211130023002625">
        <ele>-0.82</ele>
        <time>2018-07-04T11:32:01Z</time>
      </trkpt>
      <trkpt lat="49.44385196082294" lon="-1.211331021040678">
        <ele>-0.82</ele>
        <time>2018-07-04T11:32:02Z</time>
      </trkpt>
      <trkpt lat="49.44382899440825" lon="-1.211527995765209">
        <ele>-0.34</ele>
        <time>2018-07-04T11:32:03Z</time>
      </trkpt>
      <trkpt lat="49.443805022165179" lon="-1.21172396466136">
        <ele>-0.34</ele>
        <time>2018-07-04T11:32:04Z</time>
      </trkpt>
      <trkpt lat="49.443808039650321" lon="-1.211900990456343">
        <ele>0.14</ele>
        <time>2018-07-04T11:32:05Z</time>
      </trkpt>
      <trkpt lat="49.443823965266347" lon="-1.212096037343144">
        <ele>0.14</ele>
        <time>2018-07-04T11:32:06Z</time>
      </trkpt>
      <trkpt lat="49.443841986358166" lon="-1.212315978482366">
        <ele>0.14</ele>
        <time>2018-07-04T11:32:07Z</time>
      </trkpt>
      <trkpt lat="49.443889008834958" lon="-1.212456962093711">
        <ele>0.62</ele>
        <time>2018-07-04T11:32:08Z</time>
      </trkpt>
      <trkpt lat="49.443948017433286" lon="-1.21260398067534">
        <ele>0.62</ele>
        <time>2018-07-04T11:32:09Z</time>
      </trkpt>
      <trkpt lat="49.444024041295052" lon="-1.212718980386853">
        <ele>0.62</ele>
        <time>2018-07-04T11:32:10Z</time>
      </trkpt>
      <trkpt lat="49.444102998822927" lon="-1.21279701590538">
        <ele>0.62</ele>
        <time>2018-07-04T11:32:11Z</time>
      </trkpt>
      <trkpt lat="49.44419302046299" lon="-1.212854012846947">
        <ele>0.14</ele>
        <time>2018-07-04T11:32:12Z</time>
      </trkpt>
      <trkpt lat="49.444297039881349" lon="-1.212879996746779">
        <ele>0.14</ele>
        <time>2018-07-04T11:32:13Z</time>
      </trkpt>
      <trkpt lat="49.44440801627934" lon="-1.212908998131752">
        <ele>0.14</ele>
        <time>2018-07-04T11:32:14Z</time>
      </trkpt>
      <trkpt lat="49.444529972970486" lon="-1.212940011173487">
        <ele>0.14</ele>
        <time>2018-07-04T11:32:15Z</time>
      </trkpt>
      <trkpt lat="49.444660982117057" lon="-1.212973035871983">
        <ele>0.14</ele>
        <time>2018-07-04T11:32:16Z</time>
      </trkpt>
      <trkpt lat="49.445852972567081" lon="-1.213387018069625">
        <ele>0.62</ele>
        <time>2018-07-04T11:32:24Z</time>
      </trkpt>
      <trkpt lat="49.447170021012425" lon="-1.214553024619818">
        <ele>1.1</ele>
        <time>2018-07-04T11:32:33Z</time>
      </trkpt>
      <trkpt lat="49.447670001536608" lon="-1.215131962671876">
        <ele>2.54</ele>
        <time>2018-07-04T11:32:37Z</time>
      </trkpt>
      <trkpt lat="49.449502034112811" lon="-1.216441970318556">
        <ele>5.91</ele>
        <time>2018-07-04T11:32:49Z</time>
      </trkpt>
      <trkpt lat="49.451374970376492" lon="-1.218034029006958">
        <ele>7.35</ele>
        <time>2018-07-04T11:33:01Z</time>
      </trkpt>
      <trkpt lat="49.452911037951708" lon="-1.219710996374488">
        <ele>7.35</ele>
        <time>2018-07-04T11:33:12Z</time>
      </trkpt>
      <trkpt lat="49.453127961605787" lon="-1.219942001625896">
        <ele>7.35</ele>
        <time>2018-07-04T11:33:17Z</time>
      </trkpt>
      <trkpt lat="49.453212032094598" lon="-1.220031017437577">
        <ele>7.35</ele>
        <time>2018-07-04T11:33:31Z</time>
      </trkpt>
      <trkpt lat="49.453228041529655" lon="-1.220048032701016">
        <ele>7.35</ele>
        <time>2018-07-04T11:33:34Z</time>
      </trkpt>
      <trkpt lat="49.453258970752358" lon="-1.22008097358048">
        <ele>7.35</ele>
        <time>2018-07-04T11:33:43Z</time>
      </trkpt>
      <trkpt lat="49.453270034864545" lon="-1.220092959702015">
        <ele>6.87</ele>
        <time>2018-07-04T11:33:44Z</time>
      </trkpt>
      <trkpt lat="49.453285038471222" lon="-1.220108969137073">
        <ele>6.87</ele>
        <time>2018-07-04T11:33:45Z</time>
      </trkpt>
      <trkpt lat="49.453532975167036" lon="-1.220393031835556">
        <ele>6.39</ele>
        <time>2018-07-04T11:33:54Z</time>
      </trkpt>
      <trkpt lat="49.45420796982944" lon="-1.221161987632513">
        <ele>6.39</ele>
        <time>2018-07-04T11:34:01Z</time>
      </trkpt>
      <trkpt lat="49.455376993864775" lon="-1.222605016082525">
        <ele>6.87</ele>
        <time>2018-07-04T11:34:10Z</time>
      </trkpt>
      <trkpt lat="49.457639018073678" lon="-1.225212961435318">
        <ele>6.87</ele>
        <time>2018-07-04T11:34:26Z</time>
      </trkpt>
      <trkpt lat="49.460336985066533" lon="-1.228083008900285">
        <ele>7.35</ele>
        <time>2018-07-04T11:34:45Z</time>
      </trkpt>
      <trkpt lat="49.462221991270781" lon="-1.230211006477475">
        <ele>7.35</ele>
        <time>2018-07-04T11:34:59Z</time>
      </trkpt>
      <trkpt lat="49.463245002552867" lon="-1.231385981664062">
        <ele>6.39</ele>
        <time>2018-07-04T11:35:08Z</time>
      </trkpt>
      <trkpt lat="49.465026995167136" lon="-1.233403002843261">
        <ele>6.87</ele>
        <time>2018-07-04T11:35:22Z</time>
      </trkpt>
      <trkpt lat="49.466608995571733" lon="-1.235149037092924">
        <ele>6.87</ele>
        <time>2018-07-04T11:35:35Z</time>
      </trkpt>
      <trkpt lat="49.468216979876161" lon="-1.236918037757278">
        <ele>7.35</ele>
        <time>2018-07-04T11:35:48Z</time>
      </trkpt>
      <trkpt lat="49.470137022435665" lon="-1.23902902007103">
        <ele>7.35</ele>
        <time>2018-07-04T11:36:03Z</time>
      </trkpt>
      <trkpt lat="49.471624977886677" lon="-1.240720991045237">
        <ele>8.310000000000001</ele>
        <time>2018-07-04T11:36:16Z</time>
      </trkpt>
      <trkpt lat="49.471852965652943" lon="-1.241079987958074">
        <ele>8.310000000000001</ele>
        <time>2018-07-04T11:36:19Z</time>
      </trkpt>
      <trkpt lat="49.471914991736412" lon="-1.24122298322618">
        <ele>7.83</ele>
        <time>2018-07-04T11:36:20Z</time>
      </trkpt>
      <trkpt lat="49.471965031698346" lon="-1.241377964615822">
        <ele>7.83</ele>
        <time>2018-07-04T11:36:21Z</time>
      </trkpt>
      <trkpt lat="49.472014987841249" lon="-1.241536969318986">
        <ele>7.83</ele>
        <time>2018-07-04T11:36:22Z</time>
      </trkpt>
      <trkpt lat="49.472057987004519" lon="-1.241691028699279">
        <ele>7.83</ele>
        <time>2018-07-04T11:36:23Z</time>
      </trkpt>
      <trkpt lat="49.472273988649249" lon="-1.243390962481499">
        <ele>6.87</ele>
        <time>2018-07-04T11:36:33Z</time>
      </trkpt>
      <trkpt lat="49.47255402803421" lon="-1.244881013408303">
        <ele>7.35</ele>
        <time>2018-07-04T11:36:43Z</time>
      </trkpt>
      <trkpt lat="49.472572971135378" lon="-1.244983021169901">
        <ele>7.35</ele>
        <time>2018-07-04T11:36:44Z</time>
      </trkpt>
      <trkpt lat="49.472638014703989" lon="-1.245339000597596">
        <ele>5.91</ele>
        <time>2018-07-04T11:36:49Z</time>
      </trkpt>
      <trkpt lat="49.472628962248564" lon="-1.245359033346176">
        <ele>5.91</ele>
        <time>2018-07-04T11:36:50Z</time>
      </trkpt>
      <trkpt lat="49.472552016377449" lon="-1.245529018342495">
        <ele>5.42</ele>
        <time>2018-07-04T11:36:52Z</time>
      </trkpt>
      <trkpt lat="49.472046000882983" lon="-1.246643979102373">
        <ele>3.5</ele>
        <time>2018-07-04T11:37:00Z</time>
      </trkpt>
      <trkpt lat="49.471049979329109" lon="-1.248803995549679">
        <ele>3.5</ele>
        <time>2018-07-04T11:37:13Z</time>
      </trkpt>
      <trkpt lat="49.470374984666705" lon="-1.250221040099859">
        <ele>4.46</ele>
        <time>2018-07-04T11:37:21Z</time>
      </trkpt>
      <trkpt lat="49.469320038333535" lon="-1.25252396799624">
        <ele>5.42</ele>
        <time>2018-07-04T11:37:30Z</time>
      </trkpt>
      <trkpt lat="49.46834497153759" lon="-1.254622964188457">
        <ele>5.91</ele>
        <time>2018-07-04T11:37:38Z</time>
      </trkpt>
      <trkpt lat="49.468237012624741" lon="-1.254804013296962">
        <ele>5.91</ele>
        <time>2018-07-04T11:37:39Z</time>
      </trkpt>
      <trkpt lat="49.468112038448453" lon="-1.254920018836856">
        <ele>6.39</ele>
        <time>2018-07-04T11:37:40Z</time>
      </trkpt>
      <trkpt lat="49.46797801181674" lon="-1.25499302521348">
        <ele>6.87</ele>
        <time>2018-07-04T11:37:41Z</time>
      </trkpt>
      <trkpt lat="49.467838034033775" lon="-1.255068965256214">
        <ele>6.87</ele>
        <time>2018-07-04T11:37:42Z</time>
      </trkpt>
      <trkpt lat="49.467697972431779" lon="-1.255145994946361">
        <ele>7.35</ele>
        <time>2018-07-04T11:37:43Z</time>
      </trkpt>
      <trkpt lat="49.467550031840801" lon="-1.255225958302617">
        <ele>7.35</ele>
        <time>2018-07-04T11:37:44Z</time>
      </trkpt>
      <trkpt lat="49.467407036572695" lon="-1.255315979942679">
        <ele>7.35</ele>
        <time>2018-07-04T11:37:45Z</time>
      </trkpt>
      <trkpt lat="49.467274015769362" lon="-1.255484959110618">
        <ele>7.35</ele>
        <time>2018-07-04T11:37:46Z</time>
      </trkpt>
      <trkpt lat="49.46714099496603" lon="-1.255674976855516">
        <ele>7.35</ele>
        <time>2018-07-04T11:37:47Z</time>
      </trkpt>
      <trkpt lat="49.467016020789742" lon="-1.255893995985389">
        <ele>7.35</ele>
        <time>2018-07-04T11:37:48Z</time>
      </trkpt>
      <trkpt lat="49.466769006103277" lon="-1.256293980404735">
        <ele>7.35</ele>
        <time>2018-07-04T11:37:50Z</time>
      </trkpt>
      <trkpt lat="49.466631039977074" lon="-1.256466982886195">
        <ele>7.35</ele>
        <time>2018-07-04T11:37:51Z</time>
      </trkpt>
      <trkpt lat="49.4664759747684" lon="-1.256598997861147">
        <ele>7.35</ele>
        <time>2018-07-04T11:37:52Z</time>
      </trkpt>
      <trkpt lat="49.466305989772081" lon="-1.256699999794364">
        <ele>6.87</ele>
        <time>2018-07-04T11:37:53Z</time>
      </trkpt>
      <trkpt lat="49.466125024482608" lon="-1.256765965372324">
        <ele>6.87</ele>
        <time>2018-07-04T11:37:54Z</time>
      </trkpt>
      <trkpt lat="49.465940035879612" lon="-1.256832014769316">
        <ele>7.35</ele>
        <time>2018-07-04T11:37:55Z</time>
      </trkpt>
      <trkpt lat="49.465423040091991" lon="-1.257058996707201">
        <ele>7.35</ele>
        <time>2018-07-04T11:37:58Z</time>
      </trkpt>
      <trkpt lat="49.465278033167124" lon="-1.257140971720219">
        <ele>6.87</ele>
        <time>2018-07-04T11:37:59Z</time>
      </trkpt>
      <trkpt lat="49.465140989050269" lon="-1.257310034707189">
        <ele>6.87</ele>
        <time>2018-07-04T11:38:00Z</time>
      </trkpt>
      <trkpt lat="49.465008974075317" lon="-1.257472978904843">
        <ele>6.39</ele>
        <time>2018-07-04T11:38:01Z</time>
      </trkpt>
      <trkpt lat="49.46488500572741" lon="-1.257644975557923">
        <ele>6.39</ele>
        <time>2018-07-04T11:38:02Z</time>
      </trkpt>
      <trkpt lat="49.46477796882391" lon="-1.257855026051402">
        <ele>5.91</ele>
        <time>2018-07-04T11:38:03Z</time>
      </trkpt>
      <trkpt lat="49.464667998254299" lon="-1.258069016039372">
        <ele>5.91</ele>
        <time>2018-07-04T11:38:04Z</time>
      </trkpt>
      <trkpt lat="49.46443397551775" lon="-1.258490039035678">
        <ele>5.42</ele>
        <time>2018-07-04T11:38:06Z</time>
      </trkpt>
      <trkpt lat="49.464295003563166" lon="-1.258661029860377">
        <ele>5.42</ele>
        <time>2018-07-04T11:38:07Z</time>
      </trkpt>
      <trkpt lat="49.464144967496395" lon="-1.258819028735161">
        <ele>5.42</ele>
        <time>2018-07-04T11:38:08Z</time>
      </trkpt>
      <trkpt lat="49.463975988328457" lon="-1.258950959891081">
        <ele>5.42</ele>
        <time>2018-07-04T11:38:09Z</time>
      </trkpt>
      <trkpt lat="49.463794017210603" lon="-1.259039975702763">
        <ele>5.42</ele>
        <time>2018-07-04T11:38:10Z</time>
      </trkpt>
      <trkpt lat="49.463605005294085" lon="-1.259094038978219">
        <ele>5.91</ele>
        <time>2018-07-04T11:38:11Z</time>
      </trkpt>
      <trkpt lat="49.463424040004611" lon="-1.259147012606263">
        <ele>5.91</ele>
        <time>2018-07-04T11:38:12Z</time>
      </trkpt>
      <trkpt lat="49.46325296536088" lon="-1.259195962920785">
        <ele>5.42</ele>
        <time>2018-07-04T11:38:13Z</time>
      </trkpt>
      <trkpt lat="49.463096978142858" lon="-1.259307023137808">
        <ele>5.42</ele>
        <time>2018-07-04T11:38:14Z</time>
      </trkpt>
      <trkpt lat="49.462945014238358" lon="-1.259435014799237">
        <ele>5.42</ele>
        <time>2018-07-04T11:38:15Z</time>
      </trkpt>
      <trkpt lat="49.46280000731349" lon="-1.259595025330782">
        <ele>4.94</ele>
        <time>2018-07-04T11:38:16Z</time>
      </trkpt>
      <trkpt lat="49.462652988731861" lon="-1.259756963700056">
        <ele>4.94</ele>
        <time>2018-07-04T11:38:17Z</time>
      </trkpt>
      <trkpt lat="49.461599970236421" lon="-1.261065965518355">
        <ele>5.42</ele>
        <time>2018-07-04T11:38:25Z</time>
      </trkpt>
      <trkpt lat="49.461474996060133" lon="-1.261180965229869">
        <ele>5.42</ele>
        <time>2018-07-04T11:38:26Z</time>
      </trkpt>
      <trkpt lat="49.461350021883845" lon="-1.261279033496976">
        <ele>5.42</ele>
        <time>2018-07-04T11:38:27Z</time>
      </trkpt>
      <trkpt lat="49.46121197193861" lon="-1.261346004903317">
        <ele>5.42</ele>
        <time>2018-07-04T11:38:28Z</time>
      </trkpt>
      <trkpt lat="49.461066965013742" lon="-1.261346004903317">
        <ele>5.42</ele>
        <time>2018-07-04T11:38:29Z</time>
      </trkpt>
      <trkpt lat="49.460911983624101" lon="-1.261346004903317">
        <ele>5.91</ele>
        <time>2018-07-04T11:38:30Z</time>
      </trkpt>
      <trkpt lat="49.460750967264175" lon="-1.261346004903317">
        <ele>5.91</ele>
        <time>2018-07-04T11:38:31Z</time>
      </trkpt>
      <trkpt lat="49.460590034723282" lon="-1.261346004903317">
        <ele>5.91</ele>
        <time>2018-07-04T11:38:32Z</time>
      </trkpt>
      <trkpt lat="49.460431030020118" lon="-1.261364025995135">
        <ele>6.39</ele>
        <time>2018-07-04T11:38:33Z</time>
      </trkpt>
      <trkpt lat="49.460272025316954" lon="-1.261433009058237">
        <ele>6.39</ele>
        <time>2018-07-04T11:38:34Z</time>
      </trkpt>
      <trkpt lat="49.460111008957028" lon="-1.2615040037781">
        <ele>6.39</ele>
        <time>2018-07-04T11:38:35Z</time>
      </trkpt>
      <trkpt lat="49.459947980940342" lon="-1.261574998497963">
        <ele>5.91</ele>
        <time>2018-07-04T11:38:36Z</time>
      </trkpt>
      <trkpt lat="49.45964396931231" lon="-1.261764010414481">
        <ele>6.39</ele>
        <time>2018-07-04T11:38:38Z</time>
      </trkpt>
      <trkpt lat="49.459501979872584" lon="-1.261894013732672">
        <ele>6.39</ele>
        <time>2018-07-04T11:38:39Z</time>
      </trkpt>
      <trkpt lat="49.459373988211155" lon="-1.262058969587088">
        <ele>6.39</ele>
        <time>2018-07-04T11:38:40Z</time>
      </trkpt>
      <trkpt lat="49.459245996549726" lon="-1.262221997603774">
        <ele>6.39</ele>
        <time>2018-07-04T11:38:41Z</time>
      </trkpt>
      <trkpt lat="49.459132002666593" lon="-1.262414027005434">
        <ele>6.39</ele>
        <time>2018-07-04T11:38:42Z</time>
      </trkpt>
      <trkpt lat="49.458449967205524" lon="-1.263616997748613">
        <ele>5.91</ele>
        <time>2018-07-04T11:38:48Z</time>
      </trkpt>
      <trkpt lat="49.45837402716279" lon="-1.263848003000021">
        <ele>5.91</ele>
        <time>2018-07-04T11:38:49Z</time>
      </trkpt>
      <trkpt lat="49.458320969715714" lon="-1.26408202573657">
        <ele>6.39</ele>
        <time>2018-07-04T11:38:50Z</time>
      </trkpt>
      <trkpt lat="49.458265984430909" lon="-1.264320993795991">
        <ele>6.39</ele>
        <time>2018-07-04T11:38:51Z</time>
      </trkpt>
      <trkpt lat="49.458229020237923" lon="-1.264573959633708">
        <ele>6.39</ele>
        <time>2018-07-04T11:38:52Z</time>
      </trkpt>
      <trkpt lat="49.458209993317723" lon="-1.26483597792685">
        <ele>6.39</ele>
        <time>2018-07-04T11:38:53Z</time>
      </trkpt>
      <trkpt lat="49.458189960569143" lon="-1.265104031190276">
        <ele>6.39</ele>
        <time>2018-07-04T11:38:54Z</time>
      </trkpt>
      <trkpt lat="49.458045959472656" lon="-1.266907984390855">
        <ele>7.83</ele>
        <time>2018-07-04T11:39:02Z</time>
      </trkpt>
      <trkpt lat="49.45777497254312" lon="-1.268405998125672">
        <ele>8.310000000000001</ele>
        <time>2018-07-04T11:39:11Z</time>
      </trkpt>
      <trkpt lat="49.457263005897403" lon="-1.269977018237114">
        <ele>8.310000000000001</ele>
        <time>2018-07-04T11:39:22Z</time>
      </trkpt>
      <trkpt lat="49.457054967060685" lon="-1.270342972129583">
        <ele>8.789999999999999</ele>
        <time>2018-07-04T11:39:26Z</time>
      </trkpt>
      <trkpt lat="49.457012973725796" lon="-1.270417990162969">
        <ele>8.789999999999999</ele>
        <time>2018-07-04T11:39:27Z</time>
      </trkpt>
      <trkpt lat="49.456976009532809" lon="-1.27048303373158">
        <ele>8.789999999999999</ele>
        <time>2018-07-04T11:39:28Z</time>
      </trkpt>
      <trkpt lat="49.456948013976216" lon="-1.270530978217721">
        <ele>9.27</ele>
        <time>2018-07-04T11:39:29Z</time>
      </trkpt>
      <trkpt lat="49.456929992884398" lon="-1.270562997087836">
        <ele>9.27</ele>
        <time>2018-07-04T11:39:30Z</time>
      </trkpt>
      <trkpt lat="49.456918006762862" lon="-1.270585041493177">
        <ele>9.75</ele>
        <time>2018-07-04T11:39:31Z</time>
      </trkpt>
      <trkpt lat="49.4569350220263" lon="-1.270669028162956">
        <ele>10.23</ele>
        <time>2018-07-04T11:39:32Z</time>
      </trkpt>
      <trkpt lat="49.456965029239655" lon="-1.270688977092505">
        <ele>10.710000000000001</ele>
        <time>2018-07-04T11:39:33Z</time>
      </trkpt>
      <trkpt lat="49.457004005089402" lon="-1.270714960992336">
        <ele>11.19</ele>
        <time>2018-07-04T11:39:34Z</time>
      </trkpt>
      <trkpt lat="49.457053961232305" lon="-1.270747985690832">
        <ele>11.19</ele>
        <time>2018-07-04T11:39:35Z</time>
      </trkpt>
      <trkpt lat="49.457690985873342" lon="-1.271342011168599">
        <ele>14.56</ele>
        <time>2018-07-04T11:39:43Z</time>
      </trkpt>
      <trkpt lat="49.458506964147091" lon="-1.272263014689088">
        <ele>18.399999999999999</ele>
        <time>2018-07-04T11:39:50Z</time>
      </trkpt>
      <trkpt lat="49.459283966571093" lon="-1.273122997954488">
        <ele>18.399999999999999</ele>
        <time>2018-07-04T11:39:55Z</time>
      </trkpt>
      <trkpt lat="49.45942796766758" lon="-1.273354003205895">
        <ele>18.399999999999999</ele>
        <time>2018-07-04T11:39:56Z</time>
      </trkpt>
      <trkpt lat="49.460676033049822" lon="-1.275089979171753">
        <ele>19.359999999999999</ele>
        <time>2018-07-04T11:40:04Z</time>
      </trkpt>
      <trkpt lat="49.461737014353275" lon="-1.276792008429766">
        <ele>19.359999999999999</ele>
        <time>2018-07-04T11:40:12Z</time>
      </trkpt>
      <trkpt lat="49.462201958522201" lon="-1.277688033878803">
        <ele>17.920000000000002</ele>
        <time>2018-07-04T11:40:16Z</time>
      </trkpt>
      <trkpt lat="49.462288962677121" lon="-1.27792096696794">
        <ele>17.440000000000001</ele>
        <time>2018-07-04T11:40:17Z</time>
      </trkpt>
      <trkpt lat="49.462460959330201" lon="-1.278380965813994">
        <ele>16.48</ele>
        <time>2018-07-04T11:40:19Z</time>
      </trkpt>
      <trkpt lat="49.462566990405321" lon="-1.278589004650712">
        <ele>16.48</ele>
        <time>2018-07-04T11:40:20Z</time>
      </trkpt>
      <trkpt lat="49.462704034522176" lon="-1.278771981596947">
        <ele>16</ele>
        <time>2018-07-04T11:40:21Z</time>
      </trkpt>
      <trkpt lat="49.462990025058389" lon="-1.279166014865041">
        <ele>15.039999999999999</ele>
        <time>2018-07-04T11:40:25Z</time>
      </trkpt>
      <trkpt lat="49.463996021077037" lon="-1.28109896555543">
        <ele>14.56</ele>
        <time>2018-07-04T11:40:31Z</time>
      </trkpt>
      <trkpt lat="49.46413398720324" lon="-1.281288983300328">
        <ele>14.56</ele>
        <time>2018-07-04T11:40:32Z</time>
      </trkpt>
      <trkpt lat="49.464286034926772" lon="-1.28146399743855">
        <ele>14.08</ele>
        <time>2018-07-04T11:40:33Z</time>
      </trkpt>
      <trkpt lat="49.464591974392533" lon="-1.281816037371755">
        <ele>14.08</ele>
        <time>2018-07-04T11:40:35Z</time>
      </trkpt>
      <trkpt lat="49.464744022116065" lon="-1.281992979347706">
        <ele>14.08</ele>
        <time>2018-07-04T11:40:36Z</time>
      </trkpt>
      <trkpt lat="49.465984962880611" lon="-1.283746976405382">
        <ele>14.56</ele>
        <time>2018-07-04T11:40:45Z</time>
      </trkpt>
      <trkpt lat="49.466136004775763" lon="-1.283898018300533">
        <ele>14.56</ele>
        <time>2018-07-04T11:40:46Z</time>
      </trkpt>
      <trkpt lat="49.466931028291583" lon="-1.284519033506513">
        <ele>12.630000000000001</ele>
        <time>2018-07-04T11:40:51Z</time>
      </trkpt>
      <trkpt lat="49.46709698997438" lon="-1.284648030996323">
        <ele>12.630000000000001</ele>
        <time>2018-07-04T11:40:52Z</time>
      </trkpt>
      <trkpt lat="49.467264963313937" lon="-1.284778034314513">
        <ele>12.630000000000001</ele>
        <time>2018-07-04T11:40:53Z</time>
      </trkpt>
      <trkpt lat="49.467432014644146" lon="-1.284907031804323">
        <ele>13.119999999999999</ele>
        <time>2018-07-04T11:40:54Z</time>
      </trkpt>
      <trkpt lat="49.467601999640465" lon="-1.285038962960243">
        <ele>13.119999999999999</ele>
        <time>2018-07-04T11:40:55Z</time>
      </trkpt>
      <trkpt lat="49.469106970354915" lon="-1.286447960883379">
        <ele>16.48</ele>
        <time>2018-07-04T11:41:04Z</time>
      </trkpt>
      <trkpt lat="49.470801036804914" lon="-1.287876991555095">
        <ele>21.289999999999999</ele>
        <time>2018-07-04T11:41:14Z</time>
      </trkpt>
      <trkpt lat="49.471256006509066" lon="-1.288273958489299">
        <ele>22.25</ele>
        <time>2018-07-04T11:41:17Z</time>
      </trkpt>
      <trkpt lat="49.471421968191862" lon="-1.288376972079277">
        <ele>22.25</ele>
        <time>2018-07-04T11:41:18Z</time>
      </trkpt>
      <trkpt lat="49.471922032535076" lon="-1.288686012849212">
        <ele>22.25</ele>
        <time>2018-07-04T11:41:21Z</time>
      </trkpt>
      <trkpt lat="49.472601972520351" lon="-1.289239972829819">
        <ele>22.25</ele>
        <time>2018-07-04T11:41:26Z</time>
      </trkpt>
      <trkpt lat="49.472701968625188" lon="-1.289326976984739">
        <ele>22.25</ele>
        <time>2018-07-04T11:41:27Z</time>
      </trkpt>
      <trkpt lat="49.472763994708657" lon="-1.289439965039492">
        <ele>22.73</ele>
        <time>2018-07-04T11:41:28Z</time>
      </trkpt>
      <trkpt lat="49.472823003306985" lon="-1.289549013599753">
        <ele>22.73</ele>
        <time>2018-07-04T11:41:29Z</time>
      </trkpt>
      <trkpt lat="49.472872959449887" lon="-1.289667030796409">
        <ele>22.73</ele>
        <time>2018-07-04T11:41:30Z</time>
      </trkpt>
      <trkpt lat="49.473402025178075" lon="-1.290891040116549">
        <ele>24.170000000000002</ele>
        <time>2018-07-04T11:41:38Z</time>
      </trkpt>
      <trkpt lat="49.47382103651762" lon="-1.29175303503871">
        <ele>27.050000000000001</ele>
        <time>2018-07-04T11:41:44Z</time>
      </trkpt>
      <trkpt lat="49.473904017359018" lon="-1.291873985901475">
        <ele>27.530000000000001</ele>
        <time>2018-07-04T11:41:45Z</time>
      </trkpt>
      <trkpt lat="49.473991021513939" lon="-1.291985968127847">
        <ele>28.02</ele>
        <time>2018-07-04T11:41:46Z</time>
      </trkpt>
      <trkpt lat="49.474093029275537" lon="-1.292073978111148">
        <ele>28.5</ele>
        <time>2018-07-04T11:41:47Z</time>
      </trkpt>
      <trkpt lat="49.474200988188386" lon="-1.292167017236352">
        <ele>28.5</ele>
        <time>2018-07-04T11:41:48Z</time>
      </trkpt>
      <trkpt lat="49.474933985620737" lon="-1.292846035212278">
        <ele>30.420000000000002</ele>
        <time>2018-07-04T11:41:54Z</time>
      </trkpt>
      <trkpt lat="49.475019983947277" lon="-1.293005039915443">
        <ele>30.899999999999999</ele>
        <time>2018-07-04T11:41:55Z</time>
      </trkpt>
      <trkpt lat="49.475101958960295" lon="-1.293178964406252">
        <ele>30.899999999999999</ele>
        <time>2018-07-04T11:41:56Z</time>
      </trkpt>
      <trkpt lat="49.475163985043764" lon="-1.293383985757828">
        <ele>31.379999999999999</ele>
        <time>2018-07-04T11:41:57Z</time>
      </trkpt>
      <trkpt lat="49.475217964500189" lon="-1.293607028201222">
        <ele>31.859999999999999</ele>
        <time>2018-07-04T11:41:58Z</time>
      </trkpt>
      <trkpt lat="49.475274039432406" lon="-1.29383996129036">
        <ele>31.859999999999999</ele>
        <time>2018-07-04T11:41:59Z</time>
      </trkpt>
      <trkpt lat="49.475861024111509" lon="-1.295982962474227">
        <ele>34.259999999999998</ele>
        <time>2018-07-04T11:42:07Z</time>
      </trkpt>
      <trkpt lat="49.476453959941864" lon="-1.297602010890842">
        <ele>32.340000000000003</ele>
        <time>2018-07-04T11:42:14Z</time>
      </trkpt>
      <trkpt lat="49.476868025958538" lon="-1.298730969429016">
        <ele>29.940000000000001</ele>
        <time>2018-07-04T11:42:22Z</time>
      </trkpt>
      <trkpt lat="49.476913958787918" lon="-1.298857033252716">
        <ele>29.460000000000001</ele>
        <time>2018-07-04T11:42:29Z</time>
      </trkpt>
      <trkpt lat="49.477044967934489" lon="-1.298856027424336">
        <ele>29.460000000000001</ele>
        <time>2018-07-04T11:42:37Z</time>
      </trkpt>
      <trkpt lat="49.477098025381565" lon="-1.298835994675756">
        <ele>29.460000000000001</ele>
        <time>2018-07-04T11:42:38Z</time>
      </trkpt>
      <trkpt lat="49.477416034787893" lon="-1.298709008842707">
        <ele>29.460000000000001</ele>
        <time>2018-07-04T11:42:42Z</time>
      </trkpt>
      <trkpt lat="49.47749599814415" lon="-1.298616975545883">
        <ele>29.460000000000001</ele>
        <time>2018-07-04T11:42:43Z</time>
      </trkpt>
      <trkpt lat="49.477575039491057" lon="-1.298503987491131">
        <ele>29.940000000000001</ele>
        <time>2018-07-04T11:42:44Z</time>
      </trkpt>
      <trkpt lat="49.477637987583876" lon="-1.298364009708166">
        <ele>29.940000000000001</ele>
        <time>2018-07-04T11:42:45Z</time>
      </trkpt>
      <trkpt lat="49.477704036980867" lon="-1.29822101444006">
        <ele>29.940000000000001</ele>
        <time>2018-07-04T11:42:46Z</time>
      </trkpt>
      <trkpt lat="49.478202005848289" lon="-1.297129020094872">
        <ele>29.940000000000001</ele>
        <time>2018-07-04T11:42:55Z</time>
      </trkpt>
      <trkpt lat="49.478708021342754" lon="-1.296278005465865">
        <ele>29.940000000000001</ele>
        <time>2018-07-04T11:43:06Z</time>
      </trkpt>
      <trkpt lat="49.478895021602511" lon="-1.296057980507612">
        <ele>29.940000000000001</ele>
        <time>2018-07-04T11:43:10Z</time>
      </trkpt>
      <trkpt lat="49.478937014937401" lon="-1.295997966080904">
        <ele>29.940000000000001</ele>
        <time>2018-07-04T11:43:11Z</time>
      </trkpt>
      <trkpt lat="49.479111023247242" lon="-1.295668976381421">
        <ele>29.460000000000001</ele>
        <time>2018-07-04T11:43:20Z</time>
      </trkpt>
      <trkpt lat="49.479125021025538" lon="-1.295642992481589">
        <ele>29.460000000000001</ele>
        <time>2018-07-04T11:43:25Z</time>
      </trkpt>
      <trkpt lat="49.479132983833551" lon="-1.295627988874912">
        <ele>29.460000000000001</ele>
        <time>2018-07-04T11:43:26Z</time>
      </trkpt>
      <trkpt lat="49.479039022698998" lon="-1.295478036627173">
        <ele>29.940000000000001</ele>
        <time>2018-07-04T11:43:35Z</time>
      </trkpt>
      <trkpt lat="49.478939026594162" lon="-1.295418022200465">
        <ele>30.420000000000002</ele>
        <time>2018-07-04T11:43:49Z</time>
      </trkpt>
      <trkpt lat="49.479027958586812" lon="-1.295171007514">
        <ele>30.899999999999999</ele>
        <time>2018-07-04T11:44:00Z</time>
      </trkpt>
      <trkpt lat="49.479061989113688" lon="-1.295194979757071">
        <ele>31.379999999999999</ele>
        <time>2018-07-04T11:44:15Z</time>
      </trkpt>
      <trkpt lat="49.479062994942069" lon="-1.295194979757071">
        <ele>31.379999999999999</ele>
        <time>2018-07-04T11:44:51Z</time>
      </trkpt>
      <trkpt lat="49.479062994942069" lon="-1.295194979757071">
        <ele>31.379999999999999</ele>
        <time>2018-07-04T11:45:06Z</time>
      </trkpt>
      <trkpt lat="49.479229040443897" lon="-1.295446017757058">
        <ele>30.899999999999999</ele>
        <time>2018-07-04T11:45:09Z</time>
      </trkpt>
      <trkpt lat="49.47921403683722" lon="-1.295475019142032">
        <ele>30.899999999999999</ele>
        <time>2018-07-04T11:45:10Z</time>
      </trkpt>
      <trkpt lat="49.479197021573782" lon="-1.295507038012147">
        <ele>30.420000000000002</ele>
        <time>2018-07-04T11:45:11Z</time>
      </trkpt>
      <trkpt lat="49.479159973561764" lon="-1.295577026903629">
        <ele>30.420000000000002</ele>
        <time>2018-07-04T11:45:14Z</time>
      </trkpt>
      <trkpt lat="49.479156034067273" lon="-1.295584989711642">
        <ele>28.5</ele>
        <time>2018-07-04T11:45:21Z</time>
      </trkpt>
      <trkpt lat="49.47917103767395" lon="-1.295555988326669">
        <ele>28.02</ele>
        <time>2018-07-04T11:45:22Z</time>
      </trkpt>
      <trkpt lat="49.47919400408864" lon="-1.295512989163399">
        <ele>27.530000000000001</ele>
        <time>2018-07-04T11:45:23Z</time>
      </trkpt>
      <trkpt lat="49.479217976331711" lon="-1.295466972514987">
        <ele>27.050000000000001</ele>
        <time>2018-07-04T11:45:24Z</time>
      </trkpt>
      <trkpt lat="49.479241026565433" lon="-1.295423973351717">
        <ele>26.57</ele>
        <time>2018-07-04T11:45:25Z</time>
      </trkpt>
      <trkpt lat="49.479261981323361" lon="-1.295382985845208">
        <ele>26.09</ele>
        <time>2018-07-04T11:45:26Z</time>
      </trkpt>
      <trkpt lat="49.479479994624853" lon="-1.294937990605831">
        <ele>24.170000000000002</ele>
        <time>2018-07-04T11:45:35Z</time>
      </trkpt>
      <trkpt lat="49.479916021227837" lon="-1.293934006243944">
        <ele>18.879999999999999</ele>
        <time>2018-07-04T11:45:42Z</time>
      </trkpt>
      <trkpt lat="49.480562014505267" lon="-1.292240023612976">
        <ele>8.310000000000001</ele>
        <time>2018-07-04T11:45:51Z</time>
      </trkpt>
      <trkpt lat="49.480835013091564" lon="-1.291457992047072">
        <ele>5.91</ele>
        <time>2018-07-04T11:45:56Z</time>
      </trkpt>
      <trkpt lat="49.481588965281844" lon="-1.28988403826952">
        <ele>6.39</ele>
        <time>2018-07-04T11:46:06Z</time>
      </trkpt>
      <trkpt lat="49.482507035136223" lon="-1.288369009271264">
        <ele>6.39</ele>
        <time>2018-07-04T11:46:14Z</time>
      </trkpt>
      <trkpt lat="49.48385501280427" lon="-1.286294991150498">
        <ele>5.91</ele>
        <time>2018-07-04T11:46:24Z</time>
      </trkpt>
      <trkpt lat="49.4843939691782" lon="-1.285256976261735">
        <ele>3.98</ele>
        <time>2018-07-04T11:46:29Z</time>
      </trkpt>
      <trkpt lat="49.484473010525107" lon="-1.285020019859076">
        <ele>3.5</ele>
        <time>2018-07-04T11:46:30Z</time>
      </trkpt>
      <trkpt lat="49.485270967707038" lon="-1.283143982291222">
        <ele>3.02</ele>
        <time>2018-07-04T11:46:38Z</time>
      </trkpt>
      <trkpt lat="49.486037995666265" lon="-1.281329970806837">
        <ele>3.5</ele>
        <time>2018-07-04T11:46:46Z</time>
      </trkpt>
      <trkpt lat="49.48684198781848" lon="-1.278580036014319">
        <ele>4.94</ele>
        <time>2018-07-04T11:46:56Z</time>
      </trkpt>
      <trkpt lat="49.487372981384397" lon="-1.276701986789703">
        <ele>4.94</ele>
        <time>2018-07-04T11:47:03Z</time>
      </trkpt>
      <trkpt lat="49.487660983577371" lon="-1.275098025798798">
        <ele>5.42</ele>
        <time>2018-07-04T11:47:09Z</time>
      </trkpt>
      <trkpt lat="49.487727032974362" lon="-1.274881018325687">
        <ele>5.42</ele>
        <time>2018-07-04T11:47:10Z</time>
      </trkpt>
      <trkpt lat="49.487834991887212" lon="-1.274683037772775">
        <ele>5.42</ele>
        <time>2018-07-04T11:47:11Z</time>
      </trkpt>
      <trkpt lat="49.487950997427106" lon="-1.274469969794154">
        <ele>5.42</ele>
        <time>2018-07-04T11:47:12Z</time>
      </trkpt>
      <trkpt lat="49.488075971603394" lon="-1.274238964542747">
        <ele>5.42</ele>
        <time>2018-07-04T11:47:13Z</time>
      </trkpt>
      <trkpt lat="49.489319007843733" lon="-1.271749036386609">
        <ele>4.94</ele>
        <time>2018-07-04T11:47:23Z</time>
      </trkpt>
      <trkpt lat="49.49038996361196" lon="-1.269264975562692">
        <ele>5.91</ele>
        <time>2018-07-04T11:47:32Z</time>
      </trkpt>
      <trkpt lat="49.491802984848619" lon="-1.266358969733119">
        <ele>6.39</ele>
        <time>2018-07-04T11:47:44Z</time>
      </trkpt>
      <trkpt lat="49.492765981703997" lon="-1.264948965981603">
        <ele>7.35</ele>
        <time>2018-07-04T11:47:52Z</time>
      </trkpt>
      <trkpt lat="49.493146017193794" lon="-1.264388971030712">
        <ele>8.310000000000001</ele>
        <time>2018-07-04T11:47:58Z</time>
      </trkpt>
      <trkpt lat="49.493184993043542" lon="-1.264330968260765">
        <ele>8.789999999999999</ele>
        <time>2018-07-04T11:48:04Z</time>
      </trkpt>
      <trkpt lat="49.493207037448883" lon="-1.264299033209682">
        <ele>8.789999999999999</ele>
        <time>2018-07-04T11:48:05Z</time>
      </trkpt>
      <trkpt lat="49.493253976106644" lon="-1.264317976310849">
        <ele>9.27</ele>
        <time>2018-07-04T11:48:06Z</time>
      </trkpt>
      <trkpt lat="49.493320025503635" lon="-1.264373967424035">
        <ele>9.27</ele>
        <time>2018-07-04T11:48:07Z</time>
      </trkpt>
      <trkpt lat="49.493399988859892" lon="-1.264443034306169">
        <ele>9.27</ele>
        <time>2018-07-04T11:48:08Z</time>
      </trkpt>
      <trkpt lat="49.494218984618783" lon="-1.265139989554882">
        <ele>8.789999999999999</ele>
        <time>2018-07-04T11:48:15Z</time>
      </trkpt>
      <trkpt lat="49.495217017829418" lon="-1.265869969502091">
        <ele>9.27</ele>
        <time>2018-07-04T11:48:23Z</time>
      </trkpt>
      <trkpt lat="49.496610006317496" lon="-1.26698300242424">
        <ele>9.75</ele>
        <time>2018-07-04T11:48:35Z</time>
      </trkpt>
      <trkpt lat="49.49831304140389" lon="-1.268350007012487">
        <ele>10.23</ele>
        <time>2018-07-04T11:48:50Z</time>
      </trkpt>
      <trkpt lat="49.500067038461566" lon="-1.269921027123928">
        <ele>10.710000000000001</ele>
        <time>2018-07-04T11:49:06Z</time>
      </trkpt>
      <trkpt lat="49.501493973657489" lon="-1.27153798006475">
        <ele>11.19</ele>
        <time>2018-07-04T11:49:20Z</time>
      </trkpt>
      <trkpt lat="49.503505965694785" lon="-1.273945011198521">
        <ele>9.75</ele>
        <time>2018-07-04T11:49:39Z</time>
      </trkpt>
      <trkpt lat="49.505387032404542" lon="-1.276068985462189">
        <ele>10.710000000000001</ele>
        <time>2018-07-04T11:49:56Z</time>
      </trkpt>
      <trkpt lat="49.506468968465924" lon="-1.27723298035562">
        <ele>10.23</ele>
        <time>2018-07-04T11:50:07Z</time>
      </trkpt>
      <trkpt lat="49.506540969014168" lon="-1.277311015874147">
        <ele>10.23</ele>
        <time>2018-07-04T11:50:14Z</time>
      </trkpt>
      <trkpt lat="49.506649011746049" lon="-1.277445964515209">
        <ele>10.710000000000001</ele>
        <time>2018-07-04T11:50:47Z</time>
      </trkpt>
      <trkpt lat="49.507305985316634" lon="-1.278285998851061">
        <ele>10.710000000000001</ele>
        <time>2018-07-04T11:50:55Z</time>
      </trkpt>
      <trkpt lat="49.507909985259175" lon="-1.279491987079382">
        <ele>8.310000000000001</ele>
        <time>2018-07-04T11:51:03Z</time>
      </trkpt>
      <trkpt lat="49.508338971063495" lon="-1.280228001996875">
        <ele>6.87</ele>
        <time>2018-07-04T11:51:09Z</time>
      </trkpt>
      <trkpt lat="49.508784972131252" lon="-1.280704010277987">
        <ele>6.87</ele>
        <time>2018-07-04T11:51:14Z</time>
      </trkpt>
      <trkpt lat="49.510044017806649" lon="-1.281788041815162">
        <ele>8.310000000000001</ele>
        <time>2018-07-04T11:51:27Z</time>
      </trkpt>
      <trkpt lat="49.511108016595244" lon="-1.282766964286566">
        <ele>11.19</ele>
        <time>2018-07-04T11:51:38Z</time>
      </trkpt>
      <trkpt lat="49.511944027617574" lon="-1.283567016944289">
        <ele>10.710000000000001</ele>
        <time>2018-07-04T11:51:46Z</time>
      </trkpt>
      <trkpt lat="49.512780960649252" lon="-1.284753978252411">
        <ele>9.75</ele>
        <time>2018-07-04T11:51:56Z</time>
      </trkpt>
      <trkpt lat="49.513812018558383" lon="-1.286115031689405">
        <ele>9.75</ele>
        <time>2018-07-04T11:52:08Z</time>
      </trkpt>
      <trkpt lat="49.513894999399781" lon="-1.286249980330467">
        <ele>9.75</ele>
        <time>2018-07-04T11:52:09Z</time>
      </trkpt>
      <trkpt lat="49.514609975740314" lon="-1.287520006299019">
        <ele>11.19</ele>
        <time>2018-07-04T11:52:19Z</time>
      </trkpt>
      <trkpt lat="49.514701003208756" lon="-1.287701977416873">
        <ele>10.710000000000001</ele>
        <time>2018-07-04T11:52:21Z</time>
      </trkpt>
      <trkpt lat="49.51475297100842" lon="-1.287748999893665">
        <ele>10.710000000000001</ele>
        <time>2018-07-04T11:52:22Z</time>
      </trkpt>
      <trkpt lat="49.514849027618766" lon="-1.287834998220205">
        <ele>10.23</ele>
        <time>2018-07-04T11:52:29Z</time>
      </trkpt>
      <trkpt lat="49.514849027618766" lon="-1.287834998220205">
        <ele>10.23</ele>
        <time>2018-07-04T11:52:37Z</time>
      </trkpt>
      <trkpt lat="49.514875011518598" lon="-1.287857964634895">
        <ele>10.23</ele>
        <time>2018-07-04T11:52:38Z</time>
      </trkpt>
      <trkpt lat="49.514931002631783" lon="-1.287717986851931">
        <ele>10.23</ele>
        <time>2018-07-04T11:52:39Z</time>
      </trkpt>
      <trkpt lat="49.514931002631783" lon="-1.287717986851931">
        <ele>9.75</ele>
        <time>2018-07-04T11:52:40Z</time>
      </trkpt>
      <trkpt lat="49.514946006238461" lon="-1.287652021273971">
        <ele>9.75</ele>
        <time>2018-07-04T11:52:41Z</time>
      </trkpt>
      <trkpt lat="49.514966038987041" lon="-1.287559987977147">
        <ele>9.75</ele>
        <time>2018-07-04T11:52:42Z</time>
      </trkpt>
      <trkpt lat="49.514986993744969" lon="-1.287467032670975">
        <ele>9.27</ele>
        <time>2018-07-04T11:52:43Z</time>
      </trkpt>
      <trkpt lat="49.515046002343297" lon="-1.287206020206213">
        <ele>8.789999999999999</ele>
        <time>2018-07-04T11:52:46Z</time>
      </trkpt>
      <trkpt lat="49.515065029263496" lon="-1.287123039364815">
        <ele>8.310000000000001</ele>
        <time>2018-07-04T11:52:47Z</time>
      </trkpt>
      <trkpt lat="49.51515999622643" lon="-1.286702016368508">
        <ele>7.83</ele>
        <time>2018-07-04T11:52:52Z</time>
      </trkpt>
      <trkpt lat="49.515176005661488" lon="-1.286630015820265">
        <ele>7.35</ele>
        <time>2018-07-04T11:52:53Z</time>
      </trkpt>
      <trkpt lat="49.515204001218081" lon="-1.286504035815597">
        <ele>6.87</ele>
        <time>2018-07-04T11:52:55Z</time>
      </trkpt>
      <trkpt lat="49.515217998996377" lon="-1.286443015560508">
        <ele>6.87</ele>
        <time>2018-07-04T11:52:56Z</time>
      </trkpt>
      <trkpt lat="49.515273990109563" lon="-1.286193989217281">
        <ele>5.91</ele>
        <time>2018-07-04T11:53:06Z</time>
      </trkpt>
      <trkpt lat="49.515273990109563" lon="-1.286193989217281">
        <ele>6.87</ele>
        <time>2018-07-04T11:53:14Z</time>
      </trkpt>
      <trkpt lat="49.515273990109563" lon="-1.286193989217281">
        <ele>6.39</ele>
        <time>2018-07-04T11:53:28Z</time>
      </trkpt>
      <trkpt lat="49.515273990109563" lon="-1.286193989217281">
        <ele>6.87</ele>
        <time>2018-07-04T11:53:31Z</time>
      </trkpt>
      <trkpt lat="49.515273990109563" lon="-1.286193989217281">
        <ele>6.39</ele>
        <time>2018-07-04T11:53:32Z</time>
      </trkpt>
      <trkpt lat="49.515199977904558" lon="-1.286521973088384">
        <ele>6.39</ele>
        <time>2018-07-04T11:53:39Z</time>
      </trkpt>
      <trkpt lat="49.515176005661488" lon="-1.286630015820265">
        <ele>6.39</ele>
        <time>2018-07-04T11:53:40Z</time>
      </trkpt>
      <trkpt lat="49.515150021761656" lon="-1.286746021360159">
        <ele>5.42</ele>
        <time>2018-07-04T11:53:41Z</time>
      </trkpt>
      <trkpt lat="49.514890015125275" lon="-1.287976987659931">
        <ele>7.35</ele>
        <time>2018-07-04T11:53:52Z</time>
      </trkpt>
      <trkpt lat="49.514724975451827" lon="-1.288706967607141">
        <ele>8.310000000000001</ele>
        <time>2018-07-04T11:53:59Z</time>
      </trkpt>
      <trkpt lat="49.514565970748663" lon="-1.289411969482899">
        <ele>8.310000000000001</ele>
        <time>2018-07-04T11:54:06Z</time>
      </trkpt>
      <trkpt lat="49.514525989070535" lon="-1.289437031373382">
        <ele>8.310000000000001</ele>
        <time>2018-07-04T11:54:07Z</time>
      </trkpt>
      <trkpt lat="49.514467986300588" lon="-1.289470978081226">
        <ele>7.83</ele>
        <time>2018-07-04T11:54:08Z</time>
      </trkpt>
      <trkpt lat="49.514405038207769" lon="-1.289509031921625">
        <ele>7.83</ele>
        <time>2018-07-04T11:54:09Z</time>
      </trkpt>
      <trkpt lat="49.514349969103932" lon="-1.289541972801089">
        <ele>7.83</ele>
        <time>2018-07-04T11:54:10Z</time>
      </trkpt>
      <trkpt lat="49.514273023232818" lon="-1.289544990286231">
        <ele>7.83</ele>
        <time>2018-07-04T11:54:11Z</time>
      </trkpt>
      <trkpt lat="49.513273984193802" lon="-1.28964900970459">
        <ele>7.83</ele>
        <time>2018-07-04T11:54:22Z</time>
      </trkpt>
      <trkpt lat="49.513159990310669" lon="-1.289712963625789">
        <ele>7.83</ele>
        <time>2018-07-04T11:54:23Z</time>
      </trkpt>
      <trkpt lat="49.513044990599155" lon="-1.289793010801077">
        <ele>7.83</ele>
        <time>2018-07-04T11:54:24Z</time>
      </trkpt>
      <trkpt lat="49.512829994782805" lon="-1.289991997182369">
        <ele>8.310000000000001</ele>
        <time>2018-07-04T11:54:26Z</time>
      </trkpt>
      <trkpt lat="49.512771992012858" lon="-1.290108002722263">
        <ele>8.310000000000001</ele>
        <time>2018-07-04T11:54:27Z</time>
      </trkpt>
      <trkpt lat="49.512726981192827" lon="-1.290232976898551">
        <ele>8.310000000000001</ele>
        <time>2018-07-04T11:54:28Z</time>
      </trkpt>
      <trkpt lat="49.512702003121376" lon="-1.290345964953303">
        <ele>8.789999999999999</ele>
        <time>2018-07-04T11:54:29Z</time>
      </trkpt>
      <trkpt lat="49.512676019221544" lon="-1.290474962443113">
        <ele>8.789999999999999</ele>
        <time>2018-07-04T11:54:30Z</time>
      </trkpt>
      <trkpt lat="49.512649029493332" lon="-1.290611000731587">
        <ele>9.27</ele>
        <time>2018-07-04T11:54:31Z</time>
      </trkpt>
      <trkpt lat="49.512618016451597" lon="-1.290752990171313">
        <ele>9.27</ele>
        <time>2018-07-04T11:54:32Z</time>
      </trkpt>
      <trkpt lat="49.51258298009634" lon="-1.290901014581323">
        <ele>9.75</ele>
        <time>2018-07-04T11:54:33Z</time>
      </trkpt>
      <trkpt lat="49.512547021731734" lon="-1.291057001799345">
        <ele>10.23</ele>
        <time>2018-07-04T11:54:34Z</time>
      </trkpt>
      <trkpt lat="49.512182995676994" lon="-1.292704967781901">
        <ele>15.039999999999999</ele>
        <time>2018-07-04T11:54:42Z</time>
      </trkpt>
      <trkpt lat="49.511994989588857" lon="-1.294014975428581">
        <ele>17.440000000000001</ele>
        <time>2018-07-04T11:54:47Z</time>
      </trkpt>
      <trkpt lat="49.51200102455914" lon="-1.294286968186498">
        <ele>18.399999999999999</ele>
        <time>2018-07-04T11:54:48Z</time>
      </trkpt>
      <trkpt lat="49.512014016509056" lon="-1.294557033106685">
        <ele>19.359999999999999</ele>
        <time>2018-07-04T11:54:49Z</time>
      </trkpt>
      <trkpt lat="49.512089034542441" lon="-1.296115983277559">
        <ele>26.09</ele>
        <time>2018-07-04T11:54:56Z</time>
      </trkpt>
      <trkpt lat="49.512119041755795" lon="-1.296655023470521">
        <ele>28.02</ele>
        <time>2018-07-04T11:54:59Z</time>
      </trkpt>
      <trkpt lat="49.512135973200202" lon="-1.296974960714579">
        <ele>28.5</ele>
        <time>2018-07-04T11:55:01Z</time>
      </trkpt>
      <trkpt lat="49.512156005948782" lon="-1.297330018132925">
        <ele>29.460000000000001</ele>
        <time>2018-07-04T11:55:04Z</time>
      </trkpt>
      <trkpt lat="49.512161035090685" lon="-1.297422973439097">
        <ele>29.460000000000001</ele>
        <time>2018-07-04T11:55:05Z</time>
      </trkpt>
      <trkpt lat="49.512232029810548" lon="-1.297529004514217">
        <ele>29.940000000000001</ele>
        <time>2018-07-04T11:55:06Z</time>
      </trkpt>
      <trkpt lat="49.512287015095353" lon="-1.297583989799023">
        <ele>30.420000000000002</ele>
        <time>2018-07-04T11:55:07Z</time>
      </trkpt>
      <trkpt lat="49.512349041178823" lon="-1.297646015882492">
        <ele>30.899999999999999</ele>
        <time>2018-07-04T11:55:08Z</time>
      </trkpt>
      <trkpt lat="49.512631008401513" lon="-1.297927983105183">
        <ele>29.940000000000001</ele>
        <time>2018-07-04T11:55:12Z</time>
      </trkpt>
      <trkpt lat="49.512704014778137" lon="-1.298000989481807">
        <ele>29.940000000000001</ele>
        <time>2018-07-04T11:55:13Z</time>
      </trkpt>
      <trkpt lat="49.513025041669607" lon="-1.298322016373277">
        <ele>28.5</ele>
        <time>2018-07-04T11:55:17Z</time>
      </trkpt>
      <trkpt lat="49.513861974701285" lon="-1.299184011295438">
        <ele>22.73</ele>
        <time>2018-07-04T11:55:26Z</time>
      </trkpt>
      <trkpt lat="49.515121020376682" lon="-1.300611030310392">
        <ele>12.630000000000001</ele>
        <time>2018-07-04T11:55:38Z</time>
      </trkpt>
      <trkpt lat="49.515349008142948" lon="-1.300817979499698">
        <ele>11.67</ele>
        <time>2018-07-04T11:55:41Z</time>
      </trkpt>
      <trkpt lat="49.515393013134599" lon="-1.300837006419897">
        <ele>11.67</ele>
        <time>2018-07-04T11:55:42Z</time>
      </trkpt>
      <trkpt lat="49.515465013682842" lon="-1.300855027511716">
        <ele>11.19</ele>
        <time>2018-07-04T11:55:45Z</time>
      </trkpt>
      <trkpt lat="49.515484962612391" lon="-1.300859972834587">
        <ele>11.19</ele>
        <time>2018-07-04T11:55:46Z</time>
      </trkpt>
      <trkpt lat="49.515542965382338" lon="-1.300914958119392">
        <ele>11.19</ele>
        <time>2018-07-04T11:55:47Z</time>
      </trkpt>
      <trkpt lat="49.51556802727282" lon="-1.301010008901358">
        <ele>10.710000000000001</ele>
        <time>2018-07-04T11:55:48Z</time>
      </trkpt>
      <trkpt lat="49.515599962323904" lon="-1.301130037754774">
        <ele>10.23</ele>
        <time>2018-07-04T11:55:49Z</time>
      </trkpt>
      <trkpt lat="49.515637010335922" lon="-1.301270015537739">
        <ele>10.23</ele>
        <time>2018-07-04T11:55:50Z</time>
      </trkpt>
      <trkpt lat="49.515693001449108" lon="-1.301416028290987">
        <ele>9.75</ele>
        <time>2018-07-04T11:55:51Z</time>
      </trkpt>
      <trkpt lat="49.51614998281002" lon="-1.302548004314303">
        <ele>9.27</ele>
        <time>2018-07-04T11:55:58Z</time>
      </trkpt>
      <trkpt lat="49.516230029985309" lon="-1.302739027887583">
        <ele>9.75</ele>
        <time>2018-07-04T11:55:59Z</time>
      </trkpt>
      <trkpt lat="49.517002003267407" lon="-1.304652029648423">
        <ele>8.310000000000001</ele>
        <time>2018-07-04T11:56:07Z</time>
      </trkpt>
      <trkpt lat="49.517859974876046" lon="-1.306741973385215">
        <ele>7.83</ele>
        <time>2018-07-04T11:56:15Z</time>
      </trkpt>
      <trkpt lat="49.518368002027273" lon="-1.307834973558784">
        <ele>9.27</ele>
        <time>2018-07-04T11:56:20Z</time>
      </trkpt>
      <trkpt lat="49.518487025052309" lon="-1.307973023504019">
        <ele>9.75</ele>
        <time>2018-07-04T11:56:21Z</time>
      </trkpt>
      <trkpt lat="49.518610993400216" lon="-1.308116018772125">
        <ele>10.23</ele>
        <time>2018-07-04T11:56:22Z</time>
      </trkpt>
      <trkpt lat="49.519613971933722" lon="-1.309112962335348">
        <ele>13.119999999999999</ele>
        <time>2018-07-04T11:56:30Z</time>
      </trkpt>
      <trkpt lat="49.51971597969532" lon="-1.309260986745358">
        <ele>13.119999999999999</ele>
        <time>2018-07-04T11:56:31Z</time>
      </trkpt>
      <trkpt lat="49.519759984686971" lon="-1.309406999498606">
        <ele>13.119999999999999</ele>
        <time>2018-07-04T11:56:32Z</time>
      </trkpt>
      <trkpt lat="49.519787980243564" lon="-1.309597017243505">
        <ele>13.119999999999999</ele>
        <time>2018-07-04T11:56:33Z</time>
      </trkpt>
      <trkpt lat="49.519799966365099" lon="-1.309806983917952">
        <ele>13.119999999999999</ele>
        <time>2018-07-04T11:56:34Z</time>
      </trkpt>
      <trkpt lat="49.519812958315015" lon="-1.310015022754669">
        <ele>13.119999999999999</ele>
        <time>2018-07-04T11:56:35Z</time>
      </trkpt>
      <trkpt lat="49.51982201077044" lon="-1.310215014964342">
        <ele>13.119999999999999</ele>
        <time>2018-07-04T11:56:36Z</time>
      </trkpt>
      <trkpt lat="49.51980197802186" lon="-1.311235008761287">
        <ele>16</ele>
        <time>2018-07-04T11:56:43Z</time>
      </trkpt>
      <trkpt lat="49.519773982465267" lon="-1.311408011242747">
        <ele>16.960000000000001</ele>
        <time>2018-07-04T11:56:45Z</time>
      </trkpt>
      <trkpt lat="49.519755961373448" lon="-1.3115209992975">
        <ele>17.440000000000001</ele>
        <time>2018-07-04T11:56:46Z</time>
      </trkpt>
      <trkpt lat="49.519640961661935" lon="-1.311967000365257">
        <ele>19.359999999999999</ele>
        <time>2018-07-04T11:56:50Z</time>
      </trkpt>
      <trkpt lat="49.519398976117373" lon="-1.312612993642688">
        <ele>17.440000000000001</ele>
        <time>2018-07-04T11:56:57Z</time>
      </trkpt>
      <trkpt lat="49.519351031631231" lon="-1.312736961990595">
        <ele>16.960000000000001</ele>
        <time>2018-07-04T11:56:58Z</time>
      </trkpt>
      <trkpt lat="49.519338961690664" lon="-1.312798988074064">
        <ele>16.48</ele>
        <time>2018-07-04T11:56:59Z</time>
      </trkpt>
      <trkpt lat="49.519286993891001" lon="-1.313058994710445">
        <ele>16.48</ele>
        <time>2018-07-04T11:57:01Z</time>
      </trkpt>
      <trkpt lat="49.519295040518045" lon="-1.313162008300424">
        <ele>16.48</ele>
        <time>2018-07-04T11:57:02Z</time>
      </trkpt>
      <trkpt lat="49.51930501498282" lon="-1.313293017446995">
        <ele>16.48</ele>
        <time>2018-07-04T11:57:03Z</time>
      </trkpt>
      <trkpt lat="49.519317001104355" lon="-1.31343299522996">
        <ele>16.48</ele>
        <time>2018-07-04T11:57:04Z</time>
      </trkpt>
      <trkpt lat="49.51932798139751" lon="-1.313570961356163">
        <ele>16</ele>
        <time>2018-07-04T11:57:05Z</time>
      </trkpt>
      <trkpt lat="49.519380033016205" lon="-1.313697025179863">
        <ele>16</ele>
        <time>2018-07-04T11:57:06Z</time>
      </trkpt>
      <trkpt lat="49.519439041614532" lon="-1.313814958557487">
        <ele>16</ele>
        <time>2018-07-04T11:57:07Z</time>
      </trkpt>
      <trkpt lat="49.519501989707351" lon="-1.313940016552806">
        <ele>16</ele>
        <time>2018-07-04T11:57:08Z</time>
      </trkpt>
      <trkpt lat="49.519580025225878" lon="-1.314040012657642">
        <ele>16.48</ele>
        <time>2018-07-04T11:57:09Z</time>
      </trkpt>
      <trkpt lat="49.5197550393641" lon="-1.314270012080669">
        <ele>16.960000000000001</ele>
        <time>2018-07-04T11:57:11Z</time>
      </trkpt>
      <trkpt lat="49.520493987947702" lon="-1.315666018053889">
        <ele>17.920000000000002</ele>
        <time>2018-07-04T11:57:19Z</time>
      </trkpt>
      <trkpt lat="49.521219022572041" lon="-1.317080967128277">
        <ele>20.32</ele>
        <time>2018-07-04T11:57:27Z</time>
      </trkpt>
      <trkpt lat="49.521333016455173" lon="-1.317480029538274">
        <ele>22.25</ele>
        <time>2018-07-04T11:57:31Z</time>
      </trkpt>
      <trkpt lat="49.521532002836466" lon="-1.317755961790681">
        <ele>25.129999999999999</ele>
        <time>2018-07-04T11:57:37Z</time>
      </trkpt>
      <trkpt lat="49.521588999778032" lon="-1.317735007032752">
        <ele>25.129999999999999</ele>
        <time>2018-07-04T11:57:38Z</time>
      </trkpt>
      <trkpt lat="49.521658988669515" lon="-1.31770902313292">
        <ele>25.609999999999999</ele>
        <time>2018-07-04T11:57:39Z</time>
      </trkpt>
      <trkpt lat="49.522439008578658" lon="-1.317415991798043">
        <ele>27.530000000000001</ele>
        <time>2018-07-04T11:57:46Z</time>
      </trkpt>
      <trkpt lat="49.52375203371048" lon="-1.317006032913923">
        <ele>28.98</ele>
        <time>2018-07-04T11:57:54Z</time>
      </trkpt>
      <trkpt lat="49.524972019717097" lon="-1.317249024286866">
        <ele>30.420000000000002</ele>
        <time>2018-07-04T11:58:00Z</time>
      </trkpt>
      <trkpt lat="49.526901030912995" lon="-1.318575963377953">
        <ele>31.859999999999999</ele>
        <time>2018-07-04T11:58:09Z</time>
      </trkpt>
      <trkpt lat="49.528931966051459" lon="-1.319701988250017">
        <ele>27.530000000000001</ele>
        <time>2018-07-04T11:58:18Z</time>
      </trkpt>
      <trkpt lat="49.531302032992244" lon="-1.320977965369821">
        <ele>26.09</ele>
        <time>2018-07-04T11:58:31Z</time>
      </trkpt>
      <trkpt lat="49.53275403007865" lon="-1.321844989433885">
        <ele>24.649999999999999</ele>
        <time>2018-07-04T11:58:39Z</time>
      </trkpt>
      <trkpt lat="49.534084992483258" lon="-1.322037018835545">
        <ele>22.73</ele>
        <time>2018-07-04T11:58:46Z</time>
      </trkpt>
      <trkpt lat="49.535787021741271" lon="-1.321551958099008">
        <ele>24.170000000000002</ele>
        <time>2018-07-04T11:58:55Z</time>
      </trkpt>
      <trkpt lat="49.538473002612591" lon="-1.320809992030263">
        <ele>21.289999999999999</ele>
        <time>2018-07-04T11:59:09Z</time>
      </trkpt>
      <trkpt lat="49.539357963949442" lon="-1.320979977026582">
        <ele>19.84</ele>
        <time>2018-07-04T11:59:15Z</time>
      </trkpt>
      <trkpt lat="49.539457960054278" lon="-1.321002021431923">
        <ele>19.359999999999999</ele>
        <time>2018-07-04T11:59:16Z</time>
      </trkpt>
      <trkpt lat="49.539552005007863" lon="-1.321022976189852">
        <ele>19.359999999999999</ele>
        <time>2018-07-04T11:59:17Z</time>
      </trkpt>
      <trkpt lat="49.540855977684259" lon="-1.321192961186171">
        <ele>22.25</ele>
        <time>2018-07-04T11:59:29Z</time>
      </trkpt>
      <trkpt lat="49.542444013059139" lon="-1.321450034156442">
        <ele>23.690000000000001</ele>
        <time>2018-07-04T11:59:40Z</time>
      </trkpt>
      <trkpt lat="49.542706031352282" lon="-1.321503007784486">
        <ele>24.170000000000002</ele>
        <time>2018-07-04T11:59:42Z</time>
      </trkpt>
      <trkpt lat="49.543968010693789" lon="-1.32134098559618">
        <ele>23.210000000000001</ele>
        <time>2018-07-04T11:59:51Z</time>
      </trkpt>
      <trkpt lat="49.544116035103798" lon="-1.321308966726065">
        <ele>23.210000000000001</ele>
        <time>2018-07-04T11:59:52Z</time>
      </trkpt>
      <trkpt lat="49.545884029939771" lon="-1.320941001176834">
        <ele>20.32</ele>
        <time>2018-07-04T12:00:03Z</time>
      </trkpt>
      <trkpt lat="49.547355975955725" lon="-1.320704966783524">
        <ele>17.920000000000002</ele>
        <time>2018-07-04T12:00:12Z</time>
      </trkpt>
      <trkpt lat="49.548564981669188" lon="-1.320053022354841">
        <ele>16.960000000000001</ele>
        <time>2018-07-04T12:00:20Z</time>
      </trkpt>
      <trkpt lat="49.550372958183289" lon="-1.318471021950245">
        <ele>19.359999999999999</ele>
        <time>2018-07-04T12:00:33Z</time>
      </trkpt>
      <trkpt lat="49.551757983863354" lon="-1.317212982103229">
        <ele>18.399999999999999</ele>
        <time>2018-07-04T12:00:42Z</time>
      </trkpt>
      <trkpt lat="49.551940960809588" lon="-1.31713000126183">
        <ele>18.879999999999999</ele>
        <time>2018-07-04T12:00:43Z</time>
      </trkpt>
      <trkpt lat="49.55376997590065" lon="-1.316806962713599">
        <ele>22.25</ele>
        <time>2018-07-04T12:00:52Z</time>
      </trkpt>
      <trkpt lat="49.555691024288535" lon="-1.31635601632297">
        <ele>24.649999999999999</ele>
        <time>2018-07-04T12:01:01Z</time>
      </trkpt>
      <trkpt lat="49.557214016094804" lon="-1.316258031874895">
        <ele>23.210000000000001</ele>
        <time>2018-07-04T12:01:09Z</time>
      </trkpt>
      <trkpt lat="49.55890104174614" lon="-1.316649969667196">
        <ele>28.98</ele>
        <time>2018-07-04T12:01:18Z</time>
      </trkpt>
      <trkpt lat="49.560486981645226" lon="-1.31657000631094">
        <ele>31.859999999999999</ele>
        <time>2018-07-04T12:01:26Z</time>
      </trkpt>
      <trkpt lat="49.562038974836469" lon="-1.316704032942653">
        <ele>29.940000000000001</ele>
        <time>2018-07-04T12:01:34Z</time>
      </trkpt>
      <trkpt lat="49.563776040449739" lon="-1.316601019352675">
        <ele>30.899999999999999</ele>
        <time>2018-07-04T12:01:43Z</time>
      </trkpt>
      <trkpt lat="49.565446972846985" lon="-1.315863998606801">
        <ele>27.050000000000001</ele>
        <time>2018-07-04T12:01:52Z</time>
      </trkpt>
      <trkpt lat="49.5668950304389" lon="-1.314835958182812">
        <ele>25.129999999999999</ele>
        <time>2018-07-04T12:02:01Z</time>
      </trkpt>
      <trkpt lat="49.568098001182079" lon="-1.314487019553781">
        <ele>24.649999999999999</ele>
        <time>2018-07-04T12:02:10Z</time>
      </trkpt>
      <trkpt lat="49.568728990852833" lon="-1.314364979043603">
        <ele>24.649999999999999</ele>
        <time>2018-07-04T12:02:14Z</time>
      </trkpt>
      <trkpt lat="49.570391960442066" lon="-1.314115030691028">
        <ele>23.690000000000001</ele>
        <time>2018-07-04T12:02:23Z</time>
      </trkpt>
      <trkpt lat="49.571615969762206" lon="-1.313309026882052">
        <ele>23.210000000000001</ele>
        <time>2018-07-04T12:02:30Z</time>
      </trkpt>
      <trkpt lat="49.572856994345784" lon="-1.31257401779294">
        <ele>26.57</ele>
        <time>2018-07-04T12:02:38Z</time>
      </trkpt>
      <trkpt lat="49.574061976745725" lon="-1.312048975378275">
        <ele>25.129999999999999</ele>
        <time>2018-07-04T12:02:45Z</time>
      </trkpt>
      <trkpt lat="49.575378019362688" lon="-1.31149903871119">
        <ele>19.359999999999999</ele>
        <time>2018-07-04T12:02:53Z</time>
      </trkpt>
      <trkpt lat="49.576287036761642" lon="-1.311059994623065">
        <ele>15.52</ele>
        <time>2018-07-04T12:03:01Z</time>
      </trkpt>
      <trkpt lat="49.576533967629075" lon="-1.310921022668481">
        <ele>15.52</ele>
        <time>2018-07-04T12:03:04Z</time>
      </trkpt>
      <trkpt lat="49.576606974005699" lon="-1.31085698492825">
        <ele>15.52</ele>
        <time>2018-07-04T12:03:05Z</time>
      </trkpt>
      <trkpt lat="49.576680986210704" lon="-1.310794036835432">
        <ele>15.52</ele>
        <time>2018-07-04T12:03:06Z</time>
      </trkpt>
      <trkpt lat="49.577136961743236" lon="-1.310398997738957">
        <ele>16</ele>
        <time>2018-07-04T12:03:12Z</time>
      </trkpt>
      <trkpt lat="49.577423958107829" lon="-1.310153994709253">
        <ele>16.960000000000001</ele>
        <time>2018-07-04T12:03:16Z</time>
      </trkpt>
      <trkpt lat="49.577494030818343" lon="-1.310084005817771">
        <ele>17.440000000000001</ele>
        <time>2018-07-04T12:03:17Z</time>
      </trkpt>
      <trkpt lat="49.577565025538206" lon="-1.309994990006089">
        <ele>17.440000000000001</ele>
        <time>2018-07-04T12:03:18Z</time>
      </trkpt>
      <trkpt lat="49.577623028308153" lon="-1.309885019436479">
        <ele>17.440000000000001</ele>
        <time>2018-07-04T12:03:19Z</time>
      </trkpt>
      <trkpt lat="49.577682036906481" lon="-1.309773037210107">
        <ele>16.960000000000001</ele>
        <time>2018-07-04T12:03:20Z</time>
      </trkpt>
      <trkpt lat="49.577742973342538" lon="-1.309656025841832">
        <ele>16.960000000000001</ele>
        <time>2018-07-04T12:03:21Z</time>
      </trkpt>
      <trkpt lat="49.577894015237689" lon="-1.309482017531991">
        <ele>16.960000000000001</ele>
        <time>2018-07-04T12:03:23Z</time>
      </trkpt>
      <trkpt lat="49.577976996079087" lon="-1.309393001720309">
        <ele>17.440000000000001</ele>
        <time>2018-07-04T12:03:24Z</time>
      </trkpt>
      <trkpt lat="49.57860597409308" lon="-1.308719012886286">
        <ele>17.920000000000002</ele>
        <time>2018-07-04T12:03:31Z</time>
      </trkpt>
      <trkpt lat="49.57972495816648" lon="-1.307569015771151">
        <ele>15.52</ele>
        <time>2018-07-04T12:03:42Z</time>
      </trkpt>
      <trkpt lat="49.580886019393802" lon="-1.306626973673701">
        <ele>15.039999999999999</ele>
        <time>2018-07-04T12:03:51Z</time>
      </trkpt>
      <trkpt lat="49.582470031455159" lon="-1.305387960746884">
        <ele>15.039999999999999</ele>
        <time>2018-07-04T12:04:01Z</time>
      </trkpt>
      <trkpt lat="49.583595972508192" lon="-1.30475495941937">
        <ele>14.56</ele>
        <time>2018-07-04T12:04:10Z</time>
      </trkpt>
      <trkpt lat="49.584669023752213" lon="-1.30415397696197">
        <ele>15.039999999999999</ele>
        <time>2018-07-04T12:04:21Z</time>
      </trkpt>
      <trkpt lat="49.585921028628945" lon="-1.303570009768009">
        <ele>16</ele>
        <time>2018-07-04T12:04:33Z</time>
      </trkpt>
      <trkpt lat="49.587599001824856" lon="-1.302879005670548">
        <ele>13.6</ele>
        <time>2018-07-04T12:04:47Z</time>
      </trkpt>
      <trkpt lat="49.588989978656173" lon="-1.302406014874578">
        <ele>13.119999999999999</ele>
        <time>2018-07-04T12:04:59Z</time>
      </trkpt>
      <trkpt lat="49.589107995852828" lon="-1.302395034581423">
        <ele>13.119999999999999</ele>
        <time>2018-07-04T12:05:00Z</time>
      </trkpt>
      <trkpt lat="49.589225007221103" lon="-1.302384976297617">
        <ele>13.119999999999999</ele>
        <time>2018-07-04T12:05:01Z</time>
      </trkpt>
      <trkpt lat="49.590738024562597" lon="-1.302110971882939">
        <ele>13.119999999999999</ele>
        <time>2018-07-04T12:05:14Z</time>
      </trkpt>
      <trkpt lat="49.591815015301108" lon="-1.301806038245559">
        <ele>12.630000000000001</ele>
        <time>2018-07-04T12:05:25Z</time>
      </trkpt>
      <trkpt lat="49.592113997787237" lon="-1.301726996898651">
        <ele>12.15</ele>
        <time>2018-07-04T12:05:31Z</time>
      </trkpt>
      <trkpt lat="49.592136964201927" lon="-1.301720961928368">
        <ele>11.67</ele>
        <time>2018-07-04T12:05:32Z</time>
      </trkpt>
      <trkpt lat="49.592160014435649" lon="-1.301715010777116">
        <ele>11.67</ele>
        <time>2018-07-04T12:05:33Z</time>
      </trkpt>
      <trkpt lat="49.592181975021958" lon="-1.301708975806832">
        <ele>11.19</ele>
        <time>2018-07-04T12:05:34Z</time>
      </trkpt>
      <trkpt lat="49.592196978628635" lon="-1.301705036312342">
        <ele>11.19</ele>
        <time>2018-07-04T12:05:35Z</time>
      </trkpt>
      <trkpt lat="49.592213993892074" lon="-1.301701012998819">
        <ele>10.710000000000001</ele>
        <time>2018-07-04T12:05:36Z</time>
      </trkpt>
      <trkpt lat="49.59224802441895" lon="-1.301691960543394">
        <ele>11.19</ele>
        <time>2018-07-04T12:05:47Z</time>
      </trkpt>
      <trkpt lat="49.592354977503419" lon="-1.301715010777116">
        <ele>11.19</ele>
        <time>2018-07-04T12:05:49Z</time>
      </trkpt>
      <trkpt lat="49.592359000816941" lon="-1.301758009940386">
        <ele>11.67</ele>
        <time>2018-07-04T12:05:50Z</time>
      </trkpt>
      <trkpt lat="49.592363024130464" lon="-1.301806038245559">
        <ele>12.15</ele>
        <time>2018-07-04T12:05:51Z</time>
      </trkpt>
      <trkpt lat="49.592368975281715" lon="-1.301864041015506">
        <ele>12.630000000000001</ele>
        <time>2018-07-04T12:05:52Z</time>
      </trkpt>
      <trkpt lat="49.592375010251999" lon="-1.301933024078608">
        <ele>12.630000000000001</ele>
        <time>2018-07-04T12:05:53Z</time>
      </trkpt>
      <trkpt lat="49.592381967231631" lon="-1.302010975778103">
        <ele>12.630000000000001</ele>
        <time>2018-07-04T12:05:54Z</time>
      </trkpt>
      <trkpt lat="49.592414991930127" lon="-1.302355974912643">
        <ele>13.119999999999999</ele>
        <time>2018-07-04T12:05:58Z</time>
      </trkpt>
      <trkpt lat="49.592428989708424" lon="-1.302513973787427">
        <ele>13.6</ele>
        <time>2018-07-04T12:06:00Z</time>
      </trkpt>
      <trkpt lat="49.592437958344817" lon="-1.302603995427489">
        <ele>14.08</ele>
        <time>2018-07-04T12:06:01Z</time>
      </trkpt>
      <trkpt lat="49.592455979436636" lon="-1.302801975980401">
        <ele>15.039999999999999</ele>
        <time>2018-07-04T12:06:03Z</time>
      </trkpt>
      <trkpt lat="49.592465031892061" lon="-1.302898032590747">
        <ele>15.52</ele>
        <time>2018-07-04T12:06:04Z</time>
      </trkpt>
      <trkpt lat="49.592472994700074" lon="-1.302984030917287">
        <ele>16</ele>
        <time>2018-07-04T12:06:05Z</time>
      </trkpt>
      <trkpt lat="49.592481041327119" lon="-1.303063994273543">
        <ele>16.48</ele>
        <time>2018-07-04T12:06:06Z</time>
      </trkpt>
      <trkpt lat="49.592487998306751" lon="-1.30314202979207">
        <ele>16.960000000000001</ele>
        <time>2018-07-04T12:06:07Z</time>
      </trkpt>
      <trkpt lat="49.592494033277035" lon="-1.303210007026792">
        <ele>17.440000000000001</ele>
        <time>2018-07-04T12:06:08Z</time>
      </trkpt>
      <trkpt lat="49.592608027160168" lon="-1.303284019231796">
        <ele>17.920000000000002</ele>
        <time>2018-07-04T12:06:09Z</time>
      </trkpt>
      <trkpt lat="49.592662006616592" lon="-1.303288964554668">
        <ele>17.920000000000002</ele>
        <time>2018-07-04T12:06:10Z</time>
      </trkpt>
      <trkpt lat="49.592717997729778" lon="-1.30329399369657">
        <ele>18.399999999999999</ele>
        <time>2018-07-04T12:06:11Z</time>
      </trkpt>
      <trkpt lat="49.592771977186203" lon="-1.303298017010093">
        <ele>18.399999999999999</ele>
        <time>2018-07-04T12:06:12Z</time>
      </trkpt>
      <trkpt lat="49.593246979638934" lon="-1.303354008123279">
        <ele>21.289999999999999</ele>
        <time>2018-07-04T12:06:24Z</time>
      </trkpt>
      <trkpt lat="49.593541016802192" lon="-1.3034029584378">
        <ele>21.289999999999999</ele>
        <time>2018-07-04T12:06:31Z</time>
      </trkpt>
      <trkpt lat="49.593997998163104" lon="-1.303480993956327">
        <ele>20.809999999999999</ele>
        <time>2018-07-04T12:06:42Z</time>
      </trkpt>
      <trkpt lat="49.594048038125038" lon="-1.303489962592721">
        <ele>20.809999999999999</ele>
        <time>2018-07-04T12:06:43Z</time>
      </trkpt>
      <trkpt lat="49.594095982611179" lon="-1.303498009219766">
        <ele>20.809999999999999</ele>
        <time>2018-07-04T12:06:44Z</time>
      </trkpt>
      <trkpt lat="49.594424972310662" lon="-1.303484011441469">
        <ele>19.84</ele>
        <time>2018-07-04T12:06:49Z</time>
      </trkpt>
      <trkpt lat="49.594494039192796" lon="-1.303460961207748">
        <ele>19.359999999999999</ele>
        <time>2018-07-04T12:06:50Z</time>
      </trkpt>
      <trkpt lat="49.594603003934026" lon="-1.303425002843142">
        <ele>19.359999999999999</ele>
        <time>2018-07-04T12:06:51Z</time>
      </trkpt>
      <trkpt lat="49.594651032239199" lon="-1.303374040871859">
        <ele>18.879999999999999</ele>
        <time>2018-07-04T12:06:52Z</time>
      </trkpt>
      <trkpt lat="49.594721021130681" lon="-1.303300028666854">
        <ele>18.399999999999999</ele>
        <time>2018-07-04T12:06:53Z</time>
      </trkpt>
      <trkpt lat="49.5957319624722" lon="-1.302232006564736">
        <ele>16.48</ele>
        <time>2018-07-04T12:07:06Z</time>
      </trkpt>
      <trkpt lat="49.596646009013057" lon="-1.301261968910694">
        <ele>17.440000000000001</ele>
        <time>2018-07-04T12:07:17Z</time>
      </trkpt>
      <trkpt lat="49.59736299701035" lon="-1.300506005063653">
        <ele>18.399999999999999</ele>
        <time>2018-07-04T12:07:28Z</time>
      </trkpt>
      <trkpt lat="49.597746971994638" lon="-1.300103003159165">
        <ele>19.359999999999999</ele>
        <time>2018-07-04T12:07:37Z</time>
      </trkpt>
      <trkpt lat="49.598359018564224" lon="-1.299458015710115">
        <ele>19.84</ele>
        <time>2018-07-04T12:07:45Z</time>
      </trkpt>
      <trkpt lat="49.598406963050365" lon="-1.299406969919801">
        <ele>19.84</ele>
        <time>2018-07-04T12:07:47Z</time>
      </trkpt>
      <trkpt lat="49.598435964435339" lon="-1.299411999061704">
        <ele>19.84</ele>
        <time>2018-07-04T12:07:48Z</time>
      </trkpt>
      <trkpt lat="49.598402017727494" lon="-1.299413004890084">
        <ele>19.84</ele>
        <time>2018-07-04T12:07:49Z</time>
      </trkpt>
      <trkpt lat="49.598381984978914" lon="-1.299433959648013">
        <ele>19.84</ele>
        <time>2018-07-04T12:07:50Z</time>
      </trkpt>
      <trkpt lat="49.598358012735844" lon="-1.299459021538496">
        <ele>19.359999999999999</ele>
        <time>2018-07-04T12:07:51Z</time>
      </trkpt>
      <trkpt lat="49.598331023007631" lon="-1.299487017095089">
        <ele>19.359999999999999</ele>
        <time>2018-07-04T12:07:52Z</time>
      </trkpt>
      <trkpt lat="49.598256004974246" lon="-1.299565974622965">
        <ele>18.879999999999999</ele>
        <time>2018-07-04T12:07:54Z</time>
      </trkpt>
      <trkpt lat="49.59821904078126" lon="-1.299605034291744">
        <ele>18.399999999999999</ele>
        <time>2018-07-04T12:07:55Z</time>
      </trkpt>
      <trkpt lat="49.597811009734869" lon="-1.300035025924444">
        <ele>16.48</ele>
        <time>2018-07-04T12:08:03Z</time>
      </trkpt>
      <trkpt lat="49.597759963944554" lon="-1.300089005380869">
        <ele>16</ele>
        <time>2018-07-04T12:08:04Z</time>
      </trkpt>
      <trkpt lat="49.597717970609665" lon="-1.30013301037252">
        <ele>16</ele>
        <time>2018-07-04T12:08:05Z</time>
      </trkpt>
      <trkpt lat="49.597655022516847" lon="-1.300343982875347">
        <ele>16</ele>
        <time>2018-07-04T12:08:06Z</time>
      </trkpt>
      <trkpt lat="49.59768402390182" lon="-1.300402991473675">
        <ele>16</ele>
        <time>2018-07-04T12:08:07Z</time>
      </trkpt>
      <trkpt lat="49.59772601723671" lon="-1.30047800950706">
        <ele>16</ele>
        <time>2018-07-04T12:08:08Z</time>
      </trkpt>
      <trkpt lat="49.597773961722851" lon="-1.300559984520078">
        <ele>16.48</ele>
        <time>2018-07-04T12:08:09Z</time>
      </trkpt>
      <trkpt lat="49.597828024998307" lon="-1.300652017816901">
        <ele>16.48</ele>
        <time>2018-07-04T12:08:10Z</time>
      </trkpt>
      <trkpt lat="49.597887033596635" lon="-1.300753019750118">
        <ele>16.48</ele>
        <time>2018-07-04T12:08:11Z</time>
      </trkpt>
      <trkpt lat="49.597948975861073" lon="-1.300858967006207">
        <ele>16.48</ele>
        <time>2018-07-04T12:08:12Z</time>
      </trkpt>
      <trkpt lat="49.598545012995601" lon="-1.301921959966421">
        <ele>16</ele>
        <time>2018-07-04T12:08:21Z</time>
      </trkpt>
      <trkpt lat="49.598601004108787" lon="-1.302081970497966">
        <ele>14.56</ele>
        <time>2018-07-04T12:08:23Z</time>
      </trkpt>
      <trkpt lat="49.598622964695096" lon="-1.302142990753055">
        <ele>14.56</ele>
        <time>2018-07-04T12:08:24Z</time>
      </trkpt>
      <trkpt lat="49.5987160038203" lon="-1.302215997129679">
        <ele>14.08</ele>
        <time>2018-07-04T12:08:25Z</time>
      </trkpt>
      <trkpt lat="49.59878196939826" lon="-1.302182972431183">
        <ele>14.08</ele>
        <time>2018-07-04T12:08:26Z</time>
      </trkpt>
      <trkpt lat="49.598854975774884" lon="-1.302147014066577">
        <ele>14.08</ele>
        <time>2018-07-04T12:08:27Z</time>
      </trkpt>
      <trkpt lat="49.598927982151508" lon="-1.302108960226178">
        <ele>13.6</ele>
        <time>2018-07-04T12:08:28Z</time>
      </trkpt>
      <trkpt lat="49.599008029326797" lon="-1.302062021568418">
        <ele>13.6</ele>
        <time>2018-07-04T12:08:29Z</time>
      </trkpt>
      <trkpt lat="49.599836999550462" lon="-1.301634041592479">
        <ele>16.48</ele>
        <time>2018-07-04T12:08:36Z</time>
      </trkpt>
      <trkpt lat="49.599975971505046" lon="-1.301564974710345">
        <ele>16.960000000000001</ele>
        <time>2018-07-04T12:08:37Z</time>
      </trkpt>
      <trkpt lat="49.600121984258294" lon="-1.301528010517359">
        <ele>18.399999999999999</ele>
        <time>2018-07-04T12:08:39Z</time>
      </trkpt>
      <trkpt lat="49.600428007543087" lon="-1.301572015509009">
        <ele>19.359999999999999</ele>
        <time>2018-07-04T12:08:40Z</time>
      </trkpt>
      <trkpt lat="49.60105799138546" lon="-1.301887007430196">
        <ele>24.170000000000002</ele>
        <time>2018-07-04T12:08:44Z</time>
      </trkpt>
      <trkpt lat="49.601196963340044" lon="-1.301990021020174">
        <ele>25.609999999999999</ele>
        <time>2018-07-04T12:08:45Z</time>
      </trkpt>
      <trkpt lat="49.601469961926341" lon="-1.302192024886608">
        <ele>29.940000000000001</ele>
        <time>2018-07-04T12:08:47Z</time>
      </trkpt>
      <trkpt lat="49.601731980219483" lon="-1.302312975749373">
        <ele>34.259999999999998</ele>
        <time>2018-07-04T12:08:49Z</time>
      </trkpt>
      <trkpt lat="49.602319970726967" lon="-1.302428981289268">
        <ele>42.439999999999998</ele>
        <time>2018-07-04T12:08:53Z</time>
      </trkpt>
      <trkpt lat="49.602891029790044" lon="-1.302646994590759">
        <ele>46.759999999999998</ele>
        <time>2018-07-04T12:08:57Z</time>
      </trkpt>
      <trkpt lat="49.60421796888113" lon="-1.302894009277225">
        <ele>46.280000000000001</ele>
        <time>2018-07-04T12:09:05Z</time>
      </trkpt>
      <trkpt lat="49.604837978258729" lon="-1.302973972633481">
        <ele>46.759999999999998</ele>
        <time>2018-07-04T12:09:09Z</time>
      </trkpt>
      <trkpt lat="49.604990025982261" lon="-1.30305896513164">
        <ele>47.719999999999999</ele>
        <time>2018-07-04T12:09:10Z</time>
      </trkpt>
      <trkpt lat="49.605126986280084" lon="-1.303135994821787">
        <ele>48.200000000000003</ele>
        <time>2018-07-04T12:09:11Z</time>
      </trkpt>
      <trkpt lat="49.60552697069943" lon="-1.303359037265182">
        <ele>51.090000000000003</ele>
        <time>2018-07-04T12:09:14Z</time>
      </trkpt>
      <trkpt lat="49.605668960139155" lon="-1.303402036428452">
        <ele>52.049999999999997</ele>
        <time>2018-07-04T12:09:15Z</time>
      </trkpt>
      <trkpt lat="49.607025990262628" lon="-1.303587025031447">
        <ele>54.93</ele>
        <time>2018-07-04T12:09:24Z</time>
      </trkpt>
      <trkpt lat="49.607144007459283" lon="-1.303591970354319">
        <ele>54.93</ele>
        <time>2018-07-04T12:09:25Z</time>
      </trkpt>
      <trkpt lat="49.607259007170796" lon="-1.303575960919261">
        <ele>54.93</ele>
        <time>2018-07-04T12:09:26Z</time>
      </trkpt>
      <trkpt lat="49.607973983511329" lon="-1.303274966776371">
        <ele>51.090000000000003</ele>
        <time>2018-07-04T12:09:32Z</time>
      </trkpt>
      <trkpt lat="49.608208006247878" lon="-1.303044967353344">
        <ele>48.68</ele>
        <time>2018-07-04T12:09:34Z</time>
      </trkpt>
      <trkpt lat="49.608433982357383" lon="-1.302753025665879">
        <ele>46.759999999999998</ele>
        <time>2018-07-04T12:09:36Z</time>
      </trkpt>
      <trkpt lat="49.608575971797109" lon="-1.302683036774397">
        <ele>46.280000000000001</ele>
        <time>2018-07-04T12:09:37Z</time>
      </trkpt>
      <trkpt lat="49.608717039227486" lon="-1.302611958235502">
        <ele>46.280000000000001</ele>
        <time>2018-07-04T12:09:38Z</time>
      </trkpt>
      <trkpt lat="49.609002023935318" lon="-1.30249897018075">
        <ele>47.240000000000002</ele>
        <time>2018-07-04T12:09:40Z</time>
      </trkpt>
      <trkpt lat="49.609150970354676" lon="-1.302424035966396">
        <ele>47.719999999999999</ele>
        <time>2018-07-04T12:09:41Z</time>
      </trkpt>
      <trkpt lat="49.609284996986389" lon="-1.302312975749373">
        <ele>48.68</ele>
        <time>2018-07-04T12:09:42Z</time>
      </trkpt>
      <trkpt lat="49.609533017501235" lon="-1.302108038216829">
        <ele>51.090000000000003</ele>
        <time>2018-07-04T12:09:44Z</time>
      </trkpt>
      <trkpt lat="49.60965296253562" lon="-1.302038971334696">
        <ele>52.530000000000001</ele>
        <time>2018-07-04T12:09:45Z</time>
      </trkpt>
      <trkpt lat="49.609784977510571" lon="-1.302007958292961">
        <ele>53.969999999999999</ele>
        <time>2018-07-04T12:09:46Z</time>
      </trkpt>
      <trkpt lat="49.611258013173938" lon="-1.301722973585129">
        <ele>65.510000000000005</ele>
        <time>2018-07-04T12:09:56Z</time>
      </trkpt>
      <trkpt lat="49.611394973471761" lon="-1.301711993291974">
        <ele>66.469999999999999</ele>
        <time>2018-07-04T12:09:57Z</time>
      </trkpt>
      <trkpt lat="49.611531011760235" lon="-1.301725991070271">
        <ele>66.950000000000003</ele>
        <time>2018-07-04T12:09:58Z</time>
      </trkpt>
      <trkpt lat="49.611667972058058" lon="-1.301739988848567">
        <ele>67.909999999999997</ele>
        <time>2018-07-04T12:09:59Z</time>
      </trkpt>
      <trkpt lat="49.612947972491384" lon="-1.302148019894958">
        <ele>73.680000000000007</ele>
        <time>2018-07-04T12:10:07Z</time>
      </trkpt>
      <trkpt lat="49.614609014242887" lon="-1.302704997360706">
        <ele>87.140000000000001</ele>
        <time>2018-07-04T12:10:16Z</time>
      </trkpt>
      <trkpt lat="49.6147879678756" lon="-1.302781021222472">
        <ele>89.060000000000002</ele>
        <time>2018-07-04T12:10:17Z</time>
      </trkpt>
      <trkpt lat="49.614961976185441" lon="-1.302856039255858">
        <ele>90.5</ele>
        <time>2018-07-04T12:10:18Z</time>
      </trkpt>
      <trkpt lat="49.615127015858889" lon="-1.302980007603765">
        <ele>92.420000000000002</ele>
        <time>2018-07-04T12:10:19Z</time>
      </trkpt>
      <trkpt lat="49.615292977541685" lon="-1.303114034235477">
        <ele>94.349999999999994</ele>
        <time>2018-07-04T12:10:20Z</time>
      </trkpt>
      <trkpt lat="49.615454999729991" lon="-1.303245965391398">
        <ele>96.269999999999996</ele>
        <time>2018-07-04T12:10:21Z</time>
      </trkpt>
      <trkpt lat="49.615616016089916" lon="-1.303376974537969">
        <ele>97.709999999999994</ele>
        <time>2018-07-04T12:10:22Z</time>
      </trkpt>
      <trkpt lat="49.615791030228138" lon="-1.303483005613089">
        <ele>99.150000000000006</ele>
        <time>2018-07-04T12:10:23Z</time>
      </trkpt>
      <trkpt lat="49.617387028411031" lon="-1.304285991936922">
        <ele>111.65000000000001</ele>
        <time>2018-07-04T12:10:32Z</time>
      </trkpt>
      <trkpt lat="49.618903985247016" lon="-1.305009014904499">
        <ele>121.73999999999999</ele>
        <time>2018-07-04T12:10:40Z</time>
      </trkpt>
      <trkpt lat="49.620424965396523" lon="-1.30567797459662">
        <ele>125.59</ele>
        <time>2018-07-04T12:10:48Z</time>
      </trkpt>
      <trkpt lat="49.62144898250699" lon="-1.306250039488077">
        <ele>126.55</ele>
        <time>2018-07-04T12:10:54Z</time>
      </trkpt>
      <trkpt lat="49.621846033260226" lon="-1.306550027802587">
        <ele>126.55</ele>
        <time>2018-07-04T12:10:57Z</time>
      </trkpt>
      <trkpt lat="49.621978970244527" lon="-1.30671096034348">
        <ele>126.55</ele>
        <time>2018-07-04T12:10:58Z</time>
      </trkpt>
      <trkpt lat="49.622116014361382" lon="-1.30687901750207">
        <ele>126.06999999999999</ele>
        <time>2018-07-04T12:10:59Z</time>
      </trkpt>
      <trkpt lat="49.623627020046115" lon="-1.308952029794455">
        <ele>123.67</ele>
        <time>2018-07-04T12:11:09Z</time>
      </trkpt>
      <trkpt lat="49.624665034934878" lon="-1.310781966894865">
        <ele>122.70999999999999</ele>
        <time>2018-07-04T12:11:17Z</time>
      </trkpt>
      <trkpt lat="49.624875001609325" lon="-1.311294017359614">
        <ele>123.19</ele>
        <time>2018-07-04T12:11:19Z</time>
      </trkpt>
      <trkpt lat="49.624964017421007" lon="-1.311553018167615">
        <ele>123.19</ele>
        <time>2018-07-04T12:11:20Z</time>
      </trkpt>
      <trkpt lat="49.625040041282773" lon="-1.31182299926877">
        <ele>123.19</ele>
        <time>2018-07-04T12:11:21Z</time>
      </trkpt>
      <trkpt lat="49.625554019585252" lon="-1.313685961067677">
        <ele>127.51000000000001</ele>
        <time>2018-07-04T12:11:28Z</time>
      </trkpt>
      <trkpt lat="49.626390030607581" lon="-1.315687978640199">
        <ele>128.94999999999999</ele>
        <time>2018-07-04T12:11:36Z</time>
      </trkpt>
      <trkpt lat="49.626909038051963" lon="-1.316617028787732">
        <ele>126.55</ele>
        <time>2018-07-04T12:11:41Z</time>
      </trkpt>
      <trkpt lat="49.627911010757089" lon="-1.317616989836097">
        <ele>121.73999999999999</ele>
        <time>2018-07-04T12:11:48Z</time>
      </trkpt>
      <trkpt lat="49.628056017681956" lon="-1.317758979275823">
        <ele>120.78</ele>
        <time>2018-07-04T12:11:49Z</time>
      </trkpt>
      <trkpt lat="49.628179986029863" lon="-1.317964000627399">
        <ele>120.3</ele>
        <time>2018-07-04T12:11:50Z</time>
      </trkpt>
      <trkpt lat="49.628840982913971" lon="-1.319026993587613">
        <ele>115.98</ele>
        <time>2018-07-04T12:11:55Z</time>
      </trkpt>
      <trkpt lat="49.628981966525316" lon="-1.319196978583932">
        <ele>115.01000000000001</ele>
        <time>2018-07-04T12:11:56Z</time>
      </trkpt>
      <trkpt lat="49.630345031619072" lon="-1.320698009803891">
        <ele>106.84</ele>
        <time>2018-07-04T12:12:05Z</time>
      </trkpt>
      <trkpt lat="49.63143995963037" lon="-1.322064008563757">
        <ele>98.189999999999998</ele>
        <time>2018-07-04T12:12:13Z</time>
      </trkpt>
      <trkpt lat="49.632288962602615" lon="-1.323192967101932">
        <ele>92.420000000000002</ele>
        <time>2018-07-04T12:12:20Z</time>
      </trkpt>
      <trkpt lat="49.632500018924475" lon="-1.323390025645495">
        <ele>90.019999999999996</ele>
        <time>2018-07-04T12:12:22Z</time>
      </trkpt>
      <trkpt lat="49.632624993100762" lon="-1.323449034243822">
        <ele>89.540000000000006</ele>
        <time>2018-07-04T12:12:23Z</time>
      </trkpt>
      <trkpt lat="49.63291903026402" lon="-1.323585994541645">
        <ele>87.620000000000005</ele>
        <time>2018-07-04T12:12:25Z</time>
      </trkpt>
      <trkpt lat="49.634157959371805" lon="-1.324183037504554">
        <ele>80.409999999999997</ele>
        <time>2018-07-04T12:12:32Z</time>
      </trkpt>
      <trkpt lat="49.634322999045253" lon="-1.324299965053797">
        <ele>80.409999999999997</ele>
        <time>2018-07-04T12:12:33Z</time>
      </trkpt>
      <trkpt lat="49.634473035112023" lon="-1.324407001957297">
        <ele>80.409999999999997</ele>
        <time>2018-07-04T12:12:34Z</time>
      </trkpt>
      <trkpt lat="49.63461703620851" lon="-1.324509009718895">
        <ele>79.450000000000003</ele>
        <time>2018-07-04T12:12:35Z</time>
      </trkpt>
      <trkpt lat="49.634933033958077" lon="-1.324750995263457">
        <ele>76.560000000000002</ele>
        <time>2018-07-04T12:12:37Z</time>
      </trkpt>
      <trkpt lat="49.635072005912662" lon="-1.324929026886821">
        <ele>75.120000000000005</ele>
        <time>2018-07-04T12:12:38Z</time>
      </trkpt>
      <trkpt lat="49.635341987013817" lon="-1.325273020192981">
        <ele>71.760000000000005</ele>
        <time>2018-07-04T12:12:40Z</time>
      </trkpt>
      <trkpt lat="49.635467967018485" lon="-1.325464965775609">
        <ele>70.310000000000002</ele>
        <time>2018-07-04T12:12:41Z</time>
      </trkpt>
      <trkpt lat="49.636676972731948" lon="-1.326988963410258">
        <ele>55.409999999999997</ele>
        <time>2018-07-04T12:12:50Z</time>
      </trkpt>
      <trkpt lat="49.637892013415694" lon="-1.328010968863964">
        <ele>44.359999999999999</ele>
        <time>2018-07-04T12:12:57Z</time>
      </trkpt>
      <trkpt lat="49.638272970914841" lon="-1.328268041834235">
        <ele>40.990000000000002</ele>
        <time>2018-07-04T12:13:00Z</time>
      </trkpt>
      <trkpt lat="49.638400040566921" lon="-1.328325038775802">
        <ele>39.549999999999997</ele>
        <time>2018-07-04T12:13:01Z</time>
      </trkpt>
      <trkpt lat="49.638529038056731" lon="-1.328383041545749">
        <ele>39.07</ele>
        <time>2018-07-04T12:13:02Z</time>
      </trkpt>
      <trkpt lat="49.638675972819328" lon="-1.328380024060607">
        <ele>38.109999999999999</ele>
        <time>2018-07-04T12:13:03Z</time>
      </trkpt>
      <trkpt lat="49.638819973915815" lon="-1.328350016847253">
        <ele>36.670000000000002</ele>
        <time>2018-07-04T12:13:04Z</time>
      </trkpt>
      <trkpt lat="49.638976966962218" lon="-1.328317997977138">
        <ele>35.710000000000001</ele>
        <time>2018-07-04T12:13:05Z</time>
      </trkpt>
      <trkpt lat="49.639144018292427" lon="-1.328282961621881">
        <ele>34.259999999999998</ele>
        <time>2018-07-04T12:13:06Z</time>
      </trkpt>
      <trkpt lat="49.640421001240611" lon="-1.328063020482659">
        <ele>24.170000000000002</ele>
        <time>2018-07-04T12:13:13Z</time>
      </trkpt>
      <trkpt lat="49.64059199206531" lon="-1.328095961362124">
        <ele>23.210000000000001</ele>
        <time>2018-07-04T12:13:14Z</time>
      </trkpt>
      <trkpt lat="49.641670994460583" lon="-1.328278016299009">
        <ele>20.32</ele>
        <time>2018-07-04T12:13:21Z</time>
      </trkpt>
      <trkpt lat="49.642046000808477" lon="-1.328315986320376">
        <ele>19.359999999999999</ele>
        <time>2018-07-04T12:13:24Z</time>
      </trkpt>
      <trkpt lat="49.642154965549707" lon="-1.328382035717368">
        <ele>19.359999999999999</ele>
        <time>2018-07-04T12:13:25Z</time>
      </trkpt>
      <trkpt lat="49.642272982746363" lon="-1.328454036265612">
        <ele>18.879999999999999</ele>
        <time>2018-07-04T12:13:26Z</time>
      </trkpt>
      <trkpt lat="49.642392005771399" lon="-1.328526036813855">
        <ele>18.879999999999999</ele>
        <time>2018-07-04T12:13:27Z</time>
      </trkpt>
      <trkpt lat="49.642507005482912" lon="-1.328596025705338">
        <ele>18.879999999999999</ele>
        <time>2018-07-04T12:13:28Z</time>
      </trkpt>
      <trkpt lat="49.642607001587749" lon="-1.328689986839891">
        <ele>18.399999999999999</ele>
        <time>2018-07-04T12:13:29Z</time>
      </trkpt>
      <trkpt lat="49.64269501157105" lon="-1.328785959631205">
        <ele>18.399999999999999</ele>
        <time>2018-07-04T12:13:30Z</time>
      </trkpt>
      <trkpt lat="49.642930962145329" lon="-1.329044960439205">
        <ele>17.920000000000002</ele>
        <time>2018-07-04T12:13:33Z</time>
      </trkpt>
      <trkpt lat="49.64299701154232" lon="-1.329114027321339">
        <ele>17.920000000000002</ele>
        <time>2018-07-04T12:13:34Z</time>
      </trkpt>
      <trkpt lat="49.643070017918944" lon="-1.32916297763586">
        <ele>17.920000000000002</ele>
        <time>2018-07-04T12:13:35Z</time>
      </trkpt>
      <trkpt lat="49.643137995153666" lon="-1.329207988455892">
        <ele>17.920000000000002</ele>
        <time>2018-07-04T12:13:36Z</time>
      </trkpt>
      <trkpt lat="49.643204966560006" lon="-1.32924797013402">
        <ele>17.920000000000002</ele>
        <time>2018-07-04T12:13:37Z</time>
      </trkpt>
      <trkpt lat="49.643716011196375" lon="-1.329513005912304">
        <ele>20.32</ele>
        <time>2018-07-04T12:13:46Z</time>
      </trkpt>
      <trkpt lat="49.643794968724251" lon="-1.329476963728666">
        <ele>20.809999999999999</ele>
        <time>2018-07-04T12:13:52Z</time>
      </trkpt>
      <trkpt lat="49.643799997866154" lon="-1.329432958737016">
        <ele>21.289999999999999</ele>
        <time>2018-07-04T12:13:53Z</time>
      </trkpt>
      <trkpt lat="49.643807960674167" lon="-1.329359030351043">
        <ele>21.289999999999999</ele>
        <time>2018-07-04T12:13:54Z</time>
      </trkpt>
      <trkpt lat="49.643819024786353" lon="-1.329251993447542">
        <ele>21.289999999999999</ele>
        <time>2018-07-04T12:13:55Z</time>
      </trkpt>
      <trkpt lat="49.643832016736269" lon="-1.329128025099635">
        <ele>21.77</ele>
        <time>2018-07-04T12:13:56Z</time>
      </trkpt>
      <trkpt lat="49.64398599229753" lon="-1.32763403467834">
        <ele>22.25</ele>
        <time>2018-07-04T12:14:05Z</time>
      </trkpt>
      <trkpt lat="49.64415798895061" lon="-1.325299004092813">
        <ele>19.84</ele>
        <time>2018-07-04T12:14:15Z</time>
      </trkpt>
      <trkpt lat="49.644095962867141" lon="-1.323512988165021">
        <ele>18.879999999999999</ele>
        <time>2018-07-04T12:14:23Z</time>
      </trkpt>
      <trkpt lat="49.644072996452451" lon="-1.323288017883897">
        <ele>17.920000000000002</ele>
        <time>2018-07-04T12:14:24Z</time>
      </trkpt>
      <trkpt lat="49.643936036154628" lon="-1.320865983143449">
        <ele>17.440000000000001</ele>
        <time>2018-07-04T12:14:34Z</time>
      </trkpt>
      <trkpt lat="49.643953973427415" lon="-1.32063003256917">
        <ele>17.440000000000001</ele>
        <time>2018-07-04T12:14:35Z</time>
      </trkpt>
      <trkpt lat="49.644341971725225" lon="-1.318765981122851">
        <ele>19.84</ele>
        <time>2018-07-04T12:14:42Z</time>
      </trkpt>
      <trkpt lat="49.644861984997988" lon="-1.316058039665222">
        <ele>17.440000000000001</ele>
        <time>2018-07-04T12:14:51Z</time>
      </trkpt>
      <trkpt lat="49.644900038838387" lon="-1.313768019899726">
        <ele>13.6</ele>
        <time>2018-07-04T12:14:59Z</time>
      </trkpt>
      <trkpt lat="49.644946977496147" lon="-1.313551012426615">
        <ele>13.6</ele>
        <time>2018-07-04T12:15:00Z</time>
      </trkpt>
      <trkpt lat="49.645005986094475" lon="-1.313328975811601">
        <ele>13.119999999999999</ele>
        <time>2018-07-04T12:15:01Z</time>
      </trkpt>
      <trkpt lat="49.645355008542538" lon="-1.312438985332847">
        <ele>13.6</ele>
        <time>2018-07-04T12:15:05Z</time>
      </trkpt>
      <trkpt lat="49.645471014082432" lon="-1.312233963981271">
        <ele>13.6</ele>
        <time>2018-07-04T12:15:06Z</time>
      </trkpt>
      <trkpt lat="49.645779971033335" lon="-1.311772037297487">
        <ele>14.56</ele>
        <time>2018-07-04T12:15:09Z</time>
      </trkpt>
      <trkpt lat="49.645887007936835" lon="-1.311665000393987">
        <ele>15.039999999999999</ele>
        <time>2018-07-04T12:15:10Z</time>
      </trkpt>
      <trkpt lat="49.645993039011955" lon="-1.311614960432053">
        <ele>15.52</ele>
        <time>2018-07-04T12:15:11Z</time>
      </trkpt>
      <trkpt lat="49.646106027066708" lon="-1.311561986804009">
        <ele>16</ele>
        <time>2018-07-04T12:15:12Z</time>
      </trkpt>
      <trkpt lat="49.646213985979557" lon="-1.311511024832726">
        <ele>16.48</ele>
        <time>2018-07-04T12:15:13Z</time>
      </trkpt>
      <trkpt lat="49.646523026749492" lon="-1.311366017907858">
        <ele>16.960000000000001</ele>
        <time>2018-07-04T12:15:16Z</time>
      </trkpt>
      <trkpt lat="49.646624028682709" lon="-1.311310026794672">
        <ele>16.960000000000001</ele>
        <time>2018-07-04T12:15:17Z</time>
      </trkpt>
      <trkpt lat="49.646710027009249" lon="-1.311186980456114">
        <ele>17.440000000000001</ele>
        <time>2018-07-04T12:15:18Z</time>
      </trkpt>
      <trkpt lat="49.646810023114085" lon="-1.311041973531246">
        <ele>16.960000000000001</ele>
        <time>2018-07-04T12:15:19Z</time>
      </trkpt>
      <trkpt lat="49.646878000348806" lon="-1.310866037383676">
        <ele>16.960000000000001</ele>
        <time>2018-07-04T12:15:20Z</time>
      </trkpt>
      <trkpt lat="49.646954024210572" lon="-1.310671996325254">
        <ele>17.440000000000001</ele>
        <time>2018-07-04T12:15:21Z</time>
      </trkpt>
      <trkpt lat="49.647033987566829" lon="-1.310464963316917">
        <ele>17.440000000000001</ele>
        <time>2018-07-04T12:15:22Z</time>
      </trkpt>
      <trkpt lat="49.647259963676333" lon="-1.309884013608098">
        <ele>17.440000000000001</ele>
        <time>2018-07-04T12:15:25Z</time>
      </trkpt>
      <trkpt lat="49.647369012236595" lon="-1.309714028611779">
        <ele>17.440000000000001</ele>
        <time>2018-07-04T12:15:26Z</time>
      </trkpt>
      <trkpt lat="49.647476971149445" lon="-1.309581007808447">
        <ele>16.960000000000001</ele>
        <time>2018-07-04T12:15:27Z</time>
      </trkpt>
      <trkpt lat="49.647602029144764" lon="-1.309456033632159">
        <ele>16.960000000000001</ele>
        <time>2018-07-04T12:15:28Z</time>
      </trkpt>
      <trkpt lat="49.647738989442587" lon="-1.309334998950362">
        <ele>16.960000000000001</ele>
        <time>2018-07-04T12:15:29Z</time>
      </trkpt>
      <trkpt lat="49.649138012900949" lon="-1.308355992659926">
        <ele>16.48</ele>
        <time>2018-07-04T12:15:37Z</time>
      </trkpt>
      <trkpt lat="49.650212991982698" lon="-1.307544037699699">
        <ele>16.960000000000001</ele>
        <time>2018-07-04T12:15:44Z</time>
      </trkpt>
      <trkpt lat="49.650349030271173" lon="-1.307481005787849">
        <ele>16.960000000000001</ele>
        <time>2018-07-04T12:15:45Z</time>
      </trkpt>
      <trkpt lat="49.650779021903872" lon="-1.307283025234938">
        <ele>16.48</ele>
        <time>2018-07-04T12:15:48Z</time>
      </trkpt>
      <trkpt lat="49.650901984423399" lon="-1.307226028293371">
        <ele>16.48</ele>
        <time>2018-07-04T12:15:49Z</time>
      </trkpt>
      <trkpt lat="49.650978008285165" lon="-1.307099964469671">
        <ele>16.48</ele>
        <time>2018-07-04T12:15:50Z</time>
      </trkpt>
      <trkpt lat="49.651041040197015" lon="-1.306990999728441">
        <ele>16</ele>
        <time>2018-07-04T12:15:51Z</time>
      </trkpt>
      <trkpt lat="49.651087978854775" lon="-1.30688002333045">
        <ele>16</ele>
        <time>2018-07-04T12:15:52Z</time>
      </trkpt>
      <trkpt lat="49.651115974411368" lon="-1.306739961728454">
        <ele>15.52</ele>
        <time>2018-07-04T12:15:53Z</time>
      </trkpt>
      <trkpt lat="49.651143969967961" lon="-1.306594032794237">
        <ele>15.039999999999999</ele>
        <time>2018-07-04T12:15:54Z</time>
      </trkpt>
      <trkpt lat="49.651390984654427" lon="-1.30546398460865">
        <ele>14.08</ele>
        <time>2018-07-04T12:16:01Z</time>
      </trkpt>
      <trkpt lat="49.651452004909515" lon="-1.305289976298809">
        <ele>14.08</ele>
        <time>2018-07-04T12:16:02Z</time>
      </trkpt>
      <trkpt lat="49.651980986818671" lon="-1.303802020847797">
        <ele>15.039999999999999</ele>
        <time>2018-07-04T12:16:09Z</time>
      </trkpt>
      <trkpt lat="49.652119036763906" lon="-1.303253006190062">
        <ele>15.039999999999999</ele>
        <time>2018-07-04T12:16:12Z</time>
      </trkpt>
      <trkpt lat="49.652263037860394" lon="-1.302410960197449">
        <ele>14.08</ele>
        <time>2018-07-04T12:16:17Z</time>
      </trkpt>
      <trkpt lat="49.65272999368608" lon="-1.300732987001538">
        <ele>15.039999999999999</ele>
        <time>2018-07-04T12:16:26Z</time>
      </trkpt>
      <trkpt lat="49.653009027242661" lon="-1.299888007342815">
        <ele>16.48</ele>
        <time>2018-07-04T12:16:30Z</time>
      </trkpt>
      <trkpt lat="49.653107011690736" lon="-1.299721961840987">
        <ele>16.48</ele>
        <time>2018-07-04T12:16:31Z</time>
      </trkpt>
      <trkpt lat="49.653231985867023" lon="-1.299587013199925">
        <ele>16.960000000000001</ele>
        <time>2018-07-04T12:16:32Z</time>
      </trkpt>
      <trkpt lat="49.654315011575818" lon="-1.2984589766711">
        <ele>18.879999999999999</ele>
        <time>2018-07-04T12:16:40Z</time>
      </trkpt>
      <trkpt lat="49.654504023492336" lon="-1.298263007774949">
        <ele>18.879999999999999</ele>
        <time>2018-07-04T12:16:42Z</time>
      </trkpt>
      <trkpt lat="49.654601002112031" lon="-1.298262001946569">
        <ele>19.359999999999999</ele>
        <time>2018-07-04T12:16:43Z</time>
      </trkpt>
      <trkpt lat="49.654693035408854" lon="-1.298270970582962">
        <ele>19.359999999999999</ele>
        <time>2018-07-04T12:16:44Z</time>
      </trkpt>
      <trkpt lat="49.654858997091651" lon="-1.2982879858464">
        <ele>19.84</ele>
        <time>2018-07-04T12:16:46Z</time>
      </trkpt>
      <trkpt lat="49.654927980154753" lon="-1.298295026645064">
        <ele>20.32</ele>
        <time>2018-07-04T12:16:47Z</time>
      </trkpt>
      <trkpt lat="49.654982965439558" lon="-1.298245992511511">
        <ele>20.32</ele>
        <time>2018-07-04T12:16:48Z</time>
      </trkpt>
      <trkpt lat="49.655027976259589" lon="-1.298188995569944">
        <ele>20.809999999999999</ele>
        <time>2018-07-04T12:16:49Z</time>
      </trkpt>
      <trkpt lat="49.655076004564762" lon="-1.298073995858431">
        <ele>20.809999999999999</ele>
        <time>2018-07-04T12:16:50Z</time>
      </trkpt>
      <trkpt lat="49.655129984021187" lon="-1.297940975055099">
        <ele>20.809999999999999</ele>
        <time>2018-07-04T12:16:51Z</time>
      </trkpt>
      <trkpt lat="49.655192010104656" lon="-1.29779102280736">
        <ele>21.289999999999999</ele>
        <time>2018-07-04T12:16:52Z</time>
      </trkpt>
      <trkpt lat="49.6558010391891" lon="-1.296397028490901">
        <ele>23.690000000000001</ele>
        <time>2018-07-04T12:16:59Z</time>
      </trkpt>
      <trkpt lat="49.656592961400747" lon="-1.294373972341418">
        <ele>23.690000000000001</ele>
        <time>2018-07-04T12:17:08Z</time>
      </trkpt>
      <trkpt lat="49.657752010971308" lon="-1.292201969772577">
        <ele>22.73</ele>
        <time>2018-07-04T12:17:19Z</time>
      </trkpt>
      <trkpt lat="49.658252997323871" lon="-1.291383979842067">
        <ele>21.77</ele>
        <time>2018-07-04T12:17:24Z</time>
      </trkpt>
      <trkpt lat="49.658345030620694" lon="-1.291289012879133">
        <ele>21.77</ele>
        <time>2018-07-04T12:17:25Z</time>
      </trkpt>
      <trkpt lat="49.658447960391641" lon="-1.291251964867115">
        <ele>21.77</ele>
        <time>2018-07-04T12:17:26Z</time>
      </trkpt>
      <trkpt lat="49.658557008951902" lon="-1.291212989017367">
        <ele>21.77</ele>
        <time>2018-07-04T12:17:27Z</time>
      </trkpt>
      <trkpt lat="49.658675026148558" lon="-1.291170995682478">
        <ele>21.289999999999999</ele>
        <time>2018-07-04T12:17:28Z</time>
      </trkpt>
      <trkpt lat="49.659856958314776" lon="-1.290712002664805">
        <ele>22.73</ele>
        <time>2018-07-04T12:17:36Z</time>
      </trkpt>
      <trkpt lat="49.661356983706355" lon="-1.289797034114599">
        <ele>22.25</ele>
        <time>2018-07-04T12:17:45Z</time>
      </trkpt>
      <trkpt lat="49.662997992709279" lon="-1.288363980129361">
        <ele>20.809999999999999</ele>
        <time>2018-07-04T12:17:54Z</time>
      </trkpt>
      <trkpt lat="49.664123011752963" lon="-1.287002004683018">
        <ele>19.84</ele>
        <time>2018-07-04T12:18:01Z</time>
      </trkpt>
      <trkpt lat="49.664971008896828" lon="-1.285510025918484">
        <ele>18.399999999999999</ele>
        <time>2018-07-04T12:18:08Z</time>
      </trkpt>
      <trkpt lat="49.665622031316161" lon="-1.28344003111124">
        <ele>17.440000000000001</ele>
        <time>2018-07-04T12:18:16Z</time>
      </trkpt>
      <trkpt lat="49.665738036856055" lon="-1.28294600173831">
        <ele>17.440000000000001</ele>
        <time>2018-07-04T12:18:18Z</time>
      </trkpt>
      <trkpt lat="49.66622200794518" lon="-1.280762013047934">
        <ele>15.52</ele>
        <time>2018-07-04T12:18:26Z</time>
      </trkpt>
      <trkpt lat="49.666402973234653" lon="-1.279989033937454">
        <ele>15.039999999999999</ele>
        <time>2018-07-04T12:18:29Z</time>
      </trkpt>
      <trkpt lat="49.666458964347839" lon="-1.279733972623944">
        <ele>15.039999999999999</ele>
        <time>2018-07-04T12:18:30Z</time>
      </trkpt>
      <trkpt lat="49.666805975139141" lon="-1.278060022741556">
        <ele>13.6</ele>
        <time>2018-07-04T12:18:37Z</time>
      </trkpt>
      <trkpt lat="49.666835982352495" lon="-1.277647968381643">
        <ele>13.119999999999999</ele>
        <time>2018-07-04T12:18:39Z</time>
      </trkpt>
      <trkpt lat="49.666812010109425" lon="-1.277438001707196">
        <ele>12.630000000000001</ele>
        <time>2018-07-04T12:18:40Z</time>
      </trkpt>
      <trkpt lat="49.666788959875703" lon="-1.277229962870479">
        <ele>12.15</ele>
        <time>2018-07-04T12:18:41Z</time>
      </trkpt>
      <trkpt lat="49.666731962934136" lon="-1.276563014835119">
        <ele>12.15</ele>
        <time>2018-07-04T12:18:44Z</time>
      </trkpt>
      <trkpt lat="49.66676096431911" lon="-1.276321029290557">
        <ele>11.67</ele>
        <time>2018-07-04T12:18:45Z</time>
      </trkpt>
      <trkpt lat="49.666799018159509" lon="-1.276082983240485">
        <ele>11.67</ele>
        <time>2018-07-04T12:18:46Z</time>
      </trkpt>
      <trkpt lat="49.667281983420253" lon="-1.273553995415568">
        <ele>12.15</ele>
        <time>2018-07-04T12:18:57Z</time>
      </trkpt>
      <trkpt lat="49.667562022805214" lon="-1.272235019132495">
        <ele>11.67</ele>
        <time>2018-07-04T12:19:05Z</time>
      </trkpt>
      <trkpt lat="49.667914984747767" lon="-1.270324029028416">
        <ele>9.75</ele>
        <time>2018-07-04T12:19:17Z</time>
      </trkpt>
      <trkpt lat="49.667953038588166" lon="-1.27003401517868">
        <ele>9.75</ele>
        <time>2018-07-04T12:19:19Z</time>
      </trkpt>
      <trkpt lat="49.667972987517715" lon="-1.269882973283529">
        <ele>9.27</ele>
        <time>2018-07-04T12:19:20Z</time>
      </trkpt>
      <trkpt lat="49.668116988614202" lon="-1.268696011975408">
        <ele>9.27</ele>
        <time>2018-07-04T12:19:30Z</time>
      </trkpt>
      <trkpt lat="49.66815697029233" lon="-1.268503982573748">
        <ele>8.310000000000001</ele>
        <time>2018-07-04T12:19:37Z</time>
      </trkpt>
      <trkpt lat="49.6681999694556" lon="-1.268426030874252">
        <ele>8.310000000000001</ele>
        <time>2018-07-04T12:19:38Z</time>
      </trkpt>
      <trkpt lat="49.668247997760773" lon="-1.268338020890951">
        <ele>8.310000000000001</ele>
        <time>2018-07-04T12:19:39Z</time>
      </trkpt>
      <trkpt lat="49.668850991874933" lon="-1.267253989353776">
        <ele>10.710000000000001</ele>
        <time>2018-07-04T12:19:50Z</time>
      </trkpt>
      <trkpt lat="49.669404029846191" lon="-1.26623198390007">
        <ele>11.67</ele>
        <time>2018-07-04T12:20:01Z</time>
      </trkpt>
      <trkpt lat="49.669435964897275" lon="-1.266161995008588">
        <ele>12.15</ele>
        <time>2018-07-04T12:20:02Z</time>
      </trkpt>
      <trkpt lat="49.66946798376739" lon="-1.266092006117106">
        <ele>12.15</ele>
        <time>2018-07-04T12:20:03Z</time>
      </trkpt>
      <trkpt lat="49.669597987085581" lon="-1.265810038894415">
        <ele>14.08</ele>
        <time>2018-07-04T12:20:13Z</time>
      </trkpt>
      <trkpt lat="49.669597987085581" lon="-1.265810038894415">
        <ele>14.56</ele>
        <time>2018-07-04T12:20:25Z</time>
      </trkpt>
      <trkpt lat="49.669597987085581" lon="-1.265810038894415">
        <ele>14.56</ele>
        <time>2018-07-04T12:20:26Z</time>
      </trkpt>
      <trkpt lat="49.669502014294267" lon="-1.265713982284069">
        <ele>14.56</ele>
        <time>2018-07-04T12:20:27Z</time>
      </trkpt>
      <trkpt lat="49.669449040666223" lon="-1.265661008656025">
        <ele>14.56</ele>
        <time>2018-07-04T12:20:28Z</time>
      </trkpt>
      <trkpt lat="49.669387014582753" lon="-1.265598982572556">
        <ele>14.56</ele>
        <time>2018-07-04T12:20:29Z</time>
      </trkpt>
      <trkpt lat="49.669320965185761" lon="-1.265533016994596">
        <ele>14.56</ele>
        <time>2018-07-04T12:20:30Z</time>
      </trkpt>
      <trkpt lat="49.668644964694977" lon="-1.264857016503811">
        <ele>13.119999999999999</ele>
        <time>2018-07-04T12:20:40Z</time>
      </trkpt>
      <trkpt lat="49.668611017987132" lon="-1.264821980148554">
        <ele>13.119999999999999</ele>
        <time>2018-07-04T12:20:41Z</time>
      </trkpt>
      <trkpt lat="49.66858402825892" lon="-1.26477001234889">
        <ele>13.119999999999999</ele>
        <time>2018-07-04T12:20:42Z</time>
      </trkpt>
      <trkpt lat="49.668556032702327" lon="-1.264713015407324">
        <ele>13.119999999999999</ele>
        <time>2018-07-04T12:20:43Z</time>
      </trkpt>
      <trkpt lat="49.668525019660592" lon="-1.264650989323854">
        <ele>12.630000000000001</ele>
        <time>2018-07-04T12:20:44Z</time>
      </trkpt>
      <trkpt lat="49.668502975255251" lon="-1.264607990160584">
        <ele>12.630000000000001</ele>
        <time>2018-07-04T12:20:45Z</time>
      </trkpt>
      <trkpt lat="49.66828303411603" lon="-1.263900976628065">
        <ele>8.789999999999999</ele>
        <time>2018-07-04T12:20:56Z</time>
      </trkpt>
      <trkpt lat="49.668271970003843" lon="-1.263865018263459">
        <ele>7.83</ele>
        <time>2018-07-04T12:20:59Z</time>
      </trkpt>
      <trkpt lat="49.668273981660604" lon="-1.263777008280158">
        <ele>7.35</ele>
        <time>2018-07-04T12:21:00Z</time>
      </trkpt>
      <trkpt lat="49.668308012187481" lon="-1.263784971088171">
        <ele>7.35</ele>
        <time>2018-07-04T12:21:01Z</time>
      </trkpt>
      <trkpt lat="49.668357968330383" lon="-1.263796035200357">
        <ele>6.87</ele>
        <time>2018-07-04T12:21:02Z</time>
      </trkpt>
      <trkpt lat="49.668439021334052" lon="-1.263813972473145">
        <ele>6.87</ele>
        <time>2018-07-04T12:21:03Z</time>
      </trkpt>
      <trkpt lat="49.66849802993238" lon="-1.263778014108539">
        <ele>6.87</ele>
        <time>2018-07-04T12:21:04Z</time>
      </trkpt>
      <trkpt lat="49.668566007167101" lon="-1.263736020773649">
        <ele>6.87</ele>
        <time>2018-07-04T12:21:05Z</time>
      </trkpt>
      <trkpt lat="49.668634990230203" lon="-1.263693021610379">
        <ele>7.35</ele>
        <time>2018-07-04T12:21:06Z</time>
      </trkpt>
      <trkpt lat="49.669224992394447" lon="-1.263428991660476">
        <ele>9.27</ele>
        <time>2018-07-04T12:21:16Z</time>
      </trkpt>
      <trkpt lat="49.669260028749704" lon="-1.263429997488856">
        <ele>9.27</ele>
        <time>2018-07-04T12:21:17Z</time>
      </trkpt>
      <trkpt lat="49.669349966570735" lon="-1.26343603245914">
        <ele>9.27</ele>
        <time>2018-07-04T12:21:21Z</time>
      </trkpt>
      <trkpt lat="49.669349966570735" lon="-1.26343603245914">
        <ele>9.27</ele>
        <time>2018-07-04T12:21:38Z</time>
      </trkpt>
      <trkpt lat="49.669349966570735" lon="-1.26343603245914">
        <ele>9.75</ele>
        <time>2018-07-04T12:22:19Z</time>
      </trkpt>
      <trkpt lat="49.669349966570735" lon="-1.26343603245914">
        <ele>9.75</ele>
        <time>2018-07-04T12:23:07Z</time>
      </trkpt>
      <trkpt lat="49.669349966570735" lon="-1.26343603245914">
        <ele>9.75</ele>
        <time>2018-07-04T12:24:00Z</time>
      </trkpt>
      <trkpt lat="49.669541995972395" lon="-1.263450030237436">
        <ele>9.75</ele>
        <time>2018-07-04T12:24:26Z</time>
      </trkpt>
      <trkpt lat="49.669834021478891" lon="-1.263470984995365">
        <ele>8.789999999999999</ele>
        <time>2018-07-04T12:24:34Z</time>
      </trkpt>
      <trkpt lat="49.669848019257188" lon="-1.263490011915565">
        <ele>8.310000000000001</ele>
        <time>2018-07-04T12:24:35Z</time>
      </trkpt>
      <trkpt lat="49.669858999550343" lon="-1.263505015522242">
        <ele>8.310000000000001</ele>
        <time>2018-07-04T12:24:36Z</time>
      </trkpt>
      <trkpt lat="49.669834021478891" lon="-1.263470984995365">
        <ele>8.310000000000001</ele>
        <time>2018-07-04T12:24:37Z</time>
      </trkpt>
      <trkpt lat="49.669834021478891" lon="-1.263470984995365">
        <ele>8.310000000000001</ele>
        <time>2018-07-04T12:24:38Z</time>
      </trkpt>
      <trkpt lat="49.669972993433475" lon="-1.2634829711169">
        <ele>8.310000000000001</ele>
        <time>2018-07-04T12:24:39Z</time>
      </trkpt>
      <trkpt lat="49.670273987576365" lon="-1.263508033007383">
        <ele>8.310000000000001</ele>
        <time>2018-07-04T12:24:44Z</time>
      </trkpt>
      <trkpt lat="49.67032696120441" lon="-1.263512978330255">
        <ele>7.83</ele>
        <time>2018-07-04T12:24:45Z</time>
      </trkpt>
      <trkpt lat="49.670374989509583" lon="-1.263517001643777">
        <ele>8.310000000000001</ele>
        <time>2018-07-04T12:24:46Z</time>
      </trkpt>
      <trkpt lat="49.670414971187711" lon="-1.263520019128919">
        <ele>7.83</ele>
        <time>2018-07-04T12:24:47Z</time>
      </trkpt>
      <trkpt lat="49.670445984229445" lon="-1.26352303661406">
        <ele>7.83</ele>
        <time>2018-07-04T12:24:48Z</time>
      </trkpt>
      <trkpt lat="49.670469034463167" lon="-1.26352496445179">
        <ele>7.83</ele>
        <time>2018-07-04T12:24:49Z</time>
      </trkpt>
      <trkpt lat="49.670508010312915" lon="-1.263527981936932">
        <ele>7.35</ele>
        <time>2018-07-04T12:24:52Z</time>
      </trkpt>
      <trkpt lat="49.670524019747972" lon="-1.263529993593693">
        <ele>7.35</ele>
        <time>2018-07-04T12:24:53Z</time>
      </trkpt>
      <trkpt lat="49.67054002918303" lon="-1.263530999422073">
        <ele>7.35</ele>
        <time>2018-07-04T12:24:54Z</time>
      </trkpt>
      <trkpt lat="49.670554026961327" lon="-1.263532005250454">
        <ele>7.35</ele>
        <time>2018-07-04T12:24:55Z</time>
      </trkpt>
      <trkpt lat="49.670555032789707" lon="-1.263599982485175">
        <ele>6.87</ele>
        <time>2018-07-04T12:24:56Z</time>
      </trkpt>
      <trkpt lat="49.670542040839791" lon="-1.263626972213388">
        <ele>6.87</ele>
        <time>2018-07-04T12:24:57Z</time>
      </trkpt>
      <trkpt lat="49.670526031404734" lon="-1.263662008568645">
        <ele>6.39</ele>
        <time>2018-07-04T12:24:58Z</time>
      </trkpt>
      <trkpt lat="49.670504992827773" lon="-1.263708025217056">
        <ele>5.91</ele>
        <time>2018-07-04T12:24:59Z</time>
      </trkpt>
      <trkpt lat="49.670357974246144" lon="-1.264050006866455">
        <ele>4.94</ele>
        <time>2018-07-04T12:25:04Z</time>
      </trkpt>
      <trkpt lat="49.67032796703279" lon="-1.264122007414699">
        <ele>4.46</ele>
        <time>2018-07-04T12:25:05Z</time>
      </trkpt>
      <trkpt lat="49.670296031981707" lon="-1.264198031276465">
        <ele>4.46</ele>
        <time>2018-07-04T12:25:06Z</time>
      </trkpt>
      <trkpt lat="49.67026200145483" lon="-1.264280006289482">
        <ele>4.46</ele>
        <time>2018-07-04T12:25:07Z</time>
      </trkpt>
      <trkpt lat="49.670225959271193" lon="-1.264364998787642">
        <ele>4.46</ele>
        <time>2018-07-04T12:25:08Z</time>
      </trkpt>
      <trkpt lat="49.670187989249825" lon="-1.264452002942562">
        <ele>4.46</ele>
        <time>2018-07-04T12:25:09Z</time>
      </trkpt>
      <trkpt lat="49.670151025056839" lon="-1.264539007097483">
        <ele>4.46</ele>
        <time>2018-07-04T12:25:10Z</time>
      </trkpt>
      <trkpt lat="49.66974601149559" lon="-1.26547803170979">
        <ele>4.46</ele>
        <time>2018-07-04T12:25:21Z</time>
      </trkpt>
      <trkpt lat="49.66972497291863" lon="-1.265527987852693">
        <ele>4.46</ele>
        <time>2018-07-04T12:25:22Z</time>
      </trkpt>
      <trkpt lat="49.669749028980732" lon="-1.265641981735826">
        <ele>4.94</ele>
        <time>2018-07-04T12:25:23Z</time>
      </trkpt>
      <trkpt lat="49.669774007052183" lon="-1.265680035576224">
        <ele>5.42</ele>
        <time>2018-07-04T12:25:24Z</time>
      </trkpt>
      <trkpt lat="49.669805020093918" lon="-1.265728985890746">
        <ele>5.42</ele>
        <time>2018-07-04T12:25:25Z</time>
      </trkpt>
      <trkpt lat="49.669843995943666" lon="-1.265790006145835">
        <ele>5.91</ele>
        <time>2018-07-04T12:25:26Z</time>
      </trkpt>
      <trkpt lat="49.66989797540009" lon="-1.265873992815614">
        <ele>5.91</ele>
        <time>2018-07-04T12:25:27Z</time>
      </trkpt>
      <trkpt lat="49.670408014208078" lon="-1.266831960529089">
        <ele>6.39</ele>
        <time>2018-07-04T12:25:36Z</time>
      </trkpt>
      <trkpt lat="49.670478003099561" lon="-1.266932962462306">
        <ele>6.39</ele>
        <time>2018-07-04T12:25:37Z</time>
      </trkpt>
      <trkpt lat="49.670618986710906" lon="-1.267100013792515">
        <ele>6.87</ele>
        <time>2018-07-04T12:25:39Z</time>
      </trkpt>
      <trkpt lat="49.670829037204385" lon="-1.267407964915037">
        <ele>6.87</ele>
        <time>2018-07-04T12:25:42Z</time>
      </trkpt>
      <trkpt lat="49.671702012419701" lon="-1.268326034769416">
        <ele>7.35</ele>
        <time>2018-07-04T12:25:50Z</time>
      </trkpt>
      <trkpt lat="49.67204499989748" lon="-1.2687430344522">
        <ele>7.83</ele>
        <time>2018-07-04T12:25:53Z</time>
      </trkpt>
      <trkpt lat="49.672146001830697" lon="-1.268897010013461">
        <ele>7.83</ele>
        <time>2018-07-04T12:25:54Z</time>
      </trkpt>
      <trkpt lat="49.672252032905817" lon="-1.269059032201767">
        <ele>7.83</ele>
        <time>2018-07-04T12:25:55Z</time>
      </trkpt>
      <trkpt lat="49.673047978430986" lon="-1.270495019853115">
        <ele>8.789999999999999</ele>
        <time>2018-07-04T12:26:02Z</time>
      </trkpt>
      <trkpt lat="49.673176975920796" lon="-1.270654024556279">
        <ele>9.75</ele>
        <time>2018-07-04T12:26:03Z</time>
      </trkpt>
      <trkpt lat="49.67333204112947" lon="-1.27074496820569">
        <ele>10.23</ele>
        <time>2018-07-04T12:26:04Z</time>
      </trkpt>
      <trkpt lat="49.673488028347492" lon="-1.270831972360611">
        <ele>10.710000000000001</ele>
        <time>2018-07-04T12:26:05Z</time>
      </trkpt>
      <trkpt lat="49.673654995858669" lon="-1.270877989009023">
        <ele>11.19</ele>
        <time>2018-07-04T12:26:06Z</time>
      </trkpt>
      <trkpt lat="49.673830009996891" lon="-1.270925011485815">
        <ele>11.67</ele>
        <time>2018-07-04T12:26:07Z</time>
      </trkpt>
      <trkpt lat="49.67511503957212" lon="-1.27145198173821">
        <ele>14.08</ele>
        <time>2018-07-04T12:26:14Z</time>
      </trkpt>
      <trkpt lat="49.676580028608441" lon="-1.272191014140844">
        <ele>12.630000000000001</ele>
        <time>2018-07-04T12:26:22Z</time>
      </trkpt>
      <trkpt lat="49.677963964641094" lon="-1.272296039387584">
        <ele>11.19</ele>
        <time>2018-07-04T12:26:29Z</time>
      </trkpt>
      <trkpt lat="49.678137972950935" lon="-1.272353958338499">
        <ele>10.710000000000001</ele>
        <time>2018-07-04T12:26:30Z</time>
      </trkpt>
      <trkpt lat="49.678321033716202" lon="-1.27248203381896">
        <ele>10.710000000000001</ele>
        <time>2018-07-04T12:26:31Z</time>
      </trkpt>
      <trkpt lat="49.678505016490817" lon="-1.27261103130877">
        <ele>10.710000000000001</ele>
        <time>2018-07-04T12:26:32Z</time>
      </trkpt>
      <trkpt lat="49.678687993437052" lon="-1.272764001041651">
        <ele>10.23</ele>
        <time>2018-07-04T12:26:33Z</time>
      </trkpt>
      <trkpt lat="49.680088022723794" lon="-1.274183979257941">
        <ele>10.710000000000001</ele>
        <time>2018-07-04T12:26:41Z</time>
      </trkpt>
      <trkpt lat="49.680655980482697" lon="-1.274915970861912">
        <ele>12.630000000000001</ele>
        <time>2018-07-04T12:26:46Z</time>
      </trkpt>
      <trkpt lat="49.681245982646942" lon="-1.275733038783073">
        <ele>13.6</ele>
        <time>2018-07-04T12:26:54Z</time>
      </trkpt>
      <trkpt lat="49.68233403749764" lon="-1.27729500643909">
        <ele>13.6</ele>
        <time>2018-07-04T12:27:03Z</time>
      </trkpt>
      <trkpt lat="49.683615965768695" lon="-1.279520988464356">
        <ele>15.039999999999999</ele>
        <time>2018-07-04T12:27:14Z</time>
      </trkpt>
      <trkpt lat="49.684639982879162" lon="-1.281753005459905">
        <ele>14.08</ele>
        <time>2018-07-04T12:27:25Z</time>
      </trkpt>
      <trkpt lat="49.685209030285478" lon="-1.283666007220745">
        <ele>16.960000000000001</ele>
        <time>2018-07-04T12:27:36Z</time>
      </trkpt>
      <trkpt lat="49.685233002528548" lon="-1.28391302190721">
        <ele>17.440000000000001</ele>
        <time>2018-07-04T12:27:40Z</time>
      </trkpt>
      <trkpt lat="49.68521598726511" lon="-1.283921990543604">
        <ele>17.440000000000001</ele>
        <time>2018-07-04T12:27:41Z</time>
      </trkpt>
      <trkpt lat="49.685187991708517" lon="-1.283936994150281">
        <ele>16.960000000000001</ele>
        <time>2018-07-04T12:27:42Z</time>
      </trkpt>
      <trkpt lat="49.685151027515531" lon="-1.28395602107048">
        <ele>16.960000000000001</ele>
        <time>2018-07-04T12:27:43Z</time>
      </trkpt>
      <trkpt lat="49.685110040009022" lon="-1.283976975828409">
        <ele>16.960000000000001</ele>
        <time>2018-07-04T12:27:44Z</time>
      </trkpt>
      <trkpt lat="49.684893032535911" lon="-1.284089963883162">
        <ele>16.48</ele>
        <time>2018-07-04T12:27:47Z</time>
      </trkpt>
      <trkpt lat="49.683975968509912" lon="-1.284711984917522">
        <ele>15.52</ele>
        <time>2018-07-04T12:27:55Z</time>
      </trkpt>
      <trkpt lat="49.68276796862483" lon="-1.28625400364399">
        <ele>14.56</ele>
        <time>2018-07-04T12:28:05Z</time>
      </trkpt>
      <trkpt lat="49.682018961757421" lon="-1.287923008203507">
        <ele>14.08</ele>
        <time>2018-07-04T12:28:14Z</time>
      </trkpt>
      <trkpt lat="49.681246988475323" lon="-1.289256988093257">
        <ele>14.08</ele>
        <time>2018-07-04T12:28:22Z</time>
      </trkpt>
      <trkpt lat="49.68027401715517" lon="-1.290741004049778">
        <ele>15.039999999999999</ele>
        <time>2018-07-04T12:28:31Z</time>
      </trkpt>
      <trkpt lat="49.679175987839699" lon="-1.291983034461737">
        <ele>15.039999999999999</ele>
        <time>2018-07-04T12:28:40Z</time>
      </trkpt>
      <trkpt lat="49.678860995918512" lon="-1.292209010571241">
        <ele>13.6</ele>
        <time>2018-07-04T12:28:42Z</time>
      </trkpt>
      <trkpt lat="49.677665987983346" lon="-1.293506026268005">
        <ele>9.75</ele>
        <time>2018-07-04T12:28:51Z</time>
      </trkpt>
      <trkpt lat="49.676937013864517" lon="-1.294931033626199">
        <ele>10.23</ele>
        <time>2018-07-04T12:28:59Z</time>
      </trkpt>
      <trkpt lat="49.67608398757875" lon="-1.296871025115252">
        <ele>8.310000000000001</ele>
        <time>2018-07-04T12:29:09Z</time>
      </trkpt>
      <trkpt lat="49.675723984837532" lon="-1.297615002840757">
        <ele>6.87</ele>
        <time>2018-07-04T12:29:14Z</time>
      </trkpt>
      <trkpt lat="49.67563203535974" lon="-1.297697983682156">
        <ele>6.87</ele>
        <time>2018-07-04T12:29:15Z</time>
      </trkpt>
      <trkpt lat="49.675536984577775" lon="-1.297767972573638">
        <ele>6.39</ele>
        <time>2018-07-04T12:29:16Z</time>
      </trkpt>
      <trkpt lat="49.675303967669606" lon="-1.29783796146512">
        <ele>5.91</ele>
        <time>2018-07-04T12:29:18Z</time>
      </trkpt>
      <trkpt lat="49.674835000187159" lon="-1.297981962561607">
        <ele>4.46</ele>
        <time>2018-07-04T12:29:23Z</time>
      </trkpt>
      <trkpt lat="49.674660991877317" lon="-1.29805002361536">
        <ele>4.46</ele>
        <time>2018-07-04T12:29:25Z</time>
      </trkpt>
      <trkpt lat="49.674571976065636" lon="-1.298084976151586">
        <ele>4.46</ele>
        <time>2018-07-04T12:29:26Z</time>
      </trkpt>
      <trkpt lat="49.674276011064649" lon="-1.298216991126537">
        <ele>4.46</ele>
        <time>2018-07-04T12:29:29Z</time>
      </trkpt>
      <trkpt lat="49.67417299747467" lon="-1.298275999724865">
        <ele>4.46</ele>
        <time>2018-07-04T12:29:30Z</time>
      </trkpt>
      <trkpt lat="49.674071995541453" lon="-1.298332996666431">
        <ele>4.46</ele>
        <time>2018-07-04T12:29:31Z</time>
      </trkpt>
      <trkpt lat="49.673802014440298" lon="-1.298486972227693">
        <ele>4.46</ele>
        <time>2018-07-04T12:29:34Z</time>
      </trkpt>
      <trkpt lat="49.673726996406913" lon="-1.298567019402981">
        <ele>4.46</ele>
        <time>2018-07-04T12:29:35Z</time>
      </trkpt>
      <trkpt lat="49.673660025000572" lon="-1.298677995800972">
        <ele>4.46</ele>
        <time>2018-07-04T12:29:36Z</time>
      </trkpt>
      <trkpt lat="49.6735929697752" lon="-1.298790983855724">
        <ele>3.98</ele>
        <time>2018-07-04T12:29:37Z</time>
      </trkpt>
      <trkpt lat="49.67352700419724" lon="-1.298900032415986">
        <ele>3.98</ele>
        <time>2018-07-04T12:29:38Z</time>
      </trkpt>
      <trkpt lat="49.673465983942151" lon="-1.299002962186933">
        <ele>3.98</ele>
        <time>2018-07-04T12:29:39Z</time>
      </trkpt>
      <trkpt lat="49.673376968130469" lon="-1.299077980220318">
        <ele>3.5</ele>
        <time>2018-07-04T12:29:40Z</time>
      </trkpt>
      <trkpt lat="49.673279989510775" lon="-1.299127014353871">
        <ele>3.5</ele>
        <time>2018-07-04T12:29:41Z</time>
      </trkpt>
      <trkpt lat="49.673173958435655" lon="-1.299179987981916">
        <ele>3.5</ele>
        <time>2018-07-04T12:29:42Z</time>
      </trkpt>
      <trkpt lat="49.673064993694425" lon="-1.29923396743834">
        <ele>3.98</ele>
        <time>2018-07-04T12:29:43Z</time>
      </trkpt>
      <trkpt lat="49.672948988154531" lon="-1.299291970208287">
        <ele>3.98</ele>
        <time>2018-07-04T12:29:44Z</time>
      </trkpt>
      <trkpt lat="49.672826025635004" lon="-1.299353996291757">
        <ele>3.98</ele>
        <time>2018-07-04T12:29:45Z</time>
      </trkpt>
      <trkpt lat="49.672711025923491" lon="-1.29944896325469">
        <ele>3.98</ele>
        <time>2018-07-04T12:29:46Z</time>
      </trkpt>
      <trkpt lat="49.671458015218377" lon="-1.300910012796521">
        <ele>6.39</ele>
        <time>2018-07-04T12:29:57Z</time>
      </trkpt>
      <trkpt lat="49.670748990029097" lon="-1.302120024338365">
        <ele>8.789999999999999</ele>
        <time>2018-07-04T12:30:05Z</time>
      </trkpt>
      <trkpt lat="49.670609012246132" lon="-1.302358992397785">
        <ele>9.27</ele>
        <time>2018-07-04T12:30:08Z</time>
      </trkpt>
      <trkpt lat="49.670573975890875" lon="-1.302419006824493">
        <ele>9.75</ele>
        <time>2018-07-04T12:30:09Z</time>
      </trkpt>
      <trkpt lat="49.67056299559772" lon="-1.302501987665892">
        <ele>9.75</ele>
        <time>2018-07-04T12:30:10Z</time>
      </trkpt>
      <trkpt lat="49.67056299559772" lon="-1.302626961842179">
        <ele>10.23</ele>
        <time>2018-07-04T12:30:11Z</time>
      </trkpt>
      <trkpt lat="49.67056299559772" lon="-1.302784960716963">
        <ele>10.710000000000001</ele>
        <time>2018-07-04T12:30:12Z</time>
      </trkpt>
      <trkpt lat="49.67056299559772" lon="-1.30297196097672">
        <ele>10.710000000000001</ele>
        <time>2018-07-04T12:30:13Z</time>
      </trkpt>
      <trkpt lat="49.67056299559772" lon="-1.304791001603007">
        <ele>13.119999999999999</ele>
        <time>2018-07-04T12:30:20Z</time>
      </trkpt>
      <trkpt lat="49.67056299559772" lon="-1.30829899571836">
        <ele>18.399999999999999</ele>
        <time>2018-07-04T12:30:30Z</time>
      </trkpt>
      <trkpt lat="49.67056299559772" lon="-1.313421009108424">
        <ele>24.649999999999999</ele>
        <time>2018-07-04T12:30:44Z</time>
      </trkpt>
      <trkpt lat="49.67056299559772" lon="-1.317734001204372">
        <ele>28.98</ele>
        <time>2018-07-04T12:30:58Z</time>
      </trkpt>
      <trkpt lat="49.670575987547636" lon="-1.323052989318967">
        <ele>32.340000000000003</ele>
        <time>2018-07-04T12:31:15Z</time>
      </trkpt>
      <trkpt lat="49.670572970062494" lon="-1.326700039207935">
        <ele>36.189999999999998</ele>
        <time>2018-07-04T12:31:27Z</time>
      </trkpt>
      <trkpt lat="49.670585040003061" lon="-1.330250026658177">
        <ele>38.109999999999999</ele>
        <time>2018-07-04T12:31:40Z</time>
      </trkpt>
      <trkpt lat="49.67060599476099" lon="-1.332429992035031">
        <ele>38.109999999999999</ele>
        <time>2018-07-04T12:31:51Z</time>
      </trkpt>
      <trkpt lat="49.67060599476099" lon="-1.334080975502729">
        <ele>36.189999999999998</ele>
        <time>2018-07-04T12:32:01Z</time>
      </trkpt>
      <trkpt lat="49.670655028894544" lon="-1.336183995008469">
        <ele>30.899999999999999</ele>
        <time>2018-07-04T12:32:13Z</time>
      </trkpt>
      <trkpt lat="49.670695010572672" lon="-1.336551960557699">
        <ele>29.940000000000001</ele>
        <time>2018-07-04T12:32:15Z</time>
      </trkpt>
      <trkpt lat="49.670715965330601" lon="-1.336738038808107">
        <ele>29.460000000000001</ele>
        <time>2018-07-04T12:32:16Z</time>
      </trkpt>
      <trkpt lat="49.670852003619075" lon="-1.337397024035454">
        <ele>27.050000000000001</ele>
        <time>2018-07-04T12:32:20Z</time>
      </trkpt>
      <trkpt lat="49.670887039974332" lon="-1.337571032345295">
        <ele>26.57</ele>
        <time>2018-07-04T12:32:21Z</time>
      </trkpt>
      <trkpt lat="49.670947976410389" lon="-1.338057015091181">
        <ele>26.57</ele>
        <time>2018-07-04T12:32:24Z</time>
      </trkpt>
      <trkpt lat="49.670943031087518" lon="-1.338205961510539">
        <ele>27.530000000000001</ele>
        <time>2018-07-04T12:32:25Z</time>
      </trkpt>
      <trkpt lat="49.670936996117234" lon="-1.338346023112536">
        <ele>28.02</ele>
        <time>2018-07-04T12:32:26Z</time>
      </trkpt>
      <trkpt lat="49.670917969197035" lon="-1.338853966444731">
        <ele>31.379999999999999</ele>
        <time>2018-07-04T12:32:32Z</time>
      </trkpt>
      <trkpt lat="49.670916041359305" lon="-1.338924961164594">
        <ele>32.340000000000003</ele>
        <time>2018-07-04T12:32:33Z</time>
      </trkpt>
      <trkpt lat="49.670909000560641" lon="-1.339098969474435">
        <ele>33.299999999999997</ele>
        <time>2018-07-04T12:32:35Z</time>
      </trkpt>
      <trkpt lat="49.670872958377004" lon="-1.339557962492108">
        <ele>36.670000000000002</ele>
        <time>2018-07-04T12:32:41Z</time>
      </trkpt>
      <trkpt lat="49.670855021104217" lon="-1.339803971350193">
        <ele>38.109999999999999</ele>
        <time>2018-07-04T12:32:44Z</time>
      </trkpt>
      <trkpt lat="49.670848986133933" lon="-1.339887036010623">
        <ele>38.590000000000003</ele>
        <time>2018-07-04T12:32:45Z</time>
      </trkpt>
      <trkpt lat="49.670881005004048" lon="-1.34003296494484">
        <ele>38.590000000000003</ele>
        <time>2018-07-04T12:32:46Z</time>
      </trkpt>
      <trkpt lat="49.671197002753615" lon="-1.34097701869905">
        <ele>41.950000000000003</ele>
        <time>2018-07-04T12:32:53Z</time>
      </trkpt>
      <trkpt lat="49.671229021623731" lon="-1.341097969561815">
        <ele>41.950000000000003</ele>
        <time>2018-07-04T12:32:54Z</time>
      </trkpt>
      <trkpt lat="49.671259028837085" lon="-1.341209029778838">
        <ele>41.469999999999999</ele>
        <time>2018-07-04T12:32:55Z</time>
      </trkpt>
      <trkpt lat="49.671309990808368" lon="-1.341305002570152">
        <ele>40.990000000000002</ele>
        <time>2018-07-04T12:32:56Z</time>
      </trkpt>
      <trkpt lat="49.671355001628399" lon="-1.341363005340099">
        <ele>40.030000000000001</ele>
        <time>2018-07-04T12:32:57Z</time>
      </trkpt>
      <trkpt lat="49.671417027711868" lon="-1.341442968696356">
        <ele>39.549999999999997</ele>
        <time>2018-07-04T12:32:58Z</time>
      </trkpt>
      <trkpt lat="49.672043994069099" lon="-1.342260036617518">
        <ele>35.710000000000001</ele>
        <time>2018-07-04T12:33:06Z</time>
      </trkpt>
      <trkpt lat="49.672156982123852" lon="-1.342453993856907">
        <ele>34.259999999999998</ele>
        <time>2018-07-04T12:33:09Z</time>
      </trkpt>
      <trkpt lat="49.672172991558909" lon="-1.342499004676938">
        <ele>33.780000000000001</ele>
        <time>2018-07-04T12:33:10Z</time>
      </trkpt>
      <trkpt lat="49.672172991558909" lon="-1.342643005773425">
        <ele>33.299999999999997</ele>
        <time>2018-07-04T12:33:11Z</time>
      </trkpt>
      <trkpt lat="49.672172991558909" lon="-1.342764040455222">
        <ele>32.82</ele>
        <time>2018-07-04T12:33:12Z</time>
      </trkpt>
      <trkpt lat="49.672172991558909" lon="-1.342898989096284">
        <ele>32.82</ele>
        <time>2018-07-04T12:33:13Z</time>
      </trkpt>
      <trkpt lat="49.672172991558909" lon="-1.34319101460278">
        <ele>32.82</ele>
        <time>2018-07-04T12:33:15Z</time>
      </trkpt>
      <trkpt lat="49.672195035964251" lon="-1.343343984335661">
        <ele>32.82</ele>
        <time>2018-07-04T12:33:16Z</time>
      </trkpt>
      <trkpt lat="49.672227976843715" lon="-1.343497037887573">
        <ele>33.299999999999997</ele>
        <time>2018-07-04T12:33:17Z</time>
      </trkpt>
      <trkpt lat="49.672282040119171" lon="-1.343631986528635">
        <ele>33.780000000000001</ele>
        <time>2018-07-04T12:33:18Z</time>
      </trkpt>
      <trkpt lat="49.672337025403976" lon="-1.34376903064549">
        <ele>34.259999999999998</ele>
        <time>2018-07-04T12:33:19Z</time>
      </trkpt>
      <trkpt lat="49.672394022345543" lon="-1.343914037570357">
        <ele>34.740000000000002</ele>
        <time>2018-07-04T12:33:20Z</time>
      </trkpt>
      <trkpt lat="49.672916969284415" lon="-1.345226978883147">
        <ele>40.030000000000001</ele>
        <time>2018-07-04T12:33:29Z</time>
      </trkpt>
      <trkpt lat="49.673010008409619" lon="-1.345462007448077">
        <ele>40.990000000000002</ele>
        <time>2018-07-04T12:33:31Z</time>
      </trkpt>
      <trkpt lat="49.673020988702774" lon="-1.345582958310843">
        <ele>41.469999999999999</ele>
        <time>2018-07-04T12:33:32Z</time>
      </trkpt>
      <trkpt lat="49.673027023673058" lon="-1.345730982720852">
        <ele>41.950000000000003</ele>
        <time>2018-07-04T12:33:33Z</time>
      </trkpt>
      <trkpt lat="49.673012020066381" lon="-1.345867021009326">
        <ele>42.920000000000002</ele>
        <time>2018-07-04T12:33:34Z</time>
      </trkpt>
      <trkpt lat="49.672996010631323" lon="-1.346012027934194">
        <ele>43.399999999999999</ele>
        <time>2018-07-04T12:33:35Z</time>
      </trkpt>
      <trkpt lat="49.672960974276066" lon="-1.346326014027">
        <ele>45.32</ele>
        <time>2018-07-04T12:33:37Z</time>
      </trkpt>
      <trkpt lat="49.672943037003279" lon="-1.346491975709796">
        <ele>46.280000000000001</ele>
        <time>2018-07-04T12:33:38Z</time>
      </trkpt>
      <trkpt lat="49.672924010083079" lon="-1.346663972362876">
        <ele>47.240000000000002</ele>
        <time>2018-07-04T12:33:39Z</time>
      </trkpt>
      <trkpt lat="49.672905988991261" lon="-1.346824988722801">
        <ele>48.200000000000003</ele>
        <time>2018-07-04T12:33:40Z</time>
      </trkpt>
      <trkpt lat="49.672889979556203" lon="-1.346966978162527">
        <ele>48.68</ele>
        <time>2018-07-04T12:33:41Z</time>
      </trkpt>
      <trkpt lat="49.672897020354867" lon="-1.347113996744156">
        <ele>49.159999999999997</ele>
        <time>2018-07-04T12:33:42Z</time>
      </trkpt>
      <trkpt lat="49.672928033396602" lon="-1.347236959263682">
        <ele>49.649999999999999</ele>
        <time>2018-07-04T12:33:43Z</time>
      </trkpt>
      <trkpt lat="49.672957034781575" lon="-1.347351958975196">
        <ele>50.130000000000003</ele>
        <time>2018-07-04T12:33:44Z</time>
      </trkpt>
      <trkpt lat="49.673015037551522" lon="-1.347582964226604">
        <ele>51.090000000000003</ele>
        <time>2018-07-04T12:33:46Z</time>
      </trkpt>
      <trkpt lat="49.673044038936496" lon="-1.347700981423259">
        <ele>51.57</ele>
        <time>2018-07-04T12:33:47Z</time>
      </trkpt>
      <trkpt lat="49.673390965908766" lon="-1.348880985751748">
        <ele>54.93</ele>
        <time>2018-07-04T12:33:57Z</time>
      </trkpt>
      <trkpt lat="49.673638986423612" lon="-1.349847000092268">
        <ele>57.340000000000003</ele>
        <time>2018-07-04T12:34:04Z</time>
      </trkpt>
      <trkpt lat="49.673667987808585" lon="-1.349963005632162">
        <ele>57.82</ele>
        <time>2018-07-04T12:34:05Z</time>
      </trkpt>
      <trkpt lat="49.673847025260329" lon="-1.3512699957937">
        <ele>59.740000000000002</ele>
        <time>2018-07-04T12:34:14Z</time>
      </trkpt>
      <trkpt lat="49.673887006938457" lon="-1.351682972162962">
        <ele>60.219999999999999</ele>
        <time>2018-07-04T12:34:17Z</time>
      </trkpt>
      <trkpt lat="49.673880971968174" lon="-1.351782968267798">
        <ele>60.219999999999999</ele>
        <time>2018-07-04T12:34:18Z</time>
      </trkpt>
      <trkpt lat="49.67387200333178" lon="-1.351952031254768">
        <ele>60.700000000000003</ele>
        <time>2018-07-04T12:34:24Z</time>
      </trkpt>
      <trkpt lat="49.673887006938457" lon="-1.352030988782644">
        <ele>60.700000000000003</ele>
        <time>2018-07-04T12:34:25Z</time>
      </trkpt>
      <trkpt lat="49.673926988616586" lon="-1.352040963247418">
        <ele>60.700000000000003</ele>
        <time>2018-07-04T12:34:26Z</time>
      </trkpt>
      <trkpt lat="49.673996977508068" lon="-1.352058984339237">
        <ele>61.18</ele>
        <time>2018-07-04T12:34:27Z</time>
      </trkpt>
      <trkpt lat="49.67408699914813" lon="-1.352081028744578">
        <ele>61.659999999999997</ele>
        <time>2018-07-04T12:34:28Z</time>
      </trkpt>
      <trkpt lat="49.674182971939445" lon="-1.352105000987649">
        <ele>61.659999999999997</ele>
        <time>2018-07-04T12:34:29Z</time>
      </trkpt>
      <trkpt lat="49.674296965822577" lon="-1.352134002372623">
        <ele>61.659999999999997</ele>
        <time>2018-07-04T12:34:30Z</time>
      </trkpt>
      <trkpt lat="49.675389965996146" lon="-1.352959033101797">
        <ele>59.740000000000002</ele>
        <time>2018-07-04T12:34:38Z</time>
      </trkpt>
      <trkpt lat="49.67636201530695" lon="-1.353578036651015">
        <ele>56.859999999999999</ele>
        <time>2018-07-04T12:34:45Z</time>
      </trkpt>
      <trkpt lat="49.676818996667862" lon="-1.353866960853338">
        <ele>54.93</ele>
        <time>2018-07-04T12:34:52Z</time>
      </trkpt>
      <trkpt lat="49.677416039630771" lon="-1.354072988033295">
        <ele>54.450000000000003</ele>
        <time>2018-07-04T12:35:01Z</time>
      </trkpt>
      <trkpt lat="49.67776196077466" lon="-1.354108024388552">
        <ele>53.490000000000002</ele>
        <time>2018-07-04T12:35:06Z</time>
      </trkpt>
      <trkpt lat="49.677831027656794" lon="-1.354098971933126">
        <ele>53.009999999999998</ele>
        <time>2018-07-04T12:35:07Z</time>
      </trkpt>
      <trkpt lat="49.677901016548276" lon="-1.354090003296733">
        <ele>53.009999999999998</ele>
        <time>2018-07-04T12:35:08Z</time>
      </trkpt>
      <trkpt lat="49.677967987954617" lon="-1.354081034660339">
        <ele>52.530000000000001</ele>
        <time>2018-07-04T12:35:09Z</time>
      </trkpt>
      <trkpt lat="49.678031019866467" lon="-1.354071982204914">
        <ele>52.530000000000001</ele>
        <time>2018-07-04T12:35:10Z</time>
      </trkpt>
      <trkpt lat="49.678210979327559" lon="-1.354048009961844">
        <ele>52.530000000000001</ele>
        <time>2018-07-04T12:35:13Z</time>
      </trkpt>
      <trkpt lat="49.678321033716202" lon="-1.354081034660339">
        <ele>52.530000000000001</ele>
        <time>2018-07-04T12:35:15Z</time>
      </trkpt>
      <trkpt lat="49.678379958495498" lon="-1.354111041873694">
        <ele>52.530000000000001</ele>
        <time>2018-07-04T12:35:16Z</time>
      </trkpt>
      <trkpt lat="49.678434021770954" lon="-1.354153035208583">
        <ele>52.530000000000001</ele>
        <time>2018-07-04T12:35:17Z</time>
      </trkpt>
      <trkpt lat="49.678485989570618" lon="-1.354224029928446">
        <ele>52.530000000000001</ele>
        <time>2018-07-04T12:35:18Z</time>
      </trkpt>
      <trkpt lat="49.678542986512184" lon="-1.354301981627941">
        <ele>52.049999999999997</ele>
        <time>2018-07-04T12:35:19Z</time>
      </trkpt>
      <trkpt lat="49.679113039746881" lon="-1.355058029294014">
        <ele>52.049999999999997</ele>
        <time>2018-07-04T12:35:30Z</time>
      </trkpt>
      <trkpt lat="49.679215969517827" lon="-1.355154002085328">
        <ele>51.57</ele>
        <time>2018-07-04T12:35:31Z</time>
      </trkpt>
      <trkpt lat="49.679475976154208" lon="-1.35539598762989">
        <ele>50.609999999999999</ele>
        <time>2018-07-04T12:35:33Z</time>
      </trkpt>
      <trkpt lat="49.679618971422315" lon="-1.355529008433223">
        <ele>50.130000000000003</ele>
        <time>2018-07-04T12:35:34Z</time>
      </trkpt>
      <trkpt lat="49.68149702064693" lon="-1.357154008001089">
        <ele>42.920000000000002</ele>
        <time>2018-07-04T12:35:46Z</time>
      </trkpt>
      <trkpt lat="49.68237997032702" lon="-1.357636973261833">
        <ele>40.509999999999998</ele>
        <time>2018-07-04T12:35:53Z</time>
      </trkpt>
      <trkpt lat="49.683140041306615" lon="-1.357792960479856">
        <ele>40.030000000000001</ele>
        <time>2018-07-04T12:35:59Z</time>
      </trkpt>
      <trkpt lat="49.684568988159299" lon="-1.357812993228436">
        <ele>38.590000000000003</ele>
        <time>2018-07-04T12:36:07Z</time>
      </trkpt>
      <trkpt lat="49.685547994449735" lon="-1.3580790348351">
        <ele>37.149999999999999</ele>
        <time>2018-07-04T12:36:13Z</time>
      </trkpt>
      <trkpt lat="49.685662994161248" lon="-1.358147012069821">
        <ele>36.670000000000002</ele>
        <time>2018-07-04T12:36:14Z</time>
      </trkpt>
      <trkpt lat="49.685756033286452" lon="-1.358262011781335">
        <ele>36.670000000000002</ele>
        <time>2018-07-04T12:36:15Z</time>
      </trkpt>
      <trkpt lat="49.685853011906147" lon="-1.358410036191344">
        <ele>36.189999999999998</ele>
        <time>2018-07-04T12:36:16Z</time>
      </trkpt>
      <trkpt lat="49.685959964990616" lon="-1.358571974560618">
        <ele>35.710000000000001</ele>
        <time>2018-07-04T12:36:17Z</time>
      </trkpt>
      <trkpt lat="49.686877029016614" lon="-1.359967980533838">
        <ele>34.259999999999998</ele>
        <time>2018-07-04T12:36:24Z</time>
      </trkpt>
      <trkpt lat="49.687486980110407" lon="-1.360897030681372">
        <ele>32.82</ele>
        <time>2018-07-04T12:36:30Z</time>
      </trkpt>
      <trkpt lat="49.687612960115075" lon="-1.361086964607239">
        <ele>31.859999999999999</ele>
        <time>2018-07-04T12:36:34Z</time>
      </trkpt>
      <trkpt lat="49.687618995085359" lon="-1.361098028719425">
        <ele>31.379999999999999</ele>
        <time>2018-07-04T12:36:35Z</time>
      </trkpt>
      <trkpt lat="49.687612960115075" lon="-1.361201964318752">
        <ele>31.379999999999999</ele>
        <time>2018-07-04T12:36:36Z</time>
      </trkpt>
      <trkpt lat="49.687583958730102" lon="-1.361221997067332">
        <ele>31.379999999999999</ele>
        <time>2018-07-04T12:36:37Z</time>
      </trkpt>
      <trkpt lat="49.687534002587199" lon="-1.361255021765828">
        <ele>30.899999999999999</ele>
        <time>2018-07-04T12:36:38Z</time>
      </trkpt>
      <trkpt lat="49.687474993988872" lon="-1.361293997615576">
        <ele>30.899999999999999</ele>
        <time>2018-07-04T12:36:39Z</time>
      </trkpt>
      <trkpt lat="49.687034022063017" lon="-1.361554004251957">
        <ele>28.5</ele>
        <time>2018-07-04T12:36:43Z</time>
      </trkpt>
      <trkpt lat="49.686888009309769" lon="-1.361609995365143">
        <ele>28.02</ele>
        <time>2018-07-04T12:36:44Z</time>
      </trkpt>
      <trkpt lat="49.686237992718816" lon="-1.361854998394847">
        <ele>25.609999999999999</ele>
        <time>2018-07-04T12:36:48Z</time>
      </trkpt>
      <trkpt lat="49.685480017215014" lon="-1.362087009474635">
        <ele>26.57</ele>
        <time>2018-07-04T12:36:53Z</time>
      </trkpt>
      <trkpt lat="49.685326041653752" lon="-1.3620559964329">
        <ele>27.050000000000001</ele>
        <time>2018-07-04T12:36:54Z</time>
      </trkpt>
      <trkpt lat="49.685173993930221" lon="-1.362006962299347">
        <ele>27.050000000000001</ele>
        <time>2018-07-04T12:36:55Z</time>
      </trkpt>
      <trkpt lat="49.683838002383709" lon="-1.361631033942103">
        <ele>28.5</ele>
        <time>2018-07-04T12:37:04Z</time>
      </trkpt>
      <trkpt lat="49.682966032996774" lon="-1.361661041155458">
        <ele>28.5</ele>
        <time>2018-07-04T12:37:11Z</time>
      </trkpt>
      <trkpt lat="49.682866036891937" lon="-1.361728012561798">
        <ele>28.5</ele>
        <time>2018-07-04T12:37:12Z</time>
      </trkpt>
      <trkpt lat="49.682783978059888" lon="-1.361781992018223">
        <ele>28.02</ele>
        <time>2018-07-04T12:37:13Z</time>
      </trkpt>
      <trkpt lat="49.682772997766733" lon="-1.361790038645268">
        <ele>28.02</ele>
        <time>2018-07-04T12:37:14Z</time>
      </trkpt>
      <trkpt lat="49.682760005816817" lon="-1.361901015043259">
        <ele>27.530000000000001</ele>
        <time>2018-07-04T12:37:15Z</time>
      </trkpt>
      <trkpt lat="49.682751959189773" lon="-1.361976033076644">
        <ele>27.050000000000001</ele>
        <time>2018-07-04T12:37:16Z</time>
      </trkpt>
      <trkpt lat="49.682756988331676" lon="-1.362028000876308">
        <ele>27.050000000000001</ele>
        <time>2018-07-04T12:37:17Z</time>
      </trkpt>
      <trkpt lat="49.68276796862483" lon="-1.362121040001512">
        <ele>27.050000000000001</ele>
        <time>2018-07-04T12:37:18Z</time>
      </trkpt>
      <trkpt lat="49.682790013030171" lon="-1.362314997240901">
        <ele>27.050000000000001</ele>
        <time>2018-07-04T12:37:20Z</time>
      </trkpt>
      <trkpt lat="49.682747013866901" lon="-1.36241901665926">
        <ele>27.050000000000001</ele>
        <time>2018-07-04T12:37:21Z</time>
      </trkpt>
      <trkpt lat="49.682716000825167" lon="-1.362465033307672">
        <ele>27.050000000000001</ele>
        <time>2018-07-04T12:37:22Z</time>
      </trkpt>
      <trkpt lat="49.682655986398458" lon="-1.362465033307672">
        <ele>27.050000000000001</ele>
        <time>2018-07-04T12:37:23Z</time>
      </trkpt>
      <trkpt lat="49.682593960314989" lon="-1.362451035529375">
        <ele>27.050000000000001</ele>
        <time>2018-07-04T12:37:24Z</time>
      </trkpt>
      <trkpt lat="49.682517014443874" lon="-1.362434020265937">
        <ele>27.050000000000001</ele>
        <time>2018-07-04T12:37:25Z</time>
      </trkpt>
      <trkpt lat="49.682431016117334" lon="-1.362414993345738">
        <ele>27.050000000000001</ele>
        <time>2018-07-04T12:37:26Z</time>
      </trkpt>
      <trkpt lat="49.682253990322351" lon="-1.36241901665926">
        <ele>27.050000000000001</ele>
        <time>2018-07-04T12:37:28Z</time>
      </trkpt>
      <trkpt lat="49.682173021137714" lon="-1.362453969195485">
        <ele>27.050000000000001</ele>
        <time>2018-07-04T12:37:29Z</time>
      </trkpt>
      <trkpt lat="49.68211904168129" lon="-1.362521024420857">
        <ele>27.050000000000001</ele>
        <time>2018-07-04T12:37:30Z</time>
      </trkpt>
      <trkpt lat="49.682058021426201" lon="-1.362598976120353">
        <ele>27.050000000000001</ele>
        <time>2018-07-04T12:37:31Z</time>
      </trkpt>
      <trkpt lat="49.681994989514351" lon="-1.36267801746726">
        <ele>27.050000000000001</ele>
        <time>2018-07-04T12:37:32Z</time>
      </trkpt>
      <trkpt lat="49.681600034236908" lon="-1.363140027970076">
        <ele>28.98</ele>
        <time>2018-07-04T12:37:38Z</time>
      </trkpt>
      <trkpt lat="49.681518981233239" lon="-1.363203981891275">
        <ele>29.460000000000001</ele>
        <time>2018-07-04T12:37:39Z</time>
      </trkpt>
      <trkpt lat="49.680604012683034" lon="-1.363886017352343">
        <ele>31.859999999999999</ele>
        <time>2018-07-04T12:37:50Z</time>
      </trkpt>
      <trkpt lat="49.680571993812919" lon="-1.363920969888568">
        <ele>31.859999999999999</ele>
        <time>2018-07-04T12:37:51Z</time>
      </trkpt>
      <trkpt lat="49.680552966892719" lon="-1.363942008465529">
        <ele>32.340000000000003</ele>
        <time>2018-07-04T12:37:52Z</time>
      </trkpt>
      <trkpt lat="49.680546009913087" lon="-1.364002022892237">
        <ele>32.340000000000003</ele>
        <time>2018-07-04T12:37:53Z</time>
      </trkpt>
      <trkpt lat="49.680567970499396" lon="-1.364022977650166">
        <ele>32.82</ele>
        <time>2018-07-04T12:37:54Z</time>
      </trkpt>
      <trkpt lat="49.68059797771275" lon="-1.364051979035139">
        <ele>32.82</ele>
        <time>2018-07-04T12:37:55Z</time>
      </trkpt>
      <trkpt lat="49.680642988532782" lon="-1.364093972370029">
        <ele>33.299999999999997</ele>
        <time>2018-07-04T12:37:56Z</time>
      </trkpt>
      <trkpt lat="49.680701997131109" lon="-1.364149041473866">
        <ele>33.299999999999997</ele>
        <time>2018-07-04T12:37:57Z</time>
      </trkpt>
      <trkpt lat="49.680775003507733" lon="-1.364216012880206">
        <ele>33.299999999999997</ele>
        <time>2018-07-04T12:37:58Z</time>
      </trkpt>
      <trkpt lat="49.680857984349132" lon="-1.364292958751321">
        <ele>33.780000000000001</ele>
        <time>2018-07-04T12:37:59Z</time>
      </trkpt>
      <trkpt lat="49.681718973442912" lon="-1.364966025575995">
        <ele>32.340000000000003</ele>
        <time>2018-07-04T12:38:07Z</time>
      </trkpt>
      <trkpt lat="49.682069001719356" lon="-1.365098040550947">
        <ele>31.859999999999999</ele>
        <time>2018-07-04T12:38:10Z</time>
      </trkpt>
      <trkpt lat="49.68293602578342" lon="-1.365223014727235">
        <ele>32.340000000000003</ele>
        <time>2018-07-04T12:38:17Z</time>
      </trkpt>
      <trkpt lat="49.683027975261211" lon="-1.365252016112208">
        <ele>32.340000000000003</ele>
        <time>2018-07-04T12:38:18Z</time>
      </trkpt>
      <trkpt lat="49.68311196193099" lon="-1.365304989740253">
        <ele>32.340000000000003</ele>
        <time>2018-07-04T12:38:19Z</time>
      </trkpt>
      <trkpt lat="49.683197038248181" lon="-1.365388976410031">
        <ele>32.340000000000003</ele>
        <time>2018-07-04T12:38:20Z</time>
      </trkpt>
      <trkpt lat="49.683286976069212" lon="-1.365480003878474">
        <ele>31.859999999999999</ele>
        <time>2018-07-04T12:38:21Z</time>
      </trkpt>
      <trkpt lat="49.684324990957975" lon="-1.366446018218994">
        <ele>30.899999999999999</ele>
        <time>2018-07-04T12:38:30Z</time>
      </trkpt>
      <trkpt lat="49.685626029968262" lon="-1.367510017007589">
        <ele>29.940000000000001</ele>
        <time>2018-07-04T12:38:40Z</time>
      </trkpt>
      <trkpt lat="49.68624796718359" lon="-1.367946965619922">
        <ele>28.5</ele>
        <time>2018-07-04T12:38:45Z</time>
      </trkpt>
      <trkpt lat="49.686352992430329" lon="-1.367976972833276">
        <ele>28.5</ele>
        <time>2018-07-04T12:38:46Z</time>
      </trkpt>
      <trkpt lat="49.686453994363546" lon="-1.368004968389869">
        <ele>28.02</ele>
        <time>2018-07-04T12:38:47Z</time>
      </trkpt>
      <trkpt lat="49.686551978811622" lon="-1.368031958118081">
        <ele>28.02</ele>
        <time>2018-07-04T12:38:48Z</time>
      </trkpt>
      <trkpt lat="49.68663495965302" lon="-1.368055008351803">
        <ele>27.530000000000001</ele>
        <time>2018-07-04T12:38:49Z</time>
      </trkpt>
      <trkpt lat="49.68671802431345" lon="-1.368165984749794">
        <ele>27.050000000000001</ele>
        <time>2018-07-04T12:38:50Z</time>
      </trkpt>
      <trkpt lat="49.686792958527803" lon="-1.368265980854631">
        <ele>26.57</ele>
        <time>2018-07-04T12:38:51Z</time>
      </trkpt>
      <trkpt lat="49.686867976561189" lon="-1.368364971131086">
        <ele>26.09</ele>
        <time>2018-07-04T12:38:52Z</time>
      </trkpt>
      <trkpt lat="49.686939977109432" lon="-1.368461027741432">
        <ele>25.609999999999999</ele>
        <time>2018-07-04T12:38:53Z</time>
      </trkpt>
      <trkpt lat="49.687009966000915" lon="-1.368554988875985">
        <ele>25.609999999999999</ele>
        <time>2018-07-04T12:38:54Z</time>
      </trkpt>
      <trkpt lat="49.687075009569526" lon="-1.368658002465963">
        <ele>25.129999999999999</ele>
        <time>2018-07-04T12:38:55Z</time>
      </trkpt>
      <trkpt lat="49.687138041481376" lon="-1.368760010227561">
        <ele>25.129999999999999</ele>
        <time>2018-07-04T12:38:56Z</time>
      </trkpt>
      <trkpt lat="49.687201995402575" lon="-1.368877021595836">
        <ele>24.649999999999999</ele>
        <time>2018-07-04T12:38:57Z</time>
      </trkpt>
      <trkpt lat="49.687249017879367" lon="-1.36901599355042">
        <ele>24.170000000000002</ele>
        <time>2018-07-04T12:38:58Z</time>
      </trkpt>
      <trkpt lat="49.687296040356159" lon="-1.369159994646907">
        <ele>24.170000000000002</ele>
        <time>2018-07-04T12:38:59Z</time>
      </trkpt>
      <trkpt lat="49.6873439848423" lon="-1.369325034320355">
        <ele>23.690000000000001</ele>
        <time>2018-07-04T12:39:00Z</time>
      </trkpt>
      <trkpt lat="49.687470970675349" lon="-1.369831971824169">
        <ele>22.25</ele>
        <time>2018-07-04T12:39:03Z</time>
      </trkpt>
      <trkpt lat="49.687528973445296" lon="-1.369985025376082">
        <ele>21.77</ele>
        <time>2018-07-04T12:39:04Z</time>
      </trkpt>
      <trkpt lat="49.68805099837482" lon="-1.370844002813101">
        <ele>19.84</ele>
        <time>2018-07-04T12:39:10Z</time>
      </trkpt>
      <trkpt lat="49.689240977168083" lon="-1.371877994388342">
        <ele>19.359999999999999</ele>
        <time>2018-07-04T12:39:19Z</time>
      </trkpt>
      <trkpt lat="49.689955031499267" lon="-1.372596994042397">
        <ele>20.809999999999999</ele>
        <time>2018-07-04T12:39:25Z</time>
      </trkpt>
      <trkpt lat="49.689991995692253" lon="-1.372717022895813">
        <ele>21.289999999999999</ele>
        <time>2018-07-04T12:39:26Z</time>
      </trkpt>
      <trkpt lat="49.69002895988524" lon="-1.372852977365255">
        <ele>21.289999999999999</ele>
        <time>2018-07-04T12:39:27Z</time>
      </trkpt>
      <trkpt lat="49.6900690253824" lon="-1.372999995946884">
        <ele>21.77</ele>
        <time>2018-07-04T12:39:28Z</time>
      </trkpt>
      <trkpt lat="49.69011303037405" lon="-1.373160006478429">
        <ele>21.77</ele>
        <time>2018-07-04T12:39:29Z</time>
      </trkpt>
      <trkpt lat="49.690256025642157" lon="-1.373685970902443">
        <ele>21.77</ele>
        <time>2018-07-04T12:39:32Z</time>
      </trkpt>
      <trkpt lat="49.69030799344182" lon="-1.373835001140833">
        <ele>21.77</ele>
        <time>2018-07-04T12:39:33Z</time>
      </trkpt>
      <trkpt lat="49.690382005646825" lon="-1.373982019722462">
        <ele>21.77</ele>
        <time>2018-07-04T12:39:34Z</time>
      </trkpt>
      <trkpt lat="49.691018024459481" lon="-1.375435022637248">
        <ele>21.289999999999999</ele>
        <time>2018-07-04T12:39:41Z</time>
      </trkpt>
      <trkpt lat="49.691634010523558" lon="-1.376982992514968">
        <ele>16.960000000000001</ele>
        <time>2018-07-04T12:39:49Z</time>
      </trkpt>
      <trkpt lat="49.691758984699845" lon="-1.377292033284903">
        <ele>14.56</ele>
        <time>2018-07-04T12:39:53Z</time>
      </trkpt>
      <trkpt lat="49.691840037703514" lon="-1.377313993871212">
        <ele>13.6</ele>
        <time>2018-07-04T12:39:54Z</time>
      </trkpt>
      <trkpt lat="49.691889993846416" lon="-1.377322040498257">
        <ele>13.119999999999999</ele>
        <time>2018-07-04T12:39:55Z</time>
      </trkpt>
      <trkpt lat="49.691960988566279" lon="-1.377280969172716">
        <ele>12.630000000000001</ele>
        <time>2018-07-04T12:39:56Z</time>
      </trkpt>
      <trkpt lat="49.692031983286142" lon="-1.377215003594756">
        <ele>12.15</ele>
        <time>2018-07-04T12:39:57Z</time>
      </trkpt>
      <trkpt lat="49.69211102463305" lon="-1.377140991389751">
        <ele>11.67</ele>
        <time>2018-07-04T12:39:58Z</time>
      </trkpt>
      <trkpt lat="49.692300958558917" lon="-1.377001013606787">
        <ele>11.19</ele>
        <time>2018-07-04T12:40:00Z</time>
      </trkpt>
      <trkpt lat="49.692414030432701" lon="-1.376960026100278">
        <ele>11.19</ele>
        <time>2018-07-04T12:40:01Z</time>
      </trkpt>
      <trkpt lat="49.693297985941172" lon="-1.376727009192109">
        <ele>12.630000000000001</ele>
        <time>2018-07-04T12:40:09Z</time>
      </trkpt>
      <trkpt lat="49.693441987037659" lon="-1.376740001142025">
        <ele>15.039999999999999</ele>
        <time>2018-07-04T12:40:14Z</time>
      </trkpt>
      <trkpt lat="49.693454978987575" lon="-1.376741006970406">
        <ele>15.039999999999999</ele>
        <time>2018-07-04T12:40:17Z</time>
      </trkpt>
      <trkpt lat="49.693505018949509" lon="-1.376773025840521">
        <ele>16</ele>
        <time>2018-07-04T12:40:18Z</time>
      </trkpt>
      <trkpt lat="49.693514993414283" lon="-1.376863969489932">
        <ele>16</ele>
        <time>2018-07-04T12:40:19Z</time>
      </trkpt>
      <trkpt lat="49.693564027547836" lon="-1.377276023849845">
        <ele>16.48</ele>
        <time>2018-07-04T12:40:22Z</time>
      </trkpt>
      <trkpt lat="49.69398396089673" lon="-1.378760039806366">
        <ele>16.960000000000001</ele>
        <time>2018-07-04T12:40:29Z</time>
      </trkpt>
      <trkpt lat="49.694745959714055" lon="-1.380586037412286">
        <ele>16.960000000000001</ele>
        <time>2018-07-04T12:40:36Z</time>
      </trkpt>
      <trkpt lat="49.695694036781788" lon="-1.381707033142448">
        <ele>16.960000000000001</ele>
        <time>2018-07-04T12:40:42Z</time>
      </trkpt>
      <trkpt lat="49.696389986202121" lon="-1.382447993382812">
        <ele>17.920000000000002</ele>
        <time>2018-07-04T12:40:47Z</time>
      </trkpt>
      <trkpt lat="49.69649501144886" lon="-1.382629964500666">
        <ele>17.920000000000002</ele>
        <time>2018-07-04T12:40:48Z</time>
      </trkpt>
      <trkpt lat="49.696590984240174" lon="-1.382797015830874">
        <ele>17.920000000000002</ele>
        <time>2018-07-04T12:40:49Z</time>
      </trkpt>
      <trkpt lat="49.696684023365378" lon="-1.383034978061914">
        <ele>17.920000000000002</ele>
        <time>2018-07-04T12:40:50Z</time>
      </trkpt>
      <trkpt lat="49.696770021691918" lon="-1.383255003020167">
        <ele>17.440000000000001</ele>
        <time>2018-07-04T12:40:51Z</time>
      </trkpt>
      <trkpt lat="49.69685803167522" lon="-1.383482990786433">
        <ele>17.440000000000001</ele>
        <time>2018-07-04T12:40:52Z</time>
      </trkpt>
      <trkpt lat="49.69692500308156" lon="-1.383736040443182">
        <ele>16.960000000000001</ele>
        <time>2018-07-04T12:40:53Z</time>
      </trkpt>
      <trkpt lat="49.697320964187384" lon="-1.386549007147551">
        <ele>12.15</ele>
        <time>2018-07-04T12:41:03Z</time>
      </trkpt>
      <trkpt lat="49.697190038859844" lon="-1.387737980112433">
        <ele>8.789999999999999</ele>
        <time>2018-07-04T12:41:07Z</time>
      </trkpt>
      <trkpt lat="49.697120971977711" lon="-1.388003015890718">
        <ele>8.310000000000001</ele>
        <time>2018-07-04T12:41:08Z</time>
      </trkpt>
      <trkpt lat="49.69634204171598" lon="-1.389911994338036">
        <ele>9.75</ele>
        <time>2018-07-04T12:41:16Z</time>
      </trkpt>
      <trkpt lat="49.695196989923716" lon="-1.392108974978328">
        <ele>13.119999999999999</ele>
        <time>2018-07-04T12:41:25Z</time>
      </trkpt>
      <trkpt lat="49.694875041022897" lon="-1.392884971573949">
        <ele>13.119999999999999</ele>
        <time>2018-07-04T12:41:28Z</time>
      </trkpt>
      <trkpt lat="49.694786025211215" lon="-1.393154030665755">
        <ele>12.630000000000001</ele>
        <time>2018-07-04T12:41:29Z</time>
      </trkpt>
      <trkpt lat="49.694716958329082" lon="-1.393442032858729">
        <ele>12.15</ele>
        <time>2018-07-04T12:41:30Z</time>
      </trkpt>
      <trkpt lat="49.694683011621237" lon="-1.393754007294774">
        <ele>11.19</ele>
        <time>2018-07-04T12:41:31Z</time>
      </trkpt>
      <trkpt lat="49.694646969437599" lon="-1.394071010872722">
        <ele>10.23</ele>
        <time>2018-07-04T12:41:32Z</time>
      </trkpt>
      <trkpt lat="49.694614028558135" lon="-1.394372005015612">
        <ele>9.27</ele>
        <time>2018-07-04T12:41:33Z</time>
      </trkpt>
      <trkpt lat="49.694553008303046" lon="-1.394920013844967">
        <ele>7.83</ele>
        <time>2018-07-04T12:41:35Z</time>
      </trkpt>
      <trkpt lat="49.694559965282679" lon="-1.395179014652968">
        <ele>7.35</ele>
        <time>2018-07-04T12:41:36Z</time>
      </trkpt>
      <trkpt lat="49.694601036608219" lon="-1.395432986319065">
        <ele>6.39</ele>
        <time>2018-07-04T12:41:37Z</time>
      </trkpt>
      <trkpt lat="49.69464504159987" lon="-1.395707996562123">
        <ele>5.91</ele>
        <time>2018-07-04T12:41:38Z</time>
      </trkpt>
      <trkpt lat="49.694719975814223" lon="-1.395991975441575">
        <ele>5.91</ele>
        <time>2018-07-04T12:41:39Z</time>
      </trkpt>
      <trkpt lat="49.694813014939427" lon="-1.396290035918355">
        <ele>5.91</ele>
        <time>2018-07-04T12:41:40Z</time>
      </trkpt>
      <trkpt lat="49.695090958848596" lon="-1.397456964477897">
        <ele>8.789999999999999</ele>
        <time>2018-07-04T12:41:44Z</time>
      </trkpt>
      <trkpt lat="49.695108979940414" lon="-1.397728035226464">
        <ele>10.23</ele>
        <time>2018-07-04T12:41:45Z</time>
      </trkpt>
      <trkpt lat="49.69505600631237" lon="-1.397988041862845">
        <ele>11.19</ele>
        <time>2018-07-04T12:41:46Z</time>
      </trkpt>
      <trkpt lat="49.694993980228901" lon="-1.39825601130724">
        <ele>12.15</ele>
        <time>2018-07-04T12:41:47Z</time>
      </trkpt>
      <trkpt lat="49.694909993559122" lon="-1.398519035428762">
        <ele>13.119999999999999</ele>
        <time>2018-07-04T12:41:48Z</time>
      </trkpt>
      <trkpt lat="49.694801028817892" lon="-1.398778958246112">
        <ele>14.08</ele>
        <time>2018-07-04T12:41:49Z</time>
      </trkpt>
      <trkpt lat="49.693820010870695" lon="-1.401203004643321">
        <ele>16</ele>
        <time>2018-07-04T12:41:58Z</time>
      </trkpt>
      <trkpt lat="49.693749016150832" lon="-1.401470974087715">
        <ele>16</ele>
        <time>2018-07-04T12:41:59Z</time>
      </trkpt>
      <trkpt lat="49.693695036694407" lon="-1.401746990159154">
        <ele>16</ele>
        <time>2018-07-04T12:42:00Z</time>
      </trkpt>
      <trkpt lat="49.693695036694407" lon="-1.402024012058973">
        <ele>16</ele>
        <time>2018-07-04T12:42:01Z</time>
      </trkpt>
      <trkpt lat="49.693695036694407" lon="-1.402294998988509">
        <ele>16.48</ele>
        <time>2018-07-04T12:42:02Z</time>
      </trkpt>
      <trkpt lat="49.693732000887394" lon="-1.402565985918045">
        <ele>16.960000000000001</ele>
        <time>2018-07-04T12:42:03Z</time>
      </trkpt>
      <trkpt lat="49.693783968687057" lon="-1.402837978675962">
        <ele>16.960000000000001</ele>
        <time>2018-07-04T12:42:04Z</time>
      </trkpt>
      <trkpt lat="49.693836020305753" lon="-1.403115000575781">
        <ele>17.440000000000001</ele>
        <time>2018-07-04T12:42:05Z</time>
      </trkpt>
      <trkpt lat="49.694087980315089" lon="-1.40474796295166">
        <ele>17.440000000000001</ele>
        <time>2018-07-04T12:42:11Z</time>
      </trkpt>
      <trkpt lat="49.694096026942134" lon="-1.405040994286537">
        <ele>17.440000000000001</ele>
        <time>2018-07-04T12:42:12Z</time>
      </trkpt>
      <trkpt lat="49.694098960608244" lon="-1.405338970944285">
        <ele>17.920000000000002</ele>
        <time>2018-07-04T12:42:13Z</time>
      </trkpt>
      <trkpt lat="49.694087980315089" lon="-1.405642982572317">
        <ele>18.399999999999999</ele>
        <time>2018-07-04T12:42:14Z</time>
      </trkpt>
      <trkpt lat="49.694063002243638" lon="-1.405944982543588">
        <ele>18.879999999999999</ele>
        <time>2018-07-04T12:42:15Z</time>
      </trkpt>
      <trkpt lat="49.694011034443974" lon="-1.406242959201336">
        <ele>19.84</ele>
        <time>2018-07-04T12:42:16Z</time>
      </trkpt>
      <trkpt lat="49.693958982825279" lon="-1.406541019678116">
        <ele>20.32</ele>
        <time>2018-07-04T12:42:17Z</time>
      </trkpt>
      <trkpt lat="49.693892011418939" lon="-1.406818041577935">
        <ele>21.289999999999999</ele>
        <time>2018-07-04T12:42:18Z</time>
      </trkpt>
      <trkpt lat="49.693810036405921" lon="-1.407072013244033">
        <ele>21.77</ele>
        <time>2018-07-04T12:42:19Z</time>
      </trkpt>
      <trkpt lat="49.693727977573872" lon="-1.40732497908175">
        <ele>22.73</ele>
        <time>2018-07-04T12:42:20Z</time>
      </trkpt>
      <trkpt lat="49.693247023969889" lon="-1.409308975562453">
        <ele>26.09</ele>
        <time>2018-07-04T12:42:28Z</time>
      </trkpt>
      <trkpt lat="49.693225985392928" lon="-1.409812979400158">
        <ele>26.57</ele>
        <time>2018-07-04T12:42:30Z</time>
      </trkpt>
      <trkpt lat="49.693296980112791" lon="-1.410579001531005">
        <ele>27.050000000000001</ele>
        <time>2018-07-04T12:42:33Z</time>
      </trkpt>
      <trkpt lat="49.693364035338163" lon="-1.410821992903948">
        <ele>27.050000000000001</ele>
        <time>2018-07-04T12:42:34Z</time>
      </trkpt>
      <trkpt lat="49.693432012572885" lon="-1.411068001762033">
        <ele>27.050000000000001</ele>
        <time>2018-07-04T12:42:35Z</time>
      </trkpt>
      <trkpt lat="49.693499989807606" lon="-1.411317028105259">
        <ele>27.050000000000001</ele>
        <time>2018-07-04T12:42:36Z</time>
      </trkpt>
      <trkpt lat="49.693568972870708" lon="-1.411569993942976">
        <ele>27.050000000000001</ele>
        <time>2018-07-04T12:42:37Z</time>
      </trkpt>
      <trkpt lat="49.693753039464355" lon="-1.412669029086828">
        <ele>25.609999999999999</ele>
        <time>2018-07-04T12:42:41Z</time>
      </trkpt>
      <trkpt lat="49.693786986172199" lon="-1.4150380063802">
        <ele>21.77</ele>
        <time>2018-07-04T12:42:48Z</time>
      </trkpt>
      <trkpt lat="49.693781035020947" lon="-1.418233020231128">
        <ele>15.52</ele>
        <time>2018-07-04T12:42:56Z</time>
      </trkpt>
      <trkpt lat="49.693513987585902" lon="-1.421837992966175">
        <ele>15.52</ele>
        <time>2018-07-04T12:43:05Z</time>
      </trkpt>
      <trkpt lat="49.693050971254706" lon="-1.42483301460743">
        <ele>15.039999999999999</ele>
        <time>2018-07-04T12:43:13Z</time>
      </trkpt>
      <trkpt lat="49.693050971254706" lon="-1.42519704066217">
        <ele>14.56</ele>
        <time>2018-07-04T12:43:14Z</time>
      </trkpt>
      <trkpt lat="49.693066980689764" lon="-1.425570035353303">
        <ele>14.08</ele>
        <time>2018-07-04T12:43:15Z</time>
      </trkpt>
      <trkpt lat="49.693130012601614" lon="-1.425940012559295">
        <ele>13.6</ele>
        <time>2018-07-04T12:43:16Z</time>
      </trkpt>
      <trkpt lat="49.693364035338163" lon="-1.42745504155755">
        <ele>11.19</ele>
        <time>2018-07-04T12:43:20Z</time>
      </trkpt>
      <trkpt lat="49.693394964560866" lon="-1.427800040692091">
        <ele>10.710000000000001</ele>
        <time>2018-07-04T12:43:21Z</time>
      </trkpt>
      <trkpt lat="49.693411979824305" lon="-1.428130958229303">
        <ele>10.23</ele>
        <time>2018-07-04T12:43:22Z</time>
      </trkpt>
      <trkpt lat="49.693391025066376" lon="-1.428452990949154">
        <ele>9.75</ele>
        <time>2018-07-04T12:43:23Z</time>
      </trkpt>
      <trkpt lat="49.693369986489415" lon="-1.428772006183863">
        <ele>10.23</ele>
        <time>2018-07-04T12:43:24Z</time>
      </trkpt>
      <trkpt lat="49.693349031731486" lon="-1.429070988669992">
        <ele>10.23</ele>
        <time>2018-07-04T12:43:25Z</time>
      </trkpt>
      <trkpt lat="49.69329597428441" lon="-1.429338036105037">
        <ele>10.23</ele>
        <time>2018-07-04T12:43:26Z</time>
      </trkpt>
      <trkpt lat="49.693241994827986" lon="-1.429607011377811">
        <ele>10.710000000000001</ele>
        <time>2018-07-04T12:43:27Z</time>
      </trkpt>
      <trkpt lat="49.692647969350219" lon="-1.432372033596039">
        <ele>14.56</ele>
        <time>2018-07-04T12:43:38Z</time>
      </trkpt>
      <trkpt lat="49.692069031298161" lon="-1.434990037232637">
        <ele>20.809999999999999</ele>
        <time>2018-07-04T12:43:47Z</time>
      </trkpt>
      <trkpt lat="49.691630993038416" lon="-1.437026001513004">
        <ele>20.32</ele>
        <time>2018-07-04T12:43:55Z</time>
      </trkpt>
      <trkpt lat="49.69095197506249" lon="-1.440105009824038">
        <ele>16.960000000000001</ele>
        <time>2018-07-04T12:44:08Z</time>
      </trkpt>
      <trkpt lat="49.690316962078214" lon="-1.442724019289017">
        <ele>21.77</ele>
        <time>2018-07-04T12:44:17Z</time>
      </trkpt>
      <trkpt lat="49.690218977630138" lon="-1.442986037582159">
        <ele>21.77</ele>
        <time>2018-07-04T12:44:18Z</time>
      </trkpt>
      <trkpt lat="49.690074976533651" lon="-1.443220982328057">
        <ele>21.77</ele>
        <time>2018-07-04T12:44:19Z</time>
      </trkpt>
      <trkpt lat="49.689928041771054" lon="-1.443437989801168">
        <ele>22.25</ele>
        <time>2018-07-04T12:44:20Z</time>
      </trkpt>
      <trkpt lat="49.689765013754368" lon="-1.4436349645257">
        <ele>22.25</ele>
        <time>2018-07-04T12:44:21Z</time>
      </trkpt>
      <trkpt lat="49.689600979909301" lon="-1.443833028897643">
        <ele>22.73</ele>
        <time>2018-07-04T12:44:22Z</time>
      </trkpt>
      <trkpt lat="49.689420014619827" lon="-1.443979041650891">
        <ele>22.73</ele>
        <time>2018-07-04T12:44:23Z</time>
      </trkpt>
      <trkpt lat="49.68923301436007" lon="-1.444117007777095">
        <ele>22.73</ele>
        <time>2018-07-04T12:44:24Z</time>
      </trkpt>
      <trkpt lat="49.689036961644888" lon="-1.44421499222517">
        <ele>22.73</ele>
        <time>2018-07-04T12:44:25Z</time>
      </trkpt>
      <trkpt lat="49.688837975263596" lon="-1.444291016086936">
        <ele>22.73</ele>
        <time>2018-07-04T12:44:26Z</time>
      </trkpt>
      <trkpt lat="49.688636977225542" lon="-1.444341978058219">
        <ele>23.210000000000001</ele>
        <time>2018-07-04T12:44:27Z</time>
      </trkpt>
      <trkpt lat="49.688434973359108" lon="-1.444354970008135">
        <ele>23.210000000000001</ele>
        <time>2018-07-04T12:44:28Z</time>
      </trkpt>
      <trkpt lat="49.688237998634577" lon="-1.444323034957051">
        <ele>23.210000000000001</ele>
        <time>2018-07-04T12:44:29Z</time>
      </trkpt>
      <trkpt lat="49.688043035566807" lon="-1.444269977509975">
        <ele>23.210000000000001</ele>
        <time>2018-07-04T12:44:30Z</time>
      </trkpt>
      <trkpt lat="49.687847988680005" lon="-1.444218009710312">
        <ele>23.210000000000001</ele>
        <time>2018-07-04T12:44:31Z</time>
      </trkpt>
      <trkpt lat="49.687660988420248" lon="-1.444132011383772">
        <ele>23.690000000000001</ele>
        <time>2018-07-04T12:44:32Z</time>
      </trkpt>
      <trkpt lat="49.68747298233211" lon="-1.444037966430187">
        <ele>24.170000000000002</ele>
        <time>2018-07-04T12:44:33Z</time>
      </trkpt>
      <trkpt lat="49.68628903850913" lon="-1.443389961495996">
        <ele>28.98</ele>
        <time>2018-07-04T12:44:40Z</time>
      </trkpt>
      <trkpt lat="49.686135984957218" lon="-1.443379987031221">
        <ele>29.940000000000001</ele>
        <time>2018-07-04T12:44:41Z</time>
      </trkpt>
      <trkpt lat="49.685979997739196" lon="-1.443370012566447">
        <ele>30.420000000000002</ele>
        <time>2018-07-04T12:44:42Z</time>
      </trkpt>
      <trkpt lat="49.685825016349554" lon="-1.443359032273293">
        <ele>30.420000000000002</ele>
        <time>2018-07-04T12:44:43Z</time>
      </trkpt>
      <trkpt lat="49.685516981408" lon="-1.443416029214859">
        <ele>31.379999999999999</ele>
        <time>2018-07-04T12:44:45Z</time>
      </trkpt>
      <trkpt lat="49.685363005846739" lon="-1.443475037813187">
        <ele>31.859999999999999</ele>
        <time>2018-07-04T12:44:46Z</time>
      </trkpt>
      <trkpt lat="49.684818014502525" lon="-1.443831017240882">
        <ele>31.379999999999999</ele>
        <time>2018-07-04T12:44:50Z</time>
      </trkpt>
      <trkpt lat="49.684696979820728" lon="-1.443964038044214">
        <ele>30.899999999999999</ele>
        <time>2018-07-04T12:44:51Z</time>
      </trkpt>
      <trkpt lat="49.684569993987679" lon="-1.444104015827179">
        <ele>29.940000000000001</ele>
        <time>2018-07-04T12:44:52Z</time>
      </trkpt>
      <trkpt lat="49.683628035709262" lon="-1.445327019318938">
        <ele>24.170000000000002</ele>
        <time>2018-07-04T12:45:00Z</time>
      </trkpt>
      <trkpt lat="49.68293602578342" lon="-1.446609031409025">
        <ele>16.960000000000001</ele>
        <time>2018-07-04T12:45:07Z</time>
      </trkpt>
      <trkpt lat="49.682866958901286" lon="-1.446786979213357">
        <ele>16</ele>
        <time>2018-07-04T12:45:08Z</time>
      </trkpt>
      <trkpt lat="49.682803004980087" lon="-1.446954030543566">
        <ele>15.039999999999999</ele>
        <time>2018-07-04T12:45:09Z</time>
      </trkpt>
      <trkpt lat="49.682794036343694" lon="-1.447084033861756">
        <ele>14.08</ele>
        <time>2018-07-04T12:45:10Z</time>
      </trkpt>
      <trkpt lat="49.682822031900287" lon="-1.447325013577938">
        <ele>13.119999999999999</ele>
        <time>2018-07-04T12:45:11Z</time>
      </trkpt>
      <trkpt lat="49.682844998314977" lon="-1.447525005787611">
        <ele>12.630000000000001</ele>
        <time>2018-07-04T12:45:12Z</time>
      </trkpt>
      <trkpt lat="49.682886991649866" lon="-1.44771602936089">
        <ele>12.15</ele>
        <time>2018-07-04T12:45:13Z</time>
      </trkpt>
      <trkpt lat="49.682961003854871" lon="-1.44791099242866">
        <ele>12.15</ele>
        <time>2018-07-04T12:45:14Z</time>
      </trkpt>
      <trkpt lat="49.683039039373398" lon="-1.448114002123475">
        <ele>12.15</ele>
        <time>2018-07-04T12:45:15Z</time>
      </trkpt>
      <trkpt lat="49.683300973847508" lon="-1.448740968480706">
        <ele>13.119999999999999</ele>
        <time>2018-07-04T12:45:18Z</time>
      </trkpt>
      <trkpt lat="49.683414967730641" lon="-1.448924029245973">
        <ele>13.6</ele>
        <time>2018-07-04T12:45:19Z</time>
      </trkpt>
      <trkpt lat="49.683533990755677" lon="-1.449086973443627">
        <ele>15.039999999999999</ele>
        <time>2018-07-04T12:45:20Z</time>
      </trkpt>
      <trkpt lat="49.683659970760345" lon="-1.449228962883353">
        <ele>16</ele>
        <time>2018-07-04T12:45:21Z</time>
      </trkpt>
      <trkpt lat="49.683806989341974" lon="-1.449333988130093">
        <ele>17.440000000000001</ele>
        <time>2018-07-04T12:45:22Z</time>
      </trkpt>
      <trkpt lat="49.68394797295332" lon="-1.44943499006331">
        <ele>18.879999999999999</ele>
        <time>2018-07-04T12:45:23Z</time>
      </trkpt>
      <trkpt lat="49.684081999585032" lon="-1.449530040845275">
        <ele>19.84</ele>
        <time>2018-07-04T12:45:24Z</time>
      </trkpt>
      <trkpt lat="49.684209991246462" lon="-1.449690973386169">
        <ele>21.289999999999999</ele>
        <time>2018-07-04T12:45:25Z</time>
      </trkpt>
      <trkpt lat="49.684314010664821" lon="-1.449866993352771">
        <ele>22.25</ele>
        <time>2018-07-04T12:45:26Z</time>
      </trkpt>
      <trkpt lat="49.684392968192697" lon="-1.450051981955767">
        <ele>24.170000000000002</ele>
        <time>2018-07-04T12:45:27Z</time>
      </trkpt>
      <trkpt lat="49.684437979012728" lon="-1.450258009135723">
        <ele>25.609999999999999</ele>
        <time>2018-07-04T12:45:28Z</time>
      </trkpt>
      <trkpt lat="49.684489024803042" lon="-1.450495971366763">
        <ele>27.050000000000001</ele>
        <time>2018-07-04T12:45:29Z</time>
      </trkpt>
      <trkpt lat="49.684497993439436" lon="-1.450690012425184">
        <ele>28.98</ele>
        <time>2018-07-04T12:45:30Z</time>
      </trkpt>
      <trkpt lat="49.68450696207583" lon="-1.450910037383437">
        <ele>30.899999999999999</ele>
        <time>2018-07-04T12:45:31Z</time>
      </trkpt>
      <trkpt lat="49.684516014531255" lon="-1.451129978522658">
        <ele>32.340000000000003</ele>
        <time>2018-07-04T12:45:32Z</time>
      </trkpt>
      <trkpt lat="49.684525988996029" lon="-1.451351009309292">
        <ele>34.259999999999998</ele>
        <time>2018-07-04T12:45:33Z</time>
      </trkpt>
      <trkpt lat="49.684532023966312" lon="-1.451576985418797">
        <ele>36.189999999999998</ele>
        <time>2018-07-04T12:45:34Z</time>
      </trkpt>
      <trkpt lat="49.684532023966312" lon="-1.451805979013443">
        <ele>37.630000000000003</ele>
        <time>2018-07-04T12:45:35Z</time>
      </trkpt>
      <trkpt lat="49.684520959854126" lon="-1.452030027285218">
        <ele>40.030000000000001</ele>
        <time>2018-07-04T12:45:36Z</time>
      </trkpt>
      <trkpt lat="49.684400008991361" lon="-1.452996963635087">
        <ele>46.280000000000001</ele>
        <time>2018-07-04T12:45:41Z</time>
      </trkpt>
      <trkpt lat="49.684347035363317" lon="-1.453164014965296">
        <ele>46.759999999999998</ele>
        <time>2018-07-04T12:45:42Z</time>
      </trkpt>
      <trkpt lat="49.684290960431099" lon="-1.453336011618376">
        <ele>46.759999999999998</ele>
        <time>2018-07-04T12:45:43Z</time>
      </trkpt>
      <trkpt lat="49.684233041480184" lon="-1.453514965251088">
        <ele>46.759999999999998</ele>
        <time>2018-07-04T12:45:44Z</time>
      </trkpt>
      <trkpt lat="49.684152994304895" lon="-1.453677993267775">
        <ele>46.759999999999998</ele>
        <time>2018-07-04T12:45:45Z</time>
      </trkpt>
      <trkpt lat="49.684056015685201" lon="-1.453831968829036">
        <ele>46.759999999999998</ele>
        <time>2018-07-04T12:45:46Z</time>
      </trkpt>
      <trkpt lat="49.683959037065506" lon="-1.45398803986609">
        <ele>46.280000000000001</ele>
        <time>2018-07-04T12:45:47Z</time>
      </trkpt>
      <trkpt lat="49.683850994333625" lon="-1.454129023477435">
        <ele>46.280000000000001</ele>
        <time>2018-07-04T12:45:48Z</time>
      </trkpt>
      <trkpt lat="49.683719985187054" lon="-1.454230025410652">
        <ele>45.799999999999997</ele>
        <time>2018-07-04T12:45:49Z</time>
      </trkpt>
      <trkpt lat="49.683585958555341" lon="-1.454323986545205">
        <ele>45.799999999999997</ele>
        <time>2018-07-04T12:45:50Z</time>
      </trkpt>
      <trkpt lat="49.683438017964363" lon="-1.454380983486772">
        <ele>45.799999999999997</ele>
        <time>2018-07-04T12:45:51Z</time>
      </trkpt>
      <trkpt lat="49.68283100053668" lon="-1.454626992344856">
        <ele>45.799999999999997</ele>
        <time>2018-07-04T12:45:55Z</time>
      </trkpt>
      <trkpt lat="49.68268096446991" lon="-1.454726988449693">
        <ele>45.799999999999997</ele>
        <time>2018-07-04T12:45:56Z</time>
      </trkpt>
      <trkpt lat="49.681889964267612" lon="-1.455399971455336">
        <ele>47.240000000000002</ele>
        <time>2018-07-04T12:46:03Z</time>
      </trkpt>
      <trkpt lat="49.681701958179474" lon="-1.455596024170518">
        <ele>47.719999999999999</ele>
        <time>2018-07-04T12:46:05Z</time>
      </trkpt>
      <trkpt lat="49.681592993438244" lon="-1.455710018053651">
        <ele>48.200000000000003</ele>
        <time>2018-07-04T12:46:06Z</time>
      </trkpt>
      <trkpt lat="49.681140035390854" lon="-1.456953976303339">
        <ele>49.649999999999999</ele>
        <time>2018-07-04T12:46:14Z</time>
      </trkpt>
      <trkpt lat="49.681103993207216" lon="-1.457143994048238">
        <ele>49.649999999999999</ele>
        <time>2018-07-04T12:46:15Z</time>
      </trkpt>
      <trkpt lat="49.681083038449287" lon="-1.457336023449898">
        <ele>49.649999999999999</ele>
        <time>2018-07-04T12:46:16Z</time>
      </trkpt>
      <trkpt lat="49.680982958525419" lon="-1.458495995029807">
        <ele>51.090000000000003</ele>
        <time>2018-07-04T12:46:22Z</time>
      </trkpt>
      <trkpt lat="49.680778020992875" lon="-1.460899002850056">
        <ele>52.530000000000001</ele>
        <time>2018-07-04T12:46:34Z</time>
      </trkpt>
      <trkpt lat="49.680598983541131" lon="-1.463030017912388">
        <ele>53.969999999999999</ele>
        <time>2018-07-04T12:46:44Z</time>
      </trkpt>
      <trkpt lat="49.680435033515096" lon="-1.46486003883183">
        <ele>49.649999999999999</ele>
        <time>2018-07-04T12:46:52Z</time>
      </trkpt>
      <trkpt lat="49.680305030196905" lon="-1.466288985684514">
        <ele>48.200000000000003</ele>
        <time>2018-07-04T12:46:57Z</time>
      </trkpt>
      <trkpt lat="49.680233029648662" lon="-1.466589979827404">
        <ele>48.200000000000003</ele>
        <time>2018-07-04T12:46:58Z</time>
      </trkpt>
      <trkpt lat="49.679943015798926" lon="-1.467497991397977">
        <ele>48.200000000000003</ele>
        <time>2018-07-04T12:47:01Z</time>
      </trkpt>
      <trkpt lat="49.679805971682072" lon="-1.467782976105809">
        <ele>47.719999999999999</ele>
        <time>2018-07-04T12:47:02Z</time>
      </trkpt>
      <trkpt lat="49.679131982848048" lon="-1.469189962372184">
        <ele>43.880000000000003</ele>
        <time>2018-07-04T12:47:07Z</time>
      </trkpt>
      <trkpt lat="49.679042967036366" lon="-1.469500008970499">
        <ele>43.399999999999999</ele>
        <time>2018-07-04T12:47:08Z</time>
      </trkpt>
      <trkpt lat="49.678260013461113" lon="-1.472754031419754">
        <ele>40.509999999999998</ele>
        <time>2018-07-04T12:47:17Z</time>
      </trkpt>
      <trkpt lat="49.6775889582932" lon="-1.475877966731787">
        <ele>38.109999999999999</ele>
        <time>2018-07-04T12:47:26Z</time>
      </trkpt>
      <trkpt lat="49.677545037120581" lon="-1.476860996335745">
        <ele>37.149999999999999</ele>
        <time>2018-07-04T12:47:29Z</time>
      </trkpt>
      <trkpt lat="49.677560040727258" lon="-1.477205995470285">
        <ele>36.670000000000002</ele>
        <time>2018-07-04T12:47:30Z</time>
      </trkpt>
      <trkpt lat="49.677597004920244" lon="-1.477559041231871">
        <ele>35.710000000000001</ele>
        <time>2018-07-04T12:47:31Z</time>
      </trkpt>
      <trkpt lat="49.677827004343271" lon="-1.480599995702505">
        <ele>34.259999999999998</ele>
        <time>2018-07-04T12:47:40Z</time>
      </trkpt>
      <trkpt lat="49.677700018510222" lon="-1.481530973687768">
        <ele>34.259999999999998</ele>
        <time>2018-07-04T12:47:43Z</time>
      </trkpt>
      <trkpt lat="49.677614020183682" lon="-1.481833979487419">
        <ele>34.259999999999998</ele>
        <time>2018-07-04T12:47:44Z</time>
      </trkpt>
      <trkpt lat="49.677531039342284" lon="-1.482123993337154">
        <ele>34.259999999999998</ele>
        <time>2018-07-04T12:47:45Z</time>
      </trkpt>
      <trkpt lat="49.677456021308899" lon="-1.482386011630297">
        <ele>33.780000000000001</ele>
        <time>2018-07-04T12:47:46Z</time>
      </trkpt>
      <trkpt lat="49.67735099606216" lon="-1.482593966647983">
        <ele>33.299999999999997</ele>
        <time>2018-07-04T12:47:47Z</time>
      </trkpt>
      <trkpt lat="49.677258962765336" lon="-1.482769986614585">
        <ele>33.299999999999997</ele>
        <time>2018-07-04T12:47:48Z</time>
      </trkpt>
      <trkpt lat="49.676882028579712" lon="-1.483431989327073">
        <ele>31.859999999999999</ele>
        <time>2018-07-04T12:47:54Z</time>
      </trkpt>
      <trkpt lat="49.67602196149528" lon="-1.484135985374451">
        <ele>29.460000000000001</ele>
        <time>2018-07-04T12:48:02Z</time>
      </trkpt>
      <trkpt lat="49.67479501850903" lon="-1.484505040571094">
        <ele>25.609999999999999</ele>
        <time>2018-07-04T12:48:09Z</time>
      </trkpt>
      <trkpt lat="49.673859011381865" lon="-1.484964033588767">
        <ele>23.690000000000001</ele>
        <time>2018-07-04T12:48:15Z</time>
      </trkpt>
      <trkpt lat="49.673049990087748" lon="-1.485150028020144">
        <ele>23.690000000000001</ele>
        <time>2018-07-04T12:48:22Z</time>
      </trkpt>
      <trkpt lat="49.671735037118196" lon="-1.485150028020144">
        <ele>22.73</ele>
        <time>2018-07-04T12:48:34Z</time>
      </trkpt>
      <trkpt lat="49.670640025287867" lon="-1.485060006380081">
        <ele>21.77</ele>
        <time>2018-07-04T12:48:45Z</time>
      </trkpt>
      <trkpt lat="49.669502014294267" lon="-1.484773010015488">
        <ele>21.289999999999999</ele>
        <time>2018-07-04T12:48:56Z</time>
      </trkpt>
      <trkpt lat="49.66925298795104" lon="-1.484761023893952">
        <ele>20.809999999999999</ele>
        <time>2018-07-04T12:48:58Z</time>
      </trkpt>
      <trkpt lat="49.669120972976089" lon="-1.4847999997437">
        <ele>20.809999999999999</ele>
        <time>2018-07-04T12:48:59Z</time>
      </trkpt>
      <trkpt lat="49.668983006849885" lon="-1.484839981421828">
        <ele>20.32</ele>
        <time>2018-07-04T12:49:00Z</time>
      </trkpt>
      <trkpt lat="49.668839005753398" lon="-1.484881974756718">
        <ele>20.32</ele>
        <time>2018-07-04T12:49:01Z</time>
      </trkpt>
      <trkpt lat="49.668696010485291" lon="-1.484979959204793">
        <ele>20.32</ele>
        <time>2018-07-04T12:49:02Z</time>
      </trkpt>
      <trkpt lat="49.66841597110033" lon="-1.48520995862782">
        <ele>19.84</ele>
        <time>2018-07-04T12:49:04Z</time>
      </trkpt>
      <trkpt lat="49.668288985267282" lon="-1.485339039936662">
        <ele>19.359999999999999</ele>
        <time>2018-07-04T12:49:05Z</time>
      </trkpt>
      <trkpt lat="49.668172979727387" lon="-1.485502989962697">
        <ele>19.84</ele>
        <time>2018-07-04T12:49:06Z</time>
      </trkpt>
      <trkpt lat="49.668054962530732" lon="-1.485670041292906">
        <ele>19.84</ele>
        <time>2018-07-04T12:49:07Z</time>
      </trkpt>
      <trkpt lat="49.667967036366463" lon="-1.485794009640813">
        <ele>20.32</ele>
        <time>2018-07-04T12:49:08Z</time>
      </trkpt>
      <trkpt lat="49.6678770147264" lon="-1.486028032377362">
        <ele>20.32</ele>
        <time>2018-07-04T12:49:09Z</time>
      </trkpt>
      <trkpt lat="49.667793028056622" lon="-1.486245961859822">
        <ele>20.32</ele>
        <time>2018-07-04T12:49:10Z</time>
      </trkpt>
      <trkpt lat="49.667731001973152" lon="-1.486461041495204">
        <ele>20.32</ele>
        <time>2018-07-04T12:49:11Z</time>
      </trkpt>
      <trkpt lat="49.667680962011218" lon="-1.486707972362638">
        <ele>20.809999999999999</ele>
        <time>2018-07-04T12:49:12Z</time>
      </trkpt>
      <trkpt lat="49.66764198616147" lon="-1.486932020634413">
        <ele>21.289999999999999</ele>
        <time>2018-07-04T12:49:13Z</time>
      </trkpt>
      <trkpt lat="49.667626982554793" lon="-1.487173000350595">
        <ele>21.77</ele>
        <time>2018-07-04T12:49:14Z</time>
      </trkpt>
      <trkpt lat="49.667634023353457" lon="-1.487379027530551">
        <ele>22.25</ele>
        <time>2018-07-04T12:49:15Z</time>
      </trkpt>
      <trkpt lat="49.667648021131754" lon="-1.487583965063095">
        <ele>22.25</ele>
        <time>2018-07-04T12:49:16Z</time>
      </trkpt>
      <trkpt lat="49.66766101308167" lon="-1.487770965322852">
        <ele>22.25</ele>
        <time>2018-07-04T12:49:17Z</time>
      </trkpt>
      <trkpt lat="49.667904004454613" lon="-1.488911993801594">
        <ele>20.32</ele>
        <time>2018-07-04T12:49:24Z</time>
      </trkpt>
      <trkpt lat="49.667965024709702" lon="-1.489072004333139">
        <ele>19.84</ele>
        <time>2018-07-04T12:49:25Z</time>
      </trkpt>
      <trkpt lat="49.668030990287662" lon="-1.489248024299741">
        <ele>19.84</ele>
        <time>2018-07-04T12:49:26Z</time>
      </trkpt>
      <trkpt lat="49.668770022690296" lon="-1.490487037226558">
        <ele>19.84</ele>
        <time>2018-07-04T12:49:36Z</time>
      </trkpt>
      <trkpt lat="49.668840011581779" lon="-1.490637995302677">
        <ele>19.84</ele>
        <time>2018-07-04T12:49:37Z</time>
      </trkpt>
      <trkpt lat="49.66890899464488" lon="-1.490789037197828">
        <ele>19.84</ele>
        <time>2018-07-04T12:49:38Z</time>
      </trkpt>
      <trkpt lat="49.668948976323009" lon="-1.490962039679289">
        <ele>19.84</ele>
        <time>2018-07-04T12:49:39Z</time>
      </trkpt>
      <trkpt lat="49.668987030163407" lon="-1.491136969998479">
        <ele>19.84</ele>
        <time>2018-07-04T12:49:40Z</time>
      </trkpt>
      <trkpt lat="49.669011002406478" lon="-1.491315001621842">
        <ele>19.84</ele>
        <time>2018-07-04T12:49:41Z</time>
      </trkpt>
      <trkpt lat="49.669032040983438" lon="-1.491506025195122">
        <ele>19.84</ele>
        <time>2018-07-04T12:49:42Z</time>
      </trkpt>
      <trkpt lat="49.669052995741367" lon="-1.491702999919653">
        <ele>19.84</ele>
        <time>2018-07-04T12:49:43Z</time>
      </trkpt>
      <trkpt lat="49.66905802488327" lon="-1.491901986300945">
        <ele>19.84</ele>
        <time>2018-07-04T12:49:44Z</time>
      </trkpt>
      <trkpt lat="49.669051989912987" lon="-1.492108013480902">
        <ele>19.84</ele>
        <time>2018-07-04T12:49:45Z</time>
      </trkpt>
      <trkpt lat="49.669046038761735" lon="-1.492316974326968">
        <ele>19.84</ele>
        <time>2018-07-04T12:49:46Z</time>
      </trkpt>
      <trkpt lat="49.669041009619832" lon="-1.492523001506925">
        <ele>19.84</ele>
        <time>2018-07-04T12:49:47Z</time>
      </trkpt>
      <trkpt lat="49.669004967436194" lon="-1.492717964574695">
        <ele>19.84</ele>
        <time>2018-07-04T12:49:48Z</time>
      </trkpt>
      <trkpt lat="49.668963979929686" lon="-1.492915023118258">
        <ele>19.84</ele>
        <time>2018-07-04T12:49:49Z</time>
      </trkpt>
      <trkpt lat="49.668905977159739" lon="-1.493103029206395">
        <ele>19.359999999999999</ele>
        <time>2018-07-04T12:49:50Z</time>
      </trkpt>
      <trkpt lat="49.66884302906692" lon="-1.493292963132262">
        <ele>19.359999999999999</ele>
        <time>2018-07-04T12:49:51Z</time>
      </trkpt>
      <trkpt lat="49.667959995567799" lon="-1.49498401209712">
        <ele>18.399999999999999</ele>
        <time>2018-07-04T12:50:01Z</time>
      </trkpt>
      <trkpt lat="49.667836027219892" lon="-1.495108986273408">
        <ele>18.399999999999999</ele>
        <time>2018-07-04T12:50:02Z</time>
      </trkpt>
      <trkpt lat="49.667695965617895" lon="-1.495195990428329">
        <ele>18.399999999999999</ele>
        <time>2018-07-04T12:50:03Z</time>
      </trkpt>
      <trkpt lat="49.667553976178169" lon="-1.49526203982532">
        <ele>18.399999999999999</ele>
        <time>2018-07-04T12:50:04Z</time>
      </trkpt>
      <trkpt lat="49.667410980910063" lon="-1.495330017060041">
        <ele>18.879999999999999</ele>
        <time>2018-07-04T12:50:05Z</time>
      </trkpt>
      <trkpt lat="49.667266979813576" lon="-1.495396988466382">
        <ele>18.879999999999999</ele>
        <time>2018-07-04T12:50:06Z</time>
      </trkpt>
      <trkpt lat="49.666078006848693" lon="-1.49620802141726">
        <ele>19.84</ele>
        <time>2018-07-04T12:50:15Z</time>
      </trkpt>
      <trkpt lat="49.665678022429347" lon="-1.496730968356133">
        <ele>20.809999999999999</ele>
        <time>2018-07-04T12:50:19Z</time>
      </trkpt>
      <trkpt lat="49.665062036365271" lon="-1.498325960710645">
        <ele>22.25</ele>
        <time>2018-07-04T12:50:28Z</time>
      </trkpt>
      <trkpt lat="49.664641013368964" lon="-1.500266036018729">
        <ele>21.289999999999999</ele>
        <time>2018-07-04T12:50:37Z</time>
      </trkpt>
      <trkpt lat="49.664563983678818" lon="-1.500490000471473">
        <ele>20.809999999999999</ele>
        <time>2018-07-04T12:50:38Z</time>
      </trkpt>
      <trkpt lat="49.663458997383714" lon="-1.502758981660008">
        <ele>17.440000000000001</ele>
        <time>2018-07-04T12:50:48Z</time>
      </trkpt>
      <trkpt lat="49.662090986967087" lon="-1.50546801276505">
        <ele>15.52</ele>
        <time>2018-07-04T12:50:59Z</time>
      </trkpt>
      <trkpt lat="49.661271991208196" lon="-1.50712301954627">
        <ele>12.630000000000001</ele>
        <time>2018-07-04T12:51:06Z</time>
      </trkpt>
      <trkpt lat="49.661198984831572" lon="-1.507376991212368">
        <ele>12.15</ele>
        <time>2018-07-04T12:51:07Z</time>
      </trkpt>
      <trkpt lat="49.661120027303696" lon="-1.507648983970285">
        <ele>12.15</ele>
        <time>2018-07-04T12:51:08Z</time>
      </trkpt>
      <trkpt lat="49.66001202352345" lon="-1.511123031377792">
        <ele>8.310000000000001</ele>
        <time>2018-07-04T12:51:21Z</time>
      </trkpt>
      <trkpt lat="49.659039974212646" lon="-1.514023002237082">
        <ele>8.789999999999999</ele>
        <time>2018-07-04T12:51:32Z</time>
      </trkpt>
      <trkpt lat="49.658068008720875" lon="-1.516928002238274">
        <ele>9.75</ele>
        <time>2018-07-04T12:51:44Z</time>
      </trkpt>
      <trkpt lat="49.657646985724568" lon="-1.518190987408161">
        <ele>9.75</ele>
        <time>2018-07-04T12:51:53Z</time>
      </trkpt>
      <trkpt lat="49.657287988811731" lon="-1.519267978146672">
        <ele>10.23</ele>
        <time>2018-07-04T12:52:05Z</time>
      </trkpt>
      <trkpt lat="49.657073998823762" lon="-1.519927969202399">
        <ele>9.75</ele>
        <time>2018-07-04T12:52:13Z</time>
      </trkpt>
      <trkpt lat="49.656694969162345" lon="-1.521334033459425">
        <ele>9.75</ele>
        <time>2018-07-04T12:52:22Z</time>
      </trkpt>
      <trkpt lat="49.656246034428477" lon="-1.523139998316765">
        <ele>13.119999999999999</ele>
        <time>2018-07-04T12:52:33Z</time>
      </trkpt>
      <trkpt lat="49.656221978366375" lon="-1.523245023563504">
        <ele>13.6</ele>
        <time>2018-07-04T12:52:34Z</time>
      </trkpt>
      <trkpt lat="49.656203035265207" lon="-1.523320963606238">
        <ele>13.6</ele>
        <time>2018-07-04T12:52:35Z</time>
      </trkpt>
      <trkpt lat="49.656170010566711" lon="-1.523459013551474">
        <ele>14.56</ele>
        <time>2018-07-04T12:52:41Z</time>
      </trkpt>
      <trkpt lat="49.65616699308157" lon="-1.52347200550139">
        <ele>14.56</ele>
        <time>2018-07-04T12:52:42Z</time>
      </trkpt>
      <trkpt lat="49.65616799890995" lon="-1.523468988016248">
        <ele>15.039999999999999</ele>
        <time>2018-07-04T12:52:43Z</time>
      </trkpt>
      <trkpt lat="49.656174033880234" lon="-1.523444009944797">
        <ele>14.56</ele>
        <time>2018-07-04T12:52:44Z</time>
      </trkpt>
      <trkpt lat="49.656183002516627" lon="-1.523405034095049">
        <ele>15.039999999999999</ele>
        <time>2018-07-04T12:52:45Z</time>
      </trkpt>
      <trkpt lat="49.656193982809782" lon="-1.523357005789876">
        <ele>15.039999999999999</ele>
        <time>2018-07-04T12:52:46Z</time>
      </trkpt>
      <trkpt lat="49.656208986416459" lon="-1.52330000884831">
        <ele>15.039999999999999</ele>
        <time>2018-07-04T12:52:47Z</time>
      </trkpt>
      <trkpt lat="49.656219966709614" lon="-1.5231710113585">
        <ele>14.56</ele>
        <time>2018-07-04T12:52:48Z</time>
      </trkpt>
      <trkpt lat="49.656207980588078" lon="-1.523119965568185">
        <ele>14.56</ele>
        <time>2018-07-04T12:52:49Z</time>
      </trkpt>
      <trkpt lat="49.656243016943336" lon="-1.523153996095061">
        <ele>14.56</ele>
        <time>2018-07-04T12:52:50Z</time>
      </trkpt>
      <trkpt lat="49.656248968094587" lon="-1.523130023851991">
        <ele>14.56</ele>
        <time>2018-07-04T12:52:51Z</time>
      </trkpt>
      <trkpt lat="49.65625299140811" lon="-1.52310898527503">
        <ele>14.56</ele>
        <time>2018-07-04T12:52:52Z</time>
      </trkpt>
      <trkpt lat="49.65625299140811" lon="-1.52310898527503">
        <ele>14.56</ele>
        <time>2018-07-04T12:52:53Z</time>
      </trkpt>
      <trkpt lat="49.656263971701264" lon="-1.523061040788889">
        <ele>15.52</ele>
        <time>2018-07-04T12:53:03Z</time>
      </trkpt>
      <trkpt lat="49.656261038035154" lon="-1.523075960576534">
        <ele>15.039999999999999</ele>
        <time>2018-07-04T12:53:04Z</time>
      </trkpt>
      <trkpt lat="49.656261038035154" lon="-1.523075960576534">
        <ele>15.039999999999999</ele>
        <time>2018-07-04T12:53:05Z</time>
      </trkpt>
      <trkpt lat="49.656261038035154" lon="-1.523075960576534">
        <ele>14.56</ele>
        <time>2018-07-04T12:53:22Z</time>
      </trkpt>
      <trkpt lat="49.65623002499342" lon="-1.523216022178531">
        <ele>14.08</ele>
        <time>2018-07-04T12:53:48Z</time>
      </trkpt>
      <trkpt lat="49.656214015558362" lon="-1.523276958614588">
        <ele>14.08</ele>
        <time>2018-07-04T12:53:49Z</time>
      </trkpt>
      <trkpt lat="49.655955014750361" lon="-1.524359984323382">
        <ele>12.15</ele>
        <time>2018-07-04T12:53:58Z</time>
      </trkpt>
      <trkpt lat="49.655560981482267" lon="-1.525991018861532">
        <ele>12.630000000000001</ele>
        <time>2018-07-04T12:54:07Z</time>
      </trkpt>
      <trkpt lat="49.655086984857917" lon="-1.52792003005743">
        <ele>13.119999999999999</ele>
        <time>2018-07-04T12:54:17Z</time>
      </trkpt>
      <trkpt lat="49.654649030417204" lon="-1.529652988538146">
        <ele>10.710000000000001</ele>
        <time>2018-07-04T12:54:27Z</time>
      </trkpt>
      <trkpt lat="49.65459899045527" lon="-1.529816016554833">
        <ele>10.710000000000001</ele>
        <time>2018-07-04T12:54:28Z</time>
      </trkpt>
      <trkpt lat="49.65453302487731" lon="-1.529963035136461">
        <ele>10.710000000000001</ele>
        <time>2018-07-04T12:54:29Z</time>
      </trkpt>
      <trkpt lat="49.654451971873641" lon="-1.530098989605904">
        <ele>10.710000000000001</ele>
        <time>2018-07-04T12:54:30Z</time>
      </trkpt>
      <trkpt lat="49.654351975768805" lon="-1.530207032337785">
        <ele>10.710000000000001</ele>
        <time>2018-07-04T12:54:31Z</time>
      </trkpt>
      <trkpt lat="49.65425600297749" lon="-1.530324965715408">
        <ele>10.710000000000001</ele>
        <time>2018-07-04T12:54:32Z</time>
      </trkpt>
      <trkpt lat="49.653830034658313" lon="-1.530882027000189">
        <ele>11.67</ele>
        <time>2018-07-04T12:54:37Z</time>
      </trkpt>
      <trkpt lat="49.653770020231605" lon="-1.530988980084658">
        <ele>11.67</ele>
        <time>2018-07-04T12:54:38Z</time>
      </trkpt>
      <trkpt lat="49.653735989704728" lon="-1.531119989231229">
        <ele>12.15</ele>
        <time>2018-07-04T12:54:39Z</time>
      </trkpt>
      <trkpt lat="49.653619984164834" lon="-1.531749973073602">
        <ele>13.6</ele>
        <time>2018-07-04T12:54:44Z</time>
      </trkpt>
      <trkpt lat="49.653692990541458" lon="-1.533728018403053">
        <ele>19.359999999999999</ele>
        <time>2018-07-04T12:54:57Z</time>
      </trkpt>
      <trkpt lat="49.653685027733445" lon="-1.536238985136151">
        <ele>25.129999999999999</ele>
        <time>2018-07-04T12:55:11Z</time>
      </trkpt>
      <trkpt lat="49.653583019971848" lon="-1.538425991311669">
        <ele>22.73</ele>
        <time>2018-07-04T12:55:22Z</time>
      </trkpt>
      <trkpt lat="49.653594000265002" lon="-1.540749035775662">
        <ele>14.08</ele>
        <time>2018-07-04T12:55:34Z</time>
      </trkpt>
      <trkpt lat="49.65367597527802" lon="-1.541731981560588">
        <ele>9.27</ele>
        <time>2018-07-04T12:55:40Z</time>
      </trkpt>
      <trkpt lat="49.653671029955149" lon="-1.541901966556907">
        <ele>8.310000000000001</ele>
        <time>2018-07-04T12:55:41Z</time>
      </trkpt>
      <trkpt lat="49.653616966679692" lon="-1.542835040017963">
        <ele>5.91</ele>
        <time>2018-07-04T12:55:47Z</time>
      </trkpt>
      <trkpt lat="49.653497021645308" lon="-1.544739995151758">
        <ele>5.42</ele>
        <time>2018-07-04T12:56:01Z</time>
      </trkpt>
      <trkpt lat="49.653348997235298" lon="-1.546543026342988">
        <ele>5.91</ele>
        <time>2018-07-04T12:56:15Z</time>
      </trkpt>
      <trkpt lat="49.653278002515435" lon="-1.547432010993362">
        <ele>6.87</ele>
        <time>2018-07-04T12:56:23Z</time>
      </trkpt>
      <trkpt lat="49.653268028050661" lon="-1.547569977119565">
        <ele>6.87</ele>
        <time>2018-07-04T12:56:24Z</time>
      </trkpt>
      <trkpt lat="49.653210025280714" lon="-1.54880496673286">
        <ele>7.83</ele>
        <time>2018-07-04T12:56:35Z</time>
      </trkpt>
      <trkpt lat="49.653129978105426" lon="-1.550303986296058">
        <ele>9.75</ele>
        <time>2018-07-04T12:56:49Z</time>
      </trkpt>
      <trkpt lat="49.653045991435647" lon="-1.551408972591162">
        <ele>10.710000000000001</ele>
        <time>2018-07-04T12:57:01Z</time>
      </trkpt>
      <trkpt lat="49.653016990050673" lon="-1.551808035001159">
        <ele>11.67</ele>
        <time>2018-07-04T12:57:06Z</time>
      </trkpt>
      <trkpt lat="49.653012966737151" lon="-1.551863020285964">
        <ele>11.67</ele>
        <time>2018-07-04T12:57:07Z</time>
      </trkpt>
      <trkpt lat="49.653011038899422" lon="-1.551882969215512">
        <ele>11.67</ele>
        <time>2018-07-04T12:57:08Z</time>
      </trkpt>
      <trkpt lat="49.653011038899422" lon="-1.551882969215512">
        <ele>11.67</ele>
        <time>2018-07-04T12:57:19Z</time>
      </trkpt>
      <trkpt lat="49.653011038899422" lon="-1.551991011947393">
        <ele>11.67</ele>
        <time>2018-07-04T12:57:22Z</time>
      </trkpt>
      <trkpt lat="49.652948006987572" lon="-1.552810007706285">
        <ele>11.67</ele>
        <time>2018-07-04T12:57:29Z</time>
      </trkpt>
      <trkpt lat="49.652921017259359" lon="-1.55293196439743">
        <ele>11.67</ele>
        <time>2018-07-04T12:57:30Z</time>
      </trkpt>
      <trkpt lat="49.652888998389244" lon="-1.55305702239275">
        <ele>11.67</ele>
        <time>2018-07-04T12:57:31Z</time>
      </trkpt>
      <trkpt lat="49.652808029204607" lon="-1.553293978795409">
        <ele>11.67</ele>
        <time>2018-07-04T12:57:33Z</time>
      </trkpt>
      <trkpt lat="49.652192965149879" lon="-1.554742958396673">
        <ele>13.119999999999999</ele>
        <time>2018-07-04T12:57:44Z</time>
      </trkpt>
      <trkpt lat="49.651945028454065" lon="-1.555460030212998">
        <ele>13.6</ele>
        <time>2018-07-04T12:57:49Z</time>
      </trkpt>
      <trkpt lat="49.65193597599864" lon="-1.555628003552556">
        <ele>14.08</ele>
        <time>2018-07-04T12:57:50Z</time>
      </trkpt>
      <trkpt lat="49.651932958513498" lon="-1.555801006034017">
        <ele>14.08</ele>
        <time>2018-07-04T12:57:51Z</time>
      </trkpt>
      <trkpt lat="49.651930024847388" lon="-1.55597903765738">
        <ele>14.08</ele>
        <time>2018-07-04T12:57:52Z</time>
      </trkpt>
      <trkpt lat="49.651926001533866" lon="-1.556155979633331">
        <ele>14.08</ele>
        <time>2018-07-04T12:57:53Z</time>
      </trkpt>
      <trkpt lat="49.651723997667432" lon="-1.558535015210509">
        <ele>12.630000000000001</ele>
        <time>2018-07-04T12:58:06Z</time>
      </trkpt>
      <trkpt lat="49.651167020201683" lon="-1.561052016913891">
        <ele>13.119999999999999</ele>
        <time>2018-07-04T12:58:18Z</time>
      </trkpt>
      <trkpt lat="49.650700986385345" lon="-1.563036013394594">
        <ele>15.039999999999999</ele>
        <time>2018-07-04T12:58:29Z</time>
      </trkpt>
      <trkpt lat="49.650585986673832" lon="-1.563419988378882">
        <ele>15.039999999999999</ele>
        <time>2018-07-04T12:58:32Z</time>
      </trkpt>
      <trkpt lat="49.650626974180341" lon="-1.563616041094065">
        <ele>15.039999999999999</ele>
        <time>2018-07-04T12:58:33Z</time>
      </trkpt>
      <trkpt lat="49.650714984163642" lon="-1.563831036910415">
        <ele>14.56</ele>
        <time>2018-07-04T12:58:35Z</time>
      </trkpt>
      <trkpt lat="49.650714984163642" lon="-1.563964979723096">
        <ele>14.56</ele>
        <time>2018-07-04T12:58:36Z</time>
      </trkpt>
      <trkpt lat="49.650702998042107" lon="-1.564224986359477">
        <ele>14.08</ele>
        <time>2018-07-04T12:58:38Z</time>
      </trkpt>
      <trkpt lat="49.650721019133925" lon="-1.564350966364145">
        <ele>14.08</ele>
        <time>2018-07-04T12:58:39Z</time>
      </trkpt>
      <trkpt lat="49.650736022740602" lon="-1.564456997439265">
        <ele>13.6</ele>
        <time>2018-07-04T12:58:40Z</time>
      </trkpt>
      <trkpt lat="49.650800982490182" lon="-1.564576020464301">
        <ele>13.119999999999999</ele>
        <time>2018-07-04T12:58:41Z</time>
      </trkpt>
      <trkpt lat="49.650865020230412" lon="-1.564693031832576">
        <ele>12.630000000000001</ele>
        <time>2018-07-04T12:58:42Z</time>
      </trkpt>
      <trkpt lat="49.650958981364965" lon="-1.564758997410536">
        <ele>12.15</ele>
        <time>2018-07-04T12:58:43Z</time>
      </trkpt>
      <trkpt lat="49.651061994954944" lon="-1.564829992130399">
        <ele>12.15</ele>
        <time>2018-07-04T12:58:44Z</time>
      </trkpt>
      <trkpt lat="49.651169031858444" lon="-1.564904004335403">
        <ele>11.67</ele>
        <time>2018-07-04T12:58:45Z</time>
      </trkpt>
      <trkpt lat="49.652397986501455" lon="-1.565805980935693">
        <ele>8.310000000000001</ele>
        <time>2018-07-04T12:58:54Z</time>
      </trkpt>
      <trkpt lat="49.652553973719478" lon="-1.565960962325335">
        <ele>7.83</ele>
        <time>2018-07-04T12:58:55Z</time>
      </trkpt>
      <trkpt lat="49.652692023664713" lon="-1.566167995333672">
        <ele>7.83</ele>
        <time>2018-07-04T12:58:56Z</time>
      </trkpt>
      <trkpt lat="49.652825966477394" lon="-1.566388020291925">
        <ele>7.83</ele>
        <time>2018-07-04T12:58:57Z</time>
      </trkpt>
      <trkpt lat="49.65294498950243" lon="-1.566640986129642">
        <ele>7.35</ele>
        <time>2018-07-04T12:58:58Z</time>
      </trkpt>
      <trkpt lat="49.653037022799253" lon="-1.566904010251164">
        <ele>7.35</ele>
        <time>2018-07-04T12:58:59Z</time>
      </trkpt>
      <trkpt lat="49.653122015297413" lon="-1.567169968038797">
        <ele>7.35</ele>
        <time>2018-07-04T12:59:00Z</time>
      </trkpt>
      <trkpt lat="49.653175994753838" lon="-1.567442966625094">
        <ele>7.83</ele>
        <time>2018-07-04T12:59:01Z</time>
      </trkpt>
      <trkpt lat="49.653213964775205" lon="-1.567725017666817">
        <ele>7.35</ele>
        <time>2018-07-04T12:59:02Z</time>
      </trkpt>
      <trkpt lat="49.653241038322449" lon="-1.568021988496184">
        <ele>7.83</ele>
        <time>2018-07-04T12:59:03Z</time>
      </trkpt>
      <trkpt lat="49.653267022222281" lon="-1.568318037316203">
        <ele>7.83</ele>
        <time>2018-07-04T12:59:04Z</time>
      </trkpt>
      <trkpt lat="49.653342040255666" lon="-1.568909967318177">
        <ele>7.35</ele>
        <time>2018-07-04T12:59:06Z</time>
      </trkpt>
      <trkpt lat="49.653855012729764" lon="-1.571147013455629">
        <ele>7.83</ele>
        <time>2018-07-04T12:59:14Z</time>
      </trkpt>
      <trkpt lat="49.65399800799787" lon="-1.57321197912097">
        <ele>7.83</ele>
        <time>2018-07-04T12:59:22Z</time>
      </trkpt>
      <trkpt lat="49.653837997466326" lon="-1.575658991932869">
        <ele>7.35</ele>
        <time>2018-07-04T12:59:31Z</time>
      </trkpt>
      <trkpt lat="49.653750993311405" lon="-1.577637037262321">
        <ele>6.39</ele>
        <time>2018-07-04T12:59:41Z</time>
      </trkpt>
      <trkpt lat="49.653779994696379" lon="-1.578390989452601">
        <ele>5.42</ele>
        <time>2018-07-04T12:59:47Z</time>
      </trkpt>
      <trkpt lat="49.65380597859621" lon="-1.578514035791159">
        <ele>5.42</ele>
        <time>2018-07-04T12:59:48Z</time>
      </trkpt>
      <trkpt lat="49.653844032436609" lon="-1.578630963340402">
        <ele>5.42</ele>
        <time>2018-07-04T12:59:49Z</time>
      </trkpt>
      <trkpt lat="49.653831962496042" lon="-1.578773036599159">
        <ele>5.42</ele>
        <time>2018-07-04T12:59:50Z</time>
      </trkpt>
      <trkpt lat="49.653816958889365" lon="-1.578901028260589">
        <ele>5.91</ele>
        <time>2018-07-04T12:59:51Z</time>
      </trkpt>
      <trkpt lat="49.653788041323423" lon="-1.57903203740716">
        <ele>5.91</ele>
        <time>2018-07-04T12:59:52Z</time>
      </trkpt>
      <trkpt lat="49.653726015239954" lon="-1.579123986884952">
        <ele>5.91</ele>
        <time>2018-07-04T12:59:53Z</time>
      </trkpt>
      <trkpt lat="49.65367597527802" lon="-1.579199004918337">
        <ele>5.91</ele>
        <time>2018-07-04T12:59:54Z</time>
      </trkpt>
      <trkpt lat="49.653581008315086" lon="-1.579328002408147">
        <ele>5.42</ele>
        <time>2018-07-04T12:59:55Z</time>
      </trkpt>
      <trkpt lat="49.65356701053679" lon="-1.579466974362731">
        <ele>5.42</ele>
        <time>2018-07-04T12:59:56Z</time>
      </trkpt>
      <trkpt lat="49.653549995273352" lon="-1.579626984894276">
        <ele>5.42</ele>
        <time>2018-07-04T12:59:57Z</time>
      </trkpt>
      <trkpt lat="49.653531974181533" lon="-1.579798981547356">
        <ele>5.42</ele>
        <time>2018-07-04T12:59:58Z</time>
      </trkpt>
      <trkpt lat="49.653513031080365" lon="-1.579982964321971">
        <ele>5.42</ele>
        <time>2018-07-04T12:59:59Z</time>
      </trkpt>
      <trkpt lat="49.65313701890409" lon="-1.582014989107847">
        <ele>4.46</ele>
        <time>2018-07-04T13:00:09Z</time>
      </trkpt>
      <trkpt lat="49.652374014258385" lon="-1.583854984492064">
        <ele>6.39</ele>
        <time>2018-07-04T13:00:19Z</time>
      </trkpt>
      <trkpt lat="49.651145981624722" lon="-1.586278025060892">
        <ele>3.5</ele>
        <time>2018-07-04T13:00:33Z</time>
      </trkpt>
      <trkpt lat="49.650246016681194" lon="-1.58818700350821">
        <ele>3.5</ele>
        <time>2018-07-04T13:00:42Z</time>
      </trkpt>
      <trkpt lat="49.649445964023471" lon="-1.590138981118798">
        <ele>3.5</ele>
        <time>2018-07-04T13:00:52Z</time>
      </trkpt>
      <trkpt lat="49.649412017315626" lon="-1.590325981378555">
        <ele>3.5</ele>
        <time>2018-07-04T13:00:53Z</time>
      </trkpt>
      <trkpt lat="49.64937899261713" lon="-1.590504013001919">
        <ele>3.02</ele>
        <time>2018-07-04T13:00:54Z</time>
      </trkpt>
      <trkpt lat="49.649271033704281" lon="-1.590983960777521">
        <ele>3.02</ele>
        <time>2018-07-04T13:00:57Z</time>
      </trkpt>
      <trkpt lat="49.649224011227489" lon="-1.591131985187531">
        <ele>3.02</ele>
        <time>2018-07-04T13:00:58Z</time>
      </trkpt>
      <trkpt lat="49.649169025942683" lon="-1.591270035132766">
        <ele>3.02</ele>
        <time>2018-07-04T13:00:59Z</time>
      </trkpt>
      <trkpt lat="49.649096019566059" lon="-1.591380005702376">
        <ele>3.02</ele>
        <time>2018-07-04T13:01:00Z</time>
      </trkpt>
      <trkpt lat="49.649029970169067" lon="-1.591478995978832">
        <ele>3.02</ele>
        <time>2018-07-04T13:01:01Z</time>
      </trkpt>
      <trkpt lat="49.648955035954714" lon="-1.591536998748779">
        <ele>3.02</ele>
        <time>2018-07-04T13:01:02Z</time>
      </trkpt>
      <trkpt lat="49.64888596907258" lon="-1.591584021225572">
        <ele>3.02</ele>
        <time>2018-07-04T13:01:03Z</time>
      </trkpt>
      <trkpt lat="49.64882000349462" lon="-1.59168703481555">
        <ele>3.02</ele>
        <time>2018-07-04T13:01:04Z</time>
      </trkpt>
      <trkpt lat="49.648808017373085" lon="-1.591790970414877">
        <ele>3.02</ele>
        <time>2018-07-04T13:01:05Z</time>
      </trkpt>
      <trkpt lat="49.64879603125155" lon="-1.591901024803519">
        <ele>3.02</ele>
        <time>2018-07-04T13:01:06Z</time>
      </trkpt>
      <trkpt lat="49.648774992674589" lon="-1.592029016464949">
        <ele>3.02</ele>
        <time>2018-07-04T13:01:07Z</time>
      </trkpt>
      <trkpt lat="49.648731993511319" lon="-1.592130018398166">
        <ele>3.5</ele>
        <time>2018-07-04T13:01:08Z</time>
      </trkpt>
      <trkpt lat="49.648639038205147" lon="-1.59220403060317">
        <ele>3.5</ele>
        <time>2018-07-04T13:01:09Z</time>
      </trkpt>
      <trkpt lat="49.648558991029859" lon="-1.592248035594821">
        <ele>3.5</ele>
        <time>2018-07-04T13:01:10Z</time>
      </trkpt>
      <trkpt lat="49.648460000753403" lon="-1.59224702976644">
        <ele>3.5</ele>
        <time>2018-07-04T13:01:11Z</time>
      </trkpt>
      <trkpt lat="49.64836897328496" lon="-1.592219034209848">
        <ele>3.02</ele>
        <time>2018-07-04T13:01:12Z</time>
      </trkpt>
      <trkpt lat="49.648311976343393" lon="-1.592202018946409">
        <ele>3.02</ele>
        <time>2018-07-04T13:01:13Z</time>
      </trkpt>
      <trkpt lat="49.648145008832216" lon="-1.592218028381467">
        <ele>3.02</ele>
        <time>2018-07-04T13:01:14Z</time>
      </trkpt>
      <trkpt lat="49.648066973313689" lon="-1.592310983687639">
        <ele>3.5</ele>
        <time>2018-07-04T13:01:15Z</time>
      </trkpt>
      <trkpt lat="49.647986004129052" lon="-1.592408968135715">
        <ele>3.5</ele>
        <time>2018-07-04T13:01:16Z</time>
      </trkpt>
      <trkpt lat="49.647903023287654" lon="-1.59250795841217">
        <ele>3.02</ele>
        <time>2018-07-04T13:01:17Z</time>
      </trkpt>
      <trkpt lat="49.647818030789495" lon="-1.592609966173768">
        <ele>3.02</ele>
        <time>2018-07-04T13:01:18Z</time>
      </trkpt>
      <trkpt lat="49.647105988115072" lon="-1.593974037095904">
        <ele>3.98</ele>
        <time>2018-07-04T13:01:28Z</time>
      </trkpt>
      <trkpt lat="49.646306019276381" lon="-1.595485964789987">
        <ele>6.87</ele>
        <time>2018-07-04T13:01:40Z</time>
      </trkpt>
      <trkpt lat="49.645543014630675" lon="-1.597028989344835">
        <ele>7.35</ele>
        <time>2018-07-04T13:01:50Z</time>
      </trkpt>
      <trkpt lat="49.645193992182612" lon="-1.597828036174178">
        <ele>7.35</ele>
        <time>2018-07-04T13:01:55Z</time>
      </trkpt>
      <trkpt lat="49.645147975534201" lon="-1.597992992028594">
        <ele>6.87</ele>
        <time>2018-07-04T13:01:56Z</time>
      </trkpt>
      <trkpt lat="49.645049991086125" lon="-1.598681984469295">
        <ele>6.39</ele>
        <time>2018-07-04T13:02:01Z</time>
      </trkpt>
      <trkpt lat="49.645056026056409" lon="-1.598805030807853">
        <ele>6.39</ele>
        <time>2018-07-04T13:02:02Z</time>
      </trkpt>
      <trkpt lat="49.645072035491467" lon="-1.598896980285645">
        <ele>5.91</ele>
        <time>2018-07-04T13:02:03Z</time>
      </trkpt>
      <trkpt lat="49.645141018554568" lon="-1.599115999415517">
        <ele>6.39</ele>
        <time>2018-07-04T13:02:05Z</time>
      </trkpt>
      <trkpt lat="49.645147975534201" lon="-1.599225969985127">
        <ele>5.91</ele>
        <time>2018-07-04T13:02:06Z</time>
      </trkpt>
      <trkpt lat="49.645154010504484" lon="-1.599381035193801">
        <ele>5.91</ele>
        <time>2018-07-04T13:02:07Z</time>
      </trkpt>
      <trkpt lat="49.645116962492466" lon="-1.599491005763412">
        <ele>5.91</ele>
        <time>2018-07-04T13:02:08Z</time>
      </trkpt>
      <trkpt lat="49.6450150385499" lon="-1.59957499243319">
        <ele>5.42</ele>
        <time>2018-07-04T13:02:09Z</time>
      </trkpt>
      <trkpt lat="49.644932979717851" lon="-1.599639030173421">
        <ele>5.42</ele>
        <time>2018-07-04T13:02:10Z</time>
      </trkpt>
      <trkpt lat="49.644834995269775" lon="-1.599666019901633">
        <ele>5.42</ele>
        <time>2018-07-04T13:02:11Z</time>
      </trkpt>
      <trkpt lat="49.644665010273457" lon="-1.599801974371076">
        <ele>4.94</ele>
        <time>2018-07-04T13:02:13Z</time>
      </trkpt>
      <trkpt lat="49.644584963098168" lon="-1.599866012111306">
        <ele>5.42</ele>
        <time>2018-07-04T13:02:14Z</time>
      </trkpt>
      <trkpt lat="49.644509023055434" lon="-1.599953016266227">
        <ele>4.94</ele>
        <time>2018-07-04T13:02:15Z</time>
      </trkpt>
      <trkpt lat="49.644390000030398" lon="-1.600173963233829">
        <ele>4.94</ele>
        <time>2018-07-04T13:02:17Z</time>
      </trkpt>
      <trkpt lat="49.644359992817044" lon="-1.600306984037161">
        <ele>4.94</ele>
        <time>2018-07-04T13:02:18Z</time>
      </trkpt>
      <trkpt lat="49.644331997260451" lon="-1.600440004840493">
        <ele>4.94</ele>
        <time>2018-07-04T13:02:19Z</time>
      </trkpt>
      <trkpt lat="49.644304001703858" lon="-1.600575037300587">
        <ele>4.46</ele>
        <time>2018-07-04T13:02:20Z</time>
      </trkpt>
      <trkpt lat="49.644277011975646" lon="-1.600708980113268">
        <ele>4.46</ele>
        <time>2018-07-04T13:02:21Z</time>
      </trkpt>
      <trkpt lat="49.644249016419053" lon="-1.600845018401742">
        <ele>4.46</ele>
        <time>2018-07-04T13:02:22Z</time>
      </trkpt>
      <trkpt lat="49.64413502253592" lon="-1.601412976160646">
        <ele>4.94</ele>
        <time>2018-07-04T13:02:26Z</time>
      </trkpt>
      <trkpt lat="49.644106021150947" lon="-1.601557983085513">
        <ele>4.94</ele>
        <time>2018-07-04T13:02:27Z</time>
      </trkpt>
      <trkpt lat="49.643817013129592" lon="-1.602272959426045">
        <ele>3.98</ele>
        <time>2018-07-04T13:02:36Z</time>
      </trkpt>
      <trkpt lat="49.643807038664818" lon="-1.602299027144909">
        <ele>3.5</ele>
        <time>2018-07-04T13:02:46Z</time>
      </trkpt>
      <trkpt lat="49.643682986497879" lon="-1.602606978267431">
        <ele>3.5</ele>
        <time>2018-07-04T13:03:02Z</time>
      </trkpt>
      <trkpt lat="49.643441000953317" lon="-1.603209972381592">
        <ele>3.98</ele>
        <time>2018-07-04T13:03:08Z</time>
      </trkpt>
      <trkpt lat="49.643387021496892" lon="-1.603576010093093">
        <ele>4.46</ele>
        <time>2018-07-04T13:03:10Z</time>
      </trkpt>
      <trkpt lat="49.643364977091551" lon="-1.603728979825974">
        <ele>4.94</ele>
        <time>2018-07-04T13:03:11Z</time>
      </trkpt>
      <trkpt lat="49.643122991546988" lon="-1.605235962197185">
        <ele>4.94</ele>
        <time>2018-07-04T13:03:22Z</time>
      </trkpt>
      <trkpt lat="49.642874971032143" lon="-1.606825003400445">
        <ele>4.94</ele>
        <time>2018-07-04T13:03:31Z</time>
      </trkpt>
      <trkpt lat="49.642661986872554" lon="-1.608630968257785">
        <ele>4.94</ele>
        <time>2018-07-04T13:03:41Z</time>
      </trkpt>
      <trkpt lat="49.642519997432828" lon="-1.610570037737489">
        <ele>4.94</ele>
        <time>2018-07-04T13:03:53Z</time>
      </trkpt>
      <trkpt lat="49.642467023804784" lon="-1.611550971865654">
        <ele>5.91</ele>
        <time>2018-07-04T13:04:02Z</time>
      </trkpt>
      <trkpt lat="49.642458977177739" lon="-1.611701007932425">
        <ele>5.91</ele>
        <time>2018-07-04T13:04:11Z</time>
      </trkpt>
      <trkpt lat="49.642388988286257" lon="-1.612635003402829">
        <ele>5.91</ele>
        <time>2018-07-04T13:04:19Z</time>
      </trkpt>
      <trkpt lat="49.642484039068222" lon="-1.614092029631138">
        <ele>4.94</ele>
        <time>2018-07-04T13:04:29Z</time>
      </trkpt>
      <trkpt lat="49.642646983265877" lon="-1.614942960441113">
        <ele>4.46</ele>
        <time>2018-07-04T13:04:35Z</time>
      </trkpt>
      <trkpt lat="49.642646983265877" lon="-1.615070030093193">
        <ele>4.94</ele>
        <time>2018-07-04T13:04:36Z</time>
      </trkpt>
      <trkpt lat="49.642679002135992" lon="-1.61562298424542">
        <ele>4.46</ele>
        <time>2018-07-04T13:04:40Z</time>
      </trkpt>
      <trkpt lat="49.642657041549683" lon="-1.615735972300172">
        <ele>4.46</ele>
        <time>2018-07-04T13:04:41Z</time>
      </trkpt>
      <trkpt lat="49.642601972445846" lon="-1.615847032517195">
        <ele>4.46</ele>
        <time>2018-07-04T13:04:42Z</time>
      </trkpt>
      <trkpt lat="49.642544975504279" lon="-1.615925990045071">
        <ele>3.98</ele>
        <time>2018-07-04T13:04:43Z</time>
      </trkpt>
      <trkpt lat="49.642458977177739" lon="-1.61594401113689">
        <ele>3.98</ele>
        <time>2018-07-04T13:04:44Z</time>
      </trkpt>
      <trkpt lat="49.642361998558044" lon="-1.616026991978288">
        <ele>3.98</ele>
        <time>2018-07-04T13:04:45Z</time>
      </trkpt>
      <trkpt lat="49.642354035750031" lon="-1.616136962547898">
        <ele>3.5</ele>
        <time>2018-07-04T13:04:46Z</time>
      </trkpt>
      <trkpt lat="49.642340959981084" lon="-1.616273000836372">
        <ele>3.5</ele>
        <time>2018-07-04T13:04:47Z</time>
      </trkpt>
      <trkpt lat="49.642229983583093" lon="-1.617058971896768">
        <ele>3.98</ele>
        <time>2018-07-04T13:04:52Z</time>
      </trkpt>
      <trkpt lat="49.6421829611063" lon="-1.617189981043339">
        <ele>3.98</ele>
        <time>2018-07-04T13:04:53Z</time>
      </trkpt>
      <trkpt lat="49.642131999135017" lon="-1.617299029603601">
        <ele>4.46</ele>
        <time>2018-07-04T13:04:54Z</time>
      </trkpt>
      <trkpt lat="49.642088999971747" lon="-1.617393996566534">
        <ele>4.46</ele>
        <time>2018-07-04T13:04:55Z</time>
      </trkpt>
      <trkpt lat="49.642020016908646" lon="-1.617482006549835">
        <ele>4.46</ele>
        <time>2018-07-04T13:04:56Z</time>
      </trkpt>
      <trkpt lat="49.641954973340034" lon="-1.617565993219614">
        <ele>4.46</ele>
        <time>2018-07-04T13:04:57Z</time>
      </trkpt>
      <trkpt lat="49.64166697114706" lon="-1.617871010676026">
        <ele>4.94</ele>
        <time>2018-07-04T13:05:01Z</time>
      </trkpt>
      <trkpt lat="49.641583990305662" lon="-1.617933036759496">
        <ele>4.46</ele>
        <time>2018-07-04T13:05:02Z</time>
      </trkpt>
      <trkpt lat="49.641501009464264" lon="-1.617979975417256">
        <ele>4.46</ele>
        <time>2018-07-04T13:05:03Z</time>
      </trkpt>
      <trkpt lat="49.64140503667295" lon="-1.618002019822598">
        <ele>3.98</ele>
        <time>2018-07-04T13:05:04Z</time>
      </trkpt>
      <trkpt lat="49.641307974234223" lon="-1.618022974580526">
        <ele>3.5</ele>
        <time>2018-07-04T13:05:05Z</time>
      </trkpt>
      <trkpt lat="49.640773963183165" lon="-1.618106961250305">
        <ele>3.02</ele>
        <time>2018-07-04T13:05:13Z</time>
      </trkpt>
      <trkpt lat="49.640707997605205" lon="-1.618119031190872">
        <ele>2.54</ele>
        <time>2018-07-04T13:05:14Z</time>
      </trkpt>
      <trkpt lat="49.640179015696049" lon="-1.618294967338443">
        <ele>2.54</ele>
        <time>2018-07-04T13:05:21Z</time>
      </trkpt>
      <trkpt lat="49.639584990218282" lon="-1.618724036961794">
        <ele>2.06</ele>
        <time>2018-07-04T13:05:30Z</time>
      </trkpt>
      <trkpt lat="49.639533022418618" lon="-1.61878296174109">
        <ele>2.06</ele>
        <time>2018-07-04T13:05:31Z</time>
      </trkpt>
      <trkpt lat="49.639400001615286" lon="-1.618937021121383">
        <ele>2.06</ele>
        <time>2018-07-04T13:05:34Z</time>
      </trkpt>
      <trkpt lat="49.639368988573551" lon="-1.618971973657608">
        <ele>1.58</ele>
        <time>2018-07-04T13:05:35Z</time>
      </trkpt>
      <trkpt lat="49.639341998845339" lon="-1.619002986699343">
        <ele>1.58</ele>
        <time>2018-07-04T13:05:36Z</time>
      </trkpt>
      <trkpt lat="49.639341998845339" lon="-1.619002986699343">
        <ele>1.58</ele>
        <time>2018-07-04T13:05:37Z</time>
      </trkpt>
      <trkpt lat="49.639307968318462" lon="-1.619023019447923">
        <ele>1.58</ele>
        <time>2018-07-04T13:05:38Z</time>
      </trkpt>
      <trkpt lat="49.639290031045675" lon="-1.619033999741077">
        <ele>1.1</ele>
        <time>2018-07-04T13:05:39Z</time>
      </trkpt>
      <trkpt lat="49.63904301635921" lon="-1.619343962520361">
        <ele>0.62</ele>
        <time>2018-07-04T13:05:48Z</time>
      </trkpt>
      <trkpt lat="49.639052990823984" lon="-1.61940598860383">
        <ele>0.62</ele>
        <time>2018-07-04T13:05:49Z</time>
      </trkpt>
      <trkpt lat="49.639062965288758" lon="-1.619474971666932">
        <ele>0.62</ele>
        <time>2018-07-04T13:05:50Z</time>
      </trkpt>
      <trkpt lat="49.639120968058705" lon="-1.620260020717979">
        <ele>1.1</ele>
        <time>2018-07-04T13:06:02Z</time>
      </trkpt>
      <trkpt lat="49.639142006635666" lon="-1.620450960472226">
        <ele>1.58</ele>
        <time>2018-07-04T13:06:10Z</time>
      </trkpt>
      <trkpt lat="49.639167990535498" lon="-1.620746003463864">
        <ele>2.06</ele>
        <time>2018-07-04T13:06:28Z</time>
      </trkpt>
      <trkpt lat="49.639171008020639" lon="-1.620762012898922">
        <ele>2.06</ele>
        <time>2018-07-04T13:06:37Z</time>
      </trkpt>
      <trkpt lat="49.639229010790586" lon="-1.620861003175378">
        <ele>2.06</ele>
        <time>2018-07-04T13:06:45Z</time>
      </trkpt>
      <trkpt lat="49.639246026054025" lon="-1.620890004560351">
        <ele>2.06</ele>
        <time>2018-07-04T13:06:46Z</time>
      </trkpt>
      <trkpt lat="49.639271004125476" lon="-1.620933003723621">
        <ele>2.06</ele>
        <time>2018-07-04T13:06:47Z</time>
      </trkpt>
      <trkpt lat="49.63930101133883" lon="-1.620982959866524">
        <ele>2.06</ele>
        <time>2018-07-04T13:06:48Z</time>
      </trkpt>
      <trkpt lat="49.639332024380565" lon="-1.62103702314198">
        <ele>2.06</ele>
        <time>2018-07-04T13:06:49Z</time>
      </trkpt>
      <trkpt lat="49.639384998008609" lon="-1.621126960963011">
        <ele>2.06</ele>
        <time>2018-07-04T13:06:50Z</time>
      </trkpt>
      <trkpt lat="49.639415005221963" lon="-1.621143976226449">
        <ele>1.58</ele>
        <time>2018-07-04T13:06:51Z</time>
      </trkpt>
      <trkpt lat="49.639462027698755" lon="-1.621169960126281">
        <ele>1.58</ele>
        <time>2018-07-04T13:06:52Z</time>
      </trkpt>
      <trkpt lat="49.639507960528135" lon="-1.621195022016764">
        <ele>1.58</ele>
        <time>2018-07-04T13:06:53Z</time>
      </trkpt>
      <trkpt lat="49.639997966587543" lon="-1.62144597619772">
        <ele>2.54</ele>
        <time>2018-07-04T13:07:02Z</time>
      </trkpt>
      <trkpt lat="49.640057981014252" lon="-1.621461985632777">
        <ele>2.54</ele>
        <time>2018-07-04T13:07:03Z</time>
      </trkpt>
      <trkpt lat="49.640125958248973" lon="-1.621463997289538">
        <ele>3.02</ele>
        <time>2018-07-04T13:07:04Z</time>
      </trkpt>
      <trkpt lat="49.640192007645965" lon="-1.621449999511242">
        <ele>3.5</ele>
        <time>2018-07-04T13:07:05Z</time>
      </trkpt>
      <trkpt lat="49.640257973223925" lon="-1.621436001732945">
        <ele>3.5</ele>
        <time>2018-07-04T13:07:06Z</time>
      </trkpt>
      <trkpt lat="49.641038998961449" lon="-1.621262999251485">
        <ele>5.91</ele>
        <time>2018-07-04T13:07:16Z</time>
      </trkpt>
      <trkpt lat="49.641419034451246" lon="-1.621220000088215">
        <ele>5.91</ele>
        <time>2018-07-04T13:07:21Z</time>
      </trkpt>
      <trkpt lat="49.641483994200826" lon="-1.621215976774693">
        <ele>5.91</ele>
        <time>2018-07-04T13:07:22Z</time>
      </trkpt>
      <trkpt lat="49.64155800640583" lon="-1.62123098038137">
        <ele>5.91</ele>
        <time>2018-07-04T13:07:23Z</time>
      </trkpt>
      <trkpt lat="49.6417529694736" lon="-1.621375987306237">
        <ele>5.91</ele>
        <time>2018-07-04T13:07:26Z</time>
      </trkpt>
      <trkpt lat="49.641813989728689" lon="-1.621448993682861">
        <ele>5.42</ele>
        <time>2018-07-04T13:07:27Z</time>
      </trkpt>
      <trkpt lat="49.641876015812159" lon="-1.621524011716247">
        <ele>5.42</ele>
        <time>2018-07-04T13:07:28Z</time>
      </trkpt>
      <trkpt lat="49.641938963904977" lon="-1.621599029749632">
        <ele>5.42</ele>
        <time>2018-07-04T13:07:29Z</time>
      </trkpt>
      <trkpt lat="49.641990009695292" lon="-1.621688967570663">
        <ele>5.42</ele>
        <time>2018-07-04T13:07:30Z</time>
      </trkpt>
      <trkpt lat="49.642039965838194" lon="-1.621776977553964">
        <ele>5.91</ele>
        <time>2018-07-04T13:07:31Z</time>
      </trkpt>
      <trkpt lat="49.642088999971747" lon="-1.621861970052123">
        <ele>6.39</ele>
        <time>2018-07-04T13:07:32Z</time>
      </trkpt>
      <trkpt lat="49.642128981649876" lon="-1.621947968378663">
        <ele>6.39</ele>
        <time>2018-07-04T13:07:33Z</time>
      </trkpt>
      <trkpt lat="49.642199976369739" lon="-1.622136980295181">
        <ele>5.91</ele>
        <time>2018-07-04T13:07:35Z</time>
      </trkpt>
      <trkpt lat="49.642450008541346" lon="-1.623019007965922">
        <ele>6.39</ele>
        <time>2018-07-04T13:07:43Z</time>
      </trkpt>
      <trkpt lat="49.642469035461545" lon="-1.623082039877772">
        <ele>6.39</ele>
        <time>2018-07-04T13:07:44Z</time>
      </trkpt>
      <trkpt lat="49.642479009926319" lon="-1.623114980757237">
        <ele>5.91</ele>
        <time>2018-07-04T13:07:51Z</time>
      </trkpt>
      <trkpt lat="49.642485966905951" lon="-1.623136019334197">
        <ele>5.91</ele>
        <time>2018-07-04T13:08:02Z</time>
      </trkpt>
      <trkpt lat="49.642498036846519" lon="-1.623176001012325">
        <ele>5.91</ele>
        <time>2018-07-04T13:08:03Z</time>
      </trkpt>
      <trkpt lat="49.642517985776067" lon="-1.623242972418666">
        <ele>5.42</ele>
        <time>2018-07-04T13:08:04Z</time>
      </trkpt>
      <trkpt lat="49.64254598133266" lon="-1.623330982401967">
        <ele>5.42</ele>
        <time>2018-07-04T13:08:05Z</time>
      </trkpt>
      <trkpt lat="49.642585963010788" lon="-1.623417986556888">
        <ele>5.42</ele>
        <time>2018-07-04T13:08:06Z</time>
      </trkpt>
      <trkpt lat="49.642626028507948" lon="-1.62350800819695">
        <ele>5.42</ele>
        <time>2018-07-04T13:08:07Z</time>
      </trkpt>
      <trkpt lat="49.642806993797421" lon="-1.623906986787915">
        <ele>3.98</ele>
        <time>2018-07-04T13:08:15Z</time>
      </trkpt>
      <trkpt lat="49.642806993797421" lon="-1.623906986787915">
        <ele>3.98</ele>
        <time>2018-07-04T13:08:30Z</time>
      </trkpt>
      <trkpt lat="49.642892992123961" lon="-1.624097004532814">
        <ele>3.5</ele>
        <time>2018-07-04T13:08:56Z</time>
      </trkpt>
      <trkpt lat="49.642940014600754" lon="-1.624201023951173">
        <ele>3.5</ele>
        <time>2018-07-04T13:08:58Z</time>
      </trkpt>
      <trkpt lat="49.643086027354002" lon="-1.624534036964178">
        <ele>0.62</ele>
        <time>2018-07-04T13:09:10Z</time>
      </trkpt>
      <trkpt lat="49.643086027354002" lon="-1.624534036964178">
        <ele>0.62</ele>
        <time>2018-07-04T13:09:34Z</time>
      </trkpt>
      <trkpt lat="49.643086027354002" lon="-1.624534036964178">
        <ele>0.62</ele>
        <time>2018-07-04T13:10:31Z</time>
      </trkpt>
      <trkpt lat="49.643086027354002" lon="-1.624534036964178">
        <ele>0.62</ele>
        <time>2018-07-04T13:11:30Z</time>
      </trkpt>
      <trkpt lat="49.643086027354002" lon="-1.624534036964178">
        <ele>1.1</ele>
        <time>2018-07-04T13:12:34Z</time>
      </trkpt>
      <trkpt lat="49.643086027354002" lon="-1.624534036964178">
        <ele>2.06</ele>
        <time>2018-07-04T13:13:16Z</time>
      </trkpt>
      <trkpt lat="49.643086027354002" lon="-1.624534036964178">
        <ele>2.06</ele>
        <time>2018-07-04T13:14:12Z</time>
      </trkpt>
      <trkpt lat="49.643086027354002" lon="-1.624534036964178">
        <ele>2.54</ele>
        <time>2018-07-04T13:15:00Z</time>
      </trkpt>
      <trkpt lat="49.643086027354002" lon="-1.624534036964178">
        <ele>3.02</ele>
        <time>2018-07-04T13:15:51Z</time>
      </trkpt>
      <trkpt lat="49.643086027354002" lon="-1.624534036964178">
        <ele>3.5</ele>
        <time>2018-07-04T13:16:40Z</time>
      </trkpt>
      <trkpt lat="49.643086027354002" lon="-1.624534036964178">
        <ele>3.98</ele>
        <time>2018-07-04T13:17:24Z</time>
      </trkpt>
      <trkpt lat="49.643086027354002" lon="-1.624534036964178">
        <ele>3.5</ele>
        <time>2018-07-04T13:18:07Z</time>
      </trkpt>
      <trkpt lat="49.643086027354002" lon="-1.624534036964178">
        <ele>3.98</ele>
        <time>2018-07-04T13:19:07Z</time>
      </trkpt>
      <trkpt lat="49.643086027354002" lon="-1.624534036964178">
        <ele>3.98</ele>
        <time>2018-07-04T13:19:59Z</time>
      </trkpt>
    </trkseg>
  </trk>

  <trk>
    <name>Track vom: 2018-07-04 15:31</name>
    <extensions>
      <gpxx:TrackExtension>
        <gpxx:DisplayColor>DarkGray</gpxx:DisplayColor>
      </gpxx:TrackExtension>
    </extensions>
    <trkseg>
      <trkpt lat="49.643086027354002" lon="-1.624534036964178">
        <ele>8.310000000000001</ele>
        <time>2018-07-04T13:31:22Z</time>
      </trkpt>
      <trkpt lat="49.643086027354002" lon="-1.624534036964178">
        <ele>8.789999999999999</ele>
        <time>2018-07-04T13:32:23Z</time>
      </trkpt>
      <trkpt lat="49.643086027354002" lon="-1.624534036964178">
        <ele>8.789999999999999</ele>
        <time>2018-07-04T13:33:13Z</time>
      </trkpt>
      <trkpt lat="49.643086027354002" lon="-1.624534036964178">
        <ele>8.789999999999999</ele>
        <time>2018-07-04T13:34:05Z</time>
      </trkpt>
      <trkpt lat="49.643086027354002" lon="-1.624534036964178">
        <ele>8.789999999999999</ele>
        <time>2018-07-04T13:35:03Z</time>
      </trkpt>
      <trkpt lat="49.643086027354002" lon="-1.624534036964178">
        <ele>8.789999999999999</ele>
        <time>2018-07-04T13:35:51Z</time>
      </trkpt>
      <trkpt lat="49.643086027354002" lon="-1.624534036964178">
        <ele>8.789999999999999</ele>
        <time>2018-07-04T13:36:47Z</time>
      </trkpt>
      <trkpt lat="49.643086027354002" lon="-1.624534036964178">
        <ele>8.789999999999999</ele>
        <time>2018-07-04T13:37:34Z</time>
      </trkpt>
      <trkpt lat="49.643086027354002" lon="-1.624534036964178">
        <ele>8.310000000000001</ele>
        <time>2018-07-04T13:38:36Z</time>
      </trkpt>
    </trkseg>
  </trk>

  <trk>
    <name>Track vom: 2018-07-04 15:39</name>
    <extensions>
      <gpxx:TrackExtension>
        <gpxx:DisplayColor>DarkGray</gpxx:DisplayColor>
      </gpxx:TrackExtension>
    </extensions>
    <trkseg>
      <trkpt lat="49.643086027354002" lon="-1.624534036964178">
        <ele>8.310000000000001</ele>
        <time>2018-07-04T13:39:33Z</time>
      </trkpt>
      <trkpt lat="49.643086027354002" lon="-1.624534036964178">
        <ele>7.83</ele>
        <time>2018-07-04T13:40:29Z</time>
      </trkpt>
      <trkpt lat="49.643086027354002" lon="-1.624534036964178">
        <ele>7.83</ele>
        <time>2018-07-04T13:41:18Z</time>
      </trkpt>
      <trkpt lat="49.643086027354002" lon="-1.624534036964178">
        <ele>8.310000000000001</ele>
        <time>2018-07-04T13:42:09Z</time>
      </trkpt>
      <trkpt lat="49.643086027354002" lon="-1.624534036964178">
        <ele>8.310000000000001</ele>
        <time>2018-07-04T13:43:09Z</time>
      </trkpt>
      <trkpt lat="49.643086027354002" lon="-1.624534036964178">
        <ele>8.789999999999999</ele>
        <time>2018-07-04T13:44:05Z</time>
      </trkpt>
      <trkpt lat="49.643114022910595" lon="-1.624589022248983">
        <ele>8.789999999999999</ele>
        <time>2018-07-04T13:44:29Z</time>
      </trkpt>
      <trkpt lat="49.643129026517272" lon="-1.624618023633957">
        <ele>8.789999999999999</ele>
        <time>2018-07-04T13:44:30Z</time>
      </trkpt>
      <trkpt lat="49.643158027902246" lon="-1.624674014747143">
        <ele>8.310000000000001</ele>
        <time>2018-07-04T13:44:31Z</time>
      </trkpt>
      <trkpt lat="49.643201027065516" lon="-1.624756995588541">
        <ele>8.310000000000001</ele>
        <time>2018-07-04T13:44:32Z</time>
      </trkpt>
      <trkpt lat="49.643251989036798" lon="-1.624856991693378">
        <ele>8.310000000000001</ele>
        <time>2018-07-04T13:44:33Z</time>
      </trkpt>
      <trkpt lat="49.643636969849467" lon="-1.625607004389167">
        <ele>7.83</ele>
        <time>2018-07-04T13:44:42Z</time>
      </trkpt>
      <trkpt lat="49.643675023689866" lon="-1.625680010765791">
        <ele>7.83</ele>
        <time>2018-07-04T13:44:53Z</time>
      </trkpt>
      <trkpt lat="49.64379102922976" lon="-1.625903975218535">
        <ele>7.35</ele>
        <time>2018-07-04T13:45:17Z</time>
      </trkpt>
      <trkpt lat="49.644355969503522" lon="-1.626718025654554">
        <ele>7.35</ele>
        <time>2018-07-04T13:45:26Z</time>
      </trkpt>
      <trkpt lat="49.644933985546231" lon="-1.627831980586052">
        <ele>7.35</ele>
        <time>2018-07-04T13:45:35Z</time>
      </trkpt>
      <trkpt lat="49.644971033558249" lon="-1.627975981682539">
        <ele>7.83</ele>
        <time>2018-07-04T13:45:36Z</time>
      </trkpt>
      <trkpt lat="49.645006991922855" lon="-1.628121994435787">
        <ele>7.83</ele>
        <time>2018-07-04T13:45:37Z</time>
      </trkpt>
      <trkpt lat="49.645020989701152" lon="-1.628272030502558">
        <ele>8.310000000000001</ele>
        <time>2018-07-04T13:45:38Z</time>
      </trkpt>
      <trkpt lat="49.645063988864422" lon="-1.628748960793018">
        <ele>8.310000000000001</ele>
        <time>2018-07-04T13:45:41Z</time>
      </trkpt>
      <trkpt lat="49.645057031884789" lon="-1.628906037658453">
        <ele>8.310000000000001</ele>
        <time>2018-07-04T13:45:42Z</time>
      </trkpt>
      <trkpt lat="49.645025013014674" lon="-1.629067976027727">
        <ele>8.310000000000001</ele>
        <time>2018-07-04T13:45:43Z</time>
      </trkpt>
      <trkpt lat="49.644991988316178" lon="-1.629237039014697">
        <ele>8.310000000000001</ele>
        <time>2018-07-04T13:45:44Z</time>
      </trkpt>
      <trkpt lat="49.644958963617682" lon="-1.629410041496158">
        <ele>8.789999999999999</ele>
        <time>2018-07-04T13:45:45Z</time>
      </trkpt>
      <trkpt lat="49.644924011081457" lon="-1.629586983472109">
        <ele>8.789999999999999</ele>
        <time>2018-07-04T13:45:46Z</time>
      </trkpt>
      <trkpt lat="49.644640032202005" lon="-1.63096304051578">
        <ele>8.789999999999999</ele>
        <time>2018-07-04T13:45:55Z</time>
      </trkpt>
      <trkpt lat="49.644385976716876" lon="-1.632615029811859">
        <ele>7.35</ele>
        <time>2018-07-04T13:46:05Z</time>
      </trkpt>
      <trkpt lat="49.644403997808695" lon="-1.632785014808178">
        <ele>6.87</ele>
        <time>2018-07-04T13:46:06Z</time>
      </trkpt>
      <trkpt lat="49.644422018900514" lon="-1.632958017289639">
        <ele>6.87</ele>
        <time>2018-07-04T13:46:07Z</time>
      </trkpt>
      <trkpt lat="49.644451020285487" lon="-1.633120961487293">
        <ele>6.39</ele>
        <time>2018-07-04T13:46:08Z</time>
      </trkpt>
      <trkpt lat="49.644484966993332" lon="-1.63328398950398">
        <ele>5.91</ele>
        <time>2018-07-04T13:46:09Z</time>
      </trkpt>
      <trkpt lat="49.644520003348589" lon="-1.633447017520666">
        <ele>5.91</ele>
        <time>2018-07-04T13:46:10Z</time>
      </trkpt>
      <trkpt lat="49.644724018871784" lon="-1.63440297357738">
        <ele>6.39</ele>
        <time>2018-07-04T13:46:18Z</time>
      </trkpt>
      <trkpt lat="49.64477900415659" lon="-1.63465996272862">
        <ele>6.87</ele>
        <time>2018-07-04T13:46:26Z</time>
      </trkpt>
      <trkpt lat="49.644789984449744" lon="-1.634707991033793">
        <ele>6.87</ele>
        <time>2018-07-04T13:46:33Z</time>
      </trkpt>
      <trkpt lat="49.644794007763267" lon="-1.634729029610753">
        <ele>6.87</ele>
        <time>2018-07-04T13:46:34Z</time>
      </trkpt>
      <trkpt lat="49.644799958914518" lon="-1.634754007682204">
        <ele>6.87</ele>
        <time>2018-07-04T13:46:35Z</time>
      </trkpt>
      <trkpt lat="49.644808005541563" lon="-1.634791977703571">
        <ele>6.39</ele>
        <time>2018-07-04T13:46:36Z</time>
      </trkpt>
      <trkpt lat="49.644818985834718" lon="-1.634845035150647">
        <ele>6.39</ele>
        <time>2018-07-04T13:46:37Z</time>
      </trkpt>
      <trkpt lat="49.644836001098156" lon="-1.634920975193381">
        <ele>6.39</ele>
        <time>2018-07-04T13:46:38Z</time>
      </trkpt>
      <trkpt lat="49.645070023834705" lon="-1.635922025889158">
        <ele>7.35</ele>
        <time>2018-07-04T13:46:46Z</time>
      </trkpt>
      <trkpt lat="49.645362971350551" lon="-1.637277966365218">
        <ele>7.83</ele>
        <time>2018-07-04T13:46:57Z</time>
      </trkpt>
      <trkpt lat="49.645390966907144" lon="-1.637414004653692">
        <ele>9.27</ele>
        <time>2018-07-04T13:47:05Z</time>
      </trkpt>
      <trkpt lat="49.645390966907144" lon="-1.637414004653692">
        <ele>9.27</ele>
        <time>2018-07-04T13:47:12Z</time>
      </trkpt>
      <trkpt lat="49.645481994375587" lon="-1.63786000572145">
        <ele>9.75</ele>
        <time>2018-07-04T13:47:22Z</time>
      </trkpt>
      <trkpt lat="49.645747030153871" lon="-1.639026012271643">
        <ele>9.75</ele>
        <time>2018-07-04T13:47:30Z</time>
      </trkpt>
      <trkpt lat="49.646321022883058" lon="-1.641418039798737">
        <ele>12.630000000000001</ele>
        <time>2018-07-04T13:47:44Z</time>
      </trkpt>
      <trkpt lat="49.646541969850659" lon="-1.642165035009384">
        <ele>14.08</ele>
        <time>2018-07-04T13:47:49Z</time>
      </trkpt>
      <trkpt lat="49.646599972620606" lon="-1.642281962558627">
        <ele>14.08</ele>
        <time>2018-07-04T13:47:50Z</time>
      </trkpt>
      <trkpt lat="49.646669961512089" lon="-1.642385981976986">
        <ele>14.56</ele>
        <time>2018-07-04T13:47:51Z</time>
      </trkpt>
      <trkpt lat="49.646742967888713" lon="-1.642495030537248">
        <ele>14.56</ele>
        <time>2018-07-04T13:47:52Z</time>
      </trkpt>
      <trkpt lat="49.646787978708744" lon="-1.642563007771969">
        <ele>14.56</ele>
        <time>2018-07-04T13:47:53Z</time>
      </trkpt>
      <trkpt lat="49.646938014775515" lon="-1.642627967521548">
        <ele>15.039999999999999</ele>
        <time>2018-07-04T13:47:54Z</time>
      </trkpt>
      <trkpt lat="49.647040022537112" lon="-1.642698040232062">
        <ele>15.039999999999999</ele>
        <time>2018-07-04T13:47:55Z</time>
      </trkpt>
      <trkpt lat="49.647147981449962" lon="-1.642772974446416">
        <ele>15.039999999999999</ele>
        <time>2018-07-04T13:47:56Z</time>
      </trkpt>
      <trkpt lat="49.647259041666985" lon="-1.642839023843408">
        <ele>15.039999999999999</ele>
        <time>2018-07-04T13:47:57Z</time>
      </trkpt>
      <trkpt lat="49.648182978853583" lon="-1.643314026296139">
        <ele>13.6</ele>
        <time>2018-07-04T13:48:05Z</time>
      </trkpt>
      <trkpt lat="49.648269983008504" lon="-1.643373034894466">
        <ele>13.6</ele>
        <time>2018-07-04T13:48:06Z</time>
      </trkpt>
      <trkpt lat="49.648728976026177" lon="-1.643850971013308">
        <ele>13.119999999999999</ele>
        <time>2018-07-04T13:48:15Z</time>
      </trkpt>
      <trkpt lat="49.648748002946377" lon="-1.643871003761888">
        <ele>12.630000000000001</ele>
        <time>2018-07-04T13:48:24Z</time>
      </trkpt>
      <trkpt lat="49.648914970457554" lon="-1.644046017900109">
        <ele>13.119999999999999</ele>
        <time>2018-07-04T13:48:43Z</time>
      </trkpt>
      <trkpt lat="49.649747963994741" lon="-1.644879011437297">
        <ele>14.08</ele>
        <time>2018-07-04T13:48:52Z</time>
      </trkpt>
      <trkpt lat="49.651115974411368" lon="-1.64626001380384">
        <ele>13.6</ele>
        <time>2018-07-04T13:49:03Z</time>
      </trkpt>
      <trkpt lat="49.652618011459708" lon="-1.647778982296586">
        <ele>14.56</ele>
        <time>2018-07-04T13:49:15Z</time>
      </trkpt>
      <trkpt lat="49.65358997695148" lon="-1.648761006072164">
        <ele>16.48</ele>
        <time>2018-07-04T13:49:27Z</time>
      </trkpt>
      <trkpt lat="49.65408400632441" lon="-1.649258974939585">
        <ele>16.960000000000001</ele>
        <time>2018-07-04T13:49:35Z</time>
      </trkpt>
      <trkpt lat="49.654933009296656" lon="-1.650209985673428">
        <ele>16</ele>
        <time>2018-07-04T13:49:43Z</time>
      </trkpt>
      <trkpt lat="49.655788969248533" lon="-1.651812018826604">
        <ele>13.119999999999999</ele>
        <time>2018-07-04T13:49:52Z</time>
      </trkpt>
      <trkpt lat="49.656687006354332" lon="-1.654331032186747">
        <ele>10.710000000000001</ele>
        <time>2018-07-04T13:50:05Z</time>
      </trkpt>
      <trkpt lat="49.657320007681847" lon="-1.656631026417017">
        <ele>9.75</ele>
        <time>2018-07-04T13:50:16Z</time>
      </trkpt>
      <trkpt lat="49.657532991841435" lon="-1.659313989803195">
        <ele>8.310000000000001</ele>
        <time>2018-07-04T13:50:27Z</time>
      </trkpt>
      <trkpt lat="49.65788695961237" lon="-1.662787031382322">
        <ele>7.35</ele>
        <time>2018-07-04T13:50:41Z</time>
      </trkpt>
      <trkpt lat="49.657882014289498" lon="-1.665158020332456">
        <ele>6.87</ele>
        <time>2018-07-04T13:50:51Z</time>
      </trkpt>
      <trkpt lat="49.657739019021392" lon="-1.667173029854894">
        <ele>7.35</ele>
        <time>2018-07-04T13:51:03Z</time>
      </trkpt>
      <trkpt lat="49.65771496295929" lon="-1.667624982073903">
        <ele>7.35</ele>
        <time>2018-07-04T13:51:08Z</time>
      </trkpt>
      <trkpt lat="49.657725021243095" lon="-1.667716009542346">
        <ele>7.35</ele>
        <time>2018-07-04T13:51:09Z</time>
      </trkpt>
      <trkpt lat="49.657754022628069" lon="-1.667823968455195">
        <ele>7.35</ele>
        <time>2018-07-04T13:51:10Z</time>
      </trkpt>
      <trkpt lat="49.65780196711421" lon="-1.667926982045174">
        <ele>7.35</ele>
        <time>2018-07-04T13:51:11Z</time>
      </trkpt>
      <trkpt lat="49.657852007076144" lon="-1.668034018948674">
        <ele>7.35</ele>
        <time>2018-07-04T13:51:12Z</time>
      </trkpt>
      <trkpt lat="49.657871033996344" lon="-1.668206015601754">
        <ele>7.35</ele>
        <time>2018-07-04T13:51:13Z</time>
      </trkpt>
      <trkpt lat="49.657859969884157" lon="-1.668312968686223">
        <ele>7.83</ele>
        <time>2018-07-04T13:51:14Z</time>
      </trkpt>
      <trkpt lat="49.657774977385998" lon="-1.668506003916264">
        <ele>7.83</ele>
        <time>2018-07-04T13:51:15Z</time>
      </trkpt>
      <trkpt lat="49.657774977385998" lon="-1.668506003916264">
        <ele>7.83</ele>
        <time>2018-07-04T13:51:16Z</time>
      </trkpt>
      <trkpt lat="49.657568028196692" lon="-1.670262012630701">
        <ele>8.789999999999999</ele>
        <time>2018-07-04T13:51:25Z</time>
      </trkpt>
      <trkpt lat="49.657593006268144" lon="-1.670941030606628">
        <ele>8.789999999999999</ele>
        <time>2018-07-04T13:51:28Z</time>
      </trkpt>
      <trkpt lat="49.657612033188343" lon="-1.671173041686416">
        <ele>8.310000000000001</ele>
        <time>2018-07-04T13:51:29Z</time>
      </trkpt>
      <trkpt lat="49.657630976289511" lon="-1.671407986432314">
        <ele>8.310000000000001</ele>
        <time>2018-07-04T13:51:30Z</time>
      </trkpt>
      <trkpt lat="49.658184014260769" lon="-1.673130970448256">
        <ele>7.35</ele>
        <time>2018-07-04T13:51:38Z</time>
      </trkpt>
      <trkpt lat="49.659487986937165" lon="-1.675401963293552">
        <ele>8.310000000000001</ele>
        <time>2018-07-04T13:51:51Z</time>
      </trkpt>
      <trkpt lat="49.661243995651603" lon="-1.678367983549833">
        <ele>7.83</ele>
        <time>2018-07-04T13:52:09Z</time>
      </trkpt>
      <trkpt lat="49.661755040287971" lon="-1.679358975961804">
        <ele>7.83</ele>
        <time>2018-07-04T13:52:17Z</time>
      </trkpt>
      <trkpt lat="49.661800973117352" lon="-1.679480010643601">
        <ele>7.35</ele>
        <time>2018-07-04T13:52:18Z</time>
      </trkpt>
      <trkpt lat="49.661829974502325" lon="-1.679556034505367">
        <ele>7.35</ele>
        <time>2018-07-04T13:52:19Z</time>
      </trkpt>
      <trkpt lat="49.661843972280622" lon="-1.679714033380151">
        <ele>7.35</ele>
        <time>2018-07-04T13:52:20Z</time>
      </trkpt>
      <trkpt lat="49.661854030564427" lon="-1.679836995899677">
        <ele>6.87</ele>
        <time>2018-07-04T13:52:21Z</time>
      </trkpt>
      <trkpt lat="49.661865010857582" lon="-1.679960964247584">
        <ele>6.87</ele>
        <time>2018-07-04T13:52:22Z</time>
      </trkpt>
      <trkpt lat="49.661870962008834" lon="-1.680069006979466">
        <ele>6.87</ele>
        <time>2018-07-04T13:52:23Z</time>
      </trkpt>
      <trkpt lat="49.66186098754406" lon="-1.680170008912683">
        <ele>6.39</ele>
        <time>2018-07-04T13:52:24Z</time>
      </trkpt>
      <trkpt lat="49.661854030564427" lon="-1.680243015289307">
        <ele>6.39</ele>
        <time>2018-07-04T13:52:25Z</time>
      </trkpt>
      <trkpt lat="49.661803990602493" lon="-1.680534034967423">
        <ele>5.42</ele>
        <time>2018-07-04T13:52:34Z</time>
      </trkpt>
      <trkpt lat="49.66175202280283" lon="-1.68083100579679">
        <ele>5.42</ele>
        <time>2018-07-04T13:52:40Z</time>
      </trkpt>
      <trkpt lat="49.661737019196153" lon="-1.68091700412333">
        <ele>5.42</ele>
        <time>2018-07-04T13:52:41Z</time>
      </trkpt>
      <trkpt lat="49.661721009761095" lon="-1.681009959429503">
        <ele>5.91</ele>
        <time>2018-07-04T13:52:42Z</time>
      </trkpt>
      <trkpt lat="49.661694020032883" lon="-1.681223027408123">
        <ele>5.91</ele>
        <time>2018-07-04T13:52:44Z</time>
      </trkpt>
      <trkpt lat="49.661684967577457" lon="-1.681335009634495">
        <ele>5.91</ele>
        <time>2018-07-04T13:52:45Z</time>
      </trkpt>
      <trkpt lat="49.661725033074617" lon="-1.681480016559362">
        <ele>6.39</ele>
        <time>2018-07-04T13:52:46Z</time>
      </trkpt>
      <trkpt lat="49.661777000874281" lon="-1.681567020714283">
        <ele>6.87</ele>
        <time>2018-07-04T13:52:47Z</time>
      </trkpt>
      <trkpt lat="49.661829974502325" lon="-1.681658970192075">
        <ele>7.35</ele>
        <time>2018-07-04T13:52:48Z</time>
      </trkpt>
      <trkpt lat="49.661857970058918" lon="-1.681790985167027">
        <ele>7.83</ele>
        <time>2018-07-04T13:52:49Z</time>
      </trkpt>
      <trkpt lat="49.661885965615511" lon="-1.681923000141978">
        <ele>8.310000000000001</ele>
        <time>2018-07-04T13:52:50Z</time>
      </trkpt>
      <trkpt lat="49.661915972828865" lon="-1.682067001238465">
        <ele>8.789999999999999</ele>
        <time>2018-07-04T13:52:51Z</time>
      </trkpt>
      <trkpt lat="49.661929970607162" lon="-1.682216031476855">
        <ele>9.27</ele>
        <time>2018-07-04T13:52:52Z</time>
      </trkpt>
      <trkpt lat="49.662043964490294" lon="-1.683235019445419">
        <ele>10.23</ele>
        <time>2018-07-04T13:52:58Z</time>
      </trkpt>
      <trkpt lat="49.662087969481945" lon="-1.683396035805345">
        <ele>9.75</ele>
        <time>2018-07-04T13:52:59Z</time>
      </trkpt>
      <trkpt lat="49.662132980301976" lon="-1.683552023023367">
        <ele>10.23</ele>
        <time>2018-07-04T13:53:00Z</time>
      </trkpt>
      <trkpt lat="49.662195006385446" lon="-1.683675991371274">
        <ele>10.23</ele>
        <time>2018-07-04T13:53:01Z</time>
      </trkpt>
      <trkpt lat="49.662276981398463" lon="-1.683779004961252">
        <ele>10.23</ele>
        <time>2018-07-04T13:53:02Z</time>
      </trkpt>
      <trkpt lat="49.662357028573751" lon="-1.683879001066089">
        <ele>10.23</ele>
        <time>2018-07-04T13:53:03Z</time>
      </trkpt>
      <trkpt lat="49.662451995536685" lon="-1.683998024091125">
        <ele>10.710000000000001</ele>
        <time>2018-07-04T13:53:04Z</time>
      </trkpt>
      <trkpt lat="49.662531958892941" lon="-1.684066001325846">
        <ele>10.710000000000001</ele>
        <time>2018-07-04T13:53:05Z</time>
      </trkpt>
      <trkpt lat="49.66390298679471" lon="-1.685188002884388">
        <ele>10.23</ele>
        <time>2018-07-04T13:53:20Z</time>
      </trkpt>
      <trkpt lat="49.664217978715897" lon="-1.685443986207247">
        <ele>10.710000000000001</ele>
        <time>2018-07-04T13:53:24Z</time>
      </trkpt>
      <trkpt lat="49.664427023380995" lon="-1.6856640111655">
        <ele>10.710000000000001</ele>
        <time>2018-07-04T13:53:28Z</time>
      </trkpt>
      <trkpt lat="49.664598014205694" lon="-1.685842964798212">
        <ele>11.19</ele>
        <time>2018-07-04T13:53:34Z</time>
      </trkpt>
      <trkpt lat="49.664598014205694" lon="-1.685842964798212">
        <ele>11.67</ele>
        <time>2018-07-04T13:53:48Z</time>
      </trkpt>
      <trkpt lat="49.664598014205694" lon="-1.685842964798212">
        <ele>11.67</ele>
        <time>2018-07-04T13:53:53Z</time>
      </trkpt>
      <trkpt lat="49.664941001683474" lon="-1.686316039413214">
        <ele>12.630000000000001</ele>
        <time>2018-07-04T13:53:59Z</time>
      </trkpt>
      <trkpt lat="49.665554976090789" lon="-1.687418008223176">
        <ele>14.08</ele>
        <time>2018-07-04T13:54:07Z</time>
      </trkpt>
      <trkpt lat="49.666087981313467" lon="-1.689405022189021">
        <ele>14.56</ele>
        <time>2018-07-04T13:54:16Z</time>
      </trkpt>
      <trkpt lat="49.66682500205934" lon="-1.692645968869329">
        <ele>14.56</ele>
        <time>2018-07-04T13:54:28Z</time>
      </trkpt>
      <trkpt lat="49.667298998683691" lon="-1.69501100666821">
        <ele>12.15</ele>
        <time>2018-07-04T13:54:38Z</time>
      </trkpt>
      <trkpt lat="49.66740301810205" lon="-1.695962017402053">
        <ele>11.67</ele>
        <time>2018-07-04T13:54:44Z</time>
      </trkpt>
      <trkpt lat="49.667448028922081" lon="-1.697252998128533">
        <ele>11.67</ele>
        <time>2018-07-04T13:54:53Z</time>
      </trkpt>
      <trkpt lat="49.667540984228253" lon="-1.69980201870203">
        <ele>12.15</ele>
        <time>2018-07-04T13:55:06Z</time>
      </trkpt>
      <trkpt lat="49.667454985901713" lon="-1.702318014577031">
        <ele>11.19</ele>
        <time>2018-07-04T13:55:19Z</time>
      </trkpt>
      <trkpt lat="49.66697596013546" lon="-1.704219030216336">
        <ele>12.15</ele>
        <time>2018-07-04T13:55:30Z</time>
      </trkpt>
      <trkpt lat="49.666576981544495" lon="-1.705961963161826">
        <ele>16</ele>
        <time>2018-07-04T13:55:40Z</time>
      </trkpt>
      <trkpt lat="49.666582010686398" lon="-1.70788099989295">
        <ele>17.920000000000002</ele>
        <time>2018-07-04T13:55:49Z</time>
      </trkpt>
      <trkpt lat="49.666989035904408" lon="-1.711107026785612">
        <ele>13.6</ele>
        <time>2018-07-04T13:56:02Z</time>
      </trkpt>
      <trkpt lat="49.667537966743112" lon="-1.712832022458315">
        <ele>12.15</ele>
        <time>2018-07-04T13:56:10Z</time>
      </trkpt>
      <trkpt lat="49.668421000242233" lon="-1.715346006676555">
        <ele>13.119999999999999</ele>
        <time>2018-07-04T13:56:22Z</time>
      </trkpt>
      <trkpt lat="49.668652005493641" lon="-1.71634403988719">
        <ele>16</ele>
        <time>2018-07-04T13:56:28Z</time>
      </trkpt>
      <trkpt lat="49.668819978833199" lon="-1.717206034809351">
        <ele>19.84</ele>
        <time>2018-07-04T13:56:35Z</time>
      </trkpt>
      <trkpt lat="49.668830959126353" lon="-1.717284992337227">
        <ele>21.289999999999999</ele>
        <time>2018-07-04T13:56:43Z</time>
      </trkpt>
      <trkpt lat="49.668835988268256" lon="-1.717325979843736">
        <ele>21.289999999999999</ele>
        <time>2018-07-04T13:56:44Z</time>
      </trkpt>
      <trkpt lat="49.668844034895301" lon="-1.717396974563599">
        <ele>21.77</ele>
        <time>2018-07-04T13:56:45Z</time>
      </trkpt>
      <trkpt lat="49.668963979929686" lon="-1.71843096613884">
        <ele>23.210000000000001</ele>
        <time>2018-07-04T13:56:52Z</time>
      </trkpt>
      <trkpt lat="49.669089959934354" lon="-1.719738962128758">
        <ele>26.57</ele>
        <time>2018-07-04T13:57:01Z</time>
      </trkpt>
      <trkpt lat="49.669095994904637" lon="-1.719800988212228">
        <ele>26.57</ele>
        <time>2018-07-04T13:57:02Z</time>
      </trkpt>
      <trkpt lat="49.669067999348044" lon="-1.719902995973826">
        <ele>26.57</ele>
        <time>2018-07-04T13:57:03Z</time>
      </trkpt>
      <trkpt lat="49.669102029874921" lon="-1.71986997127533">
        <ele>27.050000000000001</ele>
        <time>2018-07-04T13:57:04Z</time>
      </trkpt>
      <trkpt lat="49.669104041531682" lon="-1.719896961003542">
        <ele>27.530000000000001</ele>
        <time>2018-07-04T13:57:15Z</time>
      </trkpt>
      <trkpt lat="49.669104041531682" lon="-1.719896961003542">
        <ele>27.530000000000001</ele>
        <time>2018-07-04T13:57:18Z</time>
      </trkpt>
      <trkpt lat="49.669104041531682" lon="-1.719896961003542">
        <ele>27.050000000000001</ele>
        <time>2018-07-04T13:57:21Z</time>
      </trkpt>
      <trkpt lat="49.669098006561399" lon="-1.71982697211206">
        <ele>26.57</ele>
        <time>2018-07-04T13:57:22Z</time>
      </trkpt>
      <trkpt lat="49.669088032096624" lon="-1.719711972400546">
        <ele>26.57</ele>
        <time>2018-07-04T13:57:23Z</time>
      </trkpt>
      <trkpt lat="49.66906095854938" lon="-1.719403015449643">
        <ele>26.57</ele>
        <time>2018-07-04T13:57:24Z</time>
      </trkpt>
      <trkpt lat="49.668926009908319" lon="-1.71808797866106">
        <ele>23.210000000000001</ele>
        <time>2018-07-04T13:57:33Z</time>
      </trkpt>
      <trkpt lat="49.66873599216342" lon="-1.716744024306536">
        <ele>18.399999999999999</ele>
        <time>2018-07-04T13:57:42Z</time>
      </trkpt>
      <trkpt lat="49.668724006041884" lon="-1.716680992394686">
        <ele>17.920000000000002</ele>
        <time>2018-07-04T13:57:43Z</time>
      </trkpt>
      <trkpt lat="49.66871595941484" lon="-1.716634975746274">
        <ele>17.440000000000001</ele>
        <time>2018-07-04T13:57:44Z</time>
      </trkpt>
      <trkpt lat="49.668620992451906" lon="-1.716601029038429">
        <ele>16.960000000000001</ele>
        <time>2018-07-04T13:57:45Z</time>
      </trkpt>
      <trkpt lat="49.668588973581791" lon="-1.716631036251783">
        <ele>16.960000000000001</ele>
        <time>2018-07-04T13:57:46Z</time>
      </trkpt>
      <trkpt lat="49.66854496859014" lon="-1.716674035415053">
        <ele>16.48</ele>
        <time>2018-07-04T13:57:47Z</time>
      </trkpt>
      <trkpt lat="49.668487971648574" lon="-1.716728014871478">
        <ele>16</ele>
        <time>2018-07-04T13:57:48Z</time>
      </trkpt>
      <trkpt lat="49.668424017727375" lon="-1.716790040954948">
        <ele>15.52</ele>
        <time>2018-07-04T13:57:49Z</time>
      </trkpt>
      <trkpt lat="49.668214973062277" lon="-1.716991038993001">
        <ele>15.52</ele>
        <time>2018-07-04T13:57:52Z</time>
      </trkpt>
      <trkpt lat="49.668148001655936" lon="-1.71705599874258">
        <ele>15.52</ele>
        <time>2018-07-04T13:57:53Z</time>
      </trkpt>
      <trkpt lat="49.668084969744086" lon="-1.717053987085819">
        <ele>16</ele>
        <time>2018-07-04T13:57:54Z</time>
      </trkpt>
      <trkpt lat="49.668030990287662" lon="-1.717043006792665">
        <ele>16</ele>
        <time>2018-07-04T13:57:55Z</time>
      </trkpt>
      <trkpt lat="49.667953960597515" lon="-1.716978969052434">
        <ele>16</ele>
        <time>2018-07-04T13:57:56Z</time>
      </trkpt>
      <trkpt lat="49.667881038039923" lon="-1.716919038444758">
        <ele>16.48</ele>
        <time>2018-07-04T13:57:57Z</time>
      </trkpt>
      <trkpt lat="49.66781297698617" lon="-1.71686296351254">
        <ele>16.960000000000001</ele>
        <time>2018-07-04T13:57:58Z</time>
      </trkpt>
      <trkpt lat="49.667754974216223" lon="-1.716815019026399">
        <ele>17.440000000000001</ele>
        <time>2018-07-04T13:57:59Z</time>
      </trkpt>
      <trkpt lat="49.66770401224494" lon="-1.716773025691509">
        <ele>17.440000000000001</ele>
        <time>2018-07-04T13:58:00Z</time>
      </trkpt>
      <trkpt lat="49.667643997818232" lon="-1.71675399877131">
        <ele>17.920000000000002</ele>
        <time>2018-07-04T13:58:01Z</time>
      </trkpt>
      <trkpt lat="49.667591024190187" lon="-1.716779982671142">
        <ele>18.399999999999999</ele>
        <time>2018-07-04T13:58:02Z</time>
      </trkpt>
      <trkpt lat="49.667549030855298" lon="-1.716801021248102">
        <ele>18.879999999999999</ele>
        <time>2018-07-04T13:58:03Z</time>
      </trkpt>
      <trkpt lat="49.667544001713395" lon="-1.716865980997682">
        <ele>19.359999999999999</ele>
        <time>2018-07-04T13:58:04Z</time>
      </trkpt>
      <trkpt lat="49.667550958693027" lon="-1.716936975717545">
        <ele>19.84</ele>
        <time>2018-07-04T13:58:05Z</time>
      </trkpt>
      <trkpt lat="49.667560011148453" lon="-1.717020962387323">
        <ele>20.32</ele>
        <time>2018-07-04T13:58:06Z</time>
      </trkpt>
      <trkpt lat="49.667591024190187" lon="-1.717237969860435">
        <ele>22.25</ele>
        <time>2018-07-04T13:58:08Z</time>
      </trkpt>
      <trkpt lat="49.66764198616147" lon="-1.717349030077457">
        <ele>23.210000000000001</ele>
        <time>2018-07-04T13:58:09Z</time>
      </trkpt>
      <trkpt lat="49.66770401224494" lon="-1.717475010082126">
        <ele>24.170000000000002</ele>
        <time>2018-07-04T13:58:10Z</time>
      </trkpt>
      <trkpt lat="49.667778024449944" lon="-1.7175920214504">
        <ele>25.129999999999999</ele>
        <time>2018-07-04T13:58:11Z</time>
      </trkpt>
      <trkpt lat="49.667857987806201" lon="-1.717715989798307">
        <ele>25.609999999999999</ele>
        <time>2018-07-04T13:58:12Z</time>
      </trkpt>
      <trkpt lat="49.667935017496347" lon="-1.717837024480104">
        <ele>26.57</ele>
        <time>2018-07-04T13:58:13Z</time>
      </trkpt>
      <trkpt lat="49.667999977245927" lon="-1.717938026413322">
        <ele>27.050000000000001</ele>
        <time>2018-07-04T13:58:14Z</time>
      </trkpt>
      <trkpt lat="49.668030990287662" lon="-1.718039028346539">
        <ele>28.02</ele>
        <time>2018-07-04T13:58:15Z</time>
      </trkpt>
      <trkpt lat="49.668030990287662" lon="-1.71813097782433">
        <ele>28.5</ele>
        <time>2018-07-04T13:58:16Z</time>
      </trkpt>
      <trkpt lat="49.66802797280252" lon="-1.718203984200954">
        <ele>28.98</ele>
        <time>2018-07-04T13:58:17Z</time>
      </trkpt>
      <trkpt lat="49.667979022487998" lon="-1.718242960050702">
        <ele>29.940000000000001</ele>
        <time>2018-07-04T13:58:18Z</time>
      </trkpt>
      <trkpt lat="49.667916996404529" lon="-1.718286965042353">
        <ele>30.420000000000002</ele>
        <time>2018-07-04T13:58:19Z</time>
      </trkpt>
      <trkpt lat="49.667825968936086" lon="-1.71828000806272">
        <ele>30.420000000000002</ele>
        <time>2018-07-04T13:58:20Z</time>
      </trkpt>
      <trkpt lat="49.667714992538095" lon="-1.718271961435676">
        <ele>30.899999999999999</ele>
        <time>2018-07-04T13:58:21Z</time>
      </trkpt>
      <trkpt lat="49.667292041704059" lon="-1.718284031376243">
        <ele>33.299999999999997</ele>
        <time>2018-07-04T13:58:25Z</time>
      </trkpt>
      <trkpt lat="49.667248036712408" lon="-1.718334993347526">
        <ele>34.259999999999998</ele>
        <time>2018-07-04T13:58:26Z</time>
      </trkpt>
      <trkpt lat="49.667218029499054" lon="-1.718403976410627">
        <ele>34.740000000000002</ele>
        <time>2018-07-04T13:58:27Z</time>
      </trkpt>
      <trkpt lat="49.667195985093713" lon="-1.718483017757535">
        <ele>35.710000000000001</ele>
        <time>2018-07-04T13:58:28Z</time>
      </trkpt>
      <trkpt lat="49.667200008407235" lon="-1.718572033569217">
        <ele>36.670000000000002</ele>
        <time>2018-07-04T13:58:29Z</time>
      </trkpt>
      <trkpt lat="49.667204031720757" lon="-1.718677980825305">
        <ele>37.630000000000003</ele>
        <time>2018-07-04T13:58:30Z</time>
      </trkpt>
      <trkpt lat="49.667209982872009" lon="-1.718807984143496">
        <ele>38.590000000000003</ele>
        <time>2018-07-04T13:58:31Z</time>
      </trkpt>
      <trkpt lat="49.667207971215248" lon="-1.718959026038647">
        <ele>39.549999999999997</ele>
        <time>2018-07-04T13:58:32Z</time>
      </trkpt>
      <trkpt lat="49.667166983708739" lon="-1.719094980508089">
        <ele>40.509999999999998</ele>
        <time>2018-07-04T13:58:33Z</time>
      </trkpt>
      <trkpt lat="49.667123984545469" lon="-1.719241999089718">
        <ele>40.990000000000002</ele>
        <time>2018-07-04T13:58:34Z</time>
      </trkpt>
      <trkpt lat="49.667078973725438" lon="-1.719393040984869">
        <ele>41.950000000000003</ele>
        <time>2018-07-04T13:58:35Z</time>
      </trkpt>
      <trkpt lat="49.666812010109425" lon="-1.720361988991499">
        <ele>47.719999999999999</ele>
        <time>2018-07-04T13:58:41Z</time>
      </trkpt>
      <trkpt lat="49.666721988469362" lon="-1.720861969515681">
        <ele>50.130000000000003</ele>
        <time>2018-07-04T13:58:44Z</time>
      </trkpt>
      <trkpt lat="49.666645964607596" lon="-1.721562026068568">
        <ele>54.450000000000003</ele>
        <time>2018-07-04T13:58:48Z</time>
      </trkpt>
      <trkpt lat="49.666550997644663" lon="-1.723150983452797">
        <ele>64.069999999999993</ele>
        <time>2018-07-04T13:58:56Z</time>
      </trkpt>
      <trkpt lat="49.666550997644663" lon="-1.72337201423943">
        <ele>65.510000000000005</ele>
        <time>2018-07-04T13:58:57Z</time>
      </trkpt>
      <trkpt lat="49.666807986795902" lon="-1.725645018741489">
        <ele>72.719999999999999</ele>
        <time>2018-07-04T13:59:07Z</time>
      </trkpt>
      <trkpt lat="49.666807986795902" lon="-1.725858002901077">
        <ele>73.200000000000003</ele>
        <time>2018-07-04T13:59:08Z</time>
      </trkpt>
      <trkpt lat="49.666807986795902" lon="-1.726076016202569">
        <ele>73.200000000000003</ele>
        <time>2018-07-04T13:59:09Z</time>
      </trkpt>
      <trkpt lat="49.666648982092738" lon="-1.728159002959728">
        <ele>74.640000000000001</ele>
        <time>2018-07-04T13:59:18Z</time>
      </trkpt>
      <trkpt lat="49.666556026786566" lon="-1.729191988706589">
        <ele>77.519999999999996</ele>
        <time>2018-07-04T13:59:22Z</time>
      </trkpt>
      <trkpt lat="49.666550997644663" lon="-1.729445038363338">
        <ele>78.480000000000004</ele>
        <time>2018-07-04T13:59:23Z</time>
      </trkpt>
      <trkpt lat="49.666451001539826" lon="-1.731152012944222">
        <ele>86.180000000000007</ele>
        <time>2018-07-04T13:59:30Z</time>
      </trkpt>
      <trkpt lat="49.666111031547189" lon="-1.733268024399877">
        <ele>93.390000000000001</ele>
        <time>2018-07-04T13:59:40Z</time>
      </trkpt>
      <trkpt lat="49.66596401296556" lon="-1.734031029045582">
        <ele>97.230000000000004</ele>
        <time>2018-07-04T13:59:44Z</time>
      </trkpt>
      <trkpt lat="49.665925037115812" lon="-1.734210988506675">
        <ele>98.670000000000002</ele>
        <time>2018-07-04T13:59:45Z</time>
      </trkpt>
      <trkpt lat="49.665885977447033" lon="-1.734374016523361">
        <ele>100.11</ele>
        <time>2018-07-04T13:59:46Z</time>
      </trkpt>
      <trkpt lat="49.665699983015656" lon="-1.735260989516974">
        <ele>103.95999999999999</ele>
        <time>2018-07-04T13:59:53Z</time>
      </trkpt>
      <trkpt lat="49.665682967752218" lon="-1.735350005328655">
        <ele>104.44</ele>
        <time>2018-07-04T13:59:54Z</time>
      </trkpt>
      <trkpt lat="49.665670981630683" lon="-1.735411025583744">
        <ele>104.44</ele>
        <time>2018-07-04T13:59:55Z</time>
      </trkpt>
      <trkpt lat="49.665593029931188" lon="-1.735488977283239">
        <ele>104.92</ele>
        <time>2018-07-04T13:59:56Z</time>
      </trkpt>
      <trkpt lat="49.665498984977603" lon="-1.735582016408444">
        <ele>104.92</ele>
        <time>2018-07-04T13:59:57Z</time>
      </trkpt>
      <trkpt lat="49.665436036884785" lon="-1.735620992258191">
        <ele>104.44</ele>
        <time>2018-07-04T13:59:58Z</time>
      </trkpt>
      <trkpt lat="49.664578987285495" lon="-1.736139999702573">
        <ele>103</ele>
        <time>2018-07-04T14:00:05Z</time>
      </trkpt>
      <trkpt lat="49.664076995104551" lon="-1.73647603020072">
        <ele>102.04000000000001</ele>
        <time>2018-07-04T14:00:09Z</time>
      </trkpt>
      <trkpt lat="49.663959983736277" lon="-1.736578959971666">
        <ele>102.04000000000001</ele>
        <time>2018-07-04T14:00:10Z</time>
      </trkpt>
      <trkpt lat="49.663012996315956" lon="-1.737834988161922">
        <ele>103.95999999999999</ele>
        <time>2018-07-04T14:00:20Z</time>
      </trkpt>
      <trkpt lat="49.662915011867881" lon="-1.737943030893803">
        <ele>103.48</ele>
        <time>2018-07-04T14:00:21Z</time>
      </trkpt>
      <trkpt lat="49.662101967260242" lon="-1.738610984757543">
        <ele>100.59999999999999</ele>
        <time>2018-07-04T14:00:29Z</time>
      </trkpt>
      <trkpt lat="49.661855036392808" lon="-1.738880965858698">
        <ele>100.11</ele>
        <time>2018-07-04T14:00:32Z</time>
      </trkpt>
      <trkpt lat="49.66177498921752" lon="-1.738982973620296">
        <ele>100.11</ele>
        <time>2018-07-04T14:00:33Z</time>
      </trkpt>
      <trkpt lat="49.66170902363956" lon="-1.739097973331809">
        <ele>100.59999999999999</ele>
        <time>2018-07-04T14:00:34Z</time>
      </trkpt>
      <trkpt lat="49.661640962585807" lon="-1.739223031327128">
        <ele>100.59999999999999</ele>
        <time>2018-07-04T14:00:35Z</time>
      </trkpt>
      <trkpt lat="49.661591006442904" lon="-1.739359991624951">
        <ele>100.59999999999999</ele>
        <time>2018-07-04T14:00:36Z</time>
      </trkpt>
      <trkpt lat="49.66154096648097" lon="-1.739502986893058">
        <ele>100.59999999999999</ele>
        <time>2018-07-04T14:00:37Z</time>
      </trkpt>
      <trkpt lat="49.661496039479971" lon="-1.739647993817926">
        <ele>100.11</ele>
        <time>2018-07-04T14:00:38Z</time>
      </trkpt>
      <trkpt lat="49.661457985639572" lon="-1.73980800434947">
        <ele>99.629999999999995</ele>
        <time>2018-07-04T14:00:39Z</time>
      </trkpt>
      <trkpt lat="49.661304010078311" lon="-1.740427007898688">
        <ele>98.189999999999998</ele>
        <time>2018-07-04T14:00:43Z</time>
      </trkpt>
      <trkpt lat="49.661263022571802" lon="-1.740557011216879">
        <ele>97.230000000000004</ele>
        <time>2018-07-04T14:00:44Z</time>
      </trkpt>
      <trkpt lat="49.66072297655046" lon="-1.741992998868227">
        <ele>97.709999999999994</ele>
        <time>2018-07-04T14:00:54Z</time>
      </trkpt>
      <trkpt lat="49.660506974905729" lon="-1.742433970794082">
        <ele>99.629999999999995</ele>
        <time>2018-07-04T14:00:57Z</time>
      </trkpt>
      <trkpt lat="49.65988595969975" lon="-1.743723023682833">
        <ele>105.40000000000001</ele>
        <time>2018-07-04T14:01:07Z</time>
      </trkpt>
      <trkpt lat="49.659866010770202" lon="-1.743836011737585">
        <ele>105.88</ele>
        <time>2018-07-04T14:01:08Z</time>
      </trkpt>
      <trkpt lat="49.659847989678383" lon="-1.743940031155944">
        <ele>106.36</ele>
        <time>2018-07-04T14:01:09Z</time>
      </trkpt>
      <trkpt lat="49.659833991900086" lon="-1.744014965370297">
        <ele>106.36</ele>
        <time>2018-07-04T14:01:10Z</time>
      </trkpt>
      <trkpt lat="49.659871961921453" lon="-1.744109010323882">
        <ele>106.84</ele>
        <time>2018-07-04T14:01:11Z</time>
      </trkpt>
      <trkpt lat="49.659900963306427" lon="-1.744182016700506">
        <ele>107.31999999999999</ele>
        <time>2018-07-04T14:01:12Z</time>
      </trkpt>
      <trkpt lat="49.65992703102529" lon="-1.744240019470453">
        <ele>107.81</ele>
        <time>2018-07-04T14:01:13Z</time>
      </trkpt>
      <trkpt lat="49.659961983561516" lon="-1.744288969784975">
        <ele>107.81</ele>
        <time>2018-07-04T14:01:14Z</time>
      </trkpt>
      <trkpt lat="49.659959971904755" lon="-1.744430959224701">
        <ele>108.29000000000001</ele>
        <time>2018-07-04T14:01:15Z</time>
      </trkpt>
      <trkpt lat="49.65992703102529" lon="-1.744455015286803">
        <ele>108.29000000000001</ele>
        <time>2018-07-04T14:01:16Z</time>
      </trkpt>
      <trkpt lat="49.659873973578215" lon="-1.744494996964932">
        <ele>108.77</ele>
        <time>2018-07-04T14:01:17Z</time>
      </trkpt>
      <trkpt lat="49.659808008000255" lon="-1.744545036926866">
        <ele>108.77</ele>
        <time>2018-07-04T14:01:18Z</time>
      </trkpt>
      <trkpt lat="49.659738019108772" lon="-1.744615025818348">
        <ele>108.77</ele>
        <time>2018-07-04T14:01:19Z</time>
      </trkpt>
      <trkpt lat="49.659666018560529" lon="-1.74470697529614">
        <ele>109.25</ele>
        <time>2018-07-04T14:01:20Z</time>
      </trkpt>
      <trkpt lat="49.659583037719131" lon="-1.74481401219964">
        <ele>109.73</ele>
        <time>2018-07-04T14:01:21Z</time>
      </trkpt>
      <trkpt lat="49.658520966768265" lon="-1.746121002361178">
        <ele>114.53</ele>
        <time>2018-07-04T14:01:33Z</time>
      </trkpt>
      <trkpt lat="49.658438991755247" lon="-1.746240025386214">
        <ele>114.53</ele>
        <time>2018-07-04T14:01:34Z</time>
      </trkpt>
      <trkpt lat="49.658359028398991" lon="-1.746357036754489">
        <ele>115.01000000000001</ele>
        <time>2018-07-04T14:01:35Z</time>
      </trkpt>
      <trkpt lat="49.658280992880464" lon="-1.746473964303732">
        <ele>115.5</ele>
        <time>2018-07-04T14:01:36Z</time>
      </trkpt>
      <trkpt lat="49.658204969018698" lon="-1.746587958186865">
        <ele>115.5</ele>
        <time>2018-07-04T14:01:37Z</time>
      </trkpt>
      <trkpt lat="49.657393014058471" lon="-1.747463028877974">
        <ele>117.42</ele>
        <time>2018-07-04T14:01:45Z</time>
      </trkpt>
      <trkpt lat="49.65681198053062" lon="-1.748333992436528">
        <ele>117.90000000000001</ele>
        <time>2018-07-04T14:01:50Z</time>
      </trkpt>
      <trkpt lat="49.655795004218817" lon="-1.750040967017412">
        <ele>120.3</ele>
        <time>2018-07-04T14:01:59Z</time>
      </trkpt>
      <trkpt lat="49.655293012037873" lon="-1.750671034678817">
        <ele>121.73999999999999</ele>
        <time>2018-07-04T14:02:04Z</time>
      </trkpt>
      <trkpt lat="49.65416899882257" lon="-1.751784989610314">
        <ele>125.59</ele>
        <time>2018-07-04T14:02:13Z</time>
      </trkpt>
      <trkpt lat="49.652925040572882" lon="-1.753305969759822">
        <ele>131.84</ele>
        <time>2018-07-04T14:02:22Z</time>
      </trkpt>
      <trkpt lat="49.652757989242673" lon="-1.753668989986181">
        <ele>132.31999999999999</ele>
        <time>2018-07-04T14:02:24Z</time>
      </trkpt>
      <trkpt lat="49.652680959552526" lon="-1.75383503548801">
        <ele>132.31999999999999</ele>
        <time>2018-07-04T14:02:25Z</time>
      </trkpt>
      <trkpt lat="49.652566965669394" lon="-1.754082972183824">
        <ele>132.31999999999999</ele>
        <time>2018-07-04T14:02:27Z</time>
      </trkpt>
      <trkpt lat="49.652528995648026" lon="-1.754166958853602">
        <ele>132.31999999999999</ele>
        <time>2018-07-04T14:02:28Z</time>
      </trkpt>
      <trkpt lat="49.652404021471739" lon="-1.754471976310015">
        <ele>131.36000000000001</ele>
        <time>2018-07-04T14:02:36Z</time>
      </trkpt>
      <trkpt lat="49.652222972363234" lon="-1.754827033728361">
        <ele>131.36000000000001</ele>
        <time>2018-07-04T14:02:42Z</time>
      </trkpt>
      <trkpt lat="49.651622995734215" lon="-1.75579103641212">
        <ele>131.84</ele>
        <time>2018-07-04T14:02:50Z</time>
      </trkpt>
      <trkpt lat="49.650567965582013" lon="-1.757116969674826">
        <ele>137.61000000000001</ele>
        <time>2018-07-04T14:03:00Z</time>
      </trkpt>
      <trkpt lat="49.649694990366697" lon="-1.758337961509824">
        <ele>140.00999999999999</ele>
        <time>2018-07-04T14:03:07Z</time>
      </trkpt>
      <trkpt lat="49.648590004071593" lon="-1.759406989440322">
        <ele>142.41</ele>
        <time>2018-07-04T14:03:14Z</time>
      </trkpt>
      <trkpt lat="49.648378025740385" lon="-1.759640006348491">
        <ele>143.37</ele>
        <time>2018-07-04T14:03:16Z</time>
      </trkpt>
      <trkpt lat="49.648300996050239" lon="-1.759816026315093">
        <ele>143.84999999999999</ele>
        <time>2018-07-04T14:03:17Z</time>
      </trkpt>
      <trkpt lat="49.648222038522363" lon="-1.760001014918089">
        <ele>144.34</ele>
        <time>2018-07-04T14:03:18Z</time>
      </trkpt>
      <trkpt lat="49.647355014458299" lon="-1.761971013620496">
        <ele>150.09999999999999</ele>
        <time>2018-07-04T14:03:27Z</time>
      </trkpt>
      <trkpt lat="49.646624028682709" lon="-1.763657033443451">
        <ele>152.03</ele>
        <time>2018-07-04T14:03:35Z</time>
      </trkpt>
      <trkpt lat="49.646281041204929" lon="-1.764503018930554">
        <ele>152.03</ele>
        <time>2018-07-04T14:03:40Z</time>
      </trkpt>
      <trkpt lat="49.646209040656686" lon="-1.764679038897157">
        <ele>151.53999999999999</ele>
        <time>2018-07-04T14:03:41Z</time>
      </trkpt>
      <trkpt lat="49.646124970167875" lon="-1.764789009466767">
        <ele>151.53999999999999</ele>
        <time>2018-07-04T14:03:42Z</time>
      </trkpt>
      <trkpt lat="49.645771002396941" lon="-1.765207014977932">
        <ele>151.06</ele>
        <time>2018-07-04T14:03:46Z</time>
      </trkpt>
      <trkpt lat="49.645652985200286" lon="-1.765301981940866">
        <ele>151.06</ele>
        <time>2018-07-04T14:03:48Z</time>
      </trkpt>
      <trkpt lat="49.645611997693777" lon="-1.765335006639361">
        <ele>151.06</ele>
        <time>2018-07-04T14:03:49Z</time>
      </trkpt>
      <trkpt lat="49.645522981882095" lon="-1.765427961945534">
        <ele>151.06</ele>
        <time>2018-07-04T14:03:50Z</time>
      </trkpt>
      <trkpt lat="49.645523987710476" lon="-1.76548202522099">
        <ele>151.06</ele>
        <time>2018-07-04T14:03:51Z</time>
      </trkpt>
      <trkpt lat="49.645527005195618" lon="-1.765566011890769">
        <ele>151.06</ele>
        <time>2018-07-04T14:03:52Z</time>
      </trkpt>
      <trkpt lat="49.645530022680759" lon="-1.765686040744185">
        <ele>151.53999999999999</ele>
        <time>2018-07-04T14:03:53Z</time>
      </trkpt>
      <trkpt lat="49.64553396217525" lon="-1.765820989385247">
        <ele>151.53999999999999</ele>
        <time>2018-07-04T14:03:54Z</time>
      </trkpt>
      <trkpt lat="49.645537985488772" lon="-1.765978988260031">
        <ele>151.53999999999999</ele>
        <time>2018-07-04T14:03:55Z</time>
      </trkpt>
      <trkpt lat="49.645585007965565" lon="-1.767676994204521">
        <ele>152.50999999999999</ele>
        <time>2018-07-04T14:04:03Z</time>
      </trkpt>
      <trkpt lat="49.645637981593609" lon="-1.769664008170366">
        <ele>154.91</ele>
        <time>2018-07-04T14:04:10Z</time>
      </trkpt>
      <trkpt lat="49.64566002599895" lon="-1.770779974758625">
        <ele>154.91</ele>
        <time>2018-07-04T14:04:15Z</time>
      </trkpt>
      <trkpt lat="49.645637981593609" lon="-1.770926993340254">
        <ele>154.43000000000001</ele>
        <time>2018-07-04T14:04:16Z</time>
      </trkpt>
      <trkpt lat="49.645578972995281" lon="-1.77104601636529">
        <ele>154.43000000000001</ele>
        <time>2018-07-04T14:04:17Z</time>
      </trkpt>
      <trkpt lat="49.645521976053715" lon="-1.771159004420042">
        <ele>153.94999999999999</ele>
        <time>2018-07-04T14:04:18Z</time>
      </trkpt>
      <trkpt lat="49.645438995212317" lon="-1.771190017461777">
        <ele>153.47</ele>
        <time>2018-07-04T14:04:19Z</time>
      </trkpt>
      <trkpt lat="49.645350985229015" lon="-1.771223964169622">
        <ele>152.99000000000001</ele>
        <time>2018-07-04T14:04:20Z</time>
      </trkpt>
      <trkpt lat="49.645260041579604" lon="-1.771200997754931">
        <ele>152.50999999999999</ele>
        <time>2018-07-04T14:04:21Z</time>
      </trkpt>
      <trkpt lat="49.645155016332865" lon="-1.7711750138551">
        <ele>152.03</ele>
        <time>2018-07-04T14:04:22Z</time>
      </trkpt>
      <trkpt lat="49.645045967772603" lon="-1.771141989156604">
        <ele>151.53999999999999</ele>
        <time>2018-07-04T14:04:23Z</time>
      </trkpt>
      <trkpt lat="49.644834995269775" lon="-1.771079963073134">
        <ele>151.06</ele>
        <time>2018-07-04T14:04:25Z</time>
      </trkpt>
      <trkpt lat="49.644740028306842" lon="-1.771108964458108">
        <ele>150.09999999999999</ele>
        <time>2018-07-04T14:04:26Z</time>
      </trkpt>
      <trkpt lat="49.644668027758598" lon="-1.771130003035069">
        <ele>149.62</ele>
        <time>2018-07-04T14:04:27Z</time>
      </trkpt>
      <trkpt lat="49.644641960039735" lon="-1.771137965843082">
        <ele>149.13999999999999</ele>
        <time>2018-07-04T14:04:28Z</time>
      </trkpt>
      <trkpt lat="49.64463097974658" lon="-1.771234022453427">
        <ele>148.66</ele>
        <time>2018-07-04T14:04:29Z</time>
      </trkpt>
      <trkpt lat="49.644624022766948" lon="-1.771295964717865">
        <ele>148.18000000000001</ele>
        <time>2018-07-04T14:04:30Z</time>
      </trkpt>
      <trkpt lat="49.644613964483142" lon="-1.771381041035056">
        <ele>148.18000000000001</ele>
        <time>2018-07-04T14:04:31Z</time>
      </trkpt>
      <trkpt lat="49.644600972533226" lon="-1.77149604074657">
        <ele>147.69999999999999</ele>
        <time>2018-07-04T14:04:32Z</time>
      </trkpt>
      <trkpt lat="49.644584963098168" lon="-1.771631995216012">
        <ele>147.69999999999999</ele>
        <time>2018-07-04T14:04:33Z</time>
      </trkpt>
      <trkpt lat="49.644583035260439" lon="-1.771783959120512">
        <ele>148.18000000000001</ele>
        <time>2018-07-04T14:04:34Z</time>
      </trkpt>
      <trkpt lat="49.644592003896832" lon="-1.771966014057398">
        <ele>149.13999999999999</ele>
        <time>2018-07-04T14:04:35Z</time>
      </trkpt>
      <trkpt lat="49.644659981131554" lon="-1.773300999775529">
        <ele>155.38999999999999</ele>
        <time>2018-07-04T14:04:41Z</time>
      </trkpt>
      <trkpt lat="49.645236991345882" lon="-1.7754300031811">
        <ele>156.83000000000001</ele>
        <time>2018-07-04T14:04:49Z</time>
      </trkpt>
      <trkpt lat="49.646142991259694" lon="-1.77835101261735">
        <ele>152.03</ele>
        <time>2018-07-04T14:04:59Z</time>
      </trkpt>
      <trkpt lat="49.647201038897038" lon="-1.781764961779118">
        <ele>150.58000000000001</ele>
        <time>2018-07-04T14:05:10Z</time>
      </trkpt>
      <trkpt lat="49.648273000493646" lon="-1.785241020843387">
        <ele>148.18000000000001</ele>
        <time>2018-07-04T14:05:21Z</time>
      </trkpt>
      <trkpt lat="49.649925995618105" lon="-1.790562020614743">
        <ele>151.06</ele>
        <time>2018-07-04T14:05:38Z</time>
      </trkpt>
      <trkpt lat="49.650723030790687" lon="-1.793122021481395">
        <ele>158.75</ele>
        <time>2018-07-04T14:05:47Z</time>
      </trkpt>
      <trkpt lat="49.651063000783324" lon="-1.793838003650308">
        <ele>159.72</ele>
        <time>2018-07-04T14:05:52Z</time>
      </trkpt>
      <trkpt lat="49.651123015210032" lon="-1.793902963399887">
        <ele>160.19999999999999</ele>
        <time>2018-07-04T14:05:53Z</time>
      </trkpt>
      <trkpt lat="49.651167020201683" lon="-1.793920984491706">
        <ele>160.19999999999999</ele>
        <time>2018-07-04T14:05:54Z</time>
      </trkpt>
      <trkpt lat="49.651229968294501" lon="-1.793905980885029">
        <ele>160.68000000000001</ele>
        <time>2018-07-04T14:05:55Z</time>
      </trkpt>
      <trkpt lat="49.651294006034732" lon="-1.793890977278352">
        <ele>160.68000000000001</ele>
        <time>2018-07-04T14:05:56Z</time>
      </trkpt>
      <trkpt lat="49.651356032118201" lon="-1.793876979500055">
        <ele>161.16</ele>
        <time>2018-07-04T14:05:57Z</time>
      </trkpt>
      <trkpt lat="49.651406994089484" lon="-1.79386499337852">
        <ele>161.16</ele>
        <time>2018-07-04T14:05:58Z</time>
      </trkpt>
      <trkpt lat="49.651446975767612" lon="-1.79386499337852">
        <ele>161.63999999999999</ele>
        <time>2018-07-04T14:05:59Z</time>
      </trkpt>
      <trkpt lat="49.651472037658095" lon="-1.793869016692042">
        <ele>161.63999999999999</ele>
        <time>2018-07-04T14:06:00Z</time>
      </trkpt>
      <trkpt lat="49.651552001014352" lon="-1.793889971449971">
        <ele>162.12</ele>
        <time>2018-07-04T14:06:01Z</time>
      </trkpt>
      <trkpt lat="49.651552001014352" lon="-1.793918972834945">
        <ele>162.12</ele>
        <time>2018-07-04T14:06:02Z</time>
      </trkpt>
      <trkpt lat="49.651552001014352" lon="-1.793975969776511">
        <ele>162.12</ele>
        <time>2018-07-04T14:06:03Z</time>
      </trkpt>
      <trkpt lat="49.651552001014352" lon="-1.794061968103051">
        <ele>162.12</ele>
        <time>2018-07-04T14:06:04Z</time>
      </trkpt>
      <trkpt lat="49.651562981307507" lon="-1.794162970036268">
        <ele>162.12</ele>
        <time>2018-07-04T14:06:05Z</time>
      </trkpt>
      <trkpt lat="49.651596006006002" lon="-1.794284004718065">
        <ele>162.12</ele>
        <time>2018-07-04T14:06:06Z</time>
      </trkpt>
      <trkpt lat="49.651637999340892" lon="-1.794440997764468">
        <ele>161.63999999999999</ele>
        <time>2018-07-04T14:06:07Z</time>
      </trkpt>
      <trkpt lat="49.652255997061729" lon="-1.795961977913976">
        <ele>160.19999999999999</ele>
        <time>2018-07-04T14:06:16Z</time>
      </trkpt>
      <trkpt lat="49.653139030560851" lon="-1.798244034871459">
        <ele>164.03999999999999</ele>
        <time>2018-07-04T14:06:26Z</time>
      </trkpt>
      <trkpt lat="49.65397696942091" lon="-1.800586022436619">
        <ele>168.37</ele>
        <time>2018-07-04T14:06:35Z</time>
      </trkpt>
      <trkpt lat="49.654260026291013" lon="-1.801366964355111">
        <ele>168.84999999999999</ele>
        <time>2018-07-04T14:06:39Z</time>
      </trkpt>
      <trkpt lat="49.654277041554451" lon="-1.801515994593501">
        <ele>168.84999999999999</ele>
        <time>2018-07-04T14:06:40Z</time>
      </trkpt>
      <trkpt lat="49.654277041554451" lon="-1.801657984033227">
        <ele>168.84999999999999</ele>
        <time>2018-07-04T14:06:41Z</time>
      </trkpt>
      <trkpt lat="49.654277041554451" lon="-1.801757980138063">
        <ele>168.37</ele>
        <time>2018-07-04T14:06:42Z</time>
      </trkpt>
      <trkpt lat="49.65421300381422" lon="-1.801856970414519">
        <ele>168.37</ele>
        <time>2018-07-04T14:06:43Z</time>
      </trkpt>
      <trkpt lat="49.654152989387512" lon="-1.801950009539723">
        <ele>167.88999999999999</ele>
        <time>2018-07-04T14:06:44Z</time>
      </trkpt>
      <trkpt lat="49.654090963304043" lon="-1.802047993987799">
        <ele>167.41</ele>
        <time>2018-07-04T14:06:45Z</time>
      </trkpt>
      <trkpt lat="49.65408400632441" lon="-1.802057968452573">
        <ele>166.93000000000001</ele>
        <time>2018-07-04T14:06:46Z</time>
      </trkpt>
      <trkpt lat="49.653992978855968" lon="-1.802295008674264">
        <ele>166.44999999999999</ele>
        <time>2018-07-04T14:06:47Z</time>
      </trkpt>
      <trkpt lat="49.654006976634264" lon="-1.802427023649216">
        <ele>166.44999999999999</ele>
        <time>2018-07-04T14:06:48Z</time>
      </trkpt>
      <trkpt lat="49.654023991897702" lon="-1.802588040009141">
        <ele>166.44999999999999</ele>
        <time>2018-07-04T14:06:49Z</time>
      </trkpt>
      <trkpt lat="49.654045030474663" lon="-1.802779985591769">
        <ele>166.93000000000001</ele>
        <time>2018-07-04T14:06:50Z</time>
      </trkpt>
      <trkpt lat="49.654263965785503" lon="-1.804377995431423">
        <ele>168.84999999999999</ele>
        <time>2018-07-04T14:06:56Z</time>
      </trkpt>
      <trkpt lat="49.655271973460913" lon="-1.807642998173833">
        <ele>164.03999999999999</ele>
        <time>2018-07-04T14:07:06Z</time>
      </trkpt>
      <trkpt lat="49.656090969219804" lon="-1.810202999040484">
        <ele>164.52000000000001</ele>
        <time>2018-07-04T14:07:15Z</time>
      </trkpt>
      <trkpt lat="49.656996969133615" lon="-1.813102969899774">
        <ele>166.44999999999999</ele>
        <time>2018-07-04T14:07:29Z</time>
      </trkpt>
      <trkpt lat="49.657401982694864" lon="-1.814638031646609">
        <ele>166.44999999999999</ele>
        <time>2018-07-04T14:07:38Z</time>
      </trkpt>
      <trkpt lat="49.657646985724568" lon="-1.815260974690318">
        <ele>166.93000000000001</ele>
        <time>2018-07-04T14:07:44Z</time>
      </trkpt>
      <trkpt lat="49.657667018473148" lon="-1.815318977460265">
        <ele>167.41</ele>
        <time>2018-07-04T14:07:45Z</time>
      </trkpt>
      <trkpt lat="49.657698031514883" lon="-1.815361976623535">
        <ele>167.41</ele>
        <time>2018-07-04T14:07:46Z</time>
      </trkpt>
      <trkpt lat="49.65773600153625" lon="-1.81541302241385">
        <ele>167.41</ele>
        <time>2018-07-04T14:07:47Z</time>
      </trkpt>
      <trkpt lat="49.657772965729237" lon="-1.815464990213513">
        <ele>167.41</ele>
        <time>2018-07-04T14:07:48Z</time>
      </trkpt>
      <trkpt lat="49.657839015126228" lon="-1.815555011853576">
        <ele>167.41</ele>
        <time>2018-07-04T14:07:49Z</time>
      </trkpt>
      <trkpt lat="49.657861981540918" lon="-1.815547971054912">
        <ele>167.41</ele>
        <time>2018-07-04T14:07:50Z</time>
      </trkpt>
      <trkpt lat="49.657918978482485" lon="-1.815528022125363">
        <ele>167.41</ele>
        <time>2018-07-04T14:07:51Z</time>
      </trkpt>
      <trkpt lat="49.657972035929561" lon="-1.815511006861925">
        <ele>167.41</ele>
        <time>2018-07-04T14:07:52Z</time>
      </trkpt>
      <trkpt lat="49.658031966537237" lon="-1.815490974113345">
        <ele>167.41</ele>
        <time>2018-07-04T14:07:53Z</time>
      </trkpt>
      <trkpt lat="49.658070020377636" lon="-1.815513018518686">
        <ele>167.41</ele>
        <time>2018-07-04T14:07:54Z</time>
      </trkpt>
      <trkpt lat="49.658105978742242" lon="-1.815534979104996">
        <ele>167.41</ele>
        <time>2018-07-04T14:07:55Z</time>
      </trkpt>
      <trkpt lat="49.658139003440738" lon="-1.815555011853576">
        <ele>167.41</ele>
        <time>2018-07-04T14:07:56Z</time>
      </trkpt>
      <trkpt lat="49.658159958198667" lon="-1.815612008795142">
        <ele>166.93000000000001</ele>
        <time>2018-07-04T14:07:57Z</time>
      </trkpt>
      <trkpt lat="49.658174039795995" lon="-1.815648972988129">
        <ele>166.93000000000001</ele>
        <time>2018-07-04T14:07:58Z</time>
      </trkpt>
      <trkpt lat="49.658307982608676" lon="-1.815749974921346">
        <ele>165.96000000000001</ele>
        <time>2018-07-04T14:08:02Z</time>
      </trkpt>
      <trkpt lat="49.658348970115185" lon="-1.815729020163417">
        <ele>165.96000000000001</ele>
        <time>2018-07-04T14:08:03Z</time>
      </trkpt>
      <trkpt lat="49.658396998420358" lon="-1.815704964101315">
        <ele>165.47999999999999</ele>
        <time>2018-07-04T14:08:04Z</time>
      </trkpt>
      <trkpt lat="49.658446032553911" lon="-1.815695995464921">
        <ele>165</ele>
        <time>2018-07-04T14:08:05Z</time>
      </trkpt>
      <trkpt lat="49.65850998647511" lon="-1.815683003515005">
        <ele>165</ele>
        <time>2018-07-04T14:08:06Z</time>
      </trkpt>
      <trkpt lat="49.658588021993637" lon="-1.815666994079948">
        <ele>164.52000000000001</ele>
        <time>2018-07-04T14:08:07Z</time>
      </trkpt>
      <trkpt lat="49.658778039738536" lon="-1.815644027665258">
        <ele>163.56</ele>
        <time>2018-07-04T14:08:09Z</time>
      </trkpt>
      <trkpt lat="49.659759979695082" lon="-1.815689960494638">
        <ele>158.75</ele>
        <time>2018-07-04T14:08:16Z</time>
      </trkpt>
      <trkpt lat="49.660436986014247" lon="-1.815799009054899">
        <ele>154.91</ele>
        <time>2018-07-04T14:08:20Z</time>
      </trkpt>
      <trkpt lat="49.662112025544047" lon="-1.816281974315643">
        <ele>147.69999999999999</ele>
        <time>2018-07-04T14:08:29Z</time>
      </trkpt>
      <trkpt lat="49.66284996829927" lon="-1.816427987068892">
        <ele>145.30000000000001</ele>
        <time>2018-07-04T14:08:33Z</time>
      </trkpt>
      <trkpt lat="49.663018025457859" lon="-1.81642203591764">
        <ele>144.81999999999999</ele>
        <time>2018-07-04T14:08:34Z</time>
      </trkpt>
      <trkpt lat="49.663178035989404" lon="-1.81637903675437">
        <ele>144.81999999999999</ele>
        <time>2018-07-04T14:08:35Z</time>
      </trkpt>
      <trkpt lat="49.663337962701917" lon="-1.816319022327662">
        <ele>144.34</ele>
        <time>2018-07-04T14:08:36Z</time>
      </trkpt>
      <trkpt lat="49.66349302791059" lon="-1.816220032051206">
        <ele>144.81999999999999</ele>
        <time>2018-07-04T14:08:37Z</time>
      </trkpt>
      <trkpt lat="49.665247024968266" lon="-1.815114039927721">
        <ele>151.06</ele>
        <time>2018-07-04T14:08:47Z</time>
      </trkpt>
      <trkpt lat="49.667699988931417" lon="-1.813542013987899">
        <ele>156.83000000000001</ele>
        <time>2018-07-04T14:08:59Z</time>
      </trkpt>
      <trkpt lat="49.6697679720819" lon="-1.812215996906161">
        <ele>155.38999999999999</ele>
        <time>2018-07-04T14:09:10Z</time>
      </trkpt>
      <trkpt lat="49.67116397805512" lon="-1.811320977285504">
        <ele>158.75</ele>
        <time>2018-07-04T14:09:19Z</time>
      </trkpt>
      <trkpt lat="49.671918014064431" lon="-1.810931973159313">
        <ele>158.27000000000001</ele>
        <time>2018-07-04T14:09:26Z</time>
      </trkpt>
      <trkpt lat="49.672011975198984" lon="-1.810955023393035">
        <ele>157.31</ele>
        <time>2018-07-04T14:09:30Z</time>
      </trkpt>
      <trkpt lat="49.672027984634042" lon="-1.810991987586021">
        <ele>157.31</ele>
        <time>2018-07-04T14:09:31Z</time>
      </trkpt>
      <trkpt lat="49.672006024047732" lon="-1.81103004142642">
        <ele>157.31</ele>
        <time>2018-07-04T14:09:32Z</time>
      </trkpt>
      <trkpt lat="49.671968976035714" lon="-1.811093995347619">
        <ele>156.83000000000001</ele>
        <time>2018-07-04T14:09:33Z</time>
      </trkpt>
      <trkpt lat="49.671921031549573" lon="-1.811176976189017">
        <ele>156.83000000000001</ele>
        <time>2018-07-04T14:09:34Z</time>
      </trkpt>
      <trkpt lat="49.671865040436387" lon="-1.811274960637093">
        <ele>156.34999999999999</ele>
        <time>2018-07-04T14:09:35Z</time>
      </trkpt>
      <trkpt lat="49.671262968331575" lon="-1.812323033809662">
        <ele>156.83000000000001</ele>
        <time>2018-07-04T14:09:42Z</time>
      </trkpt>
      <trkpt lat="49.670336013659835" lon="-1.814178032800555">
        <ele>152.99000000000001</ele>
        <time>2018-07-04T14:09:51Z</time>
      </trkpt>
      <trkpt lat="49.669658001512289" lon="-1.815993972122669">
        <ele>143.84999999999999</ele>
        <time>2018-07-04T14:09:59Z</time>
      </trkpt>
      <trkpt lat="49.669609973207116" lon="-1.816202010959387">
        <ele>142.88999999999999</ele>
        <time>2018-07-04T14:10:00Z</time>
      </trkpt>
      <trkpt lat="49.669579965993762" lon="-1.816419018432498">
        <ele>141.93000000000001</ele>
        <time>2018-07-04T14:10:01Z</time>
      </trkpt>
      <trkpt lat="49.669591030105948" lon="-1.816627979278565">
        <ele>140.49000000000001</ele>
        <time>2018-07-04T14:10:02Z</time>
      </trkpt>
      <trkpt lat="49.669612990692258" lon="-1.816843980923295">
        <ele>139.53</ele>
        <time>2018-07-04T14:10:03Z</time>
      </trkpt>
      <trkpt lat="49.669650960713625" lon="-1.817064005881548">
        <ele>138.56999999999999</ele>
        <time>2018-07-04T14:10:04Z</time>
      </trkpt>
      <trkpt lat="49.669691026210785" lon="-1.817298028618097">
        <ele>137.61000000000001</ele>
        <time>2018-07-04T14:10:05Z</time>
      </trkpt>
      <trkpt lat="49.669759003445506" lon="-1.817539008334279">
        <ele>136.63999999999999</ele>
        <time>2018-07-04T14:10:06Z</time>
      </trkpt>
      <trkpt lat="49.669838966801763" lon="-1.817774958908558">
        <ele>135.68000000000001</ele>
        <time>2018-07-04T14:10:07Z</time>
      </trkpt>
      <trkpt lat="49.670313969254494" lon="-1.819255035370588">
        <ele>129.43000000000001</ele>
        <time>2018-07-04T14:10:13Z</time>
      </trkpt>
      <trkpt lat="49.670401979237795" lon="-1.819724002853036">
        <ele>127.03</ele>
        <time>2018-07-04T14:10:15Z</time>
      </trkpt>
      <trkpt lat="49.670421006157994" lon="-1.819971017539501">
        <ele>126.06999999999999</ele>
        <time>2018-07-04T14:10:16Z</time>
      </trkpt>
      <trkpt lat="49.670469034463167" lon="-1.821165019646287">
        <ele>121.73999999999999</ele>
        <time>2018-07-04T14:10:21Z</time>
      </trkpt>
      <trkpt lat="49.67047699727118" lon="-1.821393007412553">
        <ele>121.26000000000001</ele>
        <time>2018-07-04T14:10:22Z</time>
      </trkpt>
      <trkpt lat="49.670515973120928" lon="-1.821615966036916">
        <ele>120.78</ele>
        <time>2018-07-04T14:10:23Z</time>
      </trkpt>
      <trkpt lat="49.670815961435437" lon="-1.822622967883945">
        <ele>118.86</ele>
        <time>2018-07-04T14:10:28Z</time>
      </trkpt>
      <trkpt lat="49.671769989654422" lon="-1.824668990448117">
        <ele>112.13</ele>
        <time>2018-07-04T14:10:38Z</time>
      </trkpt>
      <trkpt lat="49.671835033223033" lon="-1.824881974607706">
        <ele>111.17</ele>
        <time>2018-07-04T14:10:39Z</time>
      </trkpt>
      <trkpt lat="49.671870991587639" lon="-1.825111974030733">
        <ele>110.20999999999999</ele>
        <time>2018-07-04T14:10:40Z</time>
      </trkpt>
      <trkpt lat="49.671910973265767" lon="-1.825356977060437">
        <ele>109.25</ele>
        <time>2018-07-04T14:10:41Z</time>
      </trkpt>
      <trkpt lat="49.671925976872444" lon="-1.825617989525199">
        <ele>109.25</ele>
        <time>2018-07-04T14:10:42Z</time>
      </trkpt>
      <trkpt lat="49.67193896882236" lon="-1.825887970626354">
        <ele>108.77</ele>
        <time>2018-07-04T14:10:43Z</time>
      </trkpt>
      <trkpt lat="49.672074001282454" lon="-1.827338961884379">
        <ele>112.13</ele>
        <time>2018-07-04T14:10:49Z</time>
      </trkpt>
      <trkpt lat="49.672136027365923" lon="-1.827523028478026">
        <ele>113.09</ele>
        <time>2018-07-04T14:10:50Z</time>
      </trkpt>
      <trkpt lat="49.672219008207321" lon="-1.827697958797216">
        <ele>114.05</ele>
        <time>2018-07-04T14:10:51Z</time>
      </trkpt>
      <trkpt lat="49.672305006533861" lon="-1.827876996248961">
        <ele>114.53</ele>
        <time>2018-07-04T14:10:52Z</time>
      </trkpt>
      <trkpt lat="49.67240902595222" lon="-1.828041030094028">
        <ele>115.5</ele>
        <time>2018-07-04T14:10:53Z</time>
      </trkpt>
      <trkpt lat="49.673297004774213" lon="-1.829355983063579">
        <ele>121.26000000000001</ele>
        <time>2018-07-04T14:11:00Z</time>
      </trkpt>
      <trkpt lat="49.674617992714047" lon="-1.831304021179676">
        <ele>128.94999999999999</ele>
        <time>2018-07-04T14:11:09Z</time>
      </trkpt>
      <trkpt lat="49.675946021452546" lon="-1.833264967426658">
        <ele>139.53</ele>
        <time>2018-07-04T14:11:19Z</time>
      </trkpt>
      <trkpt lat="49.676637025550008" lon="-1.834565000608563">
        <ele>143.84999999999999</ele>
        <time>2018-07-04T14:11:27Z</time>
      </trkpt>
      <trkpt lat="49.677354013547301" lon="-1.835880037397146">
        <ele>143.37</ele>
        <time>2018-07-04T14:11:34Z</time>
      </trkpt>
      <trkpt lat="49.677944015711546" lon="-1.836814032867551">
        <ele>142.88999999999999</ele>
        <time>2018-07-04T14:11:39Z</time>
      </trkpt>
      <trkpt lat="49.678090028464794" lon="-1.836928026750684">
        <ele>142.88999999999999</ele>
        <time>2018-07-04T14:11:40Z</time>
      </trkpt>
      <trkpt lat="49.678239980712533" lon="-1.837045960128307">
        <ele>142.88999999999999</ele>
        <time>2018-07-04T14:11:41Z</time>
      </trkpt>
      <trkpt lat="49.679584018886089" lon="-1.837682984769344">
        <ele>139.53</ele>
        <time>2018-07-04T14:11:49Z</time>
      </trkpt>
      <trkpt lat="49.680667966604233" lon="-1.837799996137619">
        <ele>136.16</ele>
        <time>2018-07-04T14:11:57Z</time>
      </trkpt>
      <trkpt lat="49.680826971307397" lon="-1.837822962552309">
        <ele>135.68000000000001</ele>
        <time>2018-07-04T14:11:59Z</time>
      </trkpt>
      <trkpt lat="49.680882040411234" lon="-1.837834026664496">
        <ele>135.68000000000001</ele>
        <time>2018-07-04T14:12:00Z</time>
      </trkpt>
      <trkpt lat="49.680974995717406" lon="-1.837927987799048">
        <ele>135.19999999999999</ele>
        <time>2018-07-04T14:12:01Z</time>
      </trkpt>
      <trkpt lat="49.68098203651607" lon="-1.838057991117239">
        <ele>134.72</ele>
        <time>2018-07-04T14:12:02Z</time>
      </trkpt>
      <trkpt lat="49.680992010980844" lon="-1.8382309935987">
        <ele>134.24000000000001</ele>
        <time>2018-07-04T14:12:03Z</time>
      </trkpt>
      <trkpt lat="49.68100399710238" lon="-1.838432997465134">
        <ele>133.75999999999999</ele>
        <time>2018-07-04T14:12:04Z</time>
      </trkpt>
      <trkpt lat="49.681007014587522" lon="-1.838642964139581">
        <ele>132.80000000000001</ele>
        <time>2018-07-04T14:12:05Z</time>
      </trkpt>
      <trkpt lat="49.680973989889026" lon="-1.838867012411356">
        <ele>131.84</ele>
        <time>2018-07-04T14:12:06Z</time>
      </trkpt>
      <trkpt lat="49.680939959362149" lon="-1.839099023491144">
        <ele>130.88</ele>
        <time>2018-07-04T14:12:07Z</time>
      </trkpt>
      <trkpt lat="49.68074700795114" lon="-1.840402996167541">
        <ele>127.03</ele>
        <time>2018-07-04T14:12:14Z</time>
      </trkpt>
      <trkpt lat="49.680662015452981" lon="-1.841171029955149">
        <ele>123.67</ele>
        <time>2018-07-04T14:12:18Z</time>
      </trkpt>
      <trkpt lat="49.680686993524432" lon="-1.841357024386525">
        <ele>122.70999999999999</ele>
        <time>2018-07-04T14:12:19Z</time>
      </trkpt>
      <trkpt lat="49.680714989081025" lon="-1.84156296774745">
        <ele>121.73999999999999</ele>
        <time>2018-07-04T14:12:20Z</time>
      </trkpt>
      <trkpt lat="49.680814985185862" lon="-1.842305017635226">
        <ele>117.42</ele>
        <time>2018-07-04T14:12:23Z</time>
      </trkpt>
      <trkpt lat="49.680848009884357" lon="-1.842594025656581">
        <ele>115.98</ele>
        <time>2018-07-04T14:12:24Z</time>
      </trkpt>
      <trkpt lat="49.68080903403461" lon="-1.844751024618745">
        <ele>114.53</ele>
        <time>2018-07-04T14:12:31Z</time>
      </trkpt>
      <trkpt lat="49.680372001603246" lon="-1.847713021561503">
        <ele>128.47</ele>
        <time>2018-07-04T14:12:41Z</time>
      </trkpt>
      <trkpt lat="49.68031701631844" lon="-1.848278967663646">
        <ele>132.31999999999999</ele>
        <time>2018-07-04T14:12:44Z</time>
      </trkpt>
      <trkpt lat="49.680337971076369" lon="-1.848424980416894">
        <ele>133.28</ele>
        <time>2018-07-04T14:12:45Z</time>
      </trkpt>
      <trkpt lat="49.680378958582878" lon="-1.848569987341762">
        <ele>133.28</ele>
        <time>2018-07-04T14:12:46Z</time>
      </trkpt>
      <trkpt lat="49.680433021858335" lon="-1.848706025630236">
        <ele>133.75999999999999</ele>
        <time>2018-07-04T14:12:47Z</time>
      </trkpt>
      <trkpt lat="49.680493036285043" lon="-1.848853966221213">
        <ele>134.24000000000001</ele>
        <time>2018-07-04T14:12:48Z</time>
      </trkpt>
      <trkpt lat="49.680980024859309" lon="-1.850073030218482">
        <ele>132.80000000000001</ele>
        <time>2018-07-04T14:12:54Z</time>
      </trkpt>
      <trkpt lat="49.681469025090337" lon="-1.851753015071154">
        <ele>127.03</ele>
        <time>2018-07-04T14:13:00Z</time>
      </trkpt>
      <trkpt lat="49.682087022811174" lon="-1.854214025661349">
        <ele>120.78</ele>
        <time>2018-07-04T14:13:09Z</time>
      </trkpt>
      <trkpt lat="49.682268993929029" lon="-1.855049030855298">
        <ele>123.19</ele>
        <time>2018-07-04T14:13:12Z</time>
      </trkpt>
      <trkpt lat="49.682297995314002" lon="-1.855341978371143">
        <ele>124.63</ele>
        <time>2018-07-04T14:13:13Z</time>
      </trkpt>
      <trkpt lat="49.682383993640542" lon="-1.856318973004818">
        <ele>130.88</ele>
        <time>2018-07-04T14:13:17Z</time>
      </trkpt>
      <trkpt lat="49.682618016377091" lon="-1.857323041185737">
        <ele>133.28</ele>
        <time>2018-07-04T14:13:22Z</time>
      </trkpt>
      <trkpt lat="49.682648023590446" lon="-1.85752596706152">
        <ele>132.80000000000001</ele>
        <time>2018-07-04T14:13:23Z</time>
      </trkpt>
      <trkpt lat="49.682889003306627" lon="-1.859172005206347">
        <ele>134.24000000000001</ele>
        <time>2018-07-04T14:13:29Z</time>
      </trkpt>
      <trkpt lat="49.683355959132314" lon="-1.86147996224463">
        <ele>136.16</ele>
        <time>2018-07-04T14:13:37Z</time>
      </trkpt>
      <trkpt lat="49.683927018195391" lon="-1.863737963140011">
        <ele>128.47</ele>
        <time>2018-07-04T14:13:45Z</time>
      </trkpt>
      <trkpt lat="49.684407971799374" lon="-1.865480979904532">
        <ele>121.26000000000001</ele>
        <time>2018-07-04T14:13:52Z</time>
      </trkpt>
      <trkpt lat="49.684774009510875" lon="-1.866781013086438">
        <ele>125.11</ele>
        <time>2018-07-04T14:13:57Z</time>
      </trkpt>
      <trkpt lat="49.685136023908854" lon="-1.867981972172856">
        <ele>128.47</ele>
        <time>2018-07-04T14:14:02Z</time>
      </trkpt>
      <trkpt lat="49.685625024139881" lon="-1.869357023388147">
        <ele>133.75999999999999</ele>
        <time>2018-07-04T14:14:09Z</time>
      </trkpt>
      <trkpt lat="49.686073958873749" lon="-1.870817989110947">
        <ele>132.31999999999999</ele>
        <time>2018-07-04T14:14:15Z</time>
      </trkpt>
      <trkpt lat="49.686381993815303" lon="-1.872279960662127">
        <ele>133.75999999999999</ele>
        <time>2018-07-04T14:14:21Z</time>
      </trkpt>
      <trkpt lat="49.686772003769875" lon="-1.874016020447016">
        <ele>130.88</ele>
        <time>2018-07-04T14:14:30Z</time>
      </trkpt>
      <trkpt lat="49.686978030949831" lon="-1.87555099837482">
        <ele>131.84</ele>
        <time>2018-07-04T14:14:36Z</time>
      </trkpt>
      <trkpt lat="49.687008038163185" lon="-1.877501970157027">
        <ele>133.75999999999999</ele>
        <time>2018-07-04T14:14:43Z</time>
      </trkpt>
      <trkpt lat="49.686978030949831" lon="-1.87948202714324">
        <ele>132.31999999999999</ele>
        <time>2018-07-04T14:14:50Z</time>
      </trkpt>
      <trkpt lat="49.687151033431292" lon="-1.88102999702096">
        <ele>134.72</ele>
        <time>2018-07-04T14:14:57Z</time>
      </trkpt>
      <trkpt lat="49.687347002327442" lon="-1.882867980748415">
        <ele>132.80000000000001</ele>
        <time>2018-07-04T14:15:05Z</time>
      </trkpt>
      <trkpt lat="49.687365023419261" lon="-1.883343989029527">
        <ele>130.88</ele>
        <time>2018-07-04T14:15:07Z</time>
      </trkpt>
      <trkpt lat="49.687365023419261" lon="-1.883583040907979">
        <ele>130.40000000000001</ele>
        <time>2018-07-04T14:15:08Z</time>
      </trkpt>
      <trkpt lat="49.687350019812584" lon="-1.883825026452541">
        <ele>129.91999999999999</ele>
        <time>2018-07-04T14:15:09Z</time>
      </trkpt>
      <trkpt lat="49.68732001259923" lon="-1.884074974805117">
        <ele>129.91999999999999</ele>
        <time>2018-07-04T14:15:10Z</time>
      </trkpt>
      <trkpt lat="49.687290005385876" lon="-1.884328024461865">
        <ele>129.91999999999999</ele>
        <time>2018-07-04T14:15:11Z</time>
      </trkpt>
      <trkpt lat="49.687259998172522" lon="-1.884580990299583">
        <ele>129.91999999999999</ele>
        <time>2018-07-04T14:15:12Z</time>
      </trkpt>
      <trkpt lat="49.687237031757832" lon="-1.884828004986048">
        <ele>130.88</ele>
        <time>2018-07-04T14:15:13Z</time>
      </trkpt>
      <trkpt lat="49.687239965423942" lon="-1.885084994137287">
        <ele>131.36000000000001</ele>
        <time>2018-07-04T14:15:14Z</time>
      </trkpt>
      <trkpt lat="49.687255974858999" lon="-1.886329958215356">
        <ele>133.75999999999999</ele>
        <time>2018-07-04T14:15:20Z</time>
      </trkpt>
      <trkpt lat="49.687272990122437" lon="-1.886512013152242">
        <ele>133.28</ele>
        <time>2018-07-04T14:15:21Z</time>
      </trkpt>
      <trkpt lat="49.687307020649314" lon="-1.886694990098476">
        <ele>132.80000000000001</ele>
        <time>2018-07-04T14:15:22Z</time>
      </trkpt>
      <trkpt lat="49.687366029247642" lon="-1.886876039206982">
        <ele>132.80000000000001</ele>
        <time>2018-07-04T14:15:23Z</time>
      </trkpt>
      <trkpt lat="49.687442975118756" lon="-1.887053987011313">
        <ele>132.31999999999999</ele>
        <time>2018-07-04T14:15:24Z</time>
      </trkpt>
      <trkpt lat="49.688257025554776" lon="-1.889175027608872">
        <ele>135.19999999999999</ele>
        <time>2018-07-04T14:15:35Z</time>
      </trkpt>
      <trkpt lat="49.688432039692998" lon="-1.889735022559762">
        <ele>134.72</ele>
        <time>2018-07-04T14:15:38Z</time>
      </trkpt>
      <trkpt lat="49.688750971108675" lon="-1.891227001324296">
        <ele>134.24000000000001</ele>
        <time>2018-07-04T14:15:46Z</time>
      </trkpt>
      <trkpt lat="49.68878298997879" lon="-1.89138500019908">
        <ele>133.75999999999999</ele>
        <time>2018-07-04T14:15:47Z</time>
      </trkpt>
      <trkpt lat="49.68880201689899" lon="-1.891717007383704">
        <ele>133.28</ele>
        <time>2018-07-04T14:15:49Z</time>
      </trkpt>
      <trkpt lat="49.68880201689899" lon="-1.891894033178687">
        <ele>133.28</ele>
        <time>2018-07-04T14:15:50Z</time>
      </trkpt>
      <trkpt lat="49.68880201689899" lon="-1.89207399263978">
        <ele>132.80000000000001</ele>
        <time>2018-07-04T14:15:51Z</time>
      </trkpt>
      <trkpt lat="49.68871702440083" lon="-1.893131034448743">
        <ele>129.91999999999999</ele>
        <time>2018-07-04T14:15:59Z</time>
      </trkpt>
      <trkpt lat="49.68871702440083" lon="-1.893226001411676">
        <ele>129.91999999999999</ele>
        <time>2018-07-04T14:16:00Z</time>
      </trkpt>
      <trkpt lat="49.688749965280294" lon="-1.893301019445062">
        <ele>129.43000000000001</ele>
        <time>2018-07-04T14:16:01Z</time>
      </trkpt>
      <trkpt lat="49.688787013292313" lon="-1.893375031650066">
        <ele>129.43000000000001</ele>
        <time>2018-07-04T14:16:02Z</time>
      </trkpt>
      <trkpt lat="49.688822971656919" lon="-1.893448960036039">
        <ele>129.43000000000001</ele>
        <time>2018-07-04T14:16:03Z</time>
      </trkpt>
      <trkpt lat="49.688863959163427" lon="-1.893532024696469">
        <ele>128.94999999999999</ele>
        <time>2018-07-04T14:16:04Z</time>
      </trkpt>
      <trkpt lat="49.68903997913003" lon="-1.893892027437687">
        <ele>129.43000000000001</ele>
        <time>2018-07-04T14:16:08Z</time>
      </trkpt>
      <trkpt lat="49.68908398412168" lon="-1.893981965258718">
        <ele>129.91999999999999</ele>
        <time>2018-07-04T14:16:09Z</time>
      </trkpt>
      <trkpt lat="49.689228991046548" lon="-1.894278014078736">
        <ele>130.88</ele>
        <time>2018-07-04T14:16:12Z</time>
      </trkpt>
      <trkpt lat="49.689654037356377" lon="-1.895533036440611">
        <ele>131.84</ele>
        <time>2018-07-04T14:16:20Z</time>
      </trkpt>
      <trkpt lat="49.690151000395417" lon="-1.897385017946363">
        <ele>126.06999999999999</ele>
        <time>2018-07-04T14:16:29Z</time>
      </trkpt>
      <trkpt lat="49.690444031730294" lon="-1.898093959316611">
        <ele>119.81999999999999</ele>
        <time>2018-07-04T14:16:34Z</time>
      </trkpt>
      <trkpt lat="49.690498011186719" lon="-1.898189010098577">
        <ele>118.38</ele>
        <time>2018-07-04T14:16:35Z</time>
      </trkpt>
      <trkpt lat="49.690570011734962" lon="-1.898200996220112">
        <ele>116.94</ele>
        <time>2018-07-04T14:16:36Z</time>
      </trkpt>
      <trkpt lat="49.690657015889883" lon="-1.898214993998408">
        <ele>115.98</ele>
        <time>2018-07-04T14:16:37Z</time>
      </trkpt>
      <trkpt lat="49.690746031701565" lon="-1.898229997605085">
        <ele>114.53</ele>
        <time>2018-07-04T14:16:38Z</time>
      </trkpt>
      <trkpt lat="49.690808979794383" lon="-1.898181969299913">
        <ele>113.56999999999999</ele>
        <time>2018-07-04T14:16:39Z</time>
      </trkpt>
      <trkpt lat="49.69088701531291" lon="-1.89811097458005">
        <ele>112.61</ele>
        <time>2018-07-04T14:16:40Z</time>
      </trkpt>
      <trkpt lat="49.690967984497547" lon="-1.898036040365696">
        <ele>112.13</ele>
        <time>2018-07-04T14:16:41Z</time>
      </trkpt>
      <trkpt lat="49.691048031672835" lon="-1.897933026775718">
        <ele>112.13</ele>
        <time>2018-07-04T14:16:42Z</time>
      </trkpt>
      <trkpt lat="49.691123971715569" lon="-1.897803023457527">
        <ele>112.13</ele>
        <time>2018-07-04T14:16:43Z</time>
      </trkpt>
      <trkpt lat="49.691249029710889" lon="-1.897588027641177">
        <ele>112.61</ele>
        <time>2018-07-04T14:16:45Z</time>
      </trkpt>
      <trkpt lat="49.691338967531919" lon="-1.897537987679243">
        <ele>113.09</ele>
        <time>2018-07-04T14:16:46Z</time>
      </trkpt>
      <trkpt lat="49.691441981121898" lon="-1.897480990737677">
        <ele>113.56999999999999</ele>
        <time>2018-07-04T14:16:47Z</time>
      </trkpt>
      <trkpt lat="49.691492021083832" lon="-1.897519966587424">
        <ele>113.56999999999999</ele>
        <time>2018-07-04T14:16:48Z</time>
      </trkpt>
      <trkpt lat="49.691573996096849" lon="-1.897582998499274">
        <ele>114.53</ele>
        <time>2018-07-04T14:16:49Z</time>
      </trkpt>
      <trkpt lat="49.69166100025177" lon="-1.897666985169053">
        <ele>115.01000000000001</ele>
        <time>2018-07-04T14:16:50Z</time>
      </trkpt>
      <trkpt lat="49.691743981093168" lon="-1.897778967395425">
        <ele>115.5</ele>
        <time>2018-07-04T14:16:51Z</time>
      </trkpt>
      <trkpt lat="49.692085040733218" lon="-1.898319013416767">
        <ele>117.90000000000001</ele>
        <time>2018-07-04T14:16:55Z</time>
      </trkpt>
      <trkpt lat="49.692140026018023" lon="-1.898444993421435">
        <ele>118.86</ele>
        <time>2018-07-04T14:16:56Z</time>
      </trkpt>
      <trkpt lat="49.692165004089475" lon="-1.898581031709909">
        <ele>119.81999999999999</ele>
        <time>2018-07-04T14:16:57Z</time>
      </trkpt>
      <trkpt lat="49.692300036549568" lon="-1.899476973339915">
        <ele>122.22</ele>
        <time>2018-07-04T14:17:03Z</time>
      </trkpt>
      <trkpt lat="49.692332977429032" lon="-1.899576969444752">
        <ele>122.22</ele>
        <time>2018-07-04T14:17:04Z</time>
      </trkpt>
      <trkpt lat="49.692379999905825" lon="-1.899672020226717">
        <ele>122.22</ele>
        <time>2018-07-04T14:17:05Z</time>
      </trkpt>
      <trkpt lat="49.692431967705488" lon="-1.899680988863111">
        <ele>122.22</ele>
        <time>2018-07-04T14:17:06Z</time>
      </trkpt>
      <trkpt lat="49.692487036809325" lon="-1.899690963327885">
        <ele>122.22</ele>
        <time>2018-07-04T14:17:07Z</time>
      </trkpt>
      <trkpt lat="49.692540010437369" lon="-1.899701021611691">
        <ele>122.22</ele>
        <time>2018-07-04T14:17:08Z</time>
      </trkpt>
      <trkpt lat="49.692590972408652" lon="-1.899709990248084">
        <ele>122.22</ele>
        <time>2018-07-04T14:17:09Z</time>
      </trkpt>
      <trkpt lat="49.692625002935529" lon="-1.899771010503173">
        <ele>122.22</ele>
        <time>2018-07-04T14:17:10Z</time>
      </trkpt>
      <trkpt lat="49.692662972956896" lon="-1.899862959980965">
        <ele>122.22</ele>
        <time>2018-07-04T14:17:11Z</time>
      </trkpt>
      <trkpt lat="49.692707983776927" lon="-1.899972008541226">
        <ele>122.22</ele>
        <time>2018-07-04T14:17:12Z</time>
      </trkpt>
      <trkpt lat="49.692745031788945" lon="-1.900117015466094">
        <ele>122.22</ele>
        <time>2018-07-04T14:17:13Z</time>
      </trkpt>
      <trkpt lat="49.693129006773233" lon="-1.90152601338923">
        <ele>120.78</ele>
        <time>2018-07-04T14:17:20Z</time>
      </trkpt>
      <trkpt lat="49.693571990355849" lon="-1.902863010764122">
        <ele>117.90000000000001</ele>
        <time>2018-07-04T14:17:27Z</time>
      </trkpt>
      <trkpt lat="49.693951020017266" lon="-1.903735985979438">
        <ele>118.86</ele>
        <time>2018-07-04T14:17:32Z</time>
      </trkpt>
      <trkpt lat="49.694010028615594" lon="-1.903917035087943">
        <ele>119.34</ele>
        <time>2018-07-04T14:17:33Z</time>
      </trkpt>
      <trkpt lat="49.694065013900399" lon="-1.904108980670571">
        <ele>119.81999999999999</ele>
        <time>2018-07-04T14:17:34Z</time>
      </trkpt>
      <trkpt lat="49.694366008043289" lon="-1.905315974727273">
        <ele>123.19</ele>
        <time>2018-07-04T14:17:41Z</time>
      </trkpt>
      <trkpt lat="49.694506991654634" lon="-1.906551970168948">
        <ele>120.78</ele>
        <time>2018-07-04T14:17:48Z</time>
      </trkpt>
      <trkpt lat="49.694601036608219" lon="-1.908334968611598">
        <ele>115.98</ele>
        <time>2018-07-04T14:17:55Z</time>
      </trkpt>
      <trkpt lat="49.694610005244613" lon="-1.910838978365064">
        <ele>113.09</ele>
        <time>2018-07-04T14:18:04Z</time>
      </trkpt>
      <trkpt lat="49.694680999964476" lon="-1.912327017635107">
        <ele>111.65000000000001</ele>
        <time>2018-07-04T14:18:10Z</time>
      </trkpt>
      <trkpt lat="49.694706983864307" lon="-1.912577971816063">
        <ele>111.17</ele>
        <time>2018-07-04T14:18:11Z</time>
      </trkpt>
      <trkpt lat="49.694971013814211" lon="-1.915376018732786">
        <ele>120.3</ele>
        <time>2018-07-04T14:18:22Z</time>
      </trkpt>
      <trkpt lat="49.695230014622211" lon="-1.917292037978768">
        <ele>128.47</ele>
        <time>2018-07-04T14:18:31Z</time>
      </trkpt>
      <trkpt lat="49.695803001523018" lon="-1.919663026928902">
        <ele>135.68000000000001</ele>
        <time>2018-07-04T14:18:42Z</time>
      </trkpt>
      <trkpt lat="49.696073988452554" lon="-1.920939004048705">
        <ele>136.63999999999999</ele>
        <time>2018-07-04T14:18:49Z</time>
      </trkpt>
      <trkpt lat="49.696060996502638" lon="-1.921050986275077">
        <ele>136.63999999999999</ele>
        <time>2018-07-04T14:18:50Z</time>
      </trkpt>
      <trkpt lat="49.696070970967412" lon="-1.921286014840007">
        <ele>136.63999999999999</ele>
        <time>2018-07-04T14:18:53Z</time>
      </trkpt>
      <trkpt lat="49.696103995665908" lon="-1.921350974589586">
        <ele>137.13</ele>
        <time>2018-07-04T14:18:54Z</time>
      </trkpt>
      <trkpt lat="49.69615001231432" lon="-1.921439990401268">
        <ele>137.13</ele>
        <time>2018-07-04T14:18:55Z</time>
      </trkpt>
      <trkpt lat="49.696663990616798" lon="-1.92251798696816">
        <ele>134.72</ele>
        <time>2018-07-04T14:19:02Z</time>
      </trkpt>
      <trkpt lat="49.697333034127951" lon="-1.924385977908969">
        <ele>127.98999999999999</ele>
        <time>2018-07-04T14:19:10Z</time>
      </trkpt>
      <trkpt lat="49.697509976103902" lon="-1.924811024218798">
        <ele>126.06999999999999</ele>
        <time>2018-07-04T14:19:12Z</time>
      </trkpt>
      <trkpt lat="49.697616007179022" lon="-1.925003975629807">
        <ele>125.11</ele>
        <time>2018-07-04T14:19:13Z</time>
      </trkpt>
      <trkpt lat="49.697722960263491" lon="-1.925197010859847">
        <ele>124.15000000000001</ele>
        <time>2018-07-04T14:19:14Z</time>
      </trkpt>
      <trkpt lat="49.697855981066823" lon="-1.92533397115767">
        <ele>123.67</ele>
        <time>2018-07-04T14:19:15Z</time>
      </trkpt>
      <trkpt lat="49.697997970506549" lon="-1.925451988354325">
        <ele>122.70999999999999</ele>
        <time>2018-07-04T14:19:16Z</time>
      </trkpt>
      <trkpt lat="49.698143983259797" lon="-1.925572017207742">
        <ele>121.73999999999999</ele>
        <time>2018-07-04T14:19:17Z</time>
      </trkpt>
      <trkpt lat="49.698297036811709" lon="-1.925679976120591">
        <ele>120.78</ele>
        <time>2018-07-04T14:19:18Z</time>
      </trkpt>
      <trkpt lat="49.698468027636409" lon="-1.925763040781021">
        <ele>120.3</ele>
        <time>2018-07-04T14:19:19Z</time>
      </trkpt>
      <trkpt lat="49.699995964765549" lon="-1.926696030423045">
        <ele>112.13</ele>
        <time>2018-07-04T14:19:27Z</time>
      </trkpt>
      <trkpt lat="49.702396960929036" lon="-1.929120998829603">
        <ele>99.629999999999995</ele>
        <time>2018-07-04T14:19:39Z</time>
      </trkpt>
      <trkpt lat="49.703076984733343" lon="-1.929911999031901">
        <ele>97.230000000000004</ele>
        <time>2018-07-04T14:19:43Z</time>
      </trkpt>
      <trkpt lat="49.703246969729662" lon="-1.930036973208189">
        <ele>96.75</ele>
        <time>2018-07-04T14:19:44Z</time>
      </trkpt>
      <trkpt lat="49.703411003574729" lon="-1.930158007889986">
        <ele>96.269999999999996</ele>
        <time>2018-07-04T14:19:45Z</time>
      </trkpt>
      <trkpt lat="49.703590041026473" lon="-1.930205030366778">
        <ele>95.310000000000002</ele>
        <time>2018-07-04T14:19:46Z</time>
      </trkpt>
      <trkpt lat="49.70377896912396" lon="-1.930251969024539">
        <ele>95.310000000000002</ele>
        <time>2018-07-04T14:19:47Z</time>
      </trkpt>
      <trkpt lat="49.703974016010761" lon="-1.930302008986473">
        <ele>94.349999999999994</ele>
        <time>2018-07-04T14:19:48Z</time>
      </trkpt>
      <trkpt lat="49.705714015290141" lon="-1.93089603446424">
        <ele>90.980000000000004</ele>
        <time>2018-07-04T14:19:57Z</time>
      </trkpt>
      <trkpt lat="49.706552037969232" lon="-1.931312028318644">
        <ele>90.980000000000004</ele>
        <time>2018-07-04T14:20:03Z</time>
      </trkpt>
      <trkpt lat="49.707528026774526" lon="-1.931699020788074">
        <ele>91.939999999999998</ele>
        <time>2018-07-04T14:20:13Z</time>
      </trkpt>
      <trkpt lat="49.708752958104014" lon="-1.93197101354599">
        <ele>85.209999999999994</ele>
        <time>2018-07-04T14:20:25Z</time>
      </trkpt>
      <trkpt lat="49.709874037653208" lon="-1.932046031579375">
        <ele>79.930000000000007</ele>
        <time>2018-07-04T14:20:38Z</time>
      </trkpt>
      <trkpt lat="49.710743995383382" lon="-1.932095987722278">
        <ele>76.079999999999998</ele>
        <time>2018-07-04T14:20:49Z</time>
      </trkpt>
      <trkpt lat="49.711437011137605" lon="-1.93197101354599">
        <ele>70.310000000000002</ele>
        <time>2018-07-04T14:20:59Z</time>
      </trkpt>
      <trkpt lat="49.711494008079171" lon="-1.931952992454171">
        <ele>69.829999999999998</ele>
        <time>2018-07-04T14:21:00Z</time>
      </trkpt>
      <trkpt lat="49.71172702498734" lon="-1.931813014671207">
        <ele>67.430000000000007</ele>
        <time>2018-07-04T14:21:04Z</time>
      </trkpt>
      <trkpt lat="49.712301017716527" lon="-1.931271040812135">
        <ele>61.18</ele>
        <time>2018-07-04T14:21:15Z</time>
      </trkpt>
      <trkpt lat="49.712468991056085" lon="-1.931116981431842">
        <ele>58.780000000000001</ele>
        <time>2018-07-04T14:21:18Z</time>
      </trkpt>
      <trkpt lat="49.713130993768573" lon="-1.930654970929027">
        <ele>51.090000000000003</ele>
        <time>2018-07-04T14:21:28Z</time>
      </trkpt>
      <trkpt lat="49.713200982660055" lon="-1.93063803948462">
        <ele>51.090000000000003</ele>
        <time>2018-07-04T14:21:29Z</time>
      </trkpt>
      <trkpt lat="49.713262002915144" lon="-1.930654970929027">
        <ele>50.609999999999999</ele>
        <time>2018-07-04T14:21:30Z</time>
      </trkpt>
      <trkpt lat="49.713326962664723" lon="-1.930692018941045">
        <ele>50.130000000000003</ele>
        <time>2018-07-04T14:21:31Z</time>
      </trkpt>
      <trkpt lat="49.713393012061715" lon="-1.930727977305651">
        <ele>49.649999999999999</ele>
        <time>2018-07-04T14:21:32Z</time>
      </trkpt>
      <trkpt lat="49.713440034538507" lon="-1.930791009217501">
        <ele>49.649999999999999</ele>
        <time>2018-07-04T14:21:33Z</time>
      </trkpt>
      <trkpt lat="49.713482027873397" lon="-1.93087499588728">
        <ele>49.649999999999999</ele>
        <time>2018-07-04T14:21:34Z</time>
      </trkpt>
      <trkpt lat="49.713527038693428" lon="-1.930965017527342">
        <ele>49.649999999999999</ele>
        <time>2018-07-04T14:21:35Z</time>
      </trkpt>
      <trkpt lat="49.713562997058034" lon="-1.93106803111732">
        <ele>49.649999999999999</ele>
        <time>2018-07-04T14:21:36Z</time>
      </trkpt>
      <trkpt lat="49.71359602175653" lon="-1.931184958666563">
        <ele>49.649999999999999</ele>
        <time>2018-07-04T14:21:37Z</time>
      </trkpt>
    </trkseg>
  </trk>

  <trk>
    <name>Track vom: 2018-07-04 16:21</name>
    <extensions>
      <gpxx:TrackExtension>
        <gpxx:DisplayColor>DarkGray</gpxx:DisplayColor>
      </gpxx:TrackExtension>
    </extensions>
    <trkseg>
      <trkpt lat="49.71379199065268" lon="-1.931877974420786">
        <ele>48.68</ele>
        <time>2018-07-04T14:21:44Z</time>
      </trkpt>
      <trkpt lat="49.713884023949504" lon="-1.932200007140636">
        <ele>47.719999999999999</ele>
        <time>2018-07-04T14:21:48Z</time>
      </trkpt>
      <trkpt lat="49.713899027556181" lon="-1.932252980768681">
        <ele>47.240000000000002</ele>
        <time>2018-07-04T14:21:49Z</time>
      </trkpt>
      <trkpt lat="49.713958958163857" lon="-1.932279970496893">
        <ele>47.240000000000002</ele>
        <time>2018-07-04T14:21:50Z</time>
      </trkpt>
      <trkpt lat="49.713990977033973" lon="-1.932277036830783">
        <ele>46.759999999999998</ele>
        <time>2018-07-04T14:21:51Z</time>
      </trkpt>
      <trkpt lat="49.714031964540482" lon="-1.932274019345641">
        <ele>46.759999999999998</ele>
        <time>2018-07-04T14:21:52Z</time>
      </trkpt>
      <trkpt lat="49.714082004502416" lon="-1.932268990203738">
        <ele>46.759999999999998</ele>
        <time>2018-07-04T14:21:53Z</time>
      </trkpt>
      <trkpt lat="49.714152999222279" lon="-1.932271001860499">
        <ele>46.280000000000001</ele>
        <time>2018-07-04T14:21:54Z</time>
      </trkpt>
      <trkpt lat="49.714216031134129" lon="-1.932326992973685">
        <ele>46.280000000000001</ele>
        <time>2018-07-04T14:21:55Z</time>
      </trkpt>
      <trkpt lat="49.714287025853992" lon="-1.932391030713916">
        <ele>45.799999999999997</ele>
        <time>2018-07-04T14:21:56Z</time>
      </trkpt>
      <trkpt lat="49.714365983381867" lon="-1.932464959099889">
        <ele>45.32</ele>
        <time>2018-07-04T14:21:57Z</time>
      </trkpt>
      <trkpt lat="49.715209035202861" lon="-1.93332402035594">
        <ele>39.07</ele>
        <time>2018-07-04T14:22:07Z</time>
      </trkpt>
      <trkpt lat="49.716015039011836" lon="-1.934387013316155">
        <ele>35.710000000000001</ele>
        <time>2018-07-04T14:22:18Z</time>
      </trkpt>
      <trkpt lat="49.716973006725311" lon="-1.935743959620595">
        <ele>30.899999999999999</ele>
        <time>2018-07-04T14:22:28Z</time>
      </trkpt>
      <trkpt lat="49.71776501275599" lon="-1.936705028638244">
        <ele>25.609999999999999</ele>
        <time>2018-07-04T14:22:38Z</time>
      </trkpt>
      <trkpt lat="49.718125015497208" lon="-1.936899991706014">
        <ele>22.73</ele>
        <time>2018-07-04T14:22:42Z</time>
      </trkpt>
      <trkpt lat="49.718236997723579" lon="-1.936916001141071">
        <ele>22.25</ele>
        <time>2018-07-04T14:22:43Z</time>
      </trkpt>
      <trkpt lat="49.719519009813666" lon="-1.937141977250576">
        <ele>16</ele>
        <time>2018-07-04T14:22:53Z</time>
      </trkpt>
      <trkpt lat="49.720724998041987" lon="-1.937595019116998">
        <ele>15.039999999999999</ele>
        <time>2018-07-04T14:23:03Z</time>
      </trkpt>
      <trkpt lat="49.721980020403862" lon="-1.937788976356387">
        <ele>15.52</ele>
        <time>2018-07-04T14:23:13Z</time>
      </trkpt>
      <trkpt lat="49.722402971237898" lon="-1.937782019376755">
        <ele>14.08</ele>
        <time>2018-07-04T14:23:19Z</time>
      </trkpt>
      <trkpt lat="49.723321041092277" lon="-1.937765004113317">
        <ele>13.119999999999999</ele>
        <time>2018-07-04T14:23:26Z</time>
      </trkpt>
      <trkpt lat="49.724661977961659" lon="-1.937740026041865">
        <ele>12.630000000000001</ele>
        <time>2018-07-04T14:23:36Z</time>
      </trkpt>
      <trkpt lat="49.724936988204718" lon="-1.937734996899962">
        <ele>11.67</ele>
        <time>2018-07-04T14:23:39Z</time>
      </trkpt>
      <trkpt lat="49.725032960996032" lon="-1.937771961092949">
        <ele>11.67</ele>
        <time>2018-07-04T14:23:40Z</time>
      </trkpt>
      <trkpt lat="49.725751960650086" lon="-1.938045965507627">
        <ele>10.23</ele>
        <time>2018-07-04T14:23:50Z</time>
      </trkpt>
      <trkpt lat="49.7261449880898" lon="-1.938291974365711">
        <ele>8.789999999999999</ele>
        <time>2018-07-04T14:24:02Z</time>
      </trkpt>
      <trkpt lat="49.726106012240052" lon="-1.93848199211061">
        <ele>9.27</ele>
        <time>2018-07-04T14:24:06Z</time>
      </trkpt>
      <trkpt lat="49.726116992533207" lon="-1.938186027109623">
        <ele>9.75</ele>
        <time>2018-07-04T14:24:09Z</time>
      </trkpt>
      <trkpt lat="49.726327965036035" lon="-1.938937967643142">
        <ele>10.23</ele>
        <time>2018-07-04T14:24:17Z</time>
      </trkpt>
      <trkpt lat="49.726322013884783" lon="-1.939591001719236">
        <ele>10.710000000000001</ele>
        <time>2018-07-04T14:24:26Z</time>
      </trkpt>
      <trkpt lat="49.726222017779946" lon="-1.940260967239738">
        <ele>10.23</ele>
        <time>2018-07-04T14:24:37Z</time>
      </trkpt>
      <trkpt lat="49.726205002516508" lon="-1.940332967787981">
        <ele>10.23</ele>
        <time>2018-07-04T14:24:47Z</time>
      </trkpt>
      <trkpt lat="49.726201985031366" lon="-1.94032902829349">
        <ele>9.75</ele>
        <time>2018-07-04T14:25:34Z</time>
      </trkpt>
    </trkseg>
  </trk>

  <trk>
    <name>Track vom: 2018-07-04 16:31</name>
    <extensions>
      <gpxx:TrackExtension>
        <gpxx:DisplayColor>DarkGray</gpxx:DisplayColor>
      </gpxx:TrackExtension>
    </extensions>
    <trkseg>
      <trkpt lat="49.726202990859747" lon="-1.940332967787981">
        <ele>9.75</ele>
        <time>2018-07-04T14:31:17Z</time>
      </trkpt>
      <trkpt lat="49.726201985031366" lon="-1.940331039950252">
        <ele>10.23</ele>
        <time>2018-07-04T14:31:44Z</time>
      </trkpt>
      <trkpt lat="49.726201985031366" lon="-1.940331039950252">
        <ele>10.23</ele>
        <time>2018-07-04T14:31:46Z</time>
      </trkpt>
      <trkpt lat="49.726289995014668" lon="-1.939869029447436">
        <ele>7.83</ele>
        <time>2018-07-04T14:31:53Z</time>
      </trkpt>
      <trkpt lat="49.72629502415657" lon="-1.939435014501214">
        <ele>6.87</ele>
        <time>2018-07-04T14:31:57Z</time>
      </trkpt>
      <trkpt lat="49.726312039420009" lon="-1.938999993726611">
        <ele>6.87</ele>
        <time>2018-07-04T14:32:01Z</time>
      </trkpt>
      <trkpt lat="49.726096037775278" lon="-1.938529014587402">
        <ele>7.83</ele>
        <time>2018-07-04T14:32:09Z</time>
      </trkpt>
      <trkpt lat="49.726099977269769" lon="-1.938472017645836">
        <ele>7.83</ele>
        <time>2018-07-04T14:32:10Z</time>
      </trkpt>
      <trkpt lat="49.726116992533207" lon="-1.938186027109623">
        <ele>7.83</ele>
        <time>2018-07-04T14:32:13Z</time>
      </trkpt>
      <trkpt lat="49.726114980876446" lon="-1.938185021281242">
        <ele>7.83</ele>
        <time>2018-07-04T14:32:14Z</time>
      </trkpt>
      <trkpt lat="49.72607902251184" lon="-1.938171023502946">
        <ele>8.310000000000001</ele>
        <time>2018-07-04T14:32:15Z</time>
      </trkpt>
      <trkpt lat="49.726030994206667" lon="-1.938153002411127">
        <ele>8.789999999999999</ele>
        <time>2018-07-04T14:32:16Z</time>
      </trkpt>
      <trkpt lat="49.725971985608339" lon="-1.938130035996437">
        <ele>8.789999999999999</ele>
        <time>2018-07-04T14:32:17Z</time>
      </trkpt>
      <trkpt lat="49.725904008373618" lon="-1.938103968277574">
        <ele>8.789999999999999</ele>
        <time>2018-07-04T14:32:18Z</time>
      </trkpt>
      <trkpt lat="49.725828990340233" lon="-1.938075972720981">
        <ele>8.789999999999999</ele>
        <time>2018-07-04T14:32:19Z</time>
      </trkpt>
      <trkpt lat="49.724936988204718" lon="-1.937734996899962">
        <ele>10.710000000000001</ele>
        <time>2018-07-04T14:32:28Z</time>
      </trkpt>
      <trkpt lat="49.723921017721295" lon="-1.937754023820162">
        <ele>11.67</ele>
        <time>2018-07-04T14:32:35Z</time>
      </trkpt>
      <trkpt lat="49.721993012353778" lon="-1.937788976356387">
        <ele>12.15</ele>
        <time>2018-07-04T14:32:46Z</time>
      </trkpt>
      <trkpt lat="49.720582002773881" lon="-1.937553025782108">
        <ele>13.119999999999999</ele>
        <time>2018-07-04T14:32:55Z</time>
      </trkpt>
      <trkpt lat="49.719179961830378" lon="-1.937052961438894">
        <ele>15.039999999999999</ele>
        <time>2018-07-04T14:33:04Z</time>
      </trkpt>
      <trkpt lat="49.717899039387703" lon="-1.936821034178138">
        <ele>18.879999999999999</ele>
        <time>2018-07-04T14:33:13Z</time>
      </trkpt>
      <trkpt lat="49.717674991115928" lon="-1.936626993119717">
        <ele>20.32</ele>
        <time>2018-07-04T14:33:15Z</time>
      </trkpt>
      <trkpt lat="49.717560997232795" lon="-1.93652699701488">
        <ele>20.809999999999999</ele>
        <time>2018-07-04T14:33:16Z</time>
      </trkpt>
      <trkpt lat="49.717444991692901" lon="-1.936413003131747">
        <ele>21.77</ele>
        <time>2018-07-04T14:33:17Z</time>
      </trkpt>
      <trkpt lat="49.717339966446161" lon="-1.936263972893357">
        <ele>22.25</ele>
        <time>2018-07-04T14:33:18Z</time>
      </trkpt>
      <trkpt lat="49.717229995876551" lon="-1.936107985675335">
        <ele>22.73</ele>
        <time>2018-07-04T14:33:19Z</time>
      </trkpt>
      <trkpt lat="49.715667022392154" lon="-1.933893989771605">
        <ele>30.899999999999999</ele>
        <time>2018-07-04T14:33:32Z</time>
      </trkpt>
      <trkpt lat="49.71471400000155" lon="-1.932820016518235">
        <ele>35.229999999999997</ele>
        <time>2018-07-04T14:33:40Z</time>
      </trkpt>
      <trkpt lat="49.714144030585885" lon="-1.932263039052486">
        <ele>41.950000000000003</ele>
        <time>2018-07-04T14:33:46Z</time>
      </trkpt>
      <trkpt lat="49.714062977582216" lon="-1.932271001860499">
        <ele>42.920000000000002</ele>
        <time>2018-07-04T14:33:47Z</time>
      </trkpt>
      <trkpt lat="49.713928028941154" lon="-1.932282987982035">
        <ele>46.759999999999998</ele>
        <time>2018-07-04T14:33:54Z</time>
      </trkpt>
      <trkpt lat="49.713888969272375" lon="-1.932217022404075">
        <ele>47.240000000000002</ele>
        <time>2018-07-04T14:33:55Z</time>
      </trkpt>
      <trkpt lat="49.713863991200924" lon="-1.932129012420774">
        <ele>47.719999999999999</ele>
        <time>2018-07-04T14:33:56Z</time>
      </trkpt>
      <trkpt lat="49.713831972330809" lon="-1.932017030194402">
        <ele>48.200000000000003</ele>
        <time>2018-07-04T14:33:57Z</time>
      </trkpt>
      <trkpt lat="49.713797019794583" lon="-1.931891972199082">
        <ele>48.68</ele>
        <time>2018-07-04T14:33:58Z</time>
      </trkpt>
      <trkpt lat="49.71347096376121" lon="-1.93085303530097">
        <ele>51.090000000000003</ele>
        <time>2018-07-04T14:34:05Z</time>
      </trkpt>
      <trkpt lat="49.713401980698109" lon="-1.930733006447554">
        <ele>51.090000000000003</ele>
        <time>2018-07-04T14:34:06Z</time>
      </trkpt>
      <trkpt lat="49.713325034826994" lon="-1.930690007284284">
        <ele>51.57</ele>
        <time>2018-07-04T14:34:07Z</time>
      </trkpt>
      <trkpt lat="49.71325202845037" lon="-1.930650025606155">
        <ele>51.57</ele>
        <time>2018-07-04T14:34:08Z</time>
      </trkpt>
      <trkpt lat="49.713173992931843" lon="-1.930643990635872">
        <ele>52.049999999999997</ele>
        <time>2018-07-04T14:34:09Z</time>
      </trkpt>
      <trkpt lat="49.713101992383599" lon="-1.930662011727691">
        <ele>52.530000000000001</ele>
        <time>2018-07-04T14:34:10Z</time>
      </trkpt>
      <trkpt lat="49.713027980178595" lon="-1.930686989799142">
        <ele>52.530000000000001</ele>
        <time>2018-07-04T14:34:11Z</time>
      </trkpt>
      <trkpt lat="49.712963020429015" lon="-1.93072303198278">
        <ele>53.009999999999998</ele>
        <time>2018-07-04T14:34:12Z</time>
      </trkpt>
      <trkpt lat="49.712635036557913" lon="-1.930966023355722">
        <ele>53.969999999999999</ele>
        <time>2018-07-04T14:34:17Z</time>
      </trkpt>
      <trkpt lat="49.712435966357589" lon="-1.931146988645196">
        <ele>54.93</ele>
        <time>2018-07-04T14:34:20Z</time>
      </trkpt>
      <trkpt lat="49.712368994951248" lon="-1.931208008900285">
        <ele>54.93</ele>
        <time>2018-07-04T14:34:21Z</time>
      </trkpt>
      <trkpt lat="49.712298000231385" lon="-1.931272968649864">
        <ele>55.409999999999997</ele>
        <time>2018-07-04T14:34:22Z</time>
      </trkpt>
      <trkpt lat="49.712227005511522" lon="-1.931337006390095">
        <ele>55.890000000000001</ele>
        <time>2018-07-04T14:34:23Z</time>
      </trkpt>
      <trkpt lat="49.712158022448421" lon="-1.931400038301945">
        <ele>56.859999999999999</ele>
        <time>2018-07-04T14:34:24Z</time>
      </trkpt>
      <trkpt lat="49.712089039385319" lon="-1.931463992223144">
        <ele>57.340000000000003</ele>
        <time>2018-07-04T14:34:25Z</time>
      </trkpt>
      <trkpt lat="49.711628034710884" lon="-1.931875962764025">
        <ele>61.18</ele>
        <time>2018-07-04T14:34:32Z</time>
      </trkpt>
      <trkpt lat="49.71155796200037" lon="-1.931920973584056">
        <ele>61.659999999999997</ele>
        <time>2018-07-04T14:34:33Z</time>
      </trkpt>
      <trkpt lat="49.710734020918608" lon="-1.932096993550658">
        <ele>69.349999999999994</ele>
        <time>2018-07-04T14:34:44Z</time>
      </trkpt>
      <trkpt lat="49.710407964885235" lon="-1.932092970237136">
        <ele>71.269999999999996</ele>
        <time>2018-07-04T14:34:48Z</time>
      </trkpt>
      <trkpt lat="49.709521997720003" lon="-1.932021975517273">
        <ele>75.599999999999994</ele>
        <time>2018-07-04T14:34:58Z</time>
      </trkpt>
      <trkpt lat="49.709274983033538" lon="-1.932005966082215">
        <ele>76.079999999999998</ele>
        <time>2018-07-04T14:35:01Z</time>
      </trkpt>
      <trkpt lat="49.709223015233874" lon="-1.932005966082215">
        <ele>76.560000000000002</ele>
        <time>2018-07-04T14:35:02Z</time>
      </trkpt>
      <trkpt lat="49.709166018292308" lon="-1.932135969400406">
        <ele>76.560000000000002</ele>
        <time>2018-07-04T14:35:03Z</time>
      </trkpt>
      <trkpt lat="49.709166018292308" lon="-1.932219034060836">
        <ele>77.040000000000006</ele>
        <time>2018-07-04T14:35:04Z</time>
      </trkpt>
      <trkpt lat="49.709166018292308" lon="-1.932323975488544">
        <ele>77.040000000000006</ele>
        <time>2018-07-04T14:35:05Z</time>
      </trkpt>
      <trkpt lat="49.709166018292308" lon="-1.932446015998721">
        <ele>77.519999999999996</ele>
        <time>2018-07-04T14:35:06Z</time>
      </trkpt>
      <trkpt lat="49.709141040220857" lon="-1.933203991502523">
        <ele>78.480000000000004</ele>
        <time>2018-07-04T14:35:11Z</time>
      </trkpt>
      <trkpt lat="49.709108015522361" lon="-1.933319997042418">
        <ele>78.480000000000004</ele>
        <time>2018-07-04T14:35:12Z</time>
      </trkpt>
      <trkpt lat="49.70904297195375" lon="-1.933439020067453">
        <ele>78.480000000000004</ele>
        <time>2018-07-04T14:35:13Z</time>
      </trkpt>
      <trkpt lat="49.708579033613205" lon="-1.934211999177933">
        <ele>79.930000000000007</ele>
        <time>2018-07-04T14:35:18Z</time>
      </trkpt>
      <trkpt lat="49.708450036123395" lon="-1.934319958090782">
        <ele>79.930000000000007</ele>
        <time>2018-07-04T14:35:19Z</time>
      </trkpt>
      <trkpt lat="49.708317015320063" lon="-1.934432024136186">
        <ele>80.409999999999997</ele>
        <time>2018-07-04T14:35:20Z</time>
      </trkpt>
      <trkpt lat="49.70751503482461" lon="-1.93506795912981">
        <ele>76.560000000000002</ele>
        <time>2018-07-04T14:35:26Z</time>
      </trkpt>
      <trkpt lat="49.707382014021277" lon="-1.935100983828306">
        <ele>75.599999999999994</ele>
        <time>2018-07-04T14:35:27Z</time>
      </trkpt>
      <trkpt lat="49.70616303384304" lon="-1.935398038476706">
        <ele>74.159999999999997</ele>
        <time>2018-07-04T14:35:34Z</time>
      </trkpt>
      <trkpt lat="49.705252004787326" lon="-1.935803974047303">
        <ele>74.159999999999997</ele>
        <time>2018-07-04T14:35:40Z</time>
      </trkpt>
      <trkpt lat="49.704357990995049" lon="-1.936445022001863">
        <ele>76.079999999999998</ele>
        <time>2018-07-04T14:35:47Z</time>
      </trkpt>
      <trkpt lat="49.703304972499609" lon="-1.936691030859947">
        <ele>77.040000000000006</ele>
        <time>2018-07-04T14:35:54Z</time>
      </trkpt>
      <trkpt lat="49.702688986435533" lon="-1.936834026128054">
        <ele>77.519999999999996</ele>
        <time>2018-07-04T14:35:59Z</time>
      </trkpt>
      <trkpt lat="49.702581027522683" lon="-1.93687099032104">
        <ele>77.519999999999996</ele>
        <time>2018-07-04T14:36:00Z</time>
      </trkpt>
      <trkpt lat="49.702486982569098" lon="-1.936951959505677">
        <ele>78</ele>
        <time>2018-07-04T14:36:01Z</time>
      </trkpt>
      <trkpt lat="49.702385980635881" lon="-1.937038041651249">
        <ele>78.480000000000004</ele>
        <time>2018-07-04T14:36:02Z</time>
      </trkpt>
      <trkpt lat="49.702278021723032" lon="-1.937130996957421">
        <ele>78.969999999999999</ele>
        <time>2018-07-04T14:36:03Z</time>
      </trkpt>
      <trkpt lat="49.701791033148766" lon="-1.937480019405484">
        <ele>79.450000000000003</ele>
        <time>2018-07-04T14:36:07Z</time>
      </trkpt>
      <trkpt lat="49.701659018173814" lon="-1.937550008296967">
        <ele>79.930000000000007</ele>
        <time>2018-07-04T14:36:08Z</time>
      </trkpt>
      <trkpt lat="49.701246041804552" lon="-1.937615973874927">
        <ele>78.480000000000004</ele>
        <time>2018-07-04T14:36:11Z</time>
      </trkpt>
      <trkpt lat="49.701106986030936" lon="-1.937624020501971">
        <ele>78</ele>
        <time>2018-07-04T14:36:12Z</time>
      </trkpt>
      <trkpt lat="49.700116999447346" lon="-1.937552019953728">
        <ele>75.599999999999994</ele>
        <time>2018-07-04T14:36:20Z</time>
      </trkpt>
      <trkpt lat="49.699925975874066" lon="-1.937570041045547">
        <ele>75.120000000000005</ele>
        <time>2018-07-04T14:36:22Z</time>
      </trkpt>
      <trkpt lat="49.699834026396275" lon="-1.937615973874927">
        <ele>75.120000000000005</ele>
        <time>2018-07-04T14:36:23Z</time>
      </trkpt>
      <trkpt lat="49.699746016412973" lon="-1.937672970816493">
        <ele>74.640000000000001</ele>
        <time>2018-07-04T14:36:24Z</time>
      </trkpt>
      <trkpt lat="49.699668986722827" lon="-1.937762992456555">
        <ele>74.640000000000001</ele>
        <time>2018-07-04T14:36:25Z</time>
      </trkpt>
      <trkpt lat="49.699592040851712" lon="-1.937851002439857">
        <ele>74.640000000000001</ele>
        <time>2018-07-04T14:36:26Z</time>
      </trkpt>
      <trkpt lat="49.699397999793291" lon="-1.938174040988088">
        <ele>75.599999999999994</ele>
        <time>2018-07-04T14:36:29Z</time>
      </trkpt>
      <trkpt lat="49.699335973709822" lon="-1.938313012942672">
        <ele>76.560000000000002</ele>
        <time>2018-07-04T14:36:30Z</time>
      </trkpt>
      <trkpt lat="49.699271013960242" lon="-1.938461037352681">
        <ele>77.040000000000006</ele>
        <time>2018-07-04T14:36:31Z</time>
      </trkpt>
      <trkpt lat="49.699150985106826" lon="-1.938729006797075">
        <ele>78.480000000000004</ele>
        <time>2018-07-04T14:36:33Z</time>
      </trkpt>
      <trkpt lat="49.699085019528866" lon="-1.938837971538305">
        <ele>78.969999999999999</ele>
        <time>2018-07-04T14:36:34Z</time>
      </trkpt>
      <trkpt lat="49.699013018980622" lon="-1.938950959593058">
        <ele>79.930000000000007</ele>
        <time>2018-07-04T14:36:35Z</time>
      </trkpt>
      <trkpt lat="49.698926014825702" lon="-1.939013991504908">
        <ele>80.409999999999997</ele>
        <time>2018-07-04T14:36:36Z</time>
      </trkpt>
      <trkpt lat="49.698826018720865" lon="-1.939064031466842">
        <ele>80.890000000000001</ele>
        <time>2018-07-04T14:36:37Z</time>
      </trkpt>
      <trkpt lat="49.698731973767281" lon="-1.939110970124602">
        <ele>81.370000000000005</ele>
        <time>2018-07-04T14:36:38Z</time>
      </trkpt>
      <trkpt lat="49.698654022067785" lon="-1.939112981781364">
        <ele>81.849999999999994</ele>
        <time>2018-07-04T14:36:39Z</time>
      </trkpt>
      <trkpt lat="49.698570035398006" lon="-1.939075011759996">
        <ele>81.849999999999994</ele>
        <time>2018-07-04T14:36:40Z</time>
      </trkpt>
      <trkpt lat="49.69849300570786" lon="-1.939041987061501">
        <ele>82.329999999999998</ele>
        <time>2018-07-04T14:36:41Z</time>
      </trkpt>
      <trkpt lat="49.698441959917545" lon="-1.939019020646811">
        <ele>82.329999999999998</ele>
        <time>2018-07-04T14:36:42Z</time>
      </trkpt>
      <trkpt lat="49.698410024866462" lon="-1.939005022868514">
        <ele>81.849999999999994</ele>
        <time>2018-07-04T14:36:50Z</time>
      </trkpt>
      <trkpt lat="49.698229981586337" lon="-1.938907038420439">
        <ele>81.849999999999994</ele>
        <time>2018-07-04T14:37:13Z</time>
      </trkpt>
      <trkpt lat="49.698029989376664" lon="-1.938787009567022">
        <ele>82.810000000000002</ele>
        <time>2018-07-04T14:37:26Z</time>
      </trkpt>
      <trkpt lat="49.698029989376664" lon="-1.938787009567022">
        <ele>82.810000000000002</ele>
        <time>2018-07-04T14:38:08Z</time>
      </trkpt>
      <trkpt lat="49.697742993012071" lon="-1.938615012913942">
        <ele>78.969999999999999</ele>
        <time>2018-07-04T14:38:16Z</time>
      </trkpt>
      <trkpt lat="49.697599997743964" lon="-1.938529014587402">
        <ele>77.519999999999996</ele>
        <time>2018-07-04T14:38:18Z</time>
      </trkpt>
      <trkpt lat="49.697523973882198" lon="-1.938412003219128">
        <ele>76.079999999999998</ele>
        <time>2018-07-04T14:38:19Z</time>
      </trkpt>
      <trkpt lat="49.697447028011084" lon="-1.938292980194092">
        <ele>74.640000000000001</ele>
        <time>2018-07-04T14:38:20Z</time>
      </trkpt>
      <trkpt lat="49.696932965889573" lon="-1.937501979991794">
        <ele>66.950000000000003</ele>
        <time>2018-07-04T14:38:25Z</time>
      </trkpt>
      <trkpt lat="49.696821989491582" lon="-1.937329983338714">
        <ele>65.510000000000005</ele>
        <time>2018-07-04T14:38:26Z</time>
      </trkpt>
      <trkpt lat="49.69627900980413" lon="-1.936577036976814">
        <ele>61.18</ele>
        <time>2018-07-04T14:38:31Z</time>
      </trkpt>
      <trkpt lat="49.696158980950713" lon="-1.936497995629907">
        <ele>60.219999999999999</ele>
        <time>2018-07-04T14:38:32Z</time>
      </trkpt>
      <trkpt lat="49.696039035916328" lon="-1.93641996011138">
        <ele>58.780000000000001</ele>
        <time>2018-07-04T14:38:33Z</time>
      </trkpt>
      <trkpt lat="49.695800989866257" lon="-1.936258021742106">
        <ele>56.859999999999999</ele>
        <time>2018-07-04T14:38:35Z</time>
      </trkpt>
      <trkpt lat="49.695689007639885" lon="-1.936151990666986">
        <ele>55.890000000000001</ele>
        <time>2018-07-04T14:38:36Z</time>
      </trkpt>
      <trkpt lat="49.695234959945083" lon="-1.935762986540794">
        <ele>54.450000000000003</ele>
        <time>2018-07-04T14:38:40Z</time>
      </trkpt>
      <trkpt lat="49.69512096606195" lon="-1.935698026791215">
        <ele>53.969999999999999</ele>
        <time>2018-07-04T14:38:41Z</time>
      </trkpt>
      <trkpt lat="49.695004038512707" lon="-1.935631977394223">
        <ele>53.490000000000002</ele>
        <time>2018-07-04T14:38:42Z</time>
      </trkpt>
      <trkpt lat="49.694885015487671" lon="-1.935628037899733">
        <ele>53.009999999999998</ele>
        <time>2018-07-04T14:38:43Z</time>
      </trkpt>
      <trkpt lat="49.694756017997861" lon="-1.93562300875783">
        <ele>52.530000000000001</ele>
        <time>2018-07-04T14:38:44Z</time>
      </trkpt>
      <trkpt lat="49.69462601467967" lon="-1.935617979615927">
        <ele>52.049999999999997</ele>
        <time>2018-07-04T14:38:45Z</time>
      </trkpt>
      <trkpt lat="49.694381011649966" lon="-1.935593001544476">
        <ele>50.130000000000003</ele>
        <time>2018-07-04T14:38:47Z</time>
      </trkpt>
      <trkpt lat="49.694259976968169" lon="-1.935544973239303">
        <ele>49.649999999999999</ele>
        <time>2018-07-04T14:38:48Z</time>
      </trkpt>
      <trkpt lat="49.693256998434663" lon="-1.935246996581554">
        <ele>41.469999999999999</ele>
        <time>2018-07-04T14:38:55Z</time>
      </trkpt>
      <trkpt lat="49.692736985161901" lon="-1.935139959678054">
        <ele>36.670000000000002</ele>
        <time>2018-07-04T14:38:59Z</time>
      </trkpt>
      <trkpt lat="49.692596001550555" lon="-1.935165021568537">
        <ele>35.229999999999997</ele>
        <time>2018-07-04T14:39:00Z</time>
      </trkpt>
      <trkpt lat="49.691289011389017" lon="-1.935358978807926">
        <ele>22.73</ele>
        <time>2018-07-04T14:39:09Z</time>
      </trkpt>
      <trkpt lat="49.690677970647812" lon="-1.935162004083395">
        <ele>17.440000000000001</ele>
        <time>2018-07-04T14:39:14Z</time>
      </trkpt>
      <trkpt lat="49.690590966492891" lon="-1.935096038505435">
        <ele>16.960000000000001</ele>
        <time>2018-07-04T14:39:15Z</time>
      </trkpt>
      <trkpt lat="49.690530030056834" lon="-1.934998976066709">
        <ele>16</ele>
        <time>2018-07-04T14:39:16Z</time>
      </trkpt>
      <trkpt lat="49.69047898426652" lon="-1.934880036860704">
        <ele>15.52</ele>
        <time>2018-07-04T14:39:17Z</time>
      </trkpt>
      <trkpt lat="49.690431039780378" lon="-1.934740981087089">
        <ele>15.039999999999999</ele>
        <time>2018-07-04T14:39:18Z</time>
      </trkpt>
      <trkpt lat="49.690417964011431" lon="-1.934559009969235">
        <ele>15.039999999999999</ele>
        <time>2018-07-04T14:39:19Z</time>
      </trkpt>
      <trkpt lat="49.690403966233134" lon="-1.934351976960897">
        <ele>15.52</ele>
        <time>2018-07-04T14:39:20Z</time>
      </trkpt>
      <trkpt lat="49.690388962626457" lon="-1.934133041650057">
        <ele>16</ele>
        <time>2018-07-04T14:39:21Z</time>
      </trkpt>
      <trkpt lat="49.690358033403754" lon="-1.933682011440396">
        <ele>17.920000000000002</ele>
        <time>2018-07-04T14:39:23Z</time>
      </trkpt>
      <trkpt lat="49.690270023420453" lon="-1.9331119582057">
        <ele>19.359999999999999</ele>
        <time>2018-07-04T14:39:26Z</time>
      </trkpt>
      <trkpt lat="49.690240016207099" lon="-1.932950019836426">
        <ele>19.84</ele>
        <time>2018-07-04T14:39:27Z</time>
      </trkpt>
      <trkpt lat="49.690169021487236" lon="-1.932858992367983">
        <ele>20.32</ele>
        <time>2018-07-04T14:39:28Z</time>
      </trkpt>
      <trkpt lat="49.69009199179709" lon="-1.932760002091527">
        <ele>20.809999999999999</ele>
        <time>2018-07-04T14:39:29Z</time>
      </trkpt>
      <trkpt lat="49.68998596072197" lon="-1.932700993493199">
        <ele>21.77</ele>
        <time>2018-07-04T14:39:30Z</time>
      </trkpt>
      <trkpt lat="49.689870961010456" lon="-1.932637961581349">
        <ele>22.73</ele>
        <time>2018-07-04T14:39:31Z</time>
      </trkpt>
      <trkpt lat="49.689743975177407" lon="-1.932571996003389">
        <ele>23.690000000000001</ele>
        <time>2018-07-04T14:39:32Z</time>
      </trkpt>
      <trkpt lat="49.689006032422185" lon="-1.93218600936234">
        <ele>28.02</ele>
        <time>2018-07-04T14:39:38Z</time>
      </trkpt>
      <trkpt lat="49.6889119874686" lon="-1.932067992165685">
        <ele>28.5</ele>
        <time>2018-07-04T14:39:39Z</time>
      </trkpt>
      <trkpt lat="49.68882598914206" lon="-1.931933965533972">
        <ele>29.460000000000001</ele>
        <time>2018-07-04T14:39:40Z</time>
      </trkpt>
      <trkpt lat="49.68875901773572" lon="-1.931760963052511">
        <ele>30.420000000000002</ele>
        <time>2018-07-04T14:39:41Z</time>
      </trkpt>
      <trkpt lat="49.688706966117024" lon="-1.931557031348348">
        <ele>31.379999999999999</ele>
        <time>2018-07-04T14:39:42Z</time>
      </trkpt>
      <trkpt lat="49.688661033287644" lon="-1.931336000561714">
        <ele>31.859999999999999</ele>
        <time>2018-07-04T14:39:43Z</time>
      </trkpt>
      <trkpt lat="49.68841896392405" lon="-1.930178962647915">
        <ele>37.630000000000003</ele>
        <time>2018-07-04T14:39:50Z</time>
      </trkpt>
      <trkpt lat="49.68798897229135" lon="-1.928648008033633">
        <ele>45.32</ele>
        <time>2018-07-04T14:40:00Z</time>
      </trkpt>
      <trkpt lat="49.687541965395212" lon="-1.927302964031696">
        <ele>52.530000000000001</ele>
        <time>2018-07-04T14:40:06Z</time>
      </trkpt>
      <trkpt lat="49.687494020909071" lon="-1.92709500901401">
        <ele>53.490000000000002</ele>
        <time>2018-07-04T14:40:07Z</time>
      </trkpt>
      <trkpt lat="49.687400981783867" lon="-1.926692007109523">
        <ele>55.409999999999997</ele>
        <time>2018-07-04T14:40:09Z</time>
      </trkpt>
      <trkpt lat="49.687345996499062" lon="-1.926490003243089">
        <ele>56.369999999999997</ele>
        <time>2018-07-04T14:40:10Z</time>
      </trkpt>
      <trkpt lat="49.687266033142805" lon="-1.926303002983332">
        <ele>57.340000000000003</ele>
        <time>2018-07-04T14:40:11Z</time>
      </trkpt>
      <trkpt lat="49.687008960172534" lon="-1.925814002752304">
        <ele>60.700000000000003</ele>
        <time>2018-07-04T14:40:14Z</time>
      </trkpt>
      <trkpt lat="49.68691298738122" lon="-1.925696991384029">
        <ele>61.659999999999997</ele>
        <time>2018-07-04T14:40:15Z</time>
      </trkpt>
      <trkpt lat="49.686825983226299" lon="-1.92559196613729">
        <ele>62.140000000000001</ele>
        <time>2018-07-04T14:40:16Z</time>
      </trkpt>
      <trkpt lat="49.686735961586237" lon="-1.925535975024104">
        <ele>63.100000000000001</ele>
        <time>2018-07-04T14:40:17Z</time>
      </trkpt>
      <trkpt lat="49.686638982966542" lon="-1.925491970032454">
        <ele>63.100000000000001</ele>
        <time>2018-07-04T14:40:18Z</time>
      </trkpt>
      <trkpt lat="49.686540998518467" lon="-1.925465986132622">
        <ele>63.579999999999998</ele>
        <time>2018-07-04T14:40:19Z</time>
      </trkpt>
      <trkpt lat="49.686431027948856" lon="-1.925481995567679">
        <ele>63.579999999999998</ele>
        <time>2018-07-04T14:40:20Z</time>
      </trkpt>
      <trkpt lat="49.686314016580582" lon="-1.925500016659498">
        <ele>64.069999999999993</ele>
        <time>2018-07-04T14:40:21Z</time>
      </trkpt>
      <trkpt lat="49.686189964413643" lon="-1.925518959760666">
        <ele>64.069999999999993</ele>
        <time>2018-07-04T14:40:22Z</time>
      </trkpt>
      <trkpt lat="49.685926018282771" lon="-1.925559025257826">
        <ele>64.549999999999997</ele>
        <time>2018-07-04T14:40:24Z</time>
      </trkpt>
      <trkpt lat="49.685800038278103" lon="-1.925527006387711">
        <ele>64.549999999999997</ele>
        <time>2018-07-04T14:40:25Z</time>
      </trkpt>
      <trkpt lat="49.685685960575938" lon="-1.925450982525945">
        <ele>64.549999999999997</ele>
        <time>2018-07-04T14:40:26Z</time>
      </trkpt>
      <trkpt lat="49.685584958642721" lon="-1.925352998077869">
        <ele>65.030000000000001</ele>
        <time>2018-07-04T14:40:27Z</time>
      </trkpt>
      <trkpt lat="49.685512958094478" lon="-1.925193993374705">
        <ele>65.510000000000005</ele>
        <time>2018-07-04T14:40:28Z</time>
      </trkpt>
      <trkpt lat="49.685434000566602" lon="-1.925019985064864">
        <ele>66.469999999999999</ele>
        <time>2018-07-04T14:40:29Z</time>
      </trkpt>
      <trkpt lat="49.685372980311513" lon="-1.924827033653855">
        <ele>67.430000000000007</ele>
        <time>2018-07-04T14:40:30Z</time>
      </trkpt>
      <trkpt lat="49.685337021946907" lon="-1.924618994817138">
        <ele>68.390000000000001</ele>
        <time>2018-07-04T14:40:31Z</time>
      </trkpt>
      <trkpt lat="49.685315983369946" lon="-1.924406010657549">
        <ele>69.349999999999994</ele>
        <time>2018-07-04T14:40:32Z</time>
      </trkpt>
      <trkpt lat="49.685302991420031" lon="-1.924198977649212">
        <ele>70.310000000000002</ele>
        <time>2018-07-04T14:40:33Z</time>
      </trkpt>
      <trkpt lat="49.685273990035057" lon="-1.923854984343052">
        <ele>71.760000000000005</ele>
        <time>2018-07-04T14:40:35Z</time>
      </trkpt>
      <trkpt lat="49.685239959508181" lon="-1.923707965761423">
        <ele>72.719999999999999</ele>
        <time>2018-07-04T14:40:36Z</time>
      </trkpt>
      <trkpt lat="49.685185980051756" lon="-1.92356999963522">
        <ele>73.680000000000007</ele>
        <time>2018-07-04T14:40:37Z</time>
      </trkpt>
      <trkpt lat="49.685023035854101" lon="-1.923338994383812">
        <ele>75.599999999999994</ele>
        <time>2018-07-04T14:40:39Z</time>
      </trkpt>
      <trkpt lat="49.684933014214039" lon="-1.923230029642582">
        <ele>76.560000000000002</ele>
        <time>2018-07-04T14:40:40Z</time>
      </trkpt>
      <trkpt lat="49.684823965653777" lon="-1.923146964982152">
        <ele>77.519999999999996</ele>
        <time>2018-07-04T14:40:41Z</time>
      </trkpt>
      <trkpt lat="49.684279980137944" lon="-1.922749998047948">
        <ele>80.890000000000001</ele>
        <time>2018-07-04T14:40:46Z</time>
      </trkpt>
      <trkpt lat="49.684159029275179" lon="-1.922693001106381">
        <ele>81.370000000000005</ele>
        <time>2018-07-04T14:40:47Z</time>
      </trkpt>
      <trkpt lat="49.684025002643466" lon="-1.922693001106381">
        <ele>81.370000000000005</ele>
        <time>2018-07-04T14:40:48Z</time>
      </trkpt>
      <trkpt lat="49.683885024860501" lon="-1.922693001106381">
        <ele>81.849999999999994</ele>
        <time>2018-07-04T14:40:49Z</time>
      </trkpt>
      <trkpt lat="49.683747980743647" lon="-1.922693001106381">
        <ele>82.329999999999998</ele>
        <time>2018-07-04T14:40:50Z</time>
      </trkpt>
      <trkpt lat="49.683605991303921" lon="-1.922693001106381">
        <ele>82.810000000000002</ele>
        <time>2018-07-04T14:40:51Z</time>
      </trkpt>
      <trkpt lat="49.683467019349337" lon="-1.922661988064647">
        <ele>83.769999999999996</ele>
        <time>2018-07-04T14:40:52Z</time>
      </trkpt>
      <trkpt lat="49.683322012424469" lon="-1.922580013051629">
        <ele>84.730000000000004</ele>
        <time>2018-07-04T14:40:53Z</time>
      </trkpt>
      <trkpt lat="49.683172982186079" lon="-1.922497032210231">
        <ele>85.209999999999994</ele>
        <time>2018-07-04T14:40:54Z</time>
      </trkpt>
      <trkpt lat="49.68302596360445" lon="-1.922413967549801">
        <ele>86.180000000000007</ele>
        <time>2018-07-04T14:40:55Z</time>
      </trkpt>
      <trkpt lat="49.682904006913304" lon="-1.922272983938456">
        <ele>87.140000000000001</ele>
        <time>2018-07-04T14:40:56Z</time>
      </trkpt>
      <trkpt lat="49.682789007201791" lon="-1.92210903391242">
        <ele>88.099999999999994</ele>
        <time>2018-07-04T14:40:57Z</time>
      </trkpt>
      <trkpt lat="49.6826780308038" lon="-1.921947011724114">
        <ele>89.060000000000002</ele>
        <time>2018-07-04T14:40:58Z</time>
      </trkpt>
      <trkpt lat="49.682588009163737" lon="-1.921770991757512">
        <ele>90.5</ele>
        <time>2018-07-04T14:40:59Z</time>
      </trkpt>
      <trkpt lat="49.682093979790807" lon="-1.920873960480094">
        <ele>96.269999999999996</ele>
        <time>2018-07-04T14:41:05Z</time>
      </trkpt>
      <trkpt lat="49.682028014212847" lon="-1.920790979638696">
        <ele>96.75</ele>
        <time>2018-07-04T14:41:06Z</time>
      </trkpt>
      <trkpt lat="49.68186498619616" lon="-1.920704981312156">
        <ele>96.269999999999996</ele>
        <time>2018-07-04T14:41:08Z</time>
      </trkpt>
      <trkpt lat="49.681786028668284" lon="-1.920678997412324">
        <ele>96.269999999999996</ele>
        <time>2018-07-04T14:41:09Z</time>
      </trkpt>
      <trkpt lat="49.681688966229558" lon="-1.92069198936224">
        <ele>96.269999999999996</ele>
        <time>2018-07-04T14:41:10Z</time>
      </trkpt>
      <trkpt lat="49.681586036458611" lon="-1.920705987140536">
        <ele>96.75</ele>
        <time>2018-07-04T14:41:11Z</time>
      </trkpt>
      <trkpt lat="49.681495008990169" lon="-1.920717973262072">
        <ele>96.75</ele>
        <time>2018-07-04T14:41:12Z</time>
      </trkpt>
      <trkpt lat="49.681422002613544" lon="-1.920800032094121">
        <ele>97.230000000000004</ele>
        <time>2018-07-04T14:41:13Z</time>
      </trkpt>
      <trkpt lat="49.681356037035584" lon="-1.9208840187639">
        <ele>97.230000000000004</ele>
        <time>2018-07-04T14:41:14Z</time>
      </trkpt>
      <trkpt lat="49.68128495849669" lon="-1.920974040403962">
        <ele>97.709999999999994</ele>
        <time>2018-07-04T14:41:15Z</time>
      </trkpt>
      <trkpt lat="49.680867036804557" lon="-1.921438984572887">
        <ele>101.08</ele>
        <time>2018-07-04T14:41:20Z</time>
      </trkpt>
      <trkpt lat="49.680795958265662" lon="-1.921497993171215">
        <ele>102.04000000000001</ele>
        <time>2018-07-04T14:41:21Z</time>
      </trkpt>
      <trkpt lat="49.680732004344463" lon="-1.921505033969879">
        <ele>102.52</ele>
        <time>2018-07-04T14:41:22Z</time>
      </trkpt>
      <trkpt lat="49.680653968825936" lon="-1.921491036191583">
        <ele>103.48</ele>
        <time>2018-07-04T14:41:23Z</time>
      </trkpt>
      <trkpt lat="49.680567970499396" lon="-1.921475026756525">
        <ele>104.44</ele>
        <time>2018-07-04T14:41:24Z</time>
      </trkpt>
      <trkpt lat="49.680173015221953" lon="-1.921300012618303">
        <ele>108.29000000000001</ele>
        <time>2018-07-04T14:41:28Z</time>
      </trkpt>
      <trkpt lat="49.680077964439988" lon="-1.921256007626653">
        <ele>109.73</ele>
        <time>2018-07-04T14:41:29Z</time>
      </trkpt>
      <trkpt lat="49.679982997477055" lon="-1.921213008463383">
        <ele>110.69</ele>
        <time>2018-07-04T14:41:30Z</time>
      </trkpt>
      <trkpt lat="49.679815024137497" lon="-1.921252990141511">
        <ele>113.56999999999999</ele>
        <time>2018-07-04T14:41:32Z</time>
      </trkpt>
      <trkpt lat="49.679346978664398" lon="-1.921419035643339">
        <ele>118.38</ele>
        <time>2018-07-04T14:41:37Z</time>
      </trkpt>
      <trkpt lat="49.679270032793283" lon="-1.921460023149848">
        <ele>118.86</ele>
        <time>2018-07-04T14:41:38Z</time>
      </trkpt>
      <trkpt lat="49.679211024194956" lon="-1.921491958200932">
        <ele>119.81999999999999</ele>
        <time>2018-07-04T14:41:39Z</time>
      </trkpt>
      <trkpt lat="49.67911496758461" lon="-1.921511990949512">
        <ele>120.3</ele>
        <time>2018-07-04T14:41:40Z</time>
      </trkpt>
      <trkpt lat="49.679037015885115" lon="-1.92152900621295">
        <ele>120.78</ele>
        <time>2018-07-04T14:41:41Z</time>
      </trkpt>
      <trkpt lat="49.678958980366588" lon="-1.921546021476388">
        <ele>121.73999999999999</ele>
        <time>2018-07-04T14:41:42Z</time>
      </trkpt>
      <trkpt lat="49.678873987868428" lon="-1.921563958749175">
        <ele>122.70999999999999</ele>
        <time>2018-07-04T14:41:43Z</time>
      </trkpt>
      <trkpt lat="49.678597971796989" lon="-1.921623973175883">
        <ele>126.06999999999999</ele>
        <time>2018-07-04T14:41:46Z</time>
      </trkpt>
      <trkpt lat="49.678507028147578" lon="-1.921644005924463">
        <ele>127.03</ele>
        <time>2018-07-04T14:41:47Z</time>
      </trkpt>
      <trkpt lat="49.678047029301524" lon="-1.921813990920782">
        <ele>130.40000000000001</ele>
        <time>2018-07-04T14:41:52Z</time>
      </trkpt>
      <trkpt lat="49.677993971854448" lon="-1.921836035326123">
        <ele>130.88</ele>
        <time>2018-07-04T14:41:53Z</time>
      </trkpt>
      <trkpt lat="49.67795399017632" lon="-1.92185296677053">
        <ele>131.36000000000001</ele>
        <time>2018-07-04T14:41:54Z</time>
      </trkpt>
      <trkpt lat="49.677943009883165" lon="-1.921822959557176">
        <ele>131.84</ele>
        <time>2018-07-04T14:41:55Z</time>
      </trkpt>
      <trkpt lat="49.677940998226404" lon="-1.921777026727796">
        <ele>132.80000000000001</ele>
        <time>2018-07-04T14:41:56Z</time>
      </trkpt>
      <trkpt lat="49.677937980741262" lon="-1.921694967895746">
        <ele>133.28</ele>
        <time>2018-07-04T14:41:57Z</time>
      </trkpt>
      <trkpt lat="49.677933035418391" lon="-1.921580974012613">
        <ele>133.75999999999999</ele>
        <time>2018-07-04T14:41:58Z</time>
      </trkpt>
      <trkpt lat="49.677921971306205" lon="-1.921302024275065">
        <ele>134.24000000000001</ele>
        <time>2018-07-04T14:42:00Z</time>
      </trkpt>
      <trkpt lat="49.677879977971315" lon="-1.919838963076472">
        <ele>136.16</ele>
        <time>2018-07-04T14:42:09Z</time>
      </trkpt>
      <trkpt lat="49.677849970757961" lon="-1.91908098757267">
        <ele>135.19999999999999</ele>
        <time>2018-07-04T14:42:15Z</time>
      </trkpt>
      <trkpt lat="49.677836978808045" lon="-1.918831039220095">
        <ele>133.75999999999999</ele>
        <time>2018-07-04T14:42:18Z</time>
      </trkpt>
      <trkpt lat="49.677866986021399" lon="-1.918765995651484">
        <ele>133.75999999999999</ele>
        <time>2018-07-04T14:42:19Z</time>
      </trkpt>
      <trkpt lat="49.677904034033418" lon="-1.918686032295227">
        <ele>133.28</ele>
        <time>2018-07-04T14:42:20Z</time>
      </trkpt>
      <trkpt lat="49.677958013489842" lon="-1.918475981801748">
        <ele>132.31999999999999</ele>
        <time>2018-07-04T14:42:22Z</time>
      </trkpt>
      <trkpt lat="49.677971005439758" lon="-1.918363999575377">
        <ele>131.36000000000001</ele>
        <time>2018-07-04T14:42:23Z</time>
      </trkpt>
      <trkpt lat="49.677983997389674" lon="-1.918246988207102">
        <ele>131.36000000000001</ele>
        <time>2018-07-04T14:42:24Z</time>
      </trkpt>
      <trkpt lat="49.678040994331241" lon="-1.917310981079936">
        <ele>132.80000000000001</ele>
        <time>2018-07-04T14:42:31Z</time>
      </trkpt>
      <trkpt lat="49.678049962967634" lon="-1.916853999719024">
        <ele>134.72</ele>
        <time>2018-07-04T14:42:34Z</time>
      </trkpt>
      <trkpt lat="49.678044011816382" lon="-1.916698012501001">
        <ele>135.68000000000001</ele>
        <time>2018-07-04T14:42:35Z</time>
      </trkpt>
      <trkpt lat="49.678028002381325" lon="-1.916555017232895">
        <ele>136.16</ele>
        <time>2018-07-04T14:42:36Z</time>
      </trkpt>
      <trkpt lat="49.678015010431409" lon="-1.91643800586462">
        <ele>137.13</ele>
        <time>2018-07-04T14:42:37Z</time>
      </trkpt>
      <trkpt lat="49.677966982126236" lon="-1.9163319747895">
        <ele>137.61000000000001</ele>
        <time>2018-07-04T14:42:38Z</time>
      </trkpt>
      <trkpt lat="49.677925994619727" lon="-1.916280006989837">
        <ele>138.56999999999999</ele>
        <time>2018-07-04T14:42:39Z</time>
      </trkpt>
      <trkpt lat="49.677876038476825" lon="-1.916271960362792">
        <ele>139.05000000000001</ele>
        <time>2018-07-04T14:42:40Z</time>
      </trkpt>
      <trkpt lat="49.67782499268651" lon="-1.91626500338316">
        <ele>140.00999999999999</ele>
        <time>2018-07-04T14:42:41Z</time>
      </trkpt>
      <trkpt lat="49.677763972431421" lon="-1.916257962584496">
        <ele>140.97</ele>
        <time>2018-07-04T14:42:42Z</time>
      </trkpt>
      <trkpt lat="49.677697001025081" lon="-1.916248993948102">
        <ele>141.44999999999999</ele>
        <time>2018-07-04T14:42:43Z</time>
      </trkpt>
      <trkpt lat="49.677632041275501" lon="-1.916241031140089">
        <ele>141.93000000000001</ele>
        <time>2018-07-04T14:42:44Z</time>
      </trkpt>
      <trkpt lat="49.677579989656806" lon="-1.916234996169806">
        <ele>142.41</ele>
        <time>2018-07-04T14:42:45Z</time>
      </trkpt>
      <trkpt lat="49.677574960514903" lon="-1.916161989793181">
        <ele>142.88999999999999</ele>
        <time>2018-07-04T14:42:46Z</time>
      </trkpt>
      <trkpt lat="49.67756699770689" lon="-1.916044978424907">
        <ele>142.88999999999999</ele>
        <time>2018-07-04T14:42:47Z</time>
      </trkpt>
      <trkpt lat="49.677560040727258" lon="-1.915905000641942">
        <ele>143.37</ele>
        <time>2018-07-04T14:42:48Z</time>
      </trkpt>
      <trkpt lat="49.677746035158634" lon="-1.914628017693758">
        <ele>142.88999999999999</ele>
        <time>2018-07-04T14:42:54Z</time>
      </trkpt>
      <trkpt lat="49.678231012076139" lon="-1.911907000467181">
        <ele>152.03</ele>
        <time>2018-07-04T14:43:04Z</time>
      </trkpt>
      <trkpt lat="49.678282979875803" lon="-1.911652022972703">
        <ele>153.47</ele>
        <time>2018-07-04T14:43:05Z</time>
      </trkpt>
      <trkpt lat="49.678846998140216" lon="-1.908891024067998">
        <ele>163.08000000000001</ele>
        <time>2018-07-04T14:43:15Z</time>
      </trkpt>
      <trkpt lat="49.67954303137958" lon="-1.905874963849783">
        <ele>167.41</ele>
        <time>2018-07-04T14:43:26Z</time>
      </trkpt>
      <trkpt lat="49.679831033572555" lon="-1.904798978939652">
        <ele>170.28999999999999</ele>
        <time>2018-07-04T14:43:32Z</time>
      </trkpt>
      <trkpt lat="49.680226994678378" lon="-1.903302976861596">
        <ele>173.16999999999999</ele>
        <time>2018-07-04T14:43:38Z</time>
      </trkpt>
      <trkpt lat="49.680664027109742" lon="-1.901669008657336">
        <ele>177.97999999999999</ele>
        <time>2018-07-04T14:43:46Z</time>
      </trkpt>
      <trkpt lat="49.680718006566167" lon="-1.901467004790902">
        <ele>178.94</ele>
        <time>2018-07-04T14:43:48Z</time>
      </trkpt>
      <trkpt lat="49.680712977424264" lon="-1.901364997029305">
        <ele>179.41999999999999</ele>
        <time>2018-07-04T14:43:49Z</time>
      </trkpt>
      <trkpt lat="49.680691016837955" lon="-1.901320992037654">
        <ele>179.41999999999999</ele>
        <time>2018-07-04T14:43:50Z</time>
      </trkpt>
      <trkpt lat="49.680636031553149" lon="-1.901171039789915">
        <ele>179.41999999999999</ele>
        <time>2018-07-04T14:43:51Z</time>
      </trkpt>
      <trkpt lat="49.680556990206242" lon="-1.901141032576561">
        <ele>179.41999999999999</ele>
        <time>2018-07-04T14:43:52Z</time>
      </trkpt>
      <trkpt lat="49.680462023243308" lon="-1.901104990392923">
        <ele>179.41999999999999</ele>
        <time>2018-07-04T14:43:53Z</time>
      </trkpt>
      <trkpt lat="49.679505983367562" lon="-1.900680027902126">
        <ele>177.5</ele>
        <time>2018-07-04T14:44:00Z</time>
      </trkpt>
      <trkpt lat="49.678309969604015" lon="-1.899905037134886">
        <ele>171.25</ele>
        <time>2018-07-04T14:44:08Z</time>
      </trkpt>
      <trkpt lat="49.67752299271524" lon="-1.898685973137617">
        <ele>165.47999999999999</ele>
        <time>2018-07-04T14:44:14Z</time>
      </trkpt>
      <trkpt lat="49.677091995254159" lon="-1.89682200551033">
        <ele>162.59999999999999</ele>
        <time>2018-07-04T14:44:21Z</time>
      </trkpt>
      <trkpt lat="49.676744984462857" lon="-1.894101994112134">
        <ele>166.93000000000001</ele>
        <time>2018-07-04T14:44:31Z</time>
      </trkpt>
      <trkpt lat="49.676246009767056" lon="-1.890286970883608">
        <ele>173.16999999999999</ele>
        <time>2018-07-04T14:44:43Z</time>
      </trkpt>
      <trkpt lat="49.675541007891297" lon="-1.884900005534291">
        <ele>171.72999999999999</ele>
        <time>2018-07-04T14:45:00Z</time>
      </trkpt>
      <trkpt lat="49.674786971881986" lon="-1.880417028442025">
        <ele>173.66</ele>
        <time>2018-07-04T14:45:15Z</time>
      </trkpt>
      <trkpt lat="49.674523025751114" lon="-1.878763027489185">
        <ele>176.53999999999999</ele>
        <time>2018-07-04T14:45:23Z</time>
      </trkpt>
      <trkpt lat="49.674361003562808" lon="-1.87718203291297">
        <ele>180.38</ele>
        <time>2018-07-04T14:45:29Z</time>
      </trkpt>
      <trkpt lat="49.674420012161136" lon="-1.874466966837645">
        <ele>182.31</ele>
        <time>2018-07-04T14:45:37Z</time>
      </trkpt>
      <trkpt lat="49.674394028261304" lon="-1.871580993756652">
        <ele>180.87</ele>
        <time>2018-07-04T14:45:46Z</time>
      </trkpt>
      <trkpt lat="49.67421599663794" lon="-1.868959972634912">
        <ele>180.38</ele>
        <time>2018-07-04T14:45:55Z</time>
      </trkpt>
      <trkpt lat="49.674224965274334" lon="-1.866886960342526">
        <ele>178.46000000000001</ele>
        <time>2018-07-04T14:46:03Z</time>
      </trkpt>
      <trkpt lat="49.674036959186196" lon="-1.865030033513904">
        <ele>178.46000000000001</ele>
        <time>2018-07-04T14:46:10Z</time>
      </trkpt>
      <trkpt lat="49.673361964523792" lon="-1.86296196654439">
        <ele>177.97999999999999</ele>
        <time>2018-07-04T14:46:18Z</time>
      </trkpt>
      <trkpt lat="49.672330990433693" lon="-1.860078005120158">
        <ele>177.5</ele>
        <time>2018-07-04T14:46:28Z</time>
      </trkpt>
      <trkpt lat="49.671649038791656" lon="-1.857379032298923">
        <ele>176.06</ele>
        <time>2018-07-04T14:46:37Z</time>
      </trkpt>
      <trkpt lat="49.670959040522575" lon="-1.854748958721757">
        <ele>175.09999999999999</ele>
        <time>2018-07-04T14:46:46Z</time>
      </trkpt>
      <trkpt lat="49.66994097456336" lon="-1.853192020207644">
        <ele>172.69</ele>
        <time>2018-07-04T14:46:53Z</time>
      </trkpt>
      <trkpt lat="49.668534994125366" lon="-1.852105977013707">
        <ele>170.28999999999999</ele>
        <time>2018-07-04T14:47:00Z</time>
      </trkpt>
      <trkpt lat="49.665946997702122" lon="-1.850190041586757">
        <ele>173.66</ele>
        <time>2018-07-04T14:47:13Z</time>
      </trkpt>
      <trkpt lat="49.66450396925211" lon="-1.84910299256444">
        <ele>174.62</ele>
        <time>2018-07-04T14:47:22Z</time>
      </trkpt>
      <trkpt lat="49.664315963163972" lon="-1.848991010338068">
        <ele>174.13999999999999</ele>
        <time>2018-07-04T14:47:24Z</time>
      </trkpt>
      <trkpt lat="49.664247985929251" lon="-1.84895102865994">
        <ele>174.13999999999999</ele>
        <time>2018-07-04T14:47:25Z</time>
      </trkpt>
      <trkpt lat="49.664184032008052" lon="-1.848912974819541">
        <ele>174.13999999999999</ele>
        <time>2018-07-04T14:47:26Z</time>
      </trkpt>
      <trkpt lat="49.664076995104551" lon="-1.84891196899116">
        <ele>174.13999999999999</ele>
        <time>2018-07-04T14:47:27Z</time>
      </trkpt>
      <trkpt lat="49.663998037576675" lon="-1.848964020609856">
        <ele>174.13999999999999</ele>
        <time>2018-07-04T14:47:28Z</time>
      </trkpt>
      <trkpt lat="49.663911033421755" lon="-1.848991010338068">
        <ele>174.13999999999999</ele>
        <time>2018-07-04T14:47:29Z</time>
      </trkpt>
      <trkpt lat="49.663846995681524" lon="-1.848943987861276">
        <ele>174.13999999999999</ele>
        <time>2018-07-04T14:47:30Z</time>
      </trkpt>
      <trkpt lat="49.663757979869843" lon="-1.8488460034132">
        <ele>174.13999999999999</ele>
        <time>2018-07-04T14:47:31Z</time>
      </trkpt>
      <trkpt lat="49.663746999576688" lon="-1.84873603284359">
        <ele>174.13999999999999</ele>
        <time>2018-07-04T14:47:32Z</time>
      </trkpt>
      <trkpt lat="49.663744987919927" lon="-1.84860996901989">
        <ele>174.13999999999999</ele>
        <time>2018-07-04T14:47:33Z</time>
      </trkpt>
      <trkpt lat="49.663756974041462" lon="-1.848477032035589">
        <ele>174.13999999999999</ele>
        <time>2018-07-04T14:47:34Z</time>
      </trkpt>
      <trkpt lat="49.66372998431325" lon="-1.848344011232257">
        <ele>173.66</ele>
        <time>2018-07-04T14:47:35Z</time>
      </trkpt>
      <trkpt lat="49.663679022341967" lon="-1.848205039277673">
        <ele>173.16999999999999</ele>
        <time>2018-07-04T14:47:36Z</time>
      </trkpt>
      <trkpt lat="49.663620013743639" lon="-1.848044022917748">
        <ele>172.69</ele>
        <time>2018-07-04T14:47:37Z</time>
      </trkpt>
      <trkpt lat="49.663552958518267" lon="-1.847860962152481">
        <ele>172.21000000000001</ele>
        <time>2018-07-04T14:47:38Z</time>
      </trkpt>
      <trkpt lat="49.663478024303913" lon="-1.847657030448318">
        <ele>172.21000000000001</ele>
        <time>2018-07-04T14:47:39Z</time>
      </trkpt>
      <trkpt lat="49.662772016599774" lon="-1.845770012587309">
        <ele>167.88999999999999</ele>
        <time>2018-07-04T14:47:46Z</time>
      </trkpt>
      <trkpt lat="49.661566028371453" lon="-1.842697961255908">
        <ele>160.68000000000001</ele>
        <time>2018-07-04T14:47:56Z</time>
      </trkpt>
      <trkpt lat="49.660117970779538" lon="-1.838782019913197">
        <ele>159.24000000000001</ele>
        <time>2018-07-04T14:48:10Z</time>
      </trkpt>
      <trkpt lat="49.65956199914217" lon="-1.836503986269236">
        <ele>159.24000000000001</ele>
        <time>2018-07-04T14:48:17Z</time>
      </trkpt>
      <trkpt lat="49.658965039998293" lon="-1.832481008023024">
        <ele>167.41</ele>
        <time>2018-07-04T14:48:30Z</time>
      </trkpt>
      <trkpt lat="49.658273030072451" lon="-1.827405011281371">
        <ele>171.72999999999999</ele>
        <time>2018-07-04T14:48:46Z</time>
      </trkpt>
      <trkpt lat="49.657995002344251" lon="-1.824744008481503">
        <ele>170.28999999999999</ele>
        <time>2018-07-04T14:48:54Z</time>
      </trkpt>
      <trkpt lat="49.657874973490834" lon="-1.822402020916343">
        <ele>169.81</ele>
        <time>2018-07-04T14:49:02Z</time>
      </trkpt>
      <trkpt lat="49.65784496627748" lon="-1.821545977145433">
        <ele>169.33000000000001</ele>
        <time>2018-07-04T14:49:08Z</time>
      </trkpt>
      <trkpt lat="49.657783024013042" lon="-1.819740012288094">
        <ele>168.84999999999999</ele>
        <time>2018-07-04T14:49:18Z</time>
      </trkpt>
      <trkpt lat="49.657654026523232" lon="-1.817114967852831">
        <ele>168.37</ele>
        <time>2018-07-04T14:49:31Z</time>
      </trkpt>
      <trkpt lat="49.657374992966652" lon="-1.814796030521393">
        <ele>166.93000000000001</ele>
        <time>2018-07-04T14:49:41Z</time>
      </trkpt>
      <trkpt lat="49.656836036592722" lon="-1.812496036291122">
        <ele>165.47999999999999</ele>
        <time>2018-07-04T14:49:50Z</time>
      </trkpt>
      <trkpt lat="49.656135980039835" lon="-1.81034498848021">
        <ele>165.47999999999999</ele>
        <time>2018-07-04T14:50:00Z</time>
      </trkpt>
      <trkpt lat="49.655797015875578" lon="-1.809285013005137">
        <ele>162.59999999999999</ele>
        <time>2018-07-04T14:50:08Z</time>
      </trkpt>
      <trkpt lat="49.655471965670586" lon="-1.808267030864954">
        <ele>162.12</ele>
        <time>2018-07-04T14:50:18Z</time>
      </trkpt>
      <trkpt lat="49.655091008171439" lon="-1.807060958817601">
        <ele>162.59999999999999</ele>
        <time>2018-07-04T14:50:25Z</time>
      </trkpt>
      <trkpt lat="49.654612988233566" lon="-1.80550997145474">
        <ele>164.03999999999999</ele>
        <time>2018-07-04T14:50:34Z</time>
      </trkpt>
      <trkpt lat="49.654224989935756" lon="-1.804248997941613">
        <ele>166.44999999999999</ele>
        <time>2018-07-04T14:50:43Z</time>
      </trkpt>
      <trkpt lat="49.653572961688042" lon="-1.803047033026815">
        <ele>167.41</ele>
        <time>2018-07-04T14:50:51Z</time>
      </trkpt>
      <trkpt lat="49.653456034138799" lon="-1.802838994190097">
        <ele>166.44999999999999</ele>
        <time>2018-07-04T14:50:53Z</time>
      </trkpt>
      <trkpt lat="49.653411023318768" lon="-1.802760036662221">
        <ele>165.96000000000001</ele>
        <time>2018-07-04T14:50:54Z</time>
      </trkpt>
      <trkpt lat="49.653314966708422" lon="-1.802674038335681">
        <ele>165.96000000000001</ele>
        <time>2018-07-04T14:50:55Z</time>
      </trkpt>
      <trkpt lat="49.653253024443984" lon="-1.802699016407132">
        <ele>165.47999999999999</ele>
        <time>2018-07-04T14:50:56Z</time>
      </trkpt>
      <trkpt lat="49.653174988925457" lon="-1.802729023620486">
        <ele>165.47999999999999</ele>
        <time>2018-07-04T14:50:57Z</time>
      </trkpt>
      <trkpt lat="49.653081027790904" lon="-1.802764981985092">
        <ele>165.47999999999999</ele>
        <time>2018-07-04T14:50:58Z</time>
      </trkpt>
      <trkpt lat="49.652968039736152" lon="-1.802808986976743">
        <ele>165.96000000000001</ele>
        <time>2018-07-04T14:50:59Z</time>
      </trkpt>
      <trkpt lat="49.652706021443009" lon="-1.802861960604787">
        <ele>166.44999999999999</ele>
        <time>2018-07-04T14:51:01Z</time>
      </trkpt>
      <trkpt lat="49.652556991204619" lon="-1.802870007231832">
        <ele>167.41</ele>
        <time>2018-07-04T14:51:02Z</time>
      </trkpt>
      <trkpt lat="49.65105595998466" lon="-1.802803035825491">
        <ele>170.77000000000001</ele>
        <time>2018-07-04T14:51:10Z</time>
      </trkpt>
      <trkpt lat="49.648362016305327" lon="-1.802661968395114">
        <ele>177.02000000000001</ele>
        <time>2018-07-04T14:51:22Z</time>
      </trkpt>
      <trkpt lat="49.645077986642718" lon="-1.802478991448879">
        <ele>179.41999999999999</ele>
        <time>2018-07-04T14:51:38Z</time>
      </trkpt>
      <trkpt lat="49.642765000462532" lon="-1.802349993959069">
        <ele>181.83000000000001</ele>
        <time>2018-07-04T14:51:50Z</time>
      </trkpt>
      <trkpt lat="49.640197036787868" lon="-1.802219990640879">
        <ele>180.87</ele>
        <time>2018-07-04T14:52:03Z</time>
      </trkpt>
      <trkpt lat="49.63781900703907" lon="-1.802090993151069">
        <ele>179.41999999999999</ele>
        <time>2018-07-04T14:52:15Z</time>
      </trkpt>
      <trkpt lat="49.635884966701269" lon="-1.801815982908011">
        <ele>177.02000000000001</ele>
        <time>2018-07-04T14:52:25Z</time>
      </trkpt>
      <trkpt lat="49.63476900011301" lon="-1.80140501819551">
        <ele>174.62</ele>
        <time>2018-07-04T14:52:31Z</time>
      </trkpt>
      <trkpt lat="49.633561000227928" lon="-1.800854997709394">
        <ele>170.28999999999999</ele>
        <time>2018-07-04T14:52:38Z</time>
      </trkpt>
      <trkpt lat="49.632090982049704" lon="-1.800436992198229">
        <ele>170.28999999999999</ele>
        <time>2018-07-04T14:52:46Z</time>
      </trkpt>
      <trkpt lat="49.630393981933594" lon="-1.799998031929135">
        <ele>174.13999999999999</ele>
        <time>2018-07-04T14:52:55Z</time>
      </trkpt>
      <trkpt lat="49.628397999331355" lon="-1.799498973414302">
        <ele>175.09999999999999</ele>
        <time>2018-07-04T14:53:05Z</time>
      </trkpt>
      <trkpt lat="49.626555992290378" lon="-1.798820039257407">
        <ele>171.72999999999999</ele>
        <time>2018-07-04T14:53:15Z</time>
      </trkpt>
      <trkpt lat="49.624852035194635" lon="-1.798267001286149">
        <ele>166.44999999999999</ele>
        <time>2018-07-04T14:53:23Z</time>
      </trkpt>
      <trkpt lat="49.623464997857809" lon="-1.797837009653449">
        <ele>160.19999999999999</ele>
        <time>2018-07-04T14:53:29Z</time>
      </trkpt>
      <trkpt lat="49.622250040993094" lon="-1.797316996380687">
        <ele>152.50999999999999</ele>
        <time>2018-07-04T14:53:37Z</time>
      </trkpt>
      <trkpt lat="49.621627014130354" lon="-1.79706403054297">
        <ele>148.18000000000001</ele>
        <time>2018-07-04T14:53:41Z</time>
      </trkpt>
      <trkpt lat="49.621463986113667" lon="-1.797046009451151">
        <ele>147.22</ele>
        <time>2018-07-04T14:53:42Z</time>
      </trkpt>
      <trkpt lat="49.62129701860249" lon="-1.797063024714589">
        <ele>146.74000000000001</ele>
        <time>2018-07-04T14:53:43Z</time>
      </trkpt>
      <trkpt lat="49.620791003108025" lon="-1.797092026099563">
        <ele>146.25999999999999</ele>
        <time>2018-07-04T14:53:46Z</time>
      </trkpt>
      <trkpt lat="49.620636021718383" lon="-1.797080961987376">
        <ele>146.25999999999999</ele>
        <time>2018-07-04T14:53:47Z</time>
      </trkpt>
      <trkpt lat="49.620486991479993" lon="-1.79702203720808">
        <ele>146.25999999999999</ele>
        <time>2018-07-04T14:53:48Z</time>
      </trkpt>
      <trkpt lat="49.620336033403873" lon="-1.796960011124611">
        <ele>146.74000000000001</ele>
        <time>2018-07-04T14:53:49Z</time>
      </trkpt>
      <trkpt lat="49.620179962366819" lon="-1.79689597338438">
        <ele>146.74000000000001</ele>
        <time>2018-07-04T14:53:50Z</time>
      </trkpt>
      <trkpt lat="49.620024980977178" lon="-1.796825984492898">
        <ele>147.69999999999999</ele>
        <time>2018-07-04T14:53:51Z</time>
      </trkpt>
      <trkpt lat="49.618912031874061" lon="-1.795835997909308">
        <ele>145.78</ele>
        <time>2018-07-04T14:53:59Z</time>
      </trkpt>
      <trkpt lat="49.617617027834058" lon="-1.794865960255265">
        <ele>139.53</ele>
        <time>2018-07-04T14:54:08Z</time>
      </trkpt>
      <trkpt lat="49.617333970963955" lon="-1.794775016605854">
        <ele>138.09</ele>
        <time>2018-07-04T14:54:10Z</time>
      </trkpt>
      <trkpt lat="49.616664005443454" lon="-1.794689018279314">
        <ele>134.24000000000001</ele>
        <time>2018-07-04T14:54:17Z</time>
      </trkpt>
      <trkpt lat="49.616133011877537" lon="-1.794572006911039">
        <ele>130.88</ele>
        <time>2018-07-04T14:54:27Z</time>
      </trkpt>
      <trkpt lat="49.615975013002753" lon="-1.794486008584499">
        <ele>129.91999999999999</ele>
        <time>2018-07-04T14:54:36Z</time>
      </trkpt>
      <trkpt lat="49.615975013002753" lon="-1.794486008584499">
        <ele>130.40000000000001</ele>
        <time>2018-07-04T14:55:08Z</time>
      </trkpt>
      <trkpt lat="49.615723975002766" lon="-1.794350976124406">
        <ele>129.91999999999999</ele>
        <time>2018-07-04T14:55:17Z</time>
      </trkpt>
      <trkpt lat="49.615618027746677" lon="-1.794292973354459">
        <ele>129.43000000000001</ele>
        <time>2018-07-04T14:55:19Z</time>
      </trkpt>
      <trkpt lat="49.615008998662233" lon="-1.793753011152148">
        <ele>127.98999999999999</ele>
        <time>2018-07-04T14:55:28Z</time>
      </trkpt>
      <trkpt lat="49.614713033661246" lon="-1.793331988155842">
        <ele>127.03</ele>
        <time>2018-07-04T14:55:32Z</time>
      </trkpt>
      <trkpt lat="49.614663999527693" lon="-1.793183963745832">
        <ele>126.55</ele>
        <time>2018-07-04T14:55:33Z</time>
      </trkpt>
      <trkpt lat="49.614614965394139" lon="-1.793029988184571">
        <ele>126.06999999999999</ele>
        <time>2018-07-04T14:55:34Z</time>
      </trkpt>
      <trkpt lat="49.614564003422856" lon="-1.792871989309788">
        <ele>125.59</ele>
        <time>2018-07-04T14:55:35Z</time>
      </trkpt>
      <trkpt lat="49.61453097872436" lon="-1.792700998485088">
        <ele>125.11</ele>
        <time>2018-07-04T14:55:36Z</time>
      </trkpt>
      <trkpt lat="49.614512035623193" lon="-1.792466975748539">
        <ele>124.15000000000001</ele>
        <time>2018-07-04T14:55:37Z</time>
      </trkpt>
      <trkpt lat="49.614490997046232" lon="-1.792193977162242">
        <ele>123.19</ele>
        <time>2018-07-04T14:55:38Z</time>
      </trkpt>
      <trkpt lat="49.614404998719692" lon="-1.790171004831791">
        <ele>112.13</ele>
        <time>2018-07-04T14:55:46Z</time>
      </trkpt>
      <trkpt lat="49.614548999816179" lon="-1.788611970841885">
        <ele>103.95999999999999</ele>
        <time>2018-07-04T14:55:54Z</time>
      </trkpt>
      <trkpt lat="49.614541037008166" lon="-1.788424970582128">
        <ele>102.52</ele>
        <time>2018-07-04T14:55:55Z</time>
      </trkpt>
      <trkpt lat="49.61450700648129" lon="-1.788244005292654">
        <ele>101.56</ele>
        <time>2018-07-04T14:55:56Z</time>
      </trkpt>
      <trkpt lat="49.614472975954413" lon="-1.788067985326052">
        <ele>100.59999999999999</ele>
        <time>2018-07-04T14:55:57Z</time>
      </trkpt>
      <trkpt lat="49.614399969577789" lon="-1.78793303668499">
        <ele>99.629999999999995</ele>
        <time>2018-07-04T14:55:58Z</time>
      </trkpt>
      <trkpt lat="49.614323023706675" lon="-1.787789035588503">
        <ele>98.670000000000002</ele>
        <time>2018-07-04T14:55:59Z</time>
      </trkpt>
      <trkpt lat="49.614242976531386" lon="-1.787708988413215">
        <ele>98.189999999999998</ele>
        <time>2018-07-04T14:56:00Z</time>
      </trkpt>
      <trkpt lat="49.614139962941408" lon="-1.787684010341764">
        <ele>97.230000000000004</ele>
        <time>2018-07-04T14:56:01Z</time>
      </trkpt>
      <trkpt lat="49.614022029563785" lon="-1.787660038098693">
        <ele>96.269999999999996</ele>
        <time>2018-07-04T14:56:02Z</time>
      </trkpt>
      <trkpt lat="49.613928990438581" lon="-1.787718962877989">
        <ele>95.790000000000006</ele>
        <time>2018-07-04T14:56:03Z</time>
      </trkpt>
      <trkpt lat="49.613822037354112" lon="-1.787788029760122">
        <ele>95.310000000000002</ele>
        <time>2018-07-04T14:56:04Z</time>
      </trkpt>
      <trkpt lat="49.613713994622231" lon="-1.78791300393641">
        <ele>94.829999999999998</ele>
        <time>2018-07-04T14:56:05Z</time>
      </trkpt>
      <trkpt lat="49.613607963547111" lon="-1.788063962012529">
        <ele>93.870000000000005</ele>
        <time>2018-07-04T14:56:06Z</time>
      </trkpt>
      <trkpt lat="49.612641027197242" lon="-1.789233991876245">
        <ele>88.579999999999998</ele>
        <time>2018-07-04T14:56:13Z</time>
      </trkpt>
      <trkpt lat="49.612028980627656" lon="-1.78969700820744">
        <ele>85.209999999999994</ele>
        <time>2018-07-04T14:56:17Z</time>
      </trkpt>
      <trkpt lat="49.611870981752872" lon="-1.789765991270542">
        <ele>84.25</ele>
        <time>2018-07-04T14:56:18Z</time>
      </trkpt>
      <trkpt lat="49.61171398870647" lon="-1.789774037897587">
        <ele>83.769999999999996</ele>
        <time>2018-07-04T14:56:19Z</time>
      </trkpt>
      <trkpt lat="49.611511984840035" lon="-1.789784012362361">
        <ele>82.810000000000002</ele>
        <time>2018-07-04T14:56:20Z</time>
      </trkpt>
      <trkpt lat="49.611389022320509" lon="-1.789765991270542">
        <ele>81.849999999999994</ele>
        <time>2018-07-04T14:56:21Z</time>
      </trkpt>
      <trkpt lat="49.611056009307504" lon="-1.789715029299259">
        <ele>79.930000000000007</ele>
        <time>2018-07-04T14:56:23Z</time>
      </trkpt>
      <trkpt lat="49.610901027917862" lon="-1.789727015420795">
        <ele>78.969999999999999</ele>
        <time>2018-07-04T14:56:24Z</time>
      </trkpt>
      <trkpt lat="49.61074898019433" lon="-1.789808990433812">
        <ele>78.480000000000004</ele>
        <time>2018-07-04T14:56:25Z</time>
      </trkpt>
      <trkpt lat="49.610592992976308" lon="-1.789892977103591">
        <ele>78</ele>
        <time>2018-07-04T14:56:26Z</time>
      </trkpt>
      <trkpt lat="49.610440023243427" lon="-1.789976041764021">
        <ele>78</ele>
        <time>2018-07-04T14:56:27Z</time>
      </trkpt>
      <trkpt lat="49.609272005036473" lon="-1.791038028895855">
        <ele>78.480000000000004</ele>
        <time>2018-07-04T14:56:35Z</time>
      </trkpt>
      <trkpt lat="49.60898601450026" lon="-1.79124497808516">
        <ele>79.450000000000003</ele>
        <time>2018-07-04T14:56:37Z</time>
      </trkpt>
      <trkpt lat="49.608831033110619" lon="-1.791300969198346">
        <ele>79.450000000000003</ele>
        <time>2018-07-04T14:56:38Z</time>
      </trkpt>
      <trkpt lat="49.608674962073565" lon="-1.79128797724843">
        <ele>79.930000000000007</ele>
        <time>2018-07-04T14:56:39Z</time>
      </trkpt>
      <trkpt lat="49.608529033139348" lon="-1.79126501083374">
        <ele>79.930000000000007</ele>
        <time>2018-07-04T14:56:40Z</time>
      </trkpt>
      <trkpt lat="49.608407998457551" lon="-1.791166020557284">
        <ele>80.409999999999997</ele>
        <time>2018-07-04T14:56:41Z</time>
      </trkpt>
      <trkpt lat="49.608285035938025" lon="-1.791052026674151">
        <ele>80.890000000000001</ele>
        <time>2018-07-04T14:56:42Z</time>
      </trkpt>
      <trkpt lat="49.608160983771086" lon="-1.790935015305877">
        <ele>81.849999999999994</ele>
        <time>2018-07-04T14:56:43Z</time>
      </trkpt>
      <trkpt lat="49.606767995283008" lon="-1.789334993809462">
        <ele>91.459999999999994</ele>
        <time>2018-07-04T14:56:54Z</time>
      </trkpt>
      <trkpt lat="49.606650983914733" lon="-1.789125027135015">
        <ele>92.900000000000006</ele>
        <time>2018-07-04T14:56:55Z</time>
      </trkpt>
      <trkpt lat="49.605818996205926" lon="-1.787039022892714">
        <ele>103.95999999999999</ele>
        <time>2018-07-04T14:57:03Z</time>
      </trkpt>
      <trkpt lat="49.605751018971205" lon="-1.786775998771191">
        <ele>104.92</ele>
        <time>2018-07-04T14:57:04Z</time>
      </trkpt>
      <trkpt lat="49.605683963745832" lon="-1.78651599213481">
        <ele>105.40000000000001</ele>
        <time>2018-07-04T14:57:05Z</time>
      </trkpt>
      <trkpt lat="49.605405014008284" lon="-1.785466996952891">
        <ele>106.36</ele>
        <time>2018-07-04T14:57:09Z</time>
      </trkpt>
      <trkpt lat="49.604592975229025" lon="-1.783837974071503">
        <ele>102.52</ele>
        <time>2018-07-04T14:57:16Z</time>
      </trkpt>
      <trkpt lat="49.603409031406045" lon="-1.782630980014801">
        <ele>102.52</ele>
        <time>2018-07-04T14:57:23Z</time>
      </trkpt>
      <trkpt lat="49.602264985442162" lon="-1.781822964549065">
        <ele>104.92</ele>
        <time>2018-07-04T14:57:30Z</time>
      </trkpt>
      <trkpt lat="49.600924970582128" lon="-1.78099500015378">
        <ele>107.31999999999999</ele>
        <time>2018-07-04T14:57:39Z</time>
      </trkpt>
      <trkpt lat="49.600129025056958" lon="-1.780661987140775">
        <ele>105.40000000000001</ele>
        <time>2018-07-04T14:57:46Z</time>
      </trkpt>
      <trkpt lat="49.599611023440957" lon="-1.780338026583195">
        <ele>103</ele>
        <time>2018-07-04T14:57:51Z</time>
      </trkpt>
      <trkpt lat="49.599496023729444" lon="-1.780236018821597">
        <ele>102.52</ele>
        <time>2018-07-04T14:57:52Z</time>
      </trkpt>
      <trkpt lat="49.599065026268363" lon="-1.779568986967206">
        <ele>98.670000000000002</ele>
        <time>2018-07-04T14:57:58Z</time>
      </trkpt>
      <trkpt lat="49.598977016285062" lon="-1.779486006125808">
        <ele>97.709999999999994</ele>
        <time>2018-07-04T14:57:59Z</time>
      </trkpt>
      <trkpt lat="49.597926009446383" lon="-1.77850398235023">
        <ele>93.870000000000005</ele>
        <time>2018-07-04T14:58:10Z</time>
      </trkpt>
      <trkpt lat="49.597547985613346" lon="-1.778150014579296">
        <ele>93.390000000000001</ele>
        <time>2018-07-04T14:58:14Z</time>
      </trkpt>
      <trkpt lat="49.597471039742231" lon="-1.778026968240738">
        <ele>93.390000000000001</ele>
        <time>2018-07-04T14:58:15Z</time>
      </trkpt>
      <trkpt lat="49.597410019487143" lon="-1.777885984629393">
        <ele>93.870000000000005</ele>
        <time>2018-07-04T14:58:16Z</time>
      </trkpt>
      <trkpt lat="49.597350005060434" lon="-1.777737038210034">
        <ele>93.870000000000005</ele>
        <time>2018-07-04T14:58:17Z</time>
      </trkpt>
      <trkpt lat="49.597284961491823" lon="-1.777575016021729">
        <ele>94.349999999999994</ele>
        <time>2018-07-04T14:58:18Z</time>
      </trkpt>
      <trkpt lat="49.597241962328553" lon="-1.7774279974401">
        <ele>94.829999999999998</ele>
        <time>2018-07-04T14:58:19Z</time>
      </trkpt>
      <trkpt lat="49.596517011523247" lon="-1.775629995390773">
        <ele>100.59999999999999</ele>
        <time>2018-07-04T14:58:31Z</time>
      </trkpt>
      <trkpt lat="49.595959028229117" lon="-1.774740004912019">
        <ele>103.95999999999999</ele>
        <time>2018-07-04T14:58:38Z</time>
      </trkpt>
      <trkpt lat="49.595869006589055" lon="-1.774653000757098">
        <ele>104.44</ele>
        <time>2018-07-04T14:58:39Z</time>
      </trkpt>
      <trkpt lat="49.595773033797741" lon="-1.774582006037235">
        <ele>104.92</ele>
        <time>2018-07-04T14:58:40Z</time>
      </trkpt>
      <trkpt lat="49.595103990286589" lon="-1.774091999977827">
        <ele>106.84</ele>
        <time>2018-07-04T14:58:48Z</time>
      </trkpt>
      <trkpt lat="49.595034001395106" lon="-1.774029973894358">
        <ele>106.84</ele>
        <time>2018-07-04T14:58:49Z</time>
      </trkpt>
      <trkpt lat="49.594969041645527" lon="-1.773946993052959">
        <ele>106.36</ele>
        <time>2018-07-04T14:58:50Z</time>
      </trkpt>
      <trkpt lat="49.594714986160398" lon="-1.7736029997468">
        <ele>104.44</ele>
        <time>2018-07-04T14:58:54Z</time>
      </trkpt>
      <trkpt lat="49.594666035845876" lon="-1.773519013077021">
        <ele>104.44</ele>
        <time>2018-07-04T14:58:55Z</time>
      </trkpt>
      <trkpt lat="49.594622030854225" lon="-1.773442989215255">
        <ele>103.95999999999999</ele>
        <time>2018-07-04T14:58:56Z</time>
      </trkpt>
      <trkpt lat="49.594586994498968" lon="-1.773381968960166">
        <ele>103.95999999999999</ele>
        <time>2018-07-04T14:58:57Z</time>
      </trkpt>
      <trkpt lat="49.594445005059242" lon="-1.773428991436958">
        <ele>103.48</ele>
        <time>2018-07-04T14:58:58Z</time>
      </trkpt>
      <trkpt lat="49.594414997845888" lon="-1.77349797450006">
        <ele>103.48</ele>
        <time>2018-07-04T14:58:59Z</time>
      </trkpt>
      <trkpt lat="49.59437501616776" lon="-1.773587996140122">
        <ele>103.48</ele>
        <time>2018-07-04T14:59:00Z</time>
      </trkpt>
      <trkpt lat="49.594331011176109" lon="-1.77368899807334">
        <ele>103.95999999999999</ele>
        <time>2018-07-04T14:59:01Z</time>
      </trkpt>
      <trkpt lat="49.594279965385795" lon="-1.773807015269995">
        <ele>104.92</ele>
        <time>2018-07-04T14:59:02Z</time>
      </trkpt>
      <trkpt lat="49.593546967953444" lon="-1.775305029004812">
        <ele>108.77</ele>
        <time>2018-07-04T14:59:13Z</time>
      </trkpt>
      <trkpt lat="49.592898963019252" lon="-1.776260985061526">
        <ele>108.77</ele>
        <time>2018-07-04T14:59:22Z</time>
      </trkpt>
      <trkpt lat="49.592858981341124" lon="-1.776324016973376">
        <ele>108.77</ele>
        <time>2018-07-04T14:59:23Z</time>
      </trkpt>
      <trkpt lat="49.59278698079288" lon="-1.77644002251327">
        <ele>109.25</ele>
        <time>2018-07-04T14:59:25Z</time>
      </trkpt>
      <trkpt lat="49.592751022428274" lon="-1.776502970606089">
        <ele>108.77</ele>
        <time>2018-07-04T14:59:26Z</time>
      </trkpt>
      <trkpt lat="49.592432007193565" lon="-1.777248959988356">
        <ele>109.25</ele>
        <time>2018-07-04T14:59:33Z</time>
      </trkpt>
      <trkpt lat="49.591857008635998" lon="-1.778776980936527">
        <ele>110.20999999999999</ele>
        <time>2018-07-04T14:59:48Z</time>
      </trkpt>
      <trkpt lat="49.591396003961563" lon="-1.780009036883712">
        <ele>108.77</ele>
        <time>2018-07-04T14:59:57Z</time>
      </trkpt>
      <trkpt lat="49.59038196131587" lon="-1.782114990055561">
        <ele>112.13</ele>
        <time>2018-07-04T15:00:08Z</time>
      </trkpt>
      <trkpt lat="49.589267000555992" lon="-1.784168975427747">
        <ele>115.98</ele>
        <time>2018-07-04T15:00:18Z</time>
      </trkpt>
      <trkpt lat="49.589182008057833" lon="-1.784375002607703">
        <ele>115.98</ele>
        <time>2018-07-04T15:00:19Z</time>
      </trkpt>
      <trkpt lat="49.589101038873196" lon="-1.784572983160615">
        <ele>115.5</ele>
        <time>2018-07-04T15:00:20Z</time>
      </trkpt>
      <trkpt lat="49.589043958112597" lon="-1.78479703143239">
        <ele>115.5</ele>
        <time>2018-07-04T15:00:21Z</time>
      </trkpt>
      <trkpt lat="49.588721003383398" lon="-1.787277990952134">
        <ele>114.05</ele>
        <time>2018-07-04T15:00:30Z</time>
      </trkpt>
      <trkpt lat="49.588584965094924" lon="-1.788398986682296">
        <ele>113.09</ele>
        <time>2018-07-04T15:00:34Z</time>
      </trkpt>
      <trkpt lat="49.588527968153358" lon="-1.788642983883619">
        <ele>112.61</ele>
        <time>2018-07-04T15:00:35Z</time>
      </trkpt>
      <trkpt lat="49.588463008403778" lon="-1.788876000791788">
        <ele>112.61</ele>
        <time>2018-07-04T15:00:36Z</time>
      </trkpt>
      <trkpt lat="49.588367035612464" lon="-1.78909401409328">
        <ele>112.61</ele>
        <time>2018-07-04T15:00:37Z</time>
      </trkpt>
      <trkpt lat="49.588267039507627" lon="-1.789320996031165">
        <ele>112.61</ele>
        <time>2018-07-04T15:00:38Z</time>
      </trkpt>
      <trkpt lat="49.588141981512308" lon="-1.789527023211122">
        <ele>112.13</ele>
        <time>2018-07-04T15:00:39Z</time>
      </trkpt>
      <trkpt lat="49.587072031572461" lon="-1.790871983394027">
        <ele>112.13</ele>
        <time>2018-07-04T15:00:46Z</time>
      </trkpt>
      <trkpt lat="49.586321013048291" lon="-1.791931036859751">
        <ele>109.25</ele>
        <time>2018-07-04T15:00:52Z</time>
      </trkpt>
      <trkpt lat="49.585325997322798" lon="-1.793786035850644">
        <ele>105.40000000000001</ele>
        <time>2018-07-04T15:01:00Z</time>
      </trkpt>
      <trkpt lat="49.584027975797653" lon="-1.796204969286919">
        <ele>103</ele>
        <time>2018-07-04T15:01:10Z</time>
      </trkpt>
      <trkpt lat="49.583602007478476" lon="-1.796979960054159">
        <ele>103</ele>
        <time>2018-07-04T15:01:16Z</time>
      </trkpt>
      <trkpt lat="49.583240998908877" lon="-1.797455968335271">
        <ele>102.52</ele>
        <time>2018-07-04T15:01:21Z</time>
      </trkpt>
      <trkpt lat="49.583152988925576" lon="-1.797509025782347">
        <ele>101.56</ele>
        <time>2018-07-04T15:01:22Z</time>
      </trkpt>
      <trkpt lat="49.582395013421774" lon="-1.797927031293511">
        <ele>96.269999999999996</ele>
        <time>2018-07-04T15:01:31Z</time>
      </trkpt>
      <trkpt lat="49.582325024530292" lon="-1.797966007143259">
        <ele>95.310000000000002</ele>
        <time>2018-07-04T15:01:32Z</time>
      </trkpt>
      <trkpt lat="49.582142969593406" lon="-1.798066003248096">
        <ele>90.980000000000004</ele>
        <time>2018-07-04T15:01:38Z</time>
      </trkpt>
      <trkpt lat="49.581984970718622" lon="-1.798153007403016">
        <ele>89.060000000000002</ele>
        <time>2018-07-04T15:01:41Z</time>
      </trkpt>
      <trkpt lat="49.581908024847507" lon="-1.798196006566286">
        <ele>89.060000000000002</ele>
        <time>2018-07-04T15:01:42Z</time>
      </trkpt>
      <trkpt lat="49.581154994666576" lon="-1.798578975722194">
        <ele>90.019999999999996</ele>
        <time>2018-07-04T15:01:51Z</time>
      </trkpt>
      <trkpt lat="49.581085005775094" lon="-1.798581993207336">
        <ele>90.5</ele>
        <time>2018-07-04T15:01:52Z</time>
      </trkpt>
      <trkpt lat="49.581015016883612" lon="-1.798581993207336">
        <ele>91.459999999999994</ele>
        <time>2018-07-04T15:01:53Z</time>
      </trkpt>
      <trkpt lat="49.580912003293633" lon="-1.798581993207336">
        <ele>92.420000000000002</ele>
        <time>2018-07-04T15:01:55Z</time>
      </trkpt>
      <trkpt lat="49.580870009958744" lon="-1.798671009019017">
        <ele>92.900000000000006</ele>
        <time>2018-07-04T15:01:56Z</time>
      </trkpt>
      <trkpt lat="49.580870009958744" lon="-1.798736974596977">
        <ele>93.390000000000001</ele>
        <time>2018-07-04T15:01:57Z</time>
      </trkpt>
      <trkpt lat="49.580870009958744" lon="-1.798819033429027">
        <ele>93.870000000000005</ele>
        <time>2018-07-04T15:01:58Z</time>
      </trkpt>
      <trkpt lat="49.580870009958744" lon="-1.798916012048721">
        <ele>93.870000000000005</ele>
        <time>2018-07-04T15:01:59Z</time>
      </trkpt>
      <trkpt lat="49.580870009958744" lon="-1.799023970961571">
        <ele>94.349999999999994</ele>
        <time>2018-07-04T15:02:00Z</time>
      </trkpt>
      <trkpt lat="49.580870009958744" lon="-1.799161015078425">
        <ele>94.349999999999994</ele>
        <time>2018-07-04T15:02:01Z</time>
      </trkpt>
      <trkpt lat="49.580850983038545" lon="-1.799265034496784">
        <ele>94.829999999999998</ele>
        <time>2018-07-04T15:02:02Z</time>
      </trkpt>
      <trkpt lat="49.580801026895642" lon="-1.799528980627656">
        <ele>94.829999999999998</ele>
        <time>2018-07-04T15:02:04Z</time>
      </trkpt>
      <trkpt lat="49.58077403716743" lon="-1.799675999209285">
        <ele>94.829999999999998</ele>
        <time>2018-07-04T15:02:05Z</time>
      </trkpt>
      <trkpt lat="49.580728020519018" lon="-1.800007000565529">
        <ele>94.829999999999998</ele>
        <time>2018-07-04T15:02:07Z</time>
      </trkpt>
      <trkpt lat="49.580658031627536" lon="-1.801947997882962">
        <ele>98.189999999999998</ele>
        <time>2018-07-04T15:02:16Z</time>
      </trkpt>
      <trkpt lat="49.580645961686969" lon="-1.80430700071156">
        <ele>98.189999999999998</ele>
        <time>2018-07-04T15:02:27Z</time>
      </trkpt>
      <trkpt lat="49.580633975565434" lon="-1.804483020678163">
        <ele>97.709999999999994</ele>
        <time>2018-07-04T15:02:28Z</time>
      </trkpt>
      <trkpt lat="49.580660965293646" lon="-1.804661974310875">
        <ele>97.230000000000004</ele>
        <time>2018-07-04T15:02:29Z</time>
      </trkpt>
      <trkpt lat="49.580687033012509" lon="-1.804839000105858">
        <ele>97.230000000000004</ele>
        <time>2018-07-04T15:02:30Z</time>
      </trkpt>
      <trkpt lat="49.580715028569102" lon="-1.805026000365615">
        <ele>97.230000000000004</ele>
        <time>2018-07-04T15:02:31Z</time>
      </trkpt>
      <trkpt lat="49.580744029954076" lon="-1.805222975090146">
        <ele>97.230000000000004</ele>
        <time>2018-07-04T15:02:32Z</time>
      </trkpt>
      <trkpt lat="49.58077403716743" lon="-1.805425984784961">
        <ele>97.230000000000004</ele>
        <time>2018-07-04T15:02:33Z</time>
      </trkpt>
      <trkpt lat="49.580805972218513" lon="-1.805641986429691">
        <ele>97.230000000000004</ele>
        <time>2018-07-04T15:02:34Z</time>
      </trkpt>
      <trkpt lat="49.580803038552403" lon="-1.805858993902803">
        <ele>97.230000000000004</ele>
        <time>2018-07-04T15:02:35Z</time>
      </trkpt>
      <trkpt lat="49.580690972507" lon="-1.807866040617228">
        <ele>97.230000000000004</ele>
        <time>2018-07-04T15:02:44Z</time>
      </trkpt>
      <trkpt lat="49.580276990309358" lon="-1.81008598767221">
        <ele>95.790000000000006</ele>
        <time>2018-07-04T15:02:54Z</time>
      </trkpt>
      <trkpt lat="49.579952023923397" lon="-1.812853021547198">
        <ele>90.5</ele>
        <time>2018-07-04T15:03:06Z</time>
      </trkpt>
      <trkpt lat="49.579627979546785" lon="-1.815130971372128">
        <ele>88.099999999999994</ele>
        <time>2018-07-04T15:03:15Z</time>
      </trkpt>
      <trkpt lat="49.579181978479028" lon="-1.816498981788755">
        <ele>85.689999999999998</ele>
        <time>2018-07-04T15:03:22Z</time>
      </trkpt>
      <trkpt lat="49.579003024846315" lon="-1.816950011998415">
        <ele>84.25</ele>
        <time>2018-07-04T15:03:26Z</time>
      </trkpt>
      <trkpt lat="49.57890797406435" lon="-1.81702402420342">
        <ele>84.25</ele>
        <time>2018-07-04T15:03:27Z</time>
      </trkpt>
      <trkpt lat="49.57884100265801" lon="-1.817075992003083">
        <ele>83.769999999999996</ele>
        <time>2018-07-04T15:03:28Z</time>
      </trkpt>
      <trkpt lat="49.578772019594908" lon="-1.817084038630128">
        <ele>83.290000000000006</ele>
        <time>2018-07-04T15:03:29Z</time>
      </trkpt>
      <trkpt lat="49.578676968812943" lon="-1.817042967304587">
        <ele>83.290000000000006</ele>
        <time>2018-07-04T15:03:30Z</time>
      </trkpt>
      <trkpt lat="49.578568004071712" lon="-1.816995022818446">
        <ele>82.810000000000002</ele>
        <time>2018-07-04T15:03:31Z</time>
      </trkpt>
      <trkpt lat="49.577782033011317" lon="-1.81661800481379">
        <ele>78</ele>
        <time>2018-07-04T15:03:37Z</time>
      </trkpt>
      <trkpt lat="49.577670972794294" lon="-1.816519014537334">
        <ele>77.040000000000006</ele>
        <time>2018-07-04T15:03:38Z</time>
      </trkpt>
      <trkpt lat="49.577555973082781" lon="-1.816416000947356">
        <ele>76.079999999999998</ele>
        <time>2018-07-04T15:03:39Z</time>
      </trkpt>
      <trkpt lat="49.577119024470448" lon="-1.816025990992785">
        <ele>72.719999999999999</ele>
        <time>2018-07-04T15:03:43Z</time>
      </trkpt>
      <trkpt lat="49.577031014487147" lon="-1.815968994051218">
        <ele>72.239999999999995</ele>
        <time>2018-07-04T15:03:44Z</time>
      </trkpt>
      <trkpt lat="49.576943004503846" lon="-1.815935969352722">
        <ele>71.760000000000005</ele>
        <time>2018-07-04T15:03:45Z</time>
      </trkpt>
      <trkpt lat="49.57686304114759" lon="-1.815932029858232">
        <ele>71.269999999999996</ele>
        <time>2018-07-04T15:03:46Z</time>
      </trkpt>
      <trkpt lat="49.576790034770966" lon="-1.815957007929683">
        <ele>71.269999999999996</ele>
        <time>2018-07-04T15:03:47Z</time>
      </trkpt>
      <trkpt lat="49.576727002859116" lon="-1.816007969900966">
        <ele>70.790000000000006</ele>
        <time>2018-07-04T15:03:48Z</time>
      </trkpt>
      <trkpt lat="49.576664976775646" lon="-1.816069995984435">
        <ele>70.790000000000006</ele>
        <time>2018-07-04T15:03:49Z</time>
      </trkpt>
      <trkpt lat="49.576594987884164" lon="-1.816139984875917">
        <ele>70.790000000000006</ele>
        <time>2018-07-04T15:03:50Z</time>
      </trkpt>
      <trkpt lat="49.576516030356288" lon="-1.816218020394445">
        <ele>70.790000000000006</ele>
        <time>2018-07-04T15:03:51Z</time>
      </trkpt>
      <trkpt lat="49.576431959867477" lon="-1.816303012892604">
        <ele>71.269999999999996</ele>
        <time>2018-07-04T15:03:52Z</time>
      </trkpt>
      <trkpt lat="49.576339004561305" lon="-1.816393034532666">
        <ele>71.760000000000005</ele>
        <time>2018-07-04T15:03:53Z</time>
      </trkpt>
      <trkpt lat="49.57622199319303" lon="-1.816429998725653">
        <ele>72.239999999999995</ele>
        <time>2018-07-04T15:03:54Z</time>
      </trkpt>
      <trkpt lat="49.576096013188362" lon="-1.8164689745754">
        <ele>72.239999999999995</ele>
        <time>2018-07-04T15:03:55Z</time>
      </trkpt>
      <trkpt lat="49.57596299238503" lon="-1.81651096791029">
        <ele>73.200000000000003</ele>
        <time>2018-07-04T15:03:56Z</time>
      </trkpt>
      <trkpt lat="49.57531901076436" lon="-1.816822020336986">
        <ele>75.120000000000005</ele>
        <time>2018-07-04T15:04:01Z</time>
      </trkpt>
      <trkpt lat="49.575220020487905" lon="-1.816893015056849">
        <ele>75.120000000000005</ele>
        <time>2018-07-04T15:04:02Z</time>
      </trkpt>
      <trkpt lat="49.57512597553432" lon="-1.816995022818446">
        <ele>75.599999999999994</ele>
        <time>2018-07-04T15:04:03Z</time>
      </trkpt>
      <trkpt lat="49.575076019391418" lon="-1.817144975066185">
        <ele>75.599999999999994</ele>
        <time>2018-07-04T15:04:04Z</time>
      </trkpt>
      <trkpt lat="49.575023967772722" lon="-1.817300040274859">
        <ele>75.599999999999994</ele>
        <time>2018-07-04T15:04:05Z</time>
      </trkpt>
      <trkpt lat="49.574981974437833" lon="-1.817466001957655">
        <ele>75.599999999999994</ele>
        <time>2018-07-04T15:04:06Z</time>
      </trkpt>
      <trkpt lat="49.574959008023143" lon="-1.817646967247129">
        <ele>75.599999999999994</ele>
        <time>2018-07-04T15:04:07Z</time>
      </trkpt>
      <trkpt lat="49.574936041608453" lon="-1.817832039669156">
        <ele>75.599999999999994</ele>
        <time>2018-07-04T15:04:08Z</time>
      </trkpt>
      <trkpt lat="49.57491198554635" lon="-1.818016022443771">
        <ele>75.120000000000005</ele>
        <time>2018-07-04T15:04:09Z</time>
      </trkpt>
      <trkpt lat="49.574602022767067" lon="-1.819426026195288">
        <ele>72.239999999999995</ele>
        <time>2018-07-04T15:04:17Z</time>
      </trkpt>
      <trkpt lat="49.574435977265239" lon="-1.820223983377218">
        <ele>69.829999999999998</ele>
        <time>2018-07-04T15:04:22Z</time>
      </trkpt>
      <trkpt lat="49.574426002800465" lon="-1.82037896476686">
        <ele>69.349999999999994</ele>
        <time>2018-07-04T15:04:23Z</time>
      </trkpt>
      <trkpt lat="49.574375040829182" lon="-1.821039039641619">
        <ele>68.390000000000001</ele>
        <time>2018-07-04T15:04:27Z</time>
      </trkpt>
      <trkpt lat="49.574344027787447" lon="-1.821194021031261">
        <ele>67.909999999999997</ele>
        <time>2018-07-04T15:04:28Z</time>
      </trkpt>
      <trkpt lat="49.574302034452558" lon="-1.82134497910738">
        <ele>67.909999999999997</ele>
        <time>2018-07-04T15:04:29Z</time>
      </trkpt>
      <trkpt lat="49.574248977005482" lon="-1.821481017395854">
        <ele>67.909999999999997</ele>
        <time>2018-07-04T15:04:30Z</time>
      </trkpt>
      <trkpt lat="49.574199020862579" lon="-1.821608003228903">
        <ele>67.430000000000007</ele>
        <time>2018-07-04T15:04:31Z</time>
      </trkpt>
      <trkpt lat="49.573997016996145" lon="-1.82200999930501">
        <ele>66.469999999999999</ele>
        <time>2018-07-04T15:04:35Z</time>
      </trkpt>
      <trkpt lat="49.57392199896276" lon="-1.822089962661266">
        <ele>65.989999999999995</ele>
        <time>2018-07-04T15:04:36Z</time>
      </trkpt>
      <trkpt lat="49.573220014572144" lon="-1.822721036151052">
        <ele>58.780000000000001</ele>
        <time>2018-07-04T15:04:45Z</time>
      </trkpt>
      <trkpt lat="49.573177015408874" lon="-1.82276101782918">
        <ele>57.82</ele>
        <time>2018-07-04T15:04:46Z</time>
      </trkpt>
      <trkpt lat="49.573134016245604" lon="-1.822798987850547">
        <ele>56.859999999999999</ele>
        <time>2018-07-04T15:04:47Z</time>
      </trkpt>
      <trkpt lat="49.573079030960798" lon="-1.822799993678927">
        <ele>55.890000000000001</ele>
        <time>2018-07-04T15:04:48Z</time>
      </trkpt>
      <trkpt lat="49.572994960471988" lon="-1.822785995900631">
        <ele>54.93</ele>
        <time>2018-07-04T15:04:49Z</time>
      </trkpt>
      <trkpt lat="49.572918014600873" lon="-1.822733022272587">
        <ele>53.969999999999999</ele>
        <time>2018-07-04T15:04:50Z</time>
      </trkpt>
      <trkpt lat="49.572821035981178" lon="-1.822664961218834">
        <ele>53.009999999999998</ele>
        <time>2018-07-04T15:04:51Z</time>
      </trkpt>
      <trkpt lat="49.572477964684367" lon="-1.822456000372767">
        <ele>48.200000000000003</ele>
        <time>2018-07-04T15:04:55Z</time>
      </trkpt>
      <trkpt lat="49.572427002713084" lon="-1.822486007586122">
        <ele>47.240000000000002</ele>
        <time>2018-07-04T15:04:56Z</time>
      </trkpt>
      <trkpt lat="49.572377968579531" lon="-1.822514003142715">
        <ele>45.799999999999997</ele>
        <time>2018-07-04T15:04:57Z</time>
      </trkpt>
      <trkpt lat="49.572351984679699" lon="-1.822529006749392">
        <ele>44.840000000000003</ele>
        <time>2018-07-04T15:04:58Z</time>
      </trkpt>
      <trkpt lat="49.572351984679699" lon="-1.822639983147383">
        <ele>43.880000000000003</ele>
        <time>2018-07-04T15:04:59Z</time>
      </trkpt>
      <trkpt lat="49.572351984679699" lon="-1.822735033929348">
        <ele>42.439999999999998</ele>
        <time>2018-07-04T15:05:00Z</time>
      </trkpt>
      <trkpt lat="49.572361037135124" lon="-1.822836035862565">
        <ele>41.469999999999999</ele>
        <time>2018-07-04T15:05:01Z</time>
      </trkpt>
      <trkpt lat="49.572385009378195" lon="-1.822951035574079">
        <ele>40.509999999999998</ele>
        <time>2018-07-04T15:05:02Z</time>
      </trkpt>
      <trkpt lat="49.572466984391212" lon="-1.823366023600102">
        <ele>36.670000000000002</ele>
        <time>2018-07-04T15:05:05Z</time>
      </trkpt>
      <trkpt lat="49.572509983554482" lon="-1.824649041518569">
        <ele>22.25</ele>
        <time>2018-07-04T15:05:15Z</time>
      </trkpt>
      <trkpt lat="49.572449969127774" lon="-1.825723014771938">
        <ele>17.440000000000001</ele>
        <time>2018-07-04T15:05:21Z</time>
      </trkpt>
      <trkpt lat="49.572434965521097" lon="-1.825905991718173">
        <ele>16.960000000000001</ele>
        <time>2018-07-04T15:05:22Z</time>
      </trkpt>
      <trkpt lat="49.572419039905071" lon="-1.826090980321169">
        <ele>16.48</ele>
        <time>2018-07-04T15:05:23Z</time>
      </trkpt>
      <trkpt lat="49.572448963299394" lon="-1.826273035258055">
        <ele>16</ele>
        <time>2018-07-04T15:05:24Z</time>
      </trkpt>
      <trkpt lat="49.572491040453315" lon="-1.826452994719148">
        <ele>15.52</ele>
        <time>2018-07-04T15:05:25Z</time>
      </trkpt>
      <trkpt lat="49.572533033788204" lon="-1.826632032170892">
        <ele>15.52</ele>
        <time>2018-07-04T15:05:26Z</time>
      </trkpt>
      <trkpt lat="49.572572009637952" lon="-1.826798999682069">
        <ele>15.039999999999999</ele>
        <time>2018-07-04T15:05:27Z</time>
      </trkpt>
      <trkpt lat="49.572621965780854" lon="-1.826956998556852">
        <ele>15.039999999999999</ele>
        <time>2018-07-04T15:05:28Z</time>
      </trkpt>
      <trkpt lat="49.572677034884691" lon="-1.827106028795242">
        <ele>15.039999999999999</ele>
        <time>2018-07-04T15:05:29Z</time>
      </trkpt>
      <trkpt lat="49.572868980467319" lon="-1.827625958248973">
        <ele>14.08</ele>
        <time>2018-07-04T15:05:33Z</time>
      </trkpt>
      <trkpt lat="49.572893958538771" lon="-1.827756967395544">
        <ele>13.6</ele>
        <time>2018-07-04T15:05:34Z</time>
      </trkpt>
      <trkpt lat="49.572905022650957" lon="-1.827883031219244">
        <ele>13.119999999999999</ele>
        <time>2018-07-04T15:05:35Z</time>
      </trkpt>
      <trkpt lat="49.572894964367151" lon="-1.828000964596868">
        <ele>13.119999999999999</ele>
        <time>2018-07-04T15:05:36Z</time>
      </trkpt>
      <trkpt lat="49.5728699862957" lon="-1.828114958480001">
        <ele>12.630000000000001</ele>
        <time>2018-07-04T15:05:37Z</time>
      </trkpt>
      <trkpt lat="49.572811983525753" lon="-1.82819701731205">
        <ele>13.119999999999999</ele>
        <time>2018-07-04T15:05:38Z</time>
      </trkpt>
      <trkpt lat="49.572738977149129" lon="-1.828264994546771">
        <ele>13.119999999999999</ele>
        <time>2018-07-04T15:05:39Z</time>
      </trkpt>
      <trkpt lat="49.572659013792872" lon="-1.828336995095015">
        <ele>13.119999999999999</ele>
        <time>2018-07-04T15:05:40Z</time>
      </trkpt>
      <trkpt lat="49.572592964395881" lon="-1.828437997028232">
        <ele>13.119999999999999</ele>
        <time>2018-07-04T15:05:41Z</time>
      </trkpt>
      <trkpt lat="49.572545019909739" lon="-1.828589038923383">
        <ele>13.6</ele>
        <time>2018-07-04T15:05:42Z</time>
      </trkpt>
      <trkpt lat="49.572491962462664" lon="-1.828755000606179">
        <ele>13.6</ele>
        <time>2018-07-04T15:05:43Z</time>
      </trkpt>
      <trkpt lat="49.572436977177858" lon="-1.828930014744401">
        <ele>14.08</ele>
        <time>2018-07-04T15:05:44Z</time>
      </trkpt>
      <trkpt lat="49.572028024122119" lon="-1.830617040395737">
        <ele>15.039999999999999</ele>
        <time>2018-07-04T15:05:53Z</time>
      </trkpt>
      <trkpt lat="49.571799030527472" lon="-1.831777011975646">
        <ele>14.08</ele>
        <time>2018-07-04T15:06:00Z</time>
      </trkpt>
      <trkpt lat="49.57172803580761" lon="-1.832139026373625">
        <ele>12.630000000000001</ele>
        <time>2018-07-04T15:06:03Z</time>
      </trkpt>
      <trkpt lat="49.571499964222312" lon="-1.833579959347844">
        <ele>11.19</ele>
        <time>2018-07-04T15:06:12Z</time>
      </trkpt>
      <trkpt lat="49.57123601809144" lon="-1.835535038262606">
        <ele>11.67</ele>
        <time>2018-07-04T15:06:23Z</time>
      </trkpt>
      <trkpt lat="49.571024961769581" lon="-1.837125001475215">
        <ele>11.67</ele>
        <time>2018-07-04T15:06:34Z</time>
      </trkpt>
      <trkpt lat="49.570878027006984" lon="-1.838283967226744">
        <ele>11.19</ele>
        <time>2018-07-04T15:06:46Z</time>
      </trkpt>
      <trkpt lat="49.570842990651727" lon="-1.838370971381664">
        <ele>11.19</ele>
        <time>2018-07-04T15:06:47Z</time>
      </trkpt>
      <trkpt lat="49.570799991488457" lon="-1.838449006900191">
        <ele>11.19</ele>
        <time>2018-07-04T15:06:48Z</time>
      </trkpt>
      <trkpt lat="49.570754980668426" lon="-1.838527964428067">
        <ele>11.19</ele>
        <time>2018-07-04T15:06:49Z</time>
      </trkpt>
      <trkpt lat="49.570703012868762" lon="-1.838604994118214">
        <ele>11.19</ele>
        <time>2018-07-04T15:06:50Z</time>
      </trkpt>
      <trkpt lat="49.570645010098815" lon="-1.838689986616373">
        <ele>11.67</ele>
        <time>2018-07-04T15:06:51Z</time>
      </trkpt>
      <trkpt lat="49.570015026256442" lon="-1.839602021500468">
        <ele>14.08</ele>
        <time>2018-07-04T15:07:02Z</time>
      </trkpt>
      <trkpt lat="49.569335002452135" lon="-1.840564012527466">
        <ele>14.56</ele>
        <time>2018-07-04T15:07:15Z</time>
      </trkpt>
      <trkpt lat="49.568542996421456" lon="-1.841667992994189">
        <ele>13.6</ele>
        <time>2018-07-04T15:07:28Z</time>
      </trkpt>
      <trkpt lat="49.567631967365742" lon="-1.842955034226179">
        <ele>13.119999999999999</ele>
        <time>2018-07-04T15:07:41Z</time>
      </trkpt>
      <trkpt lat="49.566988991573453" lon="-1.843523997813463">
        <ele>13.119999999999999</ele>
        <time>2018-07-04T15:07:49Z</time>
      </trkpt>
      <trkpt lat="49.566903999075294" lon="-1.843554005026817">
        <ele>13.119999999999999</ele>
        <time>2018-07-04T15:07:50Z</time>
      </trkpt>
      <trkpt lat="49.566837027668953" lon="-1.843578983098269">
        <ele>13.119999999999999</ele>
        <time>2018-07-04T15:07:51Z</time>
      </trkpt>
      <trkpt lat="49.566756980493665" lon="-1.843571020290256">
        <ele>13.119999999999999</ele>
        <time>2018-07-04T15:07:52Z</time>
      </trkpt>
      <trkpt lat="49.566685985773802" lon="-1.843563979491592">
        <ele>12.630000000000001</ele>
        <time>2018-07-04T15:07:53Z</time>
      </trkpt>
      <trkpt lat="49.566611973568797" lon="-1.843551993370056">
        <ele>12.630000000000001</ele>
        <time>2018-07-04T15:07:54Z</time>
      </trkpt>
      <trkpt lat="49.566538967192173" lon="-1.84351603500545">
        <ele>12.15</ele>
        <time>2018-07-04T15:07:55Z</time>
      </trkpt>
      <trkpt lat="49.566224981099367" lon="-1.843443028628826">
        <ele>10.23</ele>
        <time>2018-07-04T15:07:59Z</time>
      </trkpt>
      <trkpt lat="49.566140994429588" lon="-1.84343297034502">
        <ele>9.75</ele>
        <time>2018-07-04T15:08:00Z</time>
      </trkpt>
      <trkpt lat="49.566062036901712" lon="-1.8434530030936">
        <ele>9.27</ele>
        <time>2018-07-04T15:08:01Z</time>
      </trkpt>
      <trkpt lat="49.565984001383185" lon="-1.84349600225687">
        <ele>8.789999999999999</ele>
        <time>2018-07-04T15:08:02Z</time>
      </trkpt>
      <trkpt lat="49.56590797752142" lon="-1.84353799559176">
        <ele>8.789999999999999</ele>
        <time>2018-07-04T15:08:03Z</time>
      </trkpt>
      <trkpt lat="49.565838994458318" lon="-1.843583006411791">
        <ele>8.310000000000001</ele>
        <time>2018-07-04T15:08:04Z</time>
      </trkpt>
      <trkpt lat="49.565763976424932" lon="-1.843643020838499">
        <ele>8.310000000000001</ele>
        <time>2018-07-04T15:08:05Z</time>
      </trkpt>
      <trkpt lat="49.565530037507415" lon="-1.843910990282893">
        <ele>8.789999999999999</ele>
        <time>2018-07-04T15:08:09Z</time>
      </trkpt>
      <trkpt lat="49.565461976453662" lon="-1.843986008316279">
        <ele>8.310000000000001</ele>
        <time>2018-07-04T15:08:10Z</time>
      </trkpt>
      <trkpt lat="49.565175985917449" lon="-1.844301000237465">
        <ele>7.35</ele>
        <time>2018-07-04T15:08:14Z</time>
      </trkpt>
      <trkpt lat="49.56483299843967" lon="-1.844712970778346">
        <ele>7.35</ele>
        <time>2018-07-04T15:08:20Z</time>
      </trkpt>
      <trkpt lat="49.564700983464718" lon="-1.844883961603046">
        <ele>7.83</ele>
        <time>2018-07-04T15:08:23Z</time>
      </trkpt>
      <trkpt lat="49.564650021493435" lon="-1.844950011000037">
        <ele>8.310000000000001</ele>
        <time>2018-07-04T15:08:24Z</time>
      </trkpt>
      <trkpt lat="49.563989024609327" lon="-1.845805970951915">
        <ele>9.75</ele>
        <time>2018-07-04T15:08:35Z</time>
      </trkpt>
      <trkpt lat="49.563398016616702" lon="-1.846578028053045">
        <ele>11.19</ele>
        <time>2018-07-04T15:08:47Z</time>
      </trkpt>
      <trkpt lat="49.563365997746587" lon="-1.846619015559554">
        <ele>11.67</ele>
        <time>2018-07-04T15:08:48Z</time>
      </trkpt>
      <trkpt lat="49.563326016068459" lon="-1.846619015559554">
        <ele>11.67</ele>
        <time>2018-07-04T15:08:49Z</time>
      </trkpt>
      <trkpt lat="49.563290979713202" lon="-1.846610968932509">
        <ele>11.67</ele>
        <time>2018-07-04T15:08:50Z</time>
      </trkpt>
      <trkpt lat="49.563254015520215" lon="-1.846603006124497">
        <ele>11.67</ele>
        <time>2018-07-04T15:08:51Z</time>
      </trkpt>
      <trkpt lat="49.563155025243759" lon="-1.846582973375917">
        <ele>11.67</ele>
        <time>2018-07-04T15:08:53Z</time>
      </trkpt>
      <trkpt lat="49.563100039958954" lon="-1.846570987254381">
        <ele>11.67</ele>
        <time>2018-07-04T15:08:54Z</time>
      </trkpt>
      <trkpt lat="49.562703995034099" lon="-1.846488006412983">
        <ele>11.19</ele>
        <time>2018-07-04T15:09:00Z</time>
      </trkpt>
      <trkpt lat="49.562637023627758" lon="-1.846474008634687">
        <ele>11.67</ele>
        <time>2018-07-04T15:09:01Z</time>
      </trkpt>
      <trkpt lat="49.562573991715908" lon="-1.84646001085639">
        <ele>12.15</ele>
        <time>2018-07-04T15:09:02Z</time>
      </trkpt>
      <trkpt lat="49.56251498311758" lon="-1.846428997814655">
        <ele>12.630000000000001</ele>
        <time>2018-07-04T15:09:03Z</time>
      </trkpt>
      <trkpt lat="49.562467960640788" lon="-1.846389016136527">
        <ele>12.630000000000001</ele>
        <time>2018-07-04T15:09:04Z</time>
      </trkpt>
      <trkpt lat="49.562426973134279" lon="-1.846355991438031">
        <ele>13.119999999999999</ele>
        <time>2018-07-04T15:09:05Z</time>
      </trkpt>
      <trkpt lat="49.562383973971009" lon="-1.846319027245045">
        <ele>13.6</ele>
        <time>2018-07-04T15:09:06Z</time>
      </trkpt>
      <trkpt lat="49.562337035313249" lon="-1.846280973404646">
        <ele>14.08</ele>
        <time>2018-07-04T15:09:07Z</time>
      </trkpt>
      <trkpt lat="49.562249025329947" lon="-1.846247026696801">
        <ele>14.08</ele>
        <time>2018-07-04T15:09:08Z</time>
      </trkpt>
      <trkpt lat="49.562186999246478" lon="-1.846258006989956">
        <ele>14.56</ele>
        <time>2018-07-04T15:09:09Z</time>
      </trkpt>
      <trkpt lat="49.562120027840137" lon="-1.846270998939872">
        <ele>15.039999999999999</ele>
        <time>2018-07-04T15:09:10Z</time>
      </trkpt>
      <trkpt lat="49.562050038948655" lon="-1.846283990889788">
        <ele>15.039999999999999</ele>
        <time>2018-07-04T15:09:11Z</time>
      </trkpt>
      <trkpt lat="49.561285022646189" lon="-1.846227999776602">
        <ele>18.879999999999999</ele>
        <time>2018-07-04T15:09:21Z</time>
      </trkpt>
      <trkpt lat="49.561211010441184" lon="-1.846212996169925">
        <ele>19.359999999999999</ele>
        <time>2018-07-04T15:09:22Z</time>
      </trkpt>
      <trkpt lat="49.561139009892941" lon="-1.846198998391628">
        <ele>19.84</ele>
        <time>2018-07-04T15:09:23Z</time>
      </trkpt>
      <trkpt lat="49.560757968574762" lon="-1.846004035323858">
        <ele>22.25</ele>
        <time>2018-07-04T15:09:29Z</time>
      </trkpt>
      <trkpt lat="49.560507014393806" lon="-1.845813011750579">
        <ele>24.170000000000002</ele>
        <time>2018-07-04T15:09:33Z</time>
      </trkpt>
      <trkpt lat="49.560446999967098" lon="-1.845756014809012">
        <ele>24.649999999999999</ele>
        <time>2018-07-04T15:09:34Z</time>
      </trkpt>
      <trkpt lat="49.560390003025532" lon="-1.845700023695827">
        <ele>25.129999999999999</ele>
        <time>2018-07-04T15:09:35Z</time>
      </trkpt>
      <trkpt lat="49.55985096283257" lon="-1.845117984339595">
        <ele>31.859999999999999</ele>
        <time>2018-07-04T15:09:45Z</time>
      </trkpt>
      <trkpt lat="49.559803018346429" lon="-1.845035003498197">
        <ele>32.82</ele>
        <time>2018-07-04T15:09:46Z</time>
      </trkpt>
      <trkpt lat="49.559757001698017" lon="-1.84495504014194">
        <ele>33.299999999999997</ele>
        <time>2018-07-04T15:09:47Z</time>
      </trkpt>
      <trkpt lat="49.559733029454947" lon="-1.84486803598702">
        <ele>33.780000000000001</ele>
        <time>2018-07-04T15:09:48Z</time>
      </trkpt>
      <trkpt lat="49.559705033898354" lon="-1.844768961891532">
        <ele>34.740000000000002</ele>
        <time>2018-07-04T15:09:49Z</time>
      </trkpt>
      <trkpt lat="49.559677038341761" lon="-1.844667037948966">
        <ele>35.229999999999997</ele>
        <time>2018-07-04T15:09:50Z</time>
      </trkpt>
      <trkpt lat="49.559560026973486" lon="-1.84424601495266">
        <ele>39.07</ele>
        <time>2018-07-04T15:09:54Z</time>
      </trkpt>
      <trkpt lat="49.559519039466977" lon="-1.84414098970592">
        <ele>40.030000000000001</ele>
        <time>2018-07-04T15:09:55Z</time>
      </trkpt>
      <trkpt lat="49.559464976191521" lon="-1.844046022742987">
        <ele>40.509999999999998</ele>
        <time>2018-07-04T15:09:56Z</time>
      </trkpt>
      <trkpt lat="49.55939800478518" lon="-1.843994976952672">
        <ele>41.469999999999999</ele>
        <time>2018-07-04T15:09:57Z</time>
      </trkpt>
      <trkpt lat="49.559327010065317" lon="-1.843952983617783">
        <ele>42.439999999999998</ele>
        <time>2018-07-04T15:09:58Z</time>
      </trkpt>
      <trkpt lat="49.559261966496706" lon="-1.843913001939654">
        <ele>43.399999999999999</ele>
        <time>2018-07-04T15:09:59Z</time>
      </trkpt>
      <trkpt lat="49.559198012575507" lon="-1.843896992504597">
        <ele>44.359999999999999</ele>
        <time>2018-07-04T15:10:00Z</time>
      </trkpt>
      <trkpt lat="49.559137998148799" lon="-1.843891041353345">
        <ele>45.32</ele>
        <time>2018-07-04T15:10:01Z</time>
      </trkpt>
      <trkpt lat="49.55907597206533" lon="-1.843885006383061">
        <ele>46.280000000000001</ele>
        <time>2018-07-04T15:10:02Z</time>
      </trkpt>
      <trkpt lat="49.558999026194215" lon="-1.843876959756017">
        <ele>47.240000000000002</ele>
        <time>2018-07-04T15:10:03Z</time>
      </trkpt>
      <trkpt lat="49.558297041803598" lon="-1.843787021934986">
        <ele>52.049999999999997</ele>
        <time>2018-07-04T15:10:09Z</time>
      </trkpt>
      <trkpt lat="49.558180030435324" lon="-1.843749973922968">
        <ele>53.009999999999998</ele>
        <time>2018-07-04T15:10:10Z</time>
      </trkpt>
      <trkpt lat="49.558077016845345" lon="-1.843675961717963">
        <ele>53.490000000000002</ele>
        <time>2018-07-04T15:10:11Z</time>
      </trkpt>
      <trkpt lat="49.557971991598606" lon="-1.84360102750361">
        <ele>53.969999999999999</ele>
        <time>2018-07-04T15:10:12Z</time>
      </trkpt>
      <trkpt lat="49.557884987443686" lon="-1.843512011691928">
        <ele>54.93</ele>
        <time>2018-07-04T15:10:13Z</time>
      </trkpt>
      <trkpt lat="49.557813992723823" lon="-1.843387959524989">
        <ele>55.409999999999997</ele>
        <time>2018-07-04T15:10:14Z</time>
      </trkpt>
      <trkpt lat="49.55774400383234" lon="-1.843264997005463">
        <ele>55.890000000000001</ele>
        <time>2018-07-04T15:10:15Z</time>
      </trkpt>
      <trkpt lat="49.5573990046978" lon="-1.84265797957778">
        <ele>60.219999999999999</ele>
        <time>2018-07-04T15:10:20Z</time>
      </trkpt>
      <trkpt lat="49.557257015258074" lon="-1.842432003468275">
        <ele>61.18</ele>
        <time>2018-07-04T15:10:22Z</time>
      </trkpt>
      <trkpt lat="49.557172022759914" lon="-1.842340975999832">
        <ele>61.659999999999997</ele>
        <time>2018-07-04T15:10:23Z</time>
      </trkpt>
      <trkpt lat="49.556332994252443" lon="-1.841507982462645">
        <ele>66.469999999999999</ele>
        <time>2018-07-04T15:10:32Z</time>
      </trkpt>
      <trkpt lat="49.556269040331244" lon="-1.841493984684348">
        <ele>66.950000000000003</ele>
        <time>2018-07-04T15:10:33Z</time>
      </trkpt>
      <trkpt lat="49.556224029511213" lon="-1.841484010219574">
        <ele>67.430000000000007</ele>
        <time>2018-07-04T15:10:34Z</time>
      </trkpt>
      <trkpt lat="49.556189998984337" lon="-1.84147696942091">
        <ele>68.390000000000001</ele>
        <time>2018-07-04T15:10:35Z</time>
      </trkpt>
      <trkpt lat="49.556087991222739" lon="-1.841542012989521">
        <ele>68.870000000000005</ele>
        <time>2018-07-04T15:10:36Z</time>
      </trkpt>
      <trkpt lat="49.5560900028795" lon="-1.841596998274326">
        <ele>69.829999999999998</ele>
        <time>2018-07-04T15:10:37Z</time>
      </trkpt>
      <trkpt lat="49.556092014536262" lon="-1.841680984944105">
        <ele>70.310000000000002</ele>
        <time>2018-07-04T15:10:38Z</time>
      </trkpt>
      <trkpt lat="49.556094026193023" lon="-1.841790033504367">
        <ele>70.310000000000002</ele>
        <time>2018-07-04T15:10:39Z</time>
      </trkpt>
      <trkpt lat="49.556096959859133" lon="-1.841917019337416">
        <ele>70.310000000000002</ele>
        <time>2018-07-04T15:10:40Z</time>
      </trkpt>
      <trkpt lat="49.556099977344275" lon="-1.842064037919045">
        <ele>70.310000000000002</ele>
        <time>2018-07-04T15:10:41Z</time>
      </trkpt>
      <trkpt lat="49.556156974285841" lon="-1.843573031947017">
        <ele>67.909999999999997</ele>
        <time>2018-07-04T15:10:48Z</time>
      </trkpt>
      <trkpt lat="49.556550001725554" lon="-1.84527900069952">
        <ele>61.18</ele>
        <time>2018-07-04T15:10:55Z</time>
      </trkpt>
      <trkpt lat="49.556821994483471" lon="-1.846097996458411">
        <ele>58.299999999999997</ele>
        <time>2018-07-04T15:10:59Z</time>
      </trkpt>
      <trkpt lat="49.556908998638391" lon="-1.846279967576265">
        <ele>57.340000000000003</ele>
        <time>2018-07-04T15:11:00Z</time>
      </trkpt>
      <trkpt lat="49.55712198279798" lon="-1.846619015559554">
        <ele>56.859999999999999</ele>
        <time>2018-07-04T15:11:02Z</time>
      </trkpt>
      <trkpt lat="49.557189960032701" lon="-1.84682403691113">
        <ele>56.859999999999999</ele>
        <time>2018-07-04T15:11:03Z</time>
      </trkpt>
      <trkpt lat="49.557266989722848" lon="-1.847054958343506">
        <ele>56.859999999999999</ele>
        <time>2018-07-04T15:11:04Z</time>
      </trkpt>
      <trkpt lat="49.557510986924171" lon="-1.848187018185854">
        <ele>57.82</ele>
        <time>2018-07-04T15:11:09Z</time>
      </trkpt>
      <trkpt lat="49.557525990530849" lon="-1.848407965153456">
        <ele>57.340000000000003</ele>
        <time>2018-07-04T15:11:10Z</time>
      </trkpt>
      <trkpt lat="49.557539988309145" lon="-1.848622960969806">
        <ele>56.859999999999999</ele>
        <time>2018-07-04T15:11:11Z</time>
      </trkpt>
      <trkpt lat="49.557584999129176" lon="-1.849217992275953">
        <ele>54.93</ele>
        <time>2018-07-04T15:11:14Z</time>
      </trkpt>
      <trkpt lat="49.557609977200627" lon="-1.850008992478252">
        <ele>50.609999999999999</ele>
        <time>2018-07-04T15:11:19Z</time>
      </trkpt>
      <trkpt lat="49.55759396776557" lon="-1.850142013281584">
        <ele>50.130000000000003</ele>
        <time>2018-07-04T15:11:20Z</time>
      </trkpt>
      <trkpt lat="49.557544011622667" lon="-1.85026103630662">
        <ele>49.159999999999997</ele>
        <time>2018-07-04T15:11:21Z</time>
      </trkpt>
      <trkpt lat="49.557492965832353" lon="-1.850382992997766">
        <ele>48.68</ele>
        <time>2018-07-04T15:11:22Z</time>
      </trkpt>
      <trkpt lat="49.557440998032689" lon="-1.850506961345673">
        <ele>47.719999999999999</ele>
        <time>2018-07-04T15:11:23Z</time>
      </trkpt>
      <trkpt lat="49.557389030233026" lon="-1.850625984370709">
        <ele>47.240000000000002</ele>
        <time>2018-07-04T15:11:24Z</time>
      </trkpt>
      <trkpt lat="49.556589983403683" lon="-1.851668022572994">
        <ele>39.07</ele>
        <time>2018-07-04T15:11:35Z</time>
      </trkpt>
      <trkpt lat="49.55578900873661" lon="-1.852858001366258">
        <ele>31.859999999999999</ele>
        <time>2018-07-04T15:11:45Z</time>
      </trkpt>
      <trkpt lat="49.554923996329308" lon="-1.854738984256983">
        <ele>29.940000000000001</ele>
        <time>2018-07-04T15:11:57Z</time>
      </trkpt>
      <trkpt lat="49.554187981411815" lon="-1.855997024103999">
        <ele>28.02</ele>
        <time>2018-07-04T15:12:07Z</time>
      </trkpt>
      <trkpt lat="49.553665034472942" lon="-1.856680987402797">
        <ele>23.210000000000001</ele>
        <time>2018-07-04T15:12:16Z</time>
      </trkpt>
      <trkpt lat="49.55361801199615" lon="-1.856731027364731">
        <ele>22.73</ele>
        <time>2018-07-04T15:12:17Z</time>
      </trkpt>
      <trkpt lat="49.553576018661261" lon="-1.856775032356381">
        <ele>22.25</ele>
        <time>2018-07-04T15:12:18Z</time>
      </trkpt>
      <trkpt lat="49.553521033376455" lon="-1.856777966022492">
        <ele>21.77</ele>
        <time>2018-07-04T15:12:19Z</time>
      </trkpt>
      <trkpt lat="49.55346898175776" lon="-1.856780983507633">
        <ele>21.289999999999999</ele>
        <time>2018-07-04T15:12:20Z</time>
      </trkpt>
      <trkpt lat="49.553417013958097" lon="-1.856784000992775">
        <ele>20.809999999999999</ele>
        <time>2018-07-04T15:12:21Z</time>
      </trkpt>
      <trkpt lat="49.553361022844911" lon="-1.856787018477917">
        <ele>20.32</ele>
        <time>2018-07-04T15:12:22Z</time>
      </trkpt>
      <trkpt lat="49.552699020132422" lon="-1.856662966310978">
        <ele>15.039999999999999</ele>
        <time>2018-07-04T15:12:32Z</time>
      </trkpt>
      <trkpt lat="49.552052021026611" lon="-1.856483006849885">
        <ele>9.75</ele>
        <time>2018-07-04T15:12:44Z</time>
      </trkpt>
      <trkpt lat="49.551570983603597" lon="-1.856578979641199">
        <ele>7.35</ele>
        <time>2018-07-04T15:12:55Z</time>
      </trkpt>
      <trkpt lat="49.551441986113787" lon="-1.856641005724669">
        <ele>7.35</ele>
        <time>2018-07-04T15:13:03Z</time>
      </trkpt>
      <trkpt lat="49.551333021372557" lon="-1.856694985181093">
        <ele>9.75</ele>
        <time>2018-07-04T15:13:36Z</time>
      </trkpt>
      <trkpt lat="49.551291028037667" lon="-1.856716023758054">
        <ele>11.19</ele>
        <time>2018-07-04T15:13:48Z</time>
      </trkpt>
      <trkpt lat="49.551115008071065" lon="-1.856804033741355">
        <ele>10.710000000000001</ele>
        <time>2018-07-04T15:14:08Z</time>
      </trkpt>
      <trkpt lat="49.551004031673074" lon="-1.856860024854541">
        <ele>6.87</ele>
        <time>2018-07-04T15:14:19Z</time>
      </trkpt>
      <trkpt lat="49.551004031673074" lon="-1.856860024854541">
        <ele>6.39</ele>
        <time>2018-07-04T15:15:04Z</time>
      </trkpt>
      <trkpt lat="49.550943011417985" lon="-1.856890032067895">
        <ele>6.87</ele>
        <time>2018-07-04T15:15:49Z</time>
      </trkpt>
      <trkpt lat="49.550784006714821" lon="-1.856969995424151">
        <ele>9.27</ele>
        <time>2018-07-04T15:15:59Z</time>
      </trkpt>
      <trkpt lat="49.550685016438365" lon="-1.857019029557705">
        <ele>10.710000000000001</ele>
        <time>2018-07-04T15:16:02Z</time>
      </trkpt>
      <trkpt lat="49.550620978698134" lon="-1.856991034001112">
        <ele>11.19</ele>
        <time>2018-07-04T15:16:03Z</time>
      </trkpt>
      <trkpt lat="49.550560964271426" lon="-1.856922972947359">
        <ele>11.67</ele>
        <time>2018-07-04T15:16:04Z</time>
      </trkpt>
      <trkpt lat="49.550498016178608" lon="-1.856852984055877">
        <ele>11.67</ele>
        <time>2018-07-04T15:16:05Z</time>
      </trkpt>
      <trkpt lat="49.550435990095139" lon="-1.856781989336014">
        <ele>12.15</ele>
        <time>2018-07-04T15:16:06Z</time>
      </trkpt>
      <trkpt lat="49.55037597566843" lon="-1.856714012101293">
        <ele>12.630000000000001</ele>
        <time>2018-07-04T15:16:07Z</time>
      </trkpt>
      <trkpt lat="49.549872977659106" lon="-1.855968022719026">
        <ele>16</ele>
        <time>2018-07-04T15:16:14Z</time>
      </trkpt>
      <trkpt lat="49.548959014937282" lon="-1.854100031778216">
        <ele>26.57</ele>
        <time>2018-07-04T15:16:25Z</time>
      </trkpt>
      <trkpt lat="49.548239009454846" lon="-1.852459022775292">
        <ele>30.420000000000002</ele>
        <time>2018-07-04T15:16:33Z</time>
      </trkpt>
      <trkpt lat="49.547538030892611" lon="-1.849827021360397">
        <ele>19.84</ele>
        <time>2018-07-04T15:16:44Z</time>
      </trkpt>
      <trkpt lat="49.547355975955725" lon="-1.847717966884375">
        <ele>12.15</ele>
        <time>2018-07-04T15:16:53Z</time>
      </trkpt>
      <trkpt lat="49.546830011531711" lon="-1.846450958400965">
        <ele>12.630000000000001</ele>
        <time>2018-07-04T15:17:00Z</time>
      </trkpt>
      <trkpt lat="49.5467200409621" lon="-1.846291031688452">
        <ele>12.630000000000001</ele>
        <time>2018-07-04T15:17:01Z</time>
      </trkpt>
      <trkpt lat="49.545503994449973" lon="-1.845018994063139">
        <ele>15.039999999999999</ele>
        <time>2018-07-04T15:17:09Z</time>
      </trkpt>
      <trkpt lat="49.544303035363555" lon="-1.843419978395104">
        <ele>26.09</ele>
        <time>2018-07-04T15:17:16Z</time>
      </trkpt>
      <trkpt lat="49.542588014155626" lon="-1.841026023030281">
        <ele>35.710000000000001</ele>
        <time>2018-07-04T15:17:27Z</time>
      </trkpt>
      <trkpt lat="49.541093017905951" lon="-1.838263012468815">
        <ele>30.420000000000002</ele>
        <time>2018-07-04T15:17:38Z</time>
      </trkpt>
      <trkpt lat="49.539942014962435" lon="-1.83633903041482">
        <ele>24.649999999999999</ele>
        <time>2018-07-04T15:17:46Z</time>
      </trkpt>
      <trkpt lat="49.538028007373214" lon="-1.83391397818923">
        <ele>26.57</ele>
        <time>2018-07-04T15:17:58Z</time>
      </trkpt>
      <trkpt lat="49.536282978951931" lon="-1.831697970628738">
        <ele>31.859999999999999</ele>
        <time>2018-07-04T15:18:09Z</time>
      </trkpt>
      <trkpt lat="49.534856965765357" lon="-1.830032989382744">
        <ele>34.259999999999998</ele>
        <time>2018-07-04T15:18:20Z</time>
      </trkpt>
      <trkpt lat="49.533451991155744" lon="-1.828555008396506">
        <ele>35.710000000000001</ele>
        <time>2018-07-04T15:18:30Z</time>
      </trkpt>
      <trkpt lat="49.531274037435651" lon="-1.826191982254386">
        <ele>43.880000000000003</ele>
        <time>2018-07-04T15:18:44Z</time>
      </trkpt>
      <trkpt lat="49.52951199375093" lon="-1.824166998267174">
        <ele>51.57</ele>
        <time>2018-07-04T15:18:55Z</time>
      </trkpt>
      <trkpt lat="49.528490994125605" lon="-1.822892026975751">
        <ele>56.859999999999999</ele>
        <time>2018-07-04T15:19:02Z</time>
      </trkpt>
      <trkpt lat="49.527297997847199" lon="-1.82059396058321">
        <ele>55.409999999999997</ele>
        <time>2018-07-04T15:19:12Z</time>
      </trkpt>
      <trkpt lat="49.526430973783135" lon="-1.818499993532896">
        <ele>49.649999999999999</ele>
        <time>2018-07-04T15:19:20Z</time>
      </trkpt>
      <trkpt lat="49.526005005463958" lon="-1.817896999418736">
        <ele>50.609999999999999</ele>
        <time>2018-07-04T15:19:23Z</time>
      </trkpt>
      <trkpt lat="49.525675009936094" lon="-1.817607991397381">
        <ele>52.049999999999997</ele>
        <time>2018-07-04T15:19:25Z</time>
      </trkpt>
      <trkpt lat="49.525510976091027" lon="-1.817464996129274">
        <ele>53.009999999999998</ele>
        <time>2018-07-04T15:19:26Z</time>
      </trkpt>
      <trkpt lat="49.525354988873005" lon="-1.817329963669181">
        <ele>53.969999999999999</ele>
        <time>2018-07-04T15:19:27Z</time>
      </trkpt>
      <trkpt lat="49.523966023698449" lon="-1.816866025328636">
        <ele>62.619999999999997</ele>
        <time>2018-07-04T15:19:35Z</time>
      </trkpt>
      <trkpt lat="49.522530036047101" lon="-1.816297983750701">
        <ele>71.269999999999996</ele>
        <time>2018-07-04T15:19:43Z</time>
      </trkpt>
      <trkpt lat="49.520932026207447" lon="-1.814997028559446">
        <ele>78</ele>
        <time>2018-07-04T15:19:53Z</time>
      </trkpt>
      <trkpt lat="49.519136035814881" lon="-1.813548970967531">
        <ele>81.370000000000005</ele>
        <time>2018-07-04T15:20:04Z</time>
      </trkpt>
      <trkpt lat="49.518444025889039" lon="-1.812612041831017">
        <ele>84.730000000000004</ele>
        <time>2018-07-04T15:20:11Z</time>
      </trkpt>
      <trkpt lat="49.518220983445644" lon="-1.812280034646392">
        <ele>87.620000000000005</ele>
        <time>2018-07-04T15:20:17Z</time>
      </trkpt>
      <trkpt lat="49.518073964864016" lon="-1.812067972496152">
        <ele>89.060000000000002</ele>
        <time>2018-07-04T15:20:22Z</time>
      </trkpt>
      <trkpt lat="49.518013028427958" lon="-1.812007036060095">
        <ele>89.540000000000006</ele>
        <time>2018-07-04T15:20:23Z</time>
      </trkpt>
      <trkpt lat="49.517643973231316" lon="-1.811855994164944">
        <ele>89.540000000000006</ele>
        <time>2018-07-04T15:20:27Z</time>
      </trkpt>
      <trkpt lat="49.516946012154222" lon="-1.811790028586984">
        <ele>91.459999999999994</ele>
        <time>2018-07-04T15:20:36Z</time>
      </trkpt>
      <trkpt lat="49.515767013654113" lon="-1.811892036348581">
        <ele>96.269999999999996</ele>
        <time>2018-07-04T15:20:48Z</time>
      </trkpt>
      <trkpt lat="49.514788007363677" lon="-1.812369972467423">
        <ele>98.670000000000002</ele>
        <time>2018-07-04T15:20:58Z</time>
      </trkpt>
      <trkpt lat="49.514273023232818" lon="-1.812868025153875">
        <ele>102.04000000000001</ele>
        <time>2018-07-04T15:21:04Z</time>
      </trkpt>
      <trkpt lat="49.513370040804148" lon="-1.814208040013909">
        <ele>107.81</ele>
        <time>2018-07-04T15:21:15Z</time>
      </trkpt>
      <trkpt lat="49.51273201033473" lon="-1.815208001062274">
        <ele>109.25</ele>
        <time>2018-07-04T15:21:23Z</time>
      </trkpt>
      <trkpt lat="49.511720985174179" lon="-1.81586698628962">
        <ele>113.56999999999999</ele>
        <time>2018-07-04T15:21:33Z</time>
      </trkpt>
      <trkpt lat="49.511286970227957" lon="-1.815897999331355">
        <ele>116.94</ele>
        <time>2018-07-04T15:21:40Z</time>
      </trkpt>
      <trkpt lat="49.511258974671364" lon="-1.815897999331355">
        <ele>118.38</ele>
        <time>2018-07-04T15:21:47Z</time>
      </trkpt>
      <trkpt lat="49.511174988001585" lon="-1.815894981846213">
        <ele>118.86</ele>
        <time>2018-07-04T15:21:55Z</time>
      </trkpt>
      <trkpt lat="49.510671989992261" lon="-1.815775036811829">
        <ele>121.26000000000001</ele>
        <time>2018-07-04T15:22:02Z</time>
      </trkpt>
      <trkpt lat="49.510438973084092" lon="-1.815649978816509">
        <ele>122.22</ele>
        <time>2018-07-04T15:22:05Z</time>
      </trkpt>
      <trkpt lat="49.5099170319736" lon="-1.815224010497332">
        <ele>124.15000000000001</ele>
        <time>2018-07-04T15:22:12Z</time>
      </trkpt>
      <trkpt lat="49.509735982865095" lon="-1.815057964995503">
        <ele>123.67</ele>
        <time>2018-07-04T15:22:15Z</time>
      </trkpt>
      <trkpt lat="49.509439012035728" lon="-1.814584974199534">
        <ele>122.70999999999999</ele>
        <time>2018-07-04T15:22:21Z</time>
      </trkpt>
      <trkpt lat="49.509343039244413" lon="-1.814277023077011">
        <ele>121.26000000000001</ele>
        <time>2018-07-04T15:22:24Z</time>
      </trkpt>
      <trkpt lat="49.509315965697169" lon="-1.814166968688369">
        <ele>120.78</ele>
        <time>2018-07-04T15:22:25Z</time>
      </trkpt>
      <trkpt lat="49.509305991232395" lon="-1.814066972583532">
        <ele>120.3</ele>
        <time>2018-07-04T15:22:26Z</time>
      </trkpt>
      <trkpt lat="49.509300962090492" lon="-1.81395398452878">
        <ele>119.81999999999999</ele>
        <time>2018-07-04T15:22:27Z</time>
      </trkpt>
      <trkpt lat="49.50929501093924" lon="-1.813838984817267">
        <ele>119.34</ele>
        <time>2018-07-04T15:22:28Z</time>
      </trkpt>
      <trkpt lat="49.509358964860439" lon="-1.81259703822434">
        <ele>115.01000000000001</ele>
        <time>2018-07-04T15:22:39Z</time>
      </trkpt>
      <trkpt lat="49.509457033127546" lon="-1.811227016150951">
        <ele>110.20999999999999</ele>
        <time>2018-07-04T15:22:51Z</time>
      </trkpt>
      <trkpt lat="49.509561974555254" lon="-1.809497997164726">
        <ele>105.88</ele>
        <time>2018-07-04T15:23:06Z</time>
      </trkpt>
      <trkpt lat="49.509588964283466" lon="-1.809059958904982">
        <ele>105.40000000000001</ele>
        <time>2018-07-04T15:23:10Z</time>
      </trkpt>
      <trkpt lat="49.509697007015347" lon="-1.807655990123749">
        <ele>102.52</ele>
        <time>2018-07-04T15:23:23Z</time>
      </trkpt>
      <trkpt lat="49.509731037542224" lon="-1.807176964357495">
        <ele>101.56</ele>
        <time>2018-07-04T15:23:27Z</time>
      </trkpt>
      <trkpt lat="49.509780993685126" lon="-1.80647699162364">
        <ele>99.150000000000006</ele>
        <time>2018-07-04T15:23:33Z</time>
      </trkpt>
      <trkpt lat="49.509798008948565" lon="-1.806242968887091">
        <ele>97.709999999999994</ele>
        <time>2018-07-04T15:23:35Z</time>
      </trkpt>
      <trkpt lat="49.509805971756577" lon="-1.806126041337848">
        <ele>97.230000000000004</ele>
        <time>2018-07-04T15:23:36Z</time>
      </trkpt>
      <trkpt lat="49.509814018383622" lon="-1.806010035797954">
        <ele>96.75</ele>
        <time>2018-07-04T15:23:37Z</time>
      </trkpt>
      <trkpt lat="49.509857017546892" lon="-1.80533797480166">
        <ele>94.829999999999998</ele>
        <time>2018-07-04T15:23:43Z</time>
      </trkpt>
      <trkpt lat="49.509861040860415" lon="-1.805263040587306">
        <ele>94.349999999999994</ele>
        <time>2018-07-04T15:23:44Z</time>
      </trkpt>
      <trkpt lat="49.509763978421688" lon="-1.805163966491818">
        <ele>94.349999999999994</ele>
        <time>2018-07-04T15:23:45Z</time>
      </trkpt>
      <trkpt lat="49.509697007015347" lon="-1.805174024775624">
        <ele>93.870000000000005</ele>
        <time>2018-07-04T15:23:46Z</time>
      </trkpt>
      <trkpt lat="49.509620983153582" lon="-1.80518601089716">
        <ele>93.390000000000001</ele>
        <time>2018-07-04T15:23:47Z</time>
      </trkpt>
      <trkpt lat="49.5095319673419" lon="-1.805199002847076">
        <ele>93.390000000000001</ele>
        <time>2018-07-04T15:23:48Z</time>
      </trkpt>
      <trkpt lat="49.509434988722205" lon="-1.805215012282133">
        <ele>92.900000000000006</ele>
        <time>2018-07-04T15:23:49Z</time>
      </trkpt>
      <trkpt lat="49.509309008717537" lon="-1.805234039202333">
        <ele>92.900000000000006</ele>
        <time>2018-07-04T15:23:50Z</time>
      </trkpt>
      <trkpt lat="49.509220998734236" lon="-1.805218029767275">
        <ele>92.420000000000002</ele>
        <time>2018-07-04T15:23:51Z</time>
      </trkpt>
      <trkpt lat="49.508172003552318" lon="-1.805010996758938">
        <ele>90.019999999999996</ele>
        <time>2018-07-04T15:24:01Z</time>
      </trkpt>
      <trkpt lat="49.507890036329627" lon="-1.804914018139243">
        <ele>88.099999999999994</ele>
        <time>2018-07-04T15:24:05Z</time>
      </trkpt>
      <trkpt lat="49.50783203355968" lon="-1.804893985390663">
        <ele>88.099999999999994</ele>
        <time>2018-07-04T15:24:06Z</time>
      </trkpt>
      <trkpt lat="49.507774030789733" lon="-1.804874036461115">
        <ele>87.620000000000005</ele>
        <time>2018-07-04T15:24:07Z</time>
      </trkpt>
      <trkpt lat="49.507641009986401" lon="-1.804829025641084">
        <ele>86.659999999999997</ele>
        <time>2018-07-04T15:24:09Z</time>
      </trkpt>
      <trkpt lat="49.507575966417789" lon="-1.804806981235743">
        <ele>86.659999999999997</ele>
        <time>2018-07-04T15:24:10Z</time>
      </trkpt>
      <trkpt lat="49.507299028337002" lon="-1.804715031757951">
        <ele>83.290000000000006</ele>
        <time>2018-07-04T15:24:18Z</time>
      </trkpt>
      <trkpt lat="49.506987975910306" lon="-1.804619980975986">
        <ele>80.890000000000001</ele>
        <time>2018-07-04T15:24:29Z</time>
      </trkpt>
      <trkpt lat="49.506757976487279" lon="-1.80458402261138">
        <ele>80.409999999999997</ele>
        <time>2018-07-04T15:24:35Z</time>
      </trkpt>
      <trkpt lat="49.506730986759067" lon="-1.804568013176322">
        <ele>80.409999999999997</ele>
        <time>2018-07-04T15:24:36Z</time>
      </trkpt>
      <trkpt lat="49.506723023951054" lon="-1.804515039548278">
        <ele>80.409999999999997</ele>
        <time>2018-07-04T15:24:37Z</time>
      </trkpt>
      <trkpt lat="49.506713971495628" lon="-1.804449995979667">
        <ele>80.890000000000001</ele>
        <time>2018-07-04T15:24:38Z</time>
      </trkpt>
      <trkpt lat="49.506688993424177" lon="-1.804368020966649">
        <ele>80.890000000000001</ele>
        <time>2018-07-04T15:24:39Z</time>
      </trkpt>
      <trkpt lat="49.506666027009487" lon="-1.804300965741277">
        <ele>80.890000000000001</ele>
        <time>2018-07-04T15:24:40Z</time>
      </trkpt>
      <trkpt lat="49.506648005917668" lon="-1.804246986284852">
        <ele>80.890000000000001</ele>
        <time>2018-07-04T15:24:41Z</time>
      </trkpt>
      <trkpt lat="49.506635013967752" lon="-1.804208010435104">
        <ele>80.890000000000001</ele>
        <time>2018-07-04T15:24:42Z</time>
      </trkpt>
      <trkpt lat="49.506623027846217" lon="-1.804173979908228">
        <ele>81.370000000000005</ele>
        <time>2018-07-04T15:24:43Z</time>
      </trkpt>
      <trkpt lat="49.506612969562411" lon="-1.804146990180016">
        <ele>81.849999999999994</ele>
        <time>2018-07-04T15:24:44Z</time>
      </trkpt>
      <trkpt lat="49.506604000926018" lon="-1.804123017936945">
        <ele>81.849999999999994</ele>
        <time>2018-07-04T15:24:45Z</time>
      </trkpt>
      <trkpt lat="49.506596038118005" lon="-1.804098961874843">
        <ele>81.849999999999994</ele>
        <time>2018-07-04T15:24:46Z</time>
      </trkpt>
      <trkpt lat="49.506585979834199" lon="-1.804073983803392">
        <ele>82.329999999999998</ele>
        <time>2018-07-04T15:24:47Z</time>
      </trkpt>
      <trkpt lat="49.506454970687628" lon="-1.804074989631772">
        <ele>82.329999999999998</ele>
        <time>2018-07-04T15:24:49Z</time>
      </trkpt>
      <trkpt lat="49.506424963474274" lon="-1.80404799990356">
        <ele>82.329999999999998</ele>
        <time>2018-07-04T15:24:50Z</time>
      </trkpt>
      <trkpt lat="49.506375007331371" lon="-1.804003994911909">
        <ele>82.329999999999998</ele>
        <time>2018-07-04T15:24:51Z</time>
      </trkpt>
      <trkpt lat="49.506317004561424" lon="-1.803953032940626">
        <ele>82.810000000000002</ele>
        <time>2018-07-04T15:24:52Z</time>
      </trkpt>
      <trkpt lat="49.506262019276619" lon="-1.803903998807073">
        <ele>82.810000000000002</ele>
        <time>2018-07-04T15:24:53Z</time>
      </trkpt>
      <trkpt lat="49.506234023720026" lon="-1.803778018802404">
        <ele>82.810000000000002</ele>
        <time>2018-07-04T15:24:54Z</time>
      </trkpt>
      <trkpt lat="49.506147019565105" lon="-1.803685985505581">
        <ele>82.810000000000002</ele>
        <time>2018-07-04T15:24:55Z</time>
      </trkpt>
      <trkpt lat="49.506063032895327" lon="-1.803657989948988">
        <ele>82.329999999999998</ele>
        <time>2018-07-04T15:24:56Z</time>
      </trkpt>
      <trkpt lat="49.505960019305348" lon="-1.803622031584382">
        <ele>82.329999999999998</ele>
        <time>2018-07-04T15:24:57Z</time>
      </trkpt>
      <trkpt lat="49.505842002108693" lon="-1.803581966087222">
        <ele>81.849999999999994</ele>
        <time>2018-07-04T15:24:58Z</time>
      </trkpt>
      <trkpt lat="49.505713004618883" lon="-1.803537961095572">
        <ele>80.890000000000001</ele>
        <time>2018-07-04T15:24:59Z</time>
      </trkpt>
      <trkpt lat="49.50473802164197" lon="-1.803048038855195">
        <ele>75.599999999999994</ele>
        <time>2018-07-04T15:25:05Z</time>
      </trkpt>
      <trkpt lat="49.503613002598286" lon="-1.801915979012847">
        <ele>67.909999999999997</ele>
        <time>2018-07-04T15:25:11Z</time>
      </trkpt>
      <trkpt lat="49.502787971869111" lon="-1.800818033516407">
        <ele>60.219999999999999</ele>
        <time>2018-07-04T15:25:16Z</time>
      </trkpt>
      <trkpt lat="49.502625027671456" lon="-1.800649976357818">
        <ele>58.780000000000001</ele>
        <time>2018-07-04T15:25:17Z</time>
      </trkpt>
      <trkpt lat="49.502451019361615" lon="-1.800519973039627">
        <ele>57.82</ele>
        <time>2018-07-04T15:25:18Z</time>
      </trkpt>
      <trkpt lat="49.502274999395013" lon="-1.800388041883707">
        <ele>56.859999999999999</ele>
        <time>2018-07-04T15:25:19Z</time>
      </trkpt>
      <trkpt lat="49.502090010792017" lon="-1.800297014415264">
        <ele>55.890000000000001</ele>
        <time>2018-07-04T15:25:20Z</time>
      </trkpt>
      <trkpt lat="49.501894041895866" lon="-1.800250997766852">
        <ele>55.409999999999997</ele>
        <time>2018-07-04T15:25:21Z</time>
      </trkpt>
      <trkpt lat="49.501698995009065" lon="-1.80020397529006">
        <ele>55.409999999999997</ele>
        <time>2018-07-04T15:25:22Z</time>
      </trkpt>
      <trkpt lat="49.501508977264166" lon="-1.800223002210259">
        <ele>55.409999999999997</ele>
        <time>2018-07-04T15:25:23Z</time>
      </trkpt>
      <trkpt lat="49.501316025853157" lon="-1.800266001373529">
        <ele>55.890000000000001</ele>
        <time>2018-07-04T15:25:24Z</time>
      </trkpt>
      <trkpt lat="49.501125002279878" lon="-1.800309000536799">
        <ele>56.859999999999999</ele>
        <time>2018-07-04T15:25:25Z</time>
      </trkpt>
      <trkpt lat="49.500931967049837" lon="-1.800351999700069">
        <ele>57.82</ele>
        <time>2018-07-04T15:25:26Z</time>
      </trkpt>
      <trkpt lat="49.4995610229671" lon="-1.800592979416251">
        <ele>65.030000000000001</ele>
        <time>2018-07-04T15:25:33Z</time>
      </trkpt>
      <trkpt lat="49.499362036585808" lon="-1.800586022436619">
        <ele>66.469999999999999</ele>
        <time>2018-07-04T15:25:34Z</time>
      </trkpt>
      <trkpt lat="49.499166989699006" lon="-1.800578981637955">
        <ele>67.430000000000007</ele>
        <time>2018-07-04T15:25:35Z</time>
      </trkpt>
      <trkpt lat="49.49898099526763" lon="-1.800492983311415">
        <ele>68.870000000000005</ele>
        <time>2018-07-04T15:25:36Z</time>
      </trkpt>
      <trkpt lat="49.498801035806537" lon="-1.80039600469172">
        <ele>70.310000000000002</ele>
        <time>2018-07-04T15:25:37Z</time>
      </trkpt>
      <trkpt lat="49.498623004183173" lon="-1.800300031900406">
        <ele>71.760000000000005</ele>
        <time>2018-07-04T15:25:38Z</time>
      </trkpt>
      <trkpt lat="49.496710002422333" lon="-1.798888016492128">
        <ele>82.810000000000002</ele>
        <time>2018-07-04T15:25:49Z</time>
      </trkpt>
      <trkpt lat="49.494731035083532" lon="-1.797543978318572">
        <ele>89.540000000000006</ele>
        <time>2018-07-04T15:26:01Z</time>
      </trkpt>
      <trkpt lat="49.493100000545382" lon="-1.797251030802727">
        <ele>95.790000000000006</ele>
        <time>2018-07-04T15:26:10Z</time>
      </trkpt>
      <trkpt lat="49.490478979423642" lon="-1.79698197171092">
        <ele>100.59999999999999</ele>
        <time>2018-07-04T15:26:24Z</time>
      </trkpt>
      <trkpt lat="49.488851968199015" lon="-1.796401022002101">
        <ele>102.04000000000001</ele>
        <time>2018-07-04T15:26:33Z</time>
      </trkpt>
      <trkpt lat="49.487574985250831" lon="-1.795207019895315">
        <ele>103.48</ele>
        <time>2018-07-04T15:26:41Z</time>
      </trkpt>
      <trkpt lat="49.486621962860227" lon="-1.793481018394232">
        <ele>106.36</ele>
        <time>2018-07-04T15:26:49Z</time>
      </trkpt>
      <trkpt lat="49.485706994310021" lon="-1.791212959215045">
        <ele>114.53</ele>
        <time>2018-07-04T15:26:59Z</time>
      </trkpt>
      <trkpt lat="49.485164014622569" lon="-1.789961038157344">
        <ele>118.38</ele>
        <time>2018-07-04T15:27:08Z</time>
      </trkpt>
      <trkpt lat="49.484488014131784" lon="-1.788862003013492">
        <ele>118.86</ele>
        <time>2018-07-04T15:27:16Z</time>
      </trkpt>
      <trkpt lat="49.483994990587234" lon="-1.788303013890982">
        <ele>118.38</ele>
        <time>2018-07-04T15:27:20Z</time>
      </trkpt>
      <trkpt lat="49.482433022931218" lon="-1.787481000646949">
        <ele>112.61</ele>
        <time>2018-07-04T15:27:29Z</time>
      </trkpt>
      <trkpt lat="49.480835013091564" lon="-1.787167014554143">
        <ele>103.48</ele>
        <time>2018-07-04T15:27:36Z</time>
      </trkpt>
      <trkpt lat="49.478996023535728" lon="-1.787202972918749">
        <ele>96.269999999999996</ele>
        <time>2018-07-04T15:27:45Z</time>
      </trkpt>
      <trkpt lat="49.477599011734128" lon="-1.787499021738768">
        <ele>90.980000000000004</ele>
        <time>2018-07-04T15:27:53Z</time>
      </trkpt>
      <trkpt lat="49.476007036864758" lon="-1.787224011495709">
        <ele>84.25</ele>
        <time>2018-07-04T15:28:03Z</time>
      </trkpt>
      <trkpt lat="49.474266031756997" lon="-1.787243038415909">
        <ele>79.930000000000007</ele>
        <time>2018-07-04T15:28:13Z</time>
      </trkpt>
      <trkpt lat="49.471851959824562" lon="-1.787620978429914">
        <ele>76.079999999999998</ele>
        <time>2018-07-04T15:28:27Z</time>
      </trkpt>
      <trkpt lat="49.470306001603603" lon="-1.788291027769446">
        <ele>75.120000000000005</ele>
        <time>2018-07-04T15:28:36Z</time>
      </trkpt>
      <trkpt lat="49.468904966488481" lon="-1.789565999060869">
        <ele>70.310000000000002</ele>
        <time>2018-07-04T15:28:44Z</time>
      </trkpt>
      <trkpt lat="49.467360014095902" lon="-1.791198961436749">
        <ele>60.700000000000003</ele>
        <time>2018-07-04T15:28:52Z</time>
      </trkpt>
      <trkpt lat="49.465031018480659" lon="-1.793516976758838">
        <ele>54.450000000000003</ele>
        <time>2018-07-04T15:29:03Z</time>
      </trkpt>
      <trkpt lat="49.463399983942509" lon="-1.794331027194858">
        <ele>52.049999999999997</ele>
        <time>2018-07-04T15:29:10Z</time>
      </trkpt>
      <trkpt lat="49.461889984086156" lon="-1.79453001357615">
        <ele>51.57</ele>
        <time>2018-07-04T15:29:17Z</time>
      </trkpt>
      <trkpt lat="49.460103968158364" lon="-1.794062973931432">
        <ele>51.57</ele>
        <time>2018-07-04T15:29:26Z</time>
      </trkpt>
      <trkpt lat="49.457213971763849" lon="-1.792858997359872">
        <ele>62.140000000000001</ele>
        <time>2018-07-04T15:29:41Z</time>
      </trkpt>
      <trkpt lat="49.45519401691854" lon="-1.792561020702124">
        <ele>70.790000000000006</ele>
        <time>2018-07-04T15:29:51Z</time>
      </trkpt>
      <trkpt lat="49.453415041789412" lon="-1.791906980797648">
        <ele>68.870000000000005</ele>
        <time>2018-07-04T15:30:00Z</time>
      </trkpt>
      <trkpt lat="49.451393997296691" lon="-1.790640978142619">
        <ele>62.140000000000001</ele>
        <time>2018-07-04T15:30:10Z</time>
      </trkpt>
      <trkpt lat="49.44812698289752" lon="-1.788696963340044">
        <ele>60.700000000000003</ele>
        <time>2018-07-04T15:30:25Z</time>
      </trkpt>
      <trkpt lat="49.445702014490962" lon="-1.787762967869639">
        <ele>65.030000000000001</ele>
        <time>2018-07-04T15:30:36Z</time>
      </trkpt>
      <trkpt lat="49.443121980875731" lon="-1.786807011812925">
        <ele>62.140000000000001</ele>
        <time>2018-07-04T15:30:47Z</time>
      </trkpt>
      <trkpt lat="49.439930990338326" lon="-1.785676963627338">
        <ele>61.659999999999997</ele>
        <time>2018-07-04T15:31:02Z</time>
      </trkpt>
      <trkpt lat="49.438472958281636" lon="-1.785692973062396">
        <ele>63.100000000000001</ele>
        <time>2018-07-04T15:31:09Z</time>
      </trkpt>
      <trkpt lat="49.435906000435352" lon="-1.786463018506765">
        <ele>64.549999999999997</ele>
        <time>2018-07-04T15:31:22Z</time>
      </trkpt>
      <trkpt lat="49.433575998991728" lon="-1.787934964522719">
        <ele>62.140000000000001</ele>
        <time>2018-07-04T15:31:35Z</time>
      </trkpt>
      <trkpt lat="49.431348005309701" lon="-1.789059983566403">
        <ele>57.340000000000003</ele>
        <time>2018-07-04T15:31:48Z</time>
      </trkpt>
      <trkpt lat="49.429931966587901" lon="-1.788992006331682">
        <ele>53.490000000000002</ele>
        <time>2018-07-04T15:31:55Z</time>
      </trkpt>
      <trkpt lat="49.427786031737924" lon="-1.788504011929035">
        <ele>55.409999999999997</ele>
        <time>2018-07-04T15:32:06Z</time>
      </trkpt>
      <trkpt lat="49.425262995064259" lon="-1.788146020844579">
        <ele>57.82</ele>
        <time>2018-07-04T15:32:18Z</time>
      </trkpt>
      <trkpt lat="49.42335401661694" lon="-1.78756901063025">
        <ele>58.780000000000001</ele>
        <time>2018-07-04T15:32:26Z</time>
      </trkpt>
      <trkpt lat="49.422075022011995" lon="-1.78718201816082">
        <ele>63.100000000000001</ele>
        <time>2018-07-04T15:32:32Z</time>
      </trkpt>
      <trkpt lat="49.419719958677888" lon="-1.786469975486398">
        <ele>70.790000000000006</ele>
        <time>2018-07-04T15:32:44Z</time>
      </trkpt>
      <trkpt lat="49.417630014941096" lon="-1.78600100800395">
        <ele>78.480000000000004</ele>
        <time>2018-07-04T15:32:55Z</time>
      </trkpt>
      <trkpt lat="49.415949024260044" lon="-1.785337999463081">
        <ele>84.25</ele>
        <time>2018-07-04T15:33:04Z</time>
      </trkpt>
      <trkpt lat="49.414340034127235" lon="-1.784364022314549">
        <ele>86.659999999999997</ele>
        <time>2018-07-04T15:33:13Z</time>
      </trkpt>
      <trkpt lat="49.412788962945342" lon="-1.783627001568675">
        <ele>85.689999999999998</ele>
        <time>2018-07-04T15:33:22Z</time>
      </trkpt>
      <trkpt lat="49.411025997251272" lon="-1.783373029902577">
        <ele>85.689999999999998</ele>
        <time>2018-07-04T15:33:30Z</time>
      </trkpt>
      <trkpt lat="49.408720973879099" lon="-1.783521976321936">
        <ele>84.25</ele>
        <time>2018-07-04T15:33:41Z</time>
      </trkpt>
      <trkpt lat="49.40616499632597" lon="-1.78370201960206">
        <ele>81.370000000000005</ele>
        <time>2018-07-04T15:33:54Z</time>
      </trkpt>
      <trkpt lat="49.404980968683958" lon="-1.783606968820095">
        <ele>82.810000000000002</ele>
        <time>2018-07-04T15:34:01Z</time>
      </trkpt>
      <trkpt lat="49.404560029506683" lon="-1.783549971878529">
        <ele>84.25</ele>
        <time>2018-07-04T15:34:07Z</time>
      </trkpt>
      <trkpt lat="49.403846981003881" lon="-1.783356014639139">
        <ele>84.730000000000004</ele>
        <time>2018-07-04T15:34:13Z</time>
      </trkpt>
      <trkpt lat="49.402262968942523" lon="-1.78280096501112">
        <ele>86.180000000000007</ele>
        <time>2018-07-04T15:34:22Z</time>
      </trkpt>
      <trkpt lat="49.400080991908908" lon="-1.781647028401494">
        <ele>88.579999999999998</ele>
        <time>2018-07-04T15:34:33Z</time>
      </trkpt>
      <trkpt lat="49.397189989686012" lon="-1.78007198497653">
        <ele>85.209999999999994</ele>
        <time>2018-07-04T15:34:46Z</time>
      </trkpt>
      <trkpt lat="49.395728018134832" lon="-1.778843030333519">
        <ele>83.290000000000006</ele>
        <time>2018-07-04T15:34:53Z</time>
      </trkpt>
      <trkpt lat="49.394566034898162" lon="-1.777122979983687">
        <ele>86.659999999999997</ele>
        <time>2018-07-04T15:35:01Z</time>
      </trkpt>
      <trkpt lat="49.393633967265487" lon="-1.774887023493648">
        <ele>86.659999999999997</ele>
        <time>2018-07-04T15:35:10Z</time>
      </trkpt>
      <trkpt lat="49.39258798956871" lon="-1.771935001015663">
        <ele>82.329999999999998</ele>
        <time>2018-07-04T15:35:20Z</time>
      </trkpt>
      <trkpt lat="49.39136398024857" lon="-1.768189966678619">
        <ele>76.560000000000002</ele>
        <time>2018-07-04T15:35:32Z</time>
      </trkpt>
      <trkpt lat="49.390796022489667" lon="-1.764694964513183">
        <ele>71.760000000000005</ele>
        <time>2018-07-04T15:35:43Z</time>
      </trkpt>
      <trkpt lat="49.390210965648293" lon="-1.760641979053617">
        <ele>64.069999999999993</ele>
        <time>2018-07-04T15:35:55Z</time>
      </trkpt>
      <trkpt lat="49.389480985701084" lon="-1.757883997634053">
        <ele>53.969999999999999</ele>
        <time>2018-07-04T15:36:04Z</time>
      </trkpt>
      <trkpt lat="49.388387985527515" lon="-1.754817981272936">
        <ele>38.590000000000003</ele>
        <time>2018-07-04T15:36:14Z</time>
      </trkpt>
      <trkpt lat="49.387390036135912" lon="-1.752761984243989">
        <ele>27.530000000000001</ele>
        <time>2018-07-04T15:36:22Z</time>
      </trkpt>
      <trkpt lat="49.386237021535635" lon="-1.751127010211349">
        <ele>22.25</ele>
        <time>2018-07-04T15:36:30Z</time>
      </trkpt>
      <trkpt lat="49.385092975571752" lon="-1.749760005623102">
        <ele>22.25</ele>
        <time>2018-07-04T15:36:39Z</time>
      </trkpt>
      <trkpt lat="49.384112963452935" lon="-1.748623000457883">
        <ele>23.210000000000001</ele>
        <time>2018-07-04T15:36:45Z</time>
      </trkpt>
      <trkpt lat="49.382098037749529" lon="-1.746285958215594">
        <ele>33.299999999999997</ele>
        <time>2018-07-04T15:36:58Z</time>
      </trkpt>
      <trkpt lat="49.380605975165963" lon="-1.744560962542892">
        <ele>46.280000000000001</ele>
        <time>2018-07-04T15:37:08Z</time>
      </trkpt>
      <trkpt lat="49.379086000844836" lon="-1.742891035974026">
        <ele>54.93</ele>
        <time>2018-07-04T15:37:20Z</time>
      </trkpt>
      <trkpt lat="49.378052009269595" lon="-1.741311969235539">
        <ele>58.780000000000001</ele>
        <time>2018-07-04T15:37:29Z</time>
      </trkpt>
      <trkpt lat="49.377606008201838" lon="-1.740054013207555">
        <ele>60.700000000000003</ele>
        <time>2018-07-04T15:37:36Z</time>
      </trkpt>
      <trkpt lat="49.377544987946749" lon="-1.739837005734444">
        <ele>61.18</ele>
        <time>2018-07-04T15:37:39Z</time>
      </trkpt>
      <trkpt lat="49.377510035410523" lon="-1.739711025729775">
        <ele>61.659999999999997</ele>
        <time>2018-07-04T15:37:48Z</time>
      </trkpt>
    </trkseg>
  </trk>

  <trk>
    <name>Track vom: 2018-07-04 17:39</name>
    <extensions>
      <gpxx:TrackExtension>
        <gpxx:DisplayColor>DarkGray</gpxx:DisplayColor>
      </gpxx:TrackExtension>
    </extensions>
    <trkseg>
      <trkpt lat="49.377510035410523" lon="-1.739711025729775">
        <ele>62.140000000000001</ele>
        <time>2018-07-04T15:39:52Z</time>
      </trkpt>
      <trkpt lat="49.377387994900346" lon="-1.739295031875372">
        <ele>62.140000000000001</ele>
        <time>2018-07-04T15:40:05Z</time>
      </trkpt>
      <trkpt lat="49.377023968845606" lon="-1.738246958702803">
        <ele>62.619999999999997</ele>
        <time>2018-07-04T15:40:11Z</time>
      </trkpt>
      <trkpt lat="49.376291977241635" lon="-1.736564040184021">
        <ele>63.579999999999998</ele>
        <time>2018-07-04T15:40:18Z</time>
      </trkpt>
      <trkpt lat="49.374567987397313" lon="-1.733622997999191">
        <ele>66.950000000000003</ele>
        <time>2018-07-04T15:40:30Z</time>
      </trkpt>
      <trkpt lat="49.372718017548323" lon="-1.730835009366274">
        <ele>70.790000000000006</ele>
        <time>2018-07-04T15:40:42Z</time>
      </trkpt>
      <trkpt lat="49.371289992704988" lon="-1.728344997391105">
        <ele>70.310000000000002</ele>
        <time>2018-07-04T15:40:51Z</time>
      </trkpt>
      <trkpt lat="49.369981996715069" lon="-1.725631020963192">
        <ele>68.390000000000001</ele>
        <time>2018-07-04T15:41:00Z</time>
      </trkpt>
      <trkpt lat="49.368605017662048" lon="-1.723442003130913">
        <ele>67.909999999999997</ele>
        <time>2018-07-04T15:41:09Z</time>
      </trkpt>
      <trkpt lat="49.367342032492161" lon="-1.721162041649222">
        <ele>67.430000000000007</ele>
        <time>2018-07-04T15:41:18Z</time>
      </trkpt>
      <trkpt lat="49.36669796705246" lon="-1.718766996636987">
        <ele>65.030000000000001</ele>
        <time>2018-07-04T15:41:25Z</time>
      </trkpt>
      <trkpt lat="49.366080975160003" lon="-1.716082021594048">
        <ele>59.740000000000002</ele>
        <time>2018-07-04T15:41:33Z</time>
      </trkpt>
      <trkpt lat="49.365073973312974" lon="-1.712642004713416">
        <ele>54.93</ele>
        <time>2018-07-04T15:41:43Z</time>
      </trkpt>
      <trkpt lat="49.364415993914008" lon="-1.71039598993957">
        <ele>54.450000000000003</ele>
        <time>2018-07-04T15:41:50Z</time>
      </trkpt>
      <trkpt lat="49.363617030903697" lon="-1.707180021330714">
        <ele>53.009999999999998</ele>
        <time>2018-07-04T15:41:59Z</time>
      </trkpt>
      <trkpt lat="49.362985035404563" lon="-1.704402007162571">
        <ele>53.490000000000002</ele>
        <time>2018-07-04T15:42:08Z</time>
      </trkpt>
      <trkpt lat="49.362588990479708" lon="-1.701657017692924">
        <ele>52.049999999999997</ele>
        <time>2018-07-04T15:42:17Z</time>
      </trkpt>
      <trkpt lat="49.362083980813622" lon="-1.698735002428293">
        <ele>52.049999999999997</ele>
        <time>2018-07-04T15:42:27Z</time>
      </trkpt>
      <trkpt lat="49.361745016649365" lon="-1.696985028684139">
        <ele>50.609999999999999</ele>
        <time>2018-07-04T15:42:35Z</time>
      </trkpt>
      <trkpt lat="49.361624987795949" lon="-1.696366025134921">
        <ele>49.649999999999999</ele>
        <time>2018-07-04T15:42:39Z</time>
      </trkpt>
      <trkpt lat="49.361602021381259" lon="-1.696249013766646">
        <ele>49.649999999999999</ele>
        <time>2018-07-04T15:42:40Z</time>
      </trkpt>
      <trkpt lat="49.361444022506475" lon="-1.696033012121916">
        <ele>49.159999999999997</ele>
        <time>2018-07-04T15:42:42Z</time>
      </trkpt>
      <trkpt lat="49.361444022506475" lon="-1.695905020460486">
        <ele>48.68</ele>
        <time>2018-07-04T15:42:43Z</time>
      </trkpt>
      <trkpt lat="49.361508982256055" lon="-1.6955900285393">
        <ele>47.719999999999999</ele>
        <time>2018-07-04T15:42:45Z</time>
      </trkpt>
      <trkpt lat="49.361471012234688" lon="-1.695424988865852">
        <ele>47.719999999999999</ele>
        <time>2018-07-04T15:42:46Z</time>
      </trkpt>
      <trkpt lat="49.361096005886793" lon="-1.693718014284968">
        <ele>45.32</ele>
        <time>2018-07-04T15:42:54Z</time>
      </trkpt>
      <trkpt lat="49.36059401370585" lon="-1.691362028941512">
        <ele>42.439999999999998</ele>
        <time>2018-07-04T15:43:02Z</time>
      </trkpt>
      <trkpt lat="49.359941985458136" lon="-1.689560003578663">
        <ele>39.549999999999997</ele>
        <time>2018-07-04T15:43:09Z</time>
      </trkpt>
      <trkpt lat="49.358574980869889" lon="-1.687006959691644">
        <ele>38.109999999999999</ele>
        <time>2018-07-04T15:43:20Z</time>
      </trkpt>
      <trkpt lat="49.356900025159121" lon="-1.683655958622694">
        <ele>40.509999999999998</ele>
        <time>2018-07-04T15:43:34Z</time>
      </trkpt>
      <trkpt lat="49.35494301840663" lon="-1.679509012028575">
        <ele>45.799999999999997</ele>
        <time>2018-07-04T15:43:51Z</time>
      </trkpt>
      <trkpt lat="49.353643991053104" lon="-1.67610595934093">
        <ele>46.280000000000001</ele>
        <time>2018-07-04T15:44:04Z</time>
      </trkpt>
      <trkpt lat="49.35230397619307" lon="-1.673534978181124">
        <ele>47.240000000000002</ele>
        <time>2018-07-04T15:44:15Z</time>
      </trkpt>
      <trkpt lat="49.350808979943395" lon="-1.672111982479692">
        <ele>47.240000000000002</ele>
        <time>2018-07-04T15:44:24Z</time>
      </trkpt>
      <trkpt lat="49.349266961216927" lon="-1.671627005562186">
        <ele>46.280000000000001</ele>
        <time>2018-07-04T15:44:32Z</time>
      </trkpt>
      <trkpt lat="49.347710022702813" lon="-1.671954989433289">
        <ele>42.920000000000002</ele>
        <time>2018-07-04T15:44:40Z</time>
      </trkpt>
      <trkpt lat="49.346293983981013" lon="-1.673004990443587">
        <ele>37.630000000000003</ele>
        <time>2018-07-04T15:44:48Z</time>
      </trkpt>
      <trkpt lat="49.34409499168396" lon="-1.675572032108903">
        <ele>29.460000000000001</ele>
        <time>2018-07-04T15:45:02Z</time>
      </trkpt>
      <trkpt lat="49.341862974688411" lon="-1.678032958880067">
        <ele>26.09</ele>
        <time>2018-07-04T15:45:16Z</time>
      </trkpt>
      <trkpt lat="49.340019961819053" lon="-1.679288987070322">
        <ele>25.129999999999999</ele>
        <time>2018-07-04T15:45:26Z</time>
      </trkpt>
      <trkpt lat="49.338024985045195" lon="-1.679897010326386">
        <ele>23.210000000000001</ele>
        <time>2018-07-04T15:45:36Z</time>
      </trkpt>
      <trkpt lat="49.335997989401221" lon="-1.679806988686323">
        <ele>20.32</ele>
        <time>2018-07-04T15:45:46Z</time>
      </trkpt>
      <trkpt lat="49.33502996340394" lon="-1.679690983146429">
        <ele>19.359999999999999</ele>
        <time>2018-07-04T15:45:52Z</time>
      </trkpt>
      <trkpt lat="49.334772974252701" lon="-1.679720990359783">
        <ele>19.84</ele>
        <time>2018-07-04T15:45:55Z</time>
      </trkpt>
      <trkpt lat="49.334568958729506" lon="-1.679824003949761">
        <ele>19.84</ele>
        <time>2018-07-04T15:46:01Z</time>
      </trkpt>
      <trkpt lat="49.334507016465068" lon="-1.679914025589824">
        <ele>19.84</ele>
        <time>2018-07-04T15:46:02Z</time>
      </trkpt>
      <trkpt lat="49.334437027573586" lon="-1.679948978126049">
        <ele>19.84</ele>
        <time>2018-07-04T15:46:03Z</time>
      </trkpt>
      <trkpt lat="49.334334013983607" lon="-1.67992701753974">
        <ele>20.32</ele>
        <time>2018-07-04T15:46:04Z</time>
      </trkpt>
      <trkpt lat="49.334240974858403" lon="-1.679849987849593">
        <ele>20.32</ele>
        <time>2018-07-04T15:46:05Z</time>
      </trkpt>
      <trkpt lat="49.334154976531863" lon="-1.67975502088666">
        <ele>20.32</ele>
        <time>2018-07-04T15:46:06Z</time>
      </trkpt>
      <trkpt lat="49.333955990150571" lon="-1.679556034505367">
        <ele>19.84</ele>
        <time>2018-07-04T15:46:08Z</time>
      </trkpt>
      <trkpt lat="49.333806037902832" lon="-1.679515969008207">
        <ele>19.84</ele>
        <time>2018-07-04T15:46:09Z</time>
      </trkpt>
      <trkpt lat="49.332525031641126" lon="-1.67932502925396">
        <ele>18.399999999999999</ele>
        <time>2018-07-04T15:46:16Z</time>
      </trkpt>
      <trkpt lat="49.329497991129756" lon="-1.678900988772512">
        <ele>14.08</ele>
        <time>2018-07-04T15:46:30Z</time>
      </trkpt>
      <trkpt lat="49.326706985011697" lon="-1.678509972989559">
        <ele>16.48</ele>
        <time>2018-07-04T15:46:44Z</time>
      </trkpt>
      <trkpt lat="49.324290985241532" lon="-1.678536040708423">
        <ele>17.920000000000002</ele>
        <time>2018-07-04T15:46:56Z</time>
      </trkpt>
      <trkpt lat="49.322095010429621" lon="-1.679120007902384">
        <ele>20.809999999999999</ele>
        <time>2018-07-04T15:47:07Z</time>
      </trkpt>
      <trkpt lat="49.319319007918239" lon="-1.680031036958098">
        <ele>22.73</ele>
        <time>2018-07-04T15:47:21Z</time>
      </trkpt>
      <trkpt lat="49.31594897992909" lon="-1.681019011884928">
        <ele>22.73</ele>
        <time>2018-07-04T15:47:38Z</time>
      </trkpt>
      <trkpt lat="49.314135974273086" lon="-1.680842991918325">
        <ele>21.77</ele>
        <time>2018-07-04T15:47:47Z</time>
      </trkpt>
      <trkpt lat="49.31218801997602" lon="-1.679935986176133">
        <ele>19.359999999999999</ele>
        <time>2018-07-04T15:47:57Z</time>
      </trkpt>
      <trkpt lat="49.309315960854292" lon="-1.678415006026626">
        <ele>17.440000000000001</ele>
        <time>2018-07-04T15:48:12Z</time>
      </trkpt>
      <trkpt lat="49.306450020521879" lon="-1.676858989521861">
        <ele>16</ele>
        <time>2018-07-04T15:48:27Z</time>
      </trkpt>
      <trkpt lat="49.305101037025452" lon="-1.676134960725904">
        <ele>16</ele>
        <time>2018-07-04T15:48:35Z</time>
      </trkpt>
      <trkpt lat="49.303128020837903" lon="-1.675254022702575">
        <ele>15.039999999999999</ele>
        <time>2018-07-04T15:48:45Z</time>
      </trkpt>
      <trkpt lat="49.300862979143858" lon="-1.674269987270236">
        <ele>12.630000000000001</ele>
        <time>2018-07-04T15:48:58Z</time>
      </trkpt>
      <trkpt lat="49.300077008083463" lon="-1.67384997010231">
        <ele>11.19</ele>
        <time>2018-07-04T15:49:05Z</time>
      </trkpt>
      <trkpt lat="49.298969004303217" lon="-1.672943970188499">
        <ele>11.19</ele>
        <time>2018-07-04T15:49:16Z</time>
      </trkpt>
      <trkpt lat="49.297759998589754" lon="-1.671824986115098">
        <ele>11.19</ele>
        <time>2018-07-04T15:49:28Z</time>
      </trkpt>
      <trkpt lat="49.296870008111" lon="-1.671001967042685">
        <ele>10.710000000000001</ele>
        <time>2018-07-04T15:49:33Z</time>
      </trkpt>
      <trkpt lat="49.29560299962759" lon="-1.66983000934124">
        <ele>11.67</ele>
        <time>2018-07-04T15:49:40Z</time>
      </trkpt>
      <trkpt lat="49.293556977063417" lon="-1.667855987325311">
        <ele>13.6</ele>
        <time>2018-07-04T15:49:52Z</time>
      </trkpt>
      <trkpt lat="49.291706001386046" lon="-1.665990008041263">
        <ele>14.56</ele>
        <time>2018-07-04T15:50:03Z</time>
      </trkpt>
      <trkpt lat="49.289786964654922" lon="-1.665089037269354">
        <ele>14.08</ele>
        <time>2018-07-04T15:50:13Z</time>
      </trkpt>
      <trkpt lat="49.286896968260407" lon="-1.663824040442705">
        <ele>15.039999999999999</ele>
        <time>2018-07-04T15:50:28Z</time>
      </trkpt>
      <trkpt lat="49.285785024985671" lon="-1.662506991997361">
        <ele>15.52</ele>
        <time>2018-07-04T15:50:35Z</time>
      </trkpt>
      <trkpt lat="49.284985978156328" lon="-1.660706978291273">
        <ele>16</ele>
        <time>2018-07-04T15:50:42Z</time>
      </trkpt>
      <trkpt lat="49.284049971029162" lon="-1.658702027052641">
        <ele>16</ele>
        <time>2018-07-04T15:50:50Z</time>
      </trkpt>
      <trkpt lat="49.282871978357434" lon="-1.657544989138842">
        <ele>16.48</ele>
        <time>2018-07-04T15:50:57Z</time>
      </trkpt>
      <trkpt lat="49.281503967940807" lon="-1.657119020819664">
        <ele>15.52</ele>
        <time>2018-07-04T15:51:04Z</time>
      </trkpt>
      <trkpt lat="49.278685972094536" lon="-1.656906036660075">
        <ele>16</ele>
        <time>2018-07-04T15:51:18Z</time>
      </trkpt>
      <trkpt lat="49.276304002851248" lon="-1.656369008123875">
        <ele>15.52</ele>
        <time>2018-07-04T15:51:30Z</time>
      </trkpt>
      <trkpt lat="49.274656036868691" lon="-1.655209036543965">
        <ele>16</ele>
        <time>2018-07-04T15:51:39Z</time>
      </trkpt>
      <trkpt lat="49.272528039291501" lon="-1.652850033715367">
        <ele>16.48</ele>
        <time>2018-07-04T15:51:52Z</time>
      </trkpt>
      <trkpt lat="49.270330974832177" lon="-1.650655986741185">
        <ele>14.08</ele>
        <time>2018-07-04T15:52:05Z</time>
      </trkpt>
      <trkpt lat="49.267600988969207" lon="-1.648677019402385">
        <ele>12.15</ele>
        <time>2018-07-04T15:52:20Z</time>
      </trkpt>
      <trkpt lat="49.265117011964321" lon="-1.64664700627327">
        <ele>12.15</ele>
        <time>2018-07-04T15:52:34Z</time>
      </trkpt>
      <trkpt lat="49.262302033603191" lon="-1.644204016774893">
        <ele>13.119999999999999</ele>
        <time>2018-07-04T15:52:50Z</time>
      </trkpt>
      <trkpt lat="49.259834988042712" lon="-1.642077025026083">
        <ele>14.08</ele>
        <time>2018-07-04T15:53:04Z</time>
      </trkpt>
      <trkpt lat="49.256790010258555" lon="-1.639660019427538">
        <ele>15.039999999999999</ele>
        <time>2018-07-04T15:53:21Z</time>
      </trkpt>
      <trkpt lat="49.254149962216616" lon="-1.638135015964508">
        <ele>14.08</ele>
        <time>2018-07-04T15:53:35Z</time>
      </trkpt>
      <trkpt lat="49.250919995829463" lon="-1.636384958401322">
        <ele>14.08</ele>
        <time>2018-07-04T15:53:52Z</time>
      </trkpt>
      <trkpt lat="49.249256020411849" lon="-1.634645964950323">
        <ele>14.08</ele>
        <time>2018-07-04T15:54:02Z</time>
      </trkpt>
      <trkpt lat="49.246904980391264" lon="-1.631247019395232">
        <ele>13.119999999999999</ele>
        <time>2018-07-04T15:54:18Z</time>
      </trkpt>
      <trkpt lat="49.244999019429088" lon="-1.628479985520244">
        <ele>12.630000000000001</ele>
        <time>2018-07-04T15:54:31Z</time>
      </trkpt>
      <trkpt lat="49.243094986304641" lon="-1.625703983008862">
        <ele>14.56</ele>
        <time>2018-07-04T15:54:44Z</time>
      </trkpt>
      <trkpt lat="49.240896999835968" lon="-1.62249899469316">
        <ele>16.48</ele>
        <time>2018-07-04T15:54:59Z</time>
      </trkpt>
      <trkpt lat="49.239585986360908" lon="-1.620588004589081">
        <ele>17.440000000000001</ele>
        <time>2018-07-04T15:55:08Z</time>
      </trkpt>
      <trkpt lat="49.238695995882154" lon="-1.61854499951005">
        <ele>15.52</ele>
        <time>2018-07-04T15:55:16Z</time>
      </trkpt>
      <trkpt lat="49.238155027851462" lon="-1.615929007530212">
        <ele>15.52</ele>
        <time>2018-07-04T15:55:25Z</time>
      </trkpt>
      <trkpt lat="49.23799904063344" lon="-1.612248010933399">
        <ele>16</ele>
        <time>2018-07-04T15:55:37Z</time>
      </trkpt>
      <trkpt lat="49.237822014838457" lon="-1.607618015259504">
        <ele>14.56</ele>
        <time>2018-07-04T15:55:52Z</time>
      </trkpt>
      <trkpt lat="49.237695029005408" lon="-1.604237006977201">
        <ele>15.039999999999999</ele>
        <time>2018-07-04T15:56:03Z</time>
      </trkpt>
      <trkpt lat="49.237510040402412" lon="-1.599327977746725">
        <ele>17.920000000000002</ele>
        <time>2018-07-04T15:56:19Z</time>
      </trkpt>
      <trkpt lat="49.237335026264191" lon="-1.595004005357623">
        <ele>19.84</ele>
        <time>2018-07-04T15:56:33Z</time>
      </trkpt>
      <trkpt lat="49.237124975770712" lon="-1.590061029419303">
        <ele>14.08</ele>
        <time>2018-07-04T15:56:49Z</time>
      </trkpt>
      <trkpt lat="49.236974017694592" lon="-1.588205024600029">
        <ele>16.48</ele>
        <time>2018-07-04T15:56:56Z</time>
      </trkpt>
      <trkpt lat="49.236834039911628" lon="-1.587190981954336">
        <ele>17.440000000000001</ele>
        <time>2018-07-04T15:57:02Z</time>
      </trkpt>
      <trkpt lat="49.236658019945025" lon="-1.586943967267871">
        <ele>17.440000000000001</ele>
        <time>2018-07-04T15:57:04Z</time>
      </trkpt>
      <trkpt lat="49.23664603382349" lon="-1.586858974769712">
        <ele>17.440000000000001</ele>
        <time>2018-07-04T15:57:05Z</time>
      </trkpt>
      <trkpt lat="49.236676963046193" lon="-1.586399981752038">
        <ele>17.440000000000001</ele>
        <time>2018-07-04T15:57:07Z</time>
      </trkpt>
      <trkpt lat="49.236641004681587" lon="-1.586200995370746">
        <ele>16.960000000000001</ele>
        <time>2018-07-04T15:57:08Z</time>
      </trkpt>
      <trkpt lat="49.236274966970086" lon="-1.584148015826941">
        <ele>16</ele>
        <time>2018-07-04T15:57:16Z</time>
      </trkpt>
      <trkpt lat="49.235653029754758" lon="-1.580847976729274">
        <ele>11.19</ele>
        <time>2018-07-04T15:57:27Z</time>
      </trkpt>
      <trkpt lat="49.23486496321857" lon="-1.577736027538776">
        <ele>13.6</ele>
        <time>2018-07-04T15:57:38Z</time>
      </trkpt>
      <trkpt lat="49.233645983040333" lon="-1.574523998424411">
        <ele>15.039999999999999</ele>
        <time>2018-07-04T15:57:50Z</time>
      </trkpt>
      <trkpt lat="49.231876982375979" lon="-1.570757003501058">
        <ele>14.56</ele>
        <time>2018-07-04T15:58:05Z</time>
      </trkpt>
      <trkpt lat="49.229591991752386" lon="-1.566865034401417">
        <ele>20.32</ele>
        <time>2018-07-04T15:58:22Z</time>
      </trkpt>
      <trkpt lat="49.228434031829238" lon="-1.565658962354064">
        <ele>21.77</ele>
        <time>2018-07-04T15:58:29Z</time>
      </trkpt>
      <trkpt lat="49.226706018671393" lon="-1.564748017117381">
        <ele>21.289999999999999</ele>
        <time>2018-07-04T15:58:38Z</time>
      </trkpt>
      <trkpt lat="49.225517967715859" lon="-1.564426990225911">
        <ele>21.289999999999999</ele>
        <time>2018-07-04T15:58:44Z</time>
      </trkpt>
      <trkpt lat="49.223924987018108" lon="-1.564761009067297">
        <ele>19.84</ele>
        <time>2018-07-04T15:58:52Z</time>
      </trkpt>
      <trkpt lat="49.222064036875963" lon="-1.566011002287269">
        <ele>18.879999999999999</ele>
        <time>2018-07-04T15:59:02Z</time>
      </trkpt>
      <trkpt lat="49.21984501183033" lon="-1.567550003528595">
        <ele>15.039999999999999</ele>
        <time>2018-07-04T15:59:14Z</time>
      </trkpt>
      <trkpt lat="49.216918973252177" lon="-1.569600971415639">
        <ele>12.15</ele>
        <time>2018-07-04T15:59:30Z</time>
      </trkpt>
      <trkpt lat="49.213826972991228" lon="-1.571893002837896">
        <ele>12.15</ele>
        <time>2018-07-04T15:59:47Z</time>
      </trkpt>
      <trkpt lat="49.211813975125551" lon="-1.573338964954019">
        <ele>12.630000000000001</ele>
        <time>2018-07-04T15:59:58Z</time>
      </trkpt>
      <trkpt lat="49.209720008075237" lon="-1.57441696152091">
        <ele>12.630000000000001</ele>
        <time>2018-07-04T16:00:09Z</time>
      </trkpt>
      <trkpt lat="49.205761989578605" lon="-1.575708026066423">
        <ele>12.15</ele>
        <time>2018-07-04T16:00:29Z</time>
      </trkpt>
      <trkpt lat="49.203340960666537" lon="-1.575837023556233">
        <ele>12.630000000000001</ele>
        <time>2018-07-04T16:00:41Z</time>
      </trkpt>
      <trkpt lat="49.201257973909378" lon="-1.575971972197294">
        <ele>13.6</ele>
        <time>2018-07-04T16:00:52Z</time>
      </trkpt>
      <trkpt lat="49.200249966233969" lon="-1.576138017699122">
        <ele>13.119999999999999</ele>
        <time>2018-07-04T16:01:00Z</time>
      </trkpt>
      <trkpt lat="49.200139995664358" lon="-1.57615696080029">
        <ele>13.119999999999999</ele>
        <time>2018-07-04T16:01:01Z</time>
      </trkpt>
      <trkpt lat="49.200024995952845" lon="-1.57628201879561">
        <ele>13.119999999999999</ele>
        <time>2018-07-04T16:01:02Z</time>
      </trkpt>
      <trkpt lat="49.199905972927809" lon="-1.576500032097101">
        <ele>13.119999999999999</ele>
        <time>2018-07-04T16:01:04Z</time>
      </trkpt>
      <trkpt lat="49.199805976822972" lon="-1.57654001377523">
        <ele>13.119999999999999</ele>
        <time>2018-07-04T16:01:05Z</time>
      </trkpt>
      <trkpt lat="49.199716961011291" lon="-1.576495002955198">
        <ele>12.630000000000001</ele>
        <time>2018-07-04T16:01:06Z</time>
      </trkpt>
      <trkpt lat="49.199631968513131" lon="-1.576452003791928">
        <ele>12.630000000000001</ele>
        <time>2018-07-04T16:01:07Z</time>
      </trkpt>
      <trkpt lat="49.199499031528831" lon="-1.576252011582255">
        <ele>12.15</ele>
        <time>2018-07-04T16:01:08Z</time>
      </trkpt>
      <trkpt lat="49.199386965483427" lon="-1.576274977996945">
        <ele>12.15</ele>
        <time>2018-07-04T16:01:09Z</time>
      </trkpt>
      <trkpt lat="49.199254028499126" lon="-1.576302973553538">
        <ele>12.15</ele>
        <time>2018-07-04T16:01:10Z</time>
      </trkpt>
      <trkpt lat="49.198150970041752" lon="-1.576551999896765">
        <ele>11.67</ele>
        <time>2018-07-04T16:01:16Z</time>
      </trkpt>
      <trkpt lat="49.196222964674234" lon="-1.577361021190882">
        <ele>11.19</ele>
        <time>2018-07-04T16:01:25Z</time>
      </trkpt>
      <trkpt lat="49.193583000451326" lon="-1.578837996348739">
        <ele>11.19</ele>
        <time>2018-07-04T16:01:39Z</time>
      </trkpt>
      <trkpt lat="49.191246964037418" lon="-1.580616971477866">
        <ele>11.67</ele>
        <time>2018-07-04T16:01:52Z</time>
      </trkpt>
      <trkpt lat="49.189265985041857" lon="-1.581262964755297">
        <ele>11.67</ele>
        <time>2018-07-04T16:02:02Z</time>
      </trkpt>
      <trkpt lat="49.186094021424651" lon="-1.582315983250737">
        <ele>11.19</ele>
        <time>2018-07-04T16:02:18Z</time>
      </trkpt>
      <trkpt lat="49.182383017614484" lon="-1.583865964785218">
        <ele>11.67</ele>
        <time>2018-07-04T16:02:37Z</time>
      </trkpt>
      <trkpt lat="49.180560037493706" lon="-1.585144959390163">
        <ele>11.19</ele>
        <time>2018-07-04T16:02:47Z</time>
      </trkpt>
      <trkpt lat="49.178311005234718" lon="-1.586482962593436">
        <ele>10.23</ele>
        <time>2018-07-04T16:02:59Z</time>
      </trkpt>
      <trkpt lat="49.17537298053503" lon="-1.587631031870842">
        <ele>10.23</ele>
        <time>2018-07-04T16:03:14Z</time>
      </trkpt>
      <trkpt lat="49.171649990603328" lon="-1.589126028120518">
        <ele>11.19</ele>
        <time>2018-07-04T16:03:33Z</time>
      </trkpt>
      <trkpt lat="49.17012901045382" lon="-1.589337000623345">
        <ele>11.19</ele>
        <time>2018-07-04T16:03:41Z</time>
      </trkpt>
      <trkpt lat="49.168897038325667" lon="-1.589203979820013">
        <ele>9.75</ele>
        <time>2018-07-04T16:03:50Z</time>
      </trkpt>
      <trkpt lat="49.168436033651233" lon="-1.589214038103819">
        <ele>8.310000000000001</ele>
        <time>2018-07-04T16:03:54Z</time>
      </trkpt>
      <trkpt lat="49.16817401535809" lon="-1.589296013116837">
        <ele>7.35</ele>
        <time>2018-07-04T16:03:57Z</time>
      </trkpt>
      <trkpt lat="49.167991038411856" lon="-1.589403972029686">
        <ele>5.91</ele>
        <time>2018-07-04T16:04:00Z</time>
      </trkpt>
      <trkpt lat="49.167803032323718" lon="-1.58951603807509">
        <ele>5.42</ele>
        <time>2018-07-04T16:04:03Z</time>
      </trkpt>
      <trkpt lat="49.16770395822823" lon="-1.58956297673285">
        <ele>5.42</ele>
        <time>2018-07-04T16:04:04Z</time>
      </trkpt>
      <trkpt lat="49.167601028457284" lon="-1.58956297673285">
        <ele>5.42</ele>
        <time>2018-07-04T16:04:05Z</time>
      </trkpt>
      <trkpt lat="49.167491979897022" lon="-1.58945401199162">
        <ele>5.91</ele>
        <time>2018-07-04T16:04:06Z</time>
      </trkpt>
      <trkpt lat="49.167392989620566" lon="-1.589348986744881">
        <ele>5.42</ele>
        <time>2018-07-04T16:04:07Z</time>
      </trkpt>
      <trkpt lat="49.16727002710104" lon="-1.58930397592485">
        <ele>5.42</ele>
        <time>2018-07-04T16:04:08Z</time>
      </trkpt>
      <trkpt lat="49.167137006297708" lon="-1.589259970933199">
        <ele>5.42</ele>
        <time>2018-07-04T16:04:09Z</time>
      </trkpt>
      <trkpt lat="49.165814006701112" lon="-1.589120998978615">
        <ele>7.35</ele>
        <time>2018-07-04T16:04:17Z</time>
      </trkpt>
      <trkpt lat="49.164010975509882" lon="-1.589118987321854">
        <ele>9.27</ele>
        <time>2018-07-04T16:04:26Z</time>
      </trkpt>
      <trkpt lat="49.160770028829575" lon="-1.58893802203238">
        <ele>10.23</ele>
        <time>2018-07-04T16:04:42Z</time>
      </trkpt>
      <trkpt lat="49.158748984336853" lon="-1.588729983195663">
        <ele>11.19</ele>
        <time>2018-07-04T16:04:52Z</time>
      </trkpt>
      <trkpt lat="49.155748011544347" lon="-1.588234025985003">
        <ele>9.75</ele>
        <time>2018-07-04T16:05:07Z</time>
      </trkpt>
      <trkpt lat="49.152581999078393" lon="-1.587479989975691">
        <ele>8.789999999999999</ele>
        <time>2018-07-04T16:05:23Z</time>
      </trkpt>
      <trkpt lat="49.151427978649735" lon="-1.587396003305912">
        <ele>8.789999999999999</ele>
        <time>2018-07-04T16:05:30Z</time>
      </trkpt>
      <trkpt lat="49.14967498742044" lon="-1.587770003825426">
        <ele>8.310000000000001</ele>
        <time>2018-07-04T16:05:39Z</time>
      </trkpt>
      <trkpt lat="49.145882008597255" lon="-1.588838025927544">
        <ele>7.35</ele>
        <time>2018-07-04T16:05:58Z</time>
      </trkpt>
      <trkpt lat="49.142318023368716" lon="-1.589866988360882">
        <ele>8.310000000000001</ele>
        <time>2018-07-04T16:06:16Z</time>
      </trkpt>
      <trkpt lat="49.139166008681059" lon="-1.590963006019592">
        <ele>8.789999999999999</ele>
        <time>2018-07-04T16:06:32Z</time>
      </trkpt>
      <trkpt lat="49.136968022212386" lon="-1.591359972953796">
        <ele>10.23</ele>
        <time>2018-07-04T16:06:43Z</time>
      </trkpt>
      <trkpt lat="49.133117962628603" lon="-1.591633977368474">
        <ele>12.15</ele>
        <time>2018-07-04T16:07:02Z</time>
      </trkpt>
      <trkpt lat="49.131117034703493" lon="-1.59128000959754">
        <ele>10.23</ele>
        <time>2018-07-04T16:07:12Z</time>
      </trkpt>
      <trkpt lat="49.127785982564092" lon="-1.589920967817307">
        <ele>8.310000000000001</ele>
        <time>2018-07-04T16:07:29Z</time>
      </trkpt>
      <trkpt lat="49.125582966953516" lon="-1.589621985331178">
        <ele>9.75</ele>
        <time>2018-07-04T16:07:40Z</time>
      </trkpt>
      <trkpt lat="49.122964041307569" lon="-1.589576974511147">
        <ele>10.23</ele>
        <time>2018-07-04T16:07:53Z</time>
      </trkpt>
      <trkpt lat="49.119725022464991" lon="-1.589521989226341">
        <ele>10.23</ele>
        <time>2018-07-04T16:08:09Z</time>
      </trkpt>
      <trkpt lat="49.117934983223677" lon="-1.589980982244015">
        <ele>10.23</ele>
        <time>2018-07-04T16:08:18Z</time>
      </trkpt>
      <trkpt lat="49.115058984607458" lon="-1.591420993208885">
        <ele>10.710000000000001</ele>
        <time>2018-07-04T16:08:33Z</time>
      </trkpt>
      <trkpt lat="49.111415036022663" lon="-1.593268029391766">
        <ele>9.27</ele>
        <time>2018-07-04T16:08:52Z</time>
      </trkpt>
      <trkpt lat="49.108738023787737" lon="-1.594617012888193">
        <ele>9.75</ele>
        <time>2018-07-04T16:09:06Z</time>
      </trkpt>
      <trkpt lat="49.106630980968475" lon="-1.595677994191647">
        <ele>11.19</ele>
        <time>2018-07-04T16:09:17Z</time>
      </trkpt>
      <trkpt lat="49.103905018419027" lon="-1.596863027662039">
        <ele>7.83</ele>
        <time>2018-07-04T16:09:31Z</time>
      </trkpt>
      <trkpt lat="49.101147036999464" lon="-1.597815966233611">
        <ele>9.27</ele>
        <time>2018-07-04T16:09:45Z</time>
      </trkpt>
      <trkpt lat="49.09892600029707" lon="-1.598330028355122">
        <ele>10.710000000000001</ele>
        <time>2018-07-04T16:09:57Z</time>
      </trkpt>
      <trkpt lat="49.097994016483426" lon="-1.598529014736414">
        <ele>10.710000000000001</ele>
        <time>2018-07-04T16:10:05Z</time>
      </trkpt>
      <trkpt lat="49.097907012328506" lon="-1.598572013899684">
        <ele>10.710000000000001</ele>
        <time>2018-07-04T16:10:06Z</time>
      </trkpt>
      <trkpt lat="49.097859989851713" lon="-1.59867100417614">
        <ele>10.23</ele>
        <time>2018-07-04T16:10:07Z</time>
      </trkpt>
      <trkpt lat="49.09776896238327" lon="-1.598876025527716">
        <ele>10.23</ele>
        <time>2018-07-04T16:10:09Z</time>
      </trkpt>
      <trkpt lat="49.097695033997297" lon="-1.598955988883972">
        <ele>9.75</ele>
        <time>2018-07-04T16:10:10Z</time>
      </trkpt>
      <trkpt lat="49.097608029842377" lon="-1.598946014419198">
        <ele>9.75</ele>
        <time>2018-07-04T16:10:11Z</time>
      </trkpt>
      <trkpt lat="49.097527982667089" lon="-1.59893000498414">
        <ele>9.75</ele>
        <time>2018-07-04T16:10:12Z</time>
      </trkpt>
      <trkpt lat="49.097448019310832" lon="-1.598852975293994">
        <ele>9.27</ele>
        <time>2018-07-04T16:10:13Z</time>
      </trkpt>
      <trkpt lat="49.097354980185628" lon="-1.598806036636233">
        <ele>9.27</ele>
        <time>2018-07-04T16:10:14Z</time>
      </trkpt>
      <trkpt lat="49.09725196659565" lon="-1.598754990845919">
        <ele>8.789999999999999</ele>
        <time>2018-07-04T16:10:15Z</time>
      </trkpt>
      <trkpt lat="49.097131015732884" lon="-1.598750967532396">
        <ele>8.310000000000001</ele>
        <time>2018-07-04T16:10:16Z</time>
      </trkpt>
      <trkpt lat="49.096996989101171" lon="-1.598755996674299">
        <ele>8.310000000000001</ele>
        <time>2018-07-04T16:10:17Z</time>
      </trkpt>
      <trkpt lat="49.095519008114934" lon="-1.598924975842238">
        <ele>8.310000000000001</ele>
        <time>2018-07-04T16:10:26Z</time>
      </trkpt>
      <trkpt lat="49.093804992735386" lon="-1.599152041599155">
        <ele>9.75</ele>
        <time>2018-07-04T16:10:35Z</time>
      </trkpt>
      <trkpt lat="49.091528970748186" lon="-1.59948798827827">
        <ele>8.789999999999999</ele>
        <time>2018-07-04T16:10:46Z</time>
      </trkpt>
      <trkpt lat="49.089367026463151" lon="-1.599597036838532">
        <ele>9.27</ele>
        <time>2018-07-04T16:10:57Z</time>
      </trkpt>
      <trkpt lat="49.087614035233855" lon="-1.598965041339397">
        <ele>9.75</ele>
        <time>2018-07-04T16:11:06Z</time>
      </trkpt>
      <trkpt lat="49.086196990683675" lon="-1.597772967070341">
        <ele>10.23</ele>
        <time>2018-07-04T16:11:14Z</time>
      </trkpt>
      <trkpt lat="49.084373004734516" lon="-1.5954680275172">
        <ele>11.67</ele>
        <time>2018-07-04T16:11:25Z</time>
      </trkpt>
      <trkpt lat="49.082571985200047" lon="-1.593053033575416">
        <ele>12.15</ele>
        <time>2018-07-04T16:11:34Z</time>
      </trkpt>
      <trkpt lat="49.081258038058877" lon="-1.591310016810894">
        <ele>11.67</ele>
        <time>2018-07-04T16:11:42Z</time>
      </trkpt>
      <trkpt lat="49.079691041260958" lon="-1.589229041710496">
        <ele>10.710000000000001</ele>
        <time>2018-07-04T16:11:52Z</time>
      </trkpt>
      <trkpt lat="49.07821599394083" lon="-1.587618961930275">
        <ele>12.15</ele>
        <time>2018-07-04T16:12:01Z</time>
      </trkpt>
      <trkpt lat="49.076241971924901" lon="-1.585510997101665">
        <ele>14.08</ele>
        <time>2018-07-04T16:12:13Z</time>
      </trkpt>
      <trkpt lat="49.073133040219545" lon="-1.582110039889813">
        <ele>16</ele>
        <time>2018-07-04T16:12:32Z</time>
      </trkpt>
      <trkpt lat="49.071461018174887" lon="-1.579920016229153">
        <ele>20.809999999999999</ele>
        <time>2018-07-04T16:12:43Z</time>
      </trkpt>
      <trkpt lat="49.069774998351932" lon="-1.577758993953466">
        <ele>31.859999999999999</ele>
        <time>2018-07-04T16:12:54Z</time>
      </trkpt>
      <trkpt lat="49.068277990445495" lon="-1.576066017150879">
        <ele>36.670000000000002</ele>
        <time>2018-07-04T16:13:04Z</time>
      </trkpt>
      <trkpt lat="49.067724030464888" lon="-1.575601994991303">
        <ele>38.109999999999999</ele>
        <time>2018-07-04T16:13:10Z</time>
      </trkpt>
      <trkpt lat="49.067581035196781" lon="-1.57568003050983">
        <ele>38.590000000000003</ele>
        <time>2018-07-04T16:13:11Z</time>
      </trkpt>
      <trkpt lat="49.067495036870241" lon="-1.57568003050983">
        <ele>39.07</ele>
        <time>2018-07-04T16:13:13Z</time>
      </trkpt>
      <trkpt lat="49.067424964159727" lon="-1.575566958636046">
        <ele>39.07</ele>
        <time>2018-07-04T16:13:14Z</time>
      </trkpt>
      <trkpt lat="49.067387999966741" lon="-1.57550803385675">
        <ele>39.07</ele>
        <time>2018-07-04T16:13:15Z</time>
      </trkpt>
      <trkpt lat="49.067254979163408" lon="-1.575207961723208">
        <ele>39.549999999999997</ele>
        <time>2018-07-04T16:13:17Z</time>
      </trkpt>
      <trkpt lat="49.067150959745049" lon="-1.575121963396668">
        <ele>40.030000000000001</ele>
        <time>2018-07-04T16:13:18Z</time>
      </trkpt>
      <trkpt lat="49.067032020539045" lon="-1.575022973120213">
        <ele>40.509999999999998</ele>
        <time>2018-07-04T16:13:19Z</time>
      </trkpt>
      <trkpt lat="49.065931979566813" lon="-1.57411496154964">
        <ele>42.920000000000002</ele>
        <time>2018-07-04T16:13:26Z</time>
      </trkpt>
      <trkpt lat="49.064308991655707" lon="-1.572771007195115">
        <ele>45.32</ele>
        <time>2018-07-04T16:13:35Z</time>
      </trkpt>
      <trkpt lat="49.061286980286241" lon="-1.570255011320114">
        <ele>48.68</ele>
        <time>2018-07-04T16:13:52Z</time>
      </trkpt>
      <trkpt lat="49.058445012196898" lon="-1.567879999056459">
        <ele>50.609999999999999</ele>
        <time>2018-07-04T16:14:08Z</time>
      </trkpt>
      <trkpt lat="49.055953994393349" lon="-1.565790977329016">
        <ele>49.649999999999999</ele>
        <time>2018-07-04T16:14:22Z</time>
      </trkpt>
      <trkpt lat="49.052923014387488" lon="-1.563269030302763">
        <ele>43.880000000000003</ele>
        <time>2018-07-04T16:14:39Z</time>
      </trkpt>
      <trkpt lat="49.050741959363222" lon="-1.561048999428749">
        <ele>30.899999999999999</ele>
        <time>2018-07-04T16:14:52Z</time>
      </trkpt>
      <trkpt lat="49.049217039719224" lon="-1.558626964688301">
        <ele>20.809999999999999</ele>
        <time>2018-07-04T16:15:03Z</time>
      </trkpt>
      <trkpt lat="49.047587011009455" lon="-1.556450016796589">
        <ele>32.340000000000003</ele>
        <time>2018-07-04T16:15:14Z</time>
      </trkpt>
      <trkpt lat="49.046096038073301" lon="-1.555466987192631">
        <ele>37.630000000000003</ele>
        <time>2018-07-04T16:15:22Z</time>
      </trkpt>
      <trkpt lat="49.04407599940896" lon="-1.554040974006057">
        <ele>39.07</ele>
        <time>2018-07-04T16:15:33Z</time>
      </trkpt>
      <trkpt lat="49.043157007545233" lon="-1.5524120349437">
        <ele>38.109999999999999</ele>
        <time>2018-07-04T16:15:40Z</time>
      </trkpt>
      <trkpt lat="49.042659038677812" lon="-1.550399037078023">
        <ele>32.82</ele>
        <time>2018-07-04T16:15:47Z</time>
      </trkpt>
      <trkpt lat="49.041944984346628" lon="-1.545617999508977">
        <ele>18.399999999999999</ele>
        <time>2018-07-04T16:16:03Z</time>
      </trkpt>
      <trkpt lat="49.041408961638808" lon="-1.542346039786935">
        <ele>14.56</ele>
        <time>2018-07-04T16:16:14Z</time>
      </trkpt>
      <trkpt lat="49.040524000301957" lon="-1.539642037823796">
        <ele>20.32</ele>
        <time>2018-07-04T16:16:24Z</time>
      </trkpt>
      <trkpt lat="49.039558991789818" lon="-1.536885984241962">
        <ele>24.170000000000002</ele>
        <time>2018-07-04T16:16:34Z</time>
      </trkpt>
      <trkpt lat="49.038191987201571" lon="-1.533116977661848">
        <ele>19.84</ele>
        <time>2018-07-04T16:16:48Z</time>
      </trkpt>
      <trkpt lat="49.037151038646698" lon="-1.530486987903714">
        <ele>17.440000000000001</ele>
        <time>2018-07-04T16:16:58Z</time>
      </trkpt>
      <trkpt lat="49.035654030740261" lon="-1.527232965454459">
        <ele>14.08</ele>
        <time>2018-07-04T16:17:11Z</time>
      </trkpt>
      <trkpt lat="49.034180995076895" lon="-1.525138998404145">
        <ele>12.15</ele>
        <time>2018-07-04T16:17:21Z</time>
      </trkpt>
      <trkpt lat="49.033314976841211" lon="-1.523066991940141">
        <ele>11.67</ele>
        <time>2018-07-04T16:17:29Z</time>
      </trkpt>
      <trkpt lat="49.032550966367126" lon="-1.520228963345289">
        <ele>12.630000000000001</ele>
        <time>2018-07-04T16:17:39Z</time>
      </trkpt>
      <trkpt lat="49.031442040577531" lon="-1.517679020762444">
        <ele>16</ele>
        <time>2018-07-04T16:17:49Z</time>
      </trkpt>
      <trkpt lat="49.02989599853754" lon="-1.514445031061769">
        <ele>17.440000000000001</ele>
        <time>2018-07-04T16:18:02Z</time>
      </trkpt>
      <trkpt lat="49.028462022542953" lon="-1.511459983885288">
        <ele>18.879999999999999</ele>
        <time>2018-07-04T16:18:14Z</time>
      </trkpt>
      <trkpt lat="49.026596965268254" lon="-1.50787403807044">
        <ele>16</ele>
        <time>2018-07-04T16:18:29Z</time>
      </trkpt>
      <trkpt lat="49.025156032294035" lon="-1.506180977448821">
        <ele>19.359999999999999</ele>
        <time>2018-07-04T16:18:38Z</time>
      </trkpt>
      <trkpt lat="49.023594986647367" lon="-1.504722023382783">
        <ele>20.809999999999999</ele>
        <time>2018-07-04T16:18:48Z</time>
      </trkpt>
      <trkpt lat="49.022523025050759" lon="-1.504040993750095">
        <ele>18.399999999999999</ele>
        <time>2018-07-04T16:18:57Z</time>
      </trkpt>
      <trkpt lat="49.022308029234409" lon="-1.503995982930064">
        <ele>17.920000000000002</ele>
        <time>2018-07-04T16:18:59Z</time>
      </trkpt>
      <trkpt lat="49.022213984280825" lon="-1.503976034000516">
        <ele>17.440000000000001</ele>
        <time>2018-07-04T16:19:00Z</time>
      </trkpt>
      <trkpt lat="49.022045005112886" lon="-1.504151970148087">
        <ele>16.960000000000001</ele>
        <time>2018-07-04T16:19:02Z</time>
      </trkpt>
      <trkpt lat="49.021940985694528" lon="-1.504096984863281">
        <ele>16.960000000000001</ele>
        <time>2018-07-04T16:19:03Z</time>
      </trkpt>
      <trkpt lat="49.021833026781678" lon="-1.503967987373471">
        <ele>16.48</ele>
        <time>2018-07-04T16:19:04Z</time>
      </trkpt>
      <trkpt lat="49.021720038726926" lon="-1.50398500263691">
        <ele>16</ele>
        <time>2018-07-04T16:19:05Z</time>
      </trkpt>
      <trkpt lat="49.021605039015412" lon="-1.504011992365122">
        <ele>16</ele>
        <time>2018-07-04T16:19:06Z</time>
      </trkpt>
      <trkpt lat="49.021485010161996" lon="-1.504039987921715">
        <ele>15.52</ele>
        <time>2018-07-04T16:19:07Z</time>
      </trkpt>
      <trkpt lat="49.021357018500566" lon="-1.504069995135069">
        <ele>15.039999999999999</ele>
        <time>2018-07-04T16:19:08Z</time>
      </trkpt>
      <trkpt lat="49.021060969680548" lon="-1.504139984026551">
        <ele>14.08</ele>
        <time>2018-07-04T16:19:10Z</time>
      </trkpt>
      <trkpt lat="49.019552981480956" lon="-1.505176993086934">
        <ele>10.23</ele>
        <time>2018-07-04T16:19:22Z</time>
      </trkpt>
      <trkpt lat="49.017910966649652" lon="-1.506523964926601">
        <ele>9.75</ele>
        <time>2018-07-04T16:19:36Z</time>
      </trkpt>
      <trkpt lat="49.016699027270079" lon="-1.507700029760599">
        <ele>10.710000000000001</ele>
        <time>2018-07-04T16:19:44Z</time>
      </trkpt>
      <trkpt lat="49.015384996309876" lon="-1.509456038475037">
        <ele>21.289999999999999</ele>
        <time>2018-07-04T16:19:53Z</time>
      </trkpt>
      <trkpt lat="49.014042969793081" lon="-1.511758966371417">
        <ele>32.340000000000003</ele>
        <time>2018-07-04T16:20:03Z</time>
      </trkpt>
      <trkpt lat="49.012407995760441" lon="-1.513588987290859">
        <ele>37.630000000000003</ele>
        <time>2018-07-04T16:20:13Z</time>
      </trkpt>
      <trkpt lat="49.010546961799264" lon="-1.514852978289127">
        <ele>36.670000000000002</ele>
        <time>2018-07-04T16:20:23Z</time>
      </trkpt>
      <trkpt lat="49.00834696367383" lon="-1.516369013115764">
        <ele>34.259999999999998</ele>
        <time>2018-07-04T16:20:35Z</time>
      </trkpt>
      <trkpt lat="49.00654099881649" lon="-1.518328031525016">
        <ele>36.189999999999998</ele>
        <time>2018-07-04T16:20:46Z</time>
      </trkpt>
      <trkpt lat="49.005108028650284" lon="-1.519414996728301">
        <ele>37.149999999999999</ele>
        <time>2018-07-04T16:20:54Z</time>
      </trkpt>
      <trkpt lat="49.002956980839372" lon="-1.520205996930599">
        <ele>37.630000000000003</ele>
        <time>2018-07-04T16:21:05Z</time>
      </trkpt>
      <trkpt lat="48.99940799921751" lon="-1.521294973790646">
        <ele>42.920000000000002</ele>
        <time>2018-07-04T16:21:23Z</time>
      </trkpt>
      <trkpt lat="48.9981409907341" lon="-1.521598985418677">
        <ele>44.840000000000003</ele>
        <time>2018-07-04T16:21:30Z</time>
      </trkpt>
      <trkpt lat="48.996944976970553" lon="-1.521742986515164">
        <ele>45.799999999999997</ele>
        <time>2018-07-04T16:21:40Z</time>
      </trkpt>
      <trkpt lat="48.995308997109532" lon="-1.521941972896457">
        <ele>40.990000000000002</ele>
        <time>2018-07-04T16:21:53Z</time>
      </trkpt>
      <trkpt lat="48.993877032771707" lon="-1.522429967299104">
        <ele>38.590000000000003</ele>
        <time>2018-07-04T16:22:05Z</time>
      </trkpt>
      <trkpt lat="48.992654029279947" lon="-1.522887032479048">
        <ele>38.590000000000003</ele>
        <time>2018-07-04T16:22:16Z</time>
      </trkpt>
      <trkpt lat="48.991146963089705" lon="-1.523703010752797">
        <ele>39.07</ele>
        <time>2018-07-04T16:22:30Z</time>
      </trkpt>
      <trkpt lat="48.990338025614619" lon="-1.524352021515369">
        <ele>45.799999999999997</ele>
        <time>2018-07-04T16:22:39Z</time>
      </trkpt>
      <trkpt lat="48.99025403894484" lon="-1.52441899292171">
        <ele>46.759999999999998</ele>
        <time>2018-07-04T16:22:40Z</time>
      </trkpt>
      <trkpt lat="48.989206971600652" lon="-1.525133969262242">
        <ele>56.369999999999997</ele>
        <time>2018-07-04T16:22:52Z</time>
      </trkpt>
      <trkpt lat="48.989132037386298" lon="-1.525142015889287">
        <ele>57.340000000000003</ele>
        <time>2018-07-04T16:22:53Z</time>
      </trkpt>
      <trkpt lat="48.988878987729549" lon="-1.525109997019172">
        <ele>61.659999999999997</ele>
        <time>2018-07-04T16:23:00Z</time>
      </trkpt>
      <trkpt lat="48.988855015486479" lon="-1.52510697953403">
        <ele>61.659999999999997</ele>
        <time>2018-07-04T16:23:06Z</time>
      </trkpt>
      <trkpt lat="48.988819979131222" lon="-1.525218961760402">
        <ele>61.659999999999997</ele>
        <time>2018-07-04T16:23:07Z</time>
      </trkpt>
      <trkpt lat="48.988811010494828" lon="-1.525305965915322">
        <ele>61.659999999999997</ele>
        <time>2018-07-04T16:23:08Z</time>
      </trkpt>
      <trkpt lat="48.988777985796332" lon="-1.525621041655541">
        <ele>61.659999999999997</ele>
        <time>2018-07-04T16:23:11Z</time>
      </trkpt>
      <trkpt lat="48.988769017159939" lon="-1.52570896781981">
        <ele>61.18</ele>
        <time>2018-07-04T16:23:12Z</time>
      </trkpt>
      <trkpt lat="48.988719983026385" lon="-1.525750039145351">
        <ele>61.18</ele>
        <time>2018-07-04T16:23:13Z</time>
      </trkpt>
      <trkpt lat="48.988672960549593" lon="-1.525773005560041">
        <ele>61.18</ele>
        <time>2018-07-04T16:23:14Z</time>
      </trkpt>
      <trkpt lat="48.988625016063452" lon="-1.525796977803111">
        <ele>61.18</ele>
        <time>2018-07-04T16:23:15Z</time>
      </trkpt>
      <trkpt lat="48.988574976101518" lon="-1.525822039693594">
        <ele>60.700000000000003</ele>
        <time>2018-07-04T16:23:16Z</time>
      </trkpt>
      <trkpt lat="48.988526025786996" lon="-1.525833019986749">
        <ele>60.700000000000003</ele>
        <time>2018-07-04T16:23:17Z</time>
      </trkpt>
      <trkpt lat="48.988466011360288" lon="-1.525831008329988">
        <ele>60.219999999999999</ele>
        <time>2018-07-04T16:23:18Z</time>
      </trkpt>
      <trkpt lat="48.988396022468805" lon="-1.525828996673226">
        <ele>60.219999999999999</ele>
        <time>2018-07-04T16:23:19Z</time>
      </trkpt>
      <trkpt lat="48.988316981121898" lon="-1.525825979188085">
        <ele>59.740000000000002</ele>
        <time>2018-07-04T16:23:20Z</time>
      </trkpt>
      <trkpt lat="48.988230982795358" lon="-1.525822961702943">
        <ele>59.740000000000002</ele>
        <time>2018-07-04T16:23:21Z</time>
      </trkpt>
      <trkpt lat="48.988139033317566" lon="-1.525821033865213">
        <ele>59.259999999999998</ele>
        <time>2018-07-04T16:23:22Z</time>
      </trkpt>
      <trkpt lat="48.987391032278538" lon="-1.525845006108284">
        <ele>55.409999999999997</ele>
        <time>2018-07-04T16:23:29Z</time>
      </trkpt>
      <trkpt lat="48.986154031008482" lon="-1.526340963318944">
        <ele>48.68</ele>
        <time>2018-07-04T16:23:40Z</time>
      </trkpt>
      <trkpt lat="48.984913006424904" lon="-1.526691997423768">
        <ele>41.469999999999999</ele>
        <time>2018-07-04T16:23:50Z</time>
      </trkpt>
      <trkpt lat="48.983975993469357" lon="-1.527240006253123">
        <ele>37.149999999999999</ele>
        <time>2018-07-04T16:23:56Z</time>
      </trkpt>
      <trkpt lat="48.983673993498087" lon="-1.527630016207695">
        <ele>36.189999999999998</ele>
        <time>2018-07-04T16:23:58Z</time>
      </trkpt>
      <trkpt lat="48.983537033200264" lon="-1.527853980660439">
        <ele>35.710000000000001</ele>
        <time>2018-07-04T16:23:59Z</time>
      </trkpt>
      <trkpt lat="48.98340200074017" lon="-1.528074005618691">
        <ele>36.189999999999998</ele>
        <time>2018-07-04T16:24:00Z</time>
      </trkpt>
      <trkpt lat="48.9822400175035" lon="-1.530580027028918">
        <ele>36.670000000000002</ele>
        <time>2018-07-04T16:24:10Z</time>
      </trkpt>
      <trkpt lat="48.982096016407013" lon="-1.530784964561462">
        <ele>37.149999999999999</ele>
        <time>2018-07-04T16:24:11Z</time>
      </trkpt>
      <trkpt lat="48.981945980340242" lon="-1.530982023105025">
        <ele>37.630000000000003</ele>
        <time>2018-07-04T16:24:12Z</time>
      </trkpt>
      <trkpt lat="48.981779012829065" lon="-1.531135998666287">
        <ele>38.109999999999999</ele>
        <time>2018-07-04T16:24:13Z</time>
      </trkpt>
      <trkpt lat="48.981599975377321" lon="-1.531256027519703">
        <ele>39.07</ele>
        <time>2018-07-04T16:24:14Z</time>
      </trkpt>
      <trkpt lat="48.981416998431087" lon="-1.531373960897327">
        <ele>39.549999999999997</ele>
        <time>2018-07-04T16:24:15Z</time>
      </trkpt>
      <trkpt lat="48.981223963201046" lon="-1.53144302777946">
        <ele>39.549999999999997</ele>
        <time>2018-07-04T16:24:16Z</time>
      </trkpt>
      <trkpt lat="48.981030005961657" lon="-1.531512010842562">
        <ele>40.509999999999998</ele>
        <time>2018-07-04T16:24:17Z</time>
      </trkpt>
      <trkpt lat="48.978211004287004" lon="-1.532680029049516">
        <ele>42.920000000000002</ele>
        <time>2018-07-04T16:24:32Z</time>
      </trkpt>
      <trkpt lat="48.977610021829605" lon="-1.533084958791733">
        <ele>42.920000000000002</ele>
        <time>2018-07-04T16:24:37Z</time>
      </trkpt>
      <trkpt lat="48.977458979934454" lon="-1.533343959599733">
        <ele>42.920000000000002</ele>
        <time>2018-07-04T16:24:39Z</time>
      </trkpt>
      <trkpt lat="48.977372981607914" lon="-1.533321999013424">
        <ele>42.920000000000002</ele>
        <time>2018-07-04T16:24:40Z</time>
      </trkpt>
      <trkpt lat="48.977137031033635" lon="-1.53331495821476">
        <ele>42.439999999999998</ele>
        <time>2018-07-04T16:24:42Z</time>
      </trkpt>
      <trkpt lat="48.977029994130135" lon="-1.533370027318597">
        <ele>42.439999999999998</ele>
        <time>2018-07-04T16:24:43Z</time>
      </trkpt>
      <trkpt lat="48.976129023358226" lon="-1.533738998696208">
        <ele>40.509999999999998</ele>
        <time>2018-07-04T16:24:49Z</time>
      </trkpt>
      <trkpt lat="48.974171010777354" lon="-1.534444000571966">
        <ele>34.740000000000002</ele>
        <time>2018-07-04T16:24:59Z</time>
      </trkpt>
      <trkpt lat="48.971341028809547" lon="-1.535858027637005">
        <ele>23.210000000000001</ele>
        <time>2018-07-04T16:25:14Z</time>
      </trkpt>
      <trkpt lat="48.970341989770532" lon="-1.536401007324457">
        <ele>19.359999999999999</ele>
        <time>2018-07-04T16:25:22Z</time>
      </trkpt>
      <trkpt lat="48.970098998397589" lon="-1.536467978730798">
        <ele>18.399999999999999</ele>
        <time>2018-07-04T16:25:24Z</time>
      </trkpt>
      <trkpt lat="48.969967989251018" lon="-1.536493040621281">
        <ele>18.399999999999999</ele>
        <time>2018-07-04T16:25:25Z</time>
      </trkpt>
      <trkpt lat="48.969836980104446" lon="-1.536462027579546">
        <ele>17.920000000000002</ele>
        <time>2018-07-04T16:25:26Z</time>
      </trkpt>
      <trkpt lat="48.969704965129495" lon="-1.536431014537811">
        <ele>17.920000000000002</ele>
        <time>2018-07-04T16:25:27Z</time>
      </trkpt>
      <trkpt lat="48.969574961811304" lon="-1.536378962919116">
        <ele>17.440000000000001</ele>
        <time>2018-07-04T16:25:28Z</time>
      </trkpt>
      <trkpt lat="48.969442024827003" lon="-1.536329006776214">
        <ele>17.440000000000001</ele>
        <time>2018-07-04T16:25:29Z</time>
      </trkpt>
      <trkpt lat="48.96808197721839" lon="-1.536014014855027">
        <ele>18.399999999999999</ele>
        <time>2018-07-04T16:25:39Z</time>
      </trkpt>
      <trkpt lat="48.967445958405733" lon="-1.536004962399602">
        <ele>21.77</ele>
        <time>2018-07-04T16:25:46Z</time>
      </trkpt>
      <trkpt lat="48.966614976525307" lon="-1.536121973767877">
        <ele>24.170000000000002</ele>
        <time>2018-07-04T16:25:58Z</time>
      </trkpt>
      <trkpt lat="48.965751975774765" lon="-1.5363659709692">
        <ele>25.609999999999999</ele>
        <time>2018-07-04T16:26:08Z</time>
      </trkpt>
      <trkpt lat="48.964819991961122" lon="-1.536905011162162">
        <ele>24.649999999999999</ele>
        <time>2018-07-04T16:26:18Z</time>
      </trkpt>
      <trkpt lat="48.964607007801533" lon="-1.536996960639954">
        <ele>23.210000000000001</ele>
        <time>2018-07-04T16:26:20Z</time>
      </trkpt>
      <trkpt lat="48.964488990604877" lon="-1.53700701892376">
        <ele>22.73</ele>
        <time>2018-07-04T16:26:21Z</time>
      </trkpt>
      <trkpt lat="48.964371979236603" lon="-1.53700701892376">
        <ele>22.25</ele>
        <time>2018-07-04T16:26:22Z</time>
      </trkpt>
      <trkpt lat="48.963136989623308" lon="-1.53670602478087">
        <ele>19.84</ele>
        <time>2018-07-04T16:26:31Z</time>
      </trkpt>
      <trkpt lat="48.96144300699234" lon="-1.536238985136151">
        <ele>18.879999999999999</ele>
        <time>2018-07-04T16:26:42Z</time>
      </trkpt>
      <trkpt lat="48.959828987717628" lon="-1.535678990185261">
        <ele>20.32</ele>
        <time>2018-07-04T16:26:50Z</time>
      </trkpt>
      <trkpt lat="48.958248998969793" lon="-1.534867035225034">
        <ele>19.359999999999999</ele>
        <time>2018-07-04T16:26:57Z</time>
      </trkpt>
      <trkpt lat="48.957348028197885" lon="-1.534423967823386">
        <ele>18.879999999999999</ele>
        <time>2018-07-04T16:27:03Z</time>
      </trkpt>
      <trkpt lat="48.95613600499928" lon="-1.533923987299204">
        <ele>18.879999999999999</ele>
        <time>2018-07-04T16:27:14Z</time>
      </trkpt>
      <trkpt lat="48.955245008692145" lon="-1.533670015633106">
        <ele>18.399999999999999</ele>
        <time>2018-07-04T16:27:22Z</time>
      </trkpt>
      <trkpt lat="48.955132020637393" lon="-1.533660041168332">
        <ele>18.879999999999999</ele>
        <time>2018-07-04T16:27:23Z</time>
      </trkpt>
      <trkpt lat="48.955017020925879" lon="-1.533650988712907">
        <ele>19.359999999999999</ele>
        <time>2018-07-04T16:27:24Z</time>
      </trkpt>
      <trkpt lat="48.95491098985076" lon="-1.533642020076513">
        <ele>19.359999999999999</ele>
        <time>2018-07-04T16:27:25Z</time>
      </trkpt>
      <trkpt lat="48.954811999574304" lon="-1.533632967621088">
        <ele>19.84</ele>
        <time>2018-07-04T16:27:26Z</time>
      </trkpt>
      <trkpt lat="48.953864006325603" lon="-1.533726006746292">
        <ele>19.84</ele>
        <time>2018-07-04T16:27:36Z</time>
      </trkpt>
      <trkpt lat="48.952491972595453" lon="-1.533714020624757">
        <ele>16.960000000000001</ele>
        <time>2018-07-04T16:27:46Z</time>
      </trkpt>
      <trkpt lat="48.950772006064653" lon="-1.533496007323265">
        <ele>19.84</ele>
        <time>2018-07-04T16:27:58Z</time>
      </trkpt>
      <trkpt lat="48.950305972248316" lon="-1.533405985683203">
        <ele>21.77</ele>
        <time>2018-07-04T16:28:02Z</time>
      </trkpt>
      <trkpt lat="48.950202958658338" lon="-1.533380001783371">
        <ele>22.25</ele>
        <time>2018-07-04T16:28:03Z</time>
      </trkpt>
      <trkpt lat="48.950143028050661" lon="-1.533364998176694">
        <ele>22.73</ele>
        <time>2018-07-04T16:28:04Z</time>
      </trkpt>
      <trkpt lat="48.949880003929138" lon="-1.5333560295403">
        <ele>23.690000000000001</ele>
        <time>2018-07-04T16:28:06Z</time>
      </trkpt>
      <trkpt lat="48.948537977412343" lon="-1.533193001523614">
        <ele>23.690000000000001</ele>
        <time>2018-07-04T16:28:16Z</time>
      </trkpt>
      <trkpt lat="48.94711397588253" lon="-1.532832998782396">
        <ele>22.73</ele>
        <time>2018-07-04T16:28:28Z</time>
      </trkpt>
      <trkpt lat="48.945841016247869" lon="-1.532152974978089">
        <ele>21.77</ele>
        <time>2018-07-04T16:28:38Z</time>
      </trkpt>
      <trkpt lat="48.944549029693007" lon="-1.531413020566106">
        <ele>24.170000000000002</ele>
        <time>2018-07-04T16:28:46Z</time>
      </trkpt>
      <trkpt lat="48.942425977438688" lon="-1.530298981815577">
        <ele>29.460000000000001</ele>
        <time>2018-07-04T16:28:57Z</time>
      </trkpt>
      <trkpt lat="48.941088980063796" lon="-1.529739992693067">
        <ele>33.299999999999997</ele>
        <time>2018-07-04T16:29:04Z</time>
      </trkpt>
      <trkpt lat="48.939062990248203" lon="-1.529676960781217">
        <ele>36.670000000000002</ele>
        <time>2018-07-04T16:29:14Z</time>
      </trkpt>
      <trkpt lat="48.938030004501343" lon="-1.5292530041188">
        <ele>34.740000000000002</ele>
        <time>2018-07-04T16:29:20Z</time>
      </trkpt>
      <trkpt lat="48.936754027381539" lon="-1.528257988393307">
        <ele>28.02</ele>
        <time>2018-07-04T16:29:30Z</time>
      </trkpt>
      <trkpt lat="48.935904018580914" lon="-1.526993997395039">
        <ele>23.690000000000001</ele>
        <time>2018-07-04T16:29:39Z</time>
      </trkpt>
      <trkpt lat="48.935712995007634" lon="-1.526736002415419">
        <ele>23.210000000000001</ele>
        <time>2018-07-04T16:29:41Z</time>
      </trkpt>
      <trkpt lat="48.93441597931087" lon="-1.525618024170399">
        <ele>18.879999999999999</ele>
        <time>2018-07-04T16:29:51Z</time>
      </trkpt>
      <trkpt lat="48.932764995843172" lon="-1.524252025410533">
        <ele>17.920000000000002</ele>
        <time>2018-07-04T16:30:01Z</time>
      </trkpt>
      <trkpt lat="48.931203028187156" lon="-1.523041008040309">
        <ele>16</ele>
        <time>2018-07-04T16:30:10Z</time>
      </trkpt>
      <trkpt lat="48.931003035977483" lon="-1.522991973906755">
        <ele>15.52</ele>
        <time>2018-07-04T16:30:11Z</time>
      </trkpt>
      <trkpt lat="48.930804971605539" lon="-1.522958027198911">
        <ele>15.039999999999999</ele>
        <time>2018-07-04T16:30:12Z</time>
      </trkpt>
      <trkpt lat="48.92960200086236" lon="-1.522915028035641">
        <ele>16.960000000000001</ele>
        <time>2018-07-04T16:30:19Z</time>
      </trkpt>
      <trkpt lat="48.928194008767605" lon="-1.522884014993906">
        <ele>17.440000000000001</ele>
        <time>2018-07-04T16:30:29Z</time>
      </trkpt>
      <trkpt lat="48.92665701918304" lon="-1.522888038307428">
        <ele>15.52</ele>
        <time>2018-07-04T16:30:40Z</time>
      </trkpt>
      <trkpt lat="48.926512012258172" lon="-1.522861970588565">
        <ele>15.52</ele>
        <time>2018-07-04T16:30:41Z</time>
      </trkpt>
      <trkpt lat="48.925001006573439" lon="-1.522295018658042">
        <ele>18.399999999999999</ele>
        <time>2018-07-04T16:30:50Z</time>
      </trkpt>
      <trkpt lat="48.922100029885769" lon="-1.521129012107849">
        <ele>29.940000000000001</ele>
        <time>2018-07-04T16:31:05Z</time>
      </trkpt>
      <trkpt lat="48.920330023393035" lon="-1.520511014387012">
        <ele>38.590000000000003</ele>
        <time>2018-07-04T16:31:14Z</time>
      </trkpt>
      <trkpt lat="48.920128019526601" lon="-1.520495004951954">
        <ele>39.07</ele>
        <time>2018-07-04T16:31:15Z</time>
      </trkpt>
      <trkpt lat="48.917494006454945" lon="-1.520867999643087">
        <ele>40.990000000000002</ele>
        <time>2018-07-04T16:31:28Z</time>
      </trkpt>
      <trkpt lat="48.916522040963173" lon="-1.520965984091163">
        <ele>42.439999999999998</ele>
        <time>2018-07-04T16:31:34Z</time>
      </trkpt>
      <trkpt lat="48.91531303524971" lon="-1.521025998517871">
        <ele>43.399999999999999</ele>
        <time>2018-07-04T16:31:45Z</time>
      </trkpt>
      <trkpt lat="48.914467971771955" lon="-1.521033039316535">
        <ele>43.399999999999999</ele>
        <time>2018-07-04T16:31:54Z</time>
      </trkpt>
      <trkpt lat="48.914252975955606" lon="-1.521027004346252">
        <ele>44.359999999999999</ele>
        <time>2018-07-04T16:32:04Z</time>
      </trkpt>
      <trkpt lat="48.91372399404645" lon="-1.52104502543807">
        <ele>44.359999999999999</ele>
        <time>2018-07-04T16:32:11Z</time>
      </trkpt>
      <trkpt lat="48.912594029679894" lon="-1.521404022350907">
        <ele>44.359999999999999</ele>
        <time>2018-07-04T16:32:22Z</time>
      </trkpt>
      <trkpt lat="48.911273963749409" lon="-1.521962005645037">
        <ele>39.07</ele>
        <time>2018-07-04T16:32:33Z</time>
      </trkpt>
      <trkpt lat="48.910175012424588" lon="-1.522471960633993">
        <ele>32.340000000000003</ele>
        <time>2018-07-04T16:32:42Z</time>
      </trkpt>
      <trkpt lat="48.909230958670378" lon="-1.522972024977207">
        <ele>26.57</ele>
        <time>2018-07-04T16:32:50Z</time>
      </trkpt>
      <trkpt lat="48.909110007807612" lon="-1.522990968078375">
        <ele>25.609999999999999</ele>
        <time>2018-07-04T16:32:51Z</time>
      </trkpt>
      <trkpt lat="48.908988973125815" lon="-1.522943023592234">
        <ele>24.649999999999999</ele>
        <time>2018-07-04T16:32:52Z</time>
      </trkpt>
      <trkpt lat="48.908860981464386" lon="-1.52289398945868">
        <ele>23.690000000000001</ele>
        <time>2018-07-04T16:32:53Z</time>
      </trkpt>
      <trkpt lat="48.908722009509802" lon="-1.522830035537481">
        <ele>23.210000000000001</ele>
        <time>2018-07-04T16:32:54Z</time>
      </trkpt>
      <trkpt lat="48.907366991043091" lon="-1.521849017590284">
        <ele>28.02</ele>
        <time>2018-07-04T16:33:02Z</time>
      </trkpt>
      <trkpt lat="48.905756995081902" lon="-1.520631965249777">
        <ele>38.590000000000003</ele>
        <time>2018-07-04T16:33:11Z</time>
      </trkpt>
      <trkpt lat="48.905306970700622" lon="-1.520277997478843">
        <ele>41.469999999999999</ele>
        <time>2018-07-04T16:33:14Z</time>
      </trkpt>
      <trkpt lat="48.905184008181095" lon="-1.520118992775679">
        <ele>42.439999999999998</ele>
        <time>2018-07-04T16:33:15Z</time>
      </trkpt>
      <trkpt lat="48.904173988848925" lon="-1.51881099678576">
        <ele>47.719999999999999</ele>
        <time>2018-07-04T16:33:22Z</time>
      </trkpt>
      <trkpt lat="48.903805017471313" lon="-1.518184030428529">
        <ele>49.159999999999997</ele>
        <time>2018-07-04T16:33:25Z</time>
      </trkpt>
      <trkpt lat="48.903184002265334" lon="-1.516458028927445">
        <ele>52.530000000000001</ele>
        <time>2018-07-04T16:33:32Z</time>
      </trkpt>
      <trkpt lat="48.903087023645639" lon="-1.516162985935807">
        <ele>53.490000000000002</ele>
        <time>2018-07-04T16:33:34Z</time>
      </trkpt>
      <trkpt lat="48.902669018134475" lon="-1.515003014355898">
        <ele>55.409999999999997</ele>
        <time>2018-07-04T16:33:44Z</time>
      </trkpt>
      <trkpt lat="48.902619984000921" lon="-1.514875022694469">
        <ele>55.890000000000001</ele>
        <time>2018-07-04T16:33:45Z</time>
      </trkpt>
      <trkpt lat="48.90203501097858" lon="-1.514203967526555">
        <ele>59.259999999999998</ele>
        <time>2018-07-04T16:33:54Z</time>
      </trkpt>
      <trkpt lat="48.901685988530517" lon="-1.513880006968975">
        <ele>62.140000000000001</ele>
        <time>2018-07-04T16:34:01Z</time>
      </trkpt>
      <trkpt lat="48.901641983538866" lon="-1.51386802084744">
        <ele>62.619999999999997</ele>
        <time>2018-07-04T16:34:02Z</time>
      </trkpt>
      <trkpt lat="48.901591021567583" lon="-1.513853017240763">
        <ele>63.100000000000001</ele>
        <time>2018-07-04T16:34:03Z</time>
      </trkpt>
      <trkpt lat="48.900912003591657" lon="-1.513695018365979">
        <ele>64.069999999999993</ele>
        <time>2018-07-04T16:34:14Z</time>
      </trkpt>
      <trkpt lat="48.900846960023046" lon="-1.513684960082173">
        <ele>64.069999999999993</ele>
        <time>2018-07-04T16:34:15Z</time>
      </trkpt>
      <trkpt lat="48.900680998340249" lon="-1.513659982010722">
        <ele>63.579999999999998</ele>
        <time>2018-07-04T16:34:18Z</time>
      </trkpt>
      <trkpt lat="48.900626013055444" lon="-1.513650007545948">
        <ele>63.100000000000001</ele>
        <time>2018-07-04T16:34:19Z</time>
      </trkpt>
      <trkpt lat="48.900268021970987" lon="-1.51359099894762">
        <ele>61.659999999999997</ele>
        <time>2018-07-04T16:34:29Z</time>
      </trkpt>
      <trkpt lat="48.900268021970987" lon="-1.51359099894762">
        <ele>61.659999999999997</ele>
        <time>2018-07-04T16:34:38Z</time>
      </trkpt>
      <trkpt lat="48.900202978402376" lon="-1.513574989512563">
        <ele>61.18</ele>
        <time>2018-07-04T16:34:40Z</time>
      </trkpt>
      <trkpt lat="48.899986976757646" lon="-1.513412967324257">
        <ele>60.219999999999999</ele>
        <time>2018-07-04T16:34:44Z</time>
      </trkpt>
      <trkpt lat="48.899923022836447" lon="-1.513365022838116">
        <ele>59.740000000000002</ele>
        <time>2018-07-04T16:34:45Z</time>
      </trkpt>
      <trkpt lat="48.899868037551641" lon="-1.513323029503226">
        <ele>59.740000000000002</ele>
        <time>2018-07-04T16:34:46Z</time>
      </trkpt>
      <trkpt lat="48.899831995368004" lon="-1.513232002034783">
        <ele>59.259999999999998</ele>
        <time>2018-07-04T16:34:47Z</time>
      </trkpt>
      <trkpt lat="48.899796959012747" lon="-1.51314097456634">
        <ele>59.259999999999998</ele>
        <time>2018-07-04T16:34:48Z</time>
      </trkpt>
      <trkpt lat="48.899766029790044" lon="-1.513058999553323">
        <ele>59.259999999999998</ele>
        <time>2018-07-04T16:34:49Z</time>
      </trkpt>
      <trkpt lat="48.89961096458137" lon="-1.512659015133977">
        <ele>57.82</ele>
        <time>2018-07-04T16:34:58Z</time>
      </trkpt>
      <trkpt lat="48.89961096458137" lon="-1.512659015133977">
        <ele>57.340000000000003</ele>
        <time>2018-07-04T16:35:04Z</time>
      </trkpt>
      <trkpt lat="48.899482972919941" lon="-1.512538986280561">
        <ele>56.859999999999999</ele>
        <time>2018-07-04T16:35:05Z</time>
      </trkpt>
      <trkpt lat="48.899470986798406" lon="-1.512454999610782">
        <ele>56.859999999999999</ele>
        <time>2018-07-04T16:35:06Z</time>
      </trkpt>
      <trkpt lat="48.899460006505251" lon="-1.512379981577396">
        <ele>56.369999999999997</ele>
        <time>2018-07-04T16:35:07Z</time>
      </trkpt>
      <trkpt lat="48.899469980970025" lon="-1.512286020442843">
        <ele>55.890000000000001</ele>
        <time>2018-07-04T16:35:08Z</time>
      </trkpt>
      <trkpt lat="48.89947903342545" lon="-1.512189963832498">
        <ele>55.409999999999997</ele>
        <time>2018-07-04T16:35:09Z</time>
      </trkpt>
      <trkpt lat="48.899488002061844" lon="-1.512102037668228">
        <ele>54.93</ele>
        <time>2018-07-04T16:35:10Z</time>
      </trkpt>
      <trkpt lat="48.899494959041476" lon="-1.512030959129334">
        <ele>54.450000000000003</ele>
        <time>2018-07-04T16:35:11Z</time>
      </trkpt>
      <trkpt lat="48.899503005668521" lon="-1.511950995773077">
        <ele>53.490000000000002</ele>
        <time>2018-07-04T16:35:13Z</time>
      </trkpt>
      <trkpt lat="48.899503005668521" lon="-1.511950995773077">
        <ele>53.009999999999998</ele>
        <time>2018-07-04T16:35:14Z</time>
      </trkpt>
      <trkpt lat="48.899503005668521" lon="-1.511950995773077">
        <ele>52.530000000000001</ele>
        <time>2018-07-04T16:35:15Z</time>
      </trkpt>
      <trkpt lat="48.899327991530299" lon="-1.511902967467904">
        <ele>51.57</ele>
        <time>2018-07-04T16:35:18Z</time>
      </trkpt>
      <trkpt lat="48.899289015680552" lon="-1.512144031003118">
        <ele>51.090000000000003</ele>
        <time>2018-07-04T16:35:21Z</time>
      </trkpt>
      <trkpt lat="48.899289015680552" lon="-1.512144031003118">
        <ele>51.090000000000003</ele>
        <time>2018-07-04T16:35:22Z</time>
      </trkpt>
      <trkpt lat="48.899261020123959" lon="-1.512254001572728">
        <ele>51.090000000000003</ele>
        <time>2018-07-04T16:35:24Z</time>
      </trkpt>
      <trkpt lat="48.899246016517282" lon="-1.512314015999436">
        <ele>50.609999999999999</ele>
        <time>2018-07-04T16:35:25Z</time>
      </trkpt>
      <trkpt lat="48.89922397211194" lon="-1.512401020154357">
        <ele>50.130000000000003</ele>
        <time>2018-07-04T16:35:27Z</time>
      </trkpt>
      <trkpt lat="48.89891903847456" lon="-1.512790024280548">
        <ele>49.159999999999997</ele>
        <time>2018-07-04T16:35:31Z</time>
      </trkpt>
      <trkpt lat="48.898752992972732" lon="-1.512815002351999">
        <ele>49.159999999999997</ele>
        <time>2018-07-04T16:35:34Z</time>
      </trkpt>
      <trkpt lat="48.898607986047864" lon="-1.512837968766689">
        <ele>48.68</ele>
        <time>2018-07-04T16:35:41Z</time>
      </trkpt>
      <trkpt lat="48.898594994097948" lon="-1.512839980423451">
        <ele>48.68</ele>
        <time>2018-07-04T16:35:43Z</time>
      </trkpt>
      <trkpt lat="48.898500027135015" lon="-1.512533035129309">
        <ele>48.68</ele>
        <time>2018-07-04T16:35:44Z</time>
      </trkpt>
      <trkpt lat="48.898494997993112" lon="-1.512422980740666">
        <ele>48.68</ele>
        <time>2018-07-04T16:35:45Z</time>
      </trkpt>
      <trkpt lat="48.898473037406802" lon="-1.512035988271236">
        <ele>48.200000000000003</ele>
        <time>2018-07-04T16:35:49Z</time>
      </trkpt>
      <trkpt lat="48.898434983566403" lon="-1.511902967467904">
        <ele>48.200000000000003</ele>
        <time>2018-07-04T16:35:51Z</time>
      </trkpt>
      <trkpt lat="48.898223005235195" lon="-1.511361999437213">
        <ele>47.719999999999999</ele>
        <time>2018-07-04T16:35:59Z</time>
      </trkpt>
      <trkpt lat="48.898114040493965" lon="-1.511379014700651">
        <ele>47.240000000000002</ele>
        <time>2018-07-04T16:36:00Z</time>
      </trkpt>
      <trkpt lat="48.898056037724018" lon="-1.511408016085625">
        <ele>47.240000000000002</ele>
        <time>2018-07-04T16:36:01Z</time>
      </trkpt>
      <trkpt lat="48.897318011149764" lon="-1.511818980798125">
        <ele>46.759999999999998</ele>
        <time>2018-07-04T16:36:10Z</time>
      </trkpt>
      <trkpt lat="48.896847032010555" lon="-1.512080999091268">
        <ele>46.759999999999998</ele>
        <time>2018-07-04T16:36:15Z</time>
      </trkpt>
      <trkpt lat="48.896752987056971" lon="-1.512132966890931">
        <ele>46.759999999999998</ele>
        <time>2018-07-04T16:36:16Z</time>
      </trkpt>
      <trkpt lat="48.896661959588528" lon="-1.51223698630929">
        <ele>46.759999999999998</ele>
        <time>2018-07-04T16:36:17Z</time>
      </trkpt>
      <trkpt lat="48.896523993462324" lon="-1.512409988790751">
        <ele>46.759999999999998</ele>
        <time>2018-07-04T16:36:19Z</time>
      </trkpt>
      <trkpt lat="48.89599802903831" lon="-1.513239964842796">
        <ele>48.200000000000003</ele>
        <time>2018-07-04T16:36:29Z</time>
      </trkpt>
      <trkpt lat="48.895928962156177" lon="-1.513313977047801">
        <ele>48.200000000000003</ele>
        <time>2018-07-04T16:36:32Z</time>
      </trkpt>
      <trkpt lat="48.8958690315485" lon="-1.513334009796381">
        <ele>48.200000000000003</ele>
        <time>2018-07-04T16:36:33Z</time>
      </trkpt>
      <trkpt lat="48.895797031000257" lon="-1.513358987867832">
        <ele>48.200000000000003</ele>
        <time>2018-07-04T16:36:34Z</time>
      </trkpt>
      <trkpt lat="48.895361004397273" lon="-1.513508018106222">
        <ele>46.759999999999998</ele>
        <time>2018-07-04T16:36:39Z</time>
      </trkpt>
      <trkpt lat="48.8951610121876" lon="-1.513614971190691">
        <ele>46.759999999999998</ele>
        <time>2018-07-04T16:36:41Z</time>
      </trkpt>
      <trkpt lat="48.895071996375918" lon="-1.513710021972656">
        <ele>46.759999999999998</ele>
        <time>2018-07-04T16:36:42Z</time>
      </trkpt>
      <trkpt lat="48.894981974735856" lon="-1.513808006420732">
        <ele>46.280000000000001</ele>
        <time>2018-07-04T16:36:43Z</time>
      </trkpt>
      <trkpt lat="48.89367800205946" lon="-1.515422025695443">
        <ele>43.880000000000003</ele>
        <time>2018-07-04T16:36:57Z</time>
      </trkpt>
      <trkpt lat="48.892784994095564" lon="-1.516538998112083">
        <ele>44.840000000000003</ele>
        <time>2018-07-04T16:37:07Z</time>
      </trkpt>
      <trkpt lat="48.892022995278239" lon="-1.517496965825558">
        <ele>44.840000000000003</ele>
        <time>2018-07-04T16:37:15Z</time>
      </trkpt>
      <trkpt lat="48.891051029786468" lon="-1.518718041479588">
        <ele>40.509999999999998</ele>
        <time>2018-07-04T16:37:25Z</time>
      </trkpt>
      <trkpt lat="48.889764994382858" lon="-1.520342035219073">
        <ele>29.460000000000001</ele>
        <time>2018-07-04T16:37:38Z</time>
      </trkpt>
      <trkpt lat="48.889474980533123" lon="-1.520713018253446">
        <ele>26.57</ele>
        <time>2018-07-04T16:37:41Z</time>
      </trkpt>
      <trkpt lat="48.8885229639709" lon="-1.521882964298129">
        <ele>20.809999999999999</ele>
        <time>2018-07-04T16:37:50Z</time>
      </trkpt>
      <trkpt lat="48.887466005980968" lon="-1.523188026621938">
        <ele>19.84</ele>
        <time>2018-07-04T16:37:57Z</time>
      </trkpt>
      <trkpt lat="48.885472035035491" lon="-1.525692036375403">
        <ele>34.740000000000002</ele>
        <time>2018-07-04T16:38:10Z</time>
      </trkpt>
      <trkpt lat="48.884570980444551" lon="-1.526826024055481">
        <ele>40.509999999999998</ele>
        <time>2018-07-04T16:38:17Z</time>
      </trkpt>
      <trkpt lat="48.884241990745068" lon="-1.527226008474827">
        <ele>42.439999999999998</ele>
        <time>2018-07-04T16:38:21Z</time>
      </trkpt>
      <trkpt lat="48.884149035438895" lon="-1.527476962655783">
        <ele>43.399999999999999</ele>
        <time>2018-07-04T16:38:23Z</time>
      </trkpt>
      <trkpt lat="48.884006040170789" lon="-1.527429018169642">
        <ele>43.880000000000003</ele>
        <time>2018-07-04T16:38:24Z</time>
      </trkpt>
      <trkpt lat="48.883944014087319" lon="-1.527523985132575">
        <ele>43.880000000000003</ele>
        <time>2018-07-04T16:38:25Z</time>
      </trkpt>
      <trkpt lat="48.883879976347089" lon="-1.527622975409031">
        <ele>43.880000000000003</ele>
        <time>2018-07-04T16:38:26Z</time>
      </trkpt>
      <trkpt lat="48.883814010769129" lon="-1.527723977342248">
        <ele>43.880000000000003</ele>
        <time>2018-07-04T16:38:27Z</time>
      </trkpt>
      <trkpt lat="48.882971964776516" lon="-1.528808008879423">
        <ele>43.880000000000003</ele>
        <time>2018-07-04T16:38:38Z</time>
      </trkpt>
      <trkpt lat="48.882252965122461" lon="-1.529646031558514">
        <ele>45.32</ele>
        <time>2018-07-04T16:38:47Z</time>
      </trkpt>
      <trkpt lat="48.881891034543514" lon="-1.529914001002908">
        <ele>48.200000000000003</ele>
        <time>2018-07-04T16:38:51Z</time>
      </trkpt>
      <trkpt lat="48.881037002429366" lon="-1.530531998723745">
        <ele>51.090000000000003</ele>
        <time>2018-07-04T16:39:00Z</time>
      </trkpt>
      <trkpt lat="48.879517028108239" lon="-1.531627010554075">
        <ele>53.969999999999999</ele>
        <time>2018-07-04T16:39:12Z</time>
      </trkpt>
      <trkpt lat="48.878183970227838" lon="-1.532607022672892">
        <ele>56.859999999999999</ele>
        <time>2018-07-04T16:39:21Z</time>
      </trkpt>
      <trkpt lat="48.876614039763808" lon="-1.53374201618135">
        <ele>59.259999999999998</ele>
        <time>2018-07-04T16:39:30Z</time>
      </trkpt>
      <trkpt lat="48.874774966388941" lon="-1.535069039091468">
        <ele>63.100000000000001</ele>
        <time>2018-07-04T16:39:40Z</time>
      </trkpt>
      <trkpt lat="48.873120965436101" lon="-1.536248959600925">
        <ele>68.390000000000001</ele>
        <time>2018-07-04T16:39:49Z</time>
      </trkpt>
      <trkpt lat="48.871117020025849" lon="-1.537710009142757">
        <ele>71.760000000000005</ele>
        <time>2018-07-04T16:40:00Z</time>
      </trkpt>
      <trkpt lat="48.869260009378195" lon="-1.539069972932339">
        <ele>71.760000000000005</ele>
        <time>2018-07-04T16:40:11Z</time>
      </trkpt>
      <trkpt lat="48.868212020024657" lon="-1.539814034476876">
        <ele>70.790000000000006</ele>
        <time>2018-07-04T16:40:21Z</time>
      </trkpt>
      <trkpt lat="48.866904024034739" lon="-1.540659014135599">
        <ele>69.829999999999998</ele>
        <time>2018-07-04T16:40:34Z</time>
      </trkpt>
      <trkpt lat="48.866132972761989" lon="-1.540967971086502">
        <ele>68.870000000000005</ele>
        <time>2018-07-04T16:40:42Z</time>
      </trkpt>
      <trkpt lat="48.865957036614418" lon="-1.541127981618047">
        <ele>68.870000000000005</ele>
        <time>2018-07-04T16:40:44Z</time>
      </trkpt>
      <trkpt lat="48.86587698943913" lon="-1.541080037131906">
        <ele>69.349999999999994</ele>
        <time>2018-07-04T16:40:45Z</time>
      </trkpt>
      <trkpt lat="48.865678003057837" lon="-1.54096101410687">
        <ele>68.870000000000005</ele>
        <time>2018-07-04T16:40:47Z</time>
      </trkpt>
      <trkpt lat="48.864593971520662" lon="-1.540841991081834">
        <ele>67.430000000000007</ele>
        <time>2018-07-04T16:40:55Z</time>
      </trkpt>
      <trkpt lat="48.863184973597527" lon="-1.540117962285876">
        <ele>63.100000000000001</ele>
        <time>2018-07-04T16:41:04Z</time>
      </trkpt>
      <trkpt lat="48.861855017021298" lon="-1.538882972672582">
        <ele>59.259999999999998</ele>
        <time>2018-07-04T16:41:14Z</time>
      </trkpt>
      <trkpt lat="48.860686998814344" lon="-1.538057019934058">
        <ele>57.340000000000003</ele>
        <time>2018-07-04T16:41:21Z</time>
      </trkpt>
      <trkpt lat="48.859080020338297" lon="-1.537712020799518">
        <ele>52.049999999999997</ele>
        <time>2018-07-04T16:41:29Z</time>
      </trkpt>
      <trkpt lat="48.857286041602492" lon="-1.538163973018527">
        <ele>43.880000000000003</ele>
        <time>2018-07-04T16:41:38Z</time>
      </trkpt>
      <trkpt lat="48.854544991627336" lon="-1.539197964593768">
        <ele>38.590000000000003</ele>
        <time>2018-07-04T16:41:52Z</time>
      </trkpt>
      <trkpt lat="48.851593974977732" lon="-1.540373023599386">
        <ele>29.460000000000001</ele>
        <time>2018-07-04T16:42:07Z</time>
      </trkpt>
      <trkpt lat="48.84954996407032" lon="-1.541554033756256">
        <ele>31.379999999999999</ele>
        <time>2018-07-04T16:42:18Z</time>
      </trkpt>
      <trkpt lat="48.847640985623002" lon="-1.542325001209974">
        <ele>44.359999999999999</ele>
        <time>2018-07-04T16:42:28Z</time>
      </trkpt>
      <trkpt lat="48.84602696634829" lon="-1.542103970423341">
        <ele>52.530000000000001</ele>
        <time>2018-07-04T16:42:36Z</time>
      </trkpt>
      <trkpt lat="48.844510009512305" lon="-1.541210962459445">
        <ele>57.82</ele>
        <time>2018-07-04T16:42:44Z</time>
      </trkpt>
      <trkpt lat="48.842976037412882" lon="-1.540419962257147">
        <ele>62.619999999999997</ele>
        <time>2018-07-04T16:42:52Z</time>
      </trkpt>
      <trkpt lat="48.839781023561954" lon="-1.539494013413787">
        <ele>64.549999999999997</ele>
        <time>2018-07-04T16:43:08Z</time>
      </trkpt>
      <trkpt lat="48.836976019665599" lon="-1.53870795853436">
        <ele>63.100000000000001</ele>
        <time>2018-07-04T16:43:22Z</time>
      </trkpt>
      <trkpt lat="48.833795003592968" lon="-1.538032041862607">
        <ele>60.219999999999999</ele>
        <time>2018-07-04T16:43:38Z</time>
      </trkpt>
      <trkpt lat="48.832416012883186" lon="-1.538516012951732">
        <ele>57.82</ele>
        <time>2018-07-04T16:43:45Z</time>
      </trkpt>
      <trkpt lat="48.831229973584414" lon="-1.539702974259853">
        <ele>52.530000000000001</ele>
        <time>2018-07-04T16:43:52Z</time>
      </trkpt>
      <trkpt lat="48.828434022143483" lon="-1.543172998353839">
        <ele>41.950000000000003</ele>
        <time>2018-07-04T16:44:10Z</time>
      </trkpt>
      <trkpt lat="48.826335025951266" lon="-1.545207034796476">
        <ele>35.710000000000001</ele>
        <time>2018-07-04T16:44:23Z</time>
      </trkpt>
      <trkpt lat="48.823607973754406" lon="-1.547978008165956">
        <ele>21.77</ele>
        <time>2018-07-04T16:44:40Z</time>
      </trkpt>
      <trkpt lat="48.822053968906403" lon="-1.550452010706067">
        <ele>18.399999999999999</ele>
        <time>2018-07-04T16:44:52Z</time>
      </trkpt>
      <trkpt lat="48.821046967059374" lon="-1.551737962290645">
        <ele>27.050000000000001</ele>
        <time>2018-07-04T16:45:00Z</time>
      </trkpt>
      <trkpt lat="48.820234006270766" lon="-1.552221011370421">
        <ele>33.780000000000001</ele>
        <time>2018-07-04T16:45:08Z</time>
      </trkpt>
      <trkpt lat="48.820123029872775" lon="-1.552251018583775">
        <ele>34.259999999999998</ele>
        <time>2018-07-04T16:45:09Z</time>
      </trkpt>
      <trkpt lat="48.820009035989642" lon="-1.55228303745389">
        <ele>34.259999999999998</ele>
        <time>2018-07-04T16:45:10Z</time>
      </trkpt>
      <trkpt lat="48.819905016571283" lon="-1.552237020805478">
        <ele>34.259999999999998</ele>
        <time>2018-07-04T16:45:11Z</time>
      </trkpt>
      <trkpt lat="48.819796973839402" lon="-1.552159991115332">
        <ele>34.259999999999998</ele>
        <time>2018-07-04T16:45:12Z</time>
      </trkpt>
      <trkpt lat="48.81968499161303" lon="-1.552080027759075">
        <ele>33.780000000000001</ele>
        <time>2018-07-04T16:45:13Z</time>
      </trkpt>
      <trkpt lat="48.819627994671464" lon="-1.551918005570769">
        <ele>33.780000000000001</ele>
        <time>2018-07-04T16:45:14Z</time>
      </trkpt>
      <trkpt lat="48.819568986073136" lon="-1.551739973947406">
        <ele>33.780000000000001</ele>
        <time>2018-07-04T16:45:15Z</time>
      </trkpt>
      <trkpt lat="48.819520035758615" lon="-1.551558002829552">
        <ele>33.780000000000001</ele>
        <time>2018-07-04T16:45:16Z</time>
      </trkpt>
      <trkpt lat="48.819488016888499" lon="-1.551363961771131">
        <ele>34.259999999999998</ele>
        <time>2018-07-04T16:45:17Z</time>
      </trkpt>
      <trkpt lat="48.819459015503526" lon="-1.551181990653276">
        <ele>34.740000000000002</ele>
        <time>2018-07-04T16:45:18Z</time>
      </trkpt>
      <trkpt lat="48.819430014118552" lon="-1.551005970686674">
        <ele>35.229999999999997</ele>
        <time>2018-07-04T16:45:19Z</time>
      </trkpt>
      <trkpt lat="48.819375028833747" lon="-1.550797009840608">
        <ele>35.710000000000001</ele>
        <time>2018-07-04T16:45:20Z</time>
      </trkpt>
      <trkpt lat="48.819284001365304" lon="-1.550681004300714">
        <ele>36.670000000000002</ele>
        <time>2018-07-04T16:45:21Z</time>
      </trkpt>
      <trkpt lat="48.819196997210383" lon="-1.550557035952807">
        <ele>37.630000000000003</ele>
        <time>2018-07-04T16:45:22Z</time>
      </trkpt>
      <trkpt lat="48.818225031718612" lon="-1.549163963645697">
        <ele>48.68</ele>
        <time>2018-07-04T16:45:32Z</time>
      </trkpt>
      <trkpt lat="48.817098001018167" lon="-1.547586992383003">
        <ele>54.450000000000003</ele>
        <time>2018-07-04T16:45:43Z</time>
      </trkpt>
      <trkpt lat="48.81581699475646" lon="-1.545794019475579">
        <ele>55.409999999999997</ele>
        <time>2018-07-04T16:45:57Z</time>
      </trkpt>
      <trkpt lat="48.814862966537476" lon="-1.544513013213873">
        <ele>53.009999999999998</ele>
        <time>2018-07-04T16:46:09Z</time>
      </trkpt>
      <trkpt lat="48.814445966854692" lon="-1.544138006865978">
        <ele>50.609999999999999</ele>
        <time>2018-07-04T16:46:14Z</time>
      </trkpt>
      <trkpt lat="48.814356029033661" lon="-1.544076986610889">
        <ele>50.130000000000003</ele>
        <time>2018-07-04T16:46:15Z</time>
      </trkpt>
      <trkpt lat="48.814252009615302" lon="-1.544008003547788">
        <ele>50.130000000000003</ele>
        <time>2018-07-04T16:46:16Z</time>
      </trkpt>
      <trkpt lat="48.814193001016974" lon="-1.544031975790858">
        <ele>49.649999999999999</ele>
        <time>2018-07-04T16:46:17Z</time>
      </trkpt>
      <trkpt lat="48.81409996189177" lon="-1.544035999104381">
        <ele>49.649999999999999</ele>
        <time>2018-07-04T16:46:18Z</time>
      </trkpt>
      <trkpt lat="48.814024021849036" lon="-1.544011021032929">
        <ele>49.649999999999999</ele>
        <time>2018-07-04T16:46:19Z</time>
      </trkpt>
      <trkpt lat="48.813953027129173" lon="-1.543913958594203">
        <ele>49.649999999999999</ele>
        <time>2018-07-04T16:46:20Z</time>
      </trkpt>
      <trkpt lat="48.813921008259058" lon="-1.543781021609902">
        <ele>49.649999999999999</ele>
        <time>2018-07-04T16:46:21Z</time>
      </trkpt>
      <trkpt lat="48.813908016309142" lon="-1.543639032170177">
        <ele>49.159999999999997</ele>
        <time>2018-07-04T16:46:22Z</time>
      </trkpt>
      <trkpt lat="48.813878009095788" lon="-1.543491007760167">
        <ele>48.68</ele>
        <time>2018-07-04T16:46:23Z</time>
      </trkpt>
      <trkpt lat="48.813845990225673" lon="-1.543330997228622">
        <ele>48.200000000000003</ele>
        <time>2018-07-04T16:46:24Z</time>
      </trkpt>
      <trkpt lat="48.813811959698796" lon="-1.543163023889065">
        <ele>47.719999999999999</ele>
        <time>2018-07-04T16:46:25Z</time>
      </trkpt>
      <trkpt lat="48.813764015212655" lon="-1.542973006144166">
        <ele>47.240000000000002</ele>
        <time>2018-07-04T16:46:26Z</time>
      </trkpt>
      <trkpt lat="48.813679022714496" lon="-1.54283101670444">
        <ele>46.759999999999998</ele>
        <time>2018-07-04T16:46:27Z</time>
      </trkpt>
      <trkpt lat="48.813585983589292" lon="-1.542689027264714">
        <ele>46.759999999999998</ele>
        <time>2018-07-04T16:46:28Z</time>
      </trkpt>
      <trkpt lat="48.81252801977098" lon="-1.541158994659782">
        <ele>51.090000000000003</ele>
        <time>2018-07-04T16:46:38Z</time>
      </trkpt>
      <trkpt lat="48.810704033821821" lon="-1.538622966036201">
        <ele>52.530000000000001</ele>
        <time>2018-07-04T16:46:54Z</time>
      </trkpt>
      <trkpt lat="48.80975897423923" lon="-1.537413960322738">
        <ele>53.009999999999998</ele>
        <time>2018-07-04T16:47:04Z</time>
      </trkpt>
      <trkpt lat="48.809687979519367" lon="-1.537353023886681">
        <ele>53.009999999999998</ele>
        <time>2018-07-04T16:47:05Z</time>
      </trkpt>
      <trkpt lat="48.809616984799504" lon="-1.537292003631592">
        <ele>53.490000000000002</ele>
        <time>2018-07-04T16:47:06Z</time>
      </trkpt>
      <trkpt lat="48.809540960937738" lon="-1.537264008074999">
        <ele>53.490000000000002</ele>
        <time>2018-07-04T16:47:07Z</time>
      </trkpt>
      <trkpt lat="48.80941498093307" lon="-1.537270965054631">
        <ele>53.490000000000002</ele>
        <time>2018-07-04T16:47:08Z</time>
      </trkpt>
      <trkpt lat="48.809352032840252" lon="-1.537361992523074">
        <ele>53.490000000000002</ele>
        <time>2018-07-04T16:47:09Z</time>
      </trkpt>
      <trkpt lat="48.809282965958118" lon="-1.537462994456291">
        <ele>53.490000000000002</ele>
        <time>2018-07-04T16:47:10Z</time>
      </trkpt>
      <trkpt lat="48.809213982895017" lon="-1.537574976682663">
        <ele>53.009999999999998</ele>
        <time>2018-07-04T16:47:11Z</time>
      </trkpt>
      <trkpt lat="48.809141982346773" lon="-1.537690982222557">
        <ele>52.530000000000001</ele>
        <time>2018-07-04T16:47:12Z</time>
      </trkpt>
      <trkpt lat="48.808582993224263" lon="-1.538958996534348">
        <ele>50.609999999999999</ele>
        <time>2018-07-04T16:47:21Z</time>
      </trkpt>
      <trkpt lat="48.808385012671351" lon="-1.539831971749663">
        <ele>50.130000000000003</ele>
        <time>2018-07-04T16:47:28Z</time>
      </trkpt>
      <trkpt lat="48.808364979922771" lon="-1.539915958419442">
        <ele>50.130000000000003</ele>
        <time>2018-07-04T16:47:29Z</time>
      </trkpt>
      <trkpt lat="48.808436980471015" lon="-1.540105976164341">
        <ele>50.130000000000003</ele>
        <time>2018-07-04T16:47:31Z</time>
      </trkpt>
      <trkpt lat="48.808433962985873" lon="-1.540217036381364">
        <ele>50.130000000000003</ele>
        <time>2018-07-04T16:47:32Z</time>
      </trkpt>
      <trkpt lat="48.808409990742803" lon="-1.540277972817421">
        <ele>50.130000000000003</ele>
        <time>2018-07-04T16:47:33Z</time>
      </trkpt>
      <trkpt lat="48.808393981307745" lon="-1.540318038314581">
        <ele>50.130000000000003</ele>
        <time>2018-07-04T16:47:34Z</time>
      </trkpt>
      <trkpt lat="48.80827696993947" lon="-1.54038199223578">
        <ele>50.130000000000003</ele>
        <time>2018-07-04T16:47:35Z</time>
      </trkpt>
      <trkpt lat="48.8082529976964" lon="-1.54048902913928">
        <ele>50.130000000000003</ele>
        <time>2018-07-04T16:47:36Z</time>
      </trkpt>
      <trkpt lat="48.808226007968187" lon="-1.540612997487187">
        <ele>50.130000000000003</ele>
        <time>2018-07-04T16:47:37Z</time>
      </trkpt>
      <trkpt lat="48.807929959148169" lon="-1.54201696626842">
        <ele>51.090000000000003</ele>
        <time>2018-07-04T16:47:45Z</time>
      </trkpt>
      <trkpt lat="48.807872040197253" lon="-1.542217964306474">
        <ele>51.090000000000003</ele>
        <time>2018-07-04T16:47:46Z</time>
      </trkpt>
      <trkpt lat="48.807167038321495" lon="-1.543726958334446">
        <ele>52.049999999999997</ele>
        <time>2018-07-04T16:47:54Z</time>
      </trkpt>
      <trkpt lat="48.806052999570966" lon="-1.545524960383773">
        <ele>54.450000000000003</ele>
        <time>2018-07-04T16:48:06Z</time>
      </trkpt>
      <trkpt lat="48.804903002455831" lon="-1.547506023198366">
        <ele>54.450000000000003</ele>
        <time>2018-07-04T16:48:18Z</time>
      </trkpt>
      <trkpt lat="48.804305037483573" lon="-1.548259975388646">
        <ele>52.530000000000001</ele>
        <time>2018-07-04T16:48:25Z</time>
      </trkpt>
      <trkpt lat="48.804248962551355" lon="-1.548330970108509">
        <ele>52.049999999999997</ele>
        <time>2018-07-04T16:48:26Z</time>
      </trkpt>
      <trkpt lat="48.804202023893595" lon="-1.548390984535217">
        <ele>52.049999999999997</ele>
        <time>2018-07-04T16:48:27Z</time>
      </trkpt>
      <trkpt lat="48.804188026115298" lon="-1.548406993970275">
        <ele>51.57</ele>
        <time>2018-07-04T16:48:28Z</time>
      </trkpt>
      <trkpt lat="48.804155001416802" lon="-1.548584019765258">
        <ele>51.090000000000003</ele>
        <time>2018-07-04T16:48:29Z</time>
      </trkpt>
      <trkpt lat="48.804105967283249" lon="-1.548608997836709">
        <ele>51.090000000000003</ele>
        <time>2018-07-04T16:48:30Z</time>
      </trkpt>
      <trkpt lat="48.804047964513302" lon="-1.548588965088129">
        <ele>51.090000000000003</ele>
        <time>2018-07-04T16:48:31Z</time>
      </trkpt>
      <trkpt lat="48.804017035290599" lon="-1.548557030037046">
        <ele>50.609999999999999</ele>
        <time>2018-07-04T16:48:32Z</time>
      </trkpt>
      <trkpt lat="48.804027009755373" lon="-1.548467008396983">
        <ele>50.609999999999999</ele>
        <time>2018-07-04T16:48:33Z</time>
      </trkpt>
      <trkpt lat="48.803998008370399" lon="-1.548295011743903">
        <ele>50.609999999999999</ele>
        <time>2018-07-04T16:48:34Z</time>
      </trkpt>
      <trkpt lat="48.80389197729528" lon="-1.548110023140907">
        <ele>50.609999999999999</ele>
        <time>2018-07-04T16:48:36Z</time>
      </trkpt>
      <trkpt lat="48.803228968754411" lon="-1.546917026862502">
        <ele>52.049999999999997</ele>
        <time>2018-07-04T16:48:44Z</time>
      </trkpt>
      <trkpt lat="48.802148038521409" lon="-1.545034032315016">
        <ele>49.159999999999997</ele>
        <time>2018-07-04T16:48:54Z</time>
      </trkpt>
      <trkpt lat="48.801170038059354" lon="-1.543327979743481">
        <ele>41.469999999999999</ele>
        <time>2018-07-04T16:49:03Z</time>
      </trkpt>
      <trkpt lat="48.800351964309812" lon="-1.541814962401986">
        <ele>37.630000000000003</ele>
        <time>2018-07-04T16:49:11Z</time>
      </trkpt>
      <trkpt lat="48.799951979890466" lon="-1.540737971663475">
        <ele>39.07</ele>
        <time>2018-07-04T16:49:16Z</time>
      </trkpt>
      <trkpt lat="48.799856007099152" lon="-1.540563963353634">
        <ele>38.590000000000003</ele>
        <time>2018-07-04T16:49:17Z</time>
      </trkpt>
      <trkpt lat="48.79974695853889" lon="-1.54038199223578">
        <ele>38.590000000000003</ele>
        <time>2018-07-04T16:49:18Z</time>
      </trkpt>
      <trkpt lat="48.799633970484138" lon="-1.540306974202395">
        <ele>38.590000000000003</ele>
        <time>2018-07-04T16:49:19Z</time>
      </trkpt>
      <trkpt lat="48.799499021843076" lon="-1.540217036381364">
        <ele>38.590000000000003</ele>
        <time>2018-07-04T16:49:20Z</time>
      </trkpt>
      <trkpt lat="48.799344962462783" lon="-1.540197003632784">
        <ele>38.590000000000003</ele>
        <time>2018-07-04T16:49:21Z</time>
      </trkpt>
      <trkpt lat="48.799176989123225" lon="-1.540182000026107">
        <ele>38.590000000000003</ele>
        <time>2018-07-04T16:49:22Z</time>
      </trkpt>
      <trkpt lat="48.799016978591681" lon="-1.54016699641943">
        <ele>38.109999999999999</ele>
        <time>2018-07-04T16:49:23Z</time>
      </trkpt>
      <trkpt lat="48.798242993652821" lon="-1.539985025301576">
        <ele>39.07</ele>
        <time>2018-07-04T16:49:29Z</time>
      </trkpt>
      <trkpt lat="48.796778004616499" lon="-1.539430981501937">
        <ele>40.990000000000002</ele>
        <time>2018-07-04T16:49:41Z</time>
      </trkpt>
      <trkpt lat="48.795809978619218" lon="-1.539271976798773">
        <ele>40.990000000000002</ele>
        <time>2018-07-04T16:49:49Z</time>
      </trkpt>
      <trkpt lat="48.79499601200223" lon="-1.539244987070561">
        <ele>40.509999999999998</ele>
        <time>2018-07-04T16:49:58Z</time>
      </trkpt>
      <trkpt lat="48.794949995353818" lon="-1.539244987070561">
        <ele>40.509999999999998</ele>
        <time>2018-07-04T16:49:59Z</time>
      </trkpt>
      <trkpt lat="48.794886963441968" lon="-1.53932997956872">
        <ele>40.030000000000001</ele>
        <time>2018-07-04T16:50:00Z</time>
      </trkpt>
      <trkpt lat="48.794874977320433" lon="-1.539423018693924">
        <ele>40.030000000000001</ele>
        <time>2018-07-04T16:50:01Z</time>
      </trkpt>
      <trkpt lat="48.794859973713756" lon="-1.539540030062199">
        <ele>39.549999999999997</ele>
        <time>2018-07-04T16:50:02Z</time>
      </trkpt>
      <trkpt lat="48.794812029227614" lon="-1.539829038083553">
        <ele>38.590000000000003</ele>
        <time>2018-07-04T16:50:04Z</time>
      </trkpt>
      <trkpt lat="48.794286986812949" lon="-1.541187996044755">
        <ele>32.82</ele>
        <time>2018-07-04T16:50:12Z</time>
      </trkpt>
      <trkpt lat="48.793418034911156" lon="-1.542878039181233">
        <ele>28.02</ele>
        <time>2018-07-04T16:50:20Z</time>
      </trkpt>
      <trkpt lat="48.792795008048415" lon="-1.544281002134085">
        <ele>29.460000000000001</ele>
        <time>2018-07-04T16:50:26Z</time>
      </trkpt>
      <trkpt lat="48.792682019993663" lon="-1.544443024322391">
        <ele>30.420000000000002</ele>
        <time>2018-07-04T16:50:27Z</time>
      </trkpt>
      <trkpt lat="48.792565008625388" lon="-1.544588031247258">
        <ele>31.859999999999999</ele>
        <time>2018-07-04T16:50:28Z</time>
      </trkpt>
      <trkpt lat="48.791161039844155" lon="-1.546360971406102">
        <ele>34.740000000000002</ele>
        <time>2018-07-04T16:50:39Z</time>
      </trkpt>
      <trkpt lat="48.790525021031499" lon="-1.547212991863489">
        <ele>36.670000000000002</ele>
        <time>2018-07-04T16:50:44Z</time>
      </trkpt>
      <trkpt lat="48.790401974692941" lon="-1.547356992959976">
        <ele>37.149999999999999</ele>
        <time>2018-07-04T16:50:45Z</time>
      </trkpt>
      <trkpt lat="48.789229011163116" lon="-1.548774037510157">
        <ele>33.780000000000001</ele>
        <time>2018-07-04T16:50:55Z</time>
      </trkpt>
      <trkpt lat="48.789166985079646" lon="-1.548942010849714">
        <ele>32.82</ele>
        <time>2018-07-04T16:50:56Z</time>
      </trkpt>
      <trkpt lat="48.789106970652938" lon="-1.549114007502794">
        <ele>32.340000000000003</ele>
        <time>2018-07-04T16:50:57Z</time>
      </trkpt>
      <trkpt lat="48.788719978183508" lon="-1.550312032923102">
        <ele>29.460000000000001</ele>
        <time>2018-07-04T16:51:05Z</time>
      </trkpt>
      <trkpt lat="48.788264002650976" lon="-1.551723964512348">
        <ele>28.5</ele>
        <time>2018-07-04T16:51:18Z</time>
      </trkpt>
      <trkpt lat="48.788111032918096" lon="-1.552143981680274">
        <ele>28.5</ele>
        <time>2018-07-04T16:51:23Z</time>
      </trkpt>
      <trkpt lat="48.788040960207582" lon="-1.552294017747045">
        <ele>28.5</ele>
        <time>2018-07-04T16:51:25Z</time>
      </trkpt>
      <trkpt lat="48.787995027378201" lon="-1.552358977496624">
        <ele>28.5</ele>
        <time>2018-07-04T16:51:26Z</time>
      </trkpt>
      <trkpt lat="48.787946999073029" lon="-1.552425026893616">
        <ele>28.98</ele>
        <time>2018-07-04T16:51:27Z</time>
      </trkpt>
      <trkpt lat="48.787722028791904" lon="-1.55262803658843">
        <ele>28.98</ele>
        <time>2018-07-04T16:51:31Z</time>
      </trkpt>
      <trkpt lat="48.786968998610973" lon="-1.553008994087577">
        <ele>24.170000000000002</ele>
        <time>2018-07-04T16:51:42Z</time>
      </trkpt>
      <trkpt lat="48.786615030840039" lon="-1.553191971033812">
        <ele>23.690000000000001</ele>
        <time>2018-07-04T16:51:47Z</time>
      </trkpt>
      <trkpt lat="48.786551998928189" lon="-1.553218038752675">
        <ele>23.690000000000001</ele>
        <time>2018-07-04T16:51:48Z</time>
      </trkpt>
      <trkpt lat="48.786427024751902" lon="-1.553270006552339">
        <ele>23.690000000000001</ele>
        <time>2018-07-04T16:51:50Z</time>
      </trkpt>
      <trkpt lat="48.786363992840052" lon="-1.55329599045217">
        <ele>24.170000000000002</ele>
        <time>2018-07-04T16:51:51Z</time>
      </trkpt>
      <trkpt lat="48.786303978413343" lon="-1.553321974352002">
        <ele>24.170000000000002</ele>
        <time>2018-07-04T16:51:52Z</time>
      </trkpt>
      <trkpt lat="48.786242036148906" lon="-1.553347958251834">
        <ele>24.649999999999999</ele>
        <time>2018-07-04T16:51:53Z</time>
      </trkpt>
      <trkpt lat="48.786177998408675" lon="-1.553374025970697">
        <ele>24.649999999999999</ele>
        <time>2018-07-04T16:51:54Z</time>
      </trkpt>
      <trkpt lat="48.786099962890148" lon="-1.553406966850162">
        <ele>24.649999999999999</ele>
        <time>2018-07-04T16:51:55Z</time>
      </trkpt>
      <trkpt lat="48.786069033667445" lon="-1.553460024297237">
        <ele>24.649999999999999</ele>
        <time>2018-07-04T16:51:56Z</time>
      </trkpt>
      <trkpt lat="48.786028968170285" lon="-1.553533030673862">
        <ele>24.649999999999999</ele>
        <time>2018-07-04T16:51:57Z</time>
      </trkpt>
      <trkpt lat="48.785906005650759" lon="-1.553750038146973">
        <ele>25.609999999999999</ele>
        <time>2018-07-04T16:52:00Z</time>
      </trkpt>
      <trkpt lat="48.785857977345586" lon="-1.55376898124814">
        <ele>26.09</ele>
        <time>2018-07-04T16:52:01Z</time>
      </trkpt>
      <trkpt lat="48.785798968747258" lon="-1.553793037310243">
        <ele>26.57</ele>
        <time>2018-07-04T16:52:02Z</time>
      </trkpt>
      <trkpt lat="48.785720011219382" lon="-1.553931003436446">
        <ele>28.02</ele>
        <time>2018-07-04T16:52:04Z</time>
      </trkpt>
      <trkpt lat="48.785221958532929" lon="-1.555038001388311">
        <ele>32.340000000000003</ele>
        <time>2018-07-04T16:52:15Z</time>
      </trkpt>
      <trkpt lat="48.784943008795381" lon="-1.555605959147215">
        <ele>33.299999999999997</ele>
        <time>2018-07-04T16:52:22Z</time>
      </trkpt>
      <trkpt lat="48.784772017970681" lon="-1.555902007967234">
        <ele>33.780000000000001</ele>
        <time>2018-07-04T16:52:31Z</time>
      </trkpt>
      <trkpt lat="48.784666992723942" lon="-1.556082973256707">
        <ele>34.740000000000002</ele>
        <time>2018-07-04T16:52:36Z</time>
      </trkpt>
      <trkpt lat="48.784590968862176" lon="-1.556214988231659">
        <ele>34.259999999999998</ele>
        <time>2018-07-04T16:52:38Z</time>
      </trkpt>
      <trkpt lat="48.784350994974375" lon="-1.556628970429301">
        <ele>33.780000000000001</ele>
        <time>2018-07-04T16:52:45Z</time>
      </trkpt>
      <trkpt lat="48.78431998193264" lon="-1.556683033704758">
        <ele>34.259999999999998</ele>
        <time>2018-07-04T16:52:46Z</time>
      </trkpt>
      <trkpt lat="48.784288968890905" lon="-1.556736007332802">
        <ele>34.259999999999998</ele>
        <time>2018-07-04T16:52:47Z</time>
      </trkpt>
      <trkpt lat="48.784013958647847" lon="-1.557210003957152">
        <ele>34.259999999999998</ele>
        <time>2018-07-04T16:52:55Z</time>
      </trkpt>
      <trkpt lat="48.783927960321307" lon="-1.557359034195542">
        <ele>34.259999999999998</ele>
        <time>2018-07-04T16:52:57Z</time>
      </trkpt>
      <trkpt lat="48.78375998698175" lon="-1.557649970054627">
        <ele>33.299999999999997</ele>
        <time>2018-07-04T16:53:01Z</time>
      </trkpt>
      <trkpt lat="48.78371799364686" lon="-1.557720964774489">
        <ele>32.82</ele>
        <time>2018-07-04T16:53:02Z</time>
      </trkpt>
      <trkpt lat="48.783678011968732" lon="-1.557791037485004">
        <ele>32.340000000000003</ele>
        <time>2018-07-04T16:53:03Z</time>
      </trkpt>
      <trkpt lat="48.783639958128333" lon="-1.557857003062964">
        <ele>32.340000000000003</ele>
        <time>2018-07-04T16:53:04Z</time>
      </trkpt>
      <trkpt lat="48.783605005592108" lon="-1.557917017489672">
        <ele>31.859999999999999</ele>
        <time>2018-07-04T16:53:05Z</time>
      </trkpt>
      <trkpt lat="48.783572986721992" lon="-1.557972002774477">
        <ele>31.379999999999999</ele>
        <time>2018-07-04T16:53:06Z</time>
      </trkpt>
      <trkpt lat="48.783543985337019" lon="-1.558021958917379">
        <ele>31.379999999999999</ele>
        <time>2018-07-04T16:53:07Z</time>
      </trkpt>
      <trkpt lat="48.783518001437187" lon="-1.55806596390903">
        <ele>30.899999999999999</ele>
        <time>2018-07-04T16:53:08Z</time>
      </trkpt>
      <trkpt lat="48.783496962860227" lon="-1.558103011921048">
        <ele>30.420000000000002</ele>
        <time>2018-07-04T16:53:09Z</time>
      </trkpt>
      <trkpt lat="48.783481037244201" lon="-1.558131007477641">
        <ele>29.940000000000001</ele>
        <time>2018-07-04T16:53:10Z</time>
      </trkpt>
      <trkpt lat="48.783466033637524" lon="-1.558156991377473">
        <ele>29.460000000000001</ele>
        <time>2018-07-04T16:53:11Z</time>
      </trkpt>
      <trkpt lat="48.783426973968744" lon="-1.558309961110354">
        <ele>27.530000000000001</ele>
        <time>2018-07-04T16:53:15Z</time>
      </trkpt>
      <trkpt lat="48.783443989232183" lon="-1.558327982202172">
        <ele>27.050000000000001</ele>
        <time>2018-07-04T16:53:16Z</time>
      </trkpt>
      <trkpt lat="48.783461004495621" lon="-1.558346003293991">
        <ele>26.57</ele>
        <time>2018-07-04T16:53:17Z</time>
      </trkpt>
      <trkpt lat="48.78347902558744" lon="-1.558365030214191">
        <ele>26.09</ele>
        <time>2018-07-04T16:53:18Z</time>
      </trkpt>
      <trkpt lat="48.783496040850878" lon="-1.558382967486978">
        <ele>26.09</ele>
        <time>2018-07-04T16:53:19Z</time>
      </trkpt>
      <trkpt lat="48.783512972295284" lon="-1.558400988578796">
        <ele>25.609999999999999</ele>
        <time>2018-07-04T16:53:20Z</time>
      </trkpt>
      <trkpt lat="48.783531999215484" lon="-1.558421021327376">
        <ele>25.129999999999999</ele>
        <time>2018-07-04T16:53:21Z</time>
      </trkpt>
      <trkpt lat="48.783553037792444" lon="-1.558442981913686">
        <ele>25.129999999999999</ele>
        <time>2018-07-04T16:53:22Z</time>
      </trkpt>
      <trkpt lat="48.783578015863895" lon="-1.558469971641898">
        <ele>25.129999999999999</ele>
        <time>2018-07-04T16:53:23Z</time>
      </trkpt>
      <trkpt lat="48.7838039919734" lon="-1.558707011863589">
        <ele>24.649999999999999</ele>
        <time>2018-07-04T16:53:31Z</time>
      </trkpt>
    </trkseg>
  </trk>

  <trk>
    <name>Track vom: 2018-07-04 19:26</name>
    <extensions>
      <gpxx:TrackExtension>
        <gpxx:DisplayColor>DarkGray</gpxx:DisplayColor>
      </gpxx:TrackExtension>
    </extensions>
    <trkseg>
      <trkpt lat="48.783969031646848" lon="-1.558452034369111">
        <ele>16.48</ele>
        <time>2018-07-04T17:26:36Z</time>
      </trkpt>
      <trkpt lat="48.783925026655197" lon="-1.55851598829031">
        <ele>23.210000000000001</ele>
        <time>2018-07-04T17:26:50Z</time>
      </trkpt>
      <trkpt lat="48.783926032483578" lon="-1.558555969968438">
        <ele>24.649999999999999</ele>
        <time>2018-07-04T17:26:55Z</time>
      </trkpt>
      <trkpt lat="48.783874986693263" lon="-1.558637022972107">
        <ele>25.129999999999999</ele>
        <time>2018-07-04T17:26:58Z</time>
      </trkpt>
      <trkpt lat="48.7838039919734" lon="-1.558707011863589">
        <ele>25.129999999999999</ele>
        <time>2018-07-04T17:27:00Z</time>
      </trkpt>
      <trkpt lat="48.783792005851865" lon="-1.558694019913673">
        <ele>24.649999999999999</ele>
        <time>2018-07-04T17:27:01Z</time>
      </trkpt>
      <trkpt lat="48.783774990588427" lon="-1.558675998821855">
        <ele>24.170000000000002</ele>
        <time>2018-07-04T17:27:02Z</time>
      </trkpt>
      <trkpt lat="48.783751018345356" lon="-1.558651020750403">
        <ele>23.690000000000001</ele>
        <time>2018-07-04T17:27:03Z</time>
      </trkpt>
      <trkpt lat="48.783723022788763" lon="-1.55862201936543">
        <ele>23.690000000000001</ele>
        <time>2018-07-04T17:27:04Z</time>
      </trkpt>
      <trkpt lat="48.78335396759212" lon="-1.55834399163723">
        <ele>21.289999999999999</ele>
        <time>2018-07-04T17:27:18Z</time>
      </trkpt>
      <trkpt lat="48.783039981499314" lon="-1.558851012960076">
        <ele>18.879999999999999</ele>
        <time>2018-07-04T17:27:29Z</time>
      </trkpt>
      <trkpt lat="48.782881982624531" lon="-1.559111019596458">
        <ele>16</ele>
        <time>2018-07-04T17:27:38Z</time>
      </trkpt>
      <trkpt lat="48.782881982624531" lon="-1.559111019596458">
        <ele>17.440000000000001</ele>
        <time>2018-07-04T17:27:58Z</time>
      </trkpt>
      <trkpt lat="48.782806964591146" lon="-1.559256026521325">
        <ele>17.440000000000001</ele>
        <time>2018-07-04T17:28:01Z</time>
      </trkpt>
      <trkpt lat="48.78277201205492" lon="-1.559325009584427">
        <ele>17.440000000000001</ele>
        <time>2018-07-04T17:28:02Z</time>
      </trkpt>
      <trkpt lat="48.782730018720031" lon="-1.559405978769064">
        <ele>17.440000000000001</ele>
        <time>2018-07-04T17:28:03Z</time>
      </trkpt>
      <trkpt lat="48.782460959628224" lon="-1.559981983155012">
        <ele>15.52</ele>
        <time>2018-07-04T17:28:09Z</time>
      </trkpt>
      <trkpt lat="48.782306984066963" lon="-1.5603659581393">
        <ele>13.6</ele>
        <time>2018-07-04T17:28:13Z</time>
      </trkpt>
      <trkpt lat="48.78217002376914" lon="-1.560843978077173">
        <ele>10.710000000000001</ele>
        <time>2018-07-04T17:28:21Z</time>
      </trkpt>
      <trkpt lat="48.782129036262631" lon="-1.56100801192224">
        <ele>9.75</ele>
        <time>2018-07-04T17:28:26Z</time>
      </trkpt>
      <trkpt lat="48.78212601877749" lon="-1.561004994437099">
        <ele>10.23</ele>
        <time>2018-07-04T17:28:27Z</time>
      </trkpt>
      <trkpt lat="48.78212995827198" lon="-1.561002982780337">
        <ele>10.23</ele>
        <time>2018-07-04T17:28:28Z</time>
      </trkpt>
      <trkpt lat="48.782044965773821" lon="-1.561056040227413">
        <ele>10.23</ele>
        <time>2018-07-04T17:28:29Z</time>
      </trkpt>
      <trkpt lat="48.781988974660635" lon="-1.561090992763639">
        <ele>10.23</ele>
        <time>2018-07-04T17:28:30Z</time>
      </trkpt>
      <trkpt lat="48.781928038224578" lon="-1.561128962785006">
        <ele>10.23</ele>
        <time>2018-07-04T17:28:31Z</time>
      </trkpt>
      <trkpt lat="48.781864000484347" lon="-1.561169028282166">
        <ele>10.23</ele>
        <time>2018-07-04T17:28:32Z</time>
      </trkpt>
      <trkpt lat="48.781800968572497" lon="-1.561208004131913">
        <ele>10.23</ele>
        <time>2018-07-04T17:28:33Z</time>
      </trkpt>
      <trkpt lat="48.781730979681015" lon="-1.561216972768307">
        <ele>10.23</ele>
        <time>2018-07-04T17:28:34Z</time>
      </trkpt>
      <trkpt lat="48.781021032482386" lon="-1.561153018847108">
        <ele>10.710000000000001</ele>
        <time>2018-07-04T17:28:44Z</time>
      </trkpt>
      <trkpt lat="48.780162977054715" lon="-1.561024021357298">
        <ele>11.19</ele>
        <time>2018-07-04T17:28:55Z</time>
      </trkpt>
      <trkpt lat="48.779486976563931" lon="-1.560975993052125">
        <ele>8.789999999999999</ele>
        <time>2018-07-04T17:29:05Z</time>
      </trkpt>
      <trkpt lat="48.779483959078789" lon="-1.56102703884244">
        <ele>8.789999999999999</ele>
        <time>2018-07-04T17:29:06Z</time>
      </trkpt>
      <trkpt lat="48.779481025412679" lon="-1.561085963621736">
        <ele>8.789999999999999</ele>
        <time>2018-07-04T17:29:07Z</time>
      </trkpt>
      <trkpt lat="48.779477002099156" lon="-1.56115997582674">
        <ele>9.27</ele>
        <time>2018-07-04T17:29:08Z</time>
      </trkpt>
      <trkpt lat="48.779471972957253" lon="-1.561246979981661">
        <ele>9.27</ele>
        <time>2018-07-04T17:29:09Z</time>
      </trkpt>
      <trkpt lat="48.779466021806002" lon="-1.561344964429736">
        <ele>9.27</ele>
        <time>2018-07-04T17:29:10Z</time>
      </trkpt>
      <trkpt lat="48.779459986835718" lon="-1.561449989676476">
        <ele>9.75</ele>
        <time>2018-07-04T17:29:11Z</time>
      </trkpt>
      <trkpt lat="48.779454035684466" lon="-1.56156599521637">
        <ele>10.23</ele>
        <time>2018-07-04T17:29:12Z</time>
      </trkpt>
      <trkpt lat="48.779448000714183" lon="-1.561677977442741">
        <ele>10.23</ele>
        <time>2018-07-04T17:29:13Z</time>
      </trkpt>
      <trkpt lat="48.779441965743899" lon="-1.561784008517861">
        <ele>10.23</ele>
        <time>2018-07-04T17:29:14Z</time>
      </trkpt>
      <trkpt lat="48.779435008764267" lon="-1.561891967430711">
        <ele>10.710000000000001</ele>
        <time>2018-07-04T17:29:15Z</time>
      </trkpt>
      <trkpt lat="48.779428973793983" lon="-1.562001015990973">
        <ele>11.19</ele>
        <time>2018-07-04T17:29:16Z</time>
      </trkpt>
      <trkpt lat="48.779426040127873" lon="-1.562115009874106">
        <ele>11.19</ele>
        <time>2018-07-04T17:29:17Z</time>
      </trkpt>
      <trkpt lat="48.779417993500829" lon="-1.562229003757238">
        <ele>11.19</ele>
        <time>2018-07-04T17:29:18Z</time>
      </trkpt>
      <trkpt lat="48.779407013207674" lon="-1.562337968498468">
        <ele>11.19</ele>
        <time>2018-07-04T17:29:19Z</time>
      </trkpt>
      <trkpt lat="48.779396032914519" lon="-1.562448022887111">
        <ele>11.67</ele>
        <time>2018-07-04T17:29:20Z</time>
      </trkpt>
      <trkpt lat="48.779340041801333" lon="-1.563020003959537">
        <ele>12.15</ele>
        <time>2018-07-04T17:29:25Z</time>
      </trkpt>
      <trkpt lat="48.779331995174289" lon="-1.563127962872386">
        <ele>12.15</ele>
        <time>2018-07-04T17:29:26Z</time>
      </trkpt>
      <trkpt lat="48.779324032366276" lon="-1.563238017261028">
        <ele>12.630000000000001</ele>
        <time>2018-07-04T17:29:27Z</time>
      </trkpt>
      <trkpt lat="48.779244991019368" lon="-1.564232027158141">
        <ele>13.119999999999999</ele>
        <time>2018-07-04T17:29:37Z</time>
      </trkpt>
      <trkpt lat="48.779228981584311" lon="-1.564436964690685">
        <ele>13.119999999999999</ele>
        <time>2018-07-04T17:29:39Z</time>
      </trkpt>
      <trkpt lat="48.779220012947917" lon="-1.564538972452283">
        <ele>13.6</ele>
        <time>2018-07-04T17:29:40Z</time>
      </trkpt>
      <trkpt lat="48.779211966320872" lon="-1.564643997699022">
        <ele>13.6</ele>
        <time>2018-07-04T17:29:41Z</time>
      </trkpt>
      <trkpt lat="48.779202997684479" lon="-1.564752040430903">
        <ele>13.6</ele>
        <time>2018-07-04T17:29:42Z</time>
      </trkpt>
      <trkpt lat="48.779194029048085" lon="-1.564859999343753">
        <ele>13.6</ele>
        <time>2018-07-04T17:29:43Z</time>
      </trkpt>
      <trkpt lat="48.77918497659266" lon="-1.564967036247253">
        <ele>13.6</ele>
        <time>2018-07-04T17:29:44Z</time>
      </trkpt>
      <trkpt lat="48.779140971601009" lon="-1.565514039248228">
        <ele>13.6</ele>
        <time>2018-07-04T17:29:49Z</time>
      </trkpt>
      <trkpt lat="48.779130997136235" lon="-1.565629960969091">
        <ele>13.119999999999999</ele>
        <time>2018-07-04T17:29:50Z</time>
      </trkpt>
      <trkpt lat="48.779122028499842" lon="-1.565747978165746">
        <ele>13.119999999999999</ele>
        <time>2018-07-04T17:29:51Z</time>
      </trkpt>
      <trkpt lat="48.779104007408023" lon="-1.567164016887546">
        <ele>12.630000000000001</ele>
        <time>2018-07-04T17:30:03Z</time>
      </trkpt>
      <trkpt lat="48.779104007408023" lon="-1.567467022687197">
        <ele>12.15</ele>
        <time>2018-07-04T17:30:10Z</time>
      </trkpt>
      <trkpt lat="48.779090009629726" lon="-1.567546986043453">
        <ele>12.15</ele>
        <time>2018-07-04T17:30:13Z</time>
      </trkpt>
      <trkpt lat="48.779056984931231" lon="-1.567546986043453">
        <ele>12.15</ele>
        <time>2018-07-04T17:30:14Z</time>
      </trkpt>
      <trkpt lat="48.779003005474806" lon="-1.567546986043453">
        <ele>12.15</ele>
        <time>2018-07-04T17:30:15Z</time>
      </trkpt>
      <trkpt lat="48.778936034068465" lon="-1.567546986043453">
        <ele>12.15</ele>
        <time>2018-07-04T17:30:16Z</time>
      </trkpt>
      <trkpt lat="48.778874007984996" lon="-1.567546986043453">
        <ele>12.15</ele>
        <time>2018-07-04T17:30:17Z</time>
      </trkpt>
      <trkpt lat="48.778817011043429" lon="-1.567546986043453">
        <ele>11.67</ele>
        <time>2018-07-04T17:30:18Z</time>
      </trkpt>
      <trkpt lat="48.778707962483168" lon="-1.567546986043453">
        <ele>11.67</ele>
        <time>2018-07-04T17:30:20Z</time>
      </trkpt>
      <trkpt lat="48.778581982478499" lon="-1.567546986043453">
        <ele>11.67</ele>
        <time>2018-07-04T17:30:22Z</time>
      </trkpt>
      <trkpt lat="48.777889972552657" lon="-1.567567018792033">
        <ele>11.67</ele>
        <time>2018-07-04T17:30:31Z</time>
      </trkpt>
      <trkpt lat="48.777805985882878" lon="-1.567569030448794">
        <ele>12.15</ele>
        <time>2018-07-04T17:30:32Z</time>
      </trkpt>
      <trkpt lat="48.777050022035837" lon="-1.567569030448794">
        <ele>12.15</ele>
        <time>2018-07-04T17:30:42Z</time>
      </trkpt>
      <trkpt lat="48.776724971830845" lon="-1.567573975771666">
        <ele>11.19</ele>
        <time>2018-07-04T17:30:47Z</time>
      </trkpt>
      <trkpt lat="48.776653977110982" lon="-1.567575987428427">
        <ele>11.19</ele>
        <time>2018-07-04T17:30:48Z</time>
      </trkpt>
      <trkpt lat="48.776165982708335" lon="-1.567587973549962">
        <ele>11.19</ele>
        <time>2018-07-04T17:30:58Z</time>
      </trkpt>
      <trkpt lat="48.776051988825202" lon="-1.567666009068489">
        <ele>11.67</ele>
        <time>2018-07-04T17:31:01Z</time>
      </trkpt>
      <trkpt lat="48.77604897134006" lon="-1.567716971039772">
        <ele>12.15</ele>
        <time>2018-07-04T17:31:02Z</time>
      </trkpt>
      <trkpt lat="48.776044026017189" lon="-1.567781008780003">
        <ele>12.15</ele>
        <time>2018-07-04T17:31:03Z</time>
      </trkpt>
      <trkpt lat="48.776038996875286" lon="-1.567856026813388">
        <ele>13.119999999999999</ele>
        <time>2018-07-04T17:31:04Z</time>
      </trkpt>
      <trkpt lat="48.776032961905003" lon="-1.567940013483167">
        <ele>13.119999999999999</ele>
        <time>2018-07-04T17:31:05Z</time>
      </trkpt>
      <trkpt lat="48.776014018803835" lon="-1.568213012069464">
        <ele>14.08</ele>
        <time>2018-07-04T17:31:08Z</time>
      </trkpt>
      <trkpt lat="48.776012007147074" lon="-1.56827000901103">
        <ele>14.56</ele>
        <time>2018-07-04T17:31:09Z</time>
      </trkpt>
      <trkpt lat="48.776008989661932" lon="-1.568347960710526">
        <ele>14.56</ele>
        <time>2018-07-04T17:31:10Z</time>
      </trkpt>
      <trkpt lat="48.77600597217679" lon="-1.56842197291553">
        <ele>15.039999999999999</ele>
        <time>2018-07-04T17:31:11Z</time>
      </trkpt>
      <trkpt lat="48.77600303851068" lon="-1.568489028140903">
        <ele>15.52</ele>
        <time>2018-07-04T17:31:12Z</time>
      </trkpt>
      <trkpt lat="48.776001026853919" lon="-1.568546025082469">
        <ele>16</ele>
        <time>2018-07-04T17:31:13Z</time>
      </trkpt>
      <trkpt lat="48.775999015197158" lon="-1.568592041730881">
        <ele>16.48</ele>
        <time>2018-07-04T17:31:14Z</time>
      </trkpt>
      <trkpt lat="48.775992980226874" lon="-1.56876596622169">
        <ele>18.879999999999999</ele>
        <time>2018-07-04T17:31:25Z</time>
      </trkpt>
      <trkpt lat="48.775992980226874" lon="-1.56876596622169">
        <ele>18.399999999999999</ele>
        <time>2018-07-04T17:31:39Z</time>
      </trkpt>
    </trkseg>
  </trk>

  <trk>
    <name>Track vom: 2018-07-04 20:29</name>
    <extensions>
      <gpxx:TrackExtension>
        <gpxx:DisplayColor>DarkGray</gpxx:DisplayColor>
      </gpxx:TrackExtension>
    </extensions>
    <trkseg>
      <trkpt lat="48.775946041569114" lon="-1.568831009790301">
        <ele>16</ele>
        <time>2018-07-04T18:29:46Z</time>
      </trkpt>
      <trkpt lat="48.775960961356759" lon="-1.568810977041721">
        <ele>14.08</ele>
        <time>2018-07-04T18:30:01Z</time>
      </trkpt>
      <trkpt lat="48.775978982448578" lon="-1.568740988150239">
        <ele>15.039999999999999</ele>
        <time>2018-07-04T18:30:04Z</time>
      </trkpt>
      <trkpt lat="48.775997003540397" lon="-1.568638980388641">
        <ele>15.039999999999999</ele>
        <time>2018-07-04T18:30:07Z</time>
      </trkpt>
      <trkpt lat="48.775979988276958" lon="-1.568729002028704">
        <ele>14.56</ele>
        <time>2018-07-04T18:30:08Z</time>
      </trkpt>
      <trkpt lat="48.775960961356759" lon="-1.568732019513845">
        <ele>14.56</ele>
        <time>2018-07-04T18:30:09Z</time>
      </trkpt>
      <trkpt lat="48.775937994942069" lon="-1.568735036998987">
        <ele>14.08</ele>
        <time>2018-07-04T18:30:11Z</time>
      </trkpt>
      <trkpt lat="48.775878986343741" lon="-1.568742999807">
        <ele>14.08</ele>
        <time>2018-07-04T18:30:12Z</time>
      </trkpt>
      <trkpt lat="48.775370959192514" lon="-1.568491039797664">
        <ele>12.15</ele>
        <time>2018-07-04T18:30:26Z</time>
      </trkpt>
      <trkpt lat="48.77529501914978" lon="-1.568088959902525">
        <ele>12.15</ele>
        <time>2018-07-04T18:30:39Z</time>
      </trkpt>
    </trkseg>
  </trk>

  <trk>
    <name>Track vom: 2018-07-04 20:31</name>
    <extensions>
      <gpxx:TrackExtension>
        <gpxx:DisplayColor>DarkGray</gpxx:DisplayColor>
      </gpxx:TrackExtension>
    </extensions>
    <trkseg>
      <trkpt lat="48.775224024429917" lon="-1.567739015445113">
        <ele>13.119999999999999</ele>
        <time>2018-07-04T18:31:03Z</time>
      </trkpt>
      <trkpt lat="48.775214971974492" lon="-1.567691992968321">
        <ele>13.6</ele>
        <time>2018-07-04T18:31:11Z</time>
      </trkpt>
      <trkpt lat="48.775280015543103" lon="-1.567612029612064">
        <ele>13.119999999999999</ele>
        <time>2018-07-04T18:31:12Z</time>
      </trkpt>
      <trkpt lat="48.775324020534754" lon="-1.567612029612064">
        <ele>13.6</ele>
        <time>2018-07-04T18:31:13Z</time>
      </trkpt>
      <trkpt lat="48.775469027459621" lon="-1.5676049888134">
        <ele>13.119999999999999</ele>
        <time>2018-07-04T18:31:17Z</time>
      </trkpt>
      <trkpt lat="48.775557959452271" lon="-1.567594008520246">
        <ele>13.119999999999999</ele>
        <time>2018-07-04T18:31:18Z</time>
      </trkpt>
      <trkpt lat="48.775557959452271" lon="-1.567594008520246">
        <ele>13.119999999999999</ele>
        <time>2018-07-04T18:31:19Z</time>
      </trkpt>
      <trkpt lat="48.775585032999516" lon="-1.567589985206723">
        <ele>13.6</ele>
        <time>2018-07-04T18:31:20Z</time>
      </trkpt>
      <trkpt lat="48.775585032999516" lon="-1.567589985206723">
        <ele>13.6</ele>
        <time>2018-07-04T18:31:21Z</time>
      </trkpt>
      <trkpt lat="48.775714030489326" lon="-1.567612029612064">
        <ele>13.6</ele>
        <time>2018-07-04T18:31:22Z</time>
      </trkpt>
      <trkpt lat="48.776469994336367" lon="-1.56758101657033">
        <ele>13.6</ele>
        <time>2018-07-04T18:31:35Z</time>
      </trkpt>
      <trkpt lat="48.776642996817827" lon="-1.567575987428427">
        <ele>13.119999999999999</ele>
        <time>2018-07-04T18:31:38Z</time>
      </trkpt>
      <trkpt lat="48.77705798484385" lon="-1.567569030448794">
        <ele>12.630000000000001</ele>
        <time>2018-07-04T18:31:45Z</time>
      </trkpt>
      <trkpt lat="48.777116993442178" lon="-1.567569030448794">
        <ele>12.15</ele>
        <time>2018-07-04T18:31:46Z</time>
      </trkpt>
      <trkpt lat="48.777177007868886" lon="-1.567569030448794">
        <ele>12.15</ele>
        <time>2018-07-04T18:31:47Z</time>
      </trkpt>
      <trkpt lat="48.777361996471882" lon="-1.567569030448794">
        <ele>11.19</ele>
        <time>2018-07-04T18:31:51Z</time>
      </trkpt>
      <trkpt lat="48.777424022555351" lon="-1.567569030448794">
        <ele>10.710000000000001</ele>
        <time>2018-07-04T18:31:52Z</time>
      </trkpt>
      <trkpt lat="48.778229020535946" lon="-1.567554026842117">
        <ele>10.23</ele>
        <time>2018-07-04T18:32:04Z</time>
      </trkpt>
      <trkpt lat="48.779154969379306" lon="-1.567546986043453">
        <ele>10.710000000000001</ele>
        <time>2018-07-04T18:32:16Z</time>
      </trkpt>
      <trkpt lat="48.779236022382975" lon="-1.567546986043453">
        <ele>10.710000000000001</ele>
        <time>2018-07-04T18:32:17Z</time>
      </trkpt>
      <trkpt lat="48.77955000847578" lon="-1.567546986043453">
        <ele>10.23</ele>
        <time>2018-07-04T18:32:21Z</time>
      </trkpt>
      <trkpt lat="48.780207987874746" lon="-1.567546986043453">
        <ele>11.19</ele>
        <time>2018-07-04T18:32:31Z</time>
      </trkpt>
      <trkpt lat="48.780481992289424" lon="-1.567531982436776">
        <ele>11.67</ele>
        <time>2018-07-04T18:32:37Z</time>
      </trkpt>
      <trkpt lat="48.780532032251358" lon="-1.567528964951634">
        <ele>11.67</ele>
        <time>2018-07-04T18:32:38Z</time>
      </trkpt>
      <trkpt lat="48.780572013929486" lon="-1.567527037113905">
        <ele>11.19</ele>
        <time>2018-07-04T18:32:39Z</time>
      </trkpt>
      <trkpt lat="48.780585005879402" lon="-1.567478002980351">
        <ele>11.19</ele>
        <time>2018-07-04T18:32:40Z</time>
      </trkpt>
      <trkpt lat="48.780585005879402" lon="-1.56743198633194">
        <ele>10.710000000000001</ele>
        <time>2018-07-04T18:32:41Z</time>
      </trkpt>
      <trkpt lat="48.780585005879402" lon="-1.567372977733612">
        <ele>10.710000000000001</ele>
        <time>2018-07-04T18:32:42Z</time>
      </trkpt>
      <trkpt lat="48.780585005879402" lon="-1.567301983013749">
        <ele>10.710000000000001</ele>
        <time>2018-07-04T18:32:43Z</time>
      </trkpt>
      <trkpt lat="48.780585005879402" lon="-1.567223025485873">
        <ele>10.710000000000001</ele>
        <time>2018-07-04T18:32:44Z</time>
      </trkpt>
      <trkpt lat="48.780585005879402" lon="-1.566049978137016">
        <ele>9.75</ele>
        <time>2018-07-04T18:32:55Z</time>
      </trkpt>
      <trkpt lat="48.78068801946938" lon="-1.564702000468969">
        <ele>9.75</ele>
        <time>2018-07-04T18:33:07Z</time>
      </trkpt>
      <trkpt lat="48.780704028904438" lon="-1.564520029351115">
        <ele>10.23</ele>
        <time>2018-07-04T18:33:09Z</time>
      </trkpt>
      <trkpt lat="48.780722972005606" lon="-1.564312996342778">
        <ele>10.23</ele>
        <time>2018-07-04T18:33:12Z</time>
      </trkpt>
      <trkpt lat="48.780732024461031" lon="-1.564211994409561">
        <ele>10.23</ele>
        <time>2018-07-04T18:33:15Z</time>
      </trkpt>
      <trkpt lat="48.780749961733818" lon="-1.564180981367827">
        <ele>10.23</ele>
        <time>2018-07-04T18:33:16Z</time>
      </trkpt>
      <trkpt lat="48.780775023624301" lon="-1.564186010509729">
        <ele>9.75</ele>
        <time>2018-07-04T18:33:17Z</time>
      </trkpt>
      <trkpt lat="48.780852975323796" lon="-1.564201014116406">
        <ele>10.23</ele>
        <time>2018-07-04T18:33:19Z</time>
      </trkpt>
      <trkpt lat="48.781157992780209" lon="-1.564260022714734">
        <ele>10.23</ele>
        <time>2018-07-04T18:33:25Z</time>
      </trkpt>
      <trkpt lat="48.781205015257001" lon="-1.564268991351128">
        <ele>9.75</ele>
        <time>2018-07-04T18:33:26Z</time>
      </trkpt>
      <trkpt lat="48.781250026077032" lon="-1.564277959987521">
        <ele>9.75</ele>
        <time>2018-07-04T18:33:27Z</time>
      </trkpt>
      <trkpt lat="48.781313979998231" lon="-1.564205037429929">
        <ele>9.75</ele>
        <time>2018-07-04T18:33:28Z</time>
      </trkpt>
      <trkpt lat="48.78133300691843" lon="-1.564135970547795">
        <ele>9.75</ele>
        <time>2018-07-04T18:33:29Z</time>
      </trkpt>
      <trkpt lat="48.781351028010249" lon="-1.564067993313074">
        <ele>9.75</ele>
        <time>2018-07-04T18:33:30Z</time>
      </trkpt>
      <trkpt lat="48.781583039090037" lon="-1.56319702975452">
        <ele>11.67</ele>
        <time>2018-07-04T18:33:40Z</time>
      </trkpt>
      <trkpt lat="48.78189199604094" lon="-1.56203898601234">
        <ele>12.630000000000001</ele>
        <time>2018-07-04T18:33:50Z</time>
      </trkpt>
      <trkpt lat="48.782055024057627" lon="-1.561428029090166">
        <ele>9.75</ele>
        <time>2018-07-04T18:33:57Z</time>
      </trkpt>
      <trkpt lat="48.7820840254426" lon="-1.561276987195015">
        <ele>8.789999999999999</ele>
        <time>2018-07-04T18:33:59Z</time>
      </trkpt>
      <trkpt lat="48.782095005735755" lon="-1.561211021617055">
        <ele>8.310000000000001</ele>
        <time>2018-07-04T18:34:00Z</time>
      </trkpt>
      <trkpt lat="48.782104980200529" lon="-1.561150001361966">
        <ele>7.83</ele>
        <time>2018-07-04T18:34:01Z</time>
      </trkpt>
      <trkpt lat="48.782115038484335" lon="-1.561088981106877">
        <ele>7.83</ele>
        <time>2018-07-04T18:34:02Z</time>
      </trkpt>
      <trkpt lat="48.78212601877749" lon="-1.56102703884244">
        <ele>7.35</ele>
        <time>2018-07-04T18:34:03Z</time>
      </trkpt>
      <trkpt lat="48.782136999070644" lon="-1.560974987223744">
        <ele>7.35</ele>
        <time>2018-07-04T18:34:04Z</time>
      </trkpt>
      <trkpt lat="48.782150996848941" lon="-1.560916984453797">
        <ele>7.35</ele>
        <time>2018-07-04T18:34:05Z</time>
      </trkpt>
      <trkpt lat="48.782168012112379" lon="-1.560850013047457">
        <ele>7.35</ele>
        <time>2018-07-04T18:34:06Z</time>
      </trkpt>
      <trkpt lat="48.782187961041927" lon="-1.56077197752893">
        <ele>7.35</ele>
        <time>2018-07-04T18:34:07Z</time>
      </trkpt>
      <trkpt lat="48.782207993790507" lon="-1.560690002515912">
        <ele>7.35</ele>
        <time>2018-07-04T18:34:08Z</time>
      </trkpt>
      <trkpt lat="48.782230038195848" lon="-1.56060098670423">
        <ele>7.35</ele>
        <time>2018-07-04T18:34:09Z</time>
      </trkpt>
      <trkpt lat="48.782532038167119" lon="-1.559805041179061">
        <ele>9.27</ele>
        <time>2018-07-04T18:34:18Z</time>
      </trkpt>
      <trkpt lat="48.782615019008517" lon="-1.559628015384078">
        <ele>9.27</ele>
        <time>2018-07-04T18:34:20Z</time>
      </trkpt>
      <trkpt lat="48.782658018171787" lon="-1.55954503454268">
        <ele>9.27</ele>
        <time>2018-07-04T18:34:21Z</time>
      </trkpt>
      <trkpt lat="48.782702023163438" lon="-1.559459958225489">
        <ele>9.75</ele>
        <time>2018-07-04T18:34:22Z</time>
      </trkpt>
      <trkpt lat="48.783214995637536" lon="-1.558568961918354">
        <ele>18.399999999999999</ele>
        <time>2018-07-04T18:34:33Z</time>
      </trkpt>
      <trkpt lat="48.783261012285948" lon="-1.558494027704001">
        <ele>19.359999999999999</ele>
        <time>2018-07-04T18:34:34Z</time>
      </trkpt>
      <trkpt lat="48.783305017277598" lon="-1.558424038812518">
        <ele>20.32</ele>
        <time>2018-07-04T18:34:35Z</time>
      </trkpt>
      <trkpt lat="48.783340975642204" lon="-1.558366036042571">
        <ele>21.289999999999999</ele>
        <time>2018-07-04T18:34:36Z</time>
      </trkpt>
      <trkpt lat="48.783369977027178" lon="-1.558319013565779">
        <ele>21.77</ele>
        <time>2018-07-04T18:34:37Z</time>
      </trkpt>
      <trkpt lat="48.783429991453886" lon="-1.558313984423876">
        <ele>22.73</ele>
        <time>2018-07-04T18:34:38Z</time>
      </trkpt>
      <trkpt lat="48.78345999866724" lon="-1.558344997465611">
        <ele>23.210000000000001</ele>
        <time>2018-07-04T18:34:39Z</time>
      </trkpt>
      <trkpt lat="48.783529987558722" lon="-1.558419009670615">
        <ele>23.690000000000001</ele>
        <time>2018-07-04T18:34:40Z</time>
      </trkpt>
      <trkpt lat="48.783593019470572" lon="-1.558484975248575">
        <ele>24.649999999999999</ele>
        <time>2018-07-04T18:34:42Z</time>
      </trkpt>
      <trkpt lat="48.783783037215471" lon="-1.558685973286629">
        <ele>26.57</ele>
        <time>2018-07-04T18:34:51Z</time>
      </trkpt>
      <trkpt lat="48.783798962831497" lon="-1.558700976893306">
        <ele>26.57</ele>
        <time>2018-07-04T18:34:52Z</time>
      </trkpt>
      <trkpt lat="48.7838039919734" lon="-1.558707011863589">
        <ele>26.57</ele>
        <time>2018-07-04T18:34:53Z</time>
      </trkpt>
    </trkseg>
  </trk>

</gpx>